﻿<?xml version="1.0" encoding="utf-8"?><gpx creator="Garmin Desktop App" version="1.1" xsi:schemaLocation="http://www.topografix.com/GPX/1/1 http://www.topografix.com/GPX/1/1/gpx.xsd http://www.garmin.com/xmlschemas/WaypointExtension/v1 http://www8.garmin.com/xmlschemas/WaypointExtensionv1.xsd http://www.garmin.com/xmlschemas/TrackPointExtension/v1 http://www.garmin.com/xmlschemas/TrackPointExtensionv1.xsd http://www.garmin.com/xmlschemas/GpxExtensions/v3 http://www8.garmin.com/xmlschemas/GpxExtensionsv3.xsd http://www.garmin.com/xmlschemas/ActivityExtension/v1 http://www8.garmin.com/xmlschemas/ActivityExtensionv1.xsd http://www.garmin.com/xmlschemas/AdventuresExtensions/v1 http://www8.garmin.com/xmlschemas/AdventuresExtensionv1.xsd http://www.garmin.com/xmlschemas/PressureExtension/v1 http://www.garmin.com/xmlschemas/PressureExtensionv1.xsd http://www.garmin.com/xmlschemas/TripExtensions/v1 http://www.garmin.com/xmlschemas/TripExtensionsv1.xsd http://www.garmin.com/xmlschemas/TripMetaDataExtensions/v1 http://www.garmin.com/xmlschemas/TripMetaDataExtensionsv1.xsd http://www.garmin.com/xmlschemas/ViaPointTransportationModeExtensions/v1 http://www.garmin.com/xmlschemas/ViaPointTransportationModeExtensionsv1.xsd http://www.garmin.com/xmlschemas/CreationTimeExtension/v1 http://www.garmin.com/xmlschemas/CreationTimeExtensionsv1.xsd http://www.garmin.com/xmlschemas/AccelerationExtension/v1 http://www.garmin.com/xmlschemas/AccelerationExtensionv1.xsd http://www.garmin.com/xmlschemas/PowerExtension/v1 http://www.garmin.com/xmlschemas/PowerExtensionv1.xsd http://www.garmin.com/xmlschemas/VideoExtension/v1 http://www.garmin.com/xmlschemas/VideoExtensionv1.xsd" xmlns="http://www.topografix.com/GPX/1/1" xmlns:xsi="http://www.w3.org/2001/XMLSchema-instance" xmlns:wptx1="http://www.garmin.com/xmlschemas/WaypointExtension/v1" xmlns:gpxtrx="http://www.garmin.com/xmlschemas/GpxExtensions/v3" xmlns:gpxtpx="http://www.garmin.com/xmlschemas/TrackPointExtension/v1" xmlns:gpxx="http://www.garmin.com/xmlschemas/GpxExtensions/v3" xmlns:trp="http://www.garmin.com/xmlschemas/TripExtensions/v1" xmlns:adv="http://www.garmin.com/xmlschemas/AdventuresExtensions/v1" xmlns:prs="http://www.garmin.com/xmlschemas/PressureExtension/v1" xmlns:tmd="http://www.garmin.com/xmlschemas/TripMetaDataExtensions/v1" xmlns:vptm="http://www.garmin.com/xmlschemas/ViaPointTransportationModeExtensions/v1" xmlns:ctx="http://www.garmin.com/xmlschemas/CreationTimeExtension/v1" xmlns:gpxacc="http://www.garmin.com/xmlschemas/AccelerationExtension/v1" xmlns:gpxpx="http://www.garmin.com/xmlschemas/PowerExtension/v1" xmlns:vidx1="http://www.garmin.com/xmlschemas/VideoExtension/v1">

  <metadata>
    <link href="http://www.garmin.com">
      <text>Garmin International</text>
    </link>
    <time>2021-01-23T13:10:54Z</time>
    <bounds maxlat="38.124669743701816" maxlon="12.808096641674638" minlat="37.926137410104275" minlon="12.046520356088877" />
  </metadata>

  <trk>
    <name>2017-09-17isola di levanzo</name>
    <extensions>
      <gpxx:TrackExtension>
        <gpxx:DisplayColor>Yellow</gpxx:DisplayColor>
      </gpxx:TrackExtension>
    </extensions>
    <trkseg>
      <trkpt lat="37.986554754897952" lon="12.3418755736202">
        <ele>11.19</ele>
        <time>2017-09-17T07:07:04Z</time>
      </trkpt>
      <trkpt lat="37.986546289175749" lon="12.341884039342403">
        <ele>11.19</ele>
        <time>2017-09-17T07:07:05Z</time>
      </trkpt>
      <trkpt lat="37.986529860645533" lon="12.341888900846243">
        <ele>11.19</ele>
        <time>2017-09-17T07:07:06Z</time>
      </trkpt>
      <trkpt lat="37.986518125981092" lon="12.341891331598163">
        <ele>11.19</ele>
        <time>2017-09-17T07:07:07Z</time>
      </trkpt>
      <trkpt lat="37.98650186508894" lon="12.341892421245575">
        <ele>10.710000000000001</ele>
        <time>2017-09-17T07:07:08Z</time>
      </trkpt>
      <trkpt lat="37.986488286405802" lon="12.341893510892987">
        <ele>10.710000000000001</ele>
        <time>2017-09-17T07:07:09Z</time>
      </trkpt>
      <trkpt lat="37.986511923372746" lon="12.341901054605842">
        <ele>10.710000000000001</ele>
        <time>2017-09-17T07:07:22Z</time>
      </trkpt>
      <trkpt lat="37.986610578373075" lon="12.341950172558427">
        <ele>10.710000000000001</ele>
        <time>2017-09-17T07:07:44Z</time>
      </trkpt>
      <trkpt lat="37.986601525917649" lon="12.342000547796488">
        <ele>10.710000000000001</ele>
        <time>2017-09-17T07:07:58Z</time>
      </trkpt>
      <trkpt lat="37.986634047701955" lon="12.341971797868609">
        <ele>10.23</ele>
        <time>2017-09-17T07:08:07Z</time>
      </trkpt>
      <trkpt lat="37.986638238653541" lon="12.341965595260262">
        <ele>9.75</ele>
        <time>2017-09-17T07:08:16Z</time>
      </trkpt>
      <trkpt lat="37.986655840650201" lon="12.341918991878629">
        <ele>9.75</ele>
        <time>2017-09-17T07:08:26Z</time>
      </trkpt>
      <trkpt lat="37.986660283058882" lon="12.341891415417194">
        <ele>9.27</ele>
        <time>2017-09-17T07:08:46Z</time>
      </trkpt>
      <trkpt lat="37.986688446253538" lon="12.341923266649246">
        <ele>9.27</ele>
        <time>2017-09-17T07:08:59Z</time>
      </trkpt>
      <trkpt lat="37.986696157604456" lon="12.341933157294989">
        <ele>9.75</ele>
        <time>2017-09-17T07:09:08Z</time>
      </trkpt>
      <trkpt lat="37.986755417659879" lon="12.341965427622199">
        <ele>9.75</ele>
        <time>2017-09-17T07:09:19Z</time>
      </trkpt>
      <trkpt lat="37.98681409098208" lon="12.341955117881298">
        <ele>9.75</ele>
        <time>2017-09-17T07:09:29Z</time>
      </trkpt>
      <trkpt lat="37.986797327175736" lon="12.342002224177122">
        <ele>9.75</ele>
        <time>2017-09-17T07:09:40Z</time>
      </trkpt>
      <trkpt lat="37.986783413216472" lon="12.342032818123698">
        <ele>8.789999999999999</ele>
        <time>2017-09-17T07:09:57Z</time>
      </trkpt>
      <trkpt lat="37.986776623874903" lon="12.342043211683631">
        <ele>9.27</ele>
        <time>2017-09-17T07:10:14Z</time>
      </trkpt>
      <trkpt lat="37.986773522570729" lon="12.342026112601161">
        <ele>9.27</ele>
        <time>2017-09-17T07:10:26Z</time>
      </trkpt>
      <trkpt lat="37.986780982464552" lon="12.342002978548408">
        <ele>9.27</ele>
        <time>2017-09-17T07:10:41Z</time>
      </trkpt>
      <trkpt lat="37.986735804006457" lon="12.34202653169632">
        <ele>9.75</ele>
        <time>2017-09-17T07:10:52Z</time>
      </trkpt>
      <trkpt lat="37.986683920025826" lon="12.342063244432211">
        <ele>9.75</ele>
        <time>2017-09-17T07:11:02Z</time>
      </trkpt>
      <trkpt lat="37.98670956864953" lon="12.342039188370109">
        <ele>10.710000000000001</ele>
        <time>2017-09-17T07:11:22Z</time>
      </trkpt>
      <trkpt lat="37.986699929460883" lon="12.3420275375247">
        <ele>10.710000000000001</ele>
        <time>2017-09-17T07:11:38Z</time>
      </trkpt>
      <trkpt lat="37.986695319414139" lon="12.342026866972446">
        <ele>10.710000000000001</ele>
        <time>2017-09-17T07:12:04Z</time>
      </trkpt>
      <trkpt lat="37.986695151776075" lon="12.342030974105">
        <ele>10.23</ele>
        <time>2017-09-17T07:12:22Z</time>
      </trkpt>
      <trkpt lat="37.986691799014807" lon="12.342054191976786">
        <ele>10.23</ele>
        <time>2017-09-17T07:12:44Z</time>
      </trkpt>
      <trkpt lat="37.986698755994439" lon="12.342052767053246">
        <ele>10.23</ele>
        <time>2017-09-17T07:12:55Z</time>
      </trkpt>
      <trkpt lat="37.98671443015337" lon="12.342038098722696">
        <ele>9.75</ele>
        <time>2017-09-17T07:13:08Z</time>
      </trkpt>
      <trkpt lat="37.986687105149031" lon="12.34206123277545">
        <ele>10.23</ele>
        <time>2017-09-17T07:13:24Z</time>
      </trkpt>
      <trkpt lat="37.986698504537344" lon="12.342036087065935">
        <ele>10.23</ele>
        <time>2017-09-17T07:13:35Z</time>
      </trkpt>
      <trkpt lat="37.986707221716642" lon="12.342057963833213">
        <ele>10.23</ele>
        <time>2017-09-17T07:13:44Z</time>
      </trkpt>
      <trkpt lat="37.986729852855206" lon="12.342093167826533">
        <ele>10.23</ele>
        <time>2017-09-17T07:13:48Z</time>
      </trkpt>
      <trkpt lat="37.986750891432166" lon="12.342142537236214">
        <ele>10.23</ele>
        <time>2017-09-17T07:13:59Z</time>
      </trkpt>
      <trkpt lat="37.986764553934336" lon="12.342145470902324">
        <ele>10.710000000000001</ele>
        <time>2017-09-17T07:14:14Z</time>
      </trkpt>
      <trkpt lat="37.98677209764719" lon="12.342123677954078">
        <ele>9.75</ele>
        <time>2017-09-17T07:14:31Z</time>
      </trkpt>
      <trkpt lat="37.986768828704953" lon="12.342093419283628">
        <ele>9.75</ele>
        <time>2017-09-17T07:14:36Z</time>
      </trkpt>
      <trkpt lat="37.986833704635501" lon="12.342065423727036">
        <ele>10.23</ele>
        <time>2017-09-17T07:14:46Z</time>
      </trkpt>
      <trkpt lat="37.986843762919307" lon="12.342067435383797">
        <ele>10.23</ele>
        <time>2017-09-17T07:14:59Z</time>
      </trkpt>
      <trkpt lat="37.986842337995768" lon="12.34207640402019">
        <ele>9.75</ele>
        <time>2017-09-17T07:15:18Z</time>
      </trkpt>
      <trkpt lat="37.986768996343017" lon="12.342122085392475">
        <ele>10.23</ele>
        <time>2017-09-17T07:15:29Z</time>
      </trkpt>
      <trkpt lat="37.986734295263886" lon="12.342143543064594">
        <ele>10.23</ele>
        <time>2017-09-17T07:15:39Z</time>
      </trkpt>
      <trkpt lat="37.986742174252868" lon="12.342153014615178">
        <ele>10.23</ele>
        <time>2017-09-17T07:15:49Z</time>
      </trkpt>
      <trkpt lat="37.986739156767726" lon="12.342144465073943">
        <ele>10.23</ele>
        <time>2017-09-17T07:16:02Z</time>
      </trkpt>
      <trkpt lat="37.986752819269896" lon="12.342135077342391">
        <ele>10.23</ele>
        <time>2017-09-17T07:16:15Z</time>
      </trkpt>
      <trkpt lat="37.98675843514502" lon="12.342110769823194">
        <ele>10.23</ele>
        <time>2017-09-17T07:16:30Z</time>
      </trkpt>
      <trkpt lat="37.986790873110294" lon="12.34203533269465">
        <ele>10.23</ele>
        <time>2017-09-17T07:16:44Z</time>
      </trkpt>
      <trkpt lat="37.9868009313941" lon="12.342026447877288">
        <ele>10.23</ele>
        <time>2017-09-17T07:16:53Z</time>
      </trkpt>
      <trkpt lat="37.986846193671227" lon="12.34198353253305">
        <ele>10.23</ele>
        <time>2017-09-17T07:17:05Z</time>
      </trkpt>
      <trkpt lat="37.986828256398439" lon="12.341996356844902">
        <ele>10.23</ele>
        <time>2017-09-17T07:17:14Z</time>
      </trkpt>
      <trkpt lat="37.986855581402779" lon="12.341957464814186">
        <ele>10.710000000000001</ele>
        <time>2017-09-17T07:17:20Z</time>
      </trkpt>
      <trkpt lat="37.986885756254196" lon="12.341917064040899">
        <ele>10.710000000000001</ele>
        <time>2017-09-17T07:17:24Z</time>
      </trkpt>
      <trkpt lat="37.986925067380071" lon="12.341830227524042">
        <ele>11.19</ele>
        <time>2017-09-17T07:17:33Z</time>
      </trkpt>
      <trkpt lat="37.986989188939333" lon="12.341740373522043">
        <ele>11.67</ele>
        <time>2017-09-17T07:17:44Z</time>
      </trkpt>
      <trkpt lat="37.987063871696591" lon="12.34160291031003">
        <ele>12.630000000000001</ele>
        <time>2017-09-17T07:17:57Z</time>
      </trkpt>
      <trkpt lat="37.987106954678893" lon="12.341475505381823">
        <ele>13.119999999999999</ele>
        <time>2017-09-17T07:18:09Z</time>
      </trkpt>
      <trkpt lat="37.987162359058857" lon="12.341326642781496">
        <ele>14.08</ele>
        <time>2017-09-17T07:18:23Z</time>
      </trkpt>
      <trkpt lat="37.987198568880558" lon="12.34124818816781">
        <ele>14.56</ele>
        <time>2017-09-17T07:18:33Z</time>
      </trkpt>
      <trkpt lat="37.987197730690241" lon="12.341191191226244">
        <ele>10.23</ele>
        <time>2017-09-17T07:18:47Z</time>
      </trkpt>
      <trkpt lat="37.987215248867869" lon="12.341162944212556">
        <ele>16.960000000000001</ele>
        <time>2017-09-17T07:18:48Z</time>
      </trkpt>
      <trkpt lat="37.987213404849172" lon="12.341162692755461">
        <ele>15.039999999999999</ele>
        <time>2017-09-17T07:18:49Z</time>
      </trkpt>
      <trkpt lat="37.987228073179722" lon="12.341183312237263">
        <ele>14.56</ele>
        <time>2017-09-17T07:19:08Z</time>
      </trkpt>
      <trkpt lat="37.987226480618119" lon="12.341169649735093">
        <ele>15.039999999999999</ele>
        <time>2017-09-17T07:19:22Z</time>
      </trkpt>
      <trkpt lat="37.987215584143996" lon="12.341184988617897">
        <ele>15.52</ele>
        <time>2017-09-17T07:19:37Z</time>
      </trkpt>
      <trkpt lat="37.987220278009772" lon="12.341177696362138">
        <ele>15.52</ele>
        <time>2017-09-17T07:19:51Z</time>
      </trkpt>
      <trkpt lat="37.987226899713278" lon="12.341171242296696">
        <ele>15.039999999999999</ele>
        <time>2017-09-17T07:20:04Z</time>
      </trkpt>
      <trkpt lat="37.9872274864465" lon="12.341172331944108">
        <ele>14.56</ele>
        <time>2017-09-17T07:20:24Z</time>
      </trkpt>
      <trkpt lat="37.987208878621459" lon="12.341166464611888">
        <ele>14.56</ele>
        <time>2017-09-17T07:20:59Z</time>
      </trkpt>
      <trkpt lat="37.987218769267201" lon="12.34117928892374">
        <ele>14.56</ele>
        <time>2017-09-17T07:21:24Z</time>
      </trkpt>
      <trkpt lat="37.987217763438821" lon="12.341179456561804">
        <ele>14.08</ele>
        <time>2017-09-17T07:21:58Z</time>
      </trkpt>
      <trkpt lat="37.987206615507603" lon="12.341176439076662">
        <ele>14.56</ele>
        <time>2017-09-17T07:22:27Z</time>
      </trkpt>
      <trkpt lat="37.987213907763362" lon="12.341174427419901">
        <ele>13.6</ele>
        <time>2017-09-17T07:22:42Z</time>
      </trkpt>
      <trkpt lat="37.987223630771041" lon="12.34116705134511">
        <ele>14.08</ele>
        <time>2017-09-17T07:22:56Z</time>
      </trkpt>
      <trkpt lat="37.987241400405765" lon="12.341164369136095">
        <ele>13.6</ele>
        <time>2017-09-17T07:23:17Z</time>
      </trkpt>
      <trkpt lat="37.987240310758352" lon="12.341151209548116">
        <ele>13.6</ele>
        <time>2017-09-17T07:23:38Z</time>
      </trkpt>
      <trkpt lat="37.987247686833143" lon="12.3410898540169">
        <ele>14.08</ele>
        <time>2017-09-17T07:23:50Z</time>
      </trkpt>
      <trkpt lat="37.987284315750003" lon="12.341007795184851">
        <ele>14.08</ele>
        <time>2017-09-17T07:24:04Z</time>
      </trkpt>
      <trkpt lat="37.987304180860519" lon="12.340983906760812">
        <ele>14.56</ele>
        <time>2017-09-17T07:24:16Z</time>
      </trkpt>
      <trkpt lat="37.98733351752162" lon="12.340896902605891">
        <ele>14.56</ele>
        <time>2017-09-17T07:24:28Z</time>
      </trkpt>
      <trkpt lat="37.987367380410433" lon="12.340811239555478">
        <ele>14.56</ele>
        <time>2017-09-17T07:24:39Z</time>
      </trkpt>
      <trkpt lat="37.987354891374707" lon="12.340804450213909">
        <ele>14.56</ele>
        <time>2017-09-17T07:24:50Z</time>
      </trkpt>
      <trkpt lat="37.987354304641485" lon="12.340762121602893">
        <ele>14.56</ele>
        <time>2017-09-17T07:24:59Z</time>
      </trkpt>
      <trkpt lat="37.987344330176711" lon="12.340611750259995">
        <ele>14.56</ele>
        <time>2017-09-17T07:25:11Z</time>
      </trkpt>
      <trkpt lat="37.987350448966026" lon="12.34043606556952">
        <ele>14.56</ele>
        <time>2017-09-17T07:25:25Z</time>
      </trkpt>
      <trkpt lat="37.987408535555005" lon="12.340221991762519">
        <ele>14.08</ele>
        <time>2017-09-17T07:25:39Z</time>
      </trkpt>
      <trkpt lat="37.987442230805755" lon="12.340159211307764">
        <ele>14.08</ele>
        <time>2017-09-17T07:25:48Z</time>
      </trkpt>
      <trkpt lat="37.98746888525784" lon="12.339993081986904">
        <ele>14.08</ele>
        <time>2017-09-17T07:26:02Z</time>
      </trkpt>
      <trkpt lat="37.987532922998071" lon="12.339859055355191">
        <ele>15.039999999999999</ele>
        <time>2017-09-17T07:26:16Z</time>
      </trkpt>
      <trkpt lat="37.987577766180038" lon="12.33981991186738">
        <ele>15.039999999999999</ele>
        <time>2017-09-17T07:26:27Z</time>
      </trkpt>
      <trkpt lat="37.987594865262508" lon="12.339742043986917">
        <ele>15.039999999999999</ele>
        <time>2017-09-17T07:26:41Z</time>
      </trkpt>
      <trkpt lat="37.98760031349957" lon="12.339734667912126">
        <ele>18.879999999999999</ele>
        <time>2017-09-17T07:26:43Z</time>
      </trkpt>
      <trkpt lat="37.987600062042475" lon="12.339724358171225">
        <ele>18.879999999999999</ele>
        <time>2017-09-17T07:26:44Z</time>
      </trkpt>
      <trkpt lat="37.987573994323611" lon="12.3396703787148">
        <ele>20.32</ele>
        <time>2017-09-17T07:26:51Z</time>
      </trkpt>
      <trkpt lat="37.987535437569022" lon="12.339578596875072">
        <ele>21.289999999999999</ele>
        <time>2017-09-17T07:27:04Z</time>
      </trkpt>
      <trkpt lat="37.987446002662182" lon="12.339537190273404">
        <ele>21.289999999999999</ele>
        <time>2017-09-17T07:27:17Z</time>
      </trkpt>
      <trkpt lat="37.987364698201418" lon="12.33950374647975">
        <ele>21.289999999999999</ele>
        <time>2017-09-17T07:27:28Z</time>
      </trkpt>
      <trkpt lat="37.987242825329304" lon="12.339495783671737">
        <ele>23.690000000000001</ele>
        <time>2017-09-17T07:27:41Z</time>
      </trkpt>
      <trkpt lat="37.987171160057187" lon="12.339417329058051">
        <ele>24.170000000000002</ele>
        <time>2017-09-17T07:27:52Z</time>
      </trkpt>
      <trkpt lat="37.987113995477557" lon="12.339357985183597">
        <ele>25.609999999999999</ele>
        <time>2017-09-17T07:28:03Z</time>
      </trkpt>
      <trkpt lat="37.987107876688242" lon="12.339332588016987">
        <ele>25.609999999999999</ele>
        <time>2017-09-17T07:28:14Z</time>
      </trkpt>
      <trkpt lat="37.987096812576056" lon="12.339328229427338">
        <ele>26.09</ele>
        <time>2017-09-17T07:28:31Z</time>
      </trkpt>
      <trkpt lat="37.987129669636488" lon="12.339286739006639">
        <ele>26.57</ele>
        <time>2017-09-17T07:28:41Z</time>
      </trkpt>
      <trkpt lat="37.987204687669873" lon="12.339259665459394">
        <ele>28.02</ele>
        <time>2017-09-17T07:28:56Z</time>
      </trkpt>
      <trkpt lat="37.987259589135647" lon="12.33921742066741">
        <ele>29.460000000000001</ele>
        <time>2017-09-17T07:29:08Z</time>
      </trkpt>
      <trkpt lat="37.987307114526629" lon="12.339171823114157">
        <ele>30.899999999999999</ele>
        <time>2017-09-17T07:29:19Z</time>
      </trkpt>
      <trkpt lat="37.987375343218446" lon="12.339120274409652">
        <ele>32.340000000000003</ele>
        <time>2017-09-17T07:29:31Z</time>
      </trkpt>
      <trkpt lat="37.987417504191399" lon="12.339078532531857">
        <ele>33.299999999999997</ele>
        <time>2017-09-17T07:29:42Z</time>
      </trkpt>
      <trkpt lat="37.987441727891564" lon="12.339054057374597">
        <ele>34.259999999999998</ele>
        <time>2017-09-17T07:29:53Z</time>
      </trkpt>
      <trkpt lat="37.987497635185719" lon="12.339000999927521">
        <ele>36.189999999999998</ele>
        <time>2017-09-17T07:30:04Z</time>
      </trkpt>
      <trkpt lat="37.987559577450156" lon="12.338940817862749">
        <ele>37.630000000000003</ele>
        <time>2017-09-17T07:30:15Z</time>
      </trkpt>
      <trkpt lat="37.987600481137633" lon="12.338895974680781">
        <ele>39.07</ele>
        <time>2017-09-17T07:30:26Z</time>
      </trkpt>
      <trkpt lat="37.987673403695226" lon="12.338861944153905">
        <ele>41.469999999999999</ele>
        <time>2017-09-17T07:30:44Z</time>
      </trkpt>
      <trkpt lat="37.987765185534954" lon="12.338760942220688">
        <ele>43.399999999999999</ele>
        <time>2017-09-17T07:30:59Z</time>
      </trkpt>
      <trkpt lat="37.987824445590377" lon="12.338710818439722">
        <ele>45.32</ele>
        <time>2017-09-17T07:31:14Z</time>
      </trkpt>
      <trkpt lat="37.987898625433445" lon="12.338661700487137">
        <ele>47.719999999999999</ele>
        <time>2017-09-17T07:31:29Z</time>
      </trkpt>
      <trkpt lat="37.987978253513575" lon="12.338586682453752">
        <ele>49.159999999999997</ele>
        <time>2017-09-17T07:31:43Z</time>
      </trkpt>
      <trkpt lat="37.988037345930934" lon="12.338533541187644">
        <ele>51.57</ele>
        <time>2017-09-17T07:31:56Z</time>
      </trkpt>
      <trkpt lat="37.988099036738276" lon="12.338508227840066">
        <ele>52.530000000000001</ele>
        <time>2017-09-17T07:32:07Z</time>
      </trkpt>
      <trkpt lat="37.988182604312897" lon="12.338473107665777">
        <ele>53.490000000000002</ele>
        <time>2017-09-17T07:32:20Z</time>
      </trkpt>
      <trkpt lat="37.98826776444912" lon="12.338451314717531">
        <ele>55.890000000000001</ele>
        <time>2017-09-17T07:32:31Z</time>
      </trkpt>
      <trkpt lat="37.988347057253122" lon="12.338426923379302">
        <ele>57.340000000000003</ele>
        <time>2017-09-17T07:32:43Z</time>
      </trkpt>
      <trkpt lat="37.988427439704537" lon="12.338402196764946">
        <ele>58.780000000000001</ele>
        <time>2017-09-17T07:32:54Z</time>
      </trkpt>
      <trkpt lat="37.988511091098189" lon="12.338409321382642">
        <ele>60.219999999999999</ele>
        <time>2017-09-17T07:33:05Z</time>
      </trkpt>
      <trkpt lat="37.988579319790006" lon="12.33841460198164">
        <ele>62.140000000000001</ele>
        <time>2017-09-17T07:33:14Z</time>
      </trkpt>
      <trkpt lat="37.988635813817382" lon="12.33841460198164">
        <ele>62.140000000000001</ele>
        <time>2017-09-17T07:33:22Z</time>
      </trkpt>
      <trkpt lat="37.988723907619715" lon="12.3384356405586">
        <ele>64.069999999999993</ele>
        <time>2017-09-17T07:33:32Z</time>
      </trkpt>
      <trkpt lat="37.988840583711863" lon="12.338455254212022">
        <ele>65.989999999999995</ele>
        <time>2017-09-17T07:33:46Z</time>
      </trkpt>
      <trkpt lat="37.988934377208352" lon="12.338469587266445">
        <ele>67.430000000000007</ele>
        <time>2017-09-17T07:33:58Z</time>
      </trkpt>
      <trkpt lat="37.98903931863606" lon="12.338479310274124">
        <ele>68.870000000000005</ele>
        <time>2017-09-17T07:34:12Z</time>
      </trkpt>
      <trkpt lat="37.989131938666105" lon="12.338497582823038">
        <ele>70.790000000000006</ele>
        <time>2017-09-17T07:34:24Z</time>
      </trkpt>
      <trkpt lat="37.989230761304498" lon="12.338523399084806">
        <ele>72.239999999999995</ele>
        <time>2017-09-17T07:34:36Z</time>
      </trkpt>
      <trkpt lat="37.989348862320185" lon="12.338542677462101">
        <ele>73.680000000000007</ele>
        <time>2017-09-17T07:34:50Z</time>
      </trkpt>
      <trkpt lat="37.989409631118178" lon="12.338552568107843">
        <ele>74.159999999999997</ele>
        <time>2017-09-17T07:34:57Z</time>
      </trkpt>
      <trkpt lat="37.989506861194968" lon="12.338551981374621">
        <ele>75.599999999999994</ele>
        <time>2017-09-17T07:35:08Z</time>
      </trkpt>
      <trkpt lat="37.989523792639375" lon="12.338552232831717">
        <ele>76.079999999999998</ele>
        <time>2017-09-17T07:35:10Z</time>
      </trkpt>
      <trkpt lat="37.989636110141873" lon="12.338559776544571">
        <ele>77.519999999999996</ele>
        <time>2017-09-17T07:35:23Z</time>
      </trkpt>
      <trkpt lat="37.989742141216993" lon="12.338561620563269">
        <ele>78.969999999999999</ele>
        <time>2017-09-17T07:35:35Z</time>
      </trkpt>
      <trkpt lat="37.989842472597957" lon="12.338566901162267">
        <ele>80.409999999999997</ele>
        <time>2017-09-17T07:35:46Z</time>
      </trkpt>
      <trkpt lat="37.989941798150539" lon="12.338565727695823">
        <ele>80.890000000000001</ele>
        <time>2017-09-17T07:35:57Z</time>
      </trkpt>
      <trkpt lat="37.990040117874742" lon="12.338572852313519">
        <ele>81.849999999999994</ele>
        <time>2017-09-17T07:36:08Z</time>
      </trkpt>
      <trkpt lat="37.990146148949862" lon="12.338590119034052">
        <ele>82.329999999999998</ele>
        <time>2017-09-17T07:36:19Z</time>
      </trkpt>
      <trkpt lat="37.990247569978237" lon="12.338596992194653">
        <ele>82.810000000000002</ele>
        <time>2017-09-17T07:36:30Z</time>
      </trkpt>
      <trkpt lat="37.990379249677062" lon="12.338597746565938">
        <ele>84.25</ele>
        <time>2017-09-17T07:36:43Z</time>
      </trkpt>
      <trkpt lat="37.990480922162533" lon="12.338565476238728">
        <ele>85.209999999999994</ele>
        <time>2017-09-17T07:36:54Z</time>
      </trkpt>
      <trkpt lat="37.990510929375887" lon="12.338552735745907">
        <ele>85.209999999999994</ele>
        <time>2017-09-17T07:36:57Z</time>
      </trkpt>
      <trkpt lat="37.990610171109438" lon="12.338511999696493">
        <ele>85.209999999999994</ele>
        <time>2017-09-17T07:37:09Z</time>
      </trkpt>
      <trkpt lat="37.990725338459015" lon="12.338442262262106">
        <ele>86.180000000000007</ele>
        <time>2017-09-17T07:37:23Z</time>
      </trkpt>
      <trkpt lat="37.990815695375204" lon="12.338399514555931">
        <ele>86.180000000000007</ele>
        <time>2017-09-17T07:37:35Z</time>
      </trkpt>
      <trkpt lat="37.990943100303411" lon="12.338347882032394">
        <ele>86.659999999999997</ele>
        <time>2017-09-17T07:37:50Z</time>
      </trkpt>
      <trkpt lat="37.991068912670016" lon="12.338305721059442">
        <ele>87.140000000000001</ele>
        <time>2017-09-17T07:38:02Z</time>
      </trkpt>
      <trkpt lat="37.991182990372181" lon="12.338259788230062">
        <ele>86.659999999999997</ele>
        <time>2017-09-17T07:38:14Z</time>
      </trkpt>
      <trkpt lat="37.991278292611241" lon="12.338206982240081">
        <ele>87.140000000000001</ele>
        <time>2017-09-17T07:38:25Z</time>
      </trkpt>
      <trkpt lat="37.991348030045629" lon="12.338172867894173">
        <ele>87.140000000000001</ele>
        <time>2017-09-17T07:38:35Z</time>
      </trkpt>
      <trkpt lat="37.991370325908065" lon="12.338151158764958">
        <ele>87.140000000000001</ele>
        <time>2017-09-17T07:38:48Z</time>
      </trkpt>
      <trkpt lat="37.991357920691371" lon="12.338134562596679">
        <ele>87.140000000000001</ele>
        <time>2017-09-17T07:39:06Z</time>
      </trkpt>
      <trkpt lat="37.991364542394876" lon="12.338133389130235">
        <ele>87.140000000000001</ele>
        <time>2017-09-17T07:39:21Z</time>
      </trkpt>
      <trkpt lat="37.991362027823925" lon="12.338148057460785">
        <ele>87.140000000000001</ele>
        <time>2017-09-17T07:39:40Z</time>
      </trkpt>
      <trkpt lat="37.991359094157815" lon="12.338121151551604">
        <ele>87.620000000000005</ele>
        <time>2017-09-17T07:39:59Z</time>
      </trkpt>
      <trkpt lat="37.991353645920753" lon="12.338117463514209">
        <ele>87.620000000000005</ele>
        <time>2017-09-17T07:40:13Z</time>
      </trkpt>
      <trkpt lat="37.991341408342123" lon="12.338118804618716">
        <ele>87.620000000000005</ele>
        <time>2017-09-17T07:40:35Z</time>
      </trkpt>
      <trkpt lat="37.991361944004893" lon="12.338135987520218">
        <ele>87.620000000000005</ele>
        <time>2017-09-17T07:40:54Z</time>
      </trkpt>
      <trkpt lat="37.991350879892707" lon="12.338123079389334">
        <ele>87.620000000000005</ele>
        <time>2017-09-17T07:41:10Z</time>
      </trkpt>
      <trkpt lat="37.991355825215578" lon="12.338094329461455">
        <ele>87.620000000000005</ele>
        <time>2017-09-17T07:41:29Z</time>
      </trkpt>
      <trkpt lat="37.991370409727097" lon="12.338125510141253">
        <ele>87.620000000000005</ele>
        <time>2017-09-17T07:41:46Z</time>
      </trkpt>
      <trkpt lat="37.991372086107731" lon="12.338121235370636">
        <ele>87.620000000000005</ele>
        <time>2017-09-17T07:41:58Z</time>
      </trkpt>
      <trkpt lat="37.991372672840953" lon="12.338143028318882">
        <ele>87.620000000000005</ele>
        <time>2017-09-17T07:42:17Z</time>
      </trkpt>
      <trkpt lat="37.991371918469667" lon="12.3381576128304">
        <ele>88.099999999999994</ele>
        <time>2017-09-17T07:42:34Z</time>
      </trkpt>
      <trkpt lat="37.991372002288699" lon="12.338139675557613">
        <ele>88.099999999999994</ele>
        <time>2017-09-17T07:42:48Z</time>
      </trkpt>
      <trkpt lat="37.991373343393207" lon="12.338138082996011">
        <ele>88.099999999999994</ele>
        <time>2017-09-17T07:43:05Z</time>
      </trkpt>
      <trkpt lat="37.991364290937781" lon="12.338127521798015">
        <ele>88.099999999999994</ele>
        <time>2017-09-17T07:43:27Z</time>
      </trkpt>
      <trkpt lat="37.991366637870669" lon="12.338106064125896">
        <ele>88.099999999999994</ele>
        <time>2017-09-17T07:43:49Z</time>
      </trkpt>
      <trkpt lat="37.991359513252974" lon="12.338115368038416">
        <ele>88.099999999999994</ele>
        <time>2017-09-17T07:44:06Z</time>
      </trkpt>
      <trkpt lat="37.991368817165494" lon="12.338107572868466">
        <ele>88.099999999999994</ele>
        <time>2017-09-17T07:44:26Z</time>
      </trkpt>
      <trkpt lat="37.991370409727097" lon="12.338138082996011">
        <ele>88.099999999999994</ele>
        <time>2017-09-17T07:44:48Z</time>
      </trkpt>
      <trkpt lat="37.99135590903461" lon="12.338120983913541">
        <ele>88.099999999999994</ele>
        <time>2017-09-17T07:45:07Z</time>
      </trkpt>
      <trkpt lat="37.991372086107731" lon="12.338139591738582">
        <ele>88.099999999999994</ele>
        <time>2017-09-17T07:45:26Z</time>
      </trkpt>
      <trkpt lat="37.991377366706729" lon="12.338158870115876">
        <ele>88.099999999999994</ele>
        <time>2017-09-17T07:45:41Z</time>
      </trkpt>
      <trkpt lat="37.991370325908065" lon="12.338185356929898">
        <ele>88.099999999999994</ele>
        <time>2017-09-17T07:45:56Z</time>
      </trkpt>
      <trkpt lat="37.991371499374509" lon="12.338208323344588">
        <ele>88.099999999999994</ele>
        <time>2017-09-17T07:46:05Z</time>
      </trkpt>
      <trkpt lat="37.991373930126429" lon="12.33817714266479">
        <ele>88.099999999999994</ele>
        <time>2017-09-17T07:46:16Z</time>
      </trkpt>
      <trkpt lat="37.991362111642957" lon="12.338181501254439">
        <ele>88.099999999999994</ele>
        <time>2017-09-17T07:46:34Z</time>
      </trkpt>
      <trkpt lat="37.991304276511073" lon="12.338218884542584">
        <ele>88.099999999999994</ele>
        <time>2017-09-17T07:46:48Z</time>
      </trkpt>
      <trkpt lat="37.991321794688702" lon="12.338212933391333">
        <ele>88.099999999999994</ele>
        <time>2017-09-17T07:47:17Z</time>
      </trkpt>
      <trkpt lat="37.99132464453578" lon="12.338209161534905">
        <ele>88.099999999999994</ele>
        <time>2017-09-17T07:47:41Z</time>
      </trkpt>
      <trkpt lat="37.991326656192541" lon="12.338213268667459">
        <ele>87.620000000000005</ele>
        <time>2017-09-17T07:48:03Z</time>
      </trkpt>
      <trkpt lat="37.991329003125429" lon="12.338224332779646">
        <ele>87.140000000000001</ele>
        <time>2017-09-17T07:48:24Z</time>
      </trkpt>
      <trkpt lat="37.991317519918084" lon="12.338178902864456">
        <ele>87.620000000000005</ele>
        <time>2017-09-17T07:48:42Z</time>
      </trkpt>
      <trkpt lat="37.991381641477346" lon="12.338141100481153">
        <ele>87.620000000000005</ele>
        <time>2017-09-17T07:48:53Z</time>
      </trkpt>
      <trkpt lat="37.991388095542789" lon="12.338136155158281">
        <ele>87.620000000000005</ele>
        <time>2017-09-17T07:49:09Z</time>
      </trkpt>
      <trkpt lat="37.991393124684691" lon="12.338117798790336">
        <ele>87.140000000000001</ele>
        <time>2017-09-17T07:49:29Z</time>
      </trkpt>
      <trkpt lat="37.991374181583524" lon="12.338118134066463">
        <ele>87.620000000000005</ele>
        <time>2017-09-17T07:49:43Z</time>
      </trkpt>
      <trkpt lat="37.991389101371169" lon="12.338127605617046">
        <ele>87.620000000000005</ele>
        <time>2017-09-17T07:50:03Z</time>
      </trkpt>
      <trkpt lat="37.991440733894706" lon="12.338089719414711">
        <ele>87.620000000000005</ele>
        <time>2017-09-17T07:50:18Z</time>
      </trkpt>
      <trkpt lat="37.991559840738773" lon="12.338049067184329">
        <ele>87.140000000000001</ele>
        <time>2017-09-17T07:50:34Z</time>
      </trkpt>
      <trkpt lat="37.991654723882675" lon="12.3379797488451">
        <ele>88.099999999999994</ele>
        <time>2017-09-17T07:50:46Z</time>
      </trkpt>
      <trkpt lat="37.991780703887343" lon="12.337928954511881">
        <ele>87.620000000000005</ele>
        <time>2017-09-17T07:50:59Z</time>
      </trkpt>
      <trkpt lat="37.991896793246269" lon="12.337898444384336">
        <ele>87.620000000000005</ele>
        <time>2017-09-17T07:51:12Z</time>
      </trkpt>
      <trkpt lat="37.992055211216211" lon="12.337827449664474">
        <ele>88.099999999999994</ele>
        <time>2017-09-17T07:51:27Z</time>
      </trkpt>
      <trkpt lat="37.992217149585485" lon="12.337771626189351">
        <ele>87.620000000000005</ele>
        <time>2017-09-17T07:51:43Z</time>
      </trkpt>
      <trkpt lat="37.992349164560437" lon="12.337770452722907">
        <ele>87.140000000000001</ele>
        <time>2017-09-17T07:51:55Z</time>
      </trkpt>
      <trkpt lat="37.992491237819195" lon="12.337787384167314">
        <ele>86.180000000000007</ele>
        <time>2017-09-17T07:52:08Z</time>
      </trkpt>
      <trkpt lat="37.992623001337051" lon="12.33778134919703">
        <ele>86.659999999999997</ele>
        <time>2017-09-17T07:52:20Z</time>
      </trkpt>
      <trkpt lat="37.992758033797145" lon="12.337753940373659">
        <ele>85.689999999999998</ele>
        <time>2017-09-17T07:52:35Z</time>
      </trkpt>
      <trkpt lat="37.99293371848762" lon="12.337726783007383">
        <ele>84.730000000000004</ele>
        <time>2017-09-17T07:52:53Z</time>
      </trkpt>
      <trkpt lat="37.993057267740369" lon="12.33770901337266">
        <ele>84.730000000000004</ele>
        <time>2017-09-17T07:53:06Z</time>
      </trkpt>
      <trkpt lat="37.993215350434184" lon="12.337714210152626">
        <ele>84.730000000000004</ele>
        <time>2017-09-17T07:53:21Z</time>
      </trkpt>
      <trkpt lat="37.993349963799119" lon="12.337688477709889">
        <ele>84.25</ele>
        <time>2017-09-17T07:53:35Z</time>
      </trkpt>
      <trkpt lat="37.99348977394402" lon="12.337639611214399">
        <ele>83.769999999999996</ele>
        <time>2017-09-17T07:53:50Z</time>
      </trkpt>
      <trkpt lat="37.993507711216807" lon="12.337634665891528">
        <ele>83.769999999999996</ele>
        <time>2017-09-17T07:53:52Z</time>
      </trkpt>
      <trkpt lat="37.993548698723316" lon="12.337613711133599">
        <ele>84.25</ele>
        <time>2017-09-17T07:53:56Z</time>
      </trkpt>
      <trkpt lat="37.993688676506281" lon="12.337606670334935">
        <ele>84.730000000000004</ele>
        <time>2017-09-17T07:54:10Z</time>
      </trkpt>
      <trkpt lat="37.993822619318962" lon="12.337595438584685">
        <ele>84.25</ele>
        <time>2017-09-17T07:54:23Z</time>
      </trkpt>
      <trkpt lat="37.993957567960024" lon="12.337577836588025">
        <ele>84.730000000000004</ele>
        <time>2017-09-17T07:54:36Z</time>
      </trkpt>
      <trkpt lat="37.994103245437145" lon="12.337545482441783">
        <ele>84.730000000000004</ele>
        <time>2017-09-17T07:54:51Z</time>
      </trkpt>
      <trkpt lat="37.994222603738308" lon="12.337523186579347">
        <ele>84.730000000000004</ele>
        <time>2017-09-17T07:55:04Z</time>
      </trkpt>
      <trkpt lat="37.994324276223779" lon="12.337519833818078">
        <ele>84.730000000000004</ele>
        <time>2017-09-17T07:55:14Z</time>
      </trkpt>
      <trkpt lat="37.994416141882539" lon="12.337522432208061">
        <ele>84.730000000000004</ele>
        <time>2017-09-17T07:55:25Z</time>
      </trkpt>
      <trkpt lat="37.994525190442801" lon="12.337518157437444">
        <ele>84.730000000000004</ele>
        <time>2017-09-17T07:55:38Z</time>
      </trkpt>
      <trkpt lat="37.994628204032779" lon="12.337495861575007">
        <ele>84.25</ele>
        <time>2017-09-17T07:55:50Z</time>
      </trkpt>
      <trkpt lat="37.994777401909232" lon="12.337486892938614">
        <ele>84.25</ele>
        <time>2017-09-17T07:56:04Z</time>
      </trkpt>
      <trkpt lat="37.994915619492531" lon="12.337497035041451">
        <ele>83.769999999999996</ele>
        <time>2017-09-17T07:56:17Z</time>
      </trkpt>
      <trkpt lat="37.995086275041103" lon="12.337523605674505">
        <ele>83.290000000000006</ele>
        <time>2017-09-17T07:56:33Z</time>
      </trkpt>
      <trkpt lat="37.995231868699193" lon="12.337559647858143">
        <ele>82.810000000000002</ele>
        <time>2017-09-17T07:56:47Z</time>
      </trkpt>
      <trkpt lat="37.99535340629518" lon="12.337590660899878">
        <ele>82.810000000000002</ele>
        <time>2017-09-17T07:57:00Z</time>
      </trkpt>
      <trkpt lat="37.995454827323556" lon="12.337597785517573">
        <ele>82.810000000000002</ele>
        <time>2017-09-17T07:57:12Z</time>
      </trkpt>
      <trkpt lat="37.995602181181312" lon="12.337636929005384">
        <ele>81.849999999999994</ele>
        <time>2017-09-17T07:57:26Z</time>
      </trkpt>
      <trkpt lat="37.995698824524879" lon="12.337661068886518">
        <ele>81.849999999999994</ele>
        <time>2017-09-17T07:57:36Z</time>
      </trkpt>
      <trkpt lat="37.995738051831722" lon="12.337647909298539">
        <ele>82.810000000000002</ele>
        <time>2017-09-17T07:57:46Z</time>
      </trkpt>
      <trkpt lat="37.995757833123207" lon="12.33760692179203">
        <ele>84.25</ele>
        <time>2017-09-17T07:57:57Z</time>
      </trkpt>
      <trkpt lat="37.995767975226045" lon="12.337589906528592">
        <ele>83.769999999999996</ele>
        <time>2017-09-17T07:58:10Z</time>
      </trkpt>
      <trkpt lat="37.995779290795326" lon="12.337608430534601">
        <ele>85.209999999999994</ele>
        <time>2017-09-17T07:58:17Z</time>
      </trkpt>
      <trkpt lat="37.995778284966946" lon="12.33769241720438">
        <ele>83.290000000000006</ele>
        <time>2017-09-17T07:58:27Z</time>
      </trkpt>
      <trkpt lat="37.995777446776628" lon="12.337696691974998">
        <ele>83.290000000000006</ele>
        <time>2017-09-17T07:58:37Z</time>
      </trkpt>
      <trkpt lat="37.995772249996662" lon="12.337676994502544">
        <ele>83.290000000000006</ele>
        <time>2017-09-17T07:58:55Z</time>
      </trkpt>
      <trkpt lat="37.995793204754591" lon="12.337716557085514">
        <ele>83.290000000000006</ele>
        <time>2017-09-17T07:59:12Z</time>
      </trkpt>
      <trkpt lat="37.995787756517529" lon="12.337708007544279">
        <ele>83.769999999999996</ele>
        <time>2017-09-17T07:59:26Z</time>
      </trkpt>
      <trkpt lat="37.995769483968616" lon="12.337690573185682">
        <ele>83.290000000000006</ele>
        <time>2017-09-17T07:59:40Z</time>
      </trkpt>
      <trkpt lat="37.995779039338231" lon="12.337698033079505">
        <ele>83.769999999999996</ele>
        <time>2017-09-17T07:59:54Z</time>
      </trkpt>
      <trkpt lat="37.995772249996662" lon="12.337689064443111">
        <ele>83.769999999999996</ele>
        <time>2017-09-17T08:00:12Z</time>
      </trkpt>
      <trkpt lat="37.995779290795326" lon="12.337698200717568">
        <ele>83.769999999999996</ele>
        <time>2017-09-17T08:00:30Z</time>
      </trkpt>
      <trkpt lat="37.99578825943172" lon="12.337689651176333">
        <ele>83.290000000000006</ele>
        <time>2017-09-17T08:00:48Z</time>
      </trkpt>
      <trkpt lat="37.995792031288147" lon="12.337719826027751">
        <ele>83.769999999999996</ele>
        <time>2017-09-17T08:00:59Z</time>
      </trkpt>
      <trkpt lat="37.995775351300836" lon="12.337712282314897">
        <ele>83.769999999999996</ele>
        <time>2017-09-17T08:01:09Z</time>
      </trkpt>
      <trkpt lat="37.995771914720535" lon="12.33768361620605">
        <ele>83.769999999999996</ele>
        <time>2017-09-17T08:01:25Z</time>
      </trkpt>
      <trkpt lat="37.995809800922871" lon="12.337703481316566">
        <ele>83.769999999999996</ele>
        <time>2017-09-17T08:01:38Z</time>
      </trkpt>
      <trkpt lat="37.995874593034387" lon="12.337717562913895">
        <ele>83.290000000000006</ele>
        <time>2017-09-17T08:01:48Z</time>
      </trkpt>
      <trkpt lat="37.995927147567272" lon="12.337727956473827">
        <ele>83.769999999999996</ele>
        <time>2017-09-17T08:01:58Z</time>
      </trkpt>
      <trkpt lat="37.995956651866436" lon="12.337738769128919">
        <ele>83.769999999999996</ele>
        <time>2017-09-17T08:02:08Z</time>
      </trkpt>
      <trkpt lat="37.995993196964264" lon="12.337748659774661">
        <ele>84.25</ele>
        <time>2017-09-17T08:02:18Z</time>
      </trkpt>
      <trkpt lat="37.996050110086799" lon="12.337770704180002">
        <ele>83.769999999999996</ele>
        <time>2017-09-17T08:02:27Z</time>
      </trkpt>
      <trkpt lat="37.996126553043723" lon="12.337799035012722">
        <ele>83.769999999999996</ele>
        <time>2017-09-17T08:02:37Z</time>
      </trkpt>
      <trkpt lat="37.996213138103485" lon="12.337815882638097">
        <ele>84.25</ele>
        <time>2017-09-17T08:02:48Z</time>
      </trkpt>
      <trkpt lat="37.996320258826017" lon="12.337852595373988">
        <ele>84.730000000000004</ele>
        <time>2017-09-17T08:03:01Z</time>
      </trkpt>
      <trkpt lat="37.996418159455061" lon="12.337884614244103">
        <ele>85.209999999999994</ele>
        <time>2017-09-17T08:03:13Z</time>
      </trkpt>
      <trkpt lat="37.996501307934523" lon="12.337907664477825">
        <ele>85.209999999999994</ele>
        <time>2017-09-17T08:03:23Z</time>
      </trkpt>
      <trkpt lat="37.996599124744534" lon="12.337917387485504">
        <ele>85.209999999999994</ele>
        <time>2017-09-17T08:03:35Z</time>
      </trkpt>
      <trkpt lat="37.996650170534849" lon="12.337872292846441">
        <ele>86.180000000000007</ele>
        <time>2017-09-17T08:03:47Z</time>
      </trkpt>
      <trkpt lat="37.996658803895116" lon="12.337859719991684">
        <ele>85.689999999999998</ele>
        <time>2017-09-17T08:03:58Z</time>
      </trkpt>
      <trkpt lat="37.996655032038689" lon="12.337856534868479">
        <ele>86.180000000000007</ele>
        <time>2017-09-17T08:04:15Z</time>
      </trkpt>
      <trkpt lat="37.996731055900455" lon="12.337894672527909">
        <ele>85.689999999999998</ele>
        <time>2017-09-17T08:04:26Z</time>
      </trkpt>
      <trkpt lat="37.99683490768075" lon="12.337885200977325">
        <ele>86.180000000000007</ele>
        <time>2017-09-17T08:04:39Z</time>
      </trkpt>
      <trkpt lat="37.996917050331831" lon="12.337902216240764">
        <ele>86.180000000000007</ele>
        <time>2017-09-17T08:04:48Z</time>
      </trkpt>
      <trkpt lat="37.99696097150445" lon="12.337909424677491">
        <ele>87.140000000000001</ele>
        <time>2017-09-17T08:04:56Z</time>
      </trkpt>
      <trkpt lat="37.996958456933498" lon="12.337915124371648">
        <ele>86.659999999999997</ele>
        <time>2017-09-17T08:05:06Z</time>
      </trkpt>
      <trkpt lat="37.996939094737172" lon="12.337918225675821">
        <ele>86.659999999999997</ele>
        <time>2017-09-17T08:05:13Z</time>
      </trkpt>
      <trkpt lat="37.996852844953537" lon="12.337856870144606">
        <ele>86.180000000000007</ele>
        <time>2017-09-17T08:05:25Z</time>
      </trkpt>
      <trkpt lat="37.99686374142766" lon="12.337848236784339">
        <ele>86.659999999999997</ele>
        <time>2017-09-17T08:05:40Z</time>
      </trkpt>
      <trkpt lat="37.996879750862718" lon="12.337867682799697">
        <ele>86.659999999999997</ele>
        <time>2017-09-17T08:05:49Z</time>
      </trkpt>
      <trkpt lat="37.996848737820983" lon="12.337842620909214">
        <ele>86.659999999999997</ele>
        <time>2017-09-17T08:06:00Z</time>
      </trkpt>
      <trkpt lat="37.996854269877076" lon="12.337847063317895">
        <ele>86.180000000000007</ele>
        <time>2017-09-17T08:06:15Z</time>
      </trkpt>
      <trkpt lat="37.996853347867727" lon="12.337841698899865">
        <ele>85.689999999999998</ele>
        <time>2017-09-17T08:06:26Z</time>
      </trkpt>
      <trkpt lat="37.996870363131166" lon="12.33785661868751">
        <ele>86.180000000000007</ele>
        <time>2017-09-17T08:06:31Z</time>
      </trkpt>
      <trkpt lat="37.996958959847689" lon="12.337894756346941">
        <ele>86.659999999999997</ele>
        <time>2017-09-17T08:06:41Z</time>
      </trkpt>
      <trkpt lat="37.997000450268388" lon="12.337900875136256">
        <ele>87.140000000000001</ele>
        <time>2017-09-17T08:06:51Z</time>
      </trkpt>
      <trkpt lat="37.99702643416822" lon="12.337873633950949">
        <ele>87.620000000000005</ele>
        <time>2017-09-17T08:07:01Z</time>
      </trkpt>
      <trkpt lat="37.997028362005949" lon="12.337874975055456">
        <ele>87.620000000000005</ele>
        <time>2017-09-17T08:07:13Z</time>
      </trkpt>
      <trkpt lat="37.997039593756199" lon="12.337880926206708">
        <ele>87.620000000000005</ele>
        <time>2017-09-17T08:07:33Z</time>
      </trkpt>
      <trkpt lat="37.997045293450356" lon="12.337885117158294">
        <ele>87.620000000000005</ele>
        <time>2017-09-17T08:07:46Z</time>
      </trkpt>
      <trkpt lat="37.997125340625644" lon="12.337888469919562">
        <ele>87.140000000000001</ele>
        <time>2017-09-17T08:07:56Z</time>
      </trkpt>
      <trkpt lat="37.997232964262366" lon="12.337877573445439">
        <ele>87.620000000000005</ele>
        <time>2017-09-17T08:08:08Z</time>
      </trkpt>
      <trkpt lat="37.997334636747837" lon="12.337871119379997">
        <ele>89.060000000000002</ele>
        <time>2017-09-17T08:08:19Z</time>
      </trkpt>
      <trkpt lat="37.997434632852674" lon="12.337889140471816">
        <ele>88.099999999999994</ele>
        <time>2017-09-17T08:08:30Z</time>
      </trkpt>
      <trkpt lat="37.997478218749166" lon="12.337917974218726">
        <ele>88.579999999999998</ele>
        <time>2017-09-17T08:08:41Z</time>
      </trkpt>
      <trkpt lat="37.997511411085725" lon="12.337896600365639">
        <ele>89.060000000000002</ele>
        <time>2017-09-17T08:08:52Z</time>
      </trkpt>
      <trkpt lat="37.997663877904415" lon="12.337919566780329">
        <ele>89.060000000000002</ele>
        <time>2017-09-17T08:09:06Z</time>
      </trkpt>
      <trkpt lat="37.99779312685132" lon="12.337913364171982">
        <ele>90.019999999999996</ele>
        <time>2017-09-17T08:09:18Z</time>
      </trkpt>
      <trkpt lat="37.997957160696387" lon="12.337904311716557">
        <ele>91.459999999999994</ele>
        <time>2017-09-17T08:09:35Z</time>
      </trkpt>
      <trkpt lat="37.998073836788535" lon="12.337934989482164">
        <ele>91.939999999999998</ele>
        <time>2017-09-17T08:09:47Z</time>
      </trkpt>
      <trkpt lat="37.998186238110065" lon="12.338013276457787">
        <ele>92.900000000000006</ele>
        <time>2017-09-17T08:10:00Z</time>
      </trkpt>
      <trkpt lat="37.998272236436605" lon="12.338060466572642">
        <ele>93.870000000000005</ele>
        <time>2017-09-17T08:10:10Z</time>
      </trkpt>
      <trkpt lat="37.998381368815899" lon="12.338108327239752">
        <ele>94.829999999999998</ele>
        <time>2017-09-17T08:10:22Z</time>
      </trkpt>
      <trkpt lat="37.998491926118731" lon="12.338116625323892">
        <ele>95.310000000000002</ele>
        <time>2017-09-17T08:10:33Z</time>
      </trkpt>
      <trkpt lat="37.998611535876989" lon="12.338088043034077">
        <ele>95.790000000000006</ele>
        <time>2017-09-17T08:10:45Z</time>
      </trkpt>
      <trkpt lat="37.998697869479656" lon="12.338055269792676">
        <ele>96.269999999999996</ele>
        <time>2017-09-17T08:10:54Z</time>
      </trkpt>
      <trkpt lat="37.998812366276979" lon="12.338038338348269">
        <ele>97.709999999999994</ele>
        <time>2017-09-17T08:11:06Z</time>
      </trkpt>
      <trkpt lat="37.998926695436239" lon="12.338008247315884">
        <ele>98.189999999999998</ele>
        <time>2017-09-17T08:11:19Z</time>
      </trkpt>
      <trkpt lat="37.999034151434898" lon="12.337991315871477">
        <ele>99.150000000000006</ele>
        <time>2017-09-17T08:11:31Z</time>
      </trkpt>
      <trkpt lat="37.999141942709684" lon="12.337967846542597">
        <ele>100.11</ele>
        <time>2017-09-17T08:11:42Z</time>
      </trkpt>
      <trkpt lat="37.999240178614855" lon="12.337983855977654">
        <ele>101.08</ele>
        <time>2017-09-17T08:11:52Z</time>
      </trkpt>
      <trkpt lat="37.999344952404499" lon="12.337985783815384">
        <ele>102.52</ele>
        <time>2017-09-17T08:12:04Z</time>
      </trkpt>
      <trkpt lat="37.999461125582457" lon="12.337964661419392">
        <ele>103.95999999999999</ele>
        <time>2017-09-17T08:12:16Z</time>
      </trkpt>
      <trkpt lat="37.999597750604153" lon="12.33794504776597">
        <ele>105.88</ele>
        <time>2017-09-17T08:12:31Z</time>
      </trkpt>
      <trkpt lat="37.999697495251894" lon="12.337928786873817">
        <ele>106.84</ele>
        <time>2017-09-17T08:12:43Z</time>
      </trkpt>
      <trkpt lat="37.999786511063576" lon="12.337907077744603">
        <ele>107.81</ele>
        <time>2017-09-17T08:12:54Z</time>
      </trkpt>
      <trkpt lat="37.999900756403804" lon="12.337888553738594">
        <ele>109.25</ele>
        <time>2017-09-17T08:13:06Z</time>
      </trkpt>
      <trkpt lat="37.999996645376086" lon="12.337876399978995">
        <ele>110.20999999999999</ele>
        <time>2017-09-17T08:13:17Z</time>
      </trkpt>
      <trkpt lat="38.000042662024498" lon="12.337860893458128">
        <ele>110.69</ele>
        <time>2017-09-17T08:13:23Z</time>
      </trkpt>
      <trkpt lat="38.000070322304964" lon="12.337849996984005">
        <ele>111.65000000000001</ele>
        <time>2017-09-17T08:13:26Z</time>
      </trkpt>
      <trkpt lat="38.000159254297614" lon="12.337822839617729">
        <ele>112.61</ele>
        <time>2017-09-17T08:13:36Z</time>
      </trkpt>
      <trkpt lat="38.000268889591098" lon="12.337799202650785">
        <ele>114.05</ele>
        <time>2017-09-17T08:13:49Z</time>
      </trkpt>
      <trkpt lat="38.000296968966722" lon="12.337793838232756">
        <ele>114.53</ele>
        <time>2017-09-17T08:14:00Z</time>
      </trkpt>
      <trkpt lat="38.000297136604786" lon="12.337796855717897">
        <ele>114.53</ele>
        <time>2017-09-17T08:14:17Z</time>
      </trkpt>
      <trkpt lat="38.000291353091598" lon="12.337800711393356">
        <ele>114.53</ele>
        <time>2017-09-17T08:14:37Z</time>
      </trkpt>
      <trkpt lat="38.00028758123517" lon="12.337816888466477">
        <ele>115.01000000000001</ele>
        <time>2017-09-17T08:14:49Z</time>
      </trkpt>
      <trkpt lat="38.000293951481581" lon="12.337814709171653">
        <ele>115.01000000000001</ele>
        <time>2017-09-17T08:15:00Z</time>
      </trkpt>
      <trkpt lat="38.000304847955704" lon="12.337792245671153">
        <ele>115.01000000000001</ele>
        <time>2017-09-17T08:15:13Z</time>
      </trkpt>
      <trkpt lat="38.00030711106956" lon="12.337803058326244">
        <ele>115.01000000000001</ele>
        <time>2017-09-17T08:15:28Z</time>
      </trkpt>
      <trkpt lat="38.000305686146021" lon="12.337797358632088">
        <ele>115.01000000000001</ele>
        <time>2017-09-17T08:15:39Z</time>
      </trkpt>
      <trkpt lat="38.000308368355036" lon="12.337794173508883">
        <ele>115.01000000000001</ele>
        <time>2017-09-17T08:15:55Z</time>
      </trkpt>
      <trkpt lat="38.000304847955704" lon="12.33778671361506">
        <ele>115.01000000000001</ele>
        <time>2017-09-17T08:16:10Z</time>
      </trkpt>
      <trkpt lat="38.000306272879243" lon="12.337789731100202">
        <ele>115.01000000000001</ele>
        <time>2017-09-17T08:16:22Z</time>
      </trkpt>
      <trkpt lat="38.000302249565721" lon="12.337790066376328">
        <ele>114.53</ele>
        <time>2017-09-17T08:16:38Z</time>
      </trkpt>
      <trkpt lat="38.00030761398375" lon="12.337806159630418">
        <ele>114.53</ele>
        <time>2017-09-17T08:16:56Z</time>
      </trkpt>
      <trkpt lat="38.00030660815537" lon="12.337806578725576">
        <ele>115.01000000000001</ele>
        <time>2017-09-17T08:17:11Z</time>
      </trkpt>
      <trkpt lat="38.000306189060211" lon="12.337800795212388">
        <ele>115.01000000000001</ele>
        <time>2017-09-17T08:17:25Z</time>
      </trkpt>
      <trkpt lat="38.000306356698275" lon="12.337797777727246">
        <ele>115.01000000000001</ele>
        <time>2017-09-17T08:17:47Z</time>
      </trkpt>
      <trkpt lat="38.000300573185086" lon="12.337802052497864">
        <ele>115.01000000000001</ele>
        <time>2017-09-17T08:18:07Z</time>
      </trkpt>
      <trkpt lat="38.000293197110295" lon="12.33779601752758">
        <ele>115.01000000000001</ele>
        <time>2017-09-17T08:18:23Z</time>
      </trkpt>
      <trkpt lat="38.000331753864884" lon="12.337783360853791">
        <ele>115.01000000000001</ele>
        <time>2017-09-17T08:18:38Z</time>
      </trkpt>
      <trkpt lat="38.000351535156369" lon="12.337771207094193">
        <ele>115.98</ele>
        <time>2017-09-17T08:18:50Z</time>
      </trkpt>
      <trkpt lat="38.00034424290061" lon="12.337759975343943">
        <ele>115.98</ele>
        <time>2017-09-17T08:19:04Z</time>
      </trkpt>
      <trkpt lat="38.000343656167388" lon="12.337724855169654">
        <ele>115.5</ele>
        <time>2017-09-17T08:19:16Z</time>
      </trkpt>
      <trkpt lat="38.000341393053532" lon="12.337693590670824">
        <ele>115.5</ele>
        <time>2017-09-17T08:19:24Z</time>
      </trkpt>
      <trkpt lat="38.000463182106614" lon="12.337636174634099">
        <ele>116.94</ele>
        <time>2017-09-17T08:19:36Z</time>
      </trkpt>
      <trkpt lat="38.000517580658197" lon="12.337605580687523">
        <ele>116.94</ele>
        <time>2017-09-17T08:19:42Z</time>
      </trkpt>
      <trkpt lat="38.000587653368711" lon="12.337509943172336">
        <ele>117.90000000000001</ele>
        <time>2017-09-17T08:19:53Z</time>
      </trkpt>
      <trkpt lat="38.000659234821796" lon="12.337388657033443">
        <ele>118.38</ele>
        <time>2017-09-17T08:20:05Z</time>
      </trkpt>
      <trkpt lat="38.000664012506604" lon="12.33737776055932">
        <ele>118.38</ele>
        <time>2017-09-17T08:20:06Z</time>
      </trkpt>
      <trkpt lat="38.000733079388738" lon="12.337269214913249">
        <ele>118.86</ele>
        <time>2017-09-17T08:20:17Z</time>
      </trkpt>
      <trkpt lat="38.000792507082224" lon="12.337192185223103">
        <ele>119.81999999999999</ele>
        <time>2017-09-17T08:20:27Z</time>
      </trkpt>
      <trkpt lat="38.000873560085893" lon="12.337129237130284">
        <ele>120.3</ele>
        <time>2017-09-17T08:20:37Z</time>
      </trkpt>
      <trkpt lat="38.000945141538978" lon="12.337092021480203">
        <ele>120.78</ele>
        <time>2017-09-17T08:20:45Z</time>
      </trkpt>
      <trkpt lat="38.001036420464516" lon="12.3370420653373">
        <ele>122.22</ele>
        <time>2017-09-17T08:20:56Z</time>
      </trkpt>
      <trkpt lat="38.001078078523278" lon="12.337006106972694">
        <ele>122.22</ele>
        <time>2017-09-17T08:21:02Z</time>
      </trkpt>
      <trkpt lat="38.001105152070522" lon="12.336991438642144">
        <ele>122.70999999999999</ele>
        <time>2017-09-17T08:21:05Z</time>
      </trkpt>
      <trkpt lat="38.001186288893223" lon="12.336913403123617">
        <ele>123.67</ele>
        <time>2017-09-17T08:21:17Z</time>
      </trkpt>
      <trkpt lat="38.001275053247809" lon="12.336835283786058">
        <ele>124.15000000000001</ele>
        <time>2017-09-17T08:21:28Z</time>
      </trkpt>
      <trkpt lat="38.001333391293883" lon="12.336791781708598">
        <ele>124.15000000000001</ele>
        <time>2017-09-17T08:21:35Z</time>
      </trkpt>
      <trkpt lat="38.001357866451144" lon="12.336768228560686">
        <ele>124.63</ele>
        <time>2017-09-17T08:21:38Z</time>
      </trkpt>
      <trkpt lat="38.001380581408739" lon="12.336739730089903">
        <ele>124.63</ele>
        <time>2017-09-17T08:21:41Z</time>
      </trkpt>
      <trkpt lat="38.001472279429436" lon="12.336645936593413">
        <ele>125.11</ele>
        <time>2017-09-17T08:21:53Z</time>
      </trkpt>
      <trkpt lat="38.001552745699883" lon="12.336563626304269">
        <ele>126.06999999999999</ele>
        <time>2017-09-17T08:22:04Z</time>
      </trkpt>
      <trkpt lat="38.001631870865822" lon="12.336492631584406">
        <ele>126.55</ele>
        <time>2017-09-17T08:22:16Z</time>
      </trkpt>
      <trkpt lat="38.001677636057138" lon="12.336440244689584">
        <ele>126.55</ele>
        <time>2017-09-17T08:22:24Z</time>
      </trkpt>
      <trkpt lat="38.001735974103212" lon="12.336358102038503">
        <ele>127.51000000000001</ele>
        <time>2017-09-17T08:22:34Z</time>
      </trkpt>
      <trkpt lat="38.001753576099873" lon="12.336336812004447">
        <ele>127.51000000000001</ele>
        <time>2017-09-17T08:22:37Z</time>
      </trkpt>
      <trkpt lat="38.001823648810387" lon="12.336264308542013">
        <ele>128.94999999999999</ele>
        <time>2017-09-17T08:22:47Z</time>
      </trkpt>
      <trkpt lat="38.001891123130918" lon="12.336200857535005">
        <ele>129.43000000000001</ele>
        <time>2017-09-17T08:22:56Z</time>
      </trkpt>
      <trkpt lat="38.001928506419063" lon="12.336154840886593">
        <ele>129.43000000000001</ele>
        <time>2017-09-17T08:23:01Z</time>
      </trkpt>
      <trkpt lat="38.002007212489843" lon="12.336061298847198">
        <ele>129.91999999999999</ele>
        <time>2017-09-17T08:23:12Z</time>
      </trkpt>
      <trkpt lat="38.002023221924901" lon="12.336045708507299">
        <ele>130.40000000000001</ele>
        <time>2017-09-17T08:23:14Z</time>
      </trkpt>
      <trkpt lat="38.002113997936249" lon="12.335984772071242">
        <ele>131.36000000000001</ele>
        <time>2017-09-17T08:23:25Z</time>
      </trkpt>
      <trkpt lat="38.002185579389334" lon="12.335911681875587">
        <ele>132.31999999999999</ele>
        <time>2017-09-17T08:23:35Z</time>
      </trkpt>
      <trkpt lat="38.002251964062452" lon="12.335861474275589">
        <ele>133.75999999999999</ele>
        <time>2017-09-17T08:23:44Z</time>
      </trkpt>
      <trkpt lat="38.002304434776306" lon="12.335787126794457">
        <ele>134.72</ele>
        <time>2017-09-17T08:23:53Z</time>
      </trkpt>
      <trkpt lat="38.002304099500179" lon="12.33574815094471">
        <ele>134.72</ele>
        <time>2017-09-17T08:23:57Z</time>
      </trkpt>
      <trkpt lat="38.002258334308863" lon="12.335649747401476">
        <ele>134.72</ele>
        <time>2017-09-17T08:24:10Z</time>
      </trkpt>
      <trkpt lat="38.002249533310533" lon="12.335647232830524">
        <ele>134.72</ele>
        <time>2017-09-17T08:24:27Z</time>
      </trkpt>
      <trkpt lat="38.002210725098848" lon="12.335567437112331">
        <ele>134.72</ele>
        <time>2017-09-17T08:24:38Z</time>
      </trkpt>
      <trkpt lat="38.002158086746931" lon="12.335413377732038">
        <ele>135.19999999999999</ele>
        <time>2017-09-17T08:24:50Z</time>
      </trkpt>
      <trkpt lat="38.002139730378985" lon="12.335215900093317">
        <ele>135.19999999999999</ele>
        <time>2017-09-17T08:25:03Z</time>
      </trkpt>
      <trkpt lat="38.002135958522558" lon="12.335018673911691">
        <ele>135.19999999999999</ele>
        <time>2017-09-17T08:25:17Z</time>
      </trkpt>
      <trkpt lat="38.002130845561624" lon="12.334815412759781">
        <ele>135.19999999999999</ele>
        <time>2017-09-17T08:25:31Z</time>
      </trkpt>
      <trkpt lat="38.002112237736583" lon="12.334663281217217">
        <ele>136.16</ele>
        <time>2017-09-17T08:25:44Z</time>
      </trkpt>
      <trkpt lat="38.002096563577652" lon="12.334542833268642">
        <ele>137.13</ele>
        <time>2017-09-17T08:25:56Z</time>
      </trkpt>
      <trkpt lat="38.002073764801025" lon="12.334442837163806">
        <ele>138.09</ele>
        <time>2017-09-17T08:26:06Z</time>
      </trkpt>
      <trkpt lat="38.002036465331912" lon="12.334299087524414">
        <ele>139.05000000000001</ele>
        <time>2017-09-17T08:26:18Z</time>
      </trkpt>
      <trkpt lat="38.00199874676764" lon="12.334173861891031">
        <ele>140.49000000000001</ele>
        <time>2017-09-17T08:26:30Z</time>
      </trkpt>
      <trkpt lat="38.001954071223736" lon="12.334058191627264">
        <ele>141.93000000000001</ele>
        <time>2017-09-17T08:26:41Z</time>
      </trkpt>
      <trkpt lat="38.001909730955958" lon="12.333956519141793">
        <ele>142.88999999999999</ele>
        <time>2017-09-17T08:26:52Z</time>
      </trkpt>
      <trkpt lat="38.001914927735925" lon="12.333846548572183">
        <ele>143.84999999999999</ele>
        <time>2017-09-17T08:27:02Z</time>
      </trkpt>
      <trkpt lat="38.001940073445439" lon="12.333801537752151">
        <ele>144.81999999999999</ele>
        <time>2017-09-17T08:27:08Z</time>
      </trkpt>
      <trkpt lat="38.001991286873817" lon="12.333739260211587">
        <ele>146.25999999999999</ele>
        <time>2017-09-17T08:27:18Z</time>
      </trkpt>
      <trkpt lat="38.002029424533248" lon="12.333707576617599">
        <ele>146.74000000000001</ele>
        <time>2017-09-17T08:27:24Z</time>
      </trkpt>
      <trkpt lat="38.002104610204697" lon="12.333641778677702">
        <ele>146.25999999999999</ele>
        <time>2017-09-17T08:27:33Z</time>
      </trkpt>
      <trkpt lat="38.00213411450386" lon="12.333613615483046">
        <ele>146.25999999999999</ele>
        <time>2017-09-17T08:27:37Z</time>
      </trkpt>
      <trkpt lat="38.002212233841419" lon="12.333525940775871">
        <ele>147.69999999999999</ele>
        <time>2017-09-17T08:27:48Z</time>
      </trkpt>
      <trkpt lat="38.002281803637743" lon="12.333465088158846">
        <ele>148.18000000000001</ele>
        <time>2017-09-17T08:27:57Z</time>
      </trkpt>
      <trkpt lat="38.002375513315201" lon="12.333398116752505">
        <ele>148.66</ele>
        <time>2017-09-17T08:28:07Z</time>
      </trkpt>
      <trkpt lat="38.002405688166618" lon="12.333385040983558">
        <ele>148.66</ele>
        <time>2017-09-17T08:28:10Z</time>
      </trkpt>
      <trkpt lat="38.002500906586647" lon="12.333324439823627">
        <ele>149.62</ele>
        <time>2017-09-17T08:28:21Z</time>
      </trkpt>
      <trkpt lat="38.002596627920866" lon="12.333260402083397">
        <ele>150.09999999999999</ele>
        <time>2017-09-17T08:28:32Z</time>
      </trkpt>
      <trkpt lat="38.002704838290811" lon="12.333212457597256">
        <ele>151.06</ele>
        <time>2017-09-17T08:28:43Z</time>
      </trkpt>
      <trkpt lat="38.002733672037721" lon="12.333202064037323">
        <ele>150.58000000000001</ele>
        <time>2017-09-17T08:28:46Z</time>
      </trkpt>
      <trkpt lat="38.002836853265762" lon="12.333168452605605">
        <ele>150.58000000000001</ele>
        <time>2017-09-17T08:28:57Z</time>
      </trkpt>
      <trkpt lat="38.002913044765592" lon="12.333164261654019">
        <ele>151.06</ele>
        <time>2017-09-17T08:29:06Z</time>
      </trkpt>
      <trkpt lat="38.002958977594972" lon="12.333132494240999">
        <ele>151.53999999999999</ele>
        <time>2017-09-17T08:29:13Z</time>
      </trkpt>
      <trkpt lat="38.003002144396305" lon="12.333053955808282">
        <ele>151.53999999999999</ele>
        <time>2017-09-17T08:29:22Z</time>
      </trkpt>
      <trkpt lat="38.003005748614669" lon="12.333043729886413">
        <ele>151.53999999999999</ele>
        <time>2017-09-17T08:29:23Z</time>
      </trkpt>
      <trkpt lat="38.003059811890125" lon="12.332952367141843">
        <ele>152.03</ele>
        <time>2017-09-17T08:29:33Z</time>
      </trkpt>
      <trkpt lat="38.003130052238703" lon="12.332853795960546">
        <ele>152.50999999999999</ele>
        <time>2017-09-17T08:29:44Z</time>
      </trkpt>
      <trkpt lat="38.00319635309279" lon="12.332759918645024">
        <ele>152.99000000000001</ele>
        <time>2017-09-17T08:29:55Z</time>
      </trkpt>
      <trkpt lat="38.003267347812653" lon="12.332650786265731">
        <ele>153.47</ele>
        <time>2017-09-17T08:30:07Z</time>
      </trkpt>
      <trkpt lat="38.003324847668409" lon="12.332570487633348">
        <ele>153.94999999999999</ele>
        <time>2017-09-17T08:30:16Z</time>
      </trkpt>
      <trkpt lat="38.003368601202965" lon="12.332503432407975">
        <ele>154.43000000000001</ele>
        <time>2017-09-17T08:30:26Z</time>
      </trkpt>
      <trkpt lat="38.003421658650041" lon="12.332430174574256">
        <ele>154.91</ele>
        <time>2017-09-17T08:30:36Z</time>
      </trkpt>
      <trkpt lat="38.003481421619654" lon="12.332343170419335">
        <ele>154.91</ele>
        <time>2017-09-17T08:30:46Z</time>
      </trkpt>
      <trkpt lat="38.003568090498447" lon="12.332251137122512">
        <ele>155.87</ele>
        <time>2017-09-17T08:30:58Z</time>
      </trkpt>
      <trkpt lat="38.003615867346525" lon="12.332178298383951">
        <ele>156.34999999999999</ele>
        <time>2017-09-17T08:31:07Z</time>
      </trkpt>
      <trkpt lat="38.00362098030746" lon="12.332158265635371">
        <ele>156.34999999999999</ele>
        <time>2017-09-17T08:31:09Z</time>
      </trkpt>
      <trkpt lat="38.003666326403618" lon="12.332046702504158">
        <ele>157.31</ele>
        <time>2017-09-17T08:31:20Z</time>
      </trkpt>
      <trkpt lat="38.003660878166556" lon="12.331958021968603">
        <ele>157.78999999999999</ele>
        <time>2017-09-17T08:31:31Z</time>
      </trkpt>
      <trkpt lat="38.003649981692433" lon="12.33195542357862">
        <ele>158.27000000000001</ele>
        <time>2017-09-17T08:31:52Z</time>
      </trkpt>
      <trkpt lat="38.003656351938844" lon="12.3319754563272">
        <ele>158.75</ele>
        <time>2017-09-17T08:32:06Z</time>
      </trkpt>
      <trkpt lat="38.00366347655654" lon="12.331983083859086">
        <ele>158.27000000000001</ele>
        <time>2017-09-17T08:32:17Z</time>
      </trkpt>
      <trkpt lat="38.003660710528493" lon="12.331950478255749">
        <ele>158.75</ele>
        <time>2017-09-17T08:32:30Z</time>
      </trkpt>
      <trkpt lat="38.003656100481749" lon="12.331935642287135">
        <ele>158.75</ele>
        <time>2017-09-17T08:32:44Z</time>
      </trkpt>
      <trkpt lat="38.003670768812299" lon="12.331972187384963">
        <ele>158.75</ele>
        <time>2017-09-17T08:32:59Z</time>
      </trkpt>
      <trkpt lat="38.003685101866722" lon="12.331892056390643">
        <ele>159.24000000000001</ele>
        <time>2017-09-17T08:33:10Z</time>
      </trkpt>
      <trkpt lat="38.003714187070727" lon="12.331766495481133">
        <ele>160.19999999999999</ele>
        <time>2017-09-17T08:33:22Z</time>
      </trkpt>
      <trkpt lat="38.003738578408957" lon="12.331786612048745">
        <ele>160.19999999999999</ele>
        <time>2017-09-17T08:33:37Z</time>
      </trkpt>
      <trkpt lat="38.003757437691092" lon="12.33179222792387">
        <ele>160.68000000000001</ele>
        <time>2017-09-17T08:33:55Z</time>
      </trkpt>
      <trkpt lat="38.003777721896768" lon="12.33180153183639">
        <ele>160.19999999999999</ele>
        <time>2017-09-17T08:34:12Z</time>
      </trkpt>
      <trkpt lat="38.003764478489757" lon="12.331804381683469">
        <ele>160.68000000000001</ele>
        <time>2017-09-17T08:34:22Z</time>
      </trkpt>
      <trkpt lat="38.003715025261045" lon="12.331818882375956">
        <ele>160.68000000000001</ele>
        <time>2017-09-17T08:34:46Z</time>
      </trkpt>
      <trkpt lat="38.003740170970559" lon="12.331820223480463">
        <ele>160.68000000000001</ele>
        <time>2017-09-17T08:35:13Z</time>
      </trkpt>
      <trkpt lat="38.003739081323147" lon="12.331800945103168">
        <ele>160.68000000000001</ele>
        <time>2017-09-17T08:35:29Z</time>
      </trkpt>
      <trkpt lat="38.003727681934834" lon="12.33177705667913">
        <ele>160.68000000000001</ele>
        <time>2017-09-17T08:35:42Z</time>
      </trkpt>
      <trkpt lat="38.003724245354533" lon="12.331713438034058">
        <ele>161.16</ele>
        <time>2017-09-17T08:35:57Z</time>
      </trkpt>
      <trkpt lat="38.00372458063066" lon="12.331651076674461">
        <ele>162.12</ele>
        <time>2017-09-17T08:36:08Z</time>
      </trkpt>
      <trkpt lat="38.003723658621311" lon="12.331658955663443">
        <ele>162.12</ele>
        <time>2017-09-17T08:36:17Z</time>
      </trkpt>
      <trkpt lat="38.003741595894098" lon="12.331654177978635">
        <ele>162.12</ele>
        <time>2017-09-17T08:36:27Z</time>
      </trkpt>
      <trkpt lat="38.003720641136169" lon="12.331601874902844">
        <ele>162.59999999999999</ele>
        <time>2017-09-17T08:36:40Z</time>
      </trkpt>
      <trkpt lat="38.003710750490427" lon="12.331512859091163">
        <ele>163.56</ele>
        <time>2017-09-17T08:36:50Z</time>
      </trkpt>
      <trkpt lat="38.003703709691763" lon="12.33146290294826">
        <ele>164.52000000000001</ele>
        <time>2017-09-17T08:36:58Z</time>
      </trkpt>
      <trkpt lat="38.003684179857373" lon="12.331397105008364">
        <ele>165.47999999999999</ele>
        <time>2017-09-17T08:37:06Z</time>
      </trkpt>
      <trkpt lat="38.003645958378911" lon="12.33129526488483">
        <ele>167.41</ele>
        <time>2017-09-17T08:37:18Z</time>
      </trkpt>
      <trkpt lat="38.003625171259046" lon="12.331226365640759">
        <ele>167.88999999999999</ele>
        <time>2017-09-17T08:37:27Z</time>
      </trkpt>
      <trkpt lat="38.003639336675406" lon="12.331107929348946">
        <ele>169.81</ele>
        <time>2017-09-17T08:37:39Z</time>
      </trkpt>
      <trkpt lat="38.003700189292431" lon="12.33098354190588">
        <ele>169.81</ele>
        <time>2017-09-17T08:37:52Z</time>
      </trkpt>
      <trkpt lat="38.003734219819307" lon="12.330893855541945">
        <ele>169.81</ele>
        <time>2017-09-17T08:38:03Z</time>
      </trkpt>
      <trkpt lat="38.003764310851693" lon="12.330833086743951">
        <ele>171.25</ele>
        <time>2017-09-17T08:38:10Z</time>
      </trkpt>
      <trkpt lat="38.003812758252025" lon="12.330678943544626">
        <ele>171.25</ele>
        <time>2017-09-17T08:38:23Z</time>
      </trkpt>
      <trkpt lat="38.00385114736855" lon="12.330538965761662">
        <ele>171.25</ele>
        <time>2017-09-17T08:38:34Z</time>
      </trkpt>
      <trkpt lat="38.003886351361871" lon="12.330464702099562">
        <ele>171.25</ele>
        <time>2017-09-17T08:38:41Z</time>
      </trkpt>
      <trkpt lat="38.003911077976227" lon="12.330426312983036">
        <ele>172.21000000000001</ele>
        <time>2017-09-17T08:38:45Z</time>
      </trkpt>
      <trkpt lat="38.003927255049348" lon="12.330397479236126">
        <ele>172.21000000000001</ele>
        <time>2017-09-17T08:38:48Z</time>
      </trkpt>
      <trkpt lat="38.003975534811616" lon="12.330274265259504">
        <ele>172.21000000000001</ele>
        <time>2017-09-17T08:38:59Z</time>
      </trkpt>
      <trkpt lat="38.004039488732815" lon="12.330155996605754">
        <ele>172.21000000000001</ele>
        <time>2017-09-17T08:39:10Z</time>
      </trkpt>
      <trkpt lat="38.004081062972546" lon="12.330074943602085">
        <ele>172.21000000000001</ele>
        <time>2017-09-17T08:39:18Z</time>
      </trkpt>
      <trkpt lat="38.004151890054345" lon="12.329960614442825">
        <ele>172.69</ele>
        <time>2017-09-17T08:39:29Z</time>
      </trkpt>
      <trkpt lat="38.004211904481053" lon="12.329849386587739">
        <ele>173.16999999999999</ele>
        <time>2017-09-17T08:39:40Z</time>
      </trkpt>
      <trkpt lat="38.004242163151503" lon="12.329736649990082">
        <ele>173.66</ele>
        <time>2017-09-17T08:39:50Z</time>
      </trkpt>
      <trkpt lat="38.004278372973204" lon="12.329687029123306">
        <ele>173.66</ele>
        <time>2017-09-17T08:39:55Z</time>
      </trkpt>
      <trkpt lat="38.004337633028626" lon="12.329574376344681">
        <ele>174.62</ele>
        <time>2017-09-17T08:40:06Z</time>
      </trkpt>
      <trkpt lat="38.00438717007637" lon="12.32950103469193">
        <ele>174.62</ele>
        <time>2017-09-17T08:40:15Z</time>
      </trkpt>
      <trkpt lat="38.004452297464013" lon="12.329352172091603">
        <ele>177.02000000000001</ele>
        <time>2017-09-17T08:40:28Z</time>
      </trkpt>
      <trkpt lat="38.004455734044313" lon="12.329320153221488">
        <ele>176.06</ele>
        <time>2017-09-17T08:40:39Z</time>
      </trkpt>
      <trkpt lat="38.004473587498069" lon="12.329314453527331">
        <ele>176.06</ele>
        <time>2017-09-17T08:40:50Z</time>
      </trkpt>
      <trkpt lat="38.004456404596567" lon="12.329319650307298">
        <ele>176.06</ele>
        <time>2017-09-17T08:41:05Z</time>
      </trkpt>
      <trkpt lat="38.004462271928787" lon="12.329299030825496">
        <ele>176.06</ele>
        <time>2017-09-17T08:41:21Z</time>
      </trkpt>
      <trkpt lat="38.004489513114095" lon="12.32930364087224">
        <ele>176.53999999999999</ele>
        <time>2017-09-17T08:41:36Z</time>
      </trkpt>
      <trkpt lat="38.00451910123229" lon="12.329327529296279">
        <ele>176.53999999999999</ele>
        <time>2017-09-17T08:41:59Z</time>
      </trkpt>
      <trkpt lat="38.004502085968852" lon="12.329326691105962">
        <ele>176.53999999999999</ele>
        <time>2017-09-17T08:42:23Z</time>
      </trkpt>
      <trkpt lat="38.004497224465013" lon="12.329329708591104">
        <ele>176.53999999999999</ele>
        <time>2017-09-17T08:42:47Z</time>
      </trkpt>
      <trkpt lat="38.004509964957833" lon="12.329327780753374">
        <ele>176.53999999999999</ele>
        <time>2017-09-17T08:43:10Z</time>
      </trkpt>
      <trkpt lat="38.00450686365366" lon="12.32933490537107">
        <ele>176.53999999999999</ele>
        <time>2017-09-17T08:43:27Z</time>
      </trkpt>
      <trkpt lat="38.00450149923563" lon="12.329328199848533">
        <ele>177.02000000000001</ele>
        <time>2017-09-17T08:43:53Z</time>
      </trkpt>
      <trkpt lat="38.004495715722442" lon="12.3293212428689">
        <ele>177.02000000000001</ele>
        <time>2017-09-17T08:44:08Z</time>
      </trkpt>
      <trkpt lat="38.004495464265347" lon="12.329306239262223">
        <ele>177.02000000000001</ele>
        <time>2017-09-17T08:44:31Z</time>
      </trkpt>
      <trkpt lat="38.004494206979871" lon="12.329304646700621">
        <ele>177.5</ele>
        <time>2017-09-17T08:44:56Z</time>
      </trkpt>
      <trkpt lat="38.004500744864345" lon="12.329309843480587">
        <ele>177.5</ele>
        <time>2017-09-17T08:45:16Z</time>
      </trkpt>
      <trkpt lat="38.004496553912759" lon="12.329321913421154">
        <ele>177.5</ele>
        <time>2017-09-17T08:45:33Z</time>
      </trkpt>
      <trkpt lat="38.004507785663009" lon="12.329315626993775">
        <ele>177.5</ele>
        <time>2017-09-17T08:45:55Z</time>
      </trkpt>
      <trkpt lat="38.004497475922108" lon="12.329311184585094">
        <ele>177.97999999999999</ele>
        <time>2017-09-17T08:46:17Z</time>
      </trkpt>
      <trkpt lat="38.004479203373194" lon="12.329297689720988">
        <ele>177.97999999999999</ele>
        <time>2017-09-17T08:46:26Z</time>
      </trkpt>
      <trkpt lat="38.004498733207583" lon="12.329317973926663">
        <ele>177.97999999999999</ele>
        <time>2017-09-17T08:46:41Z</time>
      </trkpt>
      <trkpt lat="38.004498314112425" lon="12.329338761046529">
        <ele>177.97999999999999</ele>
        <time>2017-09-17T08:47:07Z</time>
      </trkpt>
      <trkpt lat="38.004486495628953" lon="12.329332642257214">
        <ele>177.97999999999999</ele>
        <time>2017-09-17T08:47:33Z</time>
      </trkpt>
      <trkpt lat="38.00448389723897" lon="12.329332390800118">
        <ele>177.97999999999999</ele>
        <time>2017-09-17T08:47:51Z</time>
      </trkpt>
      <trkpt lat="38.004495296627283" lon="12.329330630600452">
        <ele>178.46000000000001</ele>
        <time>2017-09-17T08:48:10Z</time>
      </trkpt>
      <trkpt lat="38.004473084583879" lon="12.329357201233506">
        <ele>177.97999999999999</ele>
        <time>2017-09-17T08:48:21Z</time>
      </trkpt>
      <trkpt lat="38.004487585276365" lon="12.32931730337441">
        <ele>177.97999999999999</ele>
        <time>2017-09-17T08:48:32Z</time>
      </trkpt>
      <trkpt lat="38.004488842561841" lon="12.329307580366731">
        <ele>177.97999999999999</ele>
        <time>2017-09-17T08:48:51Z</time>
      </trkpt>
      <trkpt lat="38.004480879753828" lon="12.329307748004794">
        <ele>177.97999999999999</ele>
        <time>2017-09-17T08:49:07Z</time>
      </trkpt>
      <trkpt lat="38.004490351304412" lon="12.329318979755044">
        <ele>177.97999999999999</ele>
        <time>2017-09-17T08:49:26Z</time>
      </trkpt>
      <trkpt lat="38.00450099632144" lon="12.3292884696275">
        <ele>177.97999999999999</ele>
        <time>2017-09-17T08:49:45Z</time>
      </trkpt>
      <trkpt lat="38.004490518942475" lon="12.32924111187458">
        <ele>178.46000000000001</ele>
        <time>2017-09-17T08:49:53Z</time>
      </trkpt>
      <trkpt lat="38.004482304677367" lon="12.329148072749376">
        <ele>178.94</ele>
        <time>2017-09-17T08:50:03Z</time>
      </trkpt>
      <trkpt lat="38.004479790106416" lon="12.329124184325337">
        <ele>178.94</ele>
        <time>2017-09-17T08:50:05Z</time>
      </trkpt>
      <trkpt lat="38.004486076533794" lon="12.329034078866243">
        <ele>178.94</ele>
        <time>2017-09-17T08:50:11Z</time>
      </trkpt>
      <trkpt lat="38.004484567791224" lon="12.329007927328348">
        <ele>178.94</ele>
        <time>2017-09-17T08:50:13Z</time>
      </trkpt>
      <trkpt lat="38.00449026748538" lon="12.328940369188786">
        <ele>178.94</ele>
        <time>2017-09-17T08:50:18Z</time>
      </trkpt>
      <trkpt lat="38.004497392103076" lon="12.328879684209824">
        <ele>178.94</ele>
        <time>2017-09-17T08:50:22Z</time>
      </trkpt>
      <trkpt lat="38.004515999928117" lon="12.32868648134172">
        <ele>178.46000000000001</ele>
        <time>2017-09-17T08:50:36Z</time>
      </trkpt>
      <trkpt lat="38.004529075697064" lon="12.328523620963097">
        <ele>177.97999999999999</ele>
        <time>2017-09-17T08:50:48Z</time>
      </trkpt>
      <trkpt lat="38.004561346024275" lon="12.328375848010182">
        <ele>177.02000000000001</ele>
        <time>2017-09-17T08:51:00Z</time>
      </trkpt>
      <trkpt lat="38.004600070416927" lon="12.328264620155096">
        <ele>175.09999999999999</ele>
        <time>2017-09-17T08:51:12Z</time>
      </trkpt>
      <trkpt lat="38.004649020731449" lon="12.328170323744416">
        <ele>174.13999999999999</ele>
        <time>2017-09-17T08:51:23Z</time>
      </trkpt>
      <trkpt lat="38.004697132855654" lon="12.328062783926725">
        <ele>172.69</ele>
        <time>2017-09-17T08:51:36Z</time>
      </trkpt>
      <trkpt lat="38.004729989916086" lon="12.327951891347766">
        <ele>171.25</ele>
        <time>2017-09-17T08:51:48Z</time>
      </trkpt>
      <trkpt lat="38.004722446203232" lon="12.327879806980491">
        <ele>171.25</ele>
        <time>2017-09-17T08:51:59Z</time>
      </trkpt>
      <trkpt lat="38.004719344899058" lon="12.327870670706034">
        <ele>170.77000000000001</ele>
        <time>2017-09-17T08:52:00Z</time>
      </trkpt>
      <trkpt lat="38.004651116207242" lon="12.327673193067312">
        <ele>169.81</ele>
        <time>2017-09-17T08:52:15Z</time>
      </trkpt>
      <trkpt lat="38.004596382379532" lon="12.327506141737103">
        <ele>169.33000000000001</ele>
        <time>2017-09-17T08:52:30Z</time>
      </trkpt>
      <trkpt lat="38.004581462591887" lon="12.327472111210227">
        <ele>169.33000000000001</ele>
        <time>2017-09-17T08:52:33Z</time>
      </trkpt>
      <trkpt lat="38.004509042948484" lon="12.327337330207229">
        <ele>168.84999999999999</ele>
        <time>2017-09-17T08:52:46Z</time>
      </trkpt>
      <trkpt lat="38.004471492022276" lon="12.32725971378386">
        <ele>168.84999999999999</ele>
        <time>2017-09-17T08:52:53Z</time>
      </trkpt>
      <trkpt lat="38.004373256117105" lon="12.327098613604903">
        <ele>167.88999999999999</ele>
        <time>2017-09-17T08:53:07Z</time>
      </trkpt>
      <trkpt lat="38.004286922514439" lon="12.326986799016595">
        <ele>167.41</ele>
        <time>2017-09-17T08:53:20Z</time>
      </trkpt>
      <trkpt lat="38.004281222820282" lon="12.32698068022728">
        <ele>167.41</ele>
        <time>2017-09-17T08:53:21Z</time>
      </trkpt>
      <trkpt lat="38.004194470122457" lon="12.32686148956418">
        <ele>166.44999999999999</ele>
        <time>2017-09-17T08:53:35Z</time>
      </trkpt>
      <trkpt lat="38.004129678010941" lon="12.326767444610596">
        <ele>165.96000000000001</ele>
        <time>2017-09-17T08:53:47Z</time>
      </trkpt>
      <trkpt lat="38.004040662199259" lon="12.326650349423289">
        <ele>164.52000000000001</ele>
        <time>2017-09-17T08:54:00Z</time>
      </trkpt>
      <trkpt lat="38.003971176221967" lon="12.326544737443328">
        <ele>164.03999999999999</ele>
        <time>2017-09-17T08:54:12Z</time>
      </trkpt>
      <trkpt lat="38.003892470151186" lon="12.326425211504102">
        <ele>163.08000000000001</ele>
        <time>2017-09-17T08:54:25Z</time>
      </trkpt>
      <trkpt lat="38.003814853727818" lon="12.326298728585243">
        <ele>162.59999999999999</ele>
        <time>2017-09-17T08:54:37Z</time>
      </trkpt>
      <trkpt lat="38.003686023876071" lon="12.326199486851692">
        <ele>162.59999999999999</ele>
        <time>2017-09-17T08:54:52Z</time>
      </trkpt>
      <trkpt lat="38.003576304763556" lon="12.326169731095433">
        <ele>163.08000000000001</ele>
        <time>2017-09-17T08:55:06Z</time>
      </trkpt>
      <trkpt lat="38.003535065799952" lon="12.326155062764883">
        <ele>163.56</ele>
        <time>2017-09-17T08:55:16Z</time>
      </trkpt>
      <trkpt lat="38.003510255366564" lon="12.326120110228658">
        <ele>163.08000000000001</ele>
        <time>2017-09-17T08:55:26Z</time>
      </trkpt>
      <trkpt lat="38.003487205132842" lon="12.326109632849693">
        <ele>163.08000000000001</ele>
        <time>2017-09-17T08:55:37Z</time>
      </trkpt>
      <trkpt lat="38.003481840714812" lon="12.326097059994936">
        <ele>162.59999999999999</ele>
        <time>2017-09-17T08:55:48Z</time>
      </trkpt>
      <trkpt lat="38.003482427448034" lon="12.32610359787941">
        <ele>163.08000000000001</ele>
        <time>2017-09-17T08:56:03Z</time>
      </trkpt>
      <trkpt lat="38.003475302830338" lon="12.326076440513134">
        <ele>163.08000000000001</ele>
        <time>2017-09-17T08:56:15Z</time>
      </trkpt>
      <trkpt lat="38.003470357507467" lon="12.32606889680028">
        <ele>163.08000000000001</ele>
        <time>2017-09-17T08:56:33Z</time>
      </trkpt>
      <trkpt lat="38.003464657813311" lon="12.326073423027992">
        <ele>163.08000000000001</ele>
        <time>2017-09-17T08:57:02Z</time>
      </trkpt>
      <trkpt lat="38.003467591479421" lon="12.326090103015304">
        <ele>163.08000000000001</ele>
        <time>2017-09-17T08:57:19Z</time>
      </trkpt>
      <trkpt lat="38.003466250374913" lon="12.326100328937173">
        <ele>162.59999999999999</ele>
        <time>2017-09-17T08:57:38Z</time>
      </trkpt>
      <trkpt lat="38.003478823229671" lon="12.326090270653367">
        <ele>163.08000000000001</ele>
        <time>2017-09-17T08:57:58Z</time>
      </trkpt>
      <trkpt lat="38.00347245298326" lon="12.326092114672065">
        <ele>163.08000000000001</ele>
        <time>2017-09-17T08:58:17Z</time>
      </trkpt>
      <trkpt lat="38.003464322537184" lon="12.326091779395938">
        <ele>163.08000000000001</ele>
        <time>2017-09-17T08:58:38Z</time>
      </trkpt>
      <trkpt lat="38.003468345850706" lon="12.326098484918475">
        <ele>162.59999999999999</ele>
        <time>2017-09-17T08:58:55Z</time>
      </trkpt>
      <trkpt lat="38.003464741632342" lon="12.326099658384919">
        <ele>162.59999999999999</ele>
        <time>2017-09-17T08:59:15Z</time>
      </trkpt>
      <trkpt lat="38.003472201526165" lon="12.326100161299109">
        <ele>162.59999999999999</ele>
        <time>2017-09-17T08:59:32Z</time>
      </trkpt>
      <trkpt lat="38.003478823229671" lon="12.326082643121481">
        <ele>162.59999999999999</ele>
        <time>2017-09-17T08:59:50Z</time>
      </trkpt>
      <trkpt lat="38.003474548459053" lon="12.326092449948192">
        <ele>162.59999999999999</ele>
        <time>2017-09-17T09:00:08Z</time>
      </trkpt>
      <trkpt lat="38.003473458811641" lon="12.32609479688108">
        <ele>162.12</ele>
        <time>2017-09-17T09:00:31Z</time>
      </trkpt>
      <trkpt lat="38.003463987261057" lon="12.326088678091764">
        <ele>162.59999999999999</ele>
        <time>2017-09-17T09:00:43Z</time>
      </trkpt>
      <trkpt lat="38.003449821844697" lon="12.326109800487757">
        <ele>162.12</ele>
        <time>2017-09-17T09:00:58Z</time>
      </trkpt>
      <trkpt lat="38.003407074138522" lon="12.326111728325486">
        <ele>162.59999999999999</ele>
        <time>2017-09-17T09:01:08Z</time>
      </trkpt>
      <trkpt lat="38.003332810476422" lon="12.326122792437673">
        <ele>162.59999999999999</ele>
        <time>2017-09-17T09:01:19Z</time>
      </trkpt>
      <trkpt lat="38.003243794664741" lon="12.326133269816637">
        <ele>163.56</ele>
        <time>2017-09-17T09:01:32Z</time>
      </trkpt>
      <trkpt lat="38.003220828250051" lon="12.326125474646688">
        <ele>163.08000000000001</ele>
        <time>2017-09-17T09:01:35Z</time>
      </trkpt>
      <trkpt lat="38.003118401393294" lon="12.326130839064717">
        <ele>162.59999999999999</ele>
        <time>2017-09-17T09:01:47Z</time>
      </trkpt>
      <trkpt lat="38.003057632595301" lon="12.326135616749525">
        <ele>163.08000000000001</ele>
        <time>2017-09-17T09:01:56Z</time>
      </trkpt>
      <trkpt lat="38.002977082505822" lon="12.326122289523482">
        <ele>161.63999999999999</ele>
        <time>2017-09-17T09:02:06Z</time>
      </trkpt>
      <trkpt lat="38.002901393920183" lon="12.326110638678074">
        <ele>162.59999999999999</ele>
        <time>2017-09-17T09:02:16Z</time>
      </trkpt>
      <trkpt lat="38.002821179106832" lon="12.326079206541181">
        <ele>163.56</ele>
        <time>2017-09-17T09:02:28Z</time>
      </trkpt>
      <trkpt lat="38.002754459157586" lon="12.326057916507125">
        <ele>164.52000000000001</ele>
        <time>2017-09-17T09:02:40Z</time>
      </trkpt>
      <trkpt lat="38.002705257385969" lon="12.326058000326157">
        <ele>165</ele>
        <time>2017-09-17T09:02:51Z</time>
      </trkpt>
      <trkpt lat="38.002594951540232" lon="12.326068645343184">
        <ele>166.44999999999999</ele>
        <time>2017-09-17T09:03:05Z</time>
      </trkpt>
      <trkpt lat="38.002487998455763" lon="12.326056072488427">
        <ele>166.44999999999999</ele>
        <time>2017-09-17T09:03:17Z</time>
      </trkpt>
      <trkpt lat="38.00247123464942" lon="12.326061353087425">
        <ele>166.44999999999999</ele>
        <time>2017-09-17T09:03:19Z</time>
      </trkpt>
      <trkpt lat="38.002356570214033" lon="12.326054060831666">
        <ele>166.93000000000001</ele>
        <time>2017-09-17T09:03:31Z</time>
      </trkpt>
      <trkpt lat="38.00222497433424" lon="12.326035117730498">
        <ele>166.93000000000001</ele>
        <time>2017-09-17T09:03:44Z</time>
      </trkpt>
      <trkpt lat="38.002117434516549" lon="12.32597409747541">
        <ele>166.44999999999999</ele>
        <time>2017-09-17T09:03:57Z</time>
      </trkpt>
      <trkpt lat="38.002022886648774" lon="12.325972504913807">
        <ele>166.93000000000001</ele>
        <time>2017-09-17T09:04:08Z</time>
      </trkpt>
      <trkpt lat="38.001923561096191" lon="12.325976779684424">
        <ele>166.44999999999999</ele>
        <time>2017-09-17T09:04:20Z</time>
      </trkpt>
      <trkpt lat="38.001906294375658" lon="12.325977450236678">
        <ele>167.88999999999999</ele>
        <time>2017-09-17T09:04:22Z</time>
      </trkpt>
      <trkpt lat="38.001829097047448" lon="12.326012905687094">
        <ele>168.84999999999999</ele>
        <time>2017-09-17T09:04:32Z</time>
      </trkpt>
      <trkpt lat="38.001711582764983" lon="12.326010894030333">
        <ele>169.81</ele>
        <time>2017-09-17T09:04:44Z</time>
      </trkpt>
      <trkpt lat="38.00158241763711" lon="12.326013743877411">
        <ele>169.81</ele>
        <time>2017-09-17T09:04:57Z</time>
      </trkpt>
      <trkpt lat="38.00156774930656" lon="12.326012654229999">
        <ele>169.81</ele>
        <time>2017-09-17T09:04:59Z</time>
      </trkpt>
      <trkpt lat="38.001538328826427" lon="12.325999662280083">
        <ele>169.81</ele>
        <time>2017-09-17T09:05:02Z</time>
      </trkpt>
      <trkpt lat="38.001470267772675" lon="12.326005781069398">
        <ele>169.81</ele>
        <time>2017-09-17T09:05:08Z</time>
      </trkpt>
      <trkpt lat="38.001354597508907" lon="12.325985161587596">
        <ele>169.81</ele>
        <time>2017-09-17T09:05:20Z</time>
      </trkpt>
      <trkpt lat="38.001256361603737" lon="12.326010391116142">
        <ele>170.77000000000001</ele>
        <time>2017-09-17T09:05:33Z</time>
      </trkpt>
      <trkpt lat="38.001191820949316" lon="12.326025143265724">
        <ele>171.25</ele>
        <time>2017-09-17T09:05:40Z</time>
      </trkpt>
      <trkpt lat="38.001047987490892" lon="12.325986670330167">
        <ele>171.25</ele>
        <time>2017-09-17T09:05:54Z</time>
      </trkpt>
      <trkpt lat="38.000892670825124" lon="12.325924644246697">
        <ele>170.77000000000001</ele>
        <time>2017-09-17T09:06:09Z</time>
      </trkpt>
      <trkpt lat="38.000780520960689" lon="12.325916765257716">
        <ele>170.77000000000001</ele>
        <time>2017-09-17T09:06:21Z</time>
      </trkpt>
      <trkpt lat="38.000659151002765" lon="12.325879214331508">
        <ele>170.77000000000001</ele>
        <time>2017-09-17T09:06:35Z</time>
      </trkpt>
      <trkpt lat="38.000570805743337" lon="12.325872592628002">
        <ele>171.25</ele>
        <time>2017-09-17T09:06:45Z</time>
      </trkpt>
      <trkpt lat="38.000463601201773" lon="12.325841160491109">
        <ele>171.25</ele>
        <time>2017-09-17T09:06:56Z</time>
      </trkpt>
      <trkpt lat="38.000417165458202" lon="12.32583093456924">
        <ele>171.25</ele>
        <time>2017-09-17T09:07:01Z</time>
      </trkpt>
      <trkpt lat="38.000399395823479" lon="12.325822049751878">
        <ele>171.72999999999999</ele>
        <time>2017-09-17T09:07:03Z</time>
      </trkpt>
      <trkpt lat="38.000302836298943" lon="12.325810482725501">
        <ele>171.72999999999999</ele>
        <time>2017-09-17T09:07:14Z</time>
      </trkpt>
      <trkpt lat="38.000208288431168" lon="12.325815511867404">
        <ele>172.21000000000001</ele>
        <time>2017-09-17T09:07:25Z</time>
      </trkpt>
      <trkpt lat="38.000094881281257" lon="12.325833449140191">
        <ele>172.21000000000001</ele>
        <time>2017-09-17T09:07:38Z</time>
      </trkpt>
      <trkpt lat="38.000015169382095" lon="12.325860438868403">
        <ele>173.16999999999999</ele>
        <time>2017-09-17T09:07:48Z</time>
      </trkpt>
      <trkpt lat="37.999932607635856" lon="12.325862953439355">
        <ele>173.66</ele>
        <time>2017-09-17T09:07:58Z</time>
      </trkpt>
      <trkpt lat="37.999865217134356" lon="12.325863288715482">
        <ele>174.13999999999999</ele>
        <time>2017-09-17T09:08:09Z</time>
      </trkpt>
      <trkpt lat="37.999778296798468" lon="12.325895391404629">
        <ele>174.13999999999999</ele>
        <time>2017-09-17T09:08:19Z</time>
      </trkpt>
      <trkpt lat="37.999769831076264" lon="12.325910646468401">
        <ele>174.62</ele>
        <time>2017-09-17T09:08:31Z</time>
      </trkpt>
      <trkpt lat="37.999686431139708" lon="12.325910143554211">
        <ele>174.13999999999999</ele>
        <time>2017-09-17T09:08:41Z</time>
      </trkpt>
      <trkpt lat="37.999640414491296" lon="12.325905868783593">
        <ele>174.13999999999999</ele>
        <time>2017-09-17T09:08:45Z</time>
      </trkpt>
      <trkpt lat="37.999519882723689" lon="12.325912239030004">
        <ele>174.13999999999999</ele>
        <time>2017-09-17T09:08:57Z</time>
      </trkpt>
      <trkpt lat="37.999489037320018" lon="12.325914921239018">
        <ele>174.13999999999999</ele>
        <time>2017-09-17T09:09:01Z</time>
      </trkpt>
      <trkpt lat="37.999363979324698" lon="12.325956914573908">
        <ele>174.13999999999999</ele>
        <time>2017-09-17T09:09:14Z</time>
      </trkpt>
      <trkpt lat="37.999250991269946" lon="12.325987843796611">
        <ele>175.09999999999999</ele>
        <time>2017-09-17T09:09:26Z</time>
      </trkpt>
      <trkpt lat="37.999226097017527" lon="12.325992621481419">
        <ele>175.09999999999999</ele>
        <time>2017-09-17T09:09:29Z</time>
      </trkpt>
      <trkpt lat="37.999177733436227" lon="12.325993878766894">
        <ele>175.58000000000001</ele>
        <time>2017-09-17T09:09:35Z</time>
      </trkpt>
      <trkpt lat="37.999070361256599" lon="12.325995052233338">
        <ele>175.58000000000001</ele>
        <time>2017-09-17T09:09:46Z</time>
      </trkpt>
      <trkpt lat="37.999061141163111" lon="12.325999327003956">
        <ele>175.58000000000001</ele>
        <time>2017-09-17T09:09:57Z</time>
      </trkpt>
      <trkpt lat="37.999006407335401" lon="12.326029418036342">
        <ele>175.09999999999999</ele>
        <time>2017-09-17T09:10:06Z</time>
      </trkpt>
      <trkpt lat="37.999013029038906" lon="12.32602883130312">
        <ele>175.58000000000001</ele>
        <time>2017-09-17T09:10:23Z</time>
      </trkpt>
      <trkpt lat="37.999019399285316" lon="12.326018940657377">
        <ele>175.58000000000001</ele>
        <time>2017-09-17T09:10:37Z</time>
      </trkpt>
      <trkpt lat="37.99899123609066" lon="12.326046600937843">
        <ele>175.58000000000001</ele>
        <time>2017-09-17T09:10:46Z</time>
      </trkpt>
      <trkpt lat="37.998931389302015" lon="12.326103681698442">
        <ele>176.06</ele>
        <time>2017-09-17T09:10:56Z</time>
      </trkpt>
      <trkpt lat="37.998923426494002" lon="12.326130839064717">
        <ele>176.06</ele>
        <time>2017-09-17T09:10:59Z</time>
      </trkpt>
      <trkpt lat="37.998878918588161" lon="12.32617643661797">
        <ele>176.53999999999999</ele>
        <time>2017-09-17T09:11:05Z</time>
      </trkpt>
      <trkpt lat="37.998845223337412" lon="12.326202504336834">
        <ele>176.53999999999999</ele>
        <time>2017-09-17T09:11:09Z</time>
      </trkpt>
      <trkpt lat="37.998783113434911" lon="12.326282132416964">
        <ele>177.02000000000001</ele>
        <time>2017-09-17T09:11:20Z</time>
      </trkpt>
      <trkpt lat="37.998751094564795" lon="12.326322617009282">
        <ele>176.53999999999999</ele>
        <time>2017-09-17T09:11:29Z</time>
      </trkpt>
      <trkpt lat="37.998731480911374" lon="12.326338458806276">
        <ele>177.02000000000001</ele>
        <time>2017-09-17T09:11:38Z</time>
      </trkpt>
      <trkpt lat="37.998657636344433" lon="12.326344829052687">
        <ele>176.06</ele>
        <time>2017-09-17T09:11:48Z</time>
      </trkpt>
      <trkpt lat="37.998630981892347" lon="12.326321862637997">
        <ele>175.58000000000001</ele>
        <time>2017-09-17T09:11:59Z</time>
      </trkpt>
      <trkpt lat="37.998608602210879" lon="12.326275678351521">
        <ele>174.62</ele>
        <time>2017-09-17T09:12:10Z</time>
      </trkpt>
      <trkpt lat="37.998552024364471" lon="12.326293280348182">
        <ele>173.66</ele>
        <time>2017-09-17T09:12:19Z</time>
      </trkpt>
      <trkpt lat="37.998503157868981" lon="12.326322114095092">
        <ele>173.66</ele>
        <time>2017-09-17T09:12:29Z</time>
      </trkpt>
      <trkpt lat="37.998458063229918" lon="12.326349439099431">
        <ele>172.69</ele>
        <time>2017-09-17T09:12:39Z</time>
      </trkpt>
      <trkpt lat="37.998368963599205" lon="12.326392522081733">
        <ele>172.21000000000001</ele>
        <time>2017-09-17T09:12:50Z</time>
      </trkpt>
      <trkpt lat="37.99831691198051" lon="12.326404005289078">
        <ele>171.72999999999999</ele>
        <time>2017-09-17T09:12:56Z</time>
      </trkpt>
      <trkpt lat="37.998212473466992" lon="12.326404675841331">
        <ele>170.77000000000001</ele>
        <time>2017-09-17T09:13:07Z</time>
      </trkpt>
      <trkpt lat="37.998144580051303" lon="12.326445244252682">
        <ele>169.81</ele>
        <time>2017-09-17T09:13:18Z</time>
      </trkpt>
      <trkpt lat="37.998122619464993" lon="12.326446166262031">
        <ele>169.81</ele>
        <time>2017-09-17T09:13:22Z</time>
      </trkpt>
      <trkpt lat="37.998108454048634" lon="12.326461840420961">
        <ele>169.81</ele>
        <time>2017-09-17T09:13:24Z</time>
      </trkpt>
      <trkpt lat="37.998044835403562" lon="12.326508946716785">
        <ele>169.33000000000001</ele>
        <time>2017-09-17T09:13:31Z</time>
      </trkpt>
      <trkpt lat="37.997924135997891" lon="12.326573990285397">
        <ele>168.37</ele>
        <time>2017-09-17T09:13:45Z</time>
      </trkpt>
      <trkpt lat="37.997823469340801" lon="12.32659125700593">
        <ele>166.93000000000001</ele>
        <time>2017-09-17T09:13:56Z</time>
      </trkpt>
      <trkpt lat="37.997760521247983" lon="12.326641716063023">
        <ele>166.93000000000001</ele>
        <time>2017-09-17T09:14:07Z</time>
      </trkpt>
      <trkpt lat="37.99771492369473" lon="12.32668848708272">
        <ele>165.96000000000001</ele>
        <time>2017-09-17T09:14:15Z</time>
      </trkpt>
      <trkpt lat="37.997652646154165" lon="12.326690414920449">
        <ele>165.47999999999999</ele>
        <time>2017-09-17T09:14:24Z</time>
      </trkpt>
      <trkpt lat="37.997603444382548" lon="12.326677590608597">
        <ele>164.52000000000001</ele>
        <time>2017-09-17T09:14:34Z</time>
      </trkpt>
      <trkpt lat="37.997521301731467" lon="12.326668119058013">
        <ele>163.56</ele>
        <time>2017-09-17T09:14:47Z</time>
      </trkpt>
      <trkpt lat="37.997437985613942" lon="12.326703323051333">
        <ele>161.63999999999999</ele>
        <time>2017-09-17T09:15:00Z</time>
      </trkpt>
      <trkpt lat="37.997387778013945" lon="12.3267637565732">
        <ele>160.68000000000001</ele>
        <time>2017-09-17T09:15:11Z</time>
      </trkpt>
      <trkpt lat="37.99733622930944" lon="12.32679795473814">
        <ele>159.72</ele>
        <time>2017-09-17T09:15:21Z</time>
      </trkpt>
      <trkpt lat="37.997277388349175" lon="12.326825363561511">
        <ele>158.75</ele>
        <time>2017-09-17T09:15:31Z</time>
      </trkpt>
      <trkpt lat="37.997216451913118" lon="12.326852856203914">
        <ele>157.78999999999999</ele>
        <time>2017-09-17T09:15:42Z</time>
      </trkpt>
      <trkpt lat="37.99712467007339" lon="12.326865429058671">
        <ele>156.34999999999999</ele>
        <time>2017-09-17T09:15:54Z</time>
      </trkpt>
      <trkpt lat="37.997036827728152" lon="12.326922006905079">
        <ele>155.38999999999999</ele>
        <time>2017-09-17T09:16:08Z</time>
      </trkpt>
      <trkpt lat="37.99695267342031" lon="12.326981350779533">
        <ele>154.43000000000001</ele>
        <time>2017-09-17T09:16:21Z</time>
      </trkpt>
      <trkpt lat="37.996866088360548" lon="12.327013034373522">
        <ele>153.47</ele>
        <time>2017-09-17T09:16:32Z</time>
      </trkpt>
      <trkpt lat="37.996808169409633" lon="12.327057290822268">
        <ele>152.50999999999999</ele>
        <time>2017-09-17T09:16:43Z</time>
      </trkpt>
      <trkpt lat="37.99676550552249" lon="12.32707547955215">
        <ele>152.03</ele>
        <time>2017-09-17T09:16:53Z</time>
      </trkpt>
      <trkpt lat="37.996720829978585" lon="12.327100289985538">
        <ele>151.53999999999999</ele>
        <time>2017-09-17T09:17:03Z</time>
      </trkpt>
      <trkpt lat="37.996690990403295" lon="12.327123759314418">
        <ele>150.58000000000001</ele>
        <time>2017-09-17T09:17:16Z</time>
      </trkpt>
      <trkpt lat="37.996669448912144" lon="12.327160723507404">
        <ele>150.09999999999999</ele>
        <time>2017-09-17T09:17:27Z</time>
      </trkpt>
      <trkpt lat="37.996621169149876" lon="12.327183606103063">
        <ele>148.66</ele>
        <time>2017-09-17T09:17:37Z</time>
      </trkpt>
      <trkpt lat="37.996556963771582" lon="12.327226856723428">
        <ele>147.22</ele>
        <time>2017-09-17T09:17:48Z</time>
      </trkpt>
      <trkpt lat="37.996521675959229" lon="12.327266084030271">
        <ele>146.25999999999999</ele>
        <time>2017-09-17T09:17:58Z</time>
      </trkpt>
      <trkpt lat="37.9965163115412" lon="12.327273627743125">
        <ele>146.25999999999999</ele>
        <time>2017-09-17T09:18:00Z</time>
      </trkpt>
      <trkpt lat="37.996436599642038" lon="12.327276393771172">
        <ele>144.34</ele>
        <time>2017-09-17T09:18:11Z</time>
      </trkpt>
      <trkpt lat="37.996383709833026" lon="12.327317800372839">
        <ele>143.37</ele>
        <time>2017-09-17T09:18:21Z</time>
      </trkpt>
      <trkpt lat="37.996328305453062" lon="12.327341269701719">
        <ele>141.93000000000001</ele>
        <time>2017-09-17T09:18:32Z</time>
      </trkpt>
      <trkpt lat="37.996282121166587" lon="12.327415365725756">
        <ele>141.44999999999999</ele>
        <time>2017-09-17T09:18:41Z</time>
      </trkpt>
      <trkpt lat="37.996169971302152" lon="12.327496251091361">
        <ele>140.00999999999999</ele>
        <time>2017-09-17T09:18:52Z</time>
      </trkpt>
      <trkpt lat="37.996126469224691" lon="12.32750253751874">
        <ele>139.53</ele>
        <time>2017-09-17T09:18:56Z</time>
      </trkpt>
      <trkpt lat="37.996072322130203" lon="12.32746004126966">
        <ele>139.05000000000001</ele>
        <time>2017-09-17T09:19:07Z</time>
      </trkpt>
      <trkpt lat="37.996020521968603" lon="12.327446211129427">
        <ele>138.56999999999999</ele>
        <time>2017-09-17T09:19:35Z</time>
      </trkpt>
      <trkpt lat="37.996091851964593" lon="12.327484264969826">
        <ele>139.53</ele>
        <time>2017-09-17T09:19:46Z</time>
      </trkpt>
      <trkpt lat="37.996185477823019" lon="12.327448977157474">
        <ele>140.49000000000001</ele>
        <time>2017-09-17T09:19:56Z</time>
      </trkpt>
      <trkpt lat="37.996253874152899" lon="12.327407570555806">
        <ele>141.44999999999999</ele>
        <time>2017-09-17T09:20:06Z</time>
      </trkpt>
      <trkpt lat="37.996292598545551" lon="12.32734864577651">
        <ele>141.93000000000001</ele>
        <time>2017-09-17T09:20:18Z</time>
      </trkpt>
      <trkpt lat="37.996309446170926" lon="12.327347472310066">
        <ele>142.41</ele>
        <time>2017-09-17T09:20:35Z</time>
      </trkpt>
      <trkpt lat="37.9963159840554" lon="12.327363817021251">
        <ele>141.93000000000001</ele>
        <time>2017-09-17T09:20:58Z</time>
      </trkpt>
      <trkpt lat="37.99628471955657" lon="12.327354177832603">
        <ele>142.41</ele>
        <time>2017-09-17T09:21:12Z</time>
      </trkpt>
      <trkpt lat="37.996291425079107" lon="12.327352082356811">
        <ele>142.88999999999999</ele>
        <time>2017-09-17T09:21:36Z</time>
      </trkpt>
      <trkpt lat="37.996305003762245" lon="12.327350825071335">
        <ele>142.88999999999999</ele>
        <time>2017-09-17T09:21:53Z</time>
      </trkpt>
      <trkpt lat="37.996328473091125" lon="12.32733934186399">
        <ele>142.88999999999999</ele>
        <time>2017-09-17T09:22:12Z</time>
      </trkpt>
      <trkpt lat="37.996332999318838" lon="12.327311933040619">
        <ele>142.88999999999999</ele>
        <time>2017-09-17T09:22:31Z</time>
      </trkpt>
      <trkpt lat="37.996325958520174" lon="12.327336072921753">
        <ele>143.37</ele>
        <time>2017-09-17T09:22:53Z</time>
      </trkpt>
      <trkpt lat="37.996324868872762" lon="12.32735887169838">
        <ele>143.84999999999999</ele>
        <time>2017-09-17T09:23:15Z</time>
      </trkpt>
      <trkpt lat="37.996350601315498" lon="12.327358033508062">
        <ele>143.84999999999999</ele>
        <time>2017-09-17T09:23:36Z</time>
      </trkpt>
      <trkpt lat="37.996367448940873" lon="12.327345460653305">
        <ele>143.84999999999999</ele>
        <time>2017-09-17T09:23:54Z</time>
      </trkpt>
      <trkpt lat="37.9963418841362" lon="12.327341521158814">
        <ele>143.84999999999999</ele>
        <time>2017-09-17T09:24:11Z</time>
      </trkpt>
      <trkpt lat="37.996363341808319" lon="12.327351411804557">
        <ele>143.84999999999999</ele>
        <time>2017-09-17T09:24:32Z</time>
      </trkpt>
      <trkpt lat="37.996363760903478" lon="12.327352920547128">
        <ele>143.84999999999999</ele>
        <time>2017-09-17T09:24:52Z</time>
      </trkpt>
      <trkpt lat="37.996367532759905" lon="12.327355435118079">
        <ele>143.84999999999999</ele>
        <time>2017-09-17T09:25:12Z</time>
      </trkpt>
      <trkpt lat="37.996336603537202" lon="12.327376306056976">
        <ele>144.34</ele>
        <time>2017-09-17T09:25:28Z</time>
      </trkpt>
      <trkpt lat="37.996352110058069" lon="12.327350070700049">
        <ele>144.34</ele>
        <time>2017-09-17T09:25:46Z</time>
      </trkpt>
      <trkpt lat="37.996326629072428" lon="12.327328193932772">
        <ele>144.34</ele>
        <time>2017-09-17T09:26:05Z</time>
      </trkpt>
      <trkpt lat="37.996322689577937" lon="12.327382508665323">
        <ele>144.34</ele>
        <time>2017-09-17T09:26:18Z</time>
      </trkpt>
      <trkpt lat="37.996252784505486" lon="12.32744780369103">
        <ele>143.84999999999999</ele>
        <time>2017-09-17T09:26:30Z</time>
      </trkpt>
      <trkpt lat="37.99619285389781" lon="12.327495915815234">
        <ele>142.88999999999999</ele>
        <time>2017-09-17T09:26:42Z</time>
      </trkpt>
      <trkpt lat="37.996147088706493" lon="12.327516367658973">
        <ele>141.93000000000001</ele>
        <time>2017-09-17T09:26:51Z</time>
      </trkpt>
      <trkpt lat="37.996071232482791" lon="12.327537573873997">
        <ele>140.49000000000001</ele>
        <time>2017-09-17T09:27:02Z</time>
      </trkpt>
      <trkpt lat="37.995965201407671" lon="12.327594235539436">
        <ele>139.53</ele>
        <time>2017-09-17T09:27:15Z</time>
      </trkpt>
      <trkpt lat="37.995899068191648" lon="12.327648214995861">
        <ele>138.56999999999999</ele>
        <time>2017-09-17T09:27:26Z</time>
      </trkpt>
      <trkpt lat="37.995863361284137" lon="12.327692219987512">
        <ele>138.09</ele>
        <time>2017-09-17T09:27:35Z</time>
      </trkpt>
      <trkpt lat="37.995779542252421" lon="12.327765142545104">
        <ele>137.61000000000001</ele>
        <time>2017-09-17T09:27:47Z</time>
      </trkpt>
      <trkpt lat="37.995718102902174" lon="12.327808896079659">
        <ele>136.63999999999999</ele>
        <time>2017-09-17T09:27:58Z</time>
      </trkpt>
      <trkpt lat="37.995658256113529" lon="12.327841250225902">
        <ele>135.68000000000001</ele>
        <time>2017-09-17T09:28:12Z</time>
      </trkpt>
      <trkpt lat="37.995649874210358" lon="12.327857594937086">
        <ele>135.68000000000001</ele>
        <time>2017-09-17T09:28:15Z</time>
      </trkpt>
      <trkpt lat="37.99560310319066" lon="12.327911155298352">
        <ele>134.24000000000001</ele>
        <time>2017-09-17T09:28:25Z</time>
      </trkpt>
      <trkpt lat="37.995551470667124" lon="12.327970750629902">
        <ele>133.28</ele>
        <time>2017-09-17T09:28:37Z</time>
      </trkpt>
      <trkpt lat="37.995521882548928" lon="12.32801073230803">
        <ele>132.80000000000001</ele>
        <time>2017-09-17T09:28:47Z</time>
      </trkpt>
      <trkpt lat="37.995477290824056" lon="12.328077703714371">
        <ele>130.40000000000001</ele>
        <time>2017-09-17T09:28:59Z</time>
      </trkpt>
      <trkpt lat="37.995418952777982" lon="12.328140484169126">
        <ele>129.91999999999999</ele>
        <time>2017-09-17T09:29:11Z</time>
      </trkpt>
      <trkpt lat="37.995375283062458" lon="12.328186081722379">
        <ele>128.47</ele>
        <time>2017-09-17T09:29:21Z</time>
      </trkpt>
      <trkpt lat="37.995330104604363" lon="12.328211395069957">
        <ele>127.51000000000001</ele>
        <time>2017-09-17T09:29:30Z</time>
      </trkpt>
      <trkpt lat="37.995265480130911" lon="12.328271325677633">
        <ele>125.59</ele>
        <time>2017-09-17T09:29:42Z</time>
      </trkpt>
      <trkpt lat="37.995170932263136" lon="12.328351959586143">
        <ele>124.63</ele>
        <time>2017-09-17T09:29:55Z</time>
      </trkpt>
      <trkpt lat="37.995079569518566" lon="12.328402837738395">
        <ele>123.19</ele>
        <time>2017-09-17T09:30:07Z</time>
      </trkpt>
      <trkpt lat="37.9950001090765" lon="12.32842261902988">
        <ele>121.73999999999999</ele>
        <time>2017-09-17T09:30:18Z</time>
      </trkpt>
      <trkpt lat="37.994893323630095" lon="12.328442400321364">
        <ele>120.3</ele>
        <time>2017-09-17T09:30:32Z</time>
      </trkpt>
      <trkpt lat="37.99481738358736" lon="12.328434605151415">
        <ele>120.3</ele>
        <time>2017-09-17T09:30:42Z</time>
      </trkpt>
      <trkpt lat="37.994743119925261" lon="12.328440556302667">
        <ele>117.90000000000001</ele>
        <time>2017-09-17T09:30:52Z</time>
      </trkpt>
      <trkpt lat="37.994646476581693" lon="12.328462935984135">
        <ele>116.45999999999999</ele>
        <time>2017-09-17T09:31:05Z</time>
      </trkpt>
      <trkpt lat="37.99455595202744" lon="12.328459834679961">
        <ele>115.5</ele>
        <time>2017-09-17T09:31:16Z</time>
      </trkpt>
      <trkpt lat="37.994476240128279" lon="12.32845145277679">
        <ele>114.05</ele>
        <time>2017-09-17T09:31:27Z</time>
      </trkpt>
      <trkpt lat="37.994395019486547" lon="12.328444663435221">
        <ele>112.61</ele>
        <time>2017-09-17T09:31:38Z</time>
      </trkpt>
      <trkpt lat="37.994321091100574" lon="12.328439215198159">
        <ele>111.65000000000001</ele>
        <time>2017-09-17T09:31:49Z</time>
      </trkpt>
      <trkpt lat="37.994241127744317" lon="12.328440891578794">
        <ele>110.20999999999999</ele>
        <time>2017-09-17T09:31:59Z</time>
      </trkpt>
      <trkpt lat="37.994173569604754" lon="12.328415829688311">
        <ele>109.25</ele>
        <time>2017-09-17T09:32:10Z</time>
      </trkpt>
      <trkpt lat="37.994079692289233" lon="12.328373417258263">
        <ele>107.31999999999999</ele>
        <time>2017-09-17T09:32:23Z</time>
      </trkpt>
      <trkpt lat="37.994005847722292" lon="12.328355563804507">
        <ele>105.88</ele>
        <time>2017-09-17T09:32:35Z</time>
      </trkpt>
      <trkpt lat="37.993934182450175" lon="12.328363861888647">
        <ele>105.40000000000001</ele>
        <time>2017-09-17T09:32:47Z</time>
      </trkpt>
      <trkpt lat="37.993873581290245" lon="12.328316252678633">
        <ele>103.95999999999999</ele>
        <time>2017-09-17T09:32:58Z</time>
      </trkpt>
      <trkpt lat="37.993866875767708" lon="12.32831122353673">
        <ele>103.95999999999999</ele>
        <time>2017-09-17T09:32:59Z</time>
      </trkpt>
      <trkpt lat="37.993784146383405" lon="12.328291106969118">
        <ele>102.52</ele>
        <time>2017-09-17T09:33:10Z</time>
      </trkpt>
      <trkpt lat="37.99373846501112" lon="12.328271912410855">
        <ele>101.56</ele>
        <time>2017-09-17T09:33:19Z</time>
      </trkpt>
      <trkpt lat="37.993726143613458" lon="12.328266799449921">
        <ele>101.08</ele>
        <time>2017-09-17T09:33:29Z</time>
      </trkpt>
      <trkpt lat="37.993690688163042" lon="12.328249448910356">
        <ele>100.59999999999999</ele>
        <time>2017-09-17T09:33:43Z</time>
      </trkpt>
      <trkpt lat="37.993637630715966" lon="12.328258752822876">
        <ele>100.11</ele>
        <time>2017-09-17T09:33:53Z</time>
      </trkpt>
      <trkpt lat="37.993615753948689" lon="12.328231930732727">
        <ele>99.150000000000006</ele>
        <time>2017-09-17T09:33:57Z</time>
      </trkpt>
      <trkpt lat="37.993539394810796" lon="12.3281763587147">
        <ele>98.189999999999998</ele>
        <time>2017-09-17T09:34:08Z</time>
      </trkpt>
      <trkpt lat="37.993525732308626" lon="12.328175101429224">
        <ele>98.189999999999998</ele>
        <time>2017-09-17T09:34:10Z</time>
      </trkpt>
      <trkpt lat="37.993439733982086" lon="12.328124474734068">
        <ele>97.230000000000004</ele>
        <time>2017-09-17T09:34:22Z</time>
      </trkpt>
      <trkpt lat="37.993382066488266" lon="12.328109554946423">
        <ele>95.790000000000006</ele>
        <time>2017-09-17T09:34:31Z</time>
      </trkpt>
      <trkpt lat="37.993302941322327" lon="12.328092372044921">
        <ele>94.829999999999998</ele>
        <time>2017-09-17T09:34:43Z</time>
      </trkpt>
      <trkpt lat="37.993254913017154" lon="12.328051049262285">
        <ele>93.870000000000005</ele>
        <time>2017-09-17T09:34:52Z</time>
      </trkpt>
      <trkpt lat="37.993196994066238" lon="12.328029340133071">
        <ele>92.900000000000006</ele>
        <time>2017-09-17T09:35:00Z</time>
      </trkpt>
      <trkpt lat="37.993116527795792" lon="12.327979383990169">
        <ele>91.459999999999994</ele>
        <time>2017-09-17T09:35:11Z</time>
      </trkpt>
      <trkpt lat="37.993072690442204" lon="12.327942587435246">
        <ele>90.5</ele>
        <time>2017-09-17T09:35:20Z</time>
      </trkpt>
      <trkpt lat="37.993055758997798" lon="12.327901851385832">
        <ele>90.019999999999996</ele>
        <time>2017-09-17T09:35:26Z</time>
      </trkpt>
      <trkpt lat="37.99299088306725" lon="12.327842339873314">
        <ele>88.579999999999998</ele>
        <time>2017-09-17T09:35:38Z</time>
      </trkpt>
      <trkpt lat="37.99296741373837" lon="12.327846949920058">
        <ele>88.579999999999998</ele>
        <time>2017-09-17T09:35:42Z</time>
      </trkpt>
      <trkpt lat="37.992868423461914" lon="12.327860863879323">
        <ele>87.620000000000005</ele>
        <time>2017-09-17T09:35:53Z</time>
      </trkpt>
      <trkpt lat="37.992792231962085" lon="12.327875951305032">
        <ele>87.140000000000001</ele>
        <time>2017-09-17T09:36:05Z</time>
      </trkpt>
      <trkpt lat="37.992788041010499" lon="12.327864803373814">
        <ele>87.620000000000005</ele>
        <time>2017-09-17T09:36:14Z</time>
      </trkpt>
      <trkpt lat="37.992780162021518" lon="12.327857594937086">
        <ele>86.180000000000007</ele>
        <time>2017-09-17T09:36:21Z</time>
      </trkpt>
      <trkpt lat="37.992778988555074" lon="12.327865054830909">
        <ele>86.180000000000007</ele>
        <time>2017-09-17T09:36:48Z</time>
      </trkpt>
      <trkpt lat="37.992799608036876" lon="12.327867150306702">
        <ele>87.620000000000005</ele>
        <time>2017-09-17T09:37:00Z</time>
      </trkpt>
      <trkpt lat="37.992797093465924" lon="12.327861282974482">
        <ele>87.620000000000005</ele>
        <time>2017-09-17T09:37:15Z</time>
      </trkpt>
      <trkpt lat="37.992772031575441" lon="12.327849799767137">
        <ele>87.140000000000001</ele>
        <time>2017-09-17T09:37:26Z</time>
      </trkpt>
      <trkpt lat="37.992772702127695" lon="12.327792635187507">
        <ele>87.140000000000001</ele>
        <time>2017-09-17T09:37:30Z</time>
      </trkpt>
      <trkpt lat="37.992769768461585" lon="12.327690795063972">
        <ele>84.730000000000004</ele>
        <time>2017-09-17T09:37:42Z</time>
      </trkpt>
      <trkpt lat="37.992769600823522" lon="12.327717198058963">
        <ele>86.180000000000007</ele>
        <time>2017-09-17T09:37:55Z</time>
      </trkpt>
      <trkpt lat="37.992774965241551" lon="12.327716024592519">
        <ele>85.689999999999998</ele>
        <time>2017-09-17T09:38:14Z</time>
      </trkpt>
      <trkpt lat="37.992767002433538" lon="12.327733710408211">
        <ele>86.180000000000007</ele>
        <time>2017-09-17T09:38:33Z</time>
      </trkpt>
      <trkpt lat="37.992736408486962" lon="12.327791461721063">
        <ele>87.620000000000005</ele>
        <time>2017-09-17T09:38:43Z</time>
      </trkpt>
      <trkpt lat="37.992708077654243" lon="12.327866144478321">
        <ele>87.140000000000001</ele>
        <time>2017-09-17T09:38:55Z</time>
      </trkpt>
      <trkpt lat="37.992633813992143" lon="12.327862540259957">
        <ele>86.180000000000007</ele>
        <time>2017-09-17T09:39:06Z</time>
      </trkpt>
      <trkpt lat="37.992622582241893" lon="12.327849129214883">
        <ele>86.180000000000007</ele>
        <time>2017-09-17T09:39:18Z</time>
      </trkpt>
      <trkpt lat="37.992623001337051" lon="12.327856589108706">
        <ele>86.180000000000007</ele>
        <time>2017-09-17T09:39:19Z</time>
      </trkpt>
      <trkpt lat="37.992498781532049" lon="12.327905874699354">
        <ele>85.689999999999998</ele>
        <time>2017-09-17T09:39:32Z</time>
      </trkpt>
      <trkpt lat="37.992357881739736" lon="12.327946862205863">
        <ele>85.209999999999994</ele>
        <time>2017-09-17T09:39:45Z</time>
      </trkpt>
      <trkpt lat="37.992233410477638" lon="12.328015258535743">
        <ele>84.25</ele>
        <time>2017-09-17T09:39:59Z</time>
      </trkpt>
      <trkpt lat="37.992167947813869" lon="12.328063454478979">
        <ele>84.25</ele>
        <time>2017-09-17T09:40:09Z</time>
      </trkpt>
      <trkpt lat="37.992130145430565" lon="12.328077787533402">
        <ele>84.25</ele>
        <time>2017-09-17T09:40:14Z</time>
      </trkpt>
      <trkpt lat="37.992016570642591" lon="12.328069321811199">
        <ele>83.290000000000006</ele>
        <time>2017-09-17T09:40:26Z</time>
      </trkpt>
      <trkpt lat="37.991927303373814" lon="12.328078541904688">
        <ele>82.329999999999998</ele>
        <time>2017-09-17T09:40:36Z</time>
      </trkpt>
      <trkpt lat="37.9918123036623" lon="12.328069573268294">
        <ele>82.329999999999998</ele>
        <time>2017-09-17T09:40:47Z</time>
      </trkpt>
      <trkpt lat="37.991703674197197" lon="12.328072423115373">
        <ele>81.370000000000005</ele>
        <time>2017-09-17T09:40:59Z</time>
      </trkpt>
      <trkpt lat="37.991622956469655" lon="12.328077284619212">
        <ele>81.370000000000005</ele>
        <time>2017-09-17T09:41:09Z</time>
      </trkpt>
      <trkpt lat="37.991578029468656" lon="12.328065885230899">
        <ele>80.890000000000001</ele>
        <time>2017-09-17T09:41:15Z</time>
      </trkpt>
      <trkpt lat="37.991486079990864" lon="12.328020455315709">
        <ele>79.930000000000007</ele>
        <time>2017-09-17T09:41:28Z</time>
      </trkpt>
      <trkpt lat="37.991400500759482" lon="12.327996399253607">
        <ele>78.969999999999999</ele>
        <time>2017-09-17T09:41:39Z</time>
      </trkpt>
      <trkpt lat="37.991329673677683" lon="12.327952394261956">
        <ele>78.480000000000004</ele>
        <time>2017-09-17T09:41:48Z</time>
      </trkpt>
      <trkpt lat="37.99129530787468" lon="12.327938145026565">
        <ele>78</ele>
        <time>2017-09-17T09:41:58Z</time>
      </trkpt>
      <trkpt lat="37.991247531026602" lon="12.327926913276315">
        <ele>78</ele>
        <time>2017-09-17T09:42:05Z</time>
      </trkpt>
      <trkpt lat="37.991208638995886" lon="12.32790470123291">
        <ele>78</ele>
        <time>2017-09-17T09:42:10Z</time>
      </trkpt>
      <trkpt lat="37.991144601255655" lon="12.327838651835918">
        <ele>78</ele>
        <time>2017-09-17T09:42:21Z</time>
      </trkpt>
      <trkpt lat="37.991107553243637" lon="12.327765561640263">
        <ele>77.519999999999996</ele>
        <time>2017-09-17T09:42:31Z</time>
      </trkpt>
      <trkpt lat="37.991079473868012" lon="12.327711330726743">
        <ele>76.560000000000002</ele>
        <time>2017-09-17T09:42:42Z</time>
      </trkpt>
      <trkpt lat="37.991058100014925" lon="12.327653747051954">
        <ele>78</ele>
        <time>2017-09-17T09:42:52Z</time>
      </trkpt>
      <trkpt lat="37.991039576008916" lon="12.327605718746781">
        <ele>76.079999999999998</ele>
        <time>2017-09-17T09:43:02Z</time>
      </trkpt>
      <trkpt lat="37.991032367572188" lon="12.32758610509336">
        <ele>75.599999999999994</ele>
        <time>2017-09-17T09:43:14Z</time>
      </trkpt>
      <trkpt lat="37.99102071672678" lon="12.327540758997202">
        <ele>75.120000000000005</ele>
        <time>2017-09-17T09:43:25Z</time>
      </trkpt>
      <trkpt lat="37.991038402542472" lon="12.327452329918742">
        <ele>74.159999999999997</ele>
        <time>2017-09-17T09:43:36Z</time>
      </trkpt>
      <trkpt lat="37.991043766960502" lon="12.327445037662983">
        <ele>74.159999999999997</ele>
        <time>2017-09-17T09:43:49Z</time>
      </trkpt>
      <trkpt lat="37.991046868264675" lon="12.327458029612899">
        <ele>73.680000000000007</ele>
        <time>2017-09-17T09:44:03Z</time>
      </trkpt>
      <trkpt lat="37.991045527160168" lon="12.327469931915402">
        <ele>73.680000000000007</ele>
        <time>2017-09-17T09:44:21Z</time>
      </trkpt>
      <trkpt lat="37.99105734564364" lon="12.327465740963817">
        <ele>73.680000000000007</ele>
        <time>2017-09-17T09:44:33Z</time>
      </trkpt>
      <trkpt lat="37.991065811365843" lon="12.327496754005551">
        <ele>73.680000000000007</ele>
        <time>2017-09-17T09:44:48Z</time>
      </trkpt>
      <trkpt lat="37.99105835147202" lon="12.327502369880676">
        <ele>74.159999999999997</ele>
        <time>2017-09-17T09:45:03Z</time>
      </trkpt>
      <trkpt lat="37.991065224632621" lon="12.327478481456637">
        <ele>72.719999999999999</ele>
        <time>2017-09-17T09:45:14Z</time>
      </trkpt>
      <trkpt lat="37.991075702011585" lon="12.327494574710727">
        <ele>73.200000000000003</ele>
        <time>2017-09-17T09:45:33Z</time>
      </trkpt>
      <trkpt lat="37.99106664955616" lon="12.327485103160143">
        <ele>74.159999999999997</ele>
        <time>2017-09-17T09:45:47Z</time>
      </trkpt>
      <trkpt lat="37.99106715247035" lon="12.32747370377183">
        <ele>73.680000000000007</ele>
        <time>2017-09-17T09:46:08Z</time>
      </trkpt>
      <trkpt lat="37.991065392270684" lon="12.327473787590861">
        <ele>73.680000000000007</ele>
        <time>2017-09-17T09:46:31Z</time>
      </trkpt>
      <trkpt lat="37.991058770567179" lon="12.327468926087022">
        <ele>73.200000000000003</ele>
        <time>2017-09-17T09:46:51Z</time>
      </trkpt>
      <trkpt lat="37.991055501624942" lon="12.327453168109059">
        <ele>73.680000000000007</ele>
        <time>2017-09-17T09:47:08Z</time>
      </trkpt>
      <trkpt lat="37.99106664955616" lon="12.327471692115068">
        <ele>72.719999999999999</ele>
        <time>2017-09-17T09:47:29Z</time>
      </trkpt>
      <trkpt lat="37.991070337593555" lon="12.327479235827923">
        <ele>73.680000000000007</ele>
        <time>2017-09-17T09:47:50Z</time>
      </trkpt>
      <trkpt lat="37.991067236289382" lon="12.327498598024249">
        <ele>74.159999999999997</ele>
        <time>2017-09-17T09:47:59Z</time>
      </trkpt>
      <trkpt lat="37.991106631234288" lon="12.327555092051625">
        <ele>74.159999999999997</ele>
        <time>2017-09-17T09:48:09Z</time>
      </trkpt>
      <trkpt lat="37.991134375333786" lon="12.32753430493176">
        <ele>72.239999999999995</ele>
        <time>2017-09-17T09:48:21Z</time>
      </trkpt>
      <trkpt lat="37.991139739751816" lon="12.32747957110405">
        <ele>70.790000000000006</ele>
        <time>2017-09-17T09:48:33Z</time>
      </trkpt>
      <trkpt lat="37.991115096956491" lon="12.327392566949129">
        <ele>69.829999999999998</ele>
        <time>2017-09-17T09:48:43Z</time>
      </trkpt>
      <trkpt lat="37.991088274866343" lon="12.32739650644362">
        <ele>70.790000000000006</ele>
        <time>2017-09-17T09:48:54Z</time>
      </trkpt>
      <trkpt lat="37.99111207947135" lon="12.327371696010232">
        <ele>69.829999999999998</ele>
        <time>2017-09-17T09:49:10Z</time>
      </trkpt>
      <trkpt lat="37.9911267478019" lon="12.327402792870998">
        <ele>69.349999999999994</ele>
        <time>2017-09-17T09:49:27Z</time>
      </trkpt>
      <trkpt lat="37.991164717823267" lon="12.327428022399545">
        <ele>68.390000000000001</ele>
        <time>2017-09-17T09:49:40Z</time>
      </trkpt>
      <trkpt lat="37.991172596812248" lon="12.32741410844028">
        <ele>68.870000000000005</ele>
        <time>2017-09-17T09:49:50Z</time>
      </trkpt>
      <trkpt lat="37.991181397810578" lon="12.327363984659314">
        <ele>67.430000000000007</ele>
        <time>2017-09-17T09:49:59Z</time>
      </trkpt>
      <trkpt lat="37.991217104718089" lon="12.327315201982856">
        <ele>65.989999999999995</ele>
        <time>2017-09-17T09:50:08Z</time>
      </trkpt>
      <trkpt lat="37.991232527419925" lon="12.327294498682022">
        <ele>65.989999999999995</ele>
        <time>2017-09-17T09:50:18Z</time>
      </trkpt>
      <trkpt lat="37.991262702271342" lon="12.327260719612241">
        <ele>65.030000000000001</ele>
        <time>2017-09-17T09:50:29Z</time>
      </trkpt>
      <trkpt lat="37.99129338003695" lon="12.32724454253912">
        <ele>64.069999999999993</ele>
        <time>2017-09-17T09:50:34Z</time>
      </trkpt>
      <trkpt lat="37.991334199905396" lon="12.327217385172844">
        <ele>62.619999999999997</ele>
        <time>2017-09-17T09:50:43Z</time>
      </trkpt>
      <trkpt lat="37.99134811386466" lon="12.327175475656986">
        <ele>62.140000000000001</ele>
        <time>2017-09-17T09:50:52Z</time>
      </trkpt>
      <trkpt lat="37.991393292322755" lon="12.327133063226938">
        <ele>60.700000000000003</ele>
        <time>2017-09-17T09:51:04Z</time>
      </trkpt>
      <trkpt lat="37.991424975916743" lon="12.327113449573517">
        <ele>59.740000000000002</ele>
        <time>2017-09-17T09:51:14Z</time>
      </trkpt>
      <trkpt lat="37.991439728066325" lon="12.327048825100064">
        <ele>58.780000000000001</ele>
        <time>2017-09-17T09:51:23Z</time>
      </trkpt>
      <trkpt lat="37.99142774194479" lon="12.327055195346475">
        <ele>58.780000000000001</ele>
        <time>2017-09-17T09:51:31Z</time>
      </trkpt>
      <trkpt lat="37.991447690874338" lon="12.327031642198563">
        <ele>58.780000000000001</ele>
        <time>2017-09-17T09:51:43Z</time>
      </trkpt>
      <trkpt lat="37.991468142718077" lon="12.326976070180535">
        <ele>58.299999999999997</ele>
        <time>2017-09-17T09:51:51Z</time>
      </trkpt>
      <trkpt lat="37.991459257900715" lon="12.326935585588217">
        <ele>57.340000000000003</ele>
        <time>2017-09-17T09:52:01Z</time>
      </trkpt>
      <trkpt lat="37.991455821320415" lon="12.326951008290052">
        <ele>57.340000000000003</ele>
        <time>2017-09-17T09:52:12Z</time>
      </trkpt>
      <trkpt lat="37.991400165483356" lon="12.326955031603575">
        <ele>55.890000000000001</ele>
        <time>2017-09-17T09:52:23Z</time>
      </trkpt>
      <trkpt lat="37.991370996460319" lon="12.326981937512755">
        <ele>54.93</ele>
        <time>2017-09-17T09:52:34Z</time>
      </trkpt>
      <trkpt lat="37.991374097764492" lon="12.326989732682705">
        <ele>54.93</ele>
        <time>2017-09-17T09:52:46Z</time>
      </trkpt>
      <trkpt lat="37.991316933184862" lon="12.327029295265675">
        <ele>53.969999999999999</ele>
        <time>2017-09-17T09:52:56Z</time>
      </trkpt>
      <trkpt lat="37.991280388087034" lon="12.327043125405908">
        <ele>53.009999999999998</ele>
        <time>2017-09-17T09:53:07Z</time>
      </trkpt>
      <trkpt lat="37.991262366995215" lon="12.327033067122102">
        <ele>53.490000000000002</ele>
        <time>2017-09-17T09:53:15Z</time>
      </trkpt>
      <trkpt lat="37.991252057254314" lon="12.32703248038888">
        <ele>53.009999999999998</ele>
        <time>2017-09-17T09:53:26Z</time>
      </trkpt>
      <trkpt lat="37.991272760555148" lon="12.327038180083036">
        <ele>53.490000000000002</ele>
        <time>2017-09-17T09:53:43Z</time>
      </trkpt>
      <trkpt lat="37.991223307326436" lon="12.32707941904664">
        <ele>53.009999999999998</ele>
        <time>2017-09-17T09:53:54Z</time>
      </trkpt>
      <trkpt lat="37.991186678409576" lon="12.327105067670345">
        <ele>52.530000000000001</ele>
        <time>2017-09-17T09:54:03Z</time>
      </trkpt>
      <trkpt lat="37.991109481081367" lon="12.327162232249975">
        <ele>53.009999999999998</ele>
        <time>2017-09-17T09:54:14Z</time>
      </trkpt>
      <trkpt lat="37.991074696183205" lon="12.327176732942462">
        <ele>53.009999999999998</ele>
        <time>2017-09-17T09:54:18Z</time>
      </trkpt>
      <trkpt lat="37.990973694249988" lon="12.327213697135448">
        <ele>52.530000000000001</ele>
        <time>2017-09-17T09:54:30Z</time>
      </trkpt>
      <trkpt lat="37.990961205214262" lon="12.327212942764163">
        <ele>52.530000000000001</ele>
        <time>2017-09-17T09:54:32Z</time>
      </trkpt>
      <trkpt lat="37.990935808047652" lon="12.327199699357152">
        <ele>52.530000000000001</ele>
        <time>2017-09-17T09:54:43Z</time>
      </trkpt>
      <trkpt lat="37.99093128181994" lon="12.327184109017253">
        <ele>52.530000000000001</ele>
        <time>2017-09-17T09:54:57Z</time>
      </trkpt>
      <trkpt lat="37.990918541327119" lon="12.327193664386868">
        <ele>52.049999999999997</ele>
        <time>2017-09-17T09:55:17Z</time>
      </trkpt>
      <trkpt lat="37.99093178473413" lon="12.327180253341794">
        <ele>52.530000000000001</ele>
        <time>2017-09-17T09:55:33Z</time>
      </trkpt>
      <trkpt lat="37.990932371467352" lon="12.327177487313747">
        <ele>52.530000000000001</ele>
        <time>2017-09-17T09:55:43Z</time>
      </trkpt>
      <trkpt lat="37.990927007049322" lon="12.32718838378787">
        <ele>52.530000000000001</ele>
        <time>2017-09-17T09:56:05Z</time>
      </trkpt>
      <trkpt lat="37.990860873833299" lon="12.327200789004564">
        <ele>51.57</ele>
        <time>2017-09-17T09:56:15Z</time>
      </trkpt>
      <trkpt lat="37.99076808616519" lon="12.327186204493046">
        <ele>50.130000000000003</ele>
        <time>2017-09-17T09:56:28Z</time>
      </trkpt>
      <trkpt lat="37.990695582702756" lon="12.327180001884699">
        <ele>49.159999999999997</ele>
        <time>2017-09-17T09:56:38Z</time>
      </trkpt>
      <trkpt lat="37.990673873573542" lon="12.327181342989206">
        <ele>49.649999999999999</ele>
        <time>2017-09-17T09:56:44Z</time>
      </trkpt>
      <trkpt lat="37.990659037604928" lon="12.327181594446301">
        <ele>49.159999999999997</ele>
        <time>2017-09-17T09:56:46Z</time>
      </trkpt>
      <trkpt lat="37.990549234673381" lon="12.327182851731777">
        <ele>49.159999999999997</ele>
        <time>2017-09-17T09:56:59Z</time>
      </trkpt>
      <trkpt lat="37.990499949082732" lon="12.327192490920424">
        <ele>48.200000000000003</ele>
        <time>2017-09-17T09:57:07Z</time>
      </trkpt>
      <trkpt lat="37.990402970463037" lon="12.32727044261992">
        <ele>46.759999999999998</ele>
        <time>2017-09-17T09:57:19Z</time>
      </trkpt>
      <trkpt lat="37.990393750369549" lon="12.327275639399886">
        <ele>46.759999999999998</ele>
        <time>2017-09-17T09:57:20Z</time>
      </trkpt>
      <trkpt lat="37.990311356261373" lon="12.327291648834944">
        <ele>47.240000000000002</ele>
        <time>2017-09-17T09:57:30Z</time>
      </trkpt>
      <trkpt lat="37.990255784243345" lon="12.327271699905396">
        <ele>47.240000000000002</ele>
        <time>2017-09-17T09:57:41Z</time>
      </trkpt>
      <trkpt lat="37.990241115912795" lon="12.327259881421924">
        <ele>47.240000000000002</ele>
        <time>2017-09-17T09:57:49Z</time>
      </trkpt>
      <trkpt lat="37.990218568593264" lon="12.32725384645164">
        <ele>47.240000000000002</ele>
        <time>2017-09-17T09:57:58Z</time>
      </trkpt>
      <trkpt lat="37.990173809230328" lon="12.327233059331775">
        <ele>49.159999999999997</ele>
        <time>2017-09-17T09:58:09Z</time>
      </trkpt>
      <trkpt lat="37.990173222497106" lon="12.32723381370306">
        <ele>46.759999999999998</ele>
        <time>2017-09-17T09:58:20Z</time>
      </trkpt>
      <trkpt lat="37.990193087607622" lon="12.327225599437952">
        <ele>47.719999999999999</ele>
        <time>2017-09-17T09:58:29Z</time>
      </trkpt>
      <trkpt lat="37.990188058465719" lon="12.327233729884028">
        <ele>49.649999999999999</ele>
        <time>2017-09-17T09:58:32Z</time>
      </trkpt>
      <trkpt lat="37.990156961604953" lon="12.327224761247635">
        <ele>47.719999999999999</ele>
        <time>2017-09-17T09:58:43Z</time>
      </trkpt>
      <trkpt lat="37.990142628550529" lon="12.32725141569972">
        <ele>48.200000000000003</ele>
        <time>2017-09-17T09:58:52Z</time>
      </trkpt>
      <trkpt lat="37.990144807845354" lon="12.327247811481357">
        <ele>47.719999999999999</ele>
        <time>2017-09-17T09:59:06Z</time>
      </trkpt>
      <trkpt lat="37.990108514204621" lon="12.327284943312407">
        <ele>47.719999999999999</ele>
        <time>2017-09-17T09:59:20Z</time>
      </trkpt>
      <trkpt lat="37.990055540576577" lon="12.32732224278152">
        <ele>46.759999999999998</ele>
        <time>2017-09-17T09:59:30Z</time>
      </trkpt>
      <trkpt lat="37.990002315491438" lon="12.327355938032269">
        <ele>45.799999999999997</ele>
        <time>2017-09-17T09:59:41Z</time>
      </trkpt>
      <trkpt lat="37.989935930818319" lon="12.327388543635607">
        <ele>44.359999999999999</ele>
        <time>2017-09-17T09:59:52Z</time>
      </trkpt>
      <trkpt lat="37.9898920096457" lon="12.327419053763151">
        <ele>43.399999999999999</ele>
        <time>2017-09-17T10:00:01Z</time>
      </trkpt>
      <trkpt lat="37.989921513944864" lon="12.32732811011374">
        <ele>42.920000000000002</ele>
        <time>2017-09-17T10:00:10Z</time>
      </trkpt>
      <trkpt lat="37.989944480359554" lon="12.327297851443291">
        <ele>41.469999999999999</ele>
        <time>2017-09-17T10:00:20Z</time>
      </trkpt>
      <trkpt lat="37.9900180734694" lon="12.32719668187201">
        <ele>40.509999999999998</ele>
        <time>2017-09-17T10:00:32Z</time>
      </trkpt>
      <trkpt lat="37.990070125088096" lon="12.327142618596554">
        <ele>40.030000000000001</ele>
        <time>2017-09-17T10:00:41Z</time>
      </trkpt>
      <trkpt lat="37.990107592195272" lon="12.327085956931114">
        <ele>40.030000000000001</ele>
        <time>2017-09-17T10:00:49Z</time>
      </trkpt>
      <trkpt lat="37.990113878622651" lon="12.327081933617592">
        <ele>40.990000000000002</ele>
        <time>2017-09-17T10:00:56Z</time>
      </trkpt>
      <trkpt lat="37.990107759833336" lon="12.327093835920095">
        <ele>40.990000000000002</ele>
        <time>2017-09-17T10:01:04Z</time>
      </trkpt>
      <trkpt lat="37.99002880230546" lon="12.32715267688036">
        <ele>37.149999999999999</ele>
        <time>2017-09-17T10:01:14Z</time>
      </trkpt>
      <trkpt lat="37.989984042942524" lon="12.327163154259324">
        <ele>36.670000000000002</ele>
        <time>2017-09-17T10:01:23Z</time>
      </trkpt>
      <trkpt lat="37.990019833669066" lon="12.327077323570848">
        <ele>35.229999999999997</ele>
        <time>2017-09-17T10:01:33Z</time>
      </trkpt>
      <trkpt lat="37.990049254149199" lon="12.327027032151818">
        <ele>35.229999999999997</ele>
        <time>2017-09-17T10:01:41Z</time>
      </trkpt>
      <trkpt lat="37.990006590262055" lon="12.327060056850314">
        <ele>33.780000000000001</ele>
        <time>2017-09-17T10:01:48Z</time>
      </trkpt>
      <trkpt lat="37.989944815635681" lon="12.327137840911746">
        <ele>31.859999999999999</ele>
        <time>2017-09-17T10:02:01Z</time>
      </trkpt>
      <trkpt lat="37.989924699068069" lon="12.327191568911076">
        <ele>30.899999999999999</ele>
        <time>2017-09-17T10:02:11Z</time>
      </trkpt>
      <trkpt lat="37.989848675206304" lon="12.327260803431273">
        <ele>28.98</ele>
        <time>2017-09-17T10:02:22Z</time>
      </trkpt>
      <trkpt lat="37.989760329946876" lon="12.327309502288699">
        <ele>27.050000000000001</ele>
        <time>2017-09-17T10:02:36Z</time>
      </trkpt>
      <trkpt lat="37.989753037691116" lon="12.32729684561491">
        <ele>27.050000000000001</ele>
        <time>2017-09-17T10:02:44Z</time>
      </trkpt>
      <trkpt lat="37.989679863676429" lon="12.327342610806227">
        <ele>26.57</ele>
        <time>2017-09-17T10:02:56Z</time>
      </trkpt>
      <trkpt lat="37.989656226709485" lon="12.327383682131767">
        <ele>26.09</ele>
        <time>2017-09-17T10:03:07Z</time>
      </trkpt>
      <trkpt lat="37.989628482609987" lon="12.327412180602551">
        <ele>26.09</ele>
        <time>2017-09-17T10:03:18Z</time>
      </trkpt>
      <trkpt lat="37.989623202010989" lon="12.327411426231265">
        <ele>26.09</ele>
        <time>2017-09-17T10:03:28Z</time>
      </trkpt>
      <trkpt lat="37.989618172869086" lon="12.32740924693644">
        <ele>26.09</ele>
        <time>2017-09-17T10:03:41Z</time>
      </trkpt>
      <trkpt lat="37.989611718803644" lon="12.327408911660314">
        <ele>25.609999999999999</ele>
        <time>2017-09-17T10:03:53Z</time>
      </trkpt>
      <trkpt lat="37.989600738510489" lon="12.327417377382517">
        <ele>26.09</ele>
        <time>2017-09-17T10:04:06Z</time>
      </trkpt>
      <trkpt lat="37.989579699933529" lon="12.327420562505722">
        <ele>25.609999999999999</ele>
        <time>2017-09-17T10:04:22Z</time>
      </trkpt>
      <trkpt lat="37.989571066573262" lon="12.327433219179511">
        <ele>25.609999999999999</ele>
        <time>2017-09-17T10:04:35Z</time>
      </trkpt>
      <trkpt lat="37.989518595859408" lon="12.327441768720746">
        <ele>24.649999999999999</ele>
        <time>2017-09-17T10:04:51Z</time>
      </trkpt>
      <trkpt lat="37.989448858425021" lon="12.327502118423581">
        <ele>24.649999999999999</ele>
        <time>2017-09-17T10:05:03Z</time>
      </trkpt>
      <trkpt lat="37.989380965009332" lon="12.327592894434929">
        <ele>25.129999999999999</ele>
        <time>2017-09-17T10:05:17Z</time>
      </trkpt>
      <trkpt lat="37.989363530650735" lon="12.327622231096029">
        <ele>27.530000000000001</ele>
        <time>2017-09-17T10:05:21Z</time>
      </trkpt>
      <trkpt lat="37.98930561169982" lon="12.327701523900032">
        <ele>27.050000000000001</ele>
        <time>2017-09-17T10:05:32Z</time>
      </trkpt>
      <trkpt lat="37.989229336380959" lon="12.327788276597857">
        <ele>26.57</ele>
        <time>2017-09-17T10:05:44Z</time>
      </trkpt>
      <trkpt lat="37.989159096032381" lon="12.327890619635582">
        <ele>26.09</ele>
        <time>2017-09-17T10:05:56Z</time>
      </trkpt>
      <trkpt lat="37.989092376083136" lon="12.32797552831471">
        <ele>25.609999999999999</ele>
        <time>2017-09-17T10:06:07Z</time>
      </trkpt>
      <trkpt lat="37.989015597850084" lon="12.32809329405427">
        <ele>25.129999999999999</ele>
        <time>2017-09-17T10:06:20Z</time>
      </trkpt>
      <trkpt lat="37.988909650593996" lon="12.328257244080305">
        <ele>24.649999999999999</ele>
        <time>2017-09-17T10:06:36Z</time>
      </trkpt>
      <trkpt lat="37.988900262862444" lon="12.328291358426213">
        <ele>24.649999999999999</ele>
        <time>2017-09-17T10:06:39Z</time>
      </trkpt>
      <trkpt lat="37.988848127424717" lon="12.328412057831883">
        <ele>23.690000000000001</ele>
        <time>2017-09-17T10:06:51Z</time>
      </trkpt>
      <trkpt lat="37.98873882740736" lon="12.32850325293839">
        <ele>23.690000000000001</ele>
        <time>2017-09-17T10:07:03Z</time>
      </trkpt>
      <trkpt lat="37.988598765805364" lon="12.328617163002491">
        <ele>24.170000000000002</ele>
        <time>2017-09-17T10:07:18Z</time>
      </trkpt>
      <trkpt lat="37.988580744713545" lon="12.32865328900516">
        <ele>24.170000000000002</ele>
        <time>2017-09-17T10:07:21Z</time>
      </trkpt>
      <trkpt lat="37.988526429980993" lon="12.328796954825521">
        <ele>24.170000000000002</ele>
        <time>2017-09-17T10:07:34Z</time>
      </trkpt>
      <trkpt lat="37.988464906811714" lon="12.328856801614165">
        <ele>24.170000000000002</ele>
        <time>2017-09-17T10:07:42Z</time>
      </trkpt>
      <trkpt lat="37.988347141072154" lon="12.328964341431856">
        <ele>24.649999999999999</ele>
        <time>2017-09-17T10:07:57Z</time>
      </trkpt>
      <trkpt lat="37.98830246552825" lon="12.329010609537363">
        <ele>24.649999999999999</ele>
        <time>2017-09-17T10:08:02Z</time>
      </trkpt>
      <trkpt lat="37.988209091126919" lon="12.329093841835856">
        <ele>25.129999999999999</ele>
        <time>2017-09-17T10:08:14Z</time>
      </trkpt>
      <trkpt lat="37.988177575170994" lon="12.329130638390779">
        <ele>25.129999999999999</ele>
        <time>2017-09-17T10:08:18Z</time>
      </trkpt>
      <trkpt lat="37.988079842180014" lon="12.329235915094614">
        <ele>25.129999999999999</ele>
        <time>2017-09-17T10:08:31Z</time>
      </trkpt>
      <trkpt lat="37.987976241856813" lon="12.329306155443192">
        <ele>26.57</ele>
        <time>2017-09-17T10:08:44Z</time>
      </trkpt>
      <trkpt lat="37.987910276278853" lon="12.329369857907295">
        <ele>27.050000000000001</ele>
        <time>2017-09-17T10:08:53Z</time>
      </trkpt>
      <trkpt lat="37.98781044781208" lon="12.329454096034169">
        <ele>28.5</ele>
        <time>2017-09-17T10:09:05Z</time>
      </trkpt>
      <trkpt lat="37.987719085067511" lon="12.329511344432831">
        <ele>27.530000000000001</ele>
        <time>2017-09-17T10:09:18Z</time>
      </trkpt>
      <trkpt lat="37.98770877532661" lon="12.329522157087922">
        <ele>27.050000000000001</ele>
        <time>2017-09-17T10:09:28Z</time>
      </trkpt>
      <trkpt lat="37.987688155844808" lon="12.329557109624147">
        <ele>27.050000000000001</ele>
        <time>2017-09-17T10:09:32Z</time>
      </trkpt>
      <trkpt lat="37.987685138359666" lon="12.329576807096601">
        <ele>27.050000000000001</ele>
        <time>2017-09-17T10:09:34Z</time>
      </trkpt>
      <trkpt lat="37.987594697624445" lon="12.329705804586411">
        <ele>27.530000000000001</ele>
        <time>2017-09-17T10:09:48Z</time>
      </trkpt>
      <trkpt lat="37.987493863329291" lon="12.329826923087239">
        <ele>28.02</ele>
        <time>2017-09-17T10:10:01Z</time>
      </trkpt>
      <trkpt lat="37.98740241676569" lon="12.329989029094577">
        <ele>28.5</ele>
        <time>2017-09-17T10:10:15Z</time>
      </trkpt>
      <trkpt lat="37.987322453409433" lon="12.330173598602414">
        <ele>28.5</ele>
        <time>2017-09-17T10:10:30Z</time>
      </trkpt>
      <trkpt lat="37.987293284386396" lon="12.330295303836465">
        <ele>29.940000000000001</ele>
        <time>2017-09-17T10:10:42Z</time>
      </trkpt>
      <trkpt lat="37.987286243587732" lon="12.330299075692892">
        <ele>29.940000000000001</ele>
        <time>2017-09-17T10:10:54Z</time>
      </trkpt>
      <trkpt lat="37.98727098852396" lon="12.330315420404077">
        <ele>29.460000000000001</ele>
        <time>2017-09-17T10:11:05Z</time>
      </trkpt>
      <trkpt lat="37.987292278558016" lon="12.330282730981708">
        <ele>29.940000000000001</ele>
        <time>2017-09-17T10:11:17Z</time>
      </trkpt>
      <trkpt lat="37.987283226102591" lon="12.330289855599403">
        <ele>29.940000000000001</ele>
        <time>2017-09-17T10:11:33Z</time>
      </trkpt>
      <trkpt lat="37.98728808760643" lon="12.330320449545979">
        <ele>29.460000000000001</ele>
        <time>2017-09-17T10:11:44Z</time>
      </trkpt>
      <trkpt lat="37.987287668511271" lon="12.330331681296229">
        <ele>29.460000000000001</ele>
        <time>2017-09-17T10:12:03Z</time>
      </trkpt>
      <trkpt lat="37.987301498651505" lon="12.330315755680203">
        <ele>28.98</ele>
        <time>2017-09-17T10:12:16Z</time>
      </trkpt>
      <trkpt lat="37.987293368205428" lon="12.330303099006414">
        <ele>28.98</ele>
        <time>2017-09-17T10:12:30Z</time>
      </trkpt>
      <trkpt lat="37.987294709309936" lon="12.330304691568017">
        <ele>28.98</ele>
        <time>2017-09-17T10:12:43Z</time>
      </trkpt>
      <trkpt lat="37.987272413447499" lon="12.330311145633459">
        <ele>28.98</ele>
        <time>2017-09-17T10:12:58Z</time>
      </trkpt>
      <trkpt lat="37.987270737066865" lon="12.330339895561337">
        <ele>28.98</ele>
        <time>2017-09-17T10:13:14Z</time>
      </trkpt>
      <trkpt lat="37.987281046807766" lon="12.330330675467849">
        <ele>28.98</ele>
        <time>2017-09-17T10:13:30Z</time>
      </trkpt>
      <trkpt lat="37.987279035151005" lon="12.330325227230787">
        <ele>28.98</ele>
        <time>2017-09-17T10:13:44Z</time>
      </trkpt>
      <trkpt lat="37.987274006009102" lon="12.330337967723608">
        <ele>28.98</ele>
        <time>2017-09-17T10:13:55Z</time>
      </trkpt>
      <trkpt lat="37.987273167818785" lon="12.330350205302238">
        <ele>28.98</ele>
        <time>2017-09-17T10:14:08Z</time>
      </trkpt>
      <trkpt lat="37.987271156162024" lon="12.33035808429122">
        <ele>28.98</ele>
        <time>2017-09-17T10:14:28Z</time>
      </trkpt>
      <trkpt lat="37.987281130626798" lon="12.330324305221438">
        <ele>28.5</ele>
        <time>2017-09-17T10:14:39Z</time>
      </trkpt>
      <trkpt lat="37.987283226102591" lon="12.330330004915595">
        <ele>28.98</ele>
        <time>2017-09-17T10:14:55Z</time>
      </trkpt>
      <trkpt lat="37.987281465902925" lon="12.330348445102572">
        <ele>28.5</ele>
        <time>2017-09-17T10:15:08Z</time>
      </trkpt>
      <trkpt lat="37.987278699874878" lon="12.330333860591054">
        <ele>28.02</ele>
        <time>2017-09-17T10:15:19Z</time>
      </trkpt>
      <trkpt lat="37.987271659076214" lon="12.330413907766342">
        <ele>28.5</ele>
        <time>2017-09-17T10:15:33Z</time>
      </trkpt>
      <trkpt lat="37.987254559993744" lon="12.330528488382697">
        <ele>28.5</ele>
        <time>2017-09-17T10:15:45Z</time>
      </trkpt>
      <trkpt lat="37.987229330465198" lon="12.330690762028098">
        <ele>28.98</ele>
        <time>2017-09-17T10:15:58Z</time>
      </trkpt>
      <trkpt lat="37.987188259139657" lon="12.330836523324251">
        <ele>29.940000000000001</ele>
        <time>2017-09-17T10:16:11Z</time>
      </trkpt>
      <trkpt lat="37.987152552232146" lon="12.330986140295863">
        <ele>29.940000000000001</ele>
        <time>2017-09-17T10:16:24Z</time>
      </trkpt>
      <trkpt lat="37.987122628837824" lon="12.331078089773655">
        <ele>29.940000000000001</ele>
        <time>2017-09-17T10:16:35Z</time>
      </trkpt>
      <trkpt lat="37.987101003527641" lon="12.331057554110885">
        <ele>30.899999999999999</ele>
        <time>2017-09-17T10:16:49Z</time>
      </trkpt>
      <trkpt lat="37.987105278298259" lon="12.331048417836428">
        <ele>28.98</ele>
        <time>2017-09-17T10:16:56Z</time>
      </trkpt>
      <trkpt lat="37.987104775384068" lon="12.331030648201704">
        <ele>29.940000000000001</ele>
        <time>2017-09-17T10:17:12Z</time>
      </trkpt>
      <trkpt lat="37.987103266641498" lon="12.331076329573989">
        <ele>29.940000000000001</ele>
        <time>2017-09-17T10:17:26Z</time>
      </trkpt>
      <trkpt lat="37.98711902461946" lon="12.331111114472151">
        <ele>29.940000000000001</ele>
        <time>2017-09-17T10:17:36Z</time>
      </trkpt>
      <trkpt lat="37.987121623009443" lon="12.331069791689515">
        <ele>29.940000000000001</ele>
        <time>2017-09-17T10:17:53Z</time>
      </trkpt>
      <trkpt lat="37.987094968557358" lon="12.331212954595685">
        <ele>30.420000000000002</ele>
        <time>2017-09-17T10:18:06Z</time>
      </trkpt>
      <trkpt lat="37.987070493400097" lon="12.331363325938582">
        <ele>30.420000000000002</ele>
        <time>2017-09-17T10:18:17Z</time>
      </trkpt>
      <trkpt lat="37.98704476095736" lon="12.331496011465788">
        <ele>30.420000000000002</ele>
        <time>2017-09-17T10:18:27Z</time>
      </trkpt>
      <trkpt lat="37.987007545307279" lon="12.331534903496504">
        <ele>30.420000000000002</ele>
        <time>2017-09-17T10:18:37Z</time>
      </trkpt>
      <trkpt lat="37.987007042393088" lon="12.33153616078198">
        <ele>30.899999999999999</ele>
        <time>2017-09-17T10:18:38Z</time>
      </trkpt>
      <trkpt lat="37.987010730430484" lon="12.331557869911194">
        <ele>30.899999999999999</ele>
        <time>2017-09-17T10:18:40Z</time>
      </trkpt>
      <trkpt lat="37.9870012588799" lon="12.331621907651424">
        <ele>30.899999999999999</ele>
        <time>2017-09-17T10:18:45Z</time>
      </trkpt>
      <trkpt lat="37.986975442618132" lon="12.331661302596331">
        <ele>30.899999999999999</ele>
        <time>2017-09-17T10:18:55Z</time>
      </trkpt>
      <trkpt lat="37.986982064321637" lon="12.331671277061105">
        <ele>30.899999999999999</ele>
        <time>2017-09-17T10:18:58Z</time>
      </trkpt>
      <trkpt lat="37.98688986338675" lon="12.331936312839389">
        <ele>31.859999999999999</ele>
        <time>2017-09-17T10:19:17Z</time>
      </trkpt>
      <trkpt lat="37.986802691593766" lon="12.332164216786623">
        <ele>32.340000000000003</ele>
        <time>2017-09-17T10:19:33Z</time>
      </trkpt>
      <trkpt lat="37.986746868118644" lon="12.332363538444042">
        <ele>32.340000000000003</ele>
        <time>2017-09-17T10:19:46Z</time>
      </trkpt>
      <trkpt lat="37.98671786673367" lon="12.332595884799957">
        <ele>31.859999999999999</ele>
        <time>2017-09-17T10:20:01Z</time>
      </trkpt>
      <trkpt lat="37.986684255301952" lon="12.332843402400613">
        <ele>31.379999999999999</ele>
        <time>2017-09-17T10:20:17Z</time>
      </trkpt>
      <trkpt lat="37.986604040488601" lon="12.333083376288414">
        <ele>31.379999999999999</ele>
        <time>2017-09-17T10:20:33Z</time>
      </trkpt>
      <trkpt lat="37.986483257263899" lon="12.333211367949843">
        <ele>32.340000000000003</ele>
        <time>2017-09-17T10:20:46Z</time>
      </trkpt>
      <trkpt lat="37.986382506787777" lon="12.333365175873041">
        <ele>33.299999999999997</ele>
        <time>2017-09-17T10:20:59Z</time>
      </trkpt>
      <trkpt lat="37.986321235075593" lon="12.333580339327455">
        <ele>34.259999999999998</ele>
        <time>2017-09-17T10:21:13Z</time>
      </trkpt>
      <trkpt lat="37.986203134059906" lon="12.333752335980535">
        <ele>34.740000000000002</ele>
        <time>2017-09-17T10:21:27Z</time>
      </trkpt>
      <trkpt lat="37.986136497929692" lon="12.333895666524768">
        <ele>35.710000000000001</ele>
        <time>2017-09-17T10:21:39Z</time>
      </trkpt>
      <trkpt lat="37.986131301149726" lon="12.333910167217255">
        <ele>35.710000000000001</ele>
        <time>2017-09-17T10:21:40Z</time>
      </trkpt>
      <trkpt lat="37.986113866791129" lon="12.333957692608237">
        <ele>36.189999999999998</ele>
        <time>2017-09-17T10:21:44Z</time>
      </trkpt>
      <trkpt lat="37.986092492938042" lon="12.33416547998786">
        <ele>36.670000000000002</ele>
        <time>2017-09-17T10:21:59Z</time>
      </trkpt>
      <trkpt lat="37.986092241480947" lon="12.334337644279003">
        <ele>37.149999999999999</ele>
        <time>2017-09-17T10:22:10Z</time>
      </trkpt>
      <trkpt lat="37.986087799072266" lon="12.334526656195521">
        <ele>37.630000000000003</ele>
        <time>2017-09-17T10:22:22Z</time>
      </trkpt>
      <trkpt lat="37.986086793243885" lon="12.33471667394042">
        <ele>38.109999999999999</ele>
        <time>2017-09-17T10:22:35Z</time>
      </trkpt>
      <trkpt lat="37.986093917861581" lon="12.334778364747763">
        <ele>38.109999999999999</ele>
        <time>2017-09-17T10:22:39Z</time>
      </trkpt>
      <trkpt lat="37.986096097156405" lon="12.334938542917371">
        <ele>39.07</ele>
        <time>2017-09-17T10:22:50Z</time>
      </trkpt>
      <trkpt lat="37.986082350835204" lon="12.33509779907763">
        <ele>39.549999999999997</ele>
        <time>2017-09-17T10:23:02Z</time>
      </trkpt>
      <trkpt lat="37.986097270622849" lon="12.335226545110345">
        <ele>40.030000000000001</ele>
        <time>2017-09-17T10:23:13Z</time>
      </trkpt>
      <trkpt lat="37.986074052751064" lon="12.33537926338613">
        <ele>40.509999999999998</ele>
        <time>2017-09-17T10:23:24Z</time>
      </trkpt>
      <trkpt lat="37.986063323915005" lon="12.335572382435203">
        <ele>40.990000000000002</ele>
        <time>2017-09-17T10:23:38Z</time>
      </trkpt>
      <trkpt lat="37.986073801293969" lon="12.335623931139708">
        <ele>40.990000000000002</ele>
        <time>2017-09-17T10:23:42Z</time>
      </trkpt>
      <trkpt lat="37.986079836264253" lon="12.335806908085942">
        <ele>41.950000000000003</ele>
        <time>2017-09-17T10:23:56Z</time>
      </trkpt>
      <trkpt lat="37.986071705818176" lon="12.335860719904304">
        <ele>41.950000000000003</ele>
        <time>2017-09-17T10:24:00Z</time>
      </trkpt>
      <trkpt lat="37.986069023609161" lon="12.33602081425488">
        <ele>41.950000000000003</ele>
        <time>2017-09-17T10:24:12Z</time>
      </trkpt>
      <trkpt lat="37.986053936183453" lon="12.336122235283256">
        <ele>42.439999999999998</ele>
        <time>2017-09-17T10:24:20Z</time>
      </trkpt>
      <trkpt lat="37.986004231497645" lon="12.336148386821151">
        <ele>42.439999999999998</ele>
        <time>2017-09-17T10:24:32Z</time>
      </trkpt>
      <trkpt lat="37.986016552895308" lon="12.336164060980082">
        <ele>42.439999999999998</ele>
        <time>2017-09-17T10:24:39Z</time>
      </trkpt>
      <trkpt lat="37.986006326973438" lon="12.336217202246189">
        <ele>42.920000000000002</ele>
        <time>2017-09-17T10:24:50Z</time>
      </trkpt>
      <trkpt lat="37.985990820452571" lon="12.336313845589757">
        <ele>42.439999999999998</ele>
        <time>2017-09-17T10:24:57Z</time>
      </trkpt>
      <trkpt lat="37.985947821289301" lon="12.336559519171715">
        <ele>42.439999999999998</ele>
        <time>2017-09-17T10:25:12Z</time>
      </trkpt>
      <trkpt lat="37.985870288684964" lon="12.336809132248163">
        <ele>41.469999999999999</ele>
        <time>2017-09-17T10:25:29Z</time>
      </trkpt>
      <trkpt lat="37.985884873196483" lon="12.336804438382387">
        <ele>40.990000000000002</ele>
        <time>2017-09-17T10:25:39Z</time>
      </trkpt>
      <trkpt lat="37.985780853778124" lon="12.33704449608922">
        <ele>39.549999999999997</ele>
        <time>2017-09-17T10:25:55Z</time>
      </trkpt>
      <trkpt lat="37.985699130222201" lon="12.337254043668509">
        <ele>37.630000000000003</ele>
        <time>2017-09-17T10:26:09Z</time>
      </trkpt>
      <trkpt lat="37.985571976751089" lon="12.337422939017415">
        <ele>36.670000000000002</ele>
        <time>2017-09-17T10:26:23Z</time>
      </trkpt>
      <trkpt lat="37.985431747511029" lon="12.337594013661146">
        <ele>34.740000000000002</ele>
        <time>2017-09-17T10:26:37Z</time>
      </trkpt>
      <trkpt lat="37.985359076410532" lon="12.337752934545279">
        <ele>33.299999999999997</ele>
        <time>2017-09-17T10:26:49Z</time>
      </trkpt>
      <trkpt lat="37.985347844660282" lon="12.337756287306547">
        <ele>33.780000000000001</ele>
        <time>2017-09-17T10:27:00Z</time>
      </trkpt>
      <trkpt lat="37.985328398644924" lon="12.337793419137597">
        <ele>33.299999999999997</ele>
        <time>2017-09-17T10:27:09Z</time>
      </trkpt>
      <trkpt lat="37.985337702557445" lon="12.337801717221737">
        <ele>33.299999999999997</ele>
        <time>2017-09-17T10:27:17Z</time>
      </trkpt>
      <trkpt lat="37.985321776941419" lon="12.337992656975985">
        <ele>31.859999999999999</ele>
        <time>2017-09-17T10:27:29Z</time>
      </trkpt>
      <trkpt lat="37.985328482463956" lon="12.338172784075141">
        <ele>31.859999999999999</ele>
        <time>2017-09-17T10:27:42Z</time>
      </trkpt>
      <trkpt lat="37.985287830233574" lon="12.338321143761277">
        <ele>30.420000000000002</ele>
        <time>2017-09-17T10:27:54Z</time>
      </trkpt>
      <trkpt lat="37.985269222408533" lon="12.338393982499838">
        <ele>29.940000000000001</ele>
        <time>2017-09-17T10:27:59Z</time>
      </trkpt>
      <trkpt lat="37.985214907675982" lon="12.338431114330888">
        <ele>29.460000000000001</ele>
        <time>2017-09-17T10:28:09Z</time>
      </trkpt>
      <trkpt lat="37.985211722552776" lon="12.338464139029384">
        <ele>29.460000000000001</ele>
        <time>2017-09-17T10:28:18Z</time>
      </trkpt>
      <trkpt lat="37.985216081142426" lon="12.338558435440063">
        <ele>28.5</ele>
        <time>2017-09-17T10:28:24Z</time>
      </trkpt>
      <trkpt lat="37.985227899625897" lon="12.338703610002995">
        <ele>29.460000000000001</ele>
        <time>2017-09-17T10:28:33Z</time>
      </trkpt>
      <trkpt lat="37.985246758908033" lon="12.338906871154904">
        <ele>29.940000000000001</ele>
        <time>2017-09-17T10:28:45Z</time>
      </trkpt>
      <trkpt lat="37.985285148024559" lon="12.339114574715495">
        <ele>30.899999999999999</ele>
        <time>2017-09-17T10:28:58Z</time>
      </trkpt>
      <trkpt lat="37.985415905714035" lon="12.339286739006639">
        <ele>31.379999999999999</ele>
        <time>2017-09-17T10:29:13Z</time>
      </trkpt>
      <trkpt lat="37.985625369474292" lon="12.339320182800293">
        <ele>32.340000000000003</ele>
        <time>2017-09-17T10:29:29Z</time>
      </trkpt>
      <trkpt lat="37.98579091206193" lon="12.339285649359226">
        <ele>33.299999999999997</ele>
        <time>2017-09-17T10:29:43Z</time>
      </trkpt>
      <trkpt lat="37.9858891479671" lon="12.339213481172919">
        <ele>33.299999999999997</ele>
        <time>2017-09-17T10:29:56Z</time>
      </trkpt>
      <trkpt lat="37.986022001132369" lon="12.339226137846708">
        <ele>32.340000000000003</ele>
        <time>2017-09-17T10:30:07Z</time>
      </trkpt>
      <trkpt lat="37.986084362491965" lon="12.339237285777926">
        <ele>31.859999999999999</ele>
        <time>2017-09-17T10:30:17Z</time>
      </trkpt>
      <trkpt lat="37.986098360270262" lon="12.339240219444036">
        <ele>31.859999999999999</ele>
        <time>2017-09-17T10:30:31Z</time>
      </trkpt>
      <trkpt lat="37.986113447695971" lon="12.339256647974253">
        <ele>31.859999999999999</ele>
        <time>2017-09-17T10:30:47Z</time>
      </trkpt>
      <trkpt lat="37.986127529293299" lon="12.339252792298794">
        <ele>27.530000000000001</ele>
        <time>2017-09-17T10:31:01Z</time>
      </trkpt>
      <trkpt lat="37.986136833205819" lon="12.33925212174654">
        <ele>35.710000000000001</ele>
        <time>2017-09-17T10:31:02Z</time>
      </trkpt>
      <trkpt lat="37.986144963651896" lon="12.339252457022667">
        <ele>32.340000000000003</ele>
        <time>2017-09-17T10:31:03Z</time>
      </trkpt>
      <trkpt lat="37.986251330003142" lon="12.339238710701466">
        <ele>30.899999999999999</ele>
        <time>2017-09-17T10:31:15Z</time>
      </trkpt>
      <trkpt lat="37.986353421583772" lon="12.339198226109147">
        <ele>29.460000000000001</ele>
        <time>2017-09-17T10:31:25Z</time>
      </trkpt>
      <trkpt lat="37.9864711035043" lon="12.339202584698796">
        <ele>28.98</ele>
        <time>2017-09-17T10:31:37Z</time>
      </trkpt>
      <trkpt lat="37.986634885892272" lon="12.339267125353217">
        <ele>27.050000000000001</ele>
        <time>2017-09-17T10:31:51Z</time>
      </trkpt>
      <trkpt lat="37.986790370196104" lon="12.339402157813311">
        <ele>25.129999999999999</ele>
        <time>2017-09-17T10:32:07Z</time>
      </trkpt>
      <trkpt lat="37.986922552809119" lon="12.339532496407628">
        <ele>24.649999999999999</ele>
        <time>2017-09-17T10:32:20Z</time>
      </trkpt>
      <trkpt lat="37.986996481195092" lon="12.339639868587255">
        <ele>22.25</ele>
        <time>2017-09-17T10:32:30Z</time>
      </trkpt>
      <trkpt lat="37.98704182729125" lon="12.339684041216969">
        <ele>21.289999999999999</ele>
        <time>2017-09-17T10:32:35Z</time>
      </trkpt>
      <trkpt lat="37.987208878621459" lon="12.339686639606953">
        <ele>19.359999999999999</ele>
        <time>2017-09-17T10:32:50Z</time>
      </trkpt>
      <trkpt lat="37.987367045134306" lon="12.33971580862999">
        <ele>17.920000000000002</ele>
        <time>2017-09-17T10:33:04Z</time>
      </trkpt>
      <trkpt lat="37.987405434250832" lon="12.339755287393928">
        <ele>17.920000000000002</ele>
        <time>2017-09-17T10:33:08Z</time>
      </trkpt>
      <trkpt lat="37.987445835024118" lon="12.339794347062707">
        <ele>18.399999999999999</ele>
        <time>2017-09-17T10:33:14Z</time>
      </trkpt>
      <trkpt lat="37.987448517233133" lon="12.339845141395926">
        <ele>18.399999999999999</ele>
        <time>2017-09-17T10:33:18Z</time>
      </trkpt>
      <trkpt lat="37.987450109794736" lon="12.339929547160864">
        <ele>18.399999999999999</ele>
        <time>2017-09-17T10:33:23Z</time>
      </trkpt>
      <trkpt lat="37.987449774518609" lon="12.340028705075383">
        <ele>18.399999999999999</ele>
        <time>2017-09-17T10:33:30Z</time>
      </trkpt>
      <trkpt lat="37.987415492534637" lon="12.340196426957846">
        <ele>18.399999999999999</ele>
        <time>2017-09-17T10:33:42Z</time>
      </trkpt>
      <trkpt lat="37.987380623817444" lon="12.340379739180207">
        <ele>18.399999999999999</ele>
        <time>2017-09-17T10:33:56Z</time>
      </trkpt>
      <trkpt lat="37.98735992051661" lon="12.340552406385541">
        <ele>18.399999999999999</ele>
        <time>2017-09-17T10:34:07Z</time>
      </trkpt>
      <trkpt lat="37.987379282712936" lon="12.340743178501725">
        <ele>18.879999999999999</ele>
        <time>2017-09-17T10:34:19Z</time>
      </trkpt>
      <trkpt lat="37.98734575510025" lon="12.34089438803494">
        <ele>18.879999999999999</ele>
        <time>2017-09-17T10:34:30Z</time>
      </trkpt>
      <trkpt lat="37.987336283549666" lon="12.340918444097042">
        <ele>18.879999999999999</ele>
        <time>2017-09-17T10:34:32Z</time>
      </trkpt>
      <trkpt lat="37.98726461827755" lon="12.341103432700038">
        <ele>18.879999999999999</ele>
        <time>2017-09-17T10:34:47Z</time>
      </trkpt>
      <trkpt lat="37.987236119806767" lon="12.341225976124406">
        <ele>18.879999999999999</ele>
        <time>2017-09-17T10:34:58Z</time>
      </trkpt>
      <trkpt lat="37.987174931913614" lon="12.341363690793514">
        <ele>18.879999999999999</ele>
        <time>2017-09-17T10:35:11Z</time>
      </trkpt>
      <trkpt lat="37.987117264419794" lon="12.341547422111034">
        <ele>18.879999999999999</ele>
        <time>2017-09-17T10:35:26Z</time>
      </trkpt>
      <trkpt lat="37.987041911110282" lon="12.341731823980808">
        <ele>18.399999999999999</ele>
        <time>2017-09-17T10:35:42Z</time>
      </trkpt>
      <trkpt lat="37.987022381275892" lon="12.341792425140738">
        <ele>18.879999999999999</ele>
        <time>2017-09-17T10:35:51Z</time>
      </trkpt>
      <trkpt lat="37.9870271589607" lon="12.341786473989487">
        <ele>18.879999999999999</ele>
        <time>2017-09-17T10:36:07Z</time>
      </trkpt>
      <trkpt lat="37.987027997151017" lon="12.341795023530722">
        <ele>18.879999999999999</ele>
        <time>2017-09-17T10:36:08Z</time>
      </trkpt>
      <trkpt lat="37.986996565014124" lon="12.341872220858932">
        <ele>18.879999999999999</ele>
        <time>2017-09-17T10:36:13Z</time>
      </trkpt>
      <trkpt lat="37.986922971904278" lon="12.342097694054246">
        <ele>18.879999999999999</ele>
        <time>2017-09-17T10:36:29Z</time>
      </trkpt>
      <trkpt lat="37.986902603879571" lon="12.342247562482953">
        <ele>18.879999999999999</ele>
        <time>2017-09-17T10:36:42Z</time>
      </trkpt>
      <trkpt lat="37.986870082095265" lon="12.342263236641884">
        <ele>18.399999999999999</ele>
        <time>2017-09-17T10:36:52Z</time>
      </trkpt>
      <trkpt lat="37.986819203943014" lon="12.342234905809164">
        <ele>18.399999999999999</ele>
        <time>2017-09-17T10:37:12Z</time>
      </trkpt>
      <trkpt lat="37.986847534775734" lon="12.342289220541716">
        <ele>18.399999999999999</ele>
        <time>2017-09-17T10:37:30Z</time>
      </trkpt>
      <trkpt lat="37.986834207549691" lon="12.342323753982782">
        <ele>18.399999999999999</ele>
        <time>2017-09-17T10:37:50Z</time>
      </trkpt>
      <trkpt lat="37.986787185072899" lon="12.342284023761749">
        <ele>17.920000000000002</ele>
        <time>2017-09-17T10:38:09Z</time>
      </trkpt>
      <trkpt lat="37.986882152035832" lon="12.342173215001822">
        <ele>18.879999999999999</ele>
        <time>2017-09-17T10:38:16Z</time>
      </trkpt>
      <trkpt lat="37.986933784559369" lon="12.342219483107328">
        <ele>19.359999999999999</ele>
        <time>2017-09-17T10:38:27Z</time>
      </trkpt>
      <trkpt lat="37.986960271373391" lon="12.342296512797475">
        <ele>19.359999999999999</ele>
        <time>2017-09-17T10:38:41Z</time>
      </trkpt>
      <trkpt lat="37.986963288858533" lon="12.342489380389452">
        <ele>18.879999999999999</ele>
        <time>2017-09-17T10:38:55Z</time>
      </trkpt>
      <trkpt lat="37.986983070150018" lon="12.342647882178426">
        <ele>18.879999999999999</ele>
        <time>2017-09-17T10:39:07Z</time>
      </trkpt>
      <trkpt lat="37.986952308565378" lon="12.342820046469569">
        <ele>17.920000000000002</ele>
        <time>2017-09-17T10:39:19Z</time>
      </trkpt>
      <trkpt lat="37.986908806487918" lon="12.343051303178072">
        <ele>18.399999999999999</ele>
        <time>2017-09-17T10:39:34Z</time>
      </trkpt>
      <trkpt lat="37.986847702413797" lon="12.343241488561034">
        <ele>18.399999999999999</ele>
        <time>2017-09-17T10:39:47Z</time>
      </trkpt>
      <trkpt lat="37.986800763756037" lon="12.343465872108936">
        <ele>17.920000000000002</ele>
        <time>2017-09-17T10:40:02Z</time>
      </trkpt>
      <trkpt lat="37.986794896423817" lon="12.343721017241478">
        <ele>17.440000000000001</ele>
        <time>2017-09-17T10:40:19Z</time>
      </trkpt>
      <trkpt lat="37.986820042133331" lon="12.343813301995397">
        <ele>17.440000000000001</ele>
        <time>2017-09-17T10:40:25Z</time>
      </trkpt>
      <trkpt lat="37.986909309402108" lon="12.343934504315257">
        <ele>17.920000000000002</ele>
        <time>2017-09-17T10:40:37Z</time>
      </trkpt>
      <trkpt lat="37.987042330205441" lon="12.344014216214418">
        <ele>17.920000000000002</ele>
        <time>2017-09-17T10:40:50Z</time>
      </trkpt>
      <trkpt lat="37.987225390970707" lon="12.344050593674183">
        <ele>18.399999999999999</ele>
        <time>2017-09-17T10:41:04Z</time>
      </trkpt>
      <trkpt lat="37.987424964085221" lon="12.344104237854481">
        <ele>17.920000000000002</ele>
        <time>2017-09-17T10:41:19Z</time>
      </trkpt>
      <trkpt lat="37.987561672925949" lon="12.344211945310235">
        <ele>16.960000000000001</ele>
        <time>2017-09-17T10:41:32Z</time>
      </trkpt>
      <trkpt lat="37.987697627395391" lon="12.344307834282517">
        <ele>18.879999999999999</ele>
        <time>2017-09-17T10:41:45Z</time>
      </trkpt>
      <trkpt lat="37.987841460853815" lon="12.344329711049795">
        <ele>17.920000000000002</ele>
        <time>2017-09-17T10:41:59Z</time>
      </trkpt>
      <trkpt lat="37.98788764514029" lon="12.344340607523918">
        <ele>16.960000000000001</ele>
        <time>2017-09-17T10:42:03Z</time>
      </trkpt>
      <trkpt lat="37.988077579066157" lon="12.344346307218075">
        <ele>18.879999999999999</ele>
        <time>2017-09-17T10:42:18Z</time>
      </trkpt>
      <trkpt lat="37.988249827176332" lon="12.344385031610727">
        <ele>18.879999999999999</ele>
        <time>2017-09-17T10:42:32Z</time>
      </trkpt>
      <trkpt lat="37.988464571535587" lon="12.344396095722914">
        <ele>18.879999999999999</ele>
        <time>2017-09-17T10:42:49Z</time>
      </trkpt>
      <trkpt lat="37.988654170185328" lon="12.344401376321912">
        <ele>18.399999999999999</ele>
        <time>2017-09-17T10:43:04Z</time>
      </trkpt>
      <trkpt lat="37.988806804642081" lon="12.344436412677169">
        <ele>18.399999999999999</ele>
        <time>2017-09-17T10:43:17Z</time>
      </trkpt>
      <trkpt lat="37.988967150449753" lon="12.344522243365645">
        <ele>18.879999999999999</ele>
        <time>2017-09-17T10:43:31Z</time>
      </trkpt>
      <trkpt lat="37.989112660288811" lon="12.344548646360636">
        <ele>18.879999999999999</ele>
        <time>2017-09-17T10:43:43Z</time>
      </trkpt>
      <trkpt lat="37.98914534971118" lon="12.344576558098197">
        <ele>19.359999999999999</ele>
        <time>2017-09-17T10:43:52Z</time>
      </trkpt>
      <trkpt lat="37.989185331389308" lon="12.344570020213723">
        <ele>18.879999999999999</ele>
        <time>2017-09-17T10:43:57Z</time>
      </trkpt>
      <trkpt lat="37.989321034401655" lon="12.344576306641102">
        <ele>18.879999999999999</ele>
        <time>2017-09-17T10:44:08Z</time>
      </trkpt>
      <trkpt lat="37.989500407129526" lon="12.34462165273726">
        <ele>19.359999999999999</ele>
        <time>2017-09-17T10:44:23Z</time>
      </trkpt>
      <trkpt lat="37.989655556157231" lon="12.344668004661798">
        <ele>19.84</ele>
        <time>2017-09-17T10:44:36Z</time>
      </trkpt>
      <trkpt lat="37.989778351038694" lon="12.344774957746267">
        <ele>19.84</ele>
        <time>2017-09-17T10:44:48Z</time>
      </trkpt>
      <trkpt lat="37.989868288859725" lon="12.344935052096844">
        <ele>18.399999999999999</ele>
        <time>2017-09-17T10:45:00Z</time>
      </trkpt>
      <trkpt lat="37.989888740703464" lon="12.345188604667783">
        <ele>17.920000000000002</ele>
        <time>2017-09-17T10:45:16Z</time>
      </trkpt>
      <trkpt lat="37.989881113171577" lon="12.345271082594991">
        <ele>17.920000000000002</ele>
        <time>2017-09-17T10:45:22Z</time>
      </trkpt>
      <trkpt lat="37.989877257496119" lon="12.345328917726874">
        <ele>17.920000000000002</ele>
        <time>2017-09-17T10:45:26Z</time>
      </trkpt>
      <trkpt lat="37.989834928885102" lon="12.34555983915925">
        <ele>17.440000000000001</ele>
        <time>2017-09-17T10:45:41Z</time>
      </trkpt>
      <trkpt lat="37.989772902801633" lon="12.34577726572752">
        <ele>17.920000000000002</ele>
        <time>2017-09-17T10:45:56Z</time>
      </trkpt>
      <trkpt lat="37.989710373803973" lon="12.345961667597294">
        <ele>17.920000000000002</ele>
        <time>2017-09-17T10:46:09Z</time>
      </trkpt>
      <trkpt lat="37.989656897261739" lon="12.346143387258053">
        <ele>17.920000000000002</ele>
        <time>2017-09-17T10:46:22Z</time>
      </trkpt>
      <trkpt lat="37.989593530073762" lon="12.346369447186589">
        <ele>17.920000000000002</ele>
        <time>2017-09-17T10:46:38Z</time>
      </trkpt>
      <trkpt lat="37.98956117592752" lon="12.346522249281406">
        <ele>18.399999999999999</ele>
        <time>2017-09-17T10:46:49Z</time>
      </trkpt>
      <trkpt lat="37.989514404907823" lon="12.346683768555522">
        <ele>18.399999999999999</ele>
        <time>2017-09-17T10:47:01Z</time>
      </trkpt>
      <trkpt lat="37.989444080740213" lon="12.346853334456682">
        <ele>18.399999999999999</ele>
        <time>2017-09-17T10:47:14Z</time>
      </trkpt>
      <trkpt lat="37.989365039393306" lon="12.347017955034971">
        <ele>18.399999999999999</ele>
        <time>2017-09-17T10:47:27Z</time>
      </trkpt>
      <trkpt lat="37.989291194826365" lon="12.347176121547818">
        <ele>18.879999999999999</ele>
        <time>2017-09-17T10:47:39Z</time>
      </trkpt>
      <trkpt lat="37.989257164299488" lon="12.347314255312085">
        <ele>21.289999999999999</ele>
        <time>2017-09-17T10:47:51Z</time>
      </trkpt>
      <trkpt lat="37.989244591444731" lon="12.34737410210073">
        <ele>21.77</ele>
        <time>2017-09-17T10:47:56Z</time>
      </trkpt>
      <trkpt lat="37.989184493198991" lon="12.347538555040956">
        <ele>22.73</ele>
        <time>2017-09-17T10:48:09Z</time>
      </trkpt>
      <trkpt lat="37.989150043576956" lon="12.347743744030595">
        <ele>22.73</ele>
        <time>2017-09-17T10:48:24Z</time>
      </trkpt>
      <trkpt lat="37.989125484600663" lon="12.347943233326077">
        <ele>24.170000000000002</ele>
        <time>2017-09-17T10:48:38Z</time>
      </trkpt>
      <trkpt lat="37.989077623933554" lon="12.348107937723398">
        <ele>24.170000000000002</ele>
        <time>2017-09-17T10:48:50Z</time>
      </trkpt>
      <trkpt lat="37.989021213725209" lon="12.348219333216548">
        <ele>22.25</ele>
        <time>2017-09-17T10:49:01Z</time>
      </trkpt>
      <trkpt lat="37.989007635042071" lon="12.348267193883657">
        <ele>21.77</ele>
        <time>2017-09-17T10:49:05Z</time>
      </trkpt>
      <trkpt lat="37.988974945619702" lon="12.348446901887655">
        <ele>22.25</ele>
        <time>2017-09-17T10:49:19Z</time>
      </trkpt>
      <trkpt lat="37.988934125751257" lon="12.348529966548085">
        <ele>22.73</ele>
        <time>2017-09-17T10:49:27Z</time>
      </trkpt>
      <trkpt lat="37.988871512934566" lon="12.348707830533385">
        <ele>22.73</ele>
        <time>2017-09-17T10:49:41Z</time>
      </trkpt>
      <trkpt lat="37.98882532864809" lon="12.348819142207503">
        <ele>22.25</ele>
        <time>2017-09-17T10:49:52Z</time>
      </trkpt>
      <trkpt lat="37.988760201260448" lon="12.348953085020185">
        <ele>22.25</ele>
        <time>2017-09-17T10:50:04Z</time>
      </trkpt>
      <trkpt lat="37.988736145198345" lon="12.349082585424185">
        <ele>23.690000000000001</ele>
        <time>2017-09-17T10:50:16Z</time>
      </trkpt>
      <trkpt lat="37.98872952349484" lon="12.349138744175434">
        <ele>23.690000000000001</ele>
        <time>2017-09-17T10:50:22Z</time>
      </trkpt>
      <trkpt lat="37.988747796043754" lon="12.349228514358401">
        <ele>25.129999999999999</ele>
        <time>2017-09-17T10:50:34Z</time>
      </trkpt>
      <trkpt lat="37.988752573728561" lon="12.349265394732356">
        <ele>25.609999999999999</ele>
        <time>2017-09-17T10:50:37Z</time>
      </trkpt>
      <trkpt lat="37.988742515444756" lon="12.349432613700628">
        <ele>26.09</ele>
        <time>2017-09-17T10:50:50Z</time>
      </trkpt>
      <trkpt lat="37.988757267594337" lon="12.349570328369737">
        <ele>27.050000000000001</ele>
        <time>2017-09-17T10:51:02Z</time>
      </trkpt>
      <trkpt lat="37.988750981166959" lon="12.34959689900279">
        <ele>26.57</ele>
        <time>2017-09-17T10:51:04Z</time>
      </trkpt>
      <trkpt lat="37.988753747195005" lon="12.349778451025486">
        <ele>26.57</ele>
        <time>2017-09-17T10:51:17Z</time>
      </trkpt>
      <trkpt lat="37.988803870975971" lon="12.349910046905279">
        <ele>26.09</ele>
        <time>2017-09-17T10:51:28Z</time>
      </trkpt>
      <trkpt lat="37.988876793533564" lon="12.350028734654188">
        <ele>26.57</ele>
        <time>2017-09-17T10:51:39Z</time>
      </trkpt>
      <trkpt lat="37.988947536796331" lon="12.350096795707941">
        <ele>27.530000000000001</ele>
        <time>2017-09-17T10:51:50Z</time>
      </trkpt>
      <trkpt lat="37.988987937569618" lon="12.350139291957021">
        <ele>28.5</ele>
        <time>2017-09-17T10:51:58Z</time>
      </trkpt>
      <trkpt lat="37.989071253687143" lon="12.350256638601422">
        <ele>28.02</ele>
        <time>2017-09-17T10:52:11Z</time>
      </trkpt>
      <trkpt lat="37.989094723016024" lon="12.350279437378049">
        <ele>27.530000000000001</ele>
        <time>2017-09-17T10:52:14Z</time>
      </trkpt>
      <trkpt lat="37.98912774771452" lon="12.350366106256843">
        <ele>27.530000000000001</ele>
        <time>2017-09-17T10:52:22Z</time>
      </trkpt>
      <trkpt lat="37.989200502634048" lon="12.350405585020781">
        <ele>27.050000000000001</ele>
        <time>2017-09-17T10:52:29Z</time>
      </trkpt>
      <trkpt lat="37.989319609478116" lon="12.350474484264851">
        <ele>26.57</ele>
        <time>2017-09-17T10:52:42Z</time>
      </trkpt>
      <trkpt lat="37.989347353577614" lon="12.350488733500242">
        <ele>26.57</ele>
        <time>2017-09-17T10:52:45Z</time>
      </trkpt>
      <trkpt lat="37.989481631666422" lon="12.350523686036468">
        <ele>26.09</ele>
        <time>2017-09-17T10:52:57Z</time>
      </trkpt>
      <trkpt lat="37.989579448476434" lon="12.350552855059505">
        <ele>24.170000000000002</ele>
        <time>2017-09-17T10:53:09Z</time>
      </trkpt>
      <trkpt lat="37.989589842036366" lon="12.350555118173361">
        <ele>24.170000000000002</ele>
        <time>2017-09-17T10:53:10Z</time>
      </trkpt>
      <trkpt lat="37.989734010770917" lon="12.350572468712926">
        <ele>23.210000000000001</ele>
        <time>2017-09-17T10:53:23Z</time>
      </trkpt>
      <trkpt lat="37.98982160165906" lon="12.350614629685879">
        <ele>22.25</ele>
        <time>2017-09-17T10:53:35Z</time>
      </trkpt>
      <trkpt lat="37.989904582500458" lon="12.350678667426109">
        <ele>20.809999999999999</ele>
        <time>2017-09-17T10:53:46Z</time>
      </trkpt>
      <trkpt lat="37.989987898617983" lon="12.350736586377025">
        <ele>19.84</ele>
        <time>2017-09-17T10:53:58Z</time>
      </trkpt>
      <trkpt lat="37.990079345181584" lon="12.350794840604067">
        <ele>19.84</ele>
        <time>2017-09-17T10:54:10Z</time>
      </trkpt>
      <trkpt lat="37.990075489506125" lon="12.350839683786035">
        <ele>19.359999999999999</ele>
        <time>2017-09-17T10:54:17Z</time>
      </trkpt>
      <trkpt lat="37.990159392356873" lon="12.350846137851477">
        <ele>17.920000000000002</ele>
        <time>2017-09-17T10:54:27Z</time>
      </trkpt>
      <trkpt lat="37.990197110921144" lon="12.350829290226102">
        <ele>17.920000000000002</ele>
        <time>2017-09-17T10:54:32Z</time>
      </trkpt>
      <trkpt lat="37.990324851125479" lon="12.350827027112246">
        <ele>18.399999999999999</ele>
        <time>2017-09-17T10:54:45Z</time>
      </trkpt>
      <trkpt lat="37.990444963797927" lon="12.350842617452145">
        <ele>18.399999999999999</ele>
        <time>2017-09-17T10:54:56Z</time>
      </trkpt>
      <trkpt lat="37.990467846393585" lon="12.350845048204064">
        <ele>17.920000000000002</ele>
        <time>2017-09-17T10:55:03Z</time>
      </trkpt>
      <trkpt lat="37.990506989881396" lon="12.350849658250809">
        <ele>17.440000000000001</ele>
        <time>2017-09-17T10:55:08Z</time>
      </trkpt>
      <trkpt lat="37.990673203021288" lon="12.350893327966332">
        <ele>16.48</ele>
        <time>2017-09-17T10:55:22Z</time>
      </trkpt>
      <trkpt lat="37.990835728123784" lon="12.350931549444795">
        <ele>16.48</ele>
        <time>2017-09-17T10:55:36Z</time>
      </trkpt>
      <trkpt lat="37.99094351939857" lon="12.350913528352976">
        <ele>16.960000000000001</ele>
        <time>2017-09-17T10:55:47Z</time>
      </trkpt>
      <trkpt lat="37.990956427529454" lon="12.350910929962993">
        <ele>16.48</ele>
        <time>2017-09-17T10:55:48Z</time>
      </trkpt>
      <trkpt lat="37.99098308198154" lon="12.350901877507567">
        <ele>17.920000000000002</ele>
        <time>2017-09-17T10:55:50Z</time>
      </trkpt>
      <trkpt lat="37.991101182997227" lon="12.350853513926268">
        <ele>17.440000000000001</ele>
        <time>2017-09-17T10:56:02Z</time>
      </trkpt>
      <trkpt lat="37.991153318434954" lon="12.350812191143632">
        <ele>17.440000000000001</ele>
        <time>2017-09-17T10:56:10Z</time>
      </trkpt>
      <trkpt lat="37.991224061697721" lon="12.350742956623435">
        <ele>16.960000000000001</ele>
        <time>2017-09-17T10:56:20Z</time>
      </trkpt>
      <trkpt lat="37.991259098052979" lon="12.350727114826441">
        <ele>16.960000000000001</ele>
        <time>2017-09-17T10:56:24Z</time>
      </trkpt>
      <trkpt lat="37.991310227662325" lon="12.350706243887544">
        <ele>16.960000000000001</ele>
        <time>2017-09-17T10:56:30Z</time>
      </trkpt>
      <trkpt lat="37.991359680891037" lon="12.350678667426109">
        <ele>16</ele>
        <time>2017-09-17T10:56:35Z</time>
      </trkpt>
      <trkpt lat="37.991453222930431" lon="12.350624185055494">
        <ele>17.920000000000002</ele>
        <time>2017-09-17T10:56:47Z</time>
      </trkpt>
      <trkpt lat="37.991535449400544" lon="12.350624771788716">
        <ele>17.440000000000001</ele>
        <time>2017-09-17T10:56:58Z</time>
      </trkpt>
      <trkpt lat="37.991558331996202" lon="12.350640697404742">
        <ele>16.960000000000001</ele>
        <time>2017-09-17T10:57:02Z</time>
      </trkpt>
      <trkpt lat="37.991639887914062" lon="12.350637260824442">
        <ele>16</ele>
        <time>2017-09-17T10:57:14Z</time>
      </trkpt>
      <trkpt lat="37.991653466597199" lon="12.350634410977364">
        <ele>15.52</ele>
        <time>2017-09-17T10:57:16Z</time>
      </trkpt>
      <trkpt lat="37.991729490458965" lon="12.350567942485213">
        <ele>15.52</ele>
        <time>2017-09-17T10:57:25Z</time>
      </trkpt>
      <trkpt lat="37.991817332804203" lon="12.350512873381376">
        <ele>16.48</ele>
        <time>2017-09-17T10:57:36Z</time>
      </trkpt>
      <trkpt lat="37.991847926750779" lon="12.350464593619108">
        <ele>17.440000000000001</ele>
        <time>2017-09-17T10:57:45Z</time>
      </trkpt>
      <trkpt lat="37.99181280657649" lon="12.35045881010592">
        <ele>17.920000000000002</ele>
        <time>2017-09-17T10:57:55Z</time>
      </trkpt>
      <trkpt lat="37.991794450208545" lon="12.350405249744654">
        <ele>19.84</ele>
        <time>2017-09-17T10:58:06Z</time>
      </trkpt>
      <trkpt lat="37.991852117702365" lon="12.350375577807426">
        <ele>18.879999999999999</ele>
        <time>2017-09-17T10:58:17Z</time>
      </trkpt>
      <trkpt lat="37.99192369915545" lon="12.350350515916944">
        <ele>17.920000000000002</ele>
        <time>2017-09-17T10:58:27Z</time>
      </trkpt>
      <trkpt lat="37.992055378854275" lon="12.350240126252174">
        <ele>18.399999999999999</ele>
        <time>2017-09-17T10:58:40Z</time>
      </trkpt>
      <trkpt lat="37.992166355252266" lon="12.350173993036151">
        <ele>17.440000000000001</ele>
        <time>2017-09-17T10:58:51Z</time>
      </trkpt>
      <trkpt lat="37.992203151807189" lon="12.350168041884899">
        <ele>16.960000000000001</ele>
        <time>2017-09-17T10:58:54Z</time>
      </trkpt>
      <trkpt lat="37.992263333871961" lon="12.35014708712697">
        <ele>16.48</ele>
        <time>2017-09-17T10:58:59Z</time>
      </trkpt>
      <trkpt lat="37.992416638880968" lon="12.350098052993417">
        <ele>16.48</ele>
        <time>2017-09-17T10:59:12Z</time>
      </trkpt>
      <trkpt lat="37.992544295266271" lon="12.350081289187074">
        <ele>16.960000000000001</ele>
        <time>2017-09-17T10:59:24Z</time>
      </trkpt>
      <trkpt lat="37.992613445967436" lon="12.350086066871881">
        <ele>16.48</ele>
        <time>2017-09-17T10:59:31Z</time>
      </trkpt>
      <trkpt lat="37.992740850895643" lon="12.350055808201432">
        <ele>16.48</ele>
        <time>2017-09-17T10:59:45Z</time>
      </trkpt>
      <trkpt lat="37.992842271924019" lon="12.350016580894589">
        <ele>16.960000000000001</ele>
        <time>2017-09-17T10:59:57Z</time>
      </trkpt>
      <trkpt lat="37.992959786206484" lon="12.34994382597506">
        <ele>18.399999999999999</ele>
        <time>2017-09-17T11:00:13Z</time>
      </trkpt>
      <trkpt lat="37.993012592196465" lon="12.349945837631822">
        <ele>18.879999999999999</ele>
        <time>2017-09-17T11:00:27Z</time>
      </trkpt>
      <trkpt lat="37.993086520582438" lon="12.349972072988749">
        <ele>19.359999999999999</ele>
        <time>2017-09-17T11:00:37Z</time>
      </trkpt>
      <trkpt lat="37.993063554167747" lon="12.349991854280233">
        <ele>18.879999999999999</ele>
        <time>2017-09-17T11:00:49Z</time>
      </trkpt>
      <trkpt lat="37.993074534460902" lon="12.350018844008446">
        <ele>18.879999999999999</ele>
        <time>2017-09-17T11:00:57Z</time>
      </trkpt>
      <trkpt lat="37.993059027940035" lon="12.349993698298931">
        <ele>18.399999999999999</ele>
        <time>2017-09-17T11:01:06Z</time>
      </trkpt>
      <trkpt lat="37.99309590831399" lon="12.349956231191754">
        <ele>18.399999999999999</ele>
        <time>2017-09-17T11:01:27Z</time>
      </trkpt>
      <trkpt lat="37.993104038760066" lon="12.349963523447514">
        <ele>18.399999999999999</ele>
        <time>2017-09-17T11:01:46Z</time>
      </trkpt>
      <trkpt lat="37.993085263296962" lon="12.34993938356638">
        <ele>17.920000000000002</ele>
        <time>2017-09-17T11:02:08Z</time>
      </trkpt>
      <trkpt lat="37.993079731240869" lon="12.349980538710952">
        <ele>18.879999999999999</ele>
        <time>2017-09-17T11:02:21Z</time>
      </trkpt>
      <trkpt lat="37.993058692663908" lon="12.350034853443503">
        <ele>17.440000000000001</ele>
        <time>2017-09-17T11:02:29Z</time>
      </trkpt>
      <trkpt lat="37.992971772328019" lon="12.350163096562028">
        <ele>15.52</ele>
        <time>2017-09-17T11:02:42Z</time>
      </trkpt>
      <trkpt lat="37.992956936359406" lon="12.350190337747335">
        <ele>14.08</ele>
        <time>2017-09-17T11:02:45Z</time>
      </trkpt>
      <trkpt lat="37.992926007136703" lon="12.350234258919954">
        <ele>12.15</ele>
        <time>2017-09-17T11:02:54Z</time>
      </trkpt>
      <trkpt lat="37.992885606363416" lon="12.350294860079885">
        <ele>10.23</ele>
        <time>2017-09-17T11:03:04Z</time>
      </trkpt>
      <trkpt lat="37.992881331592798" lon="12.35030148178339">
        <ele>10.23</ele>
        <time>2017-09-17T11:03:17Z</time>
      </trkpt>
      <trkpt lat="37.992858700454235" lon="12.350349593907595">
        <ele>9.75</ele>
        <time>2017-09-17T11:03:28Z</time>
      </trkpt>
      <trkpt lat="37.992833470925689" lon="12.350369710475206">
        <ele>8.789999999999999</ele>
        <time>2017-09-17T11:03:42Z</time>
      </trkpt>
      <trkpt lat="37.992849983274937" lon="12.350377254188061">
        <ele>9.27</ele>
        <time>2017-09-17T11:03:50Z</time>
      </trkpt>
      <trkpt lat="37.992855347692966" lon="12.350350096821785">
        <ele>9.75</ele>
        <time>2017-09-17T11:03:56Z</time>
      </trkpt>
      <trkpt lat="37.99287655390799" lon="12.350310198962688">
        <ele>9.27</ele>
        <time>2017-09-17T11:04:08Z</time>
      </trkpt>
      <trkpt lat="37.992877811193466" lon="12.350319586694241">
        <ele>9.75</ele>
        <time>2017-09-17T11:04:32Z</time>
      </trkpt>
      <trkpt lat="37.992870435118675" lon="12.350312881171703">
        <ele>9.27</ele>
        <time>2017-09-17T11:04:57Z</time>
      </trkpt>
      <trkpt lat="37.992883175611496" lon="12.350305924192071">
        <ele>9.75</ele>
        <time>2017-09-17T11:05:27Z</time>
      </trkpt>
      <trkpt lat="37.992868172004819" lon="12.350295698270202">
        <ele>9.75</ele>
        <time>2017-09-17T11:05:44Z</time>
      </trkpt>
      <trkpt lat="37.992852833122015" lon="12.350322771817446">
        <ele>10.23</ele>
        <time>2017-09-17T11:06:02Z</time>
      </trkpt>
      <trkpt lat="37.992855850607157" lon="12.350311204791069">
        <ele>9.75</ele>
        <time>2017-09-17T11:06:23Z</time>
      </trkpt>
      <trkpt lat="37.992858365178108" lon="12.350318161770701">
        <ele>10.710000000000001</ele>
        <time>2017-09-17T11:06:41Z</time>
      </trkpt>
      <trkpt lat="37.99287655390799" lon="12.350321598351002">
        <ele>9.75</ele>
        <time>2017-09-17T11:06:53Z</time>
      </trkpt>
      <trkpt lat="37.992864903062582" lon="12.350322436541319">
        <ele>10.23</ele>
        <time>2017-09-17T11:07:12Z</time>
      </trkpt>
      <trkpt lat="37.992854760959744" lon="12.350314976647496">
        <ele>10.710000000000001</ele>
        <time>2017-09-17T11:07:37Z</time>
      </trkpt>
      <trkpt lat="37.992851240560412" lon="12.350305253639817">
        <ele>10.23</ele>
        <time>2017-09-17T11:07:58Z</time>
      </trkpt>
      <trkpt lat="37.992861047387123" lon="12.350310869514942">
        <ele>10.23</ele>
        <time>2017-09-17T11:08:31Z</time>
      </trkpt>
      <trkpt lat="37.992859622463584" lon="12.350307097658515">
        <ele>10.710000000000001</ele>
        <time>2017-09-17T11:09:00Z</time>
      </trkpt>
      <trkpt lat="37.992863478139043" lon="12.350335009396076">
        <ele>10.710000000000001</ele>
        <time>2017-09-17T11:09:36Z</time>
      </trkpt>
      <trkpt lat="37.992882756516337" lon="12.350316317752004">
        <ele>10.710000000000001</ele>
        <time>2017-09-17T11:10:11Z</time>
      </trkpt>
      <trkpt lat="37.992881247773767" lon="12.35027901828289">
        <ele>10.23</ele>
        <time>2017-09-17T11:10:44Z</time>
      </trkpt>
      <trkpt lat="37.992871105670929" lon="12.350274240598083">
        <ele>10.23</ele>
        <time>2017-09-17T11:11:15Z</time>
      </trkpt>
      <trkpt lat="37.992873033508658" lon="12.350303074344993">
        <ele>10.23</ele>
        <time>2017-09-17T11:11:51Z</time>
      </trkpt>
      <trkpt lat="37.992904633283615" lon="12.350284047424793">
        <ele>9.75</ele>
        <time>2017-09-17T11:12:27Z</time>
      </trkpt>
      <trkpt lat="37.992898263037205" lon="12.350302152335644">
        <ele>9.27</ele>
        <time>2017-09-17T11:12:53Z</time>
      </trkpt>
      <trkpt lat="37.99287068657577" lon="12.35031908378005">
        <ele>9.75</ele>
        <time>2017-09-17T11:13:36Z</time>
      </trkpt>
      <trkpt lat="37.992876721546054" lon="12.350325621664524">
        <ele>9.27</ele>
        <time>2017-09-17T11:14:11Z</time>
      </trkpt>
      <trkpt lat="37.99286968074739" lon="12.350318413227797">
        <ele>9.27</ele>
        <time>2017-09-17T11:14:49Z</time>
      </trkpt>
      <trkpt lat="37.992878230288625" lon="12.350314138457179">
        <ele>9.27</ele>
        <time>2017-09-17T11:15:26Z</time>
      </trkpt>
      <trkpt lat="37.992877895012498" lon="12.35030927695334">
        <ele>9.75</ele>
        <time>2017-09-17T11:16:01Z</time>
      </trkpt>
      <trkpt lat="37.992876218631864" lon="12.350308187305927">
        <ele>9.27</ele>
        <time>2017-09-17T11:16:40Z</time>
      </trkpt>
      <trkpt lat="37.992877727374434" lon="12.350312294438481">
        <ele>9.27</ele>
        <time>2017-09-17T11:17:20Z</time>
      </trkpt>
      <trkpt lat="37.992902118712664" lon="12.350316736847162">
        <ele>9.27</ele>
        <time>2017-09-17T11:17:57Z</time>
      </trkpt>
      <trkpt lat="37.992884935811162" lon="12.350329142063856">
        <ele>9.75</ele>
        <time>2017-09-17T11:18:31Z</time>
      </trkpt>
      <trkpt lat="37.992875296622515" lon="12.350307516753674">
        <ele>9.27</ele>
        <time>2017-09-17T11:19:09Z</time>
      </trkpt>
      <trkpt lat="37.992874626070261" lon="12.350305253639817">
        <ele>9.27</ele>
        <time>2017-09-17T11:19:48Z</time>
      </trkpt>
      <trkpt lat="37.99287362024188" lon="12.350331488996744">
        <ele>8.789999999999999</ele>
        <time>2017-09-17T11:20:19Z</time>
      </trkpt>
      <trkpt lat="37.992854760959744" lon="12.350325705483556">
        <ele>9.27</ele>
        <time>2017-09-17T11:20:56Z</time>
      </trkpt>
      <trkpt lat="37.992865657433867" lon="12.350329142063856">
        <ele>8.789999999999999</ele>
        <time>2017-09-17T11:21:30Z</time>
      </trkpt>
      <trkpt lat="37.992859371006489" lon="12.350334422662854">
        <ele>8.789999999999999</ele>
        <time>2017-09-17T11:22:02Z</time>
      </trkpt>
      <trkpt lat="37.992880409583449" lon="12.350319502875209">
        <ele>8.789999999999999</ele>
        <time>2017-09-17T11:22:39Z</time>
      </trkpt>
      <trkpt lat="37.992878230288625" lon="12.350295195356011">
        <ele>8.789999999999999</ele>
        <time>2017-09-17T11:23:10Z</time>
      </trkpt>
      <trkpt lat="37.992880828678608" lon="12.350320508703589">
        <ele>8.310000000000001</ele>
        <time>2017-09-17T11:23:50Z</time>
      </trkpt>
      <trkpt lat="37.992871608585119" lon="12.350323274731636">
        <ele>8.789999999999999</ele>
        <time>2017-09-17T11:24:28Z</time>
      </trkpt>
      <trkpt lat="37.992873704060912" lon="12.350328136235476">
        <ele>8.310000000000001</ele>
        <time>2017-09-17T11:24:59Z</time>
      </trkpt>
      <trkpt lat="37.992885857820511" lon="12.350306091830134">
        <ele>8.310000000000001</ele>
        <time>2017-09-17T11:25:35Z</time>
      </trkpt>
      <trkpt lat="37.992880158126354" lon="12.350329393520951">
        <ele>8.310000000000001</ele>
        <time>2017-09-17T11:26:09Z</time>
      </trkpt>
      <trkpt lat="37.992865825071931" lon="12.350350599735975">
        <ele>7.83</ele>
        <time>2017-09-17T11:26:44Z</time>
      </trkpt>
      <trkpt lat="37.992868172004819" lon="12.350337021052837">
        <ele>7.83</ele>
        <time>2017-09-17T11:27:18Z</time>
      </trkpt>
      <trkpt lat="37.992865825071931" lon="12.350335093215108">
        <ele>7.83</ele>
        <time>2017-09-17T11:27:50Z</time>
      </trkpt>
      <trkpt lat="37.992879236117005" lon="12.35031908378005">
        <ele>7.83</ele>
        <time>2017-09-17T11:28:26Z</time>
      </trkpt>
      <trkpt lat="37.992872865870595" lon="12.350325789302588">
        <ele>7.83</ele>
        <time>2017-09-17T11:28:59Z</time>
      </trkpt>
      <trkpt lat="37.992887198925018" lon="12.350328136235476">
        <ele>7.83</ele>
        <time>2017-09-17T11:29:32Z</time>
      </trkpt>
      <trkpt lat="37.992904465645552" lon="12.350320341065526">
        <ele>7.83</ele>
        <time>2017-09-17T11:30:04Z</time>
      </trkpt>
      <trkpt lat="37.992867082357407" lon="12.350348755717278">
        <ele>7.83</ele>
        <time>2017-09-17T11:30:43Z</time>
      </trkpt>
      <trkpt lat="37.99284378066659" lon="12.350369794294238">
        <ele>7.83</ele>
        <time>2017-09-17T11:31:17Z</time>
      </trkpt>
      <trkpt lat="37.99284721724689" lon="12.350363424047828">
        <ele>8.310000000000001</ele>
        <time>2017-09-17T11:31:51Z</time>
      </trkpt>
      <trkpt lat="37.992860376834869" lon="12.350351186469197">
        <ele>8.310000000000001</ele>
        <time>2017-09-17T11:32:30Z</time>
      </trkpt>
      <trkpt lat="37.992859790101647" lon="12.35034498386085">
        <ele>7.83</ele>
        <time>2017-09-17T11:33:03Z</time>
      </trkpt>
      <trkpt lat="37.992861801758409" lon="12.350331237539649">
        <ele>8.310000000000001</ele>
        <time>2017-09-17T11:33:37Z</time>
      </trkpt>
      <trkpt lat="37.992866411805153" lon="12.3503078520298">
        <ele>7.35</ele>
        <time>2017-09-17T11:34:12Z</time>
      </trkpt>
      <trkpt lat="37.992845959961414" lon="12.35033274628222">
        <ele>7.83</ele>
        <time>2017-09-17T11:34:48Z</time>
      </trkpt>
      <trkpt lat="37.992861969396472" lon="12.350328471511602">
        <ele>7.83</ele>
        <time>2017-09-17T11:35:16Z</time>
      </trkpt>
      <trkpt lat="37.992857694625854" lon="12.35031221061945">
        <ele>7.83</ele>
        <time>2017-09-17T11:35:45Z</time>
      </trkpt>
      <trkpt lat="37.992865322157741" lon="12.350332662463188">
        <ele>7.83</ele>
        <time>2017-09-17T11:36:11Z</time>
      </trkpt>
      <trkpt lat="37.992839924991131" lon="12.350317407399416">
        <ele>7.35</ele>
        <time>2017-09-17T11:36:36Z</time>
      </trkpt>
      <trkpt lat="37.992860041558743" lon="12.35033567994833">
        <ele>7.35</ele>
        <time>2017-09-17T11:37:07Z</time>
      </trkpt>
      <trkpt lat="37.99286968074739" lon="12.350311037153006">
        <ele>7.35</ele>
        <time>2017-09-17T11:37:23Z</time>
      </trkpt>
      <trkpt lat="37.992871860042214" lon="12.350310618057847">
        <ele>7.35</ele>
        <time>2017-09-17T11:37:41Z</time>
      </trkpt>
      <trkpt lat="37.992868842557073" lon="12.350349593907595">
        <ele>7.35</ele>
        <time>2017-09-17T11:38:09Z</time>
      </trkpt>
      <trkpt lat="37.992865070700645" lon="12.350332913920283">
        <ele>7.83</ele>
        <time>2017-09-17T11:38:36Z</time>
      </trkpt>
      <trkpt lat="37.99286724999547" lon="12.350351521745324">
        <ele>7.35</ele>
        <time>2017-09-17T11:39:01Z</time>
      </trkpt>
      <trkpt lat="37.992871273308992" lon="12.350339032709599">
        <ele>7.35</ele>
        <time>2017-09-17T11:39:24Z</time>
      </trkpt>
      <trkpt lat="37.992890803143382" lon="12.350317407399416">
        <ele>7.83</ele>
        <time>2017-09-17T11:39:59Z</time>
      </trkpt>
      <trkpt lat="37.992895497009158" lon="12.350328974425793">
        <ele>7.35</ele>
        <time>2017-09-17T11:40:31Z</time>
      </trkpt>
      <trkpt lat="37.992904046550393" lon="12.350330483168364">
        <ele>7.35</ele>
        <time>2017-09-17T11:40:57Z</time>
      </trkpt>
      <trkpt lat="37.992887198925018" lon="12.350322352722287">
        <ele>7.35</ele>
        <time>2017-09-17T11:41:26Z</time>
      </trkpt>
      <trkpt lat="37.992880661040545" lon="12.350313970819116">
        <ele>7.35</ele>
        <time>2017-09-17T11:41:57Z</time>
      </trkpt>
      <trkpt lat="37.992897341027856" lon="12.350339367985725">
        <ele>7.83</ele>
        <time>2017-09-17T11:42:28Z</time>
      </trkpt>
      <trkpt lat="37.992893904447556" lon="12.350336015224457">
        <ele>7.35</ele>
        <time>2017-09-17T11:42:53Z</time>
      </trkpt>
      <trkpt lat="37.992881080135703" lon="12.350326124578714">
        <ele>7.83</ele>
        <time>2017-09-17T11:43:13Z</time>
      </trkpt>
      <trkpt lat="37.992893736809492" lon="12.350336518138647">
        <ele>7.83</ele>
        <time>2017-09-17T11:43:44Z</time>
      </trkpt>
      <trkpt lat="37.992873787879944" lon="12.350324699655175">
        <ele>7.83</ele>
        <time>2017-09-17T11:44:12Z</time>
      </trkpt>
      <trkpt lat="37.992875296622515" lon="12.350320927798748">
        <ele>8.310000000000001</ele>
        <time>2017-09-17T11:44:37Z</time>
      </trkpt>
      <trkpt lat="37.99291024915874" lon="12.350325286388397">
        <ele>8.310000000000001</ele>
        <time>2017-09-17T11:45:12Z</time>
      </trkpt>
      <trkpt lat="37.992900274693966" lon="12.350294943898916">
        <ele>7.83</ele>
        <time>2017-09-17T11:45:42Z</time>
      </trkpt>
      <trkpt lat="37.992903040722013" lon="12.350302068516612">
        <ele>7.83</ele>
        <time>2017-09-17T11:46:11Z</time>
      </trkpt>
      <trkpt lat="37.992887031286955" lon="12.350298380479217">
        <ele>7.83</ele>
        <time>2017-09-17T11:46:44Z</time>
      </trkpt>
      <trkpt lat="37.992893736809492" lon="12.350275665521622">
        <ele>7.83</ele>
        <time>2017-09-17T11:47:13Z</time>
      </trkpt>
      <trkpt lat="37.992886193096638" lon="12.350286561995745">
        <ele>8.310000000000001</ele>
        <time>2017-09-17T11:47:47Z</time>
      </trkpt>
      <trkpt lat="37.992889126762748" lon="12.350303158164024">
        <ele>8.310000000000001</ele>
        <time>2017-09-17T11:48:20Z</time>
      </trkpt>
      <trkpt lat="37.992892898619175" lon="12.350303577259183">
        <ele>8.310000000000001</ele>
        <time>2017-09-17T11:48:47Z</time>
      </trkpt>
      <trkpt lat="37.992903124541044" lon="12.350328136235476">
        <ele>8.789999999999999</ele>
        <time>2017-09-17T11:49:21Z</time>
      </trkpt>
      <trkpt lat="37.992879571393132" lon="12.350286897271872">
        <ele>8.310000000000001</ele>
        <time>2017-09-17T11:49:50Z</time>
      </trkpt>
      <trkpt lat="37.99286087974906" lon="12.35031078569591">
        <ele>8.789999999999999</ele>
        <time>2017-09-17T11:50:22Z</time>
      </trkpt>
      <trkpt lat="37.992895832285285" lon="12.350298631936312">
        <ele>8.310000000000001</ele>
        <time>2017-09-17T11:50:50Z</time>
      </trkpt>
      <trkpt lat="37.992891473695636" lon="12.350322604179382">
        <ele>8.310000000000001</ele>
        <time>2017-09-17T11:51:27Z</time>
      </trkpt>
      <trkpt lat="37.992914775386453" lon="12.350316233932972">
        <ele>7.83</ele>
        <time>2017-09-17T11:52:03Z</time>
      </trkpt>
      <trkpt lat="37.992877559736371" lon="12.350285639986396">
        <ele>8.310000000000001</ele>
        <time>2017-09-17T11:52:33Z</time>
      </trkpt>
      <trkpt lat="37.992885271087289" lon="12.350283125415444">
        <ele>8.310000000000001</ele>
        <time>2017-09-17T11:53:08Z</time>
      </trkpt>
      <trkpt lat="37.992892814800143" lon="12.35030634328723">
        <ele>8.310000000000001</ele>
        <time>2017-09-17T11:53:40Z</time>
      </trkpt>
      <trkpt lat="37.99289658665657" lon="12.350315814837813">
        <ele>8.310000000000001</ele>
        <time>2017-09-17T11:54:16Z</time>
      </trkpt>
      <trkpt lat="37.992889462038875" lon="12.350320257246494">
        <ele>8.789999999999999</ele>
        <time>2017-09-17T11:54:51Z</time>
      </trkpt>
      <trkpt lat="37.992891725152731" lon="12.350309612229466">
        <ele>8.789999999999999</ele>
        <time>2017-09-17T11:55:24Z</time>
      </trkpt>
      <trkpt lat="37.992895916104317" lon="12.350342134013772">
        <ele>9.27</ele>
        <time>2017-09-17T11:56:00Z</time>
      </trkpt>
      <trkpt lat="37.99289315007627" lon="12.350331572815776">
        <ele>8.310000000000001</ele>
        <time>2017-09-17T11:56:30Z</time>
      </trkpt>
      <trkpt lat="37.992909830063581" lon="12.350340373814106">
        <ele>8.310000000000001</ele>
        <time>2017-09-17T11:57:08Z</time>
      </trkpt>
      <trkpt lat="37.992887031286955" lon="12.35030491836369">
        <ele>8.789999999999999</ele>
        <time>2017-09-17T11:57:43Z</time>
      </trkpt>
      <trkpt lat="37.992903962731361" lon="12.35032495111227">
        <ele>8.310000000000001</ele>
        <time>2017-09-17T11:58:16Z</time>
      </trkpt>
      <trkpt lat="37.992911171168089" lon="12.350342301651835">
        <ele>8.310000000000001</ele>
        <time>2017-09-17T11:58:49Z</time>
      </trkpt>
      <trkpt lat="37.99288091249764" lon="12.350308690220118">
        <ele>8.789999999999999</ele>
        <time>2017-09-17T11:59:32Z</time>
      </trkpt>
      <trkpt lat="37.992896754294634" lon="12.350296285003424">
        <ele>8.789999999999999</ele>
        <time>2017-09-17T12:00:03Z</time>
      </trkpt>
      <trkpt lat="37.992877224460244" lon="12.3503044154495">
        <ele>8.789999999999999</ele>
        <time>2017-09-17T12:00:35Z</time>
      </trkpt>
      <trkpt lat="37.992858532816172" lon="12.350291926413774">
        <ele>8.789999999999999</ele>
        <time>2017-09-17T12:01:07Z</time>
      </trkpt>
      <trkpt lat="37.992899185046554" lon="12.350320424884558">
        <ele>8.310000000000001</ele>
        <time>2017-09-17T12:01:36Z</time>
      </trkpt>
      <trkpt lat="37.99291661940515" lon="12.350308774039149">
        <ele>8.310000000000001</ele>
        <time>2017-09-17T12:02:16Z</time>
      </trkpt>
      <trkpt lat="37.992872195318341" lon="12.350309947505593">
        <ele>7.35</ele>
        <time>2017-09-17T12:02:41Z</time>
      </trkpt>
      <trkpt lat="37.992873452603817" lon="12.350331991910934">
        <ele>7.35</ele>
        <time>2017-09-17T12:03:09Z</time>
      </trkpt>
      <trkpt lat="37.992905722931027" lon="12.350279185920954">
        <ele>7.35</ele>
        <time>2017-09-17T12:03:42Z</time>
      </trkpt>
      <trkpt lat="37.992906477302313" lon="12.350299637764692">
        <ele>7.35</ele>
        <time>2017-09-17T12:04:16Z</time>
      </trkpt>
      <trkpt lat="37.992890886962414" lon="12.350302655249834">
        <ele>7.35</ele>
        <time>2017-09-17T12:04:41Z</time>
      </trkpt>
      <trkpt lat="37.992865741252899" lon="12.350287232547998">
        <ele>7.83</ele>
        <time>2017-09-17T12:05:16Z</time>
      </trkpt>
      <trkpt lat="37.992883678525686" lon="12.350286142900586">
        <ele>7.83</ele>
        <time>2017-09-17T12:05:51Z</time>
      </trkpt>
      <trkpt lat="37.992888540029526" lon="12.350291842594743">
        <ele>7.83</ele>
        <time>2017-09-17T12:06:20Z</time>
      </trkpt>
      <trkpt lat="37.992870854213834" lon="12.350289411842823">
        <ele>7.83</ele>
        <time>2017-09-17T12:06:49Z</time>
      </trkpt>
      <trkpt lat="37.992893904447556" lon="12.350296452641487">
        <ele>7.83</ele>
        <time>2017-09-17T12:07:15Z</time>
      </trkpt>
      <trkpt lat="37.992861969396472" lon="12.350295195356011">
        <ele>7.83</ele>
        <time>2017-09-17T12:07:47Z</time>
      </trkpt>
      <trkpt lat="37.992875464260578" lon="12.350285304710269">
        <ele>7.83</ele>
        <time>2017-09-17T12:08:16Z</time>
      </trkpt>
      <trkpt lat="37.992907147854567" lon="12.350277174264193">
        <ele>7.83</ele>
        <time>2017-09-17T12:08:43Z</time>
      </trkpt>
      <trkpt lat="37.99289365299046" lon="12.350278347730637">
        <ele>8.310000000000001</ele>
        <time>2017-09-17T12:09:14Z</time>
      </trkpt>
      <trkpt lat="37.992885354906321" lon="12.350275916978717">
        <ele>8.310000000000001</ele>
        <time>2017-09-17T12:09:44Z</time>
      </trkpt>
      <trkpt lat="37.992896251380444" lon="12.35027901828289">
        <ele>8.310000000000001</ele>
        <time>2017-09-17T12:10:16Z</time>
      </trkpt>
      <trkpt lat="37.992874709889293" lon="12.350276000797749">
        <ele>8.789999999999999</ele>
        <time>2017-09-17T12:10:44Z</time>
      </trkpt>
      <trkpt lat="37.992874374613166" lon="12.350299973040819">
        <ele>8.789999999999999</ele>
        <time>2017-09-17T12:11:14Z</time>
      </trkpt>
      <trkpt lat="37.992861047387123" lon="12.350314976647496">
        <ele>8.310000000000001</ele>
        <time>2017-09-17T12:11:47Z</time>
      </trkpt>
      <trkpt lat="37.992888288572431" lon="12.350303409621119">
        <ele>8.789999999999999</ele>
        <time>2017-09-17T12:12:20Z</time>
      </trkpt>
      <trkpt lat="37.992870267480612" lon="12.350298129022121">
        <ele>8.789999999999999</ele>
        <time>2017-09-17T12:12:50Z</time>
      </trkpt>
      <trkpt lat="37.992862891405821" lon="12.350305756554008">
        <ele>8.789999999999999</ele>
        <time>2017-09-17T12:13:21Z</time>
      </trkpt>
      <trkpt lat="37.992867501452565" lon="12.350292932242155">
        <ele>8.310000000000001</ele>
        <time>2017-09-17T12:13:48Z</time>
      </trkpt>
      <trkpt lat="37.992885941639543" lon="12.350297961384058">
        <ele>8.789999999999999</ele>
        <time>2017-09-17T12:14:18Z</time>
      </trkpt>
      <trkpt lat="37.992911757901311" lon="12.350294860079885">
        <ele>8.789999999999999</ele>
        <time>2017-09-17T12:14:47Z</time>
      </trkpt>
      <trkpt lat="37.992890300229192" lon="12.350301062688231">
        <ele>8.310000000000001</ele>
        <time>2017-09-17T12:15:09Z</time>
      </trkpt>
      <trkpt lat="37.992897592484951" lon="12.350310953333974">
        <ele>8.789999999999999</ele>
        <time>2017-09-17T12:15:38Z</time>
      </trkpt>
      <trkpt lat="37.99285308457911" lon="12.350300895050168">
        <ele>8.789999999999999</ele>
        <time>2017-09-17T12:16:04Z</time>
      </trkpt>
      <trkpt lat="37.992874709889293" lon="12.350287484005094">
        <ele>8.789999999999999</ele>
        <time>2017-09-17T12:16:38Z</time>
      </trkpt>
      <trkpt lat="37.992824418470263" lon="12.35031371936202">
        <ele>8.310000000000001</ele>
        <time>2017-09-17T12:17:09Z</time>
      </trkpt>
      <trkpt lat="37.992911422625184" lon="12.350288992747664">
        <ele>8.310000000000001</ele>
        <time>2017-09-17T12:17:37Z</time>
      </trkpt>
      <trkpt lat="37.992858029901981" lon="12.350290836766362">
        <ele>8.789999999999999</ele>
        <time>2017-09-17T12:18:08Z</time>
      </trkpt>
      <trkpt lat="37.992886276915669" lon="12.350283795967698">
        <ele>8.789999999999999</ele>
        <time>2017-09-17T12:18:37Z</time>
      </trkpt>
      <trkpt lat="37.992890384048223" lon="12.350278263911605">
        <ele>8.789999999999999</ele>
        <time>2017-09-17T12:18:57Z</time>
      </trkpt>
      <trkpt lat="37.992919972166419" lon="12.350297542288899">
        <ele>8.789999999999999</ele>
        <time>2017-09-17T12:19:27Z</time>
      </trkpt>
      <trkpt lat="37.992900358512998" lon="12.35028924420476">
        <ele>8.310000000000001</ele>
        <time>2017-09-17T12:19:59Z</time>
      </trkpt>
      <trkpt lat="37.992895161733031" lon="12.350283963605762">
        <ele>8.789999999999999</ele>
        <time>2017-09-17T12:20:31Z</time>
      </trkpt>
      <trkpt lat="37.992862639948726" lon="12.35029318369925">
        <ele>8.789999999999999</ele>
        <time>2017-09-17T12:21:12Z</time>
      </trkpt>
      <trkpt lat="37.992884265258908" lon="12.350310366600752">
        <ele>8.789999999999999</ele>
        <time>2017-09-17T12:21:50Z</time>
      </trkpt>
      <trkpt lat="37.992869261652231" lon="12.350285639986396">
        <ele>8.789999999999999</ele>
        <time>2017-09-17T12:22:23Z</time>
      </trkpt>
      <trkpt lat="37.992874793708324" lon="12.350278431549668">
        <ele>9.27</ele>
        <time>2017-09-17T12:22:56Z</time>
      </trkpt>
      <trkpt lat="37.992877895012498" lon="12.350291758775711">
        <ele>8.789999999999999</ele>
        <time>2017-09-17T12:23:23Z</time>
      </trkpt>
      <trkpt lat="37.992895916104317" lon="12.350297374650836">
        <ele>9.27</ele>
        <time>2017-09-17T12:23:48Z</time>
      </trkpt>
      <trkpt lat="37.992906142026186" lon="12.35030491836369">
        <ele>9.27</ele>
        <time>2017-09-17T12:24:15Z</time>
      </trkpt>
      <trkpt lat="37.992860209196806" lon="12.350311875343323">
        <ele>9.27</ele>
        <time>2017-09-17T12:24:46Z</time>
      </trkpt>
      <trkpt lat="37.992868172004819" lon="12.350301146507263">
        <ele>9.27</ele>
        <time>2017-09-17T12:25:11Z</time>
      </trkpt>
      <trkpt lat="37.992881247773767" lon="12.350307432934642">
        <ele>9.27</ele>
        <time>2017-09-17T12:25:42Z</time>
      </trkpt>
      <trkpt lat="37.992895999923348" lon="12.350314138457179">
        <ele>9.75</ele>
        <time>2017-09-17T12:26:09Z</time>
      </trkpt>
      <trkpt lat="37.992903124541044" lon="12.350302319973707">
        <ele>9.27</ele>
        <time>2017-09-17T12:26:32Z</time>
      </trkpt>
      <trkpt lat="37.992890803143382" lon="12.350298631936312">
        <ele>9.27</ele>
        <time>2017-09-17T12:27:01Z</time>
      </trkpt>
      <trkpt lat="37.992856185883284" lon="12.350298296660185">
        <ele>9.75</ele>
        <time>2017-09-17T12:27:32Z</time>
      </trkpt>
      <trkpt lat="37.992869932204485" lon="12.350306930020452">
        <ele>9.75</ele>
        <time>2017-09-17T12:28:03Z</time>
      </trkpt>
      <trkpt lat="37.99287797883153" lon="12.350280275568366">
        <ele>9.75</ele>
        <time>2017-09-17T12:28:31Z</time>
      </trkpt>
      <trkpt lat="37.992887115105987" lon="12.350293770432472">
        <ele>9.75</ele>
        <time>2017-09-17T12:28:55Z</time>
      </trkpt>
      <trkpt lat="37.992877895012498" lon="12.350301817059517">
        <ele>9.27</ele>
        <time>2017-09-17T12:29:15Z</time>
      </trkpt>
      <trkpt lat="37.992875128984451" lon="12.350297374650836">
        <ele>9.75</ele>
        <time>2017-09-17T12:29:41Z</time>
      </trkpt>
      <trkpt lat="37.99286431632936" lon="12.350297877565026">
        <ele>9.75</ele>
        <time>2017-09-17T12:30:10Z</time>
      </trkpt>
      <trkpt lat="37.992861634120345" lon="12.350303158164024">
        <ele>9.75</ele>
        <time>2017-09-17T12:30:39Z</time>
      </trkpt>
      <trkpt lat="37.992882505059242" lon="12.350292010232806">
        <ele>10.23</ele>
        <time>2017-09-17T12:31:06Z</time>
      </trkpt>
      <trkpt lat="37.992881750687957" lon="12.350303074344993">
        <ele>9.75</ele>
        <time>2017-09-17T12:31:30Z</time>
      </trkpt>
      <trkpt lat="37.992887534201145" lon="12.350294608622789">
        <ele>9.75</ele>
        <time>2017-09-17T12:32:00Z</time>
      </trkpt>
      <trkpt lat="37.992887953296304" lon="12.350286059081554">
        <ele>9.75</ele>
        <time>2017-09-17T12:32:27Z</time>
      </trkpt>
      <trkpt lat="37.992871943861246" lon="12.350300895050168">
        <ele>9.75</ele>
        <time>2017-09-17T12:32:54Z</time>
      </trkpt>
      <trkpt lat="37.992861131206155" lon="12.350292932242155">
        <ele>9.75</ele>
        <time>2017-09-17T12:33:21Z</time>
      </trkpt>
      <trkpt lat="37.992839673534036" lon="12.350302655249834">
        <ele>10.23</ele>
        <time>2017-09-17T12:33:51Z</time>
      </trkpt>
      <trkpt lat="37.992887031286955" lon="12.35030491836369">
        <ele>9.75</ele>
        <time>2017-09-17T12:34:21Z</time>
      </trkpt>
      <trkpt lat="37.992865825071931" lon="12.350318999961019">
        <ele>10.23</ele>
        <time>2017-09-17T12:34:52Z</time>
      </trkpt>
      <trkpt lat="37.992889042943716" lon="12.350294524803758">
        <ele>10.23</ele>
        <time>2017-09-17T12:35:23Z</time>
      </trkpt>
      <trkpt lat="37.992873787879944" lon="12.350299218669534">
        <ele>10.23</ele>
        <time>2017-09-17T12:35:51Z</time>
      </trkpt>
      <trkpt lat="37.992895832285285" lon="12.350300811231136">
        <ele>10.710000000000001</ele>
        <time>2017-09-17T12:36:16Z</time>
      </trkpt>
      <trkpt lat="37.992877056822181" lon="12.35029804520309">
        <ele>10.710000000000001</ele>
        <time>2017-09-17T12:36:39Z</time>
      </trkpt>
      <trkpt lat="37.992863729596138" lon="12.35030198469758">
        <ele>10.710000000000001</ele>
        <time>2017-09-17T12:37:13Z</time>
      </trkpt>
      <trkpt lat="37.992886528372765" lon="12.350294440984726">
        <ele>10.710000000000001</ele>
        <time>2017-09-17T12:37:40Z</time>
      </trkpt>
      <trkpt lat="37.992879571393132" lon="12.350293770432472">
        <ele>10.710000000000001</ele>
        <time>2017-09-17T12:38:10Z</time>
      </trkpt>
      <trkpt lat="37.992889629676938" lon="12.350305756554008">
        <ele>10.710000000000001</ele>
        <time>2017-09-17T12:38:41Z</time>
      </trkpt>
      <trkpt lat="37.992892730981112" lon="12.35029561445117">
        <ele>9.75</ele>
        <time>2017-09-17T12:39:10Z</time>
      </trkpt>
      <trkpt lat="37.992882421240211" lon="12.350308606401086">
        <ele>10.710000000000001</ele>
        <time>2017-09-17T12:39:20Z</time>
      </trkpt>
      <trkpt lat="37.992881080135703" lon="12.350310618057847">
        <ele>10.710000000000001</ele>
        <time>2017-09-17T12:39:45Z</time>
      </trkpt>
      <trkpt lat="37.992888456210494" lon="12.350309109315276">
        <ele>10.710000000000001</ele>
        <time>2017-09-17T12:40:10Z</time>
      </trkpt>
      <trkpt lat="37.992869429290295" lon="12.350301565602422">
        <ele>10.710000000000001</ele>
        <time>2017-09-17T12:40:35Z</time>
      </trkpt>
      <trkpt lat="37.992880241945386" lon="12.350305086001754">
        <ele>10.710000000000001</ele>
        <time>2017-09-17T12:40:55Z</time>
      </trkpt>
      <trkpt lat="37.992862304672599" lon="12.350313467904925">
        <ele>10.710000000000001</ele>
        <time>2017-09-17T12:41:24Z</time>
      </trkpt>
      <trkpt lat="37.992862891405821" lon="12.350309193134308">
        <ele>10.710000000000001</ele>
        <time>2017-09-17T12:41:54Z</time>
      </trkpt>
      <trkpt lat="37.992877559736371" lon="12.350315898656845">
        <ele>10.710000000000001</ele>
        <time>2017-09-17T12:42:12Z</time>
      </trkpt>
      <trkpt lat="37.99288384616375" lon="12.350325621664524">
        <ele>10.710000000000001</ele>
        <time>2017-09-17T12:42:37Z</time>
      </trkpt>
      <trkpt lat="37.992866579443216" lon="12.350313467904925">
        <ele>11.19</ele>
        <time>2017-09-17T12:43:02Z</time>
      </trkpt>
      <trkpt lat="37.992879319936037" lon="12.350316904485226">
        <ele>11.19</ele>
        <time>2017-09-17T12:43:31Z</time>
      </trkpt>
      <trkpt lat="37.992868339642882" lon="12.350305337458849">
        <ele>11.19</ele>
        <time>2017-09-17T12:44:01Z</time>
      </trkpt>
      <trkpt lat="37.992859706282616" lon="12.350310869514942">
        <ele>10.710000000000001</ele>
        <time>2017-09-17T12:44:27Z</time>
      </trkpt>
      <trkpt lat="37.992870938032866" lon="12.350297374650836">
        <ele>10.710000000000001</ele>
        <time>2017-09-17T12:44:54Z</time>
      </trkpt>
      <trkpt lat="37.992876218631864" lon="12.350311372429132">
        <ele>10.710000000000001</ele>
        <time>2017-09-17T12:45:24Z</time>
      </trkpt>
      <trkpt lat="37.992862975224853" lon="12.350297207012773">
        <ele>10.710000000000001</ele>
        <time>2017-09-17T12:45:55Z</time>
      </trkpt>
      <trkpt lat="37.992855682969093" lon="12.350302739068866">
        <ele>11.19</ele>
        <time>2017-09-17T12:46:20Z</time>
      </trkpt>
      <trkpt lat="37.992883762344718" lon="12.350288406014442">
        <ele>10.710000000000001</ele>
        <time>2017-09-17T12:46:48Z</time>
      </trkpt>
      <trkpt lat="37.992874709889293" lon="12.350296536460519">
        <ele>10.710000000000001</ele>
        <time>2017-09-17T12:47:22Z</time>
      </trkpt>
      <trkpt lat="37.992877475917339" lon="12.350334506481886">
        <ele>10.710000000000001</ele>
        <time>2017-09-17T12:47:49Z</time>
      </trkpt>
      <trkpt lat="37.992874626070261" lon="12.35030927695334">
        <ele>11.19</ele>
        <time>2017-09-17T12:48:14Z</time>
      </trkpt>
      <trkpt lat="37.992890970781446" lon="12.350323777645826">
        <ele>10.710000000000001</ele>
        <time>2017-09-17T12:48:47Z</time>
      </trkpt>
      <trkpt lat="37.992892311885953" lon="12.350330399349332">
        <ele>11.19</ele>
        <time>2017-09-17T12:49:21Z</time>
      </trkpt>
      <trkpt lat="37.992886863648891" lon="12.350323190912604">
        <ele>10.710000000000001</ele>
        <time>2017-09-17T12:49:53Z</time>
      </trkpt>
      <trkpt lat="37.992865908890963" lon="12.350302822887897">
        <ele>11.19</ele>
        <time>2017-09-17T12:50:26Z</time>
      </trkpt>
      <trkpt lat="37.99286481924355" lon="12.35030734911561">
        <ele>11.19</ele>
        <time>2017-09-17T12:50:58Z</time>
      </trkpt>
      <trkpt lat="37.992871860042214" lon="12.350300559774041">
        <ele>11.19</ele>
        <time>2017-09-17T12:51:35Z</time>
      </trkpt>
      <trkpt lat="37.992877895012498" lon="12.350316066294909">
        <ele>11.19</ele>
        <time>2017-09-17T12:52:04Z</time>
      </trkpt>
      <trkpt lat="37.992885271087289" lon="12.350321598351002">
        <ele>11.19</ele>
        <time>2017-09-17T12:52:36Z</time>
      </trkpt>
      <trkpt lat="37.992875128984451" lon="12.350315060466528">
        <ele>11.67</ele>
        <time>2017-09-17T12:53:03Z</time>
      </trkpt>
      <trkpt lat="37.992891473695636" lon="12.350293435156345">
        <ele>11.19</ele>
        <time>2017-09-17T12:53:32Z</time>
      </trkpt>
      <trkpt lat="37.992875631898642" lon="12.350281784310937">
        <ele>11.67</ele>
        <time>2017-09-17T12:53:59Z</time>
      </trkpt>
      <trkpt lat="37.99288485199213" lon="12.350294524803758">
        <ele>11.19</ele>
        <time>2017-09-17T12:54:27Z</time>
      </trkpt>
      <trkpt lat="37.992878900840878" lon="12.350297793745995">
        <ele>11.67</ele>
        <time>2017-09-17T12:54:48Z</time>
      </trkpt>
      <trkpt lat="37.992879068478942" lon="12.350294273346663">
        <ele>11.67</ele>
        <time>2017-09-17T12:55:06Z</time>
      </trkpt>
      <trkpt lat="37.992882588878274" lon="12.350313300266862">
        <ele>11.67</ele>
        <time>2017-09-17T12:55:26Z</time>
      </trkpt>
      <trkpt lat="37.992870770394802" lon="12.350332159548998">
        <ele>12.630000000000001</ele>
        <time>2017-09-17T12:55:37Z</time>
      </trkpt>
      <trkpt lat="37.992860041558743" lon="12.350336518138647">
        <ele>12.630000000000001</ele>
        <time>2017-09-17T12:55:48Z</time>
      </trkpt>
      <trkpt lat="37.992866663262248" lon="12.350336099043489">
        <ele>12.630000000000001</ele>
        <time>2017-09-17T12:55:59Z</time>
      </trkpt>
      <trkpt lat="37.992876889184117" lon="12.350339200347662">
        <ele>12.630000000000001</ele>
        <time>2017-09-17T12:56:15Z</time>
      </trkpt>
      <trkpt lat="37.992888037115335" lon="12.350330650806427">
        <ele>12.630000000000001</ele>
        <time>2017-09-17T12:56:34Z</time>
      </trkpt>
      <trkpt lat="37.992885690182447" lon="12.350334338843822">
        <ele>12.630000000000001</ele>
        <time>2017-09-17T12:56:50Z</time>
      </trkpt>
      <trkpt lat="37.992866663262248" lon="12.35034104436636">
        <ele>12.630000000000001</ele>
        <time>2017-09-17T12:57:12Z</time>
      </trkpt>
      <trkpt lat="37.992867166176438" lon="12.350328555330634">
        <ele>12.630000000000001</ele>
        <time>2017-09-17T12:57:28Z</time>
      </trkpt>
      <trkpt lat="37.992843193933368" lon="12.350307013839483">
        <ele>12.630000000000001</ele>
        <time>2017-09-17T12:57:51Z</time>
      </trkpt>
      <trkpt lat="37.992852916941047" lon="12.350322268903255">
        <ele>12.630000000000001</ele>
        <time>2017-09-17T12:58:13Z</time>
      </trkpt>
      <trkpt lat="37.992839422076941" lon="12.350326208397746">
        <ele>12.630000000000001</ele>
        <time>2017-09-17T12:58:31Z</time>
      </trkpt>
      <trkpt lat="37.9928208142519" lon="12.350322604179382">
        <ele>12.630000000000001</ele>
        <time>2017-09-17T12:58:50Z</time>
      </trkpt>
      <trkpt lat="37.992871943861246" lon="12.350331488996744">
        <ele>12.630000000000001</ele>
        <time>2017-09-17T12:59:08Z</time>
      </trkpt>
      <trkpt lat="37.992863645777106" lon="12.350296033546329">
        <ele>12.630000000000001</ele>
        <time>2017-09-17T12:59:29Z</time>
      </trkpt>
      <trkpt lat="37.992852916941047" lon="12.350320341065526">
        <ele>13.119999999999999</ele>
        <time>2017-09-17T12:59:42Z</time>
      </trkpt>
      <trkpt lat="37.992854258045554" lon="12.350312462076545">
        <ele>12.630000000000001</ele>
        <time>2017-09-17T13:00:04Z</time>
      </trkpt>
      <trkpt lat="37.992843613028526" lon="12.350314809009433">
        <ele>12.630000000000001</ele>
        <time>2017-09-17T13:00:30Z</time>
      </trkpt>
      <trkpt lat="37.992848306894302" lon="12.35030977986753">
        <ele>12.630000000000001</ele>
        <time>2017-09-17T13:00:51Z</time>
      </trkpt>
      <trkpt lat="37.992800697684288" lon="12.350297626107931">
        <ele>12.630000000000001</ele>
        <time>2017-09-17T13:01:05Z</time>
      </trkpt>
      <trkpt lat="37.992788292467594" lon="12.350290166214108">
        <ele>12.630000000000001</ele>
        <time>2017-09-17T13:01:07Z</time>
      </trkpt>
      <trkpt lat="37.992757698521018" lon="12.350253453478217">
        <ele>12.630000000000001</ele>
        <time>2017-09-17T13:01:13Z</time>
      </trkpt>
      <trkpt lat="37.992693074047565" lon="12.350191678851843">
        <ele>13.119999999999999</ele>
        <time>2017-09-17T13:01:24Z</time>
      </trkpt>
      <trkpt lat="37.99264345318079" lon="12.350185057148337">
        <ele>14.56</ele>
        <time>2017-09-17T13:01:33Z</time>
      </trkpt>
      <trkpt lat="37.992576146498322" lon="12.350165192037821">
        <ele>15.039999999999999</ele>
        <time>2017-09-17T13:01:42Z</time>
      </trkpt>
      <trkpt lat="37.992525016888976" lon="12.350165946409106">
        <ele>15.039999999999999</ele>
        <time>2017-09-17T13:01:50Z</time>
      </trkpt>
      <trkpt lat="37.992513617500663" lon="12.350153122097254">
        <ele>15.52</ele>
        <time>2017-09-17T13:01:53Z</time>
      </trkpt>
      <trkpt lat="37.992428038269281" lon="12.350164270028472">
        <ele>15.52</ele>
        <time>2017-09-17T13:02:04Z</time>
      </trkpt>
      <trkpt lat="37.99233173020184" lon="12.350215567275882">
        <ele>15.039999999999999</ele>
        <time>2017-09-17T13:02:18Z</time>
      </trkpt>
      <trkpt lat="37.992307003587484" lon="12.350225960835814">
        <ele>15.52</ele>
        <time>2017-09-17T13:02:21Z</time>
      </trkpt>
      <trkpt lat="37.99227699637413" lon="12.350237695500255">
        <ele>15.52</ele>
        <time>2017-09-17T13:02:25Z</time>
      </trkpt>
      <trkpt lat="37.992141293361783" lon="12.350246831774712">
        <ele>15.52</ele>
        <time>2017-09-17T13:02:39Z</time>
      </trkpt>
      <trkpt lat="37.992047918960452" lon="12.350329142063856">
        <ele>16</ele>
        <time>2017-09-17T13:02:53Z</time>
      </trkpt>
      <trkpt lat="37.991957981139421" lon="12.350411955267191">
        <ele>16.48</ele>
        <time>2017-09-17T13:03:07Z</time>
      </trkpt>
      <trkpt lat="37.99187432974577" lon="12.350485632196069">
        <ele>17.440000000000001</ele>
        <time>2017-09-17T13:03:19Z</time>
      </trkpt>
      <trkpt lat="37.991834850981832" lon="12.35051061026752">
        <ele>16.48</ele>
        <time>2017-09-17T13:03:31Z</time>
      </trkpt>
      <trkpt lat="37.991747343912721" lon="12.350579425692558">
        <ele>16.48</ele>
        <time>2017-09-17T13:03:44Z</time>
      </trkpt>
      <trkpt lat="37.991722114384174" lon="12.350601051002741">
        <ele>16.48</ele>
        <time>2017-09-17T13:03:48Z</time>
      </trkpt>
      <trkpt lat="37.991670146584511" lon="12.350647151470184">
        <ele>15.52</ele>
        <time>2017-09-17T13:03:58Z</time>
      </trkpt>
      <trkpt lat="37.991574089974165" lon="12.350647067651153">
        <ele>17.440000000000001</ele>
        <time>2017-09-17T13:04:10Z</time>
      </trkpt>
      <trkpt lat="37.991501670330763" lon="12.350633321329951">
        <ele>17.920000000000002</ele>
        <time>2017-09-17T13:04:20Z</time>
      </trkpt>
      <trkpt lat="37.991449283435941" lon="12.35065477900207">
        <ele>18.399999999999999</ele>
        <time>2017-09-17T13:04:29Z</time>
      </trkpt>
      <trkpt lat="37.991393208503723" lon="12.35067623667419">
        <ele>16.960000000000001</ele>
        <time>2017-09-17T13:04:37Z</time>
      </trkpt>
      <trkpt lat="37.991319112479687" lon="12.350718984380364">
        <ele>16.48</ele>
        <time>2017-09-17T13:04:47Z</time>
      </trkpt>
      <trkpt lat="37.991280639544129" lon="12.350757541134953">
        <ele>17.440000000000001</ele>
        <time>2017-09-17T13:04:53Z</time>
      </trkpt>
      <trkpt lat="37.991203358396888" lon="12.350790482014418">
        <ele>18.399999999999999</ele>
        <time>2017-09-17T13:05:03Z</time>
      </trkpt>
      <trkpt lat="37.991118030622602" lon="12.350859800353646">
        <ele>17.920000000000002</ele>
        <time>2017-09-17T13:05:14Z</time>
      </trkpt>
      <trkpt lat="37.991091879084706" lon="12.350876815617085">
        <ele>18.399999999999999</ele>
        <time>2017-09-17T13:05:17Z</time>
      </trkpt>
      <trkpt lat="37.990986770018935" lon="12.350920150056481">
        <ele>18.879999999999999</ele>
        <time>2017-09-17T13:05:28Z</time>
      </trkpt>
      <trkpt lat="37.990971514955163" lon="12.350932974368334">
        <ele>18.879999999999999</ele>
        <time>2017-09-17T13:05:30Z</time>
      </trkpt>
      <trkpt lat="37.990867495536804" lon="12.350952588021755">
        <ele>17.920000000000002</ele>
        <time>2017-09-17T13:05:41Z</time>
      </trkpt>
      <trkpt lat="37.990772947669029" lon="12.350929956883192">
        <ele>17.440000000000001</ele>
        <time>2017-09-17T13:05:51Z</time>
      </trkpt>
      <trkpt lat="37.990660378709435" lon="12.350898440927267">
        <ele>16.960000000000001</ele>
        <time>2017-09-17T13:06:03Z</time>
      </trkpt>
      <trkpt lat="37.990560298785567" lon="12.35088050365448">
        <ele>17.440000000000001</ele>
        <time>2017-09-17T13:06:16Z</time>
      </trkpt>
      <trkpt lat="37.990437922999263" lon="12.350870529189706">
        <ele>18.399999999999999</ele>
        <time>2017-09-17T13:06:29Z</time>
      </trkpt>
      <trkpt lat="37.990292748436332" lon="12.35086977481842">
        <ele>18.399999999999999</ele>
        <time>2017-09-17T13:06:44Z</time>
      </trkpt>
      <trkpt lat="37.990185795351863" lon="12.350873295217752">
        <ele>17.440000000000001</ele>
        <time>2017-09-17T13:06:55Z</time>
      </trkpt>
      <trkpt lat="37.990087391808629" lon="12.35085267573595">
        <ele>18.879999999999999</ele>
        <time>2017-09-17T13:07:08Z</time>
      </trkpt>
      <trkpt lat="37.990000890567899" lon="12.350784027948976">
        <ele>20.32</ele>
        <time>2017-09-17T13:07:20Z</time>
      </trkpt>
      <trkpt lat="37.989904331043363" lon="12.350734574720263">
        <ele>20.809999999999999</ele>
        <time>2017-09-17T13:07:32Z</time>
      </trkpt>
      <trkpt lat="37.989821685478091" lon="12.350655617192388">
        <ele>22.25</ele>
        <time>2017-09-17T13:07:44Z</time>
      </trkpt>
      <trkpt lat="37.989726550877094" lon="12.350602811202407">
        <ele>23.690000000000001</ele>
        <time>2017-09-17T13:07:57Z</time>
      </trkpt>
      <trkpt lat="37.989615071564913" lon="12.350576743483543">
        <ele>24.170000000000002</ele>
        <time>2017-09-17T13:08:10Z</time>
      </trkpt>
      <trkpt lat="37.989526893943548" lon="12.350549586117268">
        <ele>24.649999999999999</ele>
        <time>2017-09-17T13:08:20Z</time>
      </trkpt>
      <trkpt lat="37.989406865090132" lon="12.350522680208087">
        <ele>26.09</ele>
        <time>2017-09-17T13:08:33Z</time>
      </trkpt>
      <trkpt lat="37.989283064380288" lon="12.350458558648825">
        <ele>26.57</ele>
        <time>2017-09-17T13:08:47Z</time>
      </trkpt>
      <trkpt lat="37.989190695807338" lon="12.350409859791398">
        <ele>27.050000000000001</ele>
        <time>2017-09-17T13:08:58Z</time>
      </trkpt>
      <trkpt lat="37.989108636975288" lon="12.350370213389397">
        <ele>27.050000000000001</ele>
        <time>2017-09-17T13:09:07Z</time>
      </trkpt>
      <trkpt lat="37.98906471580267" lon="12.350263092666864">
        <ele>28.02</ele>
        <time>2017-09-17T13:09:18Z</time>
      </trkpt>
      <trkpt lat="37.988999923691154" lon="12.350178435444832">
        <ele>28.02</ele>
        <time>2017-09-17T13:09:29Z</time>
      </trkpt>
      <trkpt lat="37.988937729969621" lon="12.350113894790411">
        <ele>27.530000000000001</ele>
        <time>2017-09-17T13:09:41Z</time>
      </trkpt>
      <trkpt lat="37.988859191536903" lon="12.350038290023804">
        <ele>26.57</ele>
        <time>2017-09-17T13:09:52Z</time>
      </trkpt>
      <trkpt lat="37.988795656710863" lon="12.349908873438835">
        <ele>25.129999999999999</ele>
        <time>2017-09-17T13:10:04Z</time>
      </trkpt>
      <trkpt lat="37.988776629790664" lon="12.349845757707953">
        <ele>25.609999999999999</ele>
        <time>2017-09-17T13:10:13Z</time>
      </trkpt>
      <trkpt lat="37.988754417747259" lon="12.349748946726322">
        <ele>26.09</ele>
        <time>2017-09-17T13:10:24Z</time>
      </trkpt>
      <trkpt lat="37.988760201260448" lon="12.349557168781757">
        <ele>26.57</ele>
        <time>2017-09-17T13:10:38Z</time>
      </trkpt>
      <trkpt lat="37.988749220967293" lon="12.349480558186769">
        <ele>25.609999999999999</ele>
        <time>2017-09-17T13:10:48Z</time>
      </trkpt>
      <trkpt lat="37.988738575950265" lon="12.349363882094622">
        <ele>25.129999999999999</ele>
        <time>2017-09-17T13:11:01Z</time>
      </trkpt>
      <trkpt lat="37.988769756630063" lon="12.349246283993125">
        <ele>25.129999999999999</ele>
        <time>2017-09-17T13:11:14Z</time>
      </trkpt>
      <trkpt lat="37.988757938146591" lon="12.349205380305648">
        <ele>25.129999999999999</ele>
        <time>2017-09-17T13:11:22Z</time>
      </trkpt>
      <trkpt lat="37.988733546808362" lon="12.349120723083615">
        <ele>22.73</ele>
        <time>2017-09-17T13:11:32Z</time>
      </trkpt>
      <trkpt lat="37.9887436889112" lon="12.348995665088296">
        <ele>22.25</ele>
        <time>2017-09-17T13:11:44Z</time>
      </trkpt>
      <trkpt lat="37.988791801035404" lon="12.348881755024195">
        <ele>21.77</ele>
        <time>2017-09-17T13:11:54Z</time>
      </trkpt>
      <trkpt lat="37.988843265920877" lon="12.348762815818191">
        <ele>21.77</ele>
        <time>2017-09-17T13:12:06Z</time>
      </trkpt>
      <trkpt lat="37.988884337246418" lon="12.348647648468614">
        <ele>22.73</ele>
        <time>2017-09-17T13:12:16Z</time>
      </trkpt>
      <trkpt lat="37.988914931192994" lon="12.348552262410522">
        <ele>22.73</ele>
        <time>2017-09-17T13:12:26Z</time>
      </trkpt>
      <trkpt lat="37.988924570381641" lon="12.34854094684124">
        <ele>22.73</ele>
        <time>2017-09-17T13:12:28Z</time>
      </trkpt>
      <trkpt lat="37.988944938406348" lon="12.348493253812194">
        <ele>22.73</ele>
        <time>2017-09-17T13:12:33Z</time>
      </trkpt>
      <trkpt lat="37.98898751847446" lon="12.348383953794837">
        <ele>22.25</ele>
        <time>2017-09-17T13:12:44Z</time>
      </trkpt>
      <trkpt lat="37.989002522081137" lon="12.348258392885327">
        <ele>21.289999999999999</ele>
        <time>2017-09-17T13:12:56Z</time>
      </trkpt>
      <trkpt lat="37.989017860963941" lon="12.348196031525731">
        <ele>21.77</ele>
        <time>2017-09-17T13:13:02Z</time>
      </trkpt>
      <trkpt lat="37.989063709974289" lon="12.348114056512713">
        <ele>23.210000000000001</ele>
        <time>2017-09-17T13:13:11Z</time>
      </trkpt>
      <trkpt lat="37.989096399396658" lon="12.348008193075657">
        <ele>23.690000000000001</ele>
        <time>2017-09-17T13:13:21Z</time>
      </trkpt>
      <trkpt lat="37.98911458812654" lon="12.347939545288682">
        <ele>23.690000000000001</ele>
        <time>2017-09-17T13:13:29Z</time>
      </trkpt>
      <trkpt lat="37.989149121567607" lon="12.347811469808221">
        <ele>22.73</ele>
        <time>2017-09-17T13:13:40Z</time>
      </trkpt>
      <trkpt lat="37.989154737442732" lon="12.347662774845958">
        <ele>21.77</ele>
        <time>2017-09-17T13:13:53Z</time>
      </trkpt>
      <trkpt lat="37.989155240356922" lon="12.347610723227262">
        <ele>22.25</ele>
        <time>2017-09-17T13:13:57Z</time>
      </trkpt>
      <trkpt lat="37.989207878708839" lon="12.347424561157823">
        <ele>21.289999999999999</ele>
        <time>2017-09-17T13:14:12Z</time>
      </trkpt>
      <trkpt lat="37.98924945294857" lon="12.347315344959497">
        <ele>21.289999999999999</ele>
        <time>2017-09-17T13:14:21Z</time>
      </trkpt>
      <trkpt lat="37.989308629184961" lon="12.347140582278371">
        <ele>18.399999999999999</ele>
        <time>2017-09-17T13:14:36Z</time>
      </trkpt>
      <trkpt lat="37.989377779886127" lon="12.346951570361853">
        <ele>16.960000000000001</ele>
        <time>2017-09-17T13:14:51Z</time>
      </trkpt>
      <trkpt lat="37.989440727978945" lon="12.346814107149839">
        <ele>17.440000000000001</ele>
        <time>2017-09-17T13:15:03Z</time>
      </trkpt>
      <trkpt lat="37.989512477070093" lon="12.346647474914789">
        <ele>17.920000000000002</ele>
        <time>2017-09-17T13:15:17Z</time>
      </trkpt>
      <trkpt lat="37.989558326080441" lon="12.346507245674729">
        <ele>17.440000000000001</ele>
        <time>2017-09-17T13:15:28Z</time>
      </trkpt>
      <trkpt lat="37.989605432376266" lon="12.346327202394605">
        <ele>16.48</ele>
        <time>2017-09-17T13:15:41Z</time>
      </trkpt>
      <trkpt lat="37.989644072949886" lon="12.346149003133178">
        <ele>16</ele>
        <time>2017-09-17T13:15:54Z</time>
      </trkpt>
      <trkpt lat="37.9897072724998" lon="12.345949932932854">
        <ele>16</ele>
        <time>2017-09-17T13:16:09Z</time>
      </trkpt>
      <trkpt lat="37.989771729335189" lon="12.345771985128522">
        <ele>15.52</ele>
        <time>2017-09-17T13:16:23Z</time>
      </trkpt>
      <trkpt lat="37.989830570295453" lon="12.345598731189966">
        <ele>16.48</ele>
        <time>2017-09-17T13:16:36Z</time>
      </trkpt>
      <trkpt lat="37.989859152585268" lon="12.345505692064762">
        <ele>16.48</ele>
        <time>2017-09-17T13:16:43Z</time>
      </trkpt>
      <trkpt lat="37.989885220304132" lon="12.345330091193318">
        <ele>16</ele>
        <time>2017-09-17T13:16:56Z</time>
      </trkpt>
      <trkpt lat="37.989885555580258" lon="12.34512641094625">
        <ele>15.52</ele>
        <time>2017-09-17T13:17:11Z</time>
      </trkpt>
      <trkpt lat="37.989890668541193" lon="12.344944439828396">
        <ele>16</ele>
        <time>2017-09-17T13:17:24Z</time>
      </trkpt>
      <trkpt lat="37.989888237789273" lon="12.344935722649097">
        <ele>16</ele>
        <time>2017-09-17T13:17:25Z</time>
      </trkpt>
      <trkpt lat="37.989857895299792" lon="12.344855591654778">
        <ele>16.960000000000001</ele>
        <time>2017-09-17T13:17:32Z</time>
      </trkpt>
      <trkpt lat="37.989763263612986" lon="12.344753416255116">
        <ele>17.440000000000001</ele>
        <time>2017-09-17T13:17:45Z</time>
      </trkpt>
      <trkpt lat="37.989670559763908" lon="12.344697089865804">
        <ele>17.440000000000001</ele>
        <time>2017-09-17T13:17:55Z</time>
      </trkpt>
      <trkpt lat="37.989548183977604" lon="12.344640931114554">
        <ele>17.440000000000001</ele>
        <time>2017-09-17T13:18:08Z</time>
      </trkpt>
      <trkpt lat="37.989463107660413" lon="12.344622323289514">
        <ele>16.960000000000001</ele>
        <time>2017-09-17T13:18:16Z</time>
      </trkpt>
      <trkpt lat="37.989333104342222" lon="12.344612684100866">
        <ele>16.48</ele>
        <time>2017-09-17T13:18:27Z</time>
      </trkpt>
      <trkpt lat="37.989204861223698" lon="12.344590807333589">
        <ele>16.960000000000001</ele>
        <time>2017-09-17T13:18:40Z</time>
      </trkpt>
      <trkpt lat="37.989049796015024" lon="12.344556860625744">
        <ele>16.48</ele>
        <time>2017-09-17T13:18:54Z</time>
      </trkpt>
      <trkpt lat="37.988898083567619" lon="12.344491481781006">
        <ele>15.52</ele>
        <time>2017-09-17T13:19:09Z</time>
      </trkpt>
      <trkpt lat="37.988792806863785" lon="12.344445548951626">
        <ele>16</ele>
        <time>2017-09-17T13:19:19Z</time>
      </trkpt>
      <trkpt lat="37.988647213205695" lon="12.344429455697536">
        <ele>16</ele>
        <time>2017-09-17T13:19:34Z</time>
      </trkpt>
      <trkpt lat="37.988514862954617" lon="12.344434317201376">
        <ele>16.960000000000001</ele>
        <time>2017-09-17T13:19:48Z</time>
      </trkpt>
      <trkpt lat="37.988451076671481" lon="12.344429790973663">
        <ele>16.48</ele>
        <time>2017-09-17T13:19:54Z</time>
      </trkpt>
      <trkpt lat="37.988389134407043" lon="12.344418810680509">
        <ele>16</ele>
        <time>2017-09-17T13:20:00Z</time>
      </trkpt>
      <trkpt lat="37.988258125260472" lon="12.34441545791924">
        <ele>16.48</ele>
        <time>2017-09-17T13:20:12Z</time>
      </trkpt>
      <trkpt lat="37.988156201317906" lon="12.344393413513899">
        <ele>16</ele>
        <time>2017-09-17T13:20:23Z</time>
      </trkpt>
      <trkpt lat="37.988023431971669" lon="12.344375727698207">
        <ele>16</ele>
        <time>2017-09-17T13:20:36Z</time>
      </trkpt>
      <trkpt lat="37.987910360097885" lon="12.34434898942709">
        <ele>15.039999999999999</ele>
        <time>2017-09-17T13:20:47Z</time>
      </trkpt>
      <trkpt lat="37.987832576036453" lon="12.344330465421081">
        <ele>14.56</ele>
        <time>2017-09-17T13:20:55Z</time>
      </trkpt>
      <trkpt lat="37.987781194970012" lon="12.344322670251131">
        <ele>16.960000000000001</ele>
        <time>2017-09-17T13:21:00Z</time>
      </trkpt>
      <trkpt lat="37.98766577616334" lon="12.344287298619747">
        <ele>15.039999999999999</ele>
        <time>2017-09-17T13:21:12Z</time>
      </trkpt>
      <trkpt lat="37.987544406205416" lon="12.344187973067164">
        <ele>15.52</ele>
        <time>2017-09-17T13:21:25Z</time>
      </trkpt>
      <trkpt lat="37.98744197934866" lon="12.344110105186701">
        <ele>15.039999999999999</ele>
        <time>2017-09-17T13:21:37Z</time>
      </trkpt>
      <trkpt lat="37.987321531400084" lon="12.344072638079524">
        <ele>14.56</ele>
        <time>2017-09-17T13:21:49Z</time>
      </trkpt>
      <trkpt lat="37.987171160057187" lon="12.344048917293549">
        <ele>14.56</ele>
        <time>2017-09-17T13:22:04Z</time>
      </trkpt>
      <trkpt lat="37.987044593319297" lon="12.344009354710579">
        <ele>15.039999999999999</ele>
        <time>2017-09-17T13:22:17Z</time>
      </trkpt>
      <trkpt lat="37.986927749589086" lon="12.343935174867511">
        <ele>15.52</ele>
        <time>2017-09-17T13:22:30Z</time>
      </trkpt>
      <trkpt lat="37.986888019368052" lon="12.343898043036461">
        <ele>15.52</ele>
        <time>2017-09-17T13:22:35Z</time>
      </trkpt>
      <trkpt lat="37.986809313297272" lon="12.343759825453162">
        <ele>15.52</ele>
        <time>2017-09-17T13:22:48Z</time>
      </trkpt>
      <trkpt lat="37.986801266670227" lon="12.343548098579049">
        <ele>15.52</ele>
        <time>2017-09-17T13:23:03Z</time>
      </trkpt>
      <trkpt lat="37.986811157315969" lon="12.343490179628134">
        <ele>15.039999999999999</ele>
        <time>2017-09-17T13:23:08Z</time>
      </trkpt>
      <trkpt lat="37.986848121508956" lon="12.343309046700597">
        <ele>15.52</ele>
        <time>2017-09-17T13:23:22Z</time>
      </trkpt>
      <trkpt lat="37.986870333552361" lon="12.343228496611118">
        <ele>15.52</ele>
        <time>2017-09-17T13:23:28Z</time>
      </trkpt>
      <trkpt lat="37.986918613314629" lon="12.343029929324985">
        <ele>15.52</ele>
        <time>2017-09-17T13:23:43Z</time>
      </trkpt>
      <trkpt lat="37.986951805651188" lon="12.342858603224158">
        <ele>14.56</ele>
        <time>2017-09-17T13:23:56Z</time>
      </trkpt>
      <trkpt lat="37.986974352970719" lon="12.342688785865903">
        <ele>15.039999999999999</ele>
        <time>2017-09-17T13:24:10Z</time>
      </trkpt>
      <trkpt lat="37.986980052664876" lon="12.3425870295614">
        <ele>15.52</ele>
        <time>2017-09-17T13:24:19Z</time>
      </trkpt>
      <trkpt lat="37.986959349364042" lon="12.342440513893962">
        <ele>15.52</ele>
        <time>2017-09-17T13:24:31Z</time>
      </trkpt>
      <trkpt lat="37.986959517002106" lon="12.342378152534366">
        <ele>15.52</ele>
        <time>2017-09-17T13:24:36Z</time>
      </trkpt>
      <trkpt lat="37.986925235018134" lon="12.342364154756069">
        <ele>15.52</ele>
        <time>2017-09-17T13:24:46Z</time>
      </trkpt>
      <trkpt lat="37.986928084865212" lon="12.342367423698306">
        <ele>15.039999999999999</ele>
        <time>2017-09-17T13:24:56Z</time>
      </trkpt>
      <trkpt lat="37.986909057945013" lon="12.342375218868256">
        <ele>15.039999999999999</ele>
        <time>2017-09-17T13:25:11Z</time>
      </trkpt>
      <trkpt lat="37.986910147592425" lon="12.342372452840209">
        <ele>16</ele>
        <time>2017-09-17T13:25:29Z</time>
      </trkpt>
      <trkpt lat="37.986920373514295" lon="12.342377649620175">
        <ele>15.039999999999999</ele>
        <time>2017-09-17T13:25:40Z</time>
      </trkpt>
      <trkpt lat="37.986922720447183" lon="12.34239399433136">
        <ele>15.039999999999999</ele>
        <time>2017-09-17T13:25:54Z</time>
      </trkpt>
    </trkseg>
  </trk>

  <trk>
    <name>2017-09-18isola Marettimo</name>
    <extensions>
      <gpxx:TrackExtension>
        <gpxx:DisplayColor>Yellow</gpxx:DisplayColor>
      </gpxx:TrackExtension>
    </extensions>
    <trkseg>
      <trkpt lat="37.967339744791389" lon="12.075355276465416">
        <ele>8.789999999999999</ele>
        <time>2017-09-18T07:59:09Z</time>
      </trkpt>
      <trkpt lat="37.967409649863839" lon="12.075282018631697">
        <ele>8.310000000000001</ele>
        <time>2017-09-18T07:59:20Z</time>
      </trkpt>
      <trkpt lat="37.967468742281199" lon="12.075207084417343">
        <ele>8.310000000000001</ele>
        <time>2017-09-18T07:59:30Z</time>
      </trkpt>
      <trkpt lat="37.967537306249142" lon="12.075104070827365">
        <ele>8.310000000000001</ele>
        <time>2017-09-18T07:59:42Z</time>
      </trkpt>
      <trkpt lat="37.967579551041126" lon="12.075001057237387">
        <ele>8.310000000000001</ele>
        <time>2017-09-18T07:59:54Z</time>
      </trkpt>
      <trkpt lat="37.967522889375687" lon="12.074951520189643">
        <ele>8.789999999999999</ele>
        <time>2017-09-18T08:00:03Z</time>
      </trkpt>
      <trkpt lat="37.967453990131617" lon="12.074803244322538">
        <ele>8.789999999999999</ele>
        <time>2017-09-18T08:00:18Z</time>
      </trkpt>
      <trkpt lat="37.967412583529949" lon="12.074661757797003">
        <ele>9.27</ele>
        <time>2017-09-18T08:00:31Z</time>
      </trkpt>
      <trkpt lat="37.967399591580033" lon="12.074556648731232">
        <ele>9.75</ele>
        <time>2017-09-18T08:00:41Z</time>
      </trkpt>
      <trkpt lat="37.967408895492554" lon="12.074556816369295">
        <ele>9.75</ele>
        <time>2017-09-18T08:00:56Z</time>
      </trkpt>
      <trkpt lat="37.967380899935961" lon="12.074526557698846">
        <ele>9.75</ele>
        <time>2017-09-18T08:01:06Z</time>
      </trkpt>
      <trkpt lat="37.967386180534959" lon="12.074416084215045">
        <ele>10.710000000000001</ele>
        <time>2017-09-18T08:01:18Z</time>
      </trkpt>
      <trkpt lat="37.96739942394197" lon="12.074383059516549">
        <ele>10.710000000000001</ele>
        <time>2017-09-18T08:01:31Z</time>
      </trkpt>
      <trkpt lat="37.96737452968955" lon="12.074250709265471">
        <ele>10.710000000000001</ele>
        <time>2017-09-18T08:01:43Z</time>
      </trkpt>
      <trkpt lat="37.96739892102778" lon="12.074165549129248">
        <ele>11.19</ele>
        <time>2017-09-18T08:01:51Z</time>
      </trkpt>
      <trkpt lat="37.967487517744303" lon="12.074089106172323">
        <ele>11.67</ele>
        <time>2017-09-18T08:02:05Z</time>
      </trkpt>
      <trkpt lat="37.967610815539956" lon="12.074081981554627">
        <ele>11.67</ele>
        <time>2017-09-18T08:02:22Z</time>
      </trkpt>
      <trkpt lat="37.967653814703226" lon="12.074110563844442">
        <ele>11.19</ele>
        <time>2017-09-18T08:02:37Z</time>
      </trkpt>
      <trkpt lat="37.967707375064492" lon="12.074051722884178">
        <ele>11.19</ele>
        <time>2017-09-18T08:02:48Z</time>
      </trkpt>
      <trkpt lat="37.967882305383682" lon="12.073976201936603">
        <ele>10.710000000000001</ele>
        <time>2017-09-18T08:03:00Z</time>
      </trkpt>
      <trkpt lat="37.967895800247788" lon="12.073974022641778">
        <ele>11.19</ele>
        <time>2017-09-18T08:03:01Z</time>
      </trkpt>
      <trkpt lat="37.968036364763975" lon="12.073935717344284">
        <ele>10.23</ele>
        <time>2017-09-18T08:03:15Z</time>
      </trkpt>
      <trkpt lat="37.968137115240097" lon="12.073957258835435">
        <ele>10.23</ele>
        <time>2017-09-18T08:03:27Z</time>
      </trkpt>
      <trkpt lat="37.968214731663465" lon="12.073945440351963">
        <ele>9.75</ele>
        <time>2017-09-18T08:03:41Z</time>
      </trkpt>
      <trkpt lat="37.968313470482826" lon="12.07393990829587">
        <ele>9.75</ele>
        <time>2017-09-18T08:03:53Z</time>
      </trkpt>
      <trkpt lat="37.968408688902855" lon="12.073880396783352">
        <ele>9.75</ele>
        <time>2017-09-18T08:04:03Z</time>
      </trkpt>
      <trkpt lat="37.968560736626387" lon="12.073775790631771">
        <ele>9.27</ele>
        <time>2017-09-18T08:04:17Z</time>
      </trkpt>
      <trkpt lat="37.968631479889154" lon="12.073730863630772">
        <ele>9.27</ele>
        <time>2017-09-18T08:04:23Z</time>
      </trkpt>
      <trkpt lat="37.968678334727883" lon="12.073648888617754">
        <ele>9.27</ele>
        <time>2017-09-18T08:04:30Z</time>
      </trkpt>
      <trkpt lat="37.968780258670449" lon="12.073497092351317">
        <ele>8.789999999999999</ele>
        <time>2017-09-18T08:04:44Z</time>
      </trkpt>
      <trkpt lat="37.968881009146571" lon="12.073339428752661">
        <ele>8.789999999999999</ele>
        <time>2017-09-18T08:04:58Z</time>
      </trkpt>
      <trkpt lat="37.968887882307172" lon="12.073328197002411">
        <ele>8.310000000000001</ele>
        <time>2017-09-18T08:04:59Z</time>
      </trkpt>
      <trkpt lat="37.968871453776956" lon="12.073213616386056">
        <ele>8.789999999999999</ele>
        <time>2017-09-18T08:05:10Z</time>
      </trkpt>
      <trkpt lat="37.968862485140562" lon="12.073117475956678">
        <ele>8.789999999999999</ele>
        <time>2017-09-18T08:05:20Z</time>
      </trkpt>
      <trkpt lat="37.968877656385303" lon="12.073021419346333">
        <ele>9.75</ele>
        <time>2017-09-18T08:05:29Z</time>
      </trkpt>
      <trkpt lat="37.968906406313181" lon="12.072913460433483">
        <ele>10.710000000000001</ele>
        <time>2017-09-18T08:05:40Z</time>
      </trkpt>
      <trkpt lat="37.968935240060091" lon="12.07284145988524">
        <ele>13.119999999999999</ele>
        <time>2017-09-18T08:05:48Z</time>
      </trkpt>
      <trkpt lat="37.968969941139221" lon="12.072655968368053">
        <ele>12.15</ele>
        <time>2017-09-18T08:06:03Z</time>
      </trkpt>
      <trkpt lat="37.968990560621023" lon="12.072540298104286">
        <ele>13.119999999999999</ele>
        <time>2017-09-18T08:06:14Z</time>
      </trkpt>
      <trkpt lat="37.969041941687465" lon="12.072446253150702">
        <ele>13.119999999999999</ele>
        <time>2017-09-18T08:06:25Z</time>
      </trkpt>
      <trkpt lat="37.969023250043392" lon="12.072430746629834">
        <ele>13.119999999999999</ele>
        <time>2017-09-18T08:06:39Z</time>
      </trkpt>
      <trkpt lat="37.969019897282124" lon="12.072435524314642">
        <ele>13.119999999999999</ele>
        <time>2017-09-18T08:06:40Z</time>
      </trkpt>
      <trkpt lat="37.968994500115514" lon="12.072457149624825">
        <ele>13.119999999999999</ele>
        <time>2017-09-18T08:06:44Z</time>
      </trkpt>
      <trkpt lat="37.968995086848736" lon="12.072503166273236">
        <ele>13.6</ele>
        <time>2017-09-18T08:06:56Z</time>
      </trkpt>
      <trkpt lat="37.96893423423171" lon="12.072427561506629">
        <ele>15.039999999999999</ele>
        <time>2017-09-18T08:07:05Z</time>
      </trkpt>
      <trkpt lat="37.968867346644402" lon="12.07227953709662">
        <ele>16.960000000000001</ele>
        <time>2017-09-18T08:07:19Z</time>
      </trkpt>
      <trkpt lat="37.968845972791314" lon="12.072216840460896">
        <ele>17.440000000000001</ele>
        <time>2017-09-18T08:07:24Z</time>
      </trkpt>
      <trkpt lat="37.968784449622035" lon="12.072081808000803">
        <ele>18.879999999999999</ele>
        <time>2017-09-18T08:07:37Z</time>
      </trkpt>
      <trkpt lat="37.968732817098498" lon="12.071967897936702">
        <ele>20.809999999999999</ele>
        <time>2017-09-18T08:07:48Z</time>
      </trkpt>
      <trkpt lat="37.968696020543575" lon="12.071833284571767">
        <ele>21.289999999999999</ele>
        <time>2017-09-18T08:08:00Z</time>
      </trkpt>
      <trkpt lat="37.968659056350589" lon="12.071724236011505">
        <ele>22.73</ele>
        <time>2017-09-18T08:08:12Z</time>
      </trkpt>
      <trkpt lat="37.968654865399003" lon="12.071658773347735">
        <ele>23.210000000000001</ele>
        <time>2017-09-18T08:08:18Z</time>
      </trkpt>
      <trkpt lat="37.968577416613698" lon="12.07152265124023">
        <ele>24.649999999999999</ele>
        <time>2017-09-18T08:08:31Z</time>
      </trkpt>
      <trkpt lat="37.968578422442079" lon="12.071411591023207">
        <ele>25.609999999999999</ele>
        <time>2017-09-18T08:08:40Z</time>
      </trkpt>
      <trkpt lat="37.968575237318873" lon="12.07140052691102">
        <ele>25.609999999999999</ele>
        <time>2017-09-18T08:08:41Z</time>
      </trkpt>
      <trkpt lat="37.968552438542247" lon="12.071265913546085">
        <ele>27.530000000000001</ele>
        <time>2017-09-18T08:08:52Z</time>
      </trkpt>
      <trkpt lat="37.96851983293891" lon="12.071164241060615">
        <ele>28.5</ele>
        <time>2017-09-18T08:09:02Z</time>
      </trkpt>
      <trkpt lat="37.968479851260781" lon="12.071118392050266">
        <ele>28.98</ele>
        <time>2017-09-18T08:09:10Z</time>
      </trkpt>
      <trkpt lat="37.968423524871469" lon="12.071069357916713">
        <ele>30.420000000000002</ele>
        <time>2017-09-18T08:09:21Z</time>
      </trkpt>
      <trkpt lat="37.968384465202689" lon="12.071022419258952">
        <ele>31.379999999999999</ele>
        <time>2017-09-18T08:09:29Z</time>
      </trkpt>
      <trkpt lat="37.968351943418384" lon="12.070975564420223">
        <ele>32.340000000000003</ele>
        <time>2017-09-18T08:09:39Z</time>
      </trkpt>
      <trkpt lat="37.968326797708869" lon="12.070949329063296">
        <ele>33.780000000000001</ele>
        <time>2017-09-18T08:09:52Z</time>
      </trkpt>
      <trkpt lat="37.968306010589004" lon="12.070876155048609">
        <ele>35.229999999999997</ele>
        <time>2017-09-18T08:10:05Z</time>
      </trkpt>
      <trkpt lat="37.968310033902526" lon="12.070841621607542">
        <ele>36.189999999999998</ele>
        <time>2017-09-18T08:10:20Z</time>
      </trkpt>
      <trkpt lat="37.968270974233747" lon="12.070835921913385">
        <ele>36.670000000000002</ele>
        <time>2017-09-18T08:10:31Z</time>
      </trkpt>
      <trkpt lat="37.968262257054448" lon="12.070841873064637">
        <ele>36.670000000000002</ele>
        <time>2017-09-18T08:10:50Z</time>
      </trkpt>
      <trkpt lat="37.96826628036797" lon="12.070852098986506">
        <ele>36.670000000000002</ele>
        <time>2017-09-18T08:11:09Z</time>
      </trkpt>
      <trkpt lat="37.968254126608372" lon="12.070835754275322">
        <ele>36.670000000000002</ele>
        <time>2017-09-18T08:11:33Z</time>
      </trkpt>
      <trkpt lat="37.968262005597353" lon="12.070862408727407">
        <ele>37.149999999999999</ele>
        <time>2017-09-18T08:11:52Z</time>
      </trkpt>
      <trkpt lat="37.96825404278934" lon="12.070856038480997">
        <ele>36.670000000000002</ele>
        <time>2017-09-18T08:12:14Z</time>
      </trkpt>
      <trkpt lat="37.968243565410376" lon="12.070852853357792">
        <ele>36.670000000000002</ele>
        <time>2017-09-18T08:12:35Z</time>
      </trkpt>
      <trkpt lat="37.968257060274482" lon="12.070838687941432">
        <ele>36.670000000000002</ele>
        <time>2017-09-18T08:12:57Z</time>
      </trkpt>
      <trkpt lat="37.968243565410376" lon="12.070835335180163">
        <ele>37.149999999999999</ele>
        <time>2017-09-18T08:13:24Z</time>
      </trkpt>
      <trkpt lat="37.968238200992346" lon="12.070839861407876">
        <ele>36.670000000000002</ele>
        <time>2017-09-18T08:13:34Z</time>
      </trkpt>
      <trkpt lat="37.968182042241096" lon="12.07081027328968">
        <ele>36.670000000000002</ele>
        <time>2017-09-18T08:13:45Z</time>
      </trkpt>
      <trkpt lat="37.968162931501865" lon="12.070875652134418">
        <ele>37.149999999999999</ele>
        <time>2017-09-18T08:13:55Z</time>
      </trkpt>
      <trkpt lat="37.968178102746606" lon="12.070951089262962">
        <ele>36.670000000000002</ele>
        <time>2017-09-18T08:14:02Z</time>
      </trkpt>
      <trkpt lat="37.96819151379168" lon="12.071084696799517">
        <ele>37.149999999999999</ele>
        <time>2017-09-18T08:14:13Z</time>
      </trkpt>
      <trkpt lat="37.968177516013384" lon="12.071149321272969">
        <ele>37.630000000000003</ele>
        <time>2017-09-18T08:14:24Z</time>
      </trkpt>
      <trkpt lat="37.968156393617392" lon="12.071296088397503">
        <ele>39.549999999999997</ele>
        <time>2017-09-18T08:14:36Z</time>
      </trkpt>
      <trkpt lat="37.968144323676825" lon="12.071379153057933">
        <ele>40.509999999999998</ele>
        <time>2017-09-18T08:14:43Z</time>
      </trkpt>
      <trkpt lat="37.96812797896564" lon="12.071485016494989">
        <ele>41.950000000000003</ele>
        <time>2017-09-18T08:14:54Z</time>
      </trkpt>
      <trkpt lat="37.968098893761635" lon="12.071566740050912">
        <ele>42.920000000000002</ele>
        <time>2017-09-18T08:15:04Z</time>
      </trkpt>
      <trkpt lat="37.968097301200032" lon="12.071626586839557">
        <ele>43.399999999999999</ele>
        <time>2017-09-18T08:15:16Z</time>
      </trkpt>
      <trkpt lat="37.968056481331587" lon="12.071697916835546">
        <ele>44.840000000000003</ele>
        <time>2017-09-18T08:15:28Z</time>
      </trkpt>
      <trkpt lat="37.96800535172224" lon="12.071771342307329">
        <ele>45.799999999999997</ele>
        <time>2017-09-18T08:15:40Z</time>
      </trkpt>
      <trkpt lat="37.967948103323579" lon="12.07183931954205">
        <ele>48.68</ele>
        <time>2017-09-18T08:15:52Z</time>
      </trkpt>
      <trkpt lat="37.967894040048122" lon="12.071879552677274">
        <ele>49.159999999999997</ele>
        <time>2017-09-18T08:16:03Z</time>
      </trkpt>
      <trkpt lat="37.967795971781015" lon="12.071904949843884">
        <ele>51.57</ele>
        <time>2017-09-18T08:16:17Z</time>
      </trkpt>
      <trkpt lat="37.967713912948966" lon="12.07190964370966">
        <ele>53.490000000000002</ele>
        <time>2017-09-18T08:16:29Z</time>
      </trkpt>
      <trkpt lat="37.967632692307234" lon="12.071898160502315">
        <ele>54.93</ele>
        <time>2017-09-18T08:16:41Z</time>
      </trkpt>
      <trkpt lat="37.967563793063164" lon="12.071890868246555">
        <ele>56.369999999999997</ele>
        <time>2017-09-18T08:16:52Z</time>
      </trkpt>
      <trkpt lat="37.967494977638125" lon="12.071870248764753">
        <ele>58.299999999999997</ele>
        <time>2017-09-18T08:17:04Z</time>
      </trkpt>
      <trkpt lat="37.967415349557996" lon="12.071853401139379">
        <ele>60.219999999999999</ele>
        <time>2017-09-18T08:17:16Z</time>
      </trkpt>
      <trkpt lat="37.967333039268851" lon="12.071829680353403">
        <ele>61.659999999999997</ele>
        <time>2017-09-18T08:17:30Z</time>
      </trkpt>
      <trkpt lat="37.967272773385048" lon="12.071800343692303">
        <ele>62.619999999999997</ele>
        <time>2017-09-18T08:17:42Z</time>
      </trkpt>
      <trkpt lat="37.967237485572696" lon="12.071791710332036">
        <ele>63.579999999999998</ele>
        <time>2017-09-18T08:17:57Z</time>
      </trkpt>
      <trkpt lat="37.967181913554668" lon="12.071817694231868">
        <ele>64.069999999999993</ele>
        <time>2017-09-18T08:18:08Z</time>
      </trkpt>
      <trkpt lat="37.967167580500245" lon="12.071847198531032">
        <ele>64.549999999999997</ele>
        <time>2017-09-18T08:18:18Z</time>
      </trkpt>
      <trkpt lat="37.967157522216439" lon="12.07181534729898">
        <ele>65.030000000000001</ele>
        <time>2017-09-18T08:18:28Z</time>
      </trkpt>
      <trkpt lat="37.967164060100913" lon="12.071813251823187">
        <ele>64.549999999999997</ele>
        <time>2017-09-18T08:18:41Z</time>
      </trkpt>
      <trkpt lat="37.967181075364351" lon="12.071795985102654">
        <ele>64.069999999999993</ele>
        <time>2017-09-18T08:18:50Z</time>
      </trkpt>
      <trkpt lat="37.967200521379709" lon="12.071769079193473">
        <ele>64.069999999999993</ele>
        <time>2017-09-18T08:19:01Z</time>
      </trkpt>
      <trkpt lat="37.967218374833465" lon="12.071778969839215">
        <ele>64.069999999999993</ele>
        <time>2017-09-18T08:19:13Z</time>
      </trkpt>
      <trkpt lat="37.967218793928623" lon="12.071786932647228">
        <ele>63.579999999999998</ele>
        <time>2017-09-18T08:19:25Z</time>
      </trkpt>
      <trkpt lat="37.96722399070859" lon="12.071773856878281">
        <ele>64.069999999999993</ele>
        <time>2017-09-18T08:19:35Z</time>
      </trkpt>
      <trkpt lat="37.967234384268522" lon="12.071780059486628">
        <ele>64.069999999999993</ele>
        <time>2017-09-18T08:19:57Z</time>
      </trkpt>
      <trkpt lat="37.96723622828722" lon="12.071776119992137">
        <ele>64.069999999999993</ele>
        <time>2017-09-18T08:20:12Z</time>
      </trkpt>
      <trkpt lat="37.967229103669524" lon="12.071774862706661">
        <ele>64.069999999999993</ele>
        <time>2017-09-18T08:20:33Z</time>
      </trkpt>
      <trkpt lat="37.967228014022112" lon="12.071783998981118">
        <ele>64.069999999999993</ele>
        <time>2017-09-18T08:21:00Z</time>
      </trkpt>
      <trkpt lat="37.967232959344983" lon="12.071778299286962">
        <ele>64.069999999999993</ele>
        <time>2017-09-18T08:21:20Z</time>
      </trkpt>
      <trkpt lat="37.967235473915935" lon="12.071793973445892">
        <ele>64.549999999999997</ele>
        <time>2017-09-18T08:21:40Z</time>
      </trkpt>
      <trkpt lat="37.967232875525951" lon="12.07178751938045">
        <ele>65.510000000000005</ele>
        <time>2017-09-18T08:21:55Z</time>
      </trkpt>
      <trkpt lat="37.967234887182713" lon="12.071781903505325">
        <ele>64.549999999999997</ele>
        <time>2017-09-18T08:22:12Z</time>
      </trkpt>
      <trkpt lat="37.967224074527621" lon="12.071765223518014">
        <ele>65.030000000000001</ele>
        <time>2017-09-18T08:22:22Z</time>
      </trkpt>
      <trkpt lat="37.967232037335634" lon="12.071717279031873">
        <ele>65.030000000000001</ele>
        <time>2017-09-18T08:22:32Z</time>
      </trkpt>
      <trkpt lat="37.967225415632129" lon="12.071765307337046">
        <ele>65.030000000000001</ele>
        <time>2017-09-18T08:22:45Z</time>
      </trkpt>
      <trkpt lat="37.967223823070526" lon="12.071786345914006">
        <ele>64.549999999999997</ele>
        <time>2017-09-18T08:22:59Z</time>
      </trkpt>
      <trkpt lat="37.967231953516603" lon="12.071789614856243">
        <ele>64.549999999999997</ele>
        <time>2017-09-18T08:23:18Z</time>
      </trkpt>
      <trkpt lat="37.967224242165685" lon="12.071781903505325">
        <ele>65.030000000000001</ele>
        <time>2017-09-18T08:23:39Z</time>
      </trkpt>
      <trkpt lat="37.967226756736636" lon="12.071779053658247">
        <ele>65.030000000000001</ele>
        <time>2017-09-18T08:24:01Z</time>
      </trkpt>
      <trkpt lat="37.967231199145317" lon="12.07179045304656">
        <ele>65.030000000000001</ele>
        <time>2017-09-18T08:24:18Z</time>
      </trkpt>
      <trkpt lat="37.967232540249825" lon="12.071790704503655">
        <ele>65.030000000000001</ele>
        <time>2017-09-18T08:24:35Z</time>
      </trkpt>
      <trkpt lat="37.967229941859841" lon="12.071787687018514">
        <ele>65.030000000000001</ele>
        <time>2017-09-18T08:24:56Z</time>
      </trkpt>
      <trkpt lat="37.967233881354332" lon="12.071802020072937">
        <ele>65.510000000000005</ele>
        <time>2017-09-18T08:25:11Z</time>
      </trkpt>
      <trkpt lat="37.967231282964349" lon="12.071773940697312">
        <ele>65.510000000000005</ele>
        <time>2017-09-18T08:25:26Z</time>
      </trkpt>
      <trkpt lat="37.967225667089224" lon="12.071782071143389">
        <ele>65.510000000000005</ele>
        <time>2017-09-18T08:25:45Z</time>
      </trkpt>
      <trkpt lat="37.967222984880209" lon="12.071799086406827">
        <ele>65.030000000000001</ele>
        <time>2017-09-18T08:26:04Z</time>
      </trkpt>
      <trkpt lat="37.967233126983047" lon="12.071806965395808">
        <ele>65.510000000000005</ele>
        <time>2017-09-18T08:26:22Z</time>
      </trkpt>
      <trkpt lat="37.9672269243747" lon="12.071775449439883">
        <ele>65.510000000000005</ele>
        <time>2017-09-18T08:26:34Z</time>
      </trkpt>
      <trkpt lat="37.967246202751994" lon="12.071763882413507">
        <ele>65.510000000000005</ele>
        <time>2017-09-18T08:26:50Z</time>
      </trkpt>
      <trkpt lat="37.967272102832794" lon="12.071814173832536">
        <ele>64.549999999999997</ele>
        <time>2017-09-18T08:27:01Z</time>
      </trkpt>
      <trkpt lat="37.967239329591393" lon="12.071780059486628">
        <ele>65.030000000000001</ele>
        <time>2017-09-18T08:27:11Z</time>
      </trkpt>
      <trkpt lat="37.967224325984716" lon="12.071778383105993">
        <ele>65.510000000000005</ele>
        <time>2017-09-18T08:27:21Z</time>
      </trkpt>
      <trkpt lat="37.967212842777371" lon="12.071767151355743">
        <ele>65.510000000000005</ele>
        <time>2017-09-18T08:27:36Z</time>
      </trkpt>
      <trkpt lat="37.967208987101912" lon="12.071714093908668">
        <ele>65.989999999999995</ele>
        <time>2017-09-18T08:27:53Z</time>
      </trkpt>
      <trkpt lat="37.96721669845283" lon="12.071742760017514">
        <ele>65.989999999999995</ele>
        <time>2017-09-18T08:28:11Z</time>
      </trkpt>
      <trkpt lat="37.967209238559008" lon="12.071628766134381">
        <ele>67.430000000000007</ele>
        <time>2017-09-18T08:28:23Z</time>
      </trkpt>
      <trkpt lat="37.967201862484217" lon="12.071531787514687">
        <ele>69.349999999999994</ele>
        <time>2017-09-18T08:28:36Z</time>
      </trkpt>
      <trkpt lat="37.967187697067857" lon="12.071435479447246">
        <ele>71.269999999999996</ele>
        <time>2017-09-18T08:28:48Z</time>
      </trkpt>
      <trkpt lat="37.967194905504584" lon="12.071334477514029">
        <ele>73.680000000000007</ele>
        <time>2017-09-18T08:29:01Z</time>
      </trkpt>
      <trkpt lat="37.967191636562347" lon="12.071249485015869">
        <ele>75.120000000000005</ele>
        <time>2017-09-18T08:29:13Z</time>
      </trkpt>
      <trkpt lat="37.967173866927624" lon="12.071154434233904">
        <ele>77.040000000000006</ele>
        <time>2017-09-18T08:29:25Z</time>
      </trkpt>
      <trkpt lat="37.967133801430464" lon="12.071080338209867">
        <ele>78.480000000000004</ele>
        <time>2017-09-18T08:29:38Z</time>
      </trkpt>
      <trkpt lat="37.967096753418446" lon="12.071008002385497">
        <ele>79.450000000000003</ele>
        <time>2017-09-18T08:29:50Z</time>
      </trkpt>
      <trkpt lat="37.967056604102254" lon="12.070924770087004">
        <ele>80.890000000000001</ele>
        <time>2017-09-18T08:30:02Z</time>
      </trkpt>
      <trkpt lat="37.966996841132641" lon="12.070822091773152">
        <ele>82.810000000000002</ele>
        <time>2017-09-18T08:30:14Z</time>
      </trkpt>
      <trkpt lat="37.96691763214767" lon="12.070787725970149">
        <ele>84.25</ele>
        <time>2017-09-18T08:30:26Z</time>
      </trkpt>
      <trkpt lat="37.966886200010777" lon="12.070860648527741">
        <ele>85.689999999999998</ele>
        <time>2017-09-18T08:30:34Z</time>
      </trkpt>
      <trkpt lat="37.966843284666538" lon="12.070975983515382">
        <ele>87.620000000000005</ele>
        <time>2017-09-18T08:30:46Z</time>
      </trkpt>
      <trkpt lat="37.96679207123816" lon="12.07101889885962">
        <ele>88.579999999999998</ele>
        <time>2017-09-18T08:30:53Z</time>
      </trkpt>
      <trkpt lat="37.966692745685577" lon="12.071002721786499">
        <ele>89.540000000000006</ele>
        <time>2017-09-18T08:31:05Z</time>
      </trkpt>
      <trkpt lat="37.966615213081241" lon="12.070949915796518">
        <ele>90.980000000000004</ele>
        <time>2017-09-18T08:31:16Z</time>
      </trkpt>
      <trkpt lat="37.96660247258842" lon="12.070936588570476">
        <ele>91.459999999999994</ele>
        <time>2017-09-18T08:31:18Z</time>
      </trkpt>
      <trkpt lat="37.966527035459876" lon="12.070866096764803">
        <ele>92.900000000000006</ele>
        <time>2017-09-18T08:31:30Z</time>
      </trkpt>
      <trkpt lat="37.966469032689929" lon="12.07081463187933">
        <ele>93.870000000000005</ele>
        <time>2017-09-18T08:31:40Z</time>
      </trkpt>
      <trkpt lat="37.966419495642185" lon="12.070766016840935">
        <ele>95.310000000000002</ele>
        <time>2017-09-18T08:31:49Z</time>
      </trkpt>
      <trkpt lat="37.966366270557046" lon="12.070708768442273">
        <ele>96.269999999999996</ele>
        <time>2017-09-18T08:31:58Z</time>
      </trkpt>
      <trkpt lat="37.966312961652875" lon="12.070651268586516">
        <ele>97.709999999999994</ele>
        <time>2017-09-18T08:32:07Z</time>
      </trkpt>
      <trkpt lat="37.96625311486423" lon="12.070587398484349">
        <ele>99.629999999999995</ele>
        <time>2017-09-18T08:32:18Z</time>
      </trkpt>
      <trkpt lat="37.966165021061897" lon="12.070503663271666">
        <ele>101.56</ele>
        <time>2017-09-18T08:32:31Z</time>
      </trkpt>
      <trkpt lat="37.966094026342034" lon="12.07043593749404">
        <ele>103.48</ele>
        <time>2017-09-18T08:32:43Z</time>
      </trkpt>
      <trkpt lat="37.966023702174425" lon="12.070386568084359">
        <ele>104.92</ele>
        <time>2017-09-18T08:32:55Z</time>
      </trkpt>
      <trkpt lat="37.965939631685615" lon="12.070389585569501">
        <ele>106.84</ele>
        <time>2017-09-18T08:33:07Z</time>
      </trkpt>
      <trkpt lat="37.965877521783113" lon="12.070393357425928">
        <ele>108.77</ele>
        <time>2017-09-18T08:33:18Z</time>
      </trkpt>
      <trkpt lat="37.965880455449224" lon="12.07039738073945">
        <ele>108.29000000000001</ele>
        <time>2017-09-18T08:33:22Z</time>
      </trkpt>
      <trkpt lat="37.96576302498579" lon="12.070425041019917">
        <ele>110.20999999999999</ele>
        <time>2017-09-18T08:33:33Z</time>
      </trkpt>
      <trkpt lat="37.965668141841888" lon="12.070421269163489">
        <ele>111.65000000000001</ele>
        <time>2017-09-18T08:33:44Z</time>
      </trkpt>
      <trkpt lat="37.965602176263928" lon="12.070333091542125">
        <ele>113.56999999999999</ele>
        <time>2017-09-18T08:33:57Z</time>
      </trkpt>
      <trkpt lat="37.96563109382987" lon="12.070235526189208">
        <ele>115.5</ele>
        <time>2017-09-18T08:34:08Z</time>
      </trkpt>
      <trkpt lat="37.965664118528366" lon="12.070171907544136">
        <ele>116.45999999999999</ele>
        <time>2017-09-18T08:34:15Z</time>
      </trkpt>
      <trkpt lat="37.965681636705995" lon="12.070123543962836">
        <ele>117.42</ele>
        <time>2017-09-18T08:34:20Z</time>
      </trkpt>
      <trkpt lat="37.965725474059582" lon="12.070019859820604">
        <ele>117.90000000000001</ele>
        <time>2017-09-18T08:34:30Z</time>
      </trkpt>
      <trkpt lat="37.965776938945055" lon="12.069923216477036">
        <ele>119.81999999999999</ele>
        <time>2017-09-18T08:34:42Z</time>
      </trkpt>
      <trkpt lat="37.965833265334368" lon="12.069853395223618">
        <ele>120.78</ele>
        <time>2017-09-18T08:34:52Z</time>
      </trkpt>
      <trkpt lat="37.965897135436535" lon="12.069780137389898">
        <ele>121.73999999999999</ele>
        <time>2017-09-18T08:35:05Z</time>
      </trkpt>
      <trkpt lat="37.965932926163077" lon="12.069668155163527">
        <ele>123.67</ele>
        <time>2017-09-18T08:35:16Z</time>
      </trkpt>
      <trkpt lat="37.965947091579437" lon="12.069525998085737">
        <ele>125.11</ele>
        <time>2017-09-18T08:35:28Z</time>
      </trkpt>
      <trkpt lat="37.965945499017835" lon="12.069374788552523">
        <ele>127.03</ele>
        <time>2017-09-18T08:35:41Z</time>
      </trkpt>
      <trkpt lat="37.965945582836866" lon="12.069205055013299">
        <ele>128.94999999999999</ele>
        <time>2017-09-18T08:35:55Z</time>
      </trkpt>
      <trkpt lat="37.965992772951722" lon="12.069122325628996">
        <ele>128.94999999999999</ele>
        <time>2017-09-18T08:36:06Z</time>
      </trkpt>
      <trkpt lat="37.966003501787782" lon="12.069111261516809">
        <ele>130.40000000000001</ele>
        <time>2017-09-18T08:36:08Z</time>
      </trkpt>
      <trkpt lat="37.966052368283272" lon="12.069065244868398">
        <ele>131.36000000000001</ele>
        <time>2017-09-18T08:36:21Z</time>
      </trkpt>
      <trkpt lat="37.966045076027513" lon="12.069077147170901">
        <ele>131.84</ele>
        <time>2017-09-18T08:36:38Z</time>
      </trkpt>
      <trkpt lat="37.966102240607142" lon="12.069020485505462">
        <ele>132.31999999999999</ele>
        <time>2017-09-18T08:36:51Z</time>
      </trkpt>
      <trkpt lat="37.966242805123329" lon="12.068966925144196">
        <ele>132.80000000000001</ele>
        <time>2017-09-18T08:37:05Z</time>
      </trkpt>
      <trkpt lat="37.966320086270571" lon="12.068956531584263">
        <ele>133.28</ele>
        <time>2017-09-18T08:37:17Z</time>
      </trkpt>
      <trkpt lat="37.966318828985095" lon="12.068939013406634">
        <ele>133.28</ele>
        <time>2017-09-18T08:37:30Z</time>
      </trkpt>
      <trkpt lat="37.966321092098951" lon="12.068956112489104">
        <ele>133.28</ele>
        <time>2017-09-18T08:37:42Z</time>
      </trkpt>
      <trkpt lat="37.966314302757382" lon="12.068986035883427">
        <ele>133.28</ele>
        <time>2017-09-18T08:37:57Z</time>
      </trkpt>
      <trkpt lat="37.966343052685261" lon="12.069011013954878">
        <ele>133.75999999999999</ele>
        <time>2017-09-18T08:38:08Z</time>
      </trkpt>
      <trkpt lat="37.96643097884953" lon="12.068994585424662">
        <ele>135.19999999999999</ele>
        <time>2017-09-18T08:38:18Z</time>
      </trkpt>
      <trkpt lat="37.966524101793766" lon="12.068994250148535">
        <ele>136.63999999999999</ele>
        <time>2017-09-18T08:38:30Z</time>
      </trkpt>
      <trkpt lat="37.966626528650522" lon="12.068978240713477">
        <ele>138.09</ele>
        <time>2017-09-18T08:38:42Z</time>
      </trkpt>
      <trkpt lat="37.966690985485911" lon="12.068896098062396">
        <ele>140.00999999999999</ele>
        <time>2017-09-18T08:38:54Z</time>
      </trkpt>
      <trkpt lat="37.966761309653521" lon="12.068826360628009">
        <ele>141.44999999999999</ele>
        <time>2017-09-18T08:39:05Z</time>
      </trkpt>
      <trkpt lat="37.966696098446846" lon="12.068811524659395">
        <ele>142.88999999999999</ele>
        <time>2017-09-18T08:39:15Z</time>
      </trkpt>
      <trkpt lat="37.966603729873896" lon="12.068846728652716">
        <ele>144.34</ele>
        <time>2017-09-18T08:39:26Z</time>
      </trkpt>
      <trkpt lat="37.966529214754701" lon="12.068787217140198">
        <ele>146.25999999999999</ele>
        <time>2017-09-18T08:39:38Z</time>
      </trkpt>
      <trkpt lat="37.966466601938009" lon="12.06871303729713">
        <ele>148.18000000000001</ele>
        <time>2017-09-18T08:39:50Z</time>
      </trkpt>
      <trkpt lat="37.966387057676911" lon="12.068639108911157">
        <ele>151.06</ele>
        <time>2017-09-18T08:40:03Z</time>
      </trkpt>
      <trkpt lat="37.966300137341022" lon="12.068559313192964">
        <ele>152.03</ele>
        <time>2017-09-18T08:40:16Z</time>
      </trkpt>
      <trkpt lat="37.966240793466568" lon="12.068507764488459">
        <ele>153.47</ele>
        <time>2017-09-18T08:40:28Z</time>
      </trkpt>
      <trkpt lat="37.966165104880929" lon="12.068449426442385">
        <ele>155.38999999999999</ele>
        <time>2017-09-18T08:40:40Z</time>
      </trkpt>
      <trkpt lat="37.966086231172085" lon="12.068378264084458">
        <ele>156.83000000000001</ele>
        <time>2017-09-18T08:40:52Z</time>
      </trkpt>
      <trkpt lat="37.966033928096294" lon="12.068316824734211">
        <ele>157.78999999999999</ele>
        <time>2017-09-18T08:41:01Z</time>
      </trkpt>
      <trkpt lat="37.965980786830187" lon="12.068239795044065">
        <ele>159.72</ele>
        <time>2017-09-18T08:41:14Z</time>
      </trkpt>
      <trkpt lat="37.965906942263246" lon="12.068151533603668">
        <ele>161.16</ele>
        <time>2017-09-18T08:41:26Z</time>
      </trkpt>
      <trkpt lat="37.965937368571758" lon="12.068118676543236">
        <ele>163.08000000000001</ele>
        <time>2017-09-18T08:41:35Z</time>
      </trkpt>
      <trkpt lat="37.96597114764154" lon="12.06812328658998">
        <ele>164.03999999999999</ele>
        <time>2017-09-18T08:41:39Z</time>
      </trkpt>
      <trkpt lat="37.966051697731018" lon="12.068150527775288">
        <ele>165</ele>
        <time>2017-09-18T08:41:49Z</time>
      </trkpt>
      <trkpt lat="37.966098971664906" lon="12.068165447562933">
        <ele>165.47999999999999</ele>
        <time>2017-09-18T08:41:56Z</time>
      </trkpt>
      <trkpt lat="37.966226544231176" lon="12.068188162520528">
        <ele>167.41</ele>
        <time>2017-09-18T08:42:09Z</time>
      </trkpt>
      <trkpt lat="37.966328300535679" lon="12.068197214975953">
        <ele>169.33000000000001</ele>
        <time>2017-09-18T08:42:22Z</time>
      </trkpt>
      <trkpt lat="37.966422764584422" lon="12.06817701458931">
        <ele>171.25</ele>
        <time>2017-09-18T08:42:34Z</time>
      </trkpt>
      <trkpt lat="37.966506667435169" lon="12.068122029304504">
        <ele>173.66</ele>
        <time>2017-09-18T08:42:48Z</time>
      </trkpt>
      <trkpt lat="37.966593755409122" lon="12.068036450073123">
        <ele>175.58000000000001</ele>
        <time>2017-09-18T08:43:02Z</time>
      </trkpt>
      <trkpt lat="37.96660540625453" lon="12.067966545000672">
        <ele>176.06</ele>
        <time>2017-09-18T08:43:12Z</time>
      </trkpt>
      <trkpt lat="37.966591073200107" lon="12.067911056801677">
        <ele>176.53999999999999</ele>
        <time>2017-09-18T08:43:25Z</time>
      </trkpt>
      <trkpt lat="37.966625187546015" lon="12.067788345739245">
        <ele>177.5</ele>
        <time>2017-09-18T08:43:38Z</time>
      </trkpt>
      <trkpt lat="37.966630551964045" lon="12.067680722102523">
        <ele>179.41999999999999</ele>
        <time>2017-09-18T08:43:49Z</time>
      </trkpt>
      <trkpt lat="37.966638514772058" lon="12.067580055445433">
        <ele>181.34999999999999</ele>
        <time>2017-09-18T08:44:00Z</time>
      </trkpt>
      <trkpt lat="37.966710180044174" lon="12.06752029247582">
        <ele>182.78999999999999</ele>
        <time>2017-09-18T08:44:13Z</time>
      </trkpt>
      <trkpt lat="37.966796681284904" lon="12.067426079884171">
        <ele>184.71000000000001</ele>
        <time>2017-09-18T08:44:25Z</time>
      </trkpt>
      <trkpt lat="37.966863317415118" lon="12.06733119674027">
        <ele>187.11000000000001</ele>
        <time>2017-09-18T08:44:41Z</time>
      </trkpt>
      <trkpt lat="37.966893995180726" lon="12.067262129858136">
        <ele>188.08000000000001</ele>
        <time>2017-09-18T08:44:52Z</time>
      </trkpt>
      <trkpt lat="37.966962894424796" lon="12.067177891731262">
        <ele>190</ele>
        <time>2017-09-18T08:45:04Z</time>
      </trkpt>
      <trkpt lat="37.966997176408768" lon="12.067133467644453">
        <ele>191.44</ele>
        <time>2017-09-18T08:45:15Z</time>
      </trkpt>
      <trkpt lat="37.967019220814109" lon="12.067059455439448">
        <ele>192.40000000000001</ele>
        <time>2017-09-18T08:45:25Z</time>
      </trkpt>
      <trkpt lat="37.967050736770034" lon="12.066934900358319">
        <ele>194.31999999999999</ele>
        <time>2017-09-18T08:45:37Z</time>
      </trkpt>
      <trkpt lat="37.967061549425125" lon="12.066871030256152">
        <ele>195.28</ele>
        <time>2017-09-18T08:45:43Z</time>
      </trkpt>
      <trkpt lat="37.967081917449832" lon="12.066767765209079">
        <ele>196.25</ele>
        <time>2017-09-18T08:45:52Z</time>
      </trkpt>
      <trkpt lat="37.967105135321617" lon="12.066782517358661">
        <ele>195.77000000000001</ele>
        <time>2017-09-18T08:46:03Z</time>
      </trkpt>
      <trkpt lat="37.967131957411766" lon="12.06678151153028">
        <ele>196.25</ele>
        <time>2017-09-18T08:46:21Z</time>
      </trkpt>
      <trkpt lat="37.967107146978378" lon="12.066798359155655">
        <ele>196.25</ele>
        <time>2017-09-18T08:46:33Z</time>
      </trkpt>
      <trkpt lat="37.967095328494906" lon="12.066816044971347">
        <ele>196.25</ele>
        <time>2017-09-18T08:46:45Z</time>
      </trkpt>
      <trkpt lat="37.967097172513604" lon="12.066765837371349">
        <ele>196.25</ele>
        <time>2017-09-18T08:46:56Z</time>
      </trkpt>
      <trkpt lat="37.96709792688489" lon="12.066730884835124">
        <ele>197.69</ele>
        <time>2017-09-18T08:47:06Z</time>
      </trkpt>
      <trkpt lat="37.967120725661516" lon="12.066730381920934">
        <ele>197.21000000000001</ele>
        <time>2017-09-18T08:47:20Z</time>
      </trkpt>
      <trkpt lat="37.96712240204215" lon="12.066691070795059">
        <ele>197.69</ele>
        <time>2017-09-18T08:47:32Z</time>
      </trkpt>
      <trkpt lat="37.967160707339644" lon="12.066599037498236">
        <ele>198.65000000000001</ele>
        <time>2017-09-18T08:47:41Z</time>
      </trkpt>
      <trkpt lat="37.967202365398407" lon="12.066507842391729">
        <ele>199.61000000000001</ele>
        <time>2017-09-18T08:47:51Z</time>
      </trkpt>
      <trkpt lat="37.967252237722278" lon="12.066434919834137">
        <ele>200.56999999999999</ele>
        <time>2017-09-18T08:48:02Z</time>
      </trkpt>
      <trkpt lat="37.967359023168683" lon="12.066437266767025">
        <ele>202.49000000000001</ele>
        <time>2017-09-18T08:48:14Z</time>
      </trkpt>
      <trkpt lat="37.967376206070185" lon="12.066434333100915">
        <ele>202.49000000000001</ele>
        <time>2017-09-18T08:48:16Z</time>
      </trkpt>
      <trkpt lat="37.967458181083202" lon="12.066405080258846">
        <ele>202.97999999999999</ele>
        <time>2017-09-18T08:48:28Z</time>
      </trkpt>
      <trkpt lat="37.967526912689209" lon="12.066405415534973">
        <ele>203.94</ele>
        <time>2017-09-18T08:48:38Z</time>
      </trkpt>
      <trkpt lat="37.9676310159266" lon="12.066387478262186">
        <ele>205.38</ele>
        <time>2017-09-18T08:48:49Z</time>
      </trkpt>
      <trkpt lat="37.967707542702556" lon="12.066382197663188">
        <ele>206.81999999999999</ele>
        <time>2017-09-18T08:48:59Z</time>
      </trkpt>
      <trkpt lat="37.967721037566662" lon="12.066372642293572">
        <ele>207.30000000000001</ele>
        <time>2017-09-18T08:49:01Z</time>
      </trkpt>
      <trkpt lat="37.967773508280516" lon="12.066360404714942">
        <ele>208.25999999999999</ele>
        <time>2017-09-18T08:49:10Z</time>
      </trkpt>
      <trkpt lat="37.96781768091023" lon="12.066330816596746">
        <ele>208.74000000000001</ele>
        <time>2017-09-18T08:49:21Z</time>
      </trkpt>
      <trkpt lat="37.967898230999708" lon="12.066259738057852">
        <ele>210.19</ele>
        <time>2017-09-18T08:49:33Z</time>
      </trkpt>
      <trkpt lat="37.967975931242108" lon="12.066189916804433">
        <ele>211.63</ele>
        <time>2017-09-18T08:49:45Z</time>
      </trkpt>
      <trkpt lat="37.96806687489152" lon="12.066119927912951">
        <ele>213.55000000000001</ele>
        <time>2017-09-18T08:49:59Z</time>
      </trkpt>
      <trkpt lat="37.968168715015054" lon="12.066089082509279">
        <ele>214.99000000000001</ele>
        <time>2017-09-18T08:50:11Z</time>
      </trkpt>
      <trkpt lat="37.968264939263463" lon="12.06609109416604">
        <ele>216.43000000000001</ele>
        <time>2017-09-18T08:50:23Z</time>
      </trkpt>
      <trkpt lat="37.968365689739585" lon="12.066080030053854">
        <ele>218.36000000000001</ele>
        <time>2017-09-18T08:50:36Z</time>
      </trkpt>
      <trkpt lat="37.968446239829063" lon="12.066045664250851">
        <ele>219.80000000000001</ele>
        <time>2017-09-18T08:50:47Z</time>
      </trkpt>
      <trkpt lat="37.968535088002682" lon="12.065983805805445">
        <ele>220.75999999999999</ele>
        <time>2017-09-18T08:50:59Z</time>
      </trkpt>
      <trkpt lat="37.968567190691829" lon="12.065947093069553">
        <ele>221.24000000000001</ele>
        <time>2017-09-18T08:51:09Z</time>
      </trkpt>
      <trkpt lat="37.968655368313193" lon="12.065865118056536">
        <ele>222.68000000000001</ele>
        <time>2017-09-18T08:51:20Z</time>
      </trkpt>
      <trkpt lat="37.968725692480803" lon="12.06578716635704">
        <ele>224.12</ele>
        <time>2017-09-18T08:51:31Z</time>
      </trkpt>
      <trkpt lat="37.9687793366611" lon="12.065727235749364">
        <ele>225.09</ele>
        <time>2017-09-18T08:51:40Z</time>
      </trkpt>
      <trkpt lat="37.968846056610346" lon="12.065616426989436">
        <ele>226.53</ele>
        <time>2017-09-18T08:51:52Z</time>
      </trkpt>
      <trkpt lat="37.968914369121194" lon="12.065519699826837">
        <ele>227.97</ele>
        <time>2017-09-18T08:52:04Z</time>
      </trkpt>
      <trkpt lat="37.968967258930206" lon="12.065453315153718">
        <ele>228.93000000000001</ele>
        <time>2017-09-18T08:52:13Z</time>
      </trkpt>
      <trkpt lat="37.969026770442724" lon="12.065348792821169">
        <ele>229.88999999999999</ele>
        <time>2017-09-18T08:52:24Z</time>
      </trkpt>
      <trkpt lat="37.969088042154908" lon="12.065246533602476">
        <ele>230.84999999999999</ele>
        <time>2017-09-18T08:52:34Z</time>
      </trkpt>
      <trkpt lat="37.969097765162587" lon="12.065225914120674">
        <ele>230.84999999999999</ele>
        <time>2017-09-18T08:52:36Z</time>
      </trkpt>
      <trkpt lat="37.969142524525523" lon="12.065148968249559">
        <ele>231.33000000000001</ele>
        <time>2017-09-18T08:52:44Z</time>
      </trkpt>
      <trkpt lat="37.969184182584286" lon="12.065022401511669">
        <ele>232.30000000000001</ele>
        <time>2017-09-18T08:52:55Z</time>
      </trkpt>
      <trkpt lat="37.969217961654067" lon="12.065018797293305">
        <ele>232.30000000000001</ele>
        <time>2017-09-18T08:53:05Z</time>
      </trkpt>
      <trkpt lat="37.969230534508824" lon="12.064992729574442">
        <ele>232.30000000000001</ele>
        <time>2017-09-18T08:53:17Z</time>
      </trkpt>
      <trkpt lat="37.969259200617671" lon="12.064950652420521">
        <ele>232.78</ele>
        <time>2017-09-18T08:53:26Z</time>
      </trkpt>
      <trkpt lat="37.969299769029021" lon="12.064889967441559">
        <ele>233.25999999999999</ele>
        <time>2017-09-18T08:53:38Z</time>
      </trkpt>
      <trkpt lat="37.96937788836658" lon="12.064784942194819">
        <ele>234.22</ele>
        <time>2017-09-18T08:53:51Z</time>
      </trkpt>
      <trkpt lat="37.969487439841032" lon="12.064689891412854">
        <ele>235.18000000000001</ele>
        <time>2017-09-18T08:54:04Z</time>
      </trkpt>
      <trkpt lat="37.969584167003632" lon="12.064637336879969">
        <ele>236.62</ele>
        <time>2017-09-18T08:54:15Z</time>
      </trkpt>
      <trkpt lat="37.969650970771909" lon="12.064587716013193">
        <ele>238.06</ele>
        <time>2017-09-18T08:54:25Z</time>
      </trkpt>
      <trkpt lat="37.969764797016978" lon="12.064534742385149">
        <ele>239.50999999999999</ele>
        <time>2017-09-18T08:54:38Z</time>
      </trkpt>
      <trkpt lat="37.969850040972233" lon="12.064497023820877">
        <ele>240.94999999999999</ele>
        <time>2017-09-18T08:54:48Z</time>
      </trkpt>
      <trkpt lat="37.969917431473732" lon="12.064473386853933">
        <ele>242.38999999999999</ele>
        <time>2017-09-18T08:54:58Z</time>
      </trkpt>
      <trkpt lat="37.969915168359876" lon="12.06445075571537">
        <ele>242.87</ele>
        <time>2017-09-18T08:55:09Z</time>
      </trkpt>
      <trkpt lat="37.969946265220642" lon="12.064441787078977">
        <ele>243.83000000000001</ele>
        <time>2017-09-18T08:55:24Z</time>
      </trkpt>
      <trkpt lat="37.969999993219972" lon="12.064415467903018">
        <ele>244.78999999999999</ele>
        <time>2017-09-18T08:55:35Z</time>
      </trkpt>
      <trkpt lat="37.970073753967881" lon="12.064384538680315">
        <ele>245.75</ele>
        <time>2017-09-18T08:55:47Z</time>
      </trkpt>
      <trkpt lat="37.970132008194923" lon="12.064392836764455">
        <ele>246.22999999999999</ele>
        <time>2017-09-18T08:55:57Z</time>
      </trkpt>
      <trkpt lat="37.970101162791252" lon="12.064352435991168">
        <ele>248.16</ele>
        <time>2017-09-18T08:56:10Z</time>
      </trkpt>
      <trkpt lat="37.970166625455022" lon="12.064318573102355">
        <ele>247.19999999999999</ele>
        <time>2017-09-18T08:56:20Z</time>
      </trkpt>
      <trkpt lat="37.970224460586905" lon="12.064358303323388">
        <ele>246.72</ele>
        <time>2017-09-18T08:56:30Z</time>
      </trkpt>
      <trkpt lat="37.970242733135819" lon="12.064378084614873">
        <ele>246.72</ele>
        <time>2017-09-18T08:56:41Z</time>
      </trkpt>
      <trkpt lat="37.970268130302429" lon="12.06437598913908">
        <ele>245.75</ele>
        <time>2017-09-18T08:56:51Z</time>
      </trkpt>
      <trkpt lat="37.970260418951511" lon="12.064417647197843">
        <ele>245.75</ele>
        <time>2017-09-18T08:56:59Z</time>
      </trkpt>
      <trkpt lat="37.970265867188573" lon="12.064398117363453">
        <ele>246.22999999999999</ele>
        <time>2017-09-18T08:57:12Z</time>
      </trkpt>
      <trkpt lat="37.970259664580226" lon="12.064386382699013">
        <ele>246.72</ele>
        <time>2017-09-18T08:57:23Z</time>
      </trkpt>
      <trkpt lat="37.970245080068707" lon="12.064395016059279">
        <ele>246.72</ele>
        <time>2017-09-18T08:57:39Z</time>
      </trkpt>
      <trkpt lat="37.970274919643998" lon="12.064411276951432">
        <ele>246.22999999999999</ele>
        <time>2017-09-18T08:57:54Z</time>
      </trkpt>
      <trkpt lat="37.970384052023292" lon="12.06443072296679">
        <ele>245.75</ele>
        <time>2017-09-18T08:58:07Z</time>
      </trkpt>
      <trkpt lat="37.9703957028687" lon="12.064470201730728">
        <ele>245.27000000000001</ele>
        <time>2017-09-18T08:58:18Z</time>
      </trkpt>
      <trkpt lat="37.970386147499084" lon="12.064466513693333">
        <ele>245.27000000000001</ele>
        <time>2017-09-18T08:58:33Z</time>
      </trkpt>
      <trkpt lat="37.970387320965528" lon="12.064485540613532">
        <ele>245.75</ele>
        <time>2017-09-18T08:58:46Z</time>
      </trkpt>
      <trkpt lat="37.970355888828635" lon="12.064441284164786">
        <ele>245.75</ele>
        <time>2017-09-18T08:58:58Z</time>
      </trkpt>
      <trkpt lat="37.970341555774212" lon="12.064437931403518">
        <ele>245.75</ele>
        <time>2017-09-18T08:59:00Z</time>
      </trkpt>
      <trkpt lat="37.97027257271111" lon="12.064449833706021">
        <ele>245.75</ele>
        <time>2017-09-18T08:59:08Z</time>
      </trkpt>
      <trkpt lat="37.970252120867372" lon="12.064409516751766">
        <ele>246.22999999999999</ele>
        <time>2017-09-18T08:59:18Z</time>
      </trkpt>
      <trkpt lat="37.970262262970209" lon="12.064381772652268">
        <ele>246.22999999999999</ele>
        <time>2017-09-18T08:59:32Z</time>
      </trkpt>
      <trkpt lat="37.970258323475718" lon="12.064393423497677">
        <ele>246.72</ele>
        <time>2017-09-18T08:59:52Z</time>
      </trkpt>
      <trkpt lat="37.970248935744166" lon="12.064414545893669">
        <ele>246.72</ele>
        <time>2017-09-18T09:00:08Z</time>
      </trkpt>
      <trkpt lat="37.970242984592915" lon="12.064398536458611">
        <ele>246.72</ele>
        <time>2017-09-18T09:00:26Z</time>
      </trkpt>
      <trkpt lat="37.970242900773883" lon="12.064409852027893">
        <ele>246.72</ele>
        <time>2017-09-18T09:00:42Z</time>
      </trkpt>
      <trkpt lat="37.970265783369541" lon="12.064413372427225">
        <ele>246.72</ele>
        <time>2017-09-18T09:00:57Z</time>
      </trkpt>
      <trkpt lat="37.970250947400928" lon="12.064515296369791">
        <ele>245.27000000000001</ele>
        <time>2017-09-18T09:01:11Z</time>
      </trkpt>
      <trkpt lat="37.970289420336485" lon="12.064531054347754">
        <ele>245.27000000000001</ele>
        <time>2017-09-18T09:01:20Z</time>
      </trkpt>
      <trkpt lat="37.970320349559188" lon="12.064512865617871">
        <ele>244.31</ele>
        <time>2017-09-18T09:01:35Z</time>
      </trkpt>
      <trkpt lat="37.970309872180223" lon="12.064557205885649">
        <ele>244.78999999999999</ele>
        <time>2017-09-18T09:01:51Z</time>
      </trkpt>
      <trkpt lat="37.970307860523462" lon="12.064575981348753">
        <ele>244.78999999999999</ele>
        <time>2017-09-18T09:01:57Z</time>
      </trkpt>
      <trkpt lat="37.970254803076386" lon="12.064496940001845">
        <ele>244.31</ele>
        <time>2017-09-18T09:02:10Z</time>
      </trkpt>
      <trkpt lat="37.97028916887939" lon="12.064553936943412">
        <ele>244.31</ele>
        <time>2017-09-18T09:02:20Z</time>
      </trkpt>
      <trkpt lat="37.970279194414616" lon="12.064596181735396">
        <ele>244.31</ele>
        <time>2017-09-18T09:02:38Z</time>
      </trkpt>
      <trkpt lat="37.97028673812747" lon="12.064590062946081">
        <ele>244.31</ele>
        <time>2017-09-18T09:02:54Z</time>
      </trkpt>
      <trkpt lat="37.970321606844664" lon="12.064604563638568">
        <ele>244.31</ele>
        <time>2017-09-18T09:03:04Z</time>
      </trkpt>
      <trkpt lat="37.970323618501425" lon="12.06457145512104">
        <ele>244.78999999999999</ele>
        <time>2017-09-18T09:03:19Z</time>
      </trkpt>
      <trkpt lat="37.97026913613081" lon="12.064615041017532">
        <ele>244.78999999999999</ele>
        <time>2017-09-18T09:03:28Z</time>
      </trkpt>
      <trkpt lat="37.970260670408607" lon="12.064585788175464">
        <ele>244.78999999999999</ele>
        <time>2017-09-18T09:03:41Z</time>
      </trkpt>
      <trkpt lat="37.970254803076386" lon="12.064590649679303">
        <ele>244.78999999999999</ele>
        <time>2017-09-18T09:03:58Z</time>
      </trkpt>
      <trkpt lat="37.970326635986567" lon="12.064612442627549">
        <ele>245.27000000000001</ele>
        <time>2017-09-18T09:04:10Z</time>
      </trkpt>
      <trkpt lat="37.970331246033311" lon="12.064597774296999">
        <ele>245.27000000000001</ele>
        <time>2017-09-18T09:04:26Z</time>
      </trkpt>
      <trkpt lat="37.970349015668035" lon="12.06459391862154">
        <ele>245.27000000000001</ele>
        <time>2017-09-18T09:04:43Z</time>
      </trkpt>
      <trkpt lat="37.970420513302088" lon="12.064585285261273">
        <ele>245.75</ele>
        <time>2017-09-18T09:04:54Z</time>
      </trkpt>
      <trkpt lat="37.970442473888397" lon="12.064582435414195">
        <ele>245.27000000000001</ele>
        <time>2017-09-18T09:05:05Z</time>
      </trkpt>
      <trkpt lat="37.970489831641316" lon="12.064587883651257">
        <ele>245.27000000000001</ele>
        <time>2017-09-18T09:05:23Z</time>
      </trkpt>
      <trkpt lat="37.970529645681381" lon="12.06457338295877">
        <ele>244.78999999999999</ele>
        <time>2017-09-18T09:05:34Z</time>
      </trkpt>
      <trkpt lat="37.970568705350161" lon="12.06456801854074">
        <ele>243.83000000000001</ele>
        <time>2017-09-18T09:05:41Z</time>
      </trkpt>
      <trkpt lat="37.970614721998572" lon="12.06457925029099">
        <ele>242.38999999999999</ele>
        <time>2017-09-18T09:05:51Z</time>
      </trkpt>
      <trkpt lat="37.970586726441979" lon="12.064585871994495">
        <ele>242.38999999999999</ele>
        <time>2017-09-18T09:06:07Z</time>
      </trkpt>
      <trkpt lat="37.970593348145485" lon="12.064553769305348">
        <ele>242.87</ele>
        <time>2017-09-18T09:06:24Z</time>
      </trkpt>
      <trkpt lat="37.970569962635636" lon="12.06451621837914">
        <ele>244.31</ele>
        <time>2017-09-18T09:06:35Z</time>
      </trkpt>
      <trkpt lat="37.970572058111429" lon="12.064514374360442">
        <ele>244.31</ele>
        <time>2017-09-18T09:06:51Z</time>
      </trkpt>
      <trkpt lat="37.970584211871028" lon="12.064489983022213">
        <ele>245.27000000000001</ele>
        <time>2017-09-18T09:07:03Z</time>
      </trkpt>
      <trkpt lat="37.970546577125788" lon="12.064553601667285">
        <ele>245.27000000000001</ele>
        <time>2017-09-18T09:07:11Z</time>
      </trkpt>
      <trkpt lat="37.9705252032727" lon="12.064566090703011">
        <ele>245.27000000000001</ele>
        <time>2017-09-18T09:07:13Z</time>
      </trkpt>
      <trkpt lat="37.970420932397246" lon="12.06453868187964">
        <ele>246.22999999999999</ele>
        <time>2017-09-18T09:07:24Z</time>
      </trkpt>
      <trkpt lat="37.970410874113441" lon="12.06448738463223">
        <ele>246.72</ele>
        <time>2017-09-18T09:07:29Z</time>
      </trkpt>
      <trkpt lat="37.970357397571206" lon="12.064438182860613">
        <ele>247.68000000000001</ele>
        <time>2017-09-18T09:07:40Z</time>
      </trkpt>
      <trkpt lat="37.970348848029971" lon="12.064436255022883">
        <ele>247.68000000000001</ele>
        <time>2017-09-18T09:07:41Z</time>
      </trkpt>
      <trkpt lat="37.970264023169875" lon="12.0645372569561">
        <ele>246.72</ele>
        <time>2017-09-18T09:07:54Z</time>
      </trkpt>
      <trkpt lat="37.970277015119791" lon="12.064543124288321">
        <ele>246.72</ele>
        <time>2017-09-18T09:08:01Z</time>
      </trkpt>
      <trkpt lat="37.97031020745635" lon="12.064602551981807">
        <ele>246.22999999999999</ele>
        <time>2017-09-18T09:08:11Z</time>
      </trkpt>
      <trkpt lat="37.970319930464029" lon="12.064601210877299">
        <ele>246.22999999999999</ele>
        <time>2017-09-18T09:08:33Z</time>
      </trkpt>
      <trkpt lat="37.970297718420625" lon="12.064638175070286">
        <ele>246.22999999999999</ele>
        <time>2017-09-18T09:08:52Z</time>
      </trkpt>
      <trkpt lat="37.970275590196252" lon="12.064575394615531">
        <ele>247.19999999999999</ele>
        <time>2017-09-18T09:09:04Z</time>
      </trkpt>
      <trkpt lat="37.970275841653347" lon="12.064571958035231">
        <ele>247.68000000000001</ele>
        <time>2017-09-18T09:09:14Z</time>
      </trkpt>
      <trkpt lat="37.970266034826636" lon="12.064575729891658">
        <ele>247.19999999999999</ele>
        <time>2017-09-18T09:09:28Z</time>
      </trkpt>
      <trkpt lat="37.970260754227638" lon="12.064561145380139">
        <ele>246.72</ele>
        <time>2017-09-18T09:09:37Z</time>
      </trkpt>
      <trkpt lat="37.97026377171278" lon="12.06454262137413">
        <ele>246.72</ele>
        <time>2017-09-18T09:09:57Z</time>
      </trkpt>
      <trkpt lat="37.970256144180894" lon="12.064549159258604">
        <ele>246.72</ele>
        <time>2017-09-18T09:09:59Z</time>
      </trkpt>
      <trkpt lat="37.970258658751845" lon="12.064556116238236">
        <ele>246.72</ele>
        <time>2017-09-18T09:10:08Z</time>
      </trkpt>
      <trkpt lat="37.970263101160526" lon="12.064549075439572">
        <ele>247.19999999999999</ele>
        <time>2017-09-18T09:10:24Z</time>
      </trkpt>
      <trkpt lat="37.970252120867372" lon="12.064554942771792">
        <ele>247.19999999999999</ele>
        <time>2017-09-18T09:10:37Z</time>
      </trkpt>
      <trkpt lat="37.970264693722129" lon="12.064560810104012">
        <ele>247.19999999999999</ele>
        <time>2017-09-18T09:10:51Z</time>
      </trkpt>
      <trkpt lat="37.970258072018623" lon="12.064557457342744">
        <ele>247.19999999999999</ele>
        <time>2017-09-18T09:11:07Z</time>
      </trkpt>
      <trkpt lat="37.970273159444332" lon="12.064556200057268">
        <ele>247.19999999999999</ele>
        <time>2017-09-18T09:11:29Z</time>
      </trkpt>
      <trkpt lat="37.970259916037321" lon="12.064566174522042">
        <ele>247.19999999999999</ele>
        <time>2017-09-18T09:11:52Z</time>
      </trkpt>
      <trkpt lat="37.970263520255685" lon="12.064551506191492">
        <ele>247.68000000000001</ele>
        <time>2017-09-18T09:12:15Z</time>
      </trkpt>
      <trkpt lat="37.970240134745836" lon="12.064546728506684">
        <ele>247.19999999999999</ele>
        <time>2017-09-18T09:12:33Z</time>
      </trkpt>
      <trkpt lat="37.970251869410276" lon="12.064466513693333">
        <ele>248.63999999999999</ele>
        <time>2017-09-18T09:12:44Z</time>
      </trkpt>
      <trkpt lat="37.9702471755445" lon="12.064396105706692">
        <ele>249.59999999999999</ele>
        <time>2017-09-18T09:12:54Z</time>
      </trkpt>
      <trkpt lat="37.970200069248676" lon="12.064376994967461">
        <ele>249.59999999999999</ele>
        <time>2017-09-18T09:13:04Z</time>
      </trkpt>
      <trkpt lat="37.97020124271512" lon="12.064350005239248">
        <ele>250.08000000000001</ele>
        <time>2017-09-18T09:13:16Z</time>
      </trkpt>
      <trkpt lat="37.970179282128811" lon="12.064339108765125">
        <ele>250.56</ele>
        <time>2017-09-18T09:13:24Z</time>
      </trkpt>
      <trkpt lat="37.970130080357194" lon="12.064356124028563">
        <ele>250.56</ele>
        <time>2017-09-18T09:13:37Z</time>
      </trkpt>
      <trkpt lat="37.970098564401269" lon="12.064348328858614">
        <ele>250.08000000000001</ele>
        <time>2017-09-18T09:13:46Z</time>
      </trkpt>
      <trkpt lat="37.970101414248347" lon="12.06436769105494">
        <ele>249.59999999999999</ele>
        <time>2017-09-18T09:13:55Z</time>
      </trkpt>
      <trkpt lat="37.970053805038333" lon="12.064420999959111">
        <ele>248.63999999999999</ele>
        <time>2017-09-18T09:14:05Z</time>
      </trkpt>
      <trkpt lat="37.970014913007617" lon="12.064459975808859">
        <ele>248.16</ele>
        <time>2017-09-18T09:14:16Z</time>
      </trkpt>
      <trkpt lat="37.970014158636332" lon="12.06445125862956">
        <ele>248.16</ele>
        <time>2017-09-18T09:14:29Z</time>
      </trkpt>
      <trkpt lat="37.970004100352526" lon="12.064445978030562">
        <ele>248.16</ele>
        <time>2017-09-18T09:14:44Z</time>
      </trkpt>
      <trkpt lat="37.970014913007617" lon="12.064439691603184">
        <ele>248.16</ele>
        <time>2017-09-18T09:15:01Z</time>
      </trkpt>
      <trkpt lat="37.970018852502108" lon="12.064432818442583">
        <ele>248.16</ele>
        <time>2017-09-18T09:15:25Z</time>
      </trkpt>
      <trkpt lat="37.970029581338167" lon="12.064430639147758">
        <ele>248.63999999999999</ele>
        <time>2017-09-18T09:15:48Z</time>
      </trkpt>
      <trkpt lat="37.969979792833328" lon="12.064461149275303">
        <ele>247.68000000000001</ele>
        <time>2017-09-18T09:16:04Z</time>
      </trkpt>
      <trkpt lat="37.969920365139842" lon="12.064486378803849">
        <ele>246.22999999999999</ele>
        <time>2017-09-18T09:16:16Z</time>
      </trkpt>
      <trkpt lat="37.969880802556872" lon="12.064429381862283">
        <ele>246.72</ele>
        <time>2017-09-18T09:16:26Z</time>
      </trkpt>
      <trkpt lat="37.969858758151531" lon="12.064364338293672">
        <ele>247.19999999999999</ele>
        <time>2017-09-18T09:16:37Z</time>
      </trkpt>
      <trkpt lat="37.96981911174953" lon="12.064292756840587">
        <ele>247.19999999999999</ele>
        <time>2017-09-18T09:16:48Z</time>
      </trkpt>
      <trkpt lat="37.96979958191514" lon="12.06429342739284">
        <ele>249.59999999999999</ele>
        <time>2017-09-18T09:16:51Z</time>
      </trkpt>
      <trkpt lat="37.969694640487432" lon="12.064289404079318">
        <ele>250.08000000000001</ele>
        <time>2017-09-18T09:17:04Z</time>
      </trkpt>
      <trkpt lat="37.969666561111808" lon="12.064290577545762">
        <ele>250.08000000000001</ele>
        <time>2017-09-18T09:17:07Z</time>
      </trkpt>
      <trkpt lat="37.969546616077423" lon="12.064292002469301">
        <ele>250.56</ele>
        <time>2017-09-18T09:17:20Z</time>
      </trkpt>
      <trkpt lat="37.969431700184941" lon="12.06431295722723">
        <ele>251.52000000000001</ele>
        <time>2017-09-18T09:17:33Z</time>
      </trkpt>
      <trkpt lat="37.969352826476097" lon="12.064349837601185">
        <ele>252.47999999999999</ele>
        <time>2017-09-18T09:17:43Z</time>
      </trkpt>
      <trkpt lat="37.969265906140208" lon="12.064394429326057">
        <ele>253.44</ele>
        <time>2017-09-18T09:17:55Z</time>
      </trkpt>
      <trkpt lat="37.969258278608322" lon="12.064399374648929">
        <ele>253.44</ele>
        <time>2017-09-18T09:17:56Z</time>
      </trkpt>
      <trkpt lat="37.969146464020014" lon="12.064496101811528">
        <ele>254.41</ele>
        <time>2017-09-18T09:18:12Z</time>
      </trkpt>
      <trkpt lat="37.969063650816679" lon="12.064595175907016">
        <ele>255.37</ele>
        <time>2017-09-18T09:18:26Z</time>
      </trkpt>
      <trkpt lat="37.968990644440055" lon="12.064667176455259">
        <ele>257.29000000000002</ele>
        <time>2017-09-18T09:18:38Z</time>
      </trkpt>
      <trkpt lat="37.96895912848413" lon="12.064713109284639">
        <ele>258.25</ele>
        <time>2017-09-18T09:18:44Z</time>
      </trkpt>
      <trkpt lat="37.968872962519526" lon="12.064808662980795">
        <ele>259.69</ele>
        <time>2017-09-18T09:18:56Z</time>
      </trkpt>
      <trkpt lat="37.9688018001616" lon="12.064854679629207">
        <ele>260.17000000000002</ele>
        <time>2017-09-18T09:19:08Z</time>
      </trkpt>
      <trkpt lat="37.968795681372285" lon="12.064878651872277">
        <ele>260.17000000000002</ele>
        <time>2017-09-18T09:19:23Z</time>
      </trkpt>
      <trkpt lat="37.968778163194656" lon="12.064882004633546">
        <ele>260.17000000000002</ele>
        <time>2017-09-18T09:19:36Z</time>
      </trkpt>
      <trkpt lat="37.968688141554594" lon="12.06495501101017">
        <ele>259.20999999999998</ele>
        <time>2017-09-18T09:19:47Z</time>
      </trkpt>
      <trkpt lat="37.968579092994332" lon="12.064989963546395">
        <ele>258.73000000000002</ele>
        <time>2017-09-18T09:19:59Z</time>
      </trkpt>
      <trkpt lat="37.968454789370298" lon="12.06502734683454">
        <ele>257.76999999999998</ele>
        <time>2017-09-18T09:20:11Z</time>
      </trkpt>
      <trkpt lat="37.968372898176312" lon="12.065043859183788">
        <ele>259.20999999999998</ele>
        <time>2017-09-18T09:20:22Z</time>
      </trkpt>
      <trkpt lat="37.968325205147266" lon="12.065053163096309">
        <ele>259.20999999999998</ele>
        <time>2017-09-18T09:20:29Z</time>
      </trkpt>
      <trkpt lat="37.968252114951611" lon="12.065103705972433">
        <ele>259.20999999999998</ele>
        <time>2017-09-18T09:20:39Z</time>
      </trkpt>
      <trkpt lat="37.968219174072146" lon="12.065122397616506">
        <ele>259.20999999999998</ele>
        <time>2017-09-18T09:20:49Z</time>
      </trkpt>
      <trkpt lat="37.968214396387339" lon="12.065126588568091">
        <ele>259.20999999999998</ele>
        <time>2017-09-18T09:20:50Z</time>
      </trkpt>
      <trkpt lat="37.96812554821372" lon="12.065117117017508">
        <ele>259.20999999999998</ele>
        <time>2017-09-18T09:20:59Z</time>
      </trkpt>
      <trkpt lat="37.967988168820739" lon="12.065076045691967">
        <ele>259.20999999999998</ele>
        <time>2017-09-18T09:21:12Z</time>
      </trkpt>
      <trkpt lat="37.967975428327918" lon="12.065045703202486">
        <ele>259.20999999999998</ele>
        <time>2017-09-18T09:21:26Z</time>
      </trkpt>
      <trkpt lat="37.967983726412058" lon="12.065047128126025">
        <ele>258.73000000000002</ele>
        <time>2017-09-18T09:21:41Z</time>
      </trkpt>
      <trkpt lat="37.967969393357635" lon="12.065039081498981">
        <ele>259.20999999999998</ele>
        <time>2017-09-18T09:21:57Z</time>
      </trkpt>
      <trkpt lat="37.967956317588687" lon="12.065047463402152">
        <ele>259.20999999999998</ele>
        <time>2017-09-18T09:22:11Z</time>
      </trkpt>
      <trkpt lat="37.967942571267486" lon="12.065051319077611">
        <ele>259.69</ele>
        <time>2017-09-18T09:22:26Z</time>
      </trkpt>
      <trkpt lat="37.967902338132262" lon="12.06507227383554">
        <ele>259.69</ele>
        <time>2017-09-18T09:22:42Z</time>
      </trkpt>
      <trkpt lat="37.96789538115263" lon="12.065071938559413">
        <ele>259.69</ele>
        <time>2017-09-18T09:22:43Z</time>
      </trkpt>
      <trkpt lat="37.967809215188026" lon="12.065019970759749">
        <ele>259.20999999999998</ele>
        <time>2017-09-18T09:22:53Z</time>
      </trkpt>
      <trkpt lat="37.967692371457815" lon="12.065021898597479">
        <ele>258.25</ele>
        <time>2017-09-18T09:23:04Z</time>
      </trkpt>
      <trkpt lat="37.967632189393044" lon="12.065014941617846">
        <ele>258.25</ele>
        <time>2017-09-18T09:23:10Z</time>
      </trkpt>
      <trkpt lat="37.96751132234931" lon="12.065038327127695">
        <ele>257.76999999999998</ele>
        <time>2017-09-18T09:23:23Z</time>
      </trkpt>
      <trkpt lat="37.967455834150314" lon="12.065031873062253">
        <ele>257.29000000000002</ele>
        <time>2017-09-18T09:23:28Z</time>
      </trkpt>
      <trkpt lat="37.967326249927282" lon="12.065038494765759">
        <ele>257.29000000000002</ele>
        <time>2017-09-18T09:23:41Z</time>
      </trkpt>
      <trkpt lat="37.967162970453501" lon="12.065076380968094">
        <ele>257.29000000000002</ele>
        <time>2017-09-18T09:23:53Z</time>
      </trkpt>
      <trkpt lat="37.967058448120952" lon="12.065117787569761">
        <ele>257.29000000000002</ele>
        <time>2017-09-18T09:24:03Z</time>
      </trkpt>
      <trkpt lat="37.96690933406353" lon="12.065171180292964">
        <ele>258.73000000000002</ele>
        <time>2017-09-18T09:24:16Z</time>
      </trkpt>
      <trkpt lat="37.966811181977391" lon="12.065207893028855">
        <ele>259.69</ele>
        <time>2017-09-18T09:24:25Z</time>
      </trkpt>
      <trkpt lat="37.966692829504609" lon="12.065183166414499">
        <ele>259.69</ele>
        <time>2017-09-18T09:24:37Z</time>
      </trkpt>
      <trkpt lat="37.966547319665551" lon="12.065182998776436">
        <ele>259.69</ele>
        <time>2017-09-18T09:24:51Z</time>
      </trkpt>
      <trkpt lat="37.966446653008461" lon="12.065190793946385">
        <ele>260.64999999999998</ele>
        <time>2017-09-18T09:25:02Z</time>
      </trkpt>
      <trkpt lat="37.966352691873908" lon="12.065196074545383">
        <ele>260.64999999999998</ele>
        <time>2017-09-18T09:25:13Z</time>
      </trkpt>
      <trkpt lat="37.966282032430172" lon="12.065246030688286">
        <ele>260.17000000000002</ele>
        <time>2017-09-18T09:25:24Z</time>
      </trkpt>
      <trkpt lat="37.966215312480927" lon="12.065305877476931">
        <ele>259.20999999999998</ele>
        <time>2017-09-18T09:25:34Z</time>
      </trkpt>
      <trkpt lat="37.966128727421165" lon="12.065348709002137">
        <ele>259.20999999999998</ele>
        <time>2017-09-18T09:25:44Z</time>
      </trkpt>
      <trkpt lat="37.96606695279479" lon="12.065384415909648">
        <ele>259.20999999999998</ele>
        <time>2017-09-18T09:25:53Z</time>
      </trkpt>
      <trkpt lat="37.965998891741037" lon="12.065398413687944">
        <ele>258.73000000000002</ele>
        <time>2017-09-18T09:26:03Z</time>
      </trkpt>
      <trkpt lat="37.965925801545382" lon="12.065405454486609">
        <ele>258.25</ele>
        <time>2017-09-18T09:26:15Z</time>
      </trkpt>
      <trkpt lat="37.9658626858145" lon="12.065404783934355">
        <ele>258.73000000000002</ele>
        <time>2017-09-18T09:26:24Z</time>
      </trkpt>
      <trkpt lat="37.965772747993469" lon="12.065409226343036">
        <ele>257.76999999999998</ele>
        <time>2017-09-18T09:26:35Z</time>
      </trkpt>
      <trkpt lat="37.965709799900651" lon="12.065438227728009">
        <ele>257.29000000000002</ele>
        <time>2017-09-18T09:26:43Z</time>
      </trkpt>
      <trkpt lat="37.965609384700656" lon="12.065451974049211">
        <ele>257.76999999999998</ele>
        <time>2017-09-18T09:26:54Z</time>
      </trkpt>
      <trkpt lat="37.965598069131374" lon="12.065460020676255">
        <ele>257.76999999999998</ele>
        <time>2017-09-18T09:26:55Z</time>
      </trkpt>
      <trkpt lat="37.965502766892314" lon="12.065506540238857">
        <ele>258.25</ele>
        <time>2017-09-18T09:27:06Z</time>
      </trkpt>
      <trkpt lat="37.965423054993153" lon="12.06555993296206">
        <ele>257.76999999999998</ele>
        <time>2017-09-18T09:27:21Z</time>
      </trkpt>
      <trkpt lat="37.965408219024539" lon="12.06560293212533">
        <ele>256.32999999999998</ele>
        <time>2017-09-18T09:27:32Z</time>
      </trkpt>
      <trkpt lat="37.965392461046576" lon="12.065661018714309">
        <ele>254.88999999999999</ele>
        <time>2017-09-18T09:27:43Z</time>
      </trkpt>
      <trkpt lat="37.965336469933391" lon="12.065734611824155">
        <ele>253.44</ele>
        <time>2017-09-18T09:27:54Z</time>
      </trkpt>
      <trkpt lat="37.96525533311069" lon="12.065791860222816">
        <ele>252.47999999999999</ele>
        <time>2017-09-18T09:28:03Z</time>
      </trkpt>
      <trkpt lat="37.96516589820385" lon="12.065847013145685">
        <ele>252.96000000000001</ele>
        <time>2017-09-18T09:28:14Z</time>
      </trkpt>
      <trkpt lat="37.96504377387464" lon="12.065926054492593">
        <ele>253.93000000000001</ele>
        <time>2017-09-18T09:28:28Z</time>
      </trkpt>
      <trkpt lat="37.96491427347064" lon="12.066012723371387">
        <ele>253.44</ele>
        <time>2017-09-18T09:28:43Z</time>
      </trkpt>
      <trkpt lat="37.964785862714052" lon="12.066099476069212">
        <ele>253.93000000000001</ele>
        <time>2017-09-18T09:28:58Z</time>
      </trkpt>
      <trkpt lat="37.964712521061301" lon="12.06620735116303">
        <ele>253.44</ele>
        <time>2017-09-18T09:29:10Z</time>
      </trkpt>
      <trkpt lat="37.964632054790854" lon="12.066294439136982">
        <ele>254.41</ele>
        <time>2017-09-18T09:29:23Z</time>
      </trkpt>
      <trkpt lat="37.964546224102378" lon="12.066408768296242">
        <ele>253.44</ele>
        <time>2017-09-18T09:29:34Z</time>
      </trkpt>
      <trkpt lat="37.964484952390194" lon="12.066516475751996">
        <ele>253.44</ele>
        <time>2017-09-18T09:29:46Z</time>
      </trkpt>
      <trkpt lat="37.964452598243952" lon="12.066566348075867">
        <ele>253.44</ele>
        <time>2017-09-18T09:29:57Z</time>
      </trkpt>
      <trkpt lat="37.964382274076343" lon="12.066647820174694">
        <ele>253.93000000000001</ele>
        <time>2017-09-18T09:30:10Z</time>
      </trkpt>
      <trkpt lat="37.964328294619918" lon="12.066699704155326">
        <ele>254.88999999999999</ele>
        <time>2017-09-18T09:30:22Z</time>
      </trkpt>
      <trkpt lat="37.964292420074344" lon="12.066750749945641">
        <ele>254.88999999999999</ele>
        <time>2017-09-18T09:30:34Z</time>
      </trkpt>
      <trkpt lat="37.964223269373178" lon="12.06685627810657">
        <ele>255.84999999999999</ele>
        <time>2017-09-18T09:30:46Z</time>
      </trkpt>
      <trkpt lat="37.964168284088373" lon="12.066938672214746">
        <ele>255.84999999999999</ele>
        <time>2017-09-18T09:30:57Z</time>
      </trkpt>
      <trkpt lat="37.964120842516422" lon="12.067035902291536">
        <ele>255.84999999999999</ele>
        <time>2017-09-18T09:31:09Z</time>
      </trkpt>
      <trkpt lat="37.964078933000565" lon="12.067126343026757">
        <ele>255.84999999999999</ele>
        <time>2017-09-18T09:31:24Z</time>
      </trkpt>
      <trkpt lat="37.963997963815928" lon="12.067231787368655">
        <ele>256.81</ele>
        <time>2017-09-18T09:31:39Z</time>
      </trkpt>
      <trkpt lat="37.963965777307749" lon="12.067367741838098">
        <ele>256.81</ele>
        <time>2017-09-18T09:31:54Z</time>
      </trkpt>
      <trkpt lat="37.963879946619272" lon="12.067526830360293">
        <ele>257.29000000000002</ele>
        <time>2017-09-18T09:32:12Z</time>
      </trkpt>
      <trkpt lat="37.963825799524784" lon="12.067622048780322">
        <ele>256.32999999999998</ele>
        <time>2017-09-18T09:32:24Z</time>
      </trkpt>
      <trkpt lat="37.963793948292732" lon="12.067782813683152">
        <ele>254.88999999999999</ele>
        <time>2017-09-18T09:32:39Z</time>
      </trkpt>
      <trkpt lat="37.963740890845656" lon="12.067916672676802">
        <ele>253.93000000000001</ele>
        <time>2017-09-18T09:32:53Z</time>
      </trkpt>
      <trkpt lat="37.963686659932137" lon="12.068043407052755">
        <ele>253.93000000000001</ele>
        <time>2017-09-18T09:33:06Z</time>
      </trkpt>
      <trkpt lat="37.963644498959184" lon="12.06820635125041">
        <ele>254.41</ele>
        <time>2017-09-18T09:33:25Z</time>
      </trkpt>
      <trkpt lat="37.963589513674378" lon="12.06828597933054">
        <ele>254.41</ele>
        <time>2017-09-18T09:33:41Z</time>
      </trkpt>
      <trkpt lat="37.963561434298754" lon="12.06830894574523">
        <ele>254.41</ele>
        <time>2017-09-18T09:34:03Z</time>
      </trkpt>
      <trkpt lat="37.963528661057353" lon="12.068294445052743">
        <ele>254.88999999999999</ele>
        <time>2017-09-18T09:34:16Z</time>
      </trkpt>
      <trkpt lat="37.963512567803264" lon="12.068308778107166">
        <ele>256.32999999999998</ele>
        <time>2017-09-18T09:34:28Z</time>
      </trkpt>
      <trkpt lat="37.963507873937488" lon="12.06838027574122">
        <ele>255.37</ele>
        <time>2017-09-18T09:34:43Z</time>
      </trkpt>
      <trkpt lat="37.963521536439657" lon="12.068362422287464">
        <ele>255.84999999999999</ele>
        <time>2017-09-18T09:34:55Z</time>
      </trkpt>
      <trkpt lat="37.963507706299424" lon="12.06838664598763">
        <ele>255.84999999999999</ele>
        <time>2017-09-18T09:35:05Z</time>
      </trkpt>
      <trkpt lat="37.96349186450243" lon="12.068416569381952">
        <ele>255.84999999999999</ele>
        <time>2017-09-18T09:35:14Z</time>
      </trkpt>
      <trkpt lat="37.963493121787906" lon="12.068441463634372">
        <ele>255.84999999999999</ele>
        <time>2017-09-18T09:35:24Z</time>
      </trkpt>
      <trkpt lat="37.963501587510109" lon="12.068464262410998">
        <ele>256.32999999999998</ele>
        <time>2017-09-18T09:35:43Z</time>
      </trkpt>
      <trkpt lat="37.963486416265368" lon="12.068468956276774">
        <ele>256.32999999999998</ele>
        <time>2017-09-18T09:35:44Z</time>
      </trkpt>
      <trkpt lat="37.963453726842999" lon="12.068479182198644">
        <ele>256.81</ele>
        <time>2017-09-18T09:35:47Z</time>
      </trkpt>
      <trkpt lat="37.963408213108778" lon="12.068549590185285">
        <ele>257.29000000000002</ele>
        <time>2017-09-18T09:35:54Z</time>
      </trkpt>
      <trkpt lat="37.963302517309785" lon="12.068683868274093">
        <ele>257.29000000000002</ele>
        <time>2017-09-18T09:36:07Z</time>
      </trkpt>
      <trkpt lat="37.963250298053026" lon="12.068752767518163">
        <ele>256.81</ele>
        <time>2017-09-18T09:36:15Z</time>
      </trkpt>
      <trkpt lat="37.963150218129158" lon="12.068849327042699">
        <ele>256.81</ele>
        <time>2017-09-18T09:36:27Z</time>
      </trkpt>
      <trkpt lat="37.96305407769978" lon="12.068950664252043">
        <ele>254.88999999999999</ele>
        <time>2017-09-18T09:36:39Z</time>
      </trkpt>
      <trkpt lat="37.963049048557878" lon="12.068959129974246">
        <ele>254.88999999999999</ele>
        <time>2017-09-18T09:36:40Z</time>
      </trkpt>
      <trkpt lat="37.963043432682753" lon="12.0689857006073">
        <ele>254.41</ele>
        <time>2017-09-18T09:36:42Z</time>
      </trkpt>
      <trkpt lat="37.962973611429334" lon="12.069127522408962">
        <ele>254.88999999999999</ele>
        <time>2017-09-18T09:36:54Z</time>
      </trkpt>
      <trkpt lat="37.962919380515814" lon="12.069215532392263">
        <ele>255.84999999999999</ele>
        <time>2017-09-18T09:37:06Z</time>
      </trkpt>
      <trkpt lat="37.962909992784262" lon="12.069255849346519">
        <ele>255.84999999999999</ele>
        <time>2017-09-18T09:37:22Z</time>
      </trkpt>
      <trkpt lat="37.962840171530843" lon="12.069335309788585">
        <ele>254.88999999999999</ele>
        <time>2017-09-18T09:37:31Z</time>
      </trkpt>
      <trkpt lat="37.962722238153219" lon="12.069444274529815">
        <ele>257.29000000000002</ele>
        <time>2017-09-18T09:37:46Z</time>
      </trkpt>
      <trkpt lat="37.962663900107145" lon="12.069604285061359">
        <ele>257.29000000000002</ele>
        <time>2017-09-18T09:38:00Z</time>
      </trkpt>
      <trkpt lat="37.962639927864075" lon="12.069683242589235">
        <ele>256.81</ele>
        <time>2017-09-18T09:38:07Z</time>
      </trkpt>
      <trkpt lat="37.96261184848845" lon="12.069837218150496">
        <ele>257.29000000000002</ele>
        <time>2017-09-18T09:38:20Z</time>
      </trkpt>
      <trkpt lat="37.962605394423008" lon="12.069933442398906">
        <ele>258.25</ele>
        <time>2017-09-18T09:38:31Z</time>
      </trkpt>
      <trkpt lat="37.962589636445045" lon="12.070043077692389">
        <ele>259.20999999999998</ele>
        <time>2017-09-18T09:38:43Z</time>
      </trkpt>
      <trkpt lat="37.962555605918169" lon="12.070143995806575">
        <ele>261.13999999999999</ele>
        <time>2017-09-18T09:38:57Z</time>
      </trkpt>
      <trkpt lat="37.962541440501809" lon="12.070213900879025">
        <ele>263.06</ele>
        <time>2017-09-18T09:39:12Z</time>
      </trkpt>
      <trkpt lat="37.962558455765247" lon="12.070309957489371">
        <ele>264.5</ele>
        <time>2017-09-18T09:39:22Z</time>
      </trkpt>
      <trkpt lat="37.962574046105146" lon="12.070387909188867">
        <ele>264.98000000000002</ele>
        <time>2017-09-18T09:39:32Z</time>
      </trkpt>
      <trkpt lat="37.962578907608986" lon="12.070416072383523">
        <ele>264.98000000000002</ele>
        <time>2017-09-18T09:39:34Z</time>
      </trkpt>
      <trkpt lat="37.96257421374321" lon="12.07044180482626">
        <ele>264.98000000000002</ele>
        <time>2017-09-18T09:39:36Z</time>
      </trkpt>
      <trkpt lat="37.962576979771256" lon="12.070512715727091">
        <ele>264.5</ele>
        <time>2017-09-18T09:39:48Z</time>
      </trkpt>
      <trkpt lat="37.962576728314161" lon="12.070519588887691">
        <ele>264.5</ele>
        <time>2017-09-18T09:39:50Z</time>
      </trkpt>
      <trkpt lat="37.962552336975932" lon="12.070665350183845">
        <ele>264.01999999999998</ele>
        <time>2017-09-18T09:40:04Z</time>
      </trkpt>
      <trkpt lat="37.962540769949555" lon="12.070749336853623">
        <ele>263.54000000000002</ele>
        <time>2017-09-18T09:40:17Z</time>
      </trkpt>
      <trkpt lat="37.962533477693796" lon="12.070758976042271">
        <ele>264.01999999999998</ele>
        <time>2017-09-18T09:40:30Z</time>
      </trkpt>
      <trkpt lat="37.962490729987621" lon="12.070813123136759">
        <ele>263.54000000000002</ele>
        <time>2017-09-18T09:40:42Z</time>
      </trkpt>
      <trkpt lat="37.962458375841379" lon="12.070860480889678">
        <ele>263.54000000000002</ele>
        <time>2017-09-18T09:40:51Z</time>
      </trkpt>
      <trkpt lat="37.962428536266088" lon="12.070884788408875">
        <ele>263.06</ele>
        <time>2017-09-18T09:41:02Z</time>
      </trkpt>
      <trkpt lat="37.962400875985622" lon="12.070935331285">
        <ele>262.57999999999998</ele>
        <time>2017-09-18T09:41:13Z</time>
      </trkpt>
      <trkpt lat="37.96239928342402" lon="12.070938516408205">
        <ele>262.57999999999998</ele>
        <time>2017-09-18T09:41:16Z</time>
      </trkpt>
      <trkpt lat="37.962363995611668" lon="12.07100766710937">
        <ele>262.10000000000002</ele>
        <time>2017-09-18T09:41:30Z</time>
      </trkpt>
      <trkpt lat="37.962373131886125" lon="12.071006242185831">
        <ele>262.10000000000002</ele>
        <time>2017-09-18T09:41:41Z</time>
      </trkpt>
      <trkpt lat="37.962365671992302" lon="12.071037087589502">
        <ele>261.13999999999999</ele>
        <time>2017-09-18T09:41:54Z</time>
      </trkpt>
      <trkpt lat="37.962365671992302" lon="12.071019737049937">
        <ele>261.13999999999999</ele>
        <time>2017-09-18T09:42:09Z</time>
      </trkpt>
      <trkpt lat="37.962352344766259" lon="12.071019569411874">
        <ele>261.13999999999999</ele>
        <time>2017-09-18T09:42:26Z</time>
      </trkpt>
      <trkpt lat="37.962349075824022" lon="12.071004314348102">
        <ele>261.13999999999999</ele>
        <time>2017-09-18T09:42:46Z</time>
      </trkpt>
      <trkpt lat="37.96234211884439" lon="12.071016216650605">
        <ele>261.13999999999999</ele>
        <time>2017-09-18T09:43:09Z</time>
      </trkpt>
      <trkpt lat="37.962353518232703" lon="12.071035746484995">
        <ele>261.13999999999999</ele>
        <time>2017-09-18T09:43:22Z</time>
      </trkpt>
      <trkpt lat="37.962353266775608" lon="12.071043206378818">
        <ele>261.62</ele>
        <time>2017-09-18T09:43:38Z</time>
      </trkpt>
      <trkpt lat="37.962352428585291" lon="12.071038763970137">
        <ele>261.13999999999999</ele>
        <time>2017-09-18T09:43:54Z</time>
      </trkpt>
      <trkpt lat="37.96234748326242" lon="12.071046894416213">
        <ele>261.62</ele>
        <time>2017-09-18T09:44:13Z</time>
      </trkpt>
      <trkpt lat="37.962335832417011" lon="12.071052929386497">
        <ele>260.64999999999998</ele>
        <time>2017-09-18T09:44:29Z</time>
      </trkpt>
      <trkpt lat="37.962290989235044" lon="12.071068855002522">
        <ele>261.13999999999999</ele>
        <time>2017-09-18T09:44:40Z</time>
      </trkpt>
      <trkpt lat="37.962280511856079" lon="12.071074722334743">
        <ele>260.64999999999998</ele>
        <time>2017-09-18T09:44:55Z</time>
      </trkpt>
      <trkpt lat="37.962239608168602" lon="12.071105064824224">
        <ele>260.64999999999998</ele>
        <time>2017-09-18T09:45:08Z</time>
      </trkpt>
      <trkpt lat="37.962199291214347" lon="12.071134485304356">
        <ele>260.64999999999998</ele>
        <time>2017-09-18T09:45:24Z</time>
      </trkpt>
      <trkpt lat="37.962145395576954" lon="12.071182765066624">
        <ele>260.64999999999998</ele>
        <time>2017-09-18T09:45:36Z</time>
      </trkpt>
      <trkpt lat="37.962094433605671" lon="12.071238001808524">
        <ele>261.13999999999999</ele>
        <time>2017-09-18T09:45:46Z</time>
      </trkpt>
      <trkpt lat="37.962030144408345" lon="12.071278067305684">
        <ele>261.62</ele>
        <time>2017-09-18T09:45:56Z</time>
      </trkpt>
      <trkpt lat="37.961952360346913" lon="12.071354007348418">
        <ele>262.10000000000002</ele>
        <time>2017-09-18T09:46:08Z</time>
      </trkpt>
      <trkpt lat="37.961888993158937" lon="12.071428187191486">
        <ele>263.06</ele>
        <time>2017-09-18T09:46:20Z</time>
      </trkpt>
      <trkpt lat="37.961860075592995" lon="12.071452410891652">
        <ele>262.57999999999998</ele>
        <time>2017-09-18T09:46:24Z</time>
      </trkpt>
      <trkpt lat="37.961756475269794" lon="12.071507312357426">
        <ele>262.57999999999998</ele>
        <time>2017-09-18T09:46:36Z</time>
      </trkpt>
      <trkpt lat="37.961610965430737" lon="12.071587275713682">
        <ele>262.57999999999998</ele>
        <time>2017-09-18T09:46:51Z</time>
      </trkpt>
      <trkpt lat="37.961556734517217" lon="12.071629017591476">
        <ele>261.62</ele>
        <time>2017-09-18T09:47:02Z</time>
      </trkpt>
      <trkpt lat="37.96155396848917" lon="12.07164628431201">
        <ele>261.13999999999999</ele>
        <time>2017-09-18T09:47:04Z</time>
      </trkpt>
      <trkpt lat="37.961487583816051" lon="12.071721972897649">
        <ele>260.17000000000002</ele>
        <time>2017-09-18T09:47:15Z</time>
      </trkpt>
      <trkpt lat="37.961408793926239" lon="12.071825489401817">
        <ele>259.20999999999998</ele>
        <time>2017-09-18T09:47:29Z</time>
      </trkpt>
      <trkpt lat="37.961323717609048" lon="12.071918109431863">
        <ele>258.25</ele>
        <time>2017-09-18T09:47:43Z</time>
      </trkpt>
      <trkpt lat="37.961262864992023" lon="12.071979381144047">
        <ele>256.81</ele>
        <time>2017-09-18T09:47:56Z</time>
      </trkpt>
      <trkpt lat="37.961219698190689" lon="12.072086501866579">
        <ele>255.84999999999999</ele>
        <time>2017-09-18T09:48:07Z</time>
      </trkpt>
      <trkpt lat="37.961176699027419" lon="12.072140229865909">
        <ele>256.32999999999998</ele>
        <time>2017-09-18T09:48:16Z</time>
      </trkpt>
      <trkpt lat="37.96114157885313" lon="12.07221457734704">
        <ele>254.88999999999999</ele>
        <time>2017-09-18T09:48:26Z</time>
      </trkpt>
      <trkpt lat="37.961134789511561" lon="12.072219690307975">
        <ele>254.88999999999999</ele>
        <time>2017-09-18T09:48:27Z</time>
      </trkpt>
      <trkpt lat="37.961005037650466" lon="12.072273250669241">
        <ele>252.47999999999999</ele>
        <time>2017-09-18T09:48:41Z</time>
      </trkpt>
      <trkpt lat="37.960936976596713" lon="12.072332846000791">
        <ele>251.52000000000001</ele>
        <time>2017-09-18T09:48:53Z</time>
      </trkpt>
      <trkpt lat="37.960864724591374" lon="12.072393028065562">
        <ele>249.59999999999999</ele>
        <time>2017-09-18T09:49:04Z</time>
      </trkpt>
      <trkpt lat="37.960822563618422" lon="12.072440050542355">
        <ele>249.12</ele>
        <time>2017-09-18T09:49:11Z</time>
      </trkpt>
      <trkpt lat="37.960732458159328" lon="12.072517247870564">
        <ele>248.16</ele>
        <time>2017-09-18T09:49:23Z</time>
      </trkpt>
      <trkpt lat="37.960615195333958" lon="12.072579860687256">
        <ele>248.63999999999999</ele>
        <time>2017-09-18T09:49:36Z</time>
      </trkpt>
      <trkpt lat="37.960531292483211" lon="12.072620345279574">
        <ele>247.19999999999999</ele>
        <time>2017-09-18T09:49:48Z</time>
      </trkpt>
      <trkpt lat="37.960507739335299" lon="12.072657141834497">
        <ele>246.72</ele>
        <time>2017-09-18T09:49:58Z</time>
      </trkpt>
      <trkpt lat="37.960478821769357" lon="12.072691088542342">
        <ele>245.27000000000001</ele>
        <time>2017-09-18T09:50:08Z</time>
      </trkpt>
      <trkpt lat="37.960423082113266" lon="12.072735680267215">
        <ele>243.83000000000001</ele>
        <time>2017-09-18T09:50:18Z</time>
      </trkpt>
      <trkpt lat="37.960363067686558" lon="12.072749929502606">
        <ele>242.38999999999999</ele>
        <time>2017-09-18T09:50:28Z</time>
      </trkpt>
      <trkpt lat="37.960307076573372" lon="12.072740625590086">
        <ele>241.43000000000001</ele>
        <time>2017-09-18T09:50:38Z</time>
      </trkpt>
      <trkpt lat="37.960243793204427" lon="12.072729393839836">
        <ele>239.99000000000001</ele>
        <time>2017-09-18T09:50:48Z</time>
      </trkpt>
      <trkpt lat="37.960161566734314" lon="12.072708439081907">
        <ele>239.02000000000001</ele>
        <time>2017-09-18T09:51:01Z</time>
      </trkpt>
      <trkpt lat="37.960089147090912" lon="12.072681784629822">
        <ele>238.06</ele>
        <time>2017-09-18T09:51:12Z</time>
      </trkpt>
      <trkpt lat="37.960063582286239" lon="12.072681449353695">
        <ele>237.58000000000001</ele>
        <time>2017-09-18T09:51:17Z</time>
      </trkpt>
      <trkpt lat="37.960012285038829" lon="12.072711456567049">
        <ele>236.13999999999999</ele>
        <time>2017-09-18T09:51:27Z</time>
      </trkpt>
      <trkpt lat="37.959936847910285" lon="12.072724867612123">
        <ele>235.18000000000001</ele>
        <time>2017-09-18T09:51:38Z</time>
      </trkpt>
      <trkpt lat="37.959876665845513" lon="12.07277599722147">
        <ele>234.22</ele>
        <time>2017-09-18T09:51:50Z</time>
      </trkpt>
      <trkpt lat="37.959831235930324" lon="12.072810865938663">
        <ele>233.25999999999999</ele>
        <time>2017-09-18T09:51:59Z</time>
      </trkpt>
      <trkpt lat="37.959784716367722" lon="12.072886805981398">
        <ele>231.81</ele>
        <time>2017-09-18T09:52:11Z</time>
      </trkpt>
      <trkpt lat="37.959733000025153" lon="12.072937851771712">
        <ele>229.88999999999999</ele>
        <time>2017-09-18T09:52:21Z</time>
      </trkpt>
      <trkpt lat="37.959678014740348" lon="12.073019072413445">
        <ele>228.44999999999999</ele>
        <time>2017-09-18T09:52:32Z</time>
      </trkpt>
      <trkpt lat="37.959587909281254" lon="12.073104484006763">
        <ele>227.49000000000001</ele>
        <time>2017-09-18T09:52:44Z</time>
      </trkpt>
      <trkpt lat="37.959582041949034" lon="12.07312535494566">
        <ele>227.49000000000001</ele>
        <time>2017-09-18T09:52:46Z</time>
      </trkpt>
      <trkpt lat="37.959540132433176" lon="12.073236582800746">
        <ele>226.05000000000001</ele>
        <time>2017-09-18T09:52:59Z</time>
      </trkpt>
      <trkpt lat="37.959529990330338" lon="12.073260806500912">
        <ele>226.05000000000001</ele>
        <time>2017-09-18T09:53:02Z</time>
      </trkpt>
      <trkpt lat="37.959467293694615" lon="12.073388714343309">
        <ele>225.09</ele>
        <time>2017-09-18T09:53:14Z</time>
      </trkpt>
      <trkpt lat="37.959432005882263" lon="12.073454512283206">
        <ele>226.05000000000001</ele>
        <time>2017-09-18T09:53:24Z</time>
      </trkpt>
      <trkpt lat="37.959383726119995" lon="12.073506647720933">
        <ele>227.00999999999999</ele>
        <time>2017-09-18T09:53:35Z</time>
      </trkpt>
      <trkpt lat="37.959324717521667" lon="12.073615528643131">
        <ele>228.44999999999999</ele>
        <time>2017-09-18T09:53:50Z</time>
      </trkpt>
      <trkpt lat="37.959261434152722" lon="12.073645032942295">
        <ele>227.49000000000001</ele>
        <time>2017-09-18T09:54:00Z</time>
      </trkpt>
      <trkpt lat="37.959235701709986" lon="12.0736482180655">
        <ele>227.49000000000001</ele>
        <time>2017-09-18T09:54:04Z</time>
      </trkpt>
      <trkpt lat="37.959149032831192" lon="12.073665987700224">
        <ele>226.05000000000001</ele>
        <time>2017-09-18T09:54:16Z</time>
      </trkpt>
      <trkpt lat="37.959047192707658" lon="12.073673699051142">
        <ele>224.61000000000001</ele>
        <time>2017-09-18T09:54:29Z</time>
      </trkpt>
      <trkpt lat="37.958954321220517" lon="12.073660539463162">
        <ele>223.16</ele>
        <time>2017-09-18T09:54:41Z</time>
      </trkpt>
      <trkpt lat="37.958876369521022" lon="12.073681158944964">
        <ele>221.72</ele>
        <time>2017-09-18T09:54:55Z</time>
      </trkpt>
      <trkpt lat="37.958824317902327" lon="12.073722817003727">
        <ele>220.28</ele>
        <time>2017-09-18T09:55:06Z</time>
      </trkpt>
      <trkpt lat="37.958745947107673" lon="12.073781238868833">
        <ele>218.84</ele>
        <time>2017-09-18T09:55:16Z</time>
      </trkpt>
      <trkpt lat="37.958668330684304" lon="12.073824908584356">
        <ele>217.88</ele>
        <time>2017-09-18T09:55:26Z</time>
      </trkpt>
      <trkpt lat="37.958609405905008" lon="12.073915684595704">
        <ele>216.43000000000001</ele>
        <time>2017-09-18T09:55:37Z</time>
      </trkpt>
      <trkpt lat="37.958506811410189" lon="12.074033282697201">
        <ele>215.47</ele>
        <time>2017-09-18T09:55:50Z</time>
      </trkpt>
      <trkpt lat="37.958411257714033" lon="12.074100924655795">
        <ele>214.50999999999999</ele>
        <time>2017-09-18T09:56:01Z</time>
      </trkpt>
      <trkpt lat="37.958350740373135" lon="12.074184659868479">
        <ele>212.59</ele>
        <time>2017-09-18T09:56:12Z</time>
      </trkpt>
      <trkpt lat="37.958276644349098" lon="12.074254145845771">
        <ele>210.66999999999999</ele>
        <time>2017-09-18T09:56:24Z</time>
      </trkpt>
      <trkpt lat="37.958218725398183" lon="12.07433084025979">
        <ele>208.74000000000001</ele>
        <time>2017-09-18T09:56:36Z</time>
      </trkpt>
      <trkpt lat="37.958191987127066" lon="12.07433226518333">
        <ele>208.25999999999999</ele>
        <time>2017-09-18T09:56:46Z</time>
      </trkpt>
      <trkpt lat="37.958200536668301" lon="12.074365206062794">
        <ele>208.25999999999999</ele>
        <time>2017-09-18T09:57:04Z</time>
      </trkpt>
      <trkpt lat="37.958185616880655" lon="12.074359841644764">
        <ele>208.25999999999999</ele>
        <time>2017-09-18T09:57:13Z</time>
      </trkpt>
      <trkpt lat="37.958149490877986" lon="12.074365876615047">
        <ele>207.30000000000001</ele>
        <time>2017-09-18T09:57:26Z</time>
      </trkpt>
      <trkpt lat="37.958080004900694" lon="12.074421448633075">
        <ele>206.81999999999999</ele>
        <time>2017-09-18T09:57:37Z</time>
      </trkpt>
      <trkpt lat="37.957989228889346" lon="12.074483139440417">
        <ele>204.90000000000001</ele>
        <time>2017-09-18T09:57:49Z</time>
      </trkpt>
      <trkpt lat="37.957910187542439" lon="12.07457123324275">
        <ele>203.46000000000001</ele>
        <time>2017-09-18T09:58:01Z</time>
      </trkpt>
      <trkpt lat="37.9578603990376" lon="12.074621357023716">
        <ele>201.53</ele>
        <time>2017-09-18T09:58:13Z</time>
      </trkpt>
      <trkpt lat="37.957806335762143" lon="12.074649855494499">
        <ele>200.56999999999999</ele>
        <time>2017-09-18T09:58:24Z</time>
      </trkpt>
      <trkpt lat="37.957805162295699" lon="12.074655387550592">
        <ele>200.56999999999999</ele>
        <time>2017-09-18T09:58:35Z</time>
      </trkpt>
      <trkpt lat="37.957818992435932" lon="12.074651112779975">
        <ele>200.56999999999999</ele>
        <time>2017-09-18T09:58:50Z</time>
      </trkpt>
      <trkpt lat="37.957813460379839" lon="12.074669972062111">
        <ele>200.09</ele>
        <time>2017-09-18T09:59:12Z</time>
      </trkpt>
      <trkpt lat="37.957799294963479" lon="12.074654549360275">
        <ele>200.09</ele>
        <time>2017-09-18T09:59:26Z</time>
      </trkpt>
      <trkpt lat="37.957805916666985" lon="12.074654046446085">
        <ele>200.56999999999999</ele>
        <time>2017-09-18T09:59:44Z</time>
      </trkpt>
      <trkpt lat="37.957815220579505" lon="12.074653543531895">
        <ele>200.09</ele>
        <time>2017-09-18T10:00:01Z</time>
      </trkpt>
      <trkpt lat="37.957839444279671" lon="12.074684891849756">
        <ele>200.56999999999999</ele>
        <time>2017-09-18T10:00:26Z</time>
      </trkpt>
      <trkpt lat="37.957826368510723" lon="12.074687825515866">
        <ele>200.56999999999999</ele>
        <time>2017-09-18T10:00:46Z</time>
      </trkpt>
      <trkpt lat="37.957785883918405" lon="12.07469193264842">
        <ele>199.61000000000001</ele>
        <time>2017-09-18T10:00:57Z</time>
      </trkpt>
      <trkpt lat="37.95777884311974" lon="12.074672738090158">
        <ele>199.13</ele>
        <time>2017-09-18T10:01:09Z</time>
      </trkpt>
      <trkpt lat="37.957687899470329" lon="12.07474029622972">
        <ele>197.69</ele>
        <time>2017-09-18T10:01:20Z</time>
      </trkpt>
      <trkpt lat="37.957621598616242" lon="12.074814978986979">
        <ele>196.72999999999999</ele>
        <time>2017-09-18T10:01:31Z</time>
      </trkpt>
      <trkpt lat="37.957524955272675" lon="12.074874406680465">
        <ele>195.77000000000001</ele>
        <time>2017-09-18T10:01:43Z</time>
      </trkpt>
      <trkpt lat="37.957462510094047" lon="12.074940456077456">
        <ele>195.28</ele>
        <time>2017-09-18T10:01:53Z</time>
      </trkpt>
      <trkpt lat="37.957399310544133" lon="12.075012372806668">
        <ele>194.80000000000001</ele>
        <time>2017-09-18T10:02:03Z</time>
      </trkpt>
      <trkpt lat="37.957335524260998" lon="12.075067358091474">
        <ele>195.28</ele>
        <time>2017-09-18T10:02:12Z</time>
      </trkpt>
      <trkpt lat="37.957241563126445" lon="12.07514489069581">
        <ele>195.28</ele>
        <time>2017-09-18T10:02:24Z</time>
      </trkpt>
      <trkpt lat="37.957228654995561" lon="12.07515612244606">
        <ele>195.28</ele>
        <time>2017-09-18T10:02:26Z</time>
      </trkpt>
      <trkpt lat="37.957147099077702" lon="12.075214125216007">
        <ele>194.80000000000001</ele>
        <time>2017-09-18T10:02:37Z</time>
      </trkpt>
      <trkpt lat="37.957111056894064" lon="12.075301967561245">
        <ele>194.31999999999999</ele>
        <time>2017-09-18T10:02:48Z</time>
      </trkpt>
      <trkpt lat="37.957059005275369" lon="12.075378745794296">
        <ele>193.36000000000001</ele>
        <time>2017-09-18T10:02:57Z</time>
      </trkpt>
      <trkpt lat="37.956991195678711" lon="12.075459379702806">
        <ele>193.36000000000001</ele>
        <time>2017-09-18T10:03:08Z</time>
      </trkpt>
      <trkpt lat="37.956945346668363" lon="12.07556557841599">
        <ele>192.40000000000001</ele>
        <time>2017-09-18T10:03:19Z</time>
      </trkpt>
      <trkpt lat="37.956910813227296" lon="12.075670436024666">
        <ele>191.91999999999999</ele>
        <time>2017-09-18T10:03:30Z</time>
      </trkpt>
      <trkpt lat="37.956849792972207" lon="12.07578057423234">
        <ele>190.96000000000001</ele>
        <time>2017-09-18T10:03:41Z</time>
      </trkpt>
      <trkpt lat="37.956788940355182" lon="12.075878391042352">
        <ele>190.96000000000001</ele>
        <time>2017-09-18T10:03:51Z</time>
      </trkpt>
      <trkpt lat="37.956721382215619" lon="12.075967071577907">
        <ele>191.44</ele>
        <time>2017-09-18T10:04:01Z</time>
      </trkpt>
      <trkpt lat="37.95666916295886" lon="12.07605617120862">
        <ele>192.40000000000001</ele>
        <time>2017-09-18T10:04:12Z</time>
      </trkpt>
      <trkpt lat="37.956630773842335" lon="12.076142337173223">
        <ele>191.91999999999999</ele>
        <time>2017-09-18T10:04:21Z</time>
      </trkpt>
      <trkpt lat="37.956578135490417" lon="12.076234119012952">
        <ele>192.40000000000001</ele>
        <time>2017-09-18T10:04:31Z</time>
      </trkpt>
      <trkpt lat="37.956515019759536" lon="12.076307879760861">
        <ele>195.28</ele>
        <time>2017-09-18T10:04:42Z</time>
      </trkpt>
      <trkpt lat="37.956441342830658" lon="12.076390357688069">
        <ele>194.31999999999999</ele>
        <time>2017-09-18T10:04:53Z</time>
      </trkpt>
      <trkpt lat="37.956389794126153" lon="12.07652086392045">
        <ele>193.36000000000001</ele>
        <time>2017-09-18T10:05:07Z</time>
      </trkpt>
      <trkpt lat="37.95635056681931" lon="12.076651537790895">
        <ele>192.40000000000001</ele>
        <time>2017-09-18T10:05:17Z</time>
      </trkpt>
      <trkpt lat="37.956318967044353" lon="12.076798975467682">
        <ele>192.40000000000001</ele>
        <time>2017-09-18T10:05:29Z</time>
      </trkpt>
      <trkpt lat="37.956301532685757" lon="12.07689025439322">
        <ele>192.40000000000001</ele>
        <time>2017-09-18T10:05:36Z</time>
      </trkpt>
      <trkpt lat="37.956247553229332" lon="12.077061664313078">
        <ele>192.88</ele>
        <time>2017-09-18T10:05:51Z</time>
      </trkpt>
      <trkpt lat="37.95622643083334" lon="12.077088318765163">
        <ele>193.84</ele>
        <time>2017-09-18T10:05:55Z</time>
      </trkpt>
      <trkpt lat="37.956195585429668" lon="12.077140705659986">
        <ele>193.84</ele>
        <time>2017-09-18T10:06:00Z</time>
      </trkpt>
      <trkpt lat="37.956073042005301" lon="12.077208431437612">
        <ele>193.84</ele>
        <time>2017-09-18T10:06:12Z</time>
      </trkpt>
      <trkpt lat="37.956003891304135" lon="12.077284287661314">
        <ele>193.84</ele>
        <time>2017-09-18T10:06:22Z</time>
      </trkpt>
      <trkpt lat="37.955983271822333" lon="12.077381517738104">
        <ele>193.84</ele>
        <time>2017-09-18T10:06:29Z</time>
      </trkpt>
      <trkpt lat="37.955963741987944" lon="12.07740968093276">
        <ele>193.84</ele>
        <time>2017-09-18T10:06:32Z</time>
      </trkpt>
      <trkpt lat="37.955782022327185" lon="12.077473802492023">
        <ele>192.88</ele>
        <time>2017-09-18T10:06:48Z</time>
      </trkpt>
      <trkpt lat="37.955648833885789" lon="12.077490901574492">
        <ele>193.84</ele>
        <time>2017-09-18T10:07:01Z</time>
      </trkpt>
      <trkpt lat="37.955575995147228" lon="12.077493667602539">
        <ele>195.28</ele>
        <time>2017-09-18T10:07:10Z</time>
      </trkpt>
      <trkpt lat="37.955496367067099" lon="12.077526189386845">
        <ele>194.80000000000001</ele>
        <time>2017-09-18T10:07:21Z</time>
      </trkpt>
      <trkpt lat="37.955481112003326" lon="12.077538594603539">
        <ele>194.31999999999999</ele>
        <time>2017-09-18T10:07:23Z</time>
      </trkpt>
      <trkpt lat="37.955458648502827" lon="12.077556196600199">
        <ele>194.31999999999999</ele>
        <time>2017-09-18T10:07:31Z</time>
      </trkpt>
      <trkpt lat="37.95538991689682" lon="12.077589221298695">
        <ele>194.80000000000001</ele>
        <time>2017-09-18T10:07:41Z</time>
      </trkpt>
      <trkpt lat="37.955380193889141" lon="12.077597687020898">
        <ele>194.80000000000001</ele>
        <time>2017-09-18T10:07:55Z</time>
      </trkpt>
      <trkpt lat="37.955299308523536" lon="12.077591987326741">
        <ele>195.28</ele>
        <time>2017-09-18T10:08:06Z</time>
      </trkpt>
      <trkpt lat="37.955293525010347" lon="12.077592238783836">
        <ele>195.28</ele>
        <time>2017-09-18T10:08:07Z</time>
      </trkpt>
      <trkpt lat="37.95516612008214" lon="12.077611852437258">
        <ele>195.28</ele>
        <time>2017-09-18T10:08:21Z</time>
      </trkpt>
      <trkpt lat="37.955092694610357" lon="12.077663652598858">
        <ele>196.72999999999999</ele>
        <time>2017-09-18T10:08:33Z</time>
      </trkpt>
      <trkpt lat="37.955087078735232" lon="12.077676057815552">
        <ele>197.21000000000001</ele>
        <time>2017-09-18T10:08:38Z</time>
      </trkpt>
      <trkpt lat="37.955024968832731" lon="12.077684523537755">
        <ele>198.16999999999999</ele>
        <time>2017-09-18T10:08:47Z</time>
      </trkpt>
      <trkpt lat="37.954997727647424" lon="12.077679494395852">
        <ele>199.61000000000001</ele>
        <time>2017-09-18T10:08:56Z</time>
      </trkpt>
      <trkpt lat="37.955006947740912" lon="12.077677315101027">
        <ele>200.56999999999999</ele>
        <time>2017-09-18T10:09:05Z</time>
      </trkpt>
      <trkpt lat="37.95501172542572" lon="12.077686954289675">
        <ele>200.09</ele>
        <time>2017-09-18T10:09:16Z</time>
      </trkpt>
      <trkpt lat="37.954963529482484" lon="12.077689049765468">
        <ele>200.09</ele>
        <time>2017-09-18T10:09:24Z</time>
      </trkpt>
      <trkpt lat="37.954948944970965" lon="12.077690307050943">
        <ele>201.05000000000001</ele>
        <time>2017-09-18T10:09:36Z</time>
      </trkpt>
      <trkpt lat="37.95495648868382" lon="12.07768477499485">
        <ele>200.56999999999999</ele>
        <time>2017-09-18T10:09:49Z</time>
      </trkpt>
      <trkpt lat="37.954942742362618" lon="12.077659461647272">
        <ele>200.56999999999999</ele>
        <time>2017-09-18T10:10:02Z</time>
      </trkpt>
      <trkpt lat="37.954942574724555" lon="12.07764470949769">
        <ele>200.56999999999999</ele>
        <time>2017-09-18T10:10:12Z</time>
      </trkpt>
      <trkpt lat="37.954924218356609" lon="12.07761780358851">
        <ele>200.56999999999999</ele>
        <time>2017-09-18T10:10:25Z</time>
      </trkpt>
      <trkpt lat="37.954900832846761" lon="12.077567595988512">
        <ele>201.53</ele>
        <time>2017-09-18T10:10:31Z</time>
      </trkpt>
      <trkpt lat="37.954868311062455" lon="12.077487800270319">
        <ele>202.00999999999999</ele>
        <time>2017-09-18T10:10:40Z</time>
      </trkpt>
      <trkpt lat="37.954716347157955" lon="12.077424935996532">
        <ele>202.49000000000001</ele>
        <time>2017-09-18T10:10:54Z</time>
      </trkpt>
      <trkpt lat="37.954618278890848" lon="12.077372800558805">
        <ele>202.49000000000001</ele>
        <time>2017-09-18T10:11:06Z</time>
      </trkpt>
      <trkpt lat="37.954549714922905" lon="12.07735251635313">
        <ele>202.49000000000001</ele>
        <time>2017-09-18T10:11:19Z</time>
      </trkpt>
      <trkpt lat="37.954501938074827" lon="12.077312283217907">
        <ele>203.94</ele>
        <time>2017-09-18T10:11:31Z</time>
      </trkpt>
      <trkpt lat="37.954477379098535" lon="12.077245563268661">
        <ele>205.38</ele>
        <time>2017-09-18T10:11:41Z</time>
      </trkpt>
      <trkpt lat="37.954448545351624" lon="12.077236846089363">
        <ele>205.86000000000001</ele>
        <time>2017-09-18T10:11:53Z</time>
      </trkpt>
      <trkpt lat="37.954399678856134" lon="12.077224357053638">
        <ele>203.94</ele>
        <time>2017-09-18T10:12:01Z</time>
      </trkpt>
      <trkpt lat="37.95438920147717" lon="12.077202815562487">
        <ele>203.46000000000001</ele>
        <time>2017-09-18T10:12:04Z</time>
      </trkpt>
      <trkpt lat="37.954354751855135" lon="12.077047415077686">
        <ele>202.97999999999999</ele>
        <time>2017-09-18T10:12:16Z</time>
      </trkpt>
      <trkpt lat="37.954305801540613" lon="12.076891008764505">
        <ele>202.97999999999999</ele>
        <time>2017-09-18T10:12:29Z</time>
      </trkpt>
      <trkpt lat="37.954238411039114" lon="12.076757736504078">
        <ele>202.00999999999999</ele>
        <time>2017-09-18T10:12:41Z</time>
      </trkpt>
      <trkpt lat="37.954176468774676" lon="12.076635612174869">
        <ele>200.56999999999999</ele>
        <time>2017-09-18T10:12:53Z</time>
      </trkpt>
      <trkpt lat="37.954110587015748" lon="12.076544249430299">
        <ele>198.65000000000001</ele>
        <time>2017-09-18T10:13:05Z</time>
      </trkpt>
      <trkpt lat="37.954040095210075" lon="12.076412821188569">
        <ele>197.69</ele>
        <time>2017-09-18T10:13:20Z</time>
      </trkpt>
      <trkpt lat="37.953988211229444" lon="12.076386921107769">
        <ele>196.72999999999999</ele>
        <time>2017-09-18T10:13:30Z</time>
      </trkpt>
      <trkpt lat="37.953938841819763" lon="12.076269155368209">
        <ele>194.80000000000001</ele>
        <time>2017-09-18T10:13:41Z</time>
      </trkpt>
      <trkpt lat="37.953875474631786" lon="12.076121550053358">
        <ele>193.84</ele>
        <time>2017-09-18T10:13:54Z</time>
      </trkpt>
      <trkpt lat="37.953792661428452" lon="12.075959360226989">
        <ele>192.88</ele>
        <time>2017-09-18T10:14:08Z</time>
      </trkpt>
      <trkpt lat="37.953706998378038" lon="12.075857520103455">
        <ele>192.40000000000001</ele>
        <time>2017-09-18T10:14:21Z</time>
      </trkpt>
      <trkpt lat="37.953646313399076" lon="12.075813598930836">
        <ele>191.91999999999999</ele>
        <time>2017-09-18T10:14:28Z</time>
      </trkpt>
      <trkpt lat="37.953543802723289" lon="12.075671777129173">
        <ele>190.96000000000001</ele>
        <time>2017-09-18T10:14:41Z</time>
      </trkpt>
      <trkpt lat="37.953430647030473" lon="12.075562225654721">
        <ele>191.44</ele>
        <time>2017-09-18T10:14:54Z</time>
      </trkpt>
      <trkpt lat="37.953318161889911" lon="12.075482765212655">
        <ele>190.96000000000001</ele>
        <time>2017-09-18T10:15:07Z</time>
      </trkpt>
      <trkpt lat="37.953243646770716" lon="12.07547664642334">
        <ele>191.91999999999999</ele>
        <time>2017-09-18T10:15:17Z</time>
      </trkpt>
      <trkpt lat="37.953188326209784" lon="12.075521573424339">
        <ele>192.88</ele>
        <time>2017-09-18T10:15:27Z</time>
      </trkpt>
      <trkpt lat="37.953173657879233" lon="12.075585778802633">
        <ele>192.88</ele>
        <time>2017-09-18T10:15:37Z</time>
      </trkpt>
      <trkpt lat="37.95314566232264" lon="12.075655767694116">
        <ele>193.36000000000001</ele>
        <time>2017-09-18T10:15:46Z</time>
      </trkpt>
      <trkpt lat="37.953060502186418" lon="12.075681081041694">
        <ele>193.36000000000001</ele>
        <time>2017-09-18T10:15:56Z</time>
      </trkpt>
      <trkpt lat="37.952969642356038" lon="12.075643194839358">
        <ele>193.36000000000001</ele>
        <time>2017-09-18T10:16:08Z</time>
      </trkpt>
      <trkpt lat="37.952862102538347" lon="12.075611846521497">
        <ele>193.84</ele>
        <time>2017-09-18T10:16:20Z</time>
      </trkpt>
      <trkpt lat="37.952813403680921" lon="12.075597094371915">
        <ele>193.84</ele>
        <time>2017-09-18T10:16:33Z</time>
      </trkpt>
      <trkpt lat="37.952833436429501" lon="12.075587203726172">
        <ele>193.84</ele>
        <time>2017-09-18T10:16:44Z</time>
      </trkpt>
      <trkpt lat="37.952811811119318" lon="12.075592987239361">
        <ele>193.84</ele>
        <time>2017-09-18T10:16:54Z</time>
      </trkpt>
      <trkpt lat="37.952829916030169" lon="12.075599692761898">
        <ele>193.84</ele>
        <time>2017-09-18T10:17:05Z</time>
      </trkpt>
      <trkpt lat="37.952828826382756" lon="12.075506402179599">
        <ele>194.80000000000001</ele>
        <time>2017-09-18T10:17:16Z</time>
      </trkpt>
      <trkpt lat="37.952792784199119" lon="12.075438508763909">
        <ele>194.80000000000001</ele>
        <time>2017-09-18T10:17:28Z</time>
      </trkpt>
      <trkpt lat="37.95276696793735" lon="12.075409926474094">
        <ele>193.36000000000001</ele>
        <time>2017-09-18T10:17:38Z</time>
      </trkpt>
      <trkpt lat="37.952764118090272" lon="12.075400035828352">
        <ele>192.88</ele>
        <time>2017-09-18T10:17:51Z</time>
      </trkpt>
      <trkpt lat="37.952757496386766" lon="12.075417302548885">
        <ele>192.88</ele>
        <time>2017-09-18T10:18:15Z</time>
      </trkpt>
      <trkpt lat="37.952737547457218" lon="12.07543364726007">
        <ele>192.88</ele>
        <time>2017-09-18T10:18:38Z</time>
      </trkpt>
      <trkpt lat="37.95275179669261" lon="12.075401041656733">
        <ele>193.36000000000001</ele>
        <time>2017-09-18T10:18:48Z</time>
      </trkpt>
      <trkpt lat="37.95278892852366" lon="12.075407663360238">
        <ele>193.84</ele>
        <time>2017-09-18T10:18:58Z</time>
      </trkpt>
      <trkpt lat="37.952871909365058" lon="12.075467091053724">
        <ele>195.28</ele>
        <time>2017-09-18T10:19:10Z</time>
      </trkpt>
      <trkpt lat="37.952945418655872" lon="12.075527356937528">
        <ele>194.31999999999999</ele>
        <time>2017-09-18T10:19:22Z</time>
      </trkpt>
      <trkpt lat="37.953030243515968" lon="12.075616372749209">
        <ele>193.84</ele>
        <time>2017-09-18T10:19:33Z</time>
      </trkpt>
      <trkpt lat="37.95301565900445" lon="12.075682505965233">
        <ele>192.40000000000001</ele>
        <time>2017-09-18T10:19:45Z</time>
      </trkpt>
      <trkpt lat="37.953044241294265" lon="12.075696168467402">
        <ele>192.88</ele>
        <time>2017-09-18T10:20:07Z</time>
      </trkpt>
      <trkpt lat="37.953047761693597" lon="12.075736988335848">
        <ele>192.88</ele>
        <time>2017-09-18T10:20:29Z</time>
      </trkpt>
      <trkpt lat="37.953038373962045" lon="12.075661132112145">
        <ele>192.40000000000001</ele>
        <time>2017-09-18T10:20:56Z</time>
      </trkpt>
      <trkpt lat="37.95303326100111" lon="12.075730198994279">
        <ele>192.40000000000001</ele>
        <time>2017-09-18T10:21:15Z</time>
      </trkpt>
      <trkpt lat="37.953036446124315" lon="12.075740592554212">
        <ele>192.88</ele>
        <time>2017-09-18T10:21:39Z</time>
      </trkpt>
      <trkpt lat="37.953049018979073" lon="12.075736485421658">
        <ele>192.88</ele>
        <time>2017-09-18T10:22:03Z</time>
      </trkpt>
      <trkpt lat="37.953064190223813" lon="12.075712848454714">
        <ele>192.88</ele>
        <time>2017-09-18T10:22:28Z</time>
      </trkpt>
      <trkpt lat="37.953047510236502" lon="12.07567797973752">
        <ele>192.88</ele>
        <time>2017-09-18T10:22:49Z</time>
      </trkpt>
      <trkpt lat="37.95305865816772" lon="12.075662724673748">
        <ele>192.88</ele>
        <time>2017-09-18T10:23:23Z</time>
      </trkpt>
      <trkpt lat="37.953050779178739" lon="12.075693067163229">
        <ele>192.88</ele>
        <time>2017-09-18T10:23:53Z</time>
      </trkpt>
      <trkpt lat="37.953033847734332" lon="12.075684266164899">
        <ele>192.88</ele>
        <time>2017-09-18T10:24:16Z</time>
      </trkpt>
      <trkpt lat="37.953021191060543" lon="12.075661886483431">
        <ele>192.88</ele>
        <time>2017-09-18T10:24:41Z</time>
      </trkpt>
      <trkpt lat="37.953042900189757" lon="12.075655600056052">
        <ele>192.88</ele>
        <time>2017-09-18T10:25:11Z</time>
      </trkpt>
      <trkpt lat="37.953050527721643" lon="12.075669011101127">
        <ele>192.88</ele>
        <time>2017-09-18T10:25:41Z</time>
      </trkpt>
      <trkpt lat="37.953044911846519" lon="12.075656522065401">
        <ele>192.88</ele>
        <time>2017-09-18T10:26:05Z</time>
      </trkpt>
      <trkpt lat="37.953045330941677" lon="12.07569507881999">
        <ele>192.88</ele>
        <time>2017-09-18T10:26:34Z</time>
      </trkpt>
      <trkpt lat="37.953051030635834" lon="12.075688121840358">
        <ele>192.88</ele>
        <time>2017-09-18T10:26:58Z</time>
      </trkpt>
      <trkpt lat="37.953037787228823" lon="12.075688121840358">
        <ele>192.88</ele>
        <time>2017-09-18T10:27:26Z</time>
      </trkpt>
      <trkpt lat="37.953023621812463" lon="12.075677393004298">
        <ele>193.36000000000001</ele>
        <time>2017-09-18T10:27:52Z</time>
      </trkpt>
      <trkpt lat="37.953028986230493" lon="12.075672196224332">
        <ele>193.36000000000001</ele>
        <time>2017-09-18T10:28:12Z</time>
      </trkpt>
      <trkpt lat="37.953001828864217" lon="12.075705053284764">
        <ele>193.36000000000001</ele>
        <time>2017-09-18T10:28:35Z</time>
      </trkpt>
      <trkpt lat="37.952980790287256" lon="12.075730785727501">
        <ele>193.36000000000001</ele>
        <time>2017-09-18T10:28:57Z</time>
      </trkpt>
      <trkpt lat="37.953003505244851" lon="12.075730701908469">
        <ele>194.31999999999999</ele>
        <time>2017-09-18T10:29:10Z</time>
      </trkpt>
      <trkpt lat="37.952997470274568" lon="12.075750231742859">
        <ele>194.31999999999999</ele>
        <time>2017-09-18T10:29:24Z</time>
      </trkpt>
      <trkpt lat="37.953005684539676" lon="12.075753752142191">
        <ele>194.31999999999999</ele>
        <time>2017-09-18T10:29:44Z</time>
      </trkpt>
      <trkpt lat="37.952968049794436" lon="12.075766827911139">
        <ele>194.31999999999999</ele>
        <time>2017-09-18T10:30:14Z</time>
      </trkpt>
      <trkpt lat="37.952945753931999" lon="12.075746292248368">
        <ele>194.80000000000001</ele>
        <time>2017-09-18T10:30:36Z</time>
      </trkpt>
      <trkpt lat="37.952935444191098" lon="12.075766241177917">
        <ele>194.80000000000001</ele>
        <time>2017-09-18T10:31:02Z</time>
      </trkpt>
      <trkpt lat="37.952963020652533" lon="12.075715279206634">
        <ele>194.80000000000001</ele>
        <time>2017-09-18T10:31:27Z</time>
      </trkpt>
      <trkpt lat="37.952966373413801" lon="12.075766241177917">
        <ele>195.28</ele>
        <time>2017-09-18T10:31:53Z</time>
      </trkpt>
      <trkpt lat="37.952991519123316" lon="12.075767247006297">
        <ele>195.28</ele>
        <time>2017-09-18T10:32:16Z</time>
      </trkpt>
      <trkpt lat="37.953010881319642" lon="12.075727684423327">
        <ele>195.28</ele>
        <time>2017-09-18T10:32:38Z</time>
      </trkpt>
      <trkpt lat="37.953016832470894" lon="12.075726594775915">
        <ele>195.28</ele>
        <time>2017-09-18T10:33:06Z</time>
      </trkpt>
      <trkpt lat="37.953001409769058" lon="12.075756266713142">
        <ele>194.80000000000001</ele>
        <time>2017-09-18T10:33:25Z</time>
      </trkpt>
      <trkpt lat="37.953014401718974" lon="12.075754590332508">
        <ele>195.28</ele>
        <time>2017-09-18T10:33:36Z</time>
      </trkpt>
      <trkpt lat="37.953000403940678" lon="12.075720811262727">
        <ele>195.77000000000001</ele>
        <time>2017-09-18T10:33:50Z</time>
      </trkpt>
      <trkpt lat="37.952990178018808" lon="12.075714776292443">
        <ele>195.77000000000001</ele>
        <time>2017-09-18T10:34:08Z</time>
      </trkpt>
      <trkpt lat="37.952992524951696" lon="12.075730366632342">
        <ele>195.77000000000001</ele>
        <time>2017-09-18T10:34:26Z</time>
      </trkpt>
      <trkpt lat="37.952998140826821" lon="12.075765654444695">
        <ele>196.25</ele>
        <time>2017-09-18T10:34:48Z</time>
      </trkpt>
      <trkpt lat="37.953002331778407" lon="12.075697761029005">
        <ele>196.25</ele>
        <time>2017-09-18T10:35:06Z</time>
      </trkpt>
      <trkpt lat="37.953010713681579" lon="12.07570681348443">
        <ele>196.25</ele>
        <time>2017-09-18T10:35:25Z</time>
      </trkpt>
      <trkpt lat="37.952999901026487" lon="12.075683930888772">
        <ele>196.25</ele>
        <time>2017-09-18T10:35:52Z</time>
      </trkpt>
      <trkpt lat="37.95297265984118" lon="12.075717877596617">
        <ele>196.25</ele>
        <time>2017-09-18T10:36:15Z</time>
      </trkpt>
      <trkpt lat="37.953003169968724" lon="12.075662473216653">
        <ele>196.25</ele>
        <time>2017-09-18T10:36:41Z</time>
      </trkpt>
      <trkpt lat="37.953020939603448" lon="12.075661299750209">
        <ele>196.72999999999999</ele>
        <time>2017-09-18T10:37:00Z</time>
      </trkpt>
      <trkpt lat="37.953015994280577" lon="12.075740173459053">
        <ele>196.72999999999999</ele>
        <time>2017-09-18T10:37:25Z</time>
      </trkpt>
      <trkpt lat="37.953019011765718" lon="12.075722068548203">
        <ele>196.72999999999999</ele>
        <time>2017-09-18T10:37:41Z</time>
      </trkpt>
      <trkpt lat="37.953027142211795" lon="12.07571167498827">
        <ele>196.72999999999999</ele>
        <time>2017-09-18T10:37:55Z</time>
      </trkpt>
      <trkpt lat="37.953011551871896" lon="12.075747130438685">
        <ele>196.72999999999999</ele>
        <time>2017-09-18T10:38:13Z</time>
      </trkpt>
      <trkpt lat="37.952988082543015" lon="12.075748639181256">
        <ele>197.69</ele>
        <time>2017-09-18T10:38:33Z</time>
      </trkpt>
      <trkpt lat="37.952952291816473" lon="12.075762553140521">
        <ele>197.21000000000001</ele>
        <time>2017-09-18T10:38:48Z</time>
      </trkpt>
      <trkpt lat="37.952961260452867" lon="12.0758016128093">
        <ele>197.21000000000001</ele>
        <time>2017-09-18T10:39:22Z</time>
      </trkpt>
      <trkpt lat="37.9529819637537" lon="12.075813682749867">
        <ele>197.69</ele>
        <time>2017-09-18T10:39:53Z</time>
      </trkpt>
      <trkpt lat="37.952985987067223" lon="12.075751908123493">
        <ele>197.69</ele>
        <time>2017-09-18T10:40:22Z</time>
      </trkpt>
      <trkpt lat="37.952968385070562" lon="12.075708992779255">
        <ele>197.69</ele>
        <time>2017-09-18T10:40:54Z</time>
      </trkpt>
      <trkpt lat="37.952945837751031" lon="12.075694827362895">
        <ele>197.69</ele>
        <time>2017-09-18T10:41:21Z</time>
      </trkpt>
      <trkpt lat="37.952945418655872" lon="12.075683930888772">
        <ele>197.69</ele>
        <time>2017-09-18T10:41:45Z</time>
      </trkpt>
      <trkpt lat="37.952971737831831" lon="12.07573221065104">
        <ele>199.13</ele>
        <time>2017-09-18T10:42:09Z</time>
      </trkpt>
      <trkpt lat="37.952970480546355" lon="12.075739251449704">
        <ele>198.16999999999999</ele>
        <time>2017-09-18T10:42:34Z</time>
      </trkpt>
      <trkpt lat="37.95297559350729" lon="12.075743023306131">
        <ele>197.69</ele>
        <time>2017-09-18T10:43:01Z</time>
      </trkpt>
      <trkpt lat="37.952985484153032" lon="12.075789542868733">
        <ele>197.69</ele>
        <time>2017-09-18T10:43:24Z</time>
      </trkpt>
      <trkpt lat="37.952990513294935" lon="12.075773449614644">
        <ele>197.69</ele>
        <time>2017-09-18T10:43:45Z</time>
      </trkpt>
      <trkpt lat="37.952987663447857" lon="12.07572340965271">
        <ele>198.16999999999999</ele>
        <time>2017-09-18T10:44:13Z</time>
      </trkpt>
      <trkpt lat="37.952987579628825" lon="12.075733970850706">
        <ele>198.65000000000001</ele>
        <time>2017-09-18T10:44:18Z</time>
      </trkpt>
      <trkpt lat="37.952987160533667" lon="12.075739335268736">
        <ele>198.65000000000001</ele>
        <time>2017-09-18T10:44:28Z</time>
      </trkpt>
      <trkpt lat="37.952956985682249" lon="12.075675968080759">
        <ele>198.65000000000001</ele>
        <time>2017-09-18T10:44:43Z</time>
      </trkpt>
      <trkpt lat="37.95294139534235" lon="12.075615786015987">
        <ele>199.61000000000001</ele>
        <time>2017-09-18T10:44:54Z</time>
      </trkpt>
      <trkpt lat="37.95293259434402" lon="12.0755201485008">
        <ele>200.56999999999999</ele>
        <time>2017-09-18T10:45:07Z</time>
      </trkpt>
      <trkpt lat="37.952931169420481" lon="12.075496008619666">
        <ele>200.56999999999999</ele>
        <time>2017-09-18T10:45:22Z</time>
      </trkpt>
      <trkpt lat="37.95290719717741" lon="12.075453260913491">
        <ele>201.53</ele>
        <time>2017-09-18T10:45:32Z</time>
      </trkpt>
      <trkpt lat="37.952886242419481" lon="12.07543951459229">
        <ele>201.53</ele>
        <time>2017-09-18T10:45:35Z</time>
      </trkpt>
      <trkpt lat="37.952822623774409" lon="12.07537354901433">
        <ele>202.97999999999999</ele>
        <time>2017-09-18T10:45:45Z</time>
      </trkpt>
      <trkpt lat="37.952798567712307" lon="12.075306409969926">
        <ele>203.46000000000001</ele>
        <time>2017-09-18T10:45:55Z</time>
      </trkpt>
      <trkpt lat="37.952793622389436" lon="12.075229464098811">
        <ele>203.46000000000001</ele>
        <time>2017-09-18T10:46:05Z</time>
      </trkpt>
      <trkpt lat="37.952794963493943" lon="12.075151931494474">
        <ele>205.38</ele>
        <time>2017-09-18T10:46:13Z</time>
      </trkpt>
      <trkpt lat="37.952785072848201" lon="12.074990412220359">
        <ele>205.86000000000001</ele>
        <time>2017-09-18T10:46:28Z</time>
      </trkpt>
      <trkpt lat="37.952804518863559" lon="12.074861414730549">
        <ele>207.30000000000001</ele>
        <time>2017-09-18T10:46:38Z</time>
      </trkpt>
      <trkpt lat="37.952801585197449" lon="12.074761334806681">
        <ele>208.25999999999999</ele>
        <time>2017-09-18T10:46:46Z</time>
      </trkpt>
      <trkpt lat="37.952726567164063" lon="12.074608700349927">
        <ele>209.22</ele>
        <time>2017-09-18T10:46:59Z</time>
      </trkpt>
      <trkpt lat="37.952696057036519" lon="12.074490515515208">
        <ele>209.69999999999999</ele>
        <time>2017-09-18T10:47:09Z</time>
      </trkpt>
      <trkpt lat="37.952681975439191" lon="12.074416754767299">
        <ele>209.69999999999999</ele>
        <time>2017-09-18T10:47:20Z</time>
      </trkpt>
      <trkpt lat="37.952692620456219" lon="12.074406193569303">
        <ele>209.69999999999999</ele>
        <time>2017-09-18T10:47:32Z</time>
      </trkpt>
      <trkpt lat="37.952668899670243" lon="12.074414491653442">
        <ele>209.69999999999999</ele>
        <time>2017-09-18T10:47:49Z</time>
      </trkpt>
      <trkpt lat="37.952631516382098" lon="12.074328912422061">
        <ele>210.19</ele>
        <time>2017-09-18T10:48:04Z</time>
      </trkpt>
      <trkpt lat="37.952594216912985" lon="12.074238387867808">
        <ele>211.15000000000001</ele>
        <time>2017-09-18T10:48:13Z</time>
      </trkpt>
      <trkpt lat="37.952560018748045" lon="12.074137637391686">
        <ele>211.15000000000001</ele>
        <time>2017-09-18T10:48:24Z</time>
      </trkpt>
      <trkpt lat="37.952523389831185" lon="12.074045855551958">
        <ele>211.63</ele>
        <time>2017-09-18T10:48:37Z</time>
      </trkpt>
      <trkpt lat="37.952523054555058" lon="12.073934879153967">
        <ele>211.63</ele>
        <time>2017-09-18T10:48:51Z</time>
      </trkpt>
      <trkpt lat="37.952541997656226" lon="12.073957091197371">
        <ele>211.63</ele>
        <time>2017-09-18T10:49:05Z</time>
      </trkpt>
      <trkpt lat="37.952535124495625" lon="12.074009226635098">
        <ele>212.11000000000001</ele>
        <time>2017-09-18T10:49:25Z</time>
      </trkpt>
      <trkpt lat="37.952482653781772" lon="12.073947368189692">
        <ele>212.11000000000001</ele>
        <time>2017-09-18T10:49:37Z</time>
      </trkpt>
      <trkpt lat="37.952429931610823" lon="12.073848126456141">
        <ele>212.11000000000001</ele>
        <time>2017-09-18T10:49:48Z</time>
      </trkpt>
      <trkpt lat="37.952388608828187" lon="12.07375324331224">
        <ele>212.59</ele>
        <time>2017-09-18T10:49:59Z</time>
      </trkpt>
      <trkpt lat="37.952365977689624" lon="12.073775120079517">
        <ele>212.59</ele>
        <time>2017-09-18T10:50:09Z</time>
      </trkpt>
      <trkpt lat="37.952361954376101" lon="12.073746789246798">
        <ele>213.55000000000001</ele>
        <time>2017-09-18T10:50:21Z</time>
      </trkpt>
      <trkpt lat="37.952349968254566" lon="12.073715524747968">
        <ele>212.59</ele>
        <time>2017-09-18T10:50:34Z</time>
      </trkpt>
      <trkpt lat="37.952340748161077" lon="12.073695911094546">
        <ele>213.06999999999999</ele>
        <time>2017-09-18T10:50:36Z</time>
      </trkpt>
      <trkpt lat="37.952321637421846" lon="12.073654336854815">
        <ele>213.55000000000001</ele>
        <time>2017-09-18T10:50:40Z</time>
      </trkpt>
      <trkpt lat="37.952264389023185" lon="12.073497846722603">
        <ele>214.50999999999999</ele>
        <time>2017-09-18T10:50:54Z</time>
      </trkpt>
      <trkpt lat="37.952213594689965" lon="12.073309170082211">
        <ele>214.99000000000001</ele>
        <time>2017-09-18T10:51:08Z</time>
      </trkpt>
      <trkpt lat="37.952165566384792" lon="12.073178663849831">
        <ele>215.47</ele>
        <time>2017-09-18T10:51:18Z</time>
      </trkpt>
      <trkpt lat="37.952128015458584" lon="12.073025945574045">
        <ele>216.43000000000001</ele>
        <time>2017-09-18T10:51:31Z</time>
      </trkpt>
      <trkpt lat="37.952083172276616" lon="12.072895271703601">
        <ele>216.91</ele>
        <time>2017-09-18T10:51:42Z</time>
      </trkpt>
      <trkpt lat="37.952055847272277" lon="12.072752276435494">
        <ele>217.40000000000001</ele>
        <time>2017-09-18T10:51:54Z</time>
      </trkpt>
      <trkpt lat="37.952067498117685" lon="12.072567790746689">
        <ele>218.36000000000001</ele>
        <time>2017-09-18T10:52:07Z</time>
      </trkpt>
      <trkpt lat="37.952081579715014" lon="12.07239730283618">
        <ele>218.84</ele>
        <time>2017-09-18T10:52:19Z</time>
      </trkpt>
      <trkpt lat="37.952096834778786" lon="12.072233352810144">
        <ele>219.31999999999999</ele>
        <time>2017-09-18T10:52:30Z</time>
      </trkpt>
      <trkpt lat="37.952125584706664" lon="12.072046436369419">
        <ele>219.80000000000001</ele>
        <time>2017-09-18T10:52:43Z</time>
      </trkpt>
      <trkpt lat="37.952150395140052" lon="12.071892628446221">
        <ele>220.75999999999999</ele>
        <time>2017-09-18T10:52:54Z</time>
      </trkpt>
      <trkpt lat="37.95219867490232" lon="12.071683835238218">
        <ele>220.75999999999999</ele>
        <time>2017-09-18T10:53:09Z</time>
      </trkpt>
      <trkpt lat="37.952240919694304" lon="12.071532374247909">
        <ele>220.75999999999999</ele>
        <time>2017-09-18T10:53:21Z</time>
      </trkpt>
      <trkpt lat="37.952289786189795" lon="12.071363059803843">
        <ele>220.75999999999999</ele>
        <time>2017-09-18T10:53:34Z</time>
      </trkpt>
      <trkpt lat="37.952345442026854" lon="12.071183100342751">
        <ele>220.75999999999999</ele>
        <time>2017-09-18T10:53:47Z</time>
      </trkpt>
      <trkpt lat="37.952484749257565" lon="12.071003895252943">
        <ele>220.28</ele>
        <time>2017-09-18T10:54:04Z</time>
      </trkpt>
      <trkpt lat="37.952592959627509" lon="12.070896774530411">
        <ele>220.75999999999999</ele>
        <time>2017-09-18T10:54:17Z</time>
      </trkpt>
      <trkpt lat="37.952698152512312" lon="12.07077213563025">
        <ele>220.75999999999999</ele>
        <time>2017-09-18T10:54:31Z</time>
      </trkpt>
      <trkpt lat="37.95277283526957" lon="12.070687310770154">
        <ele>220.28</ele>
        <time>2017-09-18T10:54:42Z</time>
      </trkpt>
      <trkpt lat="37.952852630987763" lon="12.070565773174167">
        <ele>220.28</ele>
        <time>2017-09-18T10:54:53Z</time>
      </trkpt>
      <trkpt lat="37.952879872173071" lon="12.070420682430267">
        <ele>219.80000000000001</ele>
        <time>2017-09-18T10:55:05Z</time>
      </trkpt>
      <trkpt lat="37.952901748940349" lon="12.070316076278687">
        <ele>219.31999999999999</ele>
        <time>2017-09-18T10:55:13Z</time>
      </trkpt>
      <trkpt lat="37.952928068116307" lon="12.070120694115758">
        <ele>217.88</ele>
        <time>2017-09-18T10:55:27Z</time>
      </trkpt>
      <trkpt lat="37.952952878549695" lon="12.06997761502862">
        <ele>216.91</ele>
        <time>2017-09-18T10:55:39Z</time>
      </trkpt>
      <trkpt lat="37.952961763367057" lon="12.069947272539139">
        <ele>216.43000000000001</ele>
        <time>2017-09-18T10:55:42Z</time>
      </trkpt>
      <trkpt lat="37.953006606549025" lon="12.06983151845634">
        <ele>215.94999999999999</ele>
        <time>2017-09-18T10:55:52Z</time>
      </trkpt>
      <trkpt lat="37.953091515228152" lon="12.069732444360852">
        <ele>216.43000000000001</ele>
        <time>2017-09-18T10:56:01Z</time>
      </trkpt>
      <trkpt lat="37.953192517161369" lon="12.069645524024963">
        <ele>217.40000000000001</ele>
        <time>2017-09-18T10:56:13Z</time>
      </trkpt>
      <trkpt lat="37.953273989260197" lon="12.069534715265036">
        <ele>216.91</ele>
        <time>2017-09-18T10:56:24Z</time>
      </trkpt>
      <trkpt lat="37.953337775543332" lon="12.069399179890752">
        <ele>216.43000000000001</ele>
        <time>2017-09-18T10:56:36Z</time>
      </trkpt>
      <trkpt lat="37.953361580148339" lon="12.069298345595598">
        <ele>215.94999999999999</ele>
        <time>2017-09-18T10:56:44Z</time>
      </trkpt>
      <trkpt lat="37.953382786363363" lon="12.069074381142855">
        <ele>216.43000000000001</ele>
        <time>2017-09-18T10:56:59Z</time>
      </trkpt>
      <trkpt lat="37.953408099710941" lon="12.068979330360889">
        <ele>215.94999999999999</ele>
        <time>2017-09-18T10:57:06Z</time>
      </trkpt>
      <trkpt lat="37.953521255403757" lon="12.068935744464397">
        <ele>214.99000000000001</ele>
        <time>2017-09-18T10:57:20Z</time>
      </trkpt>
      <trkpt lat="37.953614881262183" lon="12.06895443610847">
        <ele>214.99000000000001</ele>
        <time>2017-09-18T10:57:32Z</time>
      </trkpt>
      <trkpt lat="37.953653270378709" lon="12.068942533805966">
        <ele>214.99000000000001</ele>
        <time>2017-09-18T10:57:36Z</time>
      </trkpt>
      <trkpt lat="37.953798864036798" lon="12.06881957128644">
        <ele>214.99000000000001</ele>
        <time>2017-09-18T10:57:52Z</time>
      </trkpt>
      <trkpt lat="37.953885197639465" lon="12.068755282089114">
        <ele>214.50999999999999</ele>
        <time>2017-09-18T10:58:03Z</time>
      </trkpt>
      <trkpt lat="37.953968262299895" lon="12.068642377853394">
        <ele>214.03</ele>
        <time>2017-09-18T10:58:16Z</time>
      </trkpt>
      <trkpt lat="37.954074628651142" lon="12.068446828052402">
        <ele>213.06999999999999</ele>
        <time>2017-09-18T10:58:34Z</time>
      </trkpt>
      <trkpt lat="37.954139085486531" lon="12.068320512771606">
        <ele>213.55000000000001</ele>
        <time>2017-09-18T10:58:47Z</time>
      </trkpt>
      <trkpt lat="37.954154089093208" lon="12.068276843056083">
        <ele>213.55000000000001</ele>
        <time>2017-09-18T10:58:56Z</time>
      </trkpt>
      <trkpt lat="37.95415174216032" lon="12.06828011199832">
        <ele>213.55000000000001</ele>
        <time>2017-09-18T10:59:10Z</time>
      </trkpt>
      <trkpt lat="37.954160291701555" lon="12.068282207474113">
        <ele>213.06999999999999</ele>
        <time>2017-09-18T10:59:23Z</time>
      </trkpt>
      <trkpt lat="37.954149479046464" lon="12.068277765065432">
        <ele>213.55000000000001</ele>
        <time>2017-09-18T10:59:39Z</time>
      </trkpt>
      <trkpt lat="37.954147299751639" lon="12.068278435617685">
        <ele>214.03</ele>
        <time>2017-09-18T10:59:55Z</time>
      </trkpt>
      <trkpt lat="37.954153502359986" lon="12.068280531093478">
        <ele>213.06999999999999</ele>
        <time>2017-09-18T11:00:11Z</time>
      </trkpt>
      <trkpt lat="37.95415123924613" lon="12.068282542750239">
        <ele>213.55000000000001</ele>
        <time>2017-09-18T11:00:25Z</time>
      </trkpt>
      <trkpt lat="37.954160962253809" lon="12.068256223574281">
        <ele>213.55000000000001</ele>
        <time>2017-09-18T11:00:45Z</time>
      </trkpt>
      <trkpt lat="37.954161465167999" lon="12.068266114220023">
        <ele>214.03</ele>
        <time>2017-09-18T11:01:07Z</time>
      </trkpt>
      <trkpt lat="37.954160626977682" lon="12.068259157240391">
        <ele>214.03</ele>
        <time>2017-09-18T11:01:21Z</time>
      </trkpt>
      <trkpt lat="37.9541649017483" lon="12.06824348308146">
        <ele>214.03</ele>
        <time>2017-09-18T11:01:31Z</time>
      </trkpt>
      <trkpt lat="37.954189628362656" lon="12.06815798766911">
        <ele>214.03</ele>
        <time>2017-09-18T11:01:41Z</time>
      </trkpt>
      <trkpt lat="37.954226424917579" lon="12.068055896088481">
        <ele>214.50999999999999</ele>
        <time>2017-09-18T11:01:52Z</time>
      </trkpt>
      <trkpt lat="37.954261964187026" lon="12.067956570535898">
        <ele>214.50999999999999</ele>
        <time>2017-09-18T11:02:04Z</time>
      </trkpt>
      <trkpt lat="37.954320050776005" lon="12.067849868908525">
        <ele>214.99000000000001</ele>
        <time>2017-09-18T11:02:16Z</time>
      </trkpt>
      <trkpt lat="37.954395655542612" lon="12.067747274413705">
        <ele>214.50999999999999</ele>
        <time>2017-09-18T11:02:28Z</time>
      </trkpt>
      <trkpt lat="37.954460280016065" lon="12.06765809096396">
        <ele>214.99000000000001</ele>
        <time>2017-09-18T11:02:40Z</time>
      </trkpt>
      <trkpt lat="37.954495986923575" lon="12.067540241405368">
        <ele>215.94999999999999</ele>
        <time>2017-09-18T11:02:52Z</time>
      </trkpt>
      <trkpt lat="37.954502943903208" lon="12.067501600831747">
        <ele>216.43000000000001</ele>
        <time>2017-09-18T11:02:56Z</time>
      </trkpt>
      <trkpt lat="37.954513672739267" lon="12.067399341613054">
        <ele>217.40000000000001</ele>
        <time>2017-09-18T11:03:05Z</time>
      </trkpt>
      <trkpt lat="37.954502021893859" lon="12.067287946119905">
        <ele>218.36000000000001</ele>
        <time>2017-09-18T11:03:16Z</time>
      </trkpt>
      <trkpt lat="37.954518618062139" lon="12.067183423787355">
        <ele>219.31999999999999</ele>
        <time>2017-09-18T11:03:25Z</time>
      </trkpt>
      <trkpt lat="37.954559940844774" lon="12.067080242559314">
        <ele>220.28</ele>
        <time>2017-09-18T11:03:36Z</time>
      </trkpt>
      <trkpt lat="37.954631689935923" lon="12.066967422142625">
        <ele>221.24000000000001</ele>
        <time>2017-09-18T11:03:49Z</time>
      </trkpt>
      <trkpt lat="37.954700337722898" lon="12.066832892596722">
        <ele>221.72</ele>
        <time>2017-09-18T11:04:03Z</time>
      </trkpt>
      <trkpt lat="37.954767979681492" lon="12.066668774932623">
        <ele>222.68000000000001</ele>
        <time>2017-09-18T11:04:17Z</time>
      </trkpt>
      <trkpt lat="37.954868813976645" lon="12.066508429124951">
        <ele>222.68000000000001</ele>
        <time>2017-09-18T11:04:31Z</time>
      </trkpt>
      <trkpt lat="37.95500778593123" lon="12.066418156027794">
        <ele>222.68000000000001</ele>
        <time>2017-09-18T11:04:44Z</time>
      </trkpt>
      <trkpt lat="37.955078193917871" lon="12.066341713070869">
        <ele>222.19999999999999</ele>
        <time>2017-09-18T11:04:53Z</time>
      </trkpt>
      <trkpt lat="37.955147596076131" lon="12.066223360598087">
        <ele>222.19999999999999</ele>
        <time>2017-09-18T11:05:06Z</time>
      </trkpt>
      <trkpt lat="37.955234264954925" lon="12.066056309267879">
        <ele>222.68000000000001</ele>
        <time>2017-09-18T11:05:20Z</time>
      </trkpt>
      <trkpt lat="37.955261254683137" lon="12.065888838842511">
        <ele>223.16</ele>
        <time>2017-09-18T11:05:33Z</time>
      </trkpt>
      <trkpt lat="37.955283550545573" lon="12.065719189122319">
        <ele>224.12</ele>
        <time>2017-09-18T11:05:46Z</time>
      </trkpt>
      <trkpt lat="37.955304924398661" lon="12.065525986254215">
        <ele>224.12</ele>
        <time>2017-09-18T11:05:59Z</time>
      </trkpt>
      <trkpt lat="37.955308109521866" lon="12.065426744520664">
        <ele>224.61000000000001</ele>
        <time>2017-09-18T11:06:06Z</time>
      </trkpt>
      <trkpt lat="37.955318419262767" lon="12.065397407859564">
        <ele>225.09</ele>
        <time>2017-09-18T11:06:09Z</time>
      </trkpt>
      <trkpt lat="37.955366782844067" lon="12.065251059830189">
        <ele>226.05000000000001</ele>
        <time>2017-09-18T11:06:23Z</time>
      </trkpt>
      <trkpt lat="37.955376086756587" lon="12.065221890807152">
        <ele>224.12</ele>
        <time>2017-09-18T11:06:26Z</time>
      </trkpt>
      <trkpt lat="37.95542361214757" lon="12.065068501979113">
        <ele>222.68000000000001</ele>
        <time>2017-09-18T11:06:39Z</time>
      </trkpt>
      <trkpt lat="37.955477759242058" lon="12.064894242212176">
        <ele>221.72</ele>
        <time>2017-09-18T11:06:52Z</time>
      </trkpt>
      <trkpt lat="37.955486811697483" lon="12.064813608303666">
        <ele>221.24000000000001</ele>
        <time>2017-09-18T11:06:59Z</time>
      </trkpt>
      <trkpt lat="37.955535929650068" lon="12.064674803987145">
        <ele>220.28</ele>
        <time>2017-09-18T11:07:11Z</time>
      </trkpt>
      <trkpt lat="37.955582030117512" lon="12.064543962478638">
        <ele>219.31999999999999</ele>
        <time>2017-09-18T11:07:24Z</time>
      </trkpt>
      <trkpt lat="37.955596195533872" lon="12.06439359113574">
        <ele>218.36000000000001</ele>
        <time>2017-09-18T11:07:39Z</time>
      </trkpt>
      <trkpt lat="37.955614635720849" lon="12.064241040498018">
        <ele>217.40000000000001</ele>
        <time>2017-09-18T11:07:52Z</time>
      </trkpt>
      <trkpt lat="37.955650007352233" lon="12.064116569235921">
        <ele>216.91</ele>
        <time>2017-09-18T11:08:04Z</time>
      </trkpt>
      <trkpt lat="37.955707171931863" lon="12.063970556482673">
        <ele>215.94999999999999</ele>
        <time>2017-09-18T11:08:17Z</time>
      </trkpt>
      <trkpt lat="37.955769114196301" lon="12.063710717484355">
        <ele>214.99000000000001</ele>
        <time>2017-09-18T11:08:35Z</time>
      </trkpt>
      <trkpt lat="37.955807419493794" lon="12.063604183495045">
        <ele>214.03</ele>
        <time>2017-09-18T11:08:44Z</time>
      </trkpt>
      <trkpt lat="37.955898949876428" lon="12.063434617593884">
        <ele>213.55000000000001</ele>
        <time>2017-09-18T11:08:59Z</time>
      </trkpt>
      <trkpt lat="37.956011854112148" lon="12.063308386132121">
        <ele>212.59</ele>
        <time>2017-09-18T11:09:13Z</time>
      </trkpt>
      <trkpt lat="37.956133894622326" lon="12.063285922631621">
        <ele>211.63</ele>
        <time>2017-09-18T11:09:26Z</time>
      </trkpt>
      <trkpt lat="37.956221904605627" lon="12.063203360885382">
        <ele>211.15000000000001</ele>
        <time>2017-09-18T11:09:38Z</time>
      </trkpt>
      <trkpt lat="37.956186449155211" lon="12.063100347295403">
        <ele>209.69999999999999</ele>
        <time>2017-09-18T11:09:51Z</time>
      </trkpt>
      <trkpt lat="37.956178402528167" lon="12.06308257766068">
        <ele>209.22</ele>
        <time>2017-09-18T11:09:54Z</time>
      </trkpt>
      <trkpt lat="37.956170020624995" lon="12.062895577400923">
        <ele>208.74000000000001</ele>
        <time>2017-09-18T11:10:09Z</time>
      </trkpt>
      <trkpt lat="37.956192987039685" lon="12.062755096703768">
        <ele>207.78</ele>
        <time>2017-09-18T11:10:21Z</time>
      </trkpt>
      <trkpt lat="37.956226514652371" lon="12.06260128878057">
        <ele>206.81999999999999</ele>
        <time>2017-09-18T11:10:34Z</time>
      </trkpt>
      <trkpt lat="37.956248307600617" lon="12.062472542747855">
        <ele>206.34</ele>
        <time>2017-09-18T11:10:46Z</time>
      </trkpt>
      <trkpt lat="37.95626942999661" lon="12.062365002930164">
        <ele>205.86000000000001</ele>
        <time>2017-09-18T11:10:54Z</time>
      </trkpt>
      <trkpt lat="37.956306058913469" lon="12.06217129714787">
        <ele>204.41999999999999</ele>
        <time>2017-09-18T11:11:09Z</time>
      </trkpt>
      <trkpt lat="37.956343945115805" lon="12.062028888612986">
        <ele>203.46000000000001</ele>
        <time>2017-09-18T11:11:21Z</time>
      </trkpt>
      <trkpt lat="37.956371605396271" lon="12.061888575553894">
        <ele>202.49000000000001</ele>
        <time>2017-09-18T11:11:32Z</time>
      </trkpt>
      <trkpt lat="37.956399014219642" lon="12.061722865328193">
        <ele>202.00999999999999</ele>
        <time>2017-09-18T11:11:44Z</time>
      </trkpt>
      <trkpt lat="37.956452490761876" lon="12.061580708250403">
        <ele>201.05000000000001</ele>
        <time>2017-09-18T11:11:56Z</time>
      </trkpt>
      <trkpt lat="37.956483419984579" lon="12.061438886448741">
        <ele>200.09</ele>
        <time>2017-09-18T11:12:09Z</time>
      </trkpt>
      <trkpt lat="37.956512086093426" lon="12.061248617246747">
        <ele>199.13</ele>
        <time>2017-09-18T11:12:25Z</time>
      </trkpt>
      <trkpt lat="37.956543769687414" lon="12.061080727726221">
        <ele>198.65000000000001</ele>
        <time>2017-09-18T11:12:38Z</time>
      </trkpt>
      <trkpt lat="37.956531951203942" lon="12.060889536514878">
        <ele>197.69</ele>
        <time>2017-09-18T11:12:51Z</time>
      </trkpt>
      <trkpt lat="37.956536561250687" lon="12.060678983107209">
        <ele>195.77000000000001</ele>
        <time>2017-09-18T11:13:07Z</time>
      </trkpt>
      <trkpt lat="37.956513343378901" lon="12.060529952868819">
        <ele>194.31999999999999</ele>
        <time>2017-09-18T11:13:20Z</time>
      </trkpt>
      <trkpt lat="37.956489371135831" lon="12.060340689495206">
        <ele>192.88</ele>
        <time>2017-09-18T11:13:35Z</time>
      </trkpt>
      <trkpt lat="37.956467997282743" lon="12.060163747519255">
        <ele>191.91999999999999</ele>
        <time>2017-09-18T11:13:49Z</time>
      </trkpt>
      <trkpt lat="37.956457184627652" lon="12.060049502179027">
        <ele>190.47999999999999</ele>
        <time>2017-09-18T11:14:00Z</time>
      </trkpt>
      <trkpt lat="37.95640530064702" lon="12.059898627921939">
        <ele>189.03999999999999</ele>
        <time>2017-09-18T11:14:15Z</time>
      </trkpt>
      <trkpt lat="37.956348052248359" lon="12.059844983741641">
        <ele>187.59</ele>
        <time>2017-09-18T11:14:26Z</time>
      </trkpt>
      <trkpt lat="37.956338161602616" lon="12.059779521077871">
        <ele>186.63</ele>
        <time>2017-09-18T11:14:31Z</time>
      </trkpt>
      <trkpt lat="37.956336317583919" lon="12.059761835262179">
        <ele>186.15000000000001</ele>
        <time>2017-09-18T11:14:32Z</time>
      </trkpt>
      <trkpt lat="37.956396332010627" lon="12.059610122814775">
        <ele>184.22999999999999</ele>
        <time>2017-09-18T11:14:44Z</time>
      </trkpt>
      <trkpt lat="37.956411838531494" lon="12.059588665142655">
        <ele>183.75</ele>
        <time>2017-09-18T11:14:46Z</time>
      </trkpt>
      <trkpt lat="37.956462213769555" lon="12.059519765898585">
        <ele>182.78999999999999</ele>
        <time>2017-09-18T11:14:53Z</time>
      </trkpt>
      <trkpt lat="37.956543853506446" lon="12.059435360133648">
        <ele>181.34999999999999</ele>
        <time>2017-09-18T11:15:05Z</time>
      </trkpt>
      <trkpt lat="37.956653069704771" lon="12.059416919946671">
        <ele>179.41999999999999</ele>
        <time>2017-09-18T11:15:18Z</time>
      </trkpt>
      <trkpt lat="37.956696068868041" lon="12.059361431747675">
        <ele>178.46000000000001</ele>
        <time>2017-09-18T11:15:27Z</time>
      </trkpt>
      <trkpt lat="37.956704786047339" lon="12.059211982414126">
        <ele>178.46000000000001</ele>
        <time>2017-09-18T11:15:39Z</time>
      </trkpt>
      <trkpt lat="37.956705624237657" lon="12.059201253578067">
        <ele>178.46000000000001</ele>
        <time>2017-09-18T11:15:40Z</time>
      </trkpt>
      <trkpt lat="37.956673270091414" lon="12.059143669903278">
        <ele>178.46000000000001</ele>
        <time>2017-09-18T11:15:47Z</time>
      </trkpt>
      <trkpt lat="37.956618368625641" lon="12.059124642983079">
        <ele>178.46000000000001</ele>
        <time>2017-09-18T11:15:54Z</time>
      </trkpt>
      <trkpt lat="37.956502363085747" lon="12.059094049036503">
        <ele>178.46000000000001</ele>
        <time>2017-09-18T11:16:06Z</time>
      </trkpt>
      <trkpt lat="37.956387950107455" lon="12.059059012681246">
        <ele>177.5</ele>
        <time>2017-09-18T11:16:19Z</time>
      </trkpt>
      <trkpt lat="37.956277141347528" lon="12.059115087613463">
        <ele>176.06</ele>
        <time>2017-09-18T11:16:33Z</time>
      </trkpt>
      <trkpt lat="37.956148060038686" lon="12.059165630489588">
        <ele>175.09999999999999</ele>
        <time>2017-09-18T11:16:46Z</time>
      </trkpt>
      <trkpt lat="37.956029204651713" lon="12.059143083170056">
        <ele>173.66</ele>
        <time>2017-09-18T11:16:59Z</time>
      </trkpt>
      <trkpt lat="37.955909930169582" lon="12.059110896661878">
        <ele>172.21000000000001</ele>
        <time>2017-09-18T11:17:11Z</time>
      </trkpt>
      <trkpt lat="37.955821165814996" lon="12.059054570272565">
        <ele>171.25</ele>
        <time>2017-09-18T11:17:23Z</time>
      </trkpt>
      <trkpt lat="37.955786129459739" lon="12.059016851708293">
        <ele>170.28999999999999</ele>
        <time>2017-09-18T11:17:29Z</time>
      </trkpt>
      <trkpt lat="37.955777244642377" lon="12.058994555845857">
        <ele>170.28999999999999</ele>
        <time>2017-09-18T11:17:31Z</time>
      </trkpt>
      <trkpt lat="37.955779088661075" lon="12.058916436508298">
        <ele>169.33000000000001</ele>
        <time>2017-09-18T11:17:38Z</time>
      </trkpt>
      <trkpt lat="37.955834995955229" lon="12.058824738487601">
        <ele>167.88999999999999</ele>
        <time>2017-09-18T11:17:50Z</time>
      </trkpt>
      <trkpt lat="37.955917976796627" lon="12.058728514239192">
        <ele>165.96000000000001</ele>
        <time>2017-09-18T11:18:02Z</time>
      </trkpt>
      <trkpt lat="37.95600363984704" lon="12.058653244748712">
        <ele>164.52000000000001</ele>
        <time>2017-09-18T11:18:13Z</time>
      </trkpt>
      <trkpt lat="37.956057032570243" lon="12.058531036600471">
        <ele>163.08000000000001</ele>
        <time>2017-09-18T11:18:24Z</time>
      </trkpt>
      <trkpt lat="37.956090979278088" lon="12.058410672470927">
        <ele>161.63999999999999</ele>
        <time>2017-09-18T11:18:36Z</time>
      </trkpt>
      <trkpt lat="37.956109503284097" lon="12.058303132653236">
        <ele>159.72</ele>
        <time>2017-09-18T11:18:48Z</time>
      </trkpt>
      <trkpt lat="37.956131380051374" lon="12.058206237852573">
        <ele>158.27000000000001</ele>
        <time>2017-09-18T11:18:58Z</time>
      </trkpt>
      <trkpt lat="37.956151831895113" lon="12.058179248124361">
        <ele>158.27000000000001</ele>
        <time>2017-09-18T11:19:01Z</time>
      </trkpt>
      <trkpt lat="37.956173289567232" lon="12.058047065511346">
        <ele>155.87</ele>
        <time>2017-09-18T11:19:15Z</time>
      </trkpt>
      <trkpt lat="37.956158202141523" lon="12.057901890948415">
        <ele>153.94999999999999</ele>
        <time>2017-09-18T11:19:30Z</time>
      </trkpt>
      <trkpt lat="37.956141857430339" lon="12.057770881801844">
        <ele>152.50999999999999</ele>
        <time>2017-09-18T11:19:41Z</time>
      </trkpt>
      <trkpt lat="37.956152418628335" lon="12.057654960080981">
        <ele>151.53999999999999</ele>
        <time>2017-09-18T11:19:53Z</time>
      </trkpt>
      <trkpt lat="37.956164153292775" lon="12.057586144655943">
        <ele>150.58000000000001</ele>
        <time>2017-09-18T11:20:02Z</time>
      </trkpt>
      <trkpt lat="37.956188712269068" lon="12.057464439421892">
        <ele>148.18000000000001</ele>
        <time>2017-09-18T11:20:16Z</time>
      </trkpt>
      <trkpt lat="37.956154681742191" lon="12.057379027828574">
        <ele>147.22</ele>
        <time>2017-09-18T11:20:28Z</time>
      </trkpt>
      <trkpt lat="37.956136744469404" lon="12.057326221838593">
        <ele>146.25999999999999</ele>
        <time>2017-09-18T11:20:34Z</time>
      </trkpt>
      <trkpt lat="37.956104055047035" lon="12.057200409471989">
        <ele>144.81999999999999</ele>
        <time>2017-09-18T11:20:47Z</time>
      </trkpt>
      <trkpt lat="37.956069270148873" lon="12.057108795270324">
        <ele>143.84999999999999</ele>
        <time>2017-09-18T11:21:00Z</time>
      </trkpt>
      <trkpt lat="37.956050410866737" lon="12.057076524943113">
        <ele>142.88999999999999</ele>
        <time>2017-09-18T11:21:05Z</time>
      </trkpt>
      <trkpt lat="37.956010513007641" lon="12.056959681212902">
        <ele>142.41</ele>
        <time>2017-09-18T11:21:16Z</time>
      </trkpt>
      <trkpt lat="37.955962903797626" lon="12.056889608502388">
        <ele>140.97</ele>
        <time>2017-09-18T11:21:25Z</time>
      </trkpt>
      <trkpt lat="37.955869445577264" lon="12.056759186089039">
        <ele>139.05000000000001</ele>
        <time>2017-09-18T11:21:39Z</time>
      </trkpt>
      <trkpt lat="37.955855028703809" lon="12.056742338463664">
        <ele>138.56999999999999</ele>
        <time>2017-09-18T11:21:41Z</time>
      </trkpt>
      <trkpt lat="37.955850167199969" lon="12.056605461984873">
        <ele>136.63999999999999</ele>
        <time>2017-09-18T11:21:53Z</time>
      </trkpt>
      <trkpt lat="37.955804569646716" lon="12.056461628526449">
        <ele>134.72</ele>
        <time>2017-09-18T11:22:07Z</time>
      </trkpt>
      <trkpt lat="37.955806329846382" lon="12.056329697370529">
        <ele>133.28</ele>
        <time>2017-09-18T11:22:19Z</time>
      </trkpt>
      <trkpt lat="37.955820746719837" lon="12.056195335462689">
        <ele>131.36000000000001</ele>
        <time>2017-09-18T11:22:31Z</time>
      </trkpt>
      <trkpt lat="37.955837091431022" lon="12.056155269965529">
        <ele>130.88</ele>
        <time>2017-09-18T11:22:35Z</time>
      </trkpt>
      <trkpt lat="37.955849077552557" lon="12.056134147569537">
        <ele>130.88</ele>
        <time>2017-09-18T11:22:37Z</time>
      </trkpt>
      <trkpt lat="37.955926274880767" lon="12.055994924157858">
        <ele>128.94999999999999</ele>
        <time>2017-09-18T11:22:51Z</time>
      </trkpt>
      <trkpt lat="37.955942284315825" lon="12.055945890024304">
        <ele>128.47</ele>
        <time>2017-09-18T11:22:56Z</time>
      </trkpt>
      <trkpt lat="37.955919485539198" lon="12.055779593065381">
        <ele>126.06999999999999</ele>
        <time>2017-09-18T11:23:11Z</time>
      </trkpt>
      <trkpt lat="37.955910600721836" lon="12.055610446259379">
        <ele>124.15000000000001</ele>
        <time>2017-09-18T11:23:25Z</time>
      </trkpt>
      <trkpt lat="37.955890484154224" lon="12.05550885759294">
        <ele>122.70999999999999</ele>
        <time>2017-09-18T11:23:34Z</time>
      </trkpt>
      <trkpt lat="37.955879336223006" lon="12.055432330816984">
        <ele>122.22</ele>
        <time>2017-09-18T11:23:39Z</time>
      </trkpt>
      <trkpt lat="37.955924933776259" lon="12.055268213152885">
        <ele>120.78</ele>
        <time>2017-09-18T11:23:53Z</time>
      </trkpt>
      <trkpt lat="37.955935578793287" lon="12.055110046640038">
        <ele>119.34</ele>
        <time>2017-09-18T11:24:05Z</time>
      </trkpt>
      <trkpt lat="37.955949828028679" lon="12.054977780207992">
        <ele>118.38</ele>
        <time>2017-09-18T11:24:16Z</time>
      </trkpt>
      <trkpt lat="37.955977572128177" lon="12.054795976728201">
        <ele>116.45999999999999</ele>
        <time>2017-09-18T11:24:30Z</time>
      </trkpt>
      <trkpt lat="37.955961981788278" lon="12.054619202390313">
        <ele>115.01000000000001</ele>
        <time>2017-09-18T11:24:45Z</time>
      </trkpt>
      <trkpt lat="37.955877492204309" lon="12.054465981200337">
        <ele>113.56999999999999</ele>
        <time>2017-09-18T11:24:59Z</time>
      </trkpt>
      <trkpt lat="37.955820579081774" lon="12.054349388927221">
        <ele>112.13</ele>
        <time>2017-09-18T11:25:11Z</time>
      </trkpt>
      <trkpt lat="37.955815801396966" lon="12.054336983710527">
        <ele>112.13</ele>
        <time>2017-09-18T11:25:12Z</time>
      </trkpt>
      <trkpt lat="37.955799456685781" lon="12.054213266819715">
        <ele>111.65000000000001</ele>
        <time>2017-09-18T11:25:23Z</time>
      </trkpt>
      <trkpt lat="37.955798031762242" lon="12.0541001111269">
        <ele>110.20999999999999</ele>
        <time>2017-09-18T11:25:33Z</time>
      </trkpt>
      <trkpt lat="37.955815298482776" lon="12.053971951827407">
        <ele>108.77</ele>
        <time>2017-09-18T11:25:44Z</time>
      </trkpt>
      <trkpt lat="37.955804318189621" lon="12.053881259635091">
        <ele>107.31999999999999</ele>
        <time>2017-09-18T11:25:52Z</time>
      </trkpt>
      <trkpt lat="37.955759475007653" lon="12.053712196648121">
        <ele>105.88</ele>
        <time>2017-09-18T11:26:06Z</time>
      </trkpt>
      <trkpt lat="37.955752015113831" lon="12.053590742871165">
        <ele>104.92</ele>
        <time>2017-09-18T11:26:16Z</time>
      </trkpt>
      <trkpt lat="37.955753272399306" lon="12.053530225530267">
        <ele>104.44</ele>
        <time>2017-09-18T11:26:28Z</time>
      </trkpt>
      <trkpt lat="37.955731898546219" lon="12.053540032356977">
        <ele>104.44</ele>
        <time>2017-09-18T11:26:37Z</time>
      </trkpt>
      <trkpt lat="37.955745309591293" lon="12.053503068163991">
        <ele>103.95999999999999</ele>
        <time>2017-09-18T11:26:46Z</time>
      </trkpt>
      <trkpt lat="37.955761654302478" lon="12.053471971303225">
        <ele>103.48</ele>
        <time>2017-09-18T11:26:49Z</time>
      </trkpt>
      <trkpt lat="37.955858046188951" lon="12.053391085937619">
        <ele>101.56</ele>
        <time>2017-09-18T11:27:03Z</time>
      </trkpt>
      <trkpt lat="37.955862488597631" lon="12.053384128957987">
        <ele>101.56</ele>
        <time>2017-09-18T11:27:04Z</time>
      </trkpt>
      <trkpt lat="37.955885622650385" lon="12.053355211392045">
        <ele>101.08</ele>
        <time>2017-09-18T11:27:08Z</time>
      </trkpt>
      <trkpt lat="37.955969860777259" lon="12.053282456472516">
        <ele>100.11</ele>
        <time>2017-09-18T11:27:19Z</time>
      </trkpt>
      <trkpt lat="37.956013530492783" lon="12.053226381540298">
        <ele>99.150000000000006</ele>
        <time>2017-09-18T11:27:25Z</time>
      </trkpt>
      <trkpt lat="37.956071197986603" lon="12.053100233897567">
        <ele>97.709999999999994</ele>
        <time>2017-09-18T11:27:37Z</time>
      </trkpt>
      <trkpt lat="37.956114700064063" lon="12.052847938612103">
        <ele>95.310000000000002</ele>
        <time>2017-09-18T11:27:54Z</time>
      </trkpt>
      <trkpt lat="37.956167925149202" lon="12.05267577432096">
        <ele>92.420000000000002</ele>
        <time>2017-09-18T11:28:10Z</time>
      </trkpt>
      <trkpt lat="37.956248726695776" lon="12.052489696070552">
        <ele>90.5</ele>
        <time>2017-09-18T11:28:26Z</time>
      </trkpt>
      <trkpt lat="37.956279320642352" lon="12.05229364335537">
        <ele>88.579999999999998</ele>
        <time>2017-09-18T11:28:43Z</time>
      </trkpt>
      <trkpt lat="37.956314440816641" lon="12.052124328911304">
        <ele>86.659999999999997</ele>
        <time>2017-09-18T11:28:58Z</time>
      </trkpt>
      <trkpt lat="37.956293905153871" lon="12.051912937313318">
        <ele>85.209999999999994</ele>
        <time>2017-09-18T11:29:15Z</time>
      </trkpt>
      <trkpt lat="37.956291809678078" lon="12.051877062767744">
        <ele>84.730000000000004</ele>
        <time>2017-09-18T11:29:18Z</time>
      </trkpt>
      <trkpt lat="37.956291474401951" lon="12.05170439556241">
        <ele>82.810000000000002</ele>
        <time>2017-09-18T11:29:32Z</time>
      </trkpt>
      <trkpt lat="37.956332881003618" lon="12.051555616781116">
        <ele>81.849999999999994</ele>
        <time>2017-09-18T11:29:44Z</time>
      </trkpt>
      <trkpt lat="37.956413514912128" lon="12.051410945132375">
        <ele>80.409999999999997</ele>
        <time>2017-09-18T11:29:58Z</time>
      </trkpt>
      <trkpt lat="37.956500351428986" lon="12.051323521882296">
        <ele>78.969999999999999</ele>
        <time>2017-09-18T11:30:10Z</time>
      </trkpt>
      <trkpt lat="37.956600012257695" lon="12.051216904073954">
        <ele>77.519999999999996</ele>
        <time>2017-09-18T11:30:23Z</time>
      </trkpt>
      <trkpt lat="37.956684837117791" lon="12.05111313611269">
        <ele>76.560000000000002</ele>
        <time>2017-09-18T11:30:35Z</time>
      </trkpt>
      <trkpt lat="37.956754909828305" lon="12.050951365381479">
        <ele>74.640000000000001</ele>
        <time>2017-09-18T11:30:50Z</time>
      </trkpt>
      <trkpt lat="37.956765051931143" lon="12.050863271579146">
        <ele>73.680000000000007</ele>
        <time>2017-09-18T11:30:58Z</time>
      </trkpt>
      <trkpt lat="37.956787431612611" lon="12.050660597160459">
        <ele>71.760000000000005</ele>
        <time>2017-09-18T11:31:14Z</time>
      </trkpt>
      <trkpt lat="37.956803776323795" lon="12.050508968532085">
        <ele>70.310000000000002</ele>
        <time>2017-09-18T11:31:27Z</time>
      </trkpt>
      <trkpt lat="37.956818109378219" lon="12.050374941900373">
        <ele>68.870000000000005</ele>
        <time>2017-09-18T11:31:39Z</time>
      </trkpt>
      <trkpt lat="37.956817941740155" lon="12.050317525863647">
        <ele>68.390000000000001</ele>
        <time>2017-09-18T11:31:44Z</time>
      </trkpt>
      <trkpt lat="37.956834454089403" lon="12.050179475918412">
        <ele>67.430000000000007</ele>
        <time>2017-09-18T11:31:55Z</time>
      </trkpt>
      <trkpt lat="37.956915842369199" lon="12.050007814541459">
        <ele>66.469999999999999</ele>
        <time>2017-09-18T11:32:11Z</time>
      </trkpt>
      <trkpt lat="37.95694082044065" lon="12.049875045195222">
        <ele>65.030000000000001</ele>
        <time>2017-09-18T11:32:24Z</time>
      </trkpt>
      <trkpt lat="37.956860857084394" lon="12.049838164821267">
        <ele>64.549999999999997</ele>
        <time>2017-09-18T11:32:36Z</time>
      </trkpt>
      <trkpt lat="37.956758430227637" lon="12.049840008839965">
        <ele>64.549999999999997</ele>
        <time>2017-09-18T11:32:50Z</time>
      </trkpt>
      <trkpt lat="37.956714425235987" lon="12.049862388521433">
        <ele>64.549999999999997</ele>
        <time>2017-09-18T11:32:58Z</time>
      </trkpt>
      <trkpt lat="37.956637647002935" lon="12.049926845356822">
        <ele>64.549999999999997</ele>
        <time>2017-09-18T11:33:09Z</time>
      </trkpt>
      <trkpt lat="37.956601940095425" lon="12.049869345501065">
        <ele>65.030000000000001</ele>
        <time>2017-09-18T11:33:17Z</time>
      </trkpt>
      <trkpt lat="37.956612668931484" lon="12.049815366044641">
        <ele>65.030000000000001</ele>
        <time>2017-09-18T11:33:26Z</time>
      </trkpt>
      <trkpt lat="37.956594899296761" lon="12.049803212285042">
        <ele>64.549999999999997</ele>
        <time>2017-09-18T11:33:38Z</time>
      </trkpt>
      <trkpt lat="37.956600096076727" lon="12.049800865352154">
        <ele>64.549999999999997</ele>
        <time>2017-09-18T11:33:52Z</time>
      </trkpt>
      <trkpt lat="37.956606047227979" lon="12.049820646643639">
        <ele>64.549999999999997</ele>
        <time>2017-09-18T11:34:09Z</time>
      </trkpt>
      <trkpt lat="37.956597916781902" lon="12.049958361312747">
        <ele>64.549999999999997</ele>
        <time>2017-09-18T11:34:19Z</time>
      </trkpt>
      <trkpt lat="37.956573693081737" lon="12.050001109018922">
        <ele>65.030000000000001</ele>
        <time>2017-09-18T11:34:24Z</time>
      </trkpt>
      <trkpt lat="37.956552235409617" lon="12.050015609711409">
        <ele>64.549999999999997</ele>
        <time>2017-09-18T11:34:26Z</time>
      </trkpt>
      <trkpt lat="37.956503536552191" lon="12.04996045678854">
        <ele>63.579999999999998</ele>
        <time>2017-09-18T11:34:36Z</time>
      </trkpt>
      <trkpt lat="37.956512756645679" lon="12.049977388232946">
        <ele>64.069999999999993</ele>
        <time>2017-09-18T11:34:47Z</time>
      </trkpt>
      <trkpt lat="37.956520635634661" lon="12.050023907795548">
        <ele>64.069999999999993</ele>
        <time>2017-09-18T11:35:09Z</time>
      </trkpt>
      <trkpt lat="37.956508230417967" lon="12.050000270828605">
        <ele>64.069999999999993</ele>
        <time>2017-09-18T11:35:18Z</time>
      </trkpt>
      <trkpt lat="37.9565254971385" lon="12.050005048513412">
        <ele>63.579999999999998</ele>
        <time>2017-09-18T11:35:20Z</time>
      </trkpt>
      <trkpt lat="37.95658802613616" lon="12.049960037693381">
        <ele>64.549999999999997</ele>
        <time>2017-09-18T11:35:31Z</time>
      </trkpt>
      <trkpt lat="37.956590037792921" lon="12.049951069056988">
        <ele>64.549999999999997</ele>
        <time>2017-09-18T11:35:32Z</time>
      </trkpt>
      <trkpt lat="37.956578051671386" lon="12.049924330785871">
        <ele>64.069999999999993</ele>
        <time>2017-09-18T11:35:34Z</time>
      </trkpt>
      <trkpt lat="37.956585930660367" lon="12.049804804846644">
        <ele>64.069999999999993</ele>
        <time>2017-09-18T11:35:47Z</time>
      </trkpt>
      <trkpt lat="37.956605460494757" lon="12.049799272790551">
        <ele>64.069999999999993</ele>
        <time>2017-09-18T11:35:58Z</time>
      </trkpt>
      <trkpt lat="37.956626750528812" lon="12.049816371873021">
        <ele>64.069999999999993</ele>
        <time>2017-09-18T11:36:11Z</time>
      </trkpt>
      <trkpt lat="37.956632114946842" lon="12.049829363822937">
        <ele>64.069999999999993</ele>
        <time>2017-09-18T11:36:19Z</time>
      </trkpt>
      <trkpt lat="37.956693721935153" lon="12.049849648028612">
        <ele>64.069999999999993</ele>
        <time>2017-09-18T11:36:30Z</time>
      </trkpt>
      <trkpt lat="37.956717861816287" lon="12.049799440428615">
        <ele>63.579999999999998</ele>
        <time>2017-09-18T11:36:38Z</time>
      </trkpt>
      <trkpt lat="37.956751640886068" lon="12.049817880615592">
        <ele>63.579999999999998</ele>
        <time>2017-09-18T11:36:49Z</time>
      </trkpt>
      <trkpt lat="37.956745773553848" lon="12.049835817888379">
        <ele>64.069999999999993</ele>
        <time>2017-09-18T11:37:02Z</time>
      </trkpt>
      <trkpt lat="37.956737224012613" lon="12.049841098487377">
        <ele>63.579999999999998</ele>
        <time>2017-09-18T11:37:15Z</time>
      </trkpt>
      <trkpt lat="37.956756250932813" lon="12.049844032153487">
        <ele>64.069999999999993</ele>
        <time>2017-09-18T11:37:36Z</time>
      </trkpt>
      <trkpt lat="37.956757340580225" lon="12.049839086830616">
        <ele>64.069999999999993</ele>
        <time>2017-09-18T11:37:49Z</time>
      </trkpt>
      <trkpt lat="37.95676538720727" lon="12.049840595573187">
        <ele>63.579999999999998</ele>
        <time>2017-09-18T11:38:02Z</time>
      </trkpt>
      <trkpt lat="37.956757424399257" lon="12.049835817888379">
        <ele>63.579999999999998</ele>
        <time>2017-09-18T11:38:19Z</time>
      </trkpt>
      <trkpt lat="37.956756083294749" lon="12.049841266125441">
        <ele>64.069999999999993</ele>
        <time>2017-09-18T11:38:34Z</time>
      </trkpt>
      <trkpt lat="37.956734960898757" lon="12.049854844808578">
        <ele>63.579999999999998</ele>
        <time>2017-09-18T11:38:52Z</time>
      </trkpt>
      <trkpt lat="37.956703864037991" lon="12.049841601401567">
        <ele>63.579999999999998</ele>
        <time>2017-09-18T11:39:03Z</time>
      </trkpt>
      <trkpt lat="37.956699756905437" lon="12.049844199791551">
        <ele>63.579999999999998</ele>
        <time>2017-09-18T11:39:16Z</time>
      </trkpt>
      <trkpt lat="37.956695817410946" lon="12.049835650250316">
        <ele>63.579999999999998</ele>
        <time>2017-09-18T11:39:26Z</time>
      </trkpt>
      <trkpt lat="37.956721382215619" lon="12.049819640815258">
        <ele>64.069999999999993</ele>
        <time>2017-09-18T11:39:37Z</time>
      </trkpt>
      <trkpt lat="37.95677469111979" lon="12.049825927242637">
        <ele>64.069999999999993</ele>
        <time>2017-09-18T11:39:45Z</time>
      </trkpt>
      <trkpt lat="37.956798747181892" lon="12.049870938062668">
        <ele>63.579999999999998</ele>
        <time>2017-09-18T11:39:55Z</time>
      </trkpt>
      <trkpt lat="37.956798998638988" lon="12.049855263903737">
        <ele>63.579999999999998</ele>
        <time>2017-09-18T11:40:09Z</time>
      </trkpt>
      <trkpt lat="37.9567966517061" lon="12.049853168427944">
        <ele>63.579999999999998</ele>
        <time>2017-09-18T11:40:22Z</time>
      </trkpt>
      <trkpt lat="37.956811152398586" lon="12.049885187298059">
        <ele>63.579999999999998</ele>
        <time>2017-09-18T11:40:33Z</time>
      </trkpt>
      <trkpt lat="37.956825904548168" lon="12.049939334392548">
        <ele>63.579999999999998</ele>
        <time>2017-09-18T11:40:37Z</time>
      </trkpt>
      <trkpt lat="37.956841411069036" lon="12.049990464001894">
        <ele>63.579999999999998</ele>
        <time>2017-09-18T11:40:47Z</time>
      </trkpt>
      <trkpt lat="37.956821965053678" lon="12.049906309694052">
        <ele>63.579999999999998</ele>
        <time>2017-09-18T11:40:57Z</time>
      </trkpt>
      <trkpt lat="37.956840991973877" lon="12.049851659685373">
        <ele>63.100000000000001</ele>
        <time>2017-09-18T11:41:02Z</time>
      </trkpt>
      <trkpt lat="37.956852559000254" lon="12.049831207841635">
        <ele>63.100000000000001</ele>
        <time>2017-09-18T11:41:04Z</time>
      </trkpt>
      <trkpt lat="37.956940736621618" lon="12.049691649153829">
        <ele>62.619999999999997</ele>
        <time>2017-09-18T11:41:18Z</time>
      </trkpt>
      <trkpt lat="37.956985747441649" lon="12.049603974446654">
        <ele>61.659999999999997</ele>
        <time>2017-09-18T11:41:29Z</time>
      </trkpt>
      <trkpt lat="37.957056071609259" lon="12.049461817368865">
        <ele>61.18</ele>
        <time>2017-09-18T11:41:44Z</time>
      </trkpt>
      <trkpt lat="37.957149865105748" lon="12.049347404390574">
        <ele>60.700000000000003</ele>
        <time>2017-09-18T11:41:57Z</time>
      </trkpt>
      <trkpt lat="37.957259165123105" lon="12.0492441393435">
        <ele>60.219999999999999</ele>
        <time>2017-09-18T11:42:11Z</time>
      </trkpt>
      <trkpt lat="37.957340134307742" lon="12.049210276454687">
        <ele>59.740000000000002</ele>
        <time>2017-09-18T11:42:19Z</time>
      </trkpt>
      <trkpt lat="37.957446165382862" lon="12.049209857359529">
        <ele>59.740000000000002</ele>
        <time>2017-09-18T11:42:31Z</time>
      </trkpt>
      <trkpt lat="37.957554962486029" lon="12.049216730520129">
        <ele>59.740000000000002</ele>
        <time>2017-09-18T11:42:41Z</time>
      </trkpt>
      <trkpt lat="37.957696700468659" lon="12.049178509041667">
        <ele>59.259999999999998</ele>
        <time>2017-09-18T11:42:54Z</time>
      </trkpt>
      <trkpt lat="37.957760570570827" lon="12.049170630052686">
        <ele>59.740000000000002</ele>
        <time>2017-09-18T11:43:04Z</time>
      </trkpt>
      <trkpt lat="37.95776903629303" lon="12.049165852367878">
        <ele>59.740000000000002</ele>
        <time>2017-09-18T11:43:06Z</time>
      </trkpt>
      <trkpt lat="37.957873726263642" lon="12.049161912873387">
        <ele>60.219999999999999</ele>
        <time>2017-09-18T11:43:18Z</time>
      </trkpt>
      <trkpt lat="37.958004316315055" lon="12.049129474908113">
        <ele>60.700000000000003</ele>
        <time>2017-09-18T11:43:29Z</time>
      </trkpt>
      <trkpt lat="37.95810816809535" lon="12.049042554572225">
        <ele>58.780000000000001</ele>
        <time>2017-09-18T11:43:41Z</time>
      </trkpt>
      <trkpt lat="37.958182683214545" lon="12.049011122435331">
        <ele>58.299999999999997</ele>
        <time>2017-09-18T11:43:49Z</time>
      </trkpt>
      <trkpt lat="37.958229370415211" lon="12.049032496288419">
        <ele>58.780000000000001</ele>
        <time>2017-09-18T11:43:54Z</time>
      </trkpt>
      <trkpt lat="37.958346549421549" lon="12.048987401649356">
        <ele>57.82</ele>
        <time>2017-09-18T11:44:05Z</time>
      </trkpt>
      <trkpt lat="37.958394913002849" lon="12.048958986997604">
        <ele>57.82</ele>
        <time>2017-09-18T11:44:16Z</time>
      </trkpt>
      <trkpt lat="37.958427015691996" lon="12.048952616751194">
        <ele>58.299999999999997</ele>
        <time>2017-09-18T11:44:21Z</time>
      </trkpt>
      <trkpt lat="37.958454927429557" lon="12.048904839903116">
        <ele>57.82</ele>
        <time>2017-09-18T11:44:25Z</time>
      </trkpt>
      <trkpt lat="37.958609238266945" lon="12.048816662281752">
        <ele>58.299999999999997</ele>
        <time>2017-09-18T11:44:39Z</time>
      </trkpt>
      <trkpt lat="37.958729518577456" lon="12.048756228759885">
        <ele>58.780000000000001</ele>
        <time>2017-09-18T11:44:51Z</time>
      </trkpt>
      <trkpt lat="37.958828173577785" lon="12.048697890713811">
        <ele>58.780000000000001</ele>
        <time>2017-09-18T11:45:06Z</time>
      </trkpt>
      <trkpt lat="37.958884248510003" lon="12.048652544617653">
        <ele>58.299999999999997</ele>
        <time>2017-09-18T11:45:11Z</time>
      </trkpt>
      <trkpt lat="37.958944346755743" lon="12.048618933185935">
        <ele>58.299999999999997</ele>
        <time>2017-09-18T11:45:17Z</time>
      </trkpt>
      <trkpt lat="37.958978712558746" lon="12.04857224598527">
        <ele>58.299999999999997</ele>
        <time>2017-09-18T11:45:22Z</time>
      </trkpt>
      <trkpt lat="37.959046522155404" lon="12.048491360619664">
        <ele>57.82</ele>
        <time>2017-09-18T11:45:33Z</time>
      </trkpt>
      <trkpt lat="37.959063285961747" lon="12.048451378941536">
        <ele>57.340000000000003</ele>
        <time>2017-09-18T11:45:39Z</time>
      </trkpt>
      <trkpt lat="37.959101675078273" lon="12.048356914892793">
        <ele>57.340000000000003</ele>
        <time>2017-09-18T11:45:50Z</time>
      </trkpt>
      <trkpt lat="37.959132939577103" lon="12.048261277377605">
        <ele>55.890000000000001</ele>
        <time>2017-09-18T11:46:00Z</time>
      </trkpt>
      <trkpt lat="37.959181973710656" lon="12.048132531344891">
        <ele>54.450000000000003</ele>
        <time>2017-09-18T11:46:13Z</time>
      </trkpt>
      <trkpt lat="37.959197564050555" lon="12.048036139458418">
        <ele>52.530000000000001</ele>
        <time>2017-09-18T11:46:25Z</time>
      </trkpt>
      <trkpt lat="37.959216088056564" lon="12.047917954623699">
        <ele>52.530000000000001</ele>
        <time>2017-09-18T11:46:37Z</time>
      </trkpt>
      <trkpt lat="37.959242155775428" lon="12.047787196934223">
        <ele>51.090000000000003</ele>
        <time>2017-09-18T11:46:49Z</time>
      </trkpt>
      <trkpt lat="37.95927501283586" lon="12.047684350982308">
        <ele>50.130000000000003</ele>
        <time>2017-09-18T11:47:00Z</time>
      </trkpt>
      <trkpt lat="37.959296219050884" lon="12.047611009329557">
        <ele>49.649999999999999</ele>
        <time>2017-09-18T11:47:07Z</time>
      </trkpt>
      <trkpt lat="37.959382049739361" lon="12.047491148114204">
        <ele>48.200000000000003</ele>
        <time>2017-09-18T11:47:21Z</time>
      </trkpt>
      <trkpt lat="37.959478944540024" lon="12.047415375709534">
        <ele>47.240000000000002</ele>
        <time>2017-09-18T11:47:34Z</time>
      </trkpt>
      <trkpt lat="37.959571564570069" lon="12.047342117875814">
        <ele>45.32</ele>
        <time>2017-09-18T11:47:46Z</time>
      </trkpt>
      <trkpt lat="37.959565361961722" lon="12.047279169782996">
        <ele>43.880000000000003</ele>
        <time>2017-09-18T11:47:57Z</time>
      </trkpt>
      <trkpt lat="37.959442147985101" lon="12.047281684353948">
        <ele>42.920000000000002</ele>
        <time>2017-09-18T11:48:10Z</time>
      </trkpt>
      <trkpt lat="37.959375260397792" lon="12.04731454141438">
        <ele>42.439999999999998</ele>
        <time>2017-09-18T11:48:17Z</time>
      </trkpt>
      <trkpt lat="37.959297560155392" lon="12.047423170879483">
        <ele>40.990000000000002</ele>
        <time>2017-09-18T11:48:30Z</time>
      </trkpt>
      <trkpt lat="37.959245927631855" lon="12.047467092052102">
        <ele>40.509999999999998</ele>
        <time>2017-09-18T11:48:39Z</time>
      </trkpt>
      <trkpt lat="37.959176022559404" lon="12.047524340450764">
        <ele>39.549999999999997</ele>
        <time>2017-09-18T11:48:51Z</time>
      </trkpt>
      <trkpt lat="37.959150960668921" lon="12.047514198347926">
        <ele>39.07</ele>
        <time>2017-09-18T11:48:54Z</time>
      </trkpt>
      <trkpt lat="37.959130676463246" lon="12.047414621338248">
        <ele>38.109999999999999</ele>
        <time>2017-09-18T11:49:02Z</time>
      </trkpt>
      <trkpt lat="37.959157330915332" lon="12.047290736809373">
        <ele>37.630000000000003</ele>
        <time>2017-09-18T11:49:10Z</time>
      </trkpt>
      <trkpt lat="37.959285993129015" lon="12.0471425447613">
        <ele>36.189999999999998</ele>
        <time>2017-09-18T11:49:25Z</time>
      </trkpt>
      <trkpt lat="37.959423623979092" lon="12.047071969136596">
        <ele>35.229999999999997</ele>
        <time>2017-09-18T11:49:38Z</time>
      </trkpt>
      <trkpt lat="37.959548095241189" lon="12.04701891168952">
        <ele>34.740000000000002</ele>
        <time>2017-09-18T11:49:50Z</time>
      </trkpt>
      <trkpt lat="37.959710117429495" lon="12.046901062130928">
        <ele>33.299999999999997</ele>
        <time>2017-09-18T11:50:06Z</time>
      </trkpt>
      <trkpt lat="37.959854621440172" lon="12.046803664416075">
        <ele>31.859999999999999</ele>
        <time>2017-09-18T11:50:20Z</time>
      </trkpt>
      <trkpt lat="37.959983702749014" lon="12.046708026900887">
        <ele>30.899999999999999</ele>
        <time>2017-09-18T11:50:32Z</time>
      </trkpt>
      <trkpt lat="37.960064671933651" lon="12.046635523438454">
        <ele>30.420000000000002</ele>
        <time>2017-09-18T11:50:41Z</time>
      </trkpt>
      <trkpt lat="37.960083950310946" lon="12.046544998884201">
        <ele>29.460000000000001</ele>
        <time>2017-09-18T11:50:50Z</time>
      </trkpt>
      <trkpt lat="37.96002259477973" lon="12.046520356088877">
        <ele>28.5</ele>
        <time>2017-09-18T11:50:58Z</time>
      </trkpt>
      <trkpt lat="37.959966771304607" lon="12.04654105938971">
        <ele>28.02</ele>
        <time>2017-09-18T11:51:03Z</time>
      </trkpt>
      <trkpt lat="37.959784884005785" lon="12.0466055162251">
        <ele>26.57</ele>
        <time>2017-09-18T11:51:19Z</time>
      </trkpt>
      <trkpt lat="37.959634596481919" lon="12.046646336093545">
        <ele>26.09</ele>
        <time>2017-09-18T11:51:32Z</time>
      </trkpt>
      <trkpt lat="37.959480620920658" lon="12.046677013859153">
        <ele>24.649999999999999</ele>
        <time>2017-09-18T11:51:45Z</time>
      </trkpt>
      <trkpt lat="37.959325471892953" lon="12.046696459874511">
        <ele>23.690000000000001</ele>
        <time>2017-09-18T11:51:59Z</time>
      </trkpt>
      <trkpt lat="37.959178285673261" lon="12.046728394925594">
        <ele>23.690000000000001</ele>
        <time>2017-09-18T11:52:13Z</time>
      </trkpt>
      <trkpt lat="37.959093879908323" lon="12.04677022062242">
        <ele>23.210000000000001</ele>
        <time>2017-09-18T11:52:25Z</time>
      </trkpt>
      <trkpt lat="37.959015341475606" lon="12.046834593638778">
        <ele>21.77</ele>
        <time>2017-09-18T11:52:40Z</time>
      </trkpt>
      <trkpt lat="37.95894275419414" lon="12.046888573095202">
        <ele>21.289999999999999</ele>
        <time>2017-09-18T11:52:51Z</time>
      </trkpt>
      <trkpt lat="37.958859940990806" lon="12.046980857849121">
        <ele>20.32</ele>
        <time>2017-09-18T11:53:05Z</time>
      </trkpt>
      <trkpt lat="37.95876489020884" lon="12.04707071185112">
        <ele>18.879999999999999</ele>
        <time>2017-09-18T11:53:19Z</time>
      </trkpt>
      <trkpt lat="37.958750892430544" lon="12.047099880874157">
        <ele>19.359999999999999</ele>
        <time>2017-09-18T11:53:22Z</time>
      </trkpt>
      <trkpt lat="37.958671348169446" lon="12.047246647998691">
        <ele>18.879999999999999</ele>
        <time>2017-09-18T11:53:37Z</time>
      </trkpt>
      <trkpt lat="37.958615692332387" lon="12.047351840883493">
        <ele>16.960000000000001</ele>
        <time>2017-09-18T11:53:49Z</time>
      </trkpt>
      <trkpt lat="37.95855475589633" lon="12.047383608296514">
        <ele>16.48</ele>
        <time>2017-09-18T11:53:57Z</time>
      </trkpt>
      <trkpt lat="37.958476804196835" lon="12.047468181699514">
        <ele>16</ele>
        <time>2017-09-18T11:54:09Z</time>
      </trkpt>
      <trkpt lat="37.958410922437906" lon="12.047508498653769">
        <ele>16</ele>
        <time>2017-09-18T11:54:19Z</time>
      </trkpt>
      <trkpt lat="37.958381585776806" lon="12.047527944669127">
        <ele>15.52</ele>
        <time>2017-09-18T11:54:26Z</time>
      </trkpt>
      <trkpt lat="37.958375383168459" lon="12.047547809779644">
        <ele>15.52</ele>
        <time>2017-09-18T11:54:28Z</time>
      </trkpt>
      <trkpt lat="37.958346465602517" lon="12.047580415382981">
        <ele>15.52</ele>
        <time>2017-09-18T11:54:39Z</time>
      </trkpt>
      <trkpt lat="37.958369348198175" lon="12.047604639083147">
        <ele>15.039999999999999</ele>
        <time>2017-09-18T11:54:52Z</time>
      </trkpt>
      <trkpt lat="37.958347471430898" lon="12.047609835863113">
        <ele>14.56</ele>
        <time>2017-09-18T11:55:00Z</time>
      </trkpt>
      <trkpt lat="37.958323834463954" lon="12.047598520293832">
        <ele>14.08</ele>
        <time>2017-09-18T11:55:12Z</time>
      </trkpt>
      <trkpt lat="37.958311177790165" lon="12.047582846134901">
        <ele>13.119999999999999</ele>
        <time>2017-09-18T11:55:21Z</time>
      </trkpt>
      <trkpt lat="37.958300951868296" lon="12.047576727345586">
        <ele>12.630000000000001</ele>
        <time>2017-09-18T11:55:26Z</time>
      </trkpt>
      <trkpt lat="37.958280835300684" lon="12.047641016542912">
        <ele>12.15</ele>
        <time>2017-09-18T11:55:36Z</time>
      </trkpt>
      <trkpt lat="37.958258707076311" lon="12.047635819762945">
        <ele>11.67</ele>
        <time>2017-09-18T11:55:45Z</time>
      </trkpt>
      <trkpt lat="37.958264490589499" lon="12.047619139775634">
        <ele>11.67</ele>
        <time>2017-09-18T11:55:57Z</time>
      </trkpt>
      <trkpt lat="37.958264742046595" lon="12.047608243301511">
        <ele>11.67</ele>
        <time>2017-09-18T11:56:14Z</time>
      </trkpt>
      <trkpt lat="37.958266418427229" lon="12.047616709023714">
        <ele>10.710000000000001</ele>
        <time>2017-09-18T11:56:27Z</time>
      </trkpt>
      <trkpt lat="37.958252001553774" lon="12.04762970097363">
        <ele>10.710000000000001</ele>
        <time>2017-09-18T11:56:39Z</time>
      </trkpt>
      <trkpt lat="37.958251163363457" lon="12.047635652124882">
        <ele>10.710000000000001</ele>
        <time>2017-09-18T11:56:54Z</time>
      </trkpt>
      <trkpt lat="37.958260551095009" lon="12.047635149210691">
        <ele>10.710000000000001</ele>
        <time>2017-09-18T11:57:14Z</time>
      </trkpt>
      <trkpt lat="37.95826306566596" lon="12.047641854733229">
        <ele>10.710000000000001</ele>
        <time>2017-09-18T11:57:31Z</time>
      </trkpt>
      <trkpt lat="37.958264658227563" lon="12.047626599669456">
        <ele>10.710000000000001</ele>
        <time>2017-09-18T11:57:47Z</time>
      </trkpt>
      <trkpt lat="37.958276309072971" lon="12.047649901360273">
        <ele>10.710000000000001</ele>
        <time>2017-09-18T11:58:05Z</time>
      </trkpt>
      <trkpt lat="37.958281002938747" lon="12.047634394839406">
        <ele>10.710000000000001</ele>
        <time>2017-09-18T11:58:21Z</time>
      </trkpt>
      <trkpt lat="37.95827086083591" lon="12.047627354040742">
        <ele>10.710000000000001</ele>
        <time>2017-09-18T11:58:33Z</time>
      </trkpt>
      <trkpt lat="37.958283266052604" lon="12.04763213172555">
        <ele>10.23</ele>
        <time>2017-09-18T11:58:52Z</time>
      </trkpt>
      <trkpt lat="37.958274381235242" lon="12.047643782570958">
        <ele>10.23</ele>
        <time>2017-09-18T11:59:13Z</time>
      </trkpt>
      <trkpt lat="37.958243116736412" lon="12.04765803180635">
        <ele>10.23</ele>
        <time>2017-09-18T11:59:33Z</time>
      </trkpt>
      <trkpt lat="37.958246720954776" lon="12.047646464779973">
        <ele>9.75</ele>
        <time>2017-09-18T11:59:54Z</time>
      </trkpt>
      <trkpt lat="37.958271699026227" lon="12.047622324898839">
        <ele>10.23</ele>
        <time>2017-09-18T12:00:11Z</time>
      </trkpt>
      <trkpt lat="37.958272118121386" lon="12.047618720680475">
        <ele>9.75</ele>
        <time>2017-09-18T12:00:33Z</time>
      </trkpt>
      <trkpt lat="37.958276895806193" lon="12.047664318233728">
        <ele>9.75</ele>
        <time>2017-09-18T12:00:55Z</time>
      </trkpt>
      <trkpt lat="37.958273543044925" lon="12.047648644074798">
        <ele>9.75</ele>
        <time>2017-09-18T12:01:08Z</time>
      </trkpt>
      <trkpt lat="37.95827429741621" lon="12.047641016542912">
        <ele>9.75</ele>
        <time>2017-09-18T12:01:25Z</time>
      </trkpt>
      <trkpt lat="37.958256443962455" lon="12.047633640468121">
        <ele>9.75</ele>
        <time>2017-09-18T12:01:45Z</time>
      </trkpt>
      <trkpt lat="37.958261892199516" lon="12.047658618539572">
        <ele>9.27</ele>
        <time>2017-09-18T12:02:09Z</time>
      </trkpt>
      <trkpt lat="37.958183521404862" lon="12.047766493633389">
        <ele>9.27</ele>
        <time>2017-09-18T12:02:31Z</time>
      </trkpt>
    </trkseg>
  </trk>

  <trk>
    <name>2017-09-19Monte s Caterina Favignana</name>
    <extensions>
      <gpxx:TrackExtension>
        <gpxx:DisplayColor>Yellow</gpxx:DisplayColor>
      </gpxx:TrackExtension>
      <gpxtrkx:TrackStatsExtension xmlns:gpxtrkx="http://www.garmin.com/xmlschemas/TrackStatsExtension/v1">
        <gpxtrkx:Distance>7209</gpxtrkx:Distance>
        <gpxtrkx:TotalElapsedTime>17219</gpxtrkx:TotalElapsedTime>
        <gpxtrkx:MovingTime>7381</gpxtrkx:MovingTime>
        <gpxtrkx:StoppedTime>3575</gpxtrkx:StoppedTime>
        <gpxtrkx:MovingSpeed>1</gpxtrkx:MovingSpeed>
        <gpxtrkx:MaxSpeed>5</gpxtrkx:MaxSpeed>
        <gpxtrkx:MaxElevation>321</gpxtrkx:MaxElevation>
        <gpxtrkx:MinElevation>10</gpxtrkx:MinElevation>
        <gpxtrkx:Ascent>322</gpxtrkx:Ascent>
        <gpxtrkx:Descent>323</gpxtrkx:Descent>
        <gpxtrkx:AvgAscentRate>0</gpxtrkx:AvgAscentRate>
        <gpxtrkx:MaxAscentRate>0</gpxtrkx:MaxAscentRate>
        <gpxtrkx:AvgDescentRate>0</gpxtrkx:AvgDescentRate>
        <gpxtrkx:MaxDescentRate>-0</gpxtrkx:MaxDescentRate>
      </gpxtrkx:TrackStatsExtension>
    </extensions>
    <trkseg>
      <trkpt lat="37.929499810561538" lon="12.333201142027974">
        <ele>17.440000000000001</ele>
        <time>2017-09-19T06:47:21Z</time>
      </trkpt>
      <trkpt lat="37.929492183029652" lon="12.333203656598926">
        <ele>17.440000000000001</ele>
        <time>2017-09-19T06:47:22Z</time>
      </trkpt>
      <trkpt lat="37.929396294057369" lon="12.33320776373148">
        <ele>17.920000000000002</ele>
        <time>2017-09-19T06:47:35Z</time>
      </trkpt>
      <trkpt lat="37.929402496665716" lon="12.333212625235319">
        <ele>17.920000000000002</ele>
        <time>2017-09-19T06:47:49Z</time>
      </trkpt>
      <trkpt lat="37.92930350638926" lon="12.3331877309829">
        <ele>18.399999999999999</ele>
        <time>2017-09-19T06:47:59Z</time>
      </trkpt>
      <trkpt lat="37.929192446172237" lon="12.333147749304771">
        <ele>18.399999999999999</ele>
        <time>2017-09-19T06:48:13Z</time>
      </trkpt>
      <trkpt lat="37.929196134209633" lon="12.333122435957193">
        <ele>18.399999999999999</ele>
        <time>2017-09-19T06:48:15Z</time>
      </trkpt>
      <trkpt lat="37.929220609366894" lon="12.33297860249877">
        <ele>18.399999999999999</ele>
        <time>2017-09-19T06:48:27Z</time>
      </trkpt>
      <trkpt lat="37.929260674864054" lon="12.332804342731833">
        <ele>18.399999999999999</ele>
        <time>2017-09-19T06:48:41Z</time>
      </trkpt>
      <trkpt lat="37.929282383993268" lon="12.332678698003292">
        <ele>18.879999999999999</ele>
        <time>2017-09-19T06:48:52Z</time>
      </trkpt>
      <trkpt lat="37.929304512217641" lon="12.332557160407305">
        <ele>18.879999999999999</ele>
        <time>2017-09-19T06:49:04Z</time>
      </trkpt>
      <trkpt lat="37.929345918819308" lon="12.332420870661736">
        <ele>18.879999999999999</ele>
        <time>2017-09-19T06:49:17Z</time>
      </trkpt>
      <trkpt lat="37.929383385926485" lon="12.332295477390289">
        <ele>18.879999999999999</ele>
        <time>2017-09-19T06:49:31Z</time>
      </trkpt>
      <trkpt lat="37.929410543292761" lon="12.332152733579278">
        <ele>19.359999999999999</ele>
        <time>2017-09-19T06:49:44Z</time>
      </trkpt>
      <trkpt lat="37.929416997358203" lon="12.332133371382952">
        <ele>18.879999999999999</ele>
        <time>2017-09-19T06:49:46Z</time>
      </trkpt>
      <trkpt lat="37.929447423666716" lon="12.331971013918519">
        <ele>18.879999999999999</ele>
        <time>2017-09-19T06:50:00Z</time>
      </trkpt>
      <trkpt lat="37.929473575204611" lon="12.331852409988642">
        <ele>18.879999999999999</ele>
        <time>2017-09-19T06:50:11Z</time>
      </trkpt>
      <trkpt lat="37.929458152502775" lon="12.331693656742573">
        <ele>18.399999999999999</ele>
        <time>2017-09-19T06:50:24Z</time>
      </trkpt>
      <trkpt lat="37.929494949057698" lon="12.331569939851761">
        <ele>18.399999999999999</ele>
        <time>2017-09-19T06:50:34Z</time>
      </trkpt>
      <trkpt lat="37.929568374529481" lon="12.331408336758614">
        <ele>18.399999999999999</ele>
        <time>2017-09-19T06:50:49Z</time>
      </trkpt>
      <trkpt lat="37.929622773081064" lon="12.331299539655447">
        <ele>18.879999999999999</ele>
        <time>2017-09-19T06:51:00Z</time>
      </trkpt>
      <trkpt lat="37.92969049885869" lon="12.331181103363633">
        <ele>18.879999999999999</ele>
        <time>2017-09-19T06:51:12Z</time>
      </trkpt>
      <trkpt lat="37.929772390052676" lon="12.331076497212052">
        <ele>19.359999999999999</ele>
        <time>2017-09-19T06:51:24Z</time>
      </trkpt>
      <trkpt lat="37.929851682856679" lon="12.330968035385013">
        <ele>19.359999999999999</ele>
        <time>2017-09-19T06:51:37Z</time>
      </trkpt>
      <trkpt lat="37.929910020902753" lon="12.330954289063811">
        <ele>19.359999999999999</ele>
        <time>2017-09-19T06:51:46Z</time>
      </trkpt>
      <trkpt lat="37.929906332865357" lon="12.33094003982842">
        <ele>19.359999999999999</ele>
        <time>2017-09-19T06:52:00Z</time>
      </trkpt>
      <trkpt lat="37.92995042167604" lon="12.330931909382343">
        <ele>19.359999999999999</ele>
        <time>2017-09-19T06:52:12Z</time>
      </trkpt>
      <trkpt lat="37.929985290393233" lon="12.330884467810392">
        <ele>19.84</ele>
        <time>2017-09-19T06:52:23Z</time>
      </trkpt>
      <trkpt lat="37.930069612339139" lon="12.330768378451467">
        <ele>19.84</ele>
        <time>2017-09-19T06:52:36Z</time>
      </trkpt>
      <trkpt lat="37.930161477997899" lon="12.330639380961657">
        <ele>19.84</ele>
        <time>2017-09-19T06:52:49Z</time>
      </trkpt>
      <trkpt lat="37.930261390283704" lon="12.330489512532949">
        <ele>19.84</ele>
        <time>2017-09-19T06:53:05Z</time>
      </trkpt>
      <trkpt lat="37.930244710296392" lon="12.330471659079194">
        <ele>20.32</ele>
        <time>2017-09-19T06:53:07Z</time>
      </trkpt>
      <trkpt lat="37.930113952606916" lon="12.330367052927613">
        <ele>20.32</ele>
        <time>2017-09-19T06:53:20Z</time>
      </trkpt>
      <trkpt lat="37.930079502984881" lon="12.330178041011095">
        <ele>20.32</ele>
        <time>2017-09-19T06:53:32Z</time>
      </trkpt>
      <trkpt lat="37.930073887109756" lon="12.3301518894732">
        <ele>20.32</ele>
        <time>2017-09-19T06:53:34Z</time>
      </trkpt>
      <trkpt lat="37.930167345330119" lon="12.329961117357016">
        <ele>20.32</ele>
        <time>2017-09-19T06:53:48Z</time>
      </trkpt>
      <trkpt lat="37.93021428398788" lon="12.329867575317621">
        <ele>20.32</ele>
        <time>2017-09-19T06:53:56Z</time>
      </trkpt>
      <trkpt lat="37.930253008380532" lon="12.329795071855187">
        <ele>19.84</ele>
        <time>2017-09-19T06:54:02Z</time>
      </trkpt>
      <trkpt lat="37.930154604837298" lon="12.32962466776371">
        <ele>20.32</ele>
        <time>2017-09-19T06:54:10Z</time>
      </trkpt>
      <trkpt lat="37.930081011727452" lon="12.329543866217136">
        <ele>19.359999999999999</ele>
        <time>2017-09-19T06:54:20Z</time>
      </trkpt>
      <trkpt lat="37.930059218779206" lon="12.329519893974066">
        <ele>19.84</ele>
        <time>2017-09-19T06:54:25Z</time>
      </trkpt>
      <trkpt lat="37.929966263473034" lon="12.329294001683593">
        <ele>19.84</ele>
        <time>2017-09-19T06:54:41Z</time>
      </trkpt>
      <trkpt lat="37.929916474968195" lon="12.329171290621161">
        <ele>19.84</ele>
        <time>2017-09-19T06:54:50Z</time>
      </trkpt>
      <trkpt lat="37.929903147742152" lon="12.329145558178425">
        <ele>19.359999999999999</ele>
        <time>2017-09-19T06:54:53Z</time>
      </trkpt>
      <trkpt lat="37.929921085014939" lon="12.328954366967082">
        <ele>18.879999999999999</ele>
        <time>2017-09-19T06:55:05Z</time>
      </trkpt>
      <trkpt lat="37.92989669367671" lon="12.328756218776107">
        <ele>17.440000000000001</ele>
        <time>2017-09-19T06:55:18Z</time>
      </trkpt>
      <trkpt lat="37.929897364228964" lon="12.328548347577453">
        <ele>16.48</ele>
        <time>2017-09-19T06:55:33Z</time>
      </trkpt>
      <trkpt lat="37.929919827729464" lon="12.328408537432551">
        <ele>16</ele>
        <time>2017-09-19T06:55:46Z</time>
      </trkpt>
      <trkpt lat="37.929868530482054" lon="12.328219274058938">
        <ele>15.52</ele>
        <time>2017-09-19T06:56:01Z</time>
      </trkpt>
      <trkpt lat="37.929850174114108" lon="12.328171916306019">
        <ele>15.52</ele>
        <time>2017-09-19T06:56:05Z</time>
      </trkpt>
      <trkpt lat="37.929807677865028" lon="12.327982904389501">
        <ele>15.039999999999999</ele>
        <time>2017-09-19T06:56:20Z</time>
      </trkpt>
      <trkpt lat="37.9297711327672" lon="12.327805208042264">
        <ele>14.56</ele>
        <time>2017-09-19T06:56:34Z</time>
      </trkpt>
      <trkpt lat="37.929773898795247" lon="12.327672354876995">
        <ele>14.56</ele>
        <time>2017-09-19T06:56:45Z</time>
      </trkpt>
      <trkpt lat="37.929753698408604" lon="12.327524833381176">
        <ele>14.08</ele>
        <time>2017-09-19T06:56:57Z</time>
      </trkpt>
      <trkpt lat="37.92972955852747" lon="12.327334815636277">
        <ele>13.119999999999999</ele>
        <time>2017-09-19T06:57:12Z</time>
      </trkpt>
      <trkpt lat="37.929767025634646" lon="12.327135326340795">
        <ele>12.15</ele>
        <time>2017-09-19T06:57:28Z</time>
      </trkpt>
      <trkpt lat="37.929782196879387" lon="12.326978081837296">
        <ele>11.67</ele>
        <time>2017-09-19T06:57:41Z</time>
      </trkpt>
      <trkpt lat="37.929837601259351" lon="12.326799044385552">
        <ele>11.19</ele>
        <time>2017-09-19T06:57:55Z</time>
      </trkpt>
      <trkpt lat="37.929867189377546" lon="12.326643979176879">
        <ele>10.710000000000001</ele>
        <time>2017-09-19T06:58:08Z</time>
      </trkpt>
      <trkpt lat="37.929868027567863" lon="12.326618665829301">
        <ele>10.710000000000001</ele>
        <time>2017-09-19T06:58:11Z</time>
      </trkpt>
      <trkpt lat="37.929770713672042" lon="12.326518753543496">
        <ele>10.710000000000001</ele>
        <time>2017-09-19T06:58:25Z</time>
      </trkpt>
      <trkpt lat="37.929672310128808" lon="12.326434515416622">
        <ele>10.710000000000001</ele>
        <time>2017-09-19T06:58:38Z</time>
      </trkpt>
      <trkpt lat="37.929561249911785" lon="12.326390175148845">
        <ele>10.710000000000001</ele>
        <time>2017-09-19T06:58:50Z</time>
      </trkpt>
      <trkpt lat="37.929463349282742" lon="12.326336866244674">
        <ele>11.19</ele>
        <time>2017-09-19T06:59:01Z</time>
      </trkpt>
      <trkpt lat="37.929373662918806" lon="12.326264698058367">
        <ele>11.19</ele>
        <time>2017-09-19T06:59:13Z</time>
      </trkpt>
      <trkpt lat="37.929257741197944" lon="12.326196804642677">
        <ele>11.19</ele>
        <time>2017-09-19T06:59:27Z</time>
      </trkpt>
      <trkpt lat="37.929163947701454" lon="12.326071327552199">
        <ele>11.67</ele>
        <time>2017-09-19T06:59:41Z</time>
      </trkpt>
      <trkpt lat="37.929136455059052" lon="12.325888434424996">
        <ele>11.19</ele>
        <time>2017-09-19T06:59:55Z</time>
      </trkpt>
      <trkpt lat="37.929109968245029" lon="12.325740326195955">
        <ele>10.710000000000001</ele>
        <time>2017-09-19T07:00:08Z</time>
      </trkpt>
      <trkpt lat="37.929084990173578" lon="12.325592217966914">
        <ele>11.19</ele>
        <time>2017-09-19T07:00:21Z</time>
      </trkpt>
      <trkpt lat="37.929066801443696" lon="12.325417874380946">
        <ele>11.19</ele>
        <time>2017-09-19T07:00:35Z</time>
      </trkpt>
      <trkpt lat="37.929068645462394" lon="12.325253421440721">
        <ele>11.19</ele>
        <time>2017-09-19T07:00:49Z</time>
      </trkpt>
      <trkpt lat="37.929057581350207" lon="12.325087711215019">
        <ele>11.19</ele>
        <time>2017-09-19T07:01:03Z</time>
      </trkpt>
      <trkpt lat="37.929057832807302" lon="12.32495779171586">
        <ele>11.19</ele>
        <time>2017-09-19T07:01:15Z</time>
      </trkpt>
      <trkpt lat="37.929056994616985" lon="12.324798200279474">
        <ele>11.19</ele>
        <time>2017-09-19T07:01:28Z</time>
      </trkpt>
      <trkpt lat="37.92905330657959" lon="12.324631735682487">
        <ele>11.19</ele>
        <time>2017-09-19T07:01:42Z</time>
      </trkpt>
      <trkpt lat="37.92905674315989" lon="12.324481112882495">
        <ele>11.19</ele>
        <time>2017-09-19T07:01:55Z</time>
      </trkpt>
      <trkpt lat="37.929080799221992" lon="12.324319258332253">
        <ele>11.19</ele>
        <time>2017-09-19T07:02:08Z</time>
      </trkpt>
      <trkpt lat="37.929076608270407" lon="12.324240552261472">
        <ele>11.19</ele>
        <time>2017-09-19T07:02:18Z</time>
      </trkpt>
      <trkpt lat="37.929078787565231" lon="12.324265278875828">
        <ele>11.19</ele>
        <time>2017-09-19T07:02:35Z</time>
      </trkpt>
      <trkpt lat="37.929069818928838" lon="12.324271816760302">
        <ele>11.19</ele>
        <time>2017-09-19T07:02:55Z</time>
      </trkpt>
      <trkpt lat="37.92908021248877" lon="12.324275588616729">
        <ele>11.19</ele>
        <time>2017-09-19T07:03:18Z</time>
      </trkpt>
      <trkpt lat="37.929079961031675" lon="12.324274247512221">
        <ele>11.19</ele>
        <time>2017-09-19T07:03:34Z</time>
      </trkpt>
      <trkpt lat="37.929074177518487" lon="12.32427173294127">
        <ele>11.19</ele>
        <time>2017-09-19T07:03:52Z</time>
      </trkpt>
      <trkpt lat="37.929064035415649" lon="12.324261926114559">
        <ele>11.19</ele>
        <time>2017-09-19T07:04:15Z</time>
      </trkpt>
      <trkpt lat="37.929068813100457" lon="12.324272152036428">
        <ele>11.67</ele>
        <time>2017-09-19T07:04:39Z</time>
      </trkpt>
      <trkpt lat="37.929084068164229" lon="12.324269469827414">
        <ele>11.67</ele>
        <time>2017-09-19T07:05:05Z</time>
      </trkpt>
      <trkpt lat="37.929079877212644" lon="12.324260752648115">
        <ele>11.67</ele>
        <time>2017-09-19T07:05:27Z</time>
      </trkpt>
      <trkpt lat="37.929104184731841" lon="12.324256729334593">
        <ele>12.15</ele>
        <time>2017-09-19T07:05:49Z</time>
      </trkpt>
      <trkpt lat="37.929076859727502" lon="12.324257148429751">
        <ele>12.15</ele>
        <time>2017-09-19T07:06:09Z</time>
      </trkpt>
      <trkpt lat="37.929088678210974" lon="12.324243066832423">
        <ele>11.67</ele>
        <time>2017-09-19T07:06:32Z</time>
      </trkpt>
      <trkpt lat="37.92908851057291" lon="12.324249185621738">
        <ele>11.67</ele>
        <time>2017-09-19T07:06:54Z</time>
      </trkpt>
      <trkpt lat="37.929083984345198" lon="12.324235606938601">
        <ele>11.67</ele>
        <time>2017-09-19T07:07:19Z</time>
      </trkpt>
      <trkpt lat="37.929081218317151" lon="12.324242815375328">
        <ele>11.67</ele>
        <time>2017-09-19T07:07:45Z</time>
      </trkpt>
      <trkpt lat="37.929079961031675" lon="12.324225883930922">
        <ele>12.15</ele>
        <time>2017-09-19T07:08:03Z</time>
      </trkpt>
      <trkpt lat="37.929089013487101" lon="12.324240803718567">
        <ele>11.67</ele>
        <time>2017-09-19T07:08:27Z</time>
      </trkpt>
      <trkpt lat="37.929078368470073" lon="12.324245162308216">
        <ele>11.67</ele>
        <time>2017-09-19T07:08:54Z</time>
      </trkpt>
      <trkpt lat="37.929083062335849" lon="12.324249856173992">
        <ele>11.67</ele>
        <time>2017-09-19T07:09:14Z</time>
      </trkpt>
      <trkpt lat="37.9290787037462" lon="12.324256142601371">
        <ele>11.67</ele>
        <time>2017-09-19T07:09:30Z</time>
      </trkpt>
      <trkpt lat="37.929078117012978" lon="12.324262596666813">
        <ele>11.67</ele>
        <time>2017-09-19T07:09:49Z</time>
      </trkpt>
      <trkpt lat="37.929076943546534" lon="12.324266955256462">
        <ele>11.19</ele>
        <time>2017-09-19T07:10:10Z</time>
      </trkpt>
      <trkpt lat="37.929082224145532" lon="12.324278773739934">
        <ele>11.67</ele>
        <time>2017-09-19T07:10:26Z</time>
      </trkpt>
      <trkpt lat="37.929088175296783" lon="12.32426930218935">
        <ele>11.19</ele>
        <time>2017-09-19T07:10:48Z</time>
      </trkpt>
      <trkpt lat="37.929084654897451" lon="12.324268715456128">
        <ele>11.19</ele>
        <time>2017-09-19T07:10:56Z</time>
      </trkpt>
      <trkpt lat="37.929077781736851" lon="12.324273241683841">
        <ele>11.19</ele>
        <time>2017-09-19T07:11:09Z</time>
      </trkpt>
      <trkpt lat="37.929087588563561" lon="12.324264859780669">
        <ele>11.67</ele>
        <time>2017-09-19T07:11:27Z</time>
      </trkpt>
      <trkpt lat="37.929078955203295" lon="12.324254550039768">
        <ele>11.67</ele>
        <time>2017-09-19T07:11:52Z</time>
      </trkpt>
      <trkpt lat="37.92908750474453" lon="12.324264692142606">
        <ele>11.19</ele>
        <time>2017-09-19T07:12:14Z</time>
      </trkpt>
      <trkpt lat="37.929076943546534" lon="12.32426829636097">
        <ele>11.67</ele>
        <time>2017-09-19T07:12:37Z</time>
      </trkpt>
      <trkpt lat="37.929062191396952" lon="12.324275420978665">
        <ele>11.67</ele>
        <time>2017-09-19T07:12:55Z</time>
      </trkpt>
      <trkpt lat="37.929052049294114" lon="12.324279444292188">
        <ele>11.19</ele>
        <time>2017-09-19T07:13:18Z</time>
      </trkpt>
      <trkpt lat="37.929035117849708" lon="12.324268715456128">
        <ele>11.19</ele>
        <time>2017-09-19T07:13:41Z</time>
      </trkpt>
      <trkpt lat="37.929092952981591" lon="12.324201241135597">
        <ele>11.19</ele>
        <time>2017-09-19T07:13:55Z</time>
      </trkpt>
      <trkpt lat="37.929099490866065" lon="12.324092192575336">
        <ele>11.19</ele>
        <time>2017-09-19T07:14:08Z</time>
      </trkpt>
      <trkpt lat="37.92910267598927" lon="12.323986077681184">
        <ele>11.19</ele>
        <time>2017-09-19T07:14:19Z</time>
      </trkpt>
      <trkpt lat="37.929093707352877" lon="12.323915250599384">
        <ele>11.19</ele>
        <time>2017-09-19T07:14:28Z</time>
      </trkpt>
      <trkpt lat="37.92909630574286" lon="12.323832605034113">
        <ele>11.67</ele>
        <time>2017-09-19T07:14:38Z</time>
      </trkpt>
      <trkpt lat="37.929106280207634" lon="12.323806285858154">
        <ele>11.67</ele>
        <time>2017-09-19T07:14:42Z</time>
      </trkpt>
      <trkpt lat="37.929116003215313" lon="12.323694471269846">
        <ele>12.15</ele>
        <time>2017-09-19T07:14:52Z</time>
      </trkpt>
      <trkpt lat="37.929123630747199" lon="12.323550637811422">
        <ele>12.15</ele>
        <time>2017-09-19T07:15:06Z</time>
      </trkpt>
      <trkpt lat="37.929137628525496" lon="12.323416694998741">
        <ele>12.15</ele>
        <time>2017-09-19T07:15:19Z</time>
      </trkpt>
      <trkpt lat="37.929144501686096" lon="12.323250649496913">
        <ele>12.630000000000001</ele>
        <time>2017-09-19T07:15:33Z</time>
      </trkpt>
      <trkpt lat="37.929173586890101" lon="12.323158532381058">
        <ele>13.119999999999999</ele>
        <time>2017-09-19T07:15:43Z</time>
      </trkpt>
      <trkpt lat="37.929182136431336" lon="12.323079826310277">
        <ele>13.119999999999999</ele>
        <time>2017-09-19T07:15:50Z</time>
      </trkpt>
      <trkpt lat="37.929179538041353" lon="12.322945883497596">
        <ele>13.6</ele>
        <time>2017-09-19T07:16:02Z</time>
      </trkpt>
      <trkpt lat="37.929195631295443" lon="12.322825267910957">
        <ele>13.6</ele>
        <time>2017-09-19T07:16:13Z</time>
      </trkpt>
      <trkpt lat="37.929191272705793" lon="12.322721248492599">
        <ele>14.08</ele>
        <time>2017-09-19T07:16:23Z</time>
      </trkpt>
      <trkpt lat="37.92919697239995" lon="12.322609685361385">
        <ele>14.56</ele>
        <time>2017-09-19T07:16:33Z</time>
      </trkpt>
      <trkpt lat="37.92919747531414" lon="12.322588143870234">
        <ele>14.56</ele>
        <time>2017-09-19T07:16:35Z</time>
      </trkpt>
      <trkpt lat="37.929212814196944" lon="12.322466941550374">
        <ele>15.039999999999999</ele>
        <time>2017-09-19T07:16:46Z</time>
      </trkpt>
      <trkpt lat="37.929261261597276" lon="12.322337105870247">
        <ele>15.52</ele>
        <time>2017-09-19T07:16:57Z</time>
      </trkpt>
      <trkpt lat="37.929266458377242" lon="12.322263680398464">
        <ele>15.52</ele>
        <time>2017-09-19T07:17:04Z</time>
      </trkpt>
      <trkpt lat="37.92924483306706" lon="12.322159493342042">
        <ele>16</ele>
        <time>2017-09-19T07:17:14Z</time>
      </trkpt>
      <trkpt lat="37.929240306839347" lon="12.322043236345053">
        <ele>16.48</ele>
        <time>2017-09-19T07:17:24Z</time>
      </trkpt>
      <trkpt lat="37.929230500012636" lon="12.321913652122021">
        <ele>17.440000000000001</ele>
        <time>2017-09-19T07:17:35Z</time>
      </trkpt>
      <trkpt lat="37.929223207756877" lon="12.321779038757086">
        <ele>17.920000000000002</ele>
        <time>2017-09-19T07:17:47Z</time>
      </trkpt>
      <trkpt lat="37.929215496405959" lon="12.321672588586807">
        <ele>18.399999999999999</ele>
        <time>2017-09-19T07:17:57Z</time>
      </trkpt>
      <trkpt lat="37.929211053997278" lon="12.321610562503338">
        <ele>18.399999999999999</ele>
        <time>2017-09-19T07:18:02Z</time>
      </trkpt>
      <trkpt lat="37.929206024855375" lon="12.321411492303014">
        <ele>19.84</ele>
        <time>2017-09-19T07:18:17Z</time>
      </trkpt>
      <trkpt lat="37.929212898015976" lon="12.321225916966796">
        <ele>20.809999999999999</ele>
        <time>2017-09-19T07:18:31Z</time>
      </trkpt>
      <trkpt lat="37.929229410365224" lon="12.321113431826234">
        <ele>20.809999999999999</ele>
        <time>2017-09-19T07:18:44Z</time>
      </trkpt>
      <trkpt lat="37.929217591881752" lon="12.321024835109711">
        <ele>21.289999999999999</ele>
        <time>2017-09-19T07:18:53Z</time>
      </trkpt>
      <trkpt lat="37.929224213585258" lon="12.32082643546164">
        <ele>22.25</ele>
        <time>2017-09-19T07:19:08Z</time>
      </trkpt>
      <trkpt lat="37.92922823689878" lon="12.320693247020245">
        <ele>23.210000000000001</ele>
        <time>2017-09-19T07:19:20Z</time>
      </trkpt>
      <trkpt lat="37.929245755076408" lon="12.320533655583858">
        <ele>24.170000000000002</ele>
        <time>2017-09-19T07:19:34Z</time>
      </trkpt>
      <trkpt lat="37.929264698177576" lon="12.32036953791976">
        <ele>25.129999999999999</ele>
        <time>2017-09-19T07:19:48Z</time>
      </trkpt>
      <trkpt lat="37.929269811138511" lon="12.320194272324443">
        <ele>26.57</ele>
        <time>2017-09-19T07:20:03Z</time>
      </trkpt>
      <trkpt lat="37.929265033453703" lon="12.320186560973525">
        <ele>27.050000000000001</ele>
        <time>2017-09-19T07:20:05Z</time>
      </trkpt>
      <trkpt lat="37.929241899400949" lon="12.320045661181211">
        <ele>27.530000000000001</ele>
        <time>2017-09-19T07:20:17Z</time>
      </trkpt>
      <trkpt lat="37.929255980998278" lon="12.319910377264023">
        <ele>28.02</ele>
        <time>2017-09-19T07:20:26Z</time>
      </trkpt>
      <trkpt lat="37.929260674864054" lon="12.319805938750505">
        <ele>29.460000000000001</ele>
        <time>2017-09-19T07:20:35Z</time>
      </trkpt>
      <trkpt lat="37.929256232455373" lon="12.319749444723129">
        <ele>29.940000000000001</ele>
        <time>2017-09-19T07:20:40Z</time>
      </trkpt>
      <trkpt lat="37.929222704842687" lon="12.319606281816959">
        <ele>30.899999999999999</ele>
        <time>2017-09-19T07:20:52Z</time>
      </trkpt>
      <trkpt lat="37.929224716499448" lon="12.319489941000938">
        <ele>32.340000000000003</ele>
        <time>2017-09-19T07:21:04Z</time>
      </trkpt>
      <trkpt lat="37.929220525547862" lon="12.31940452940762">
        <ele>33.299999999999997</ele>
        <time>2017-09-19T07:21:15Z</time>
      </trkpt>
      <trkpt lat="37.929228404536843" lon="12.319305706769228">
        <ele>34.259999999999998</ele>
        <time>2017-09-19T07:21:26Z</time>
      </trkpt>
      <trkpt lat="37.929218346253037" lon="12.319194143638015">
        <ele>35.710000000000001</ele>
        <time>2017-09-19T07:21:38Z</time>
      </trkpt>
      <trkpt lat="37.92922337539494" lon="12.319119879975915">
        <ele>37.149999999999999</ele>
        <time>2017-09-19T07:21:48Z</time>
      </trkpt>
      <trkpt lat="37.92920870706439" lon="12.319039246067405">
        <ele>37.630000000000003</ele>
        <time>2017-09-19T07:21:59Z</time>
      </trkpt>
      <trkpt lat="37.929211221635342" lon="12.318940507248044">
        <ele>39.07</ele>
        <time>2017-09-19T07:22:10Z</time>
      </trkpt>
      <trkpt lat="37.929198648780584" lon="12.318855263292789">
        <ele>40.030000000000001</ele>
        <time>2017-09-19T07:22:21Z</time>
      </trkpt>
      <trkpt lat="37.929207617416978" lon="12.318752584978938">
        <ele>41.469999999999999</ele>
        <time>2017-09-19T07:22:33Z</time>
      </trkpt>
      <trkpt lat="37.929200241342187" lon="12.318674800917506">
        <ele>42.439999999999998</ele>
        <time>2017-09-19T07:22:43Z</time>
      </trkpt>
      <trkpt lat="37.929197642952204" lon="12.318584863096476">
        <ele>43.880000000000003</ele>
        <time>2017-09-19T07:22:55Z</time>
      </trkpt>
      <trkpt lat="37.929171323776245" lon="12.318533649668097">
        <ele>45.32</ele>
        <time>2017-09-19T07:23:06Z</time>
      </trkpt>
      <trkpt lat="37.929160092025995" lon="12.318452848121524">
        <ele>46.280000000000001</ele>
        <time>2017-09-19T07:23:17Z</time>
      </trkpt>
      <trkpt lat="37.929147267714143" lon="12.31837447732687">
        <ele>47.719999999999999</ele>
        <time>2017-09-19T07:23:28Z</time>
      </trkpt>
      <trkpt lat="37.929129833355546" lon="12.318281689658761">
        <ele>49.649999999999999</ele>
        <time>2017-09-19T07:23:42Z</time>
      </trkpt>
      <trkpt lat="37.929111225530505" lon="12.31824061833322">
        <ele>50.609999999999999</ele>
        <time>2017-09-19T07:23:52Z</time>
      </trkpt>
      <trkpt lat="37.929053222760558" lon="12.318240031599998">
        <ele>51.090000000000003</ele>
        <time>2017-09-19T07:24:02Z</time>
      </trkpt>
      <trkpt lat="37.929000500589609" lon="12.318198289722204">
        <ele>52.530000000000001</ele>
        <time>2017-09-19T07:24:12Z</time>
      </trkpt>
      <trkpt lat="37.928938390687108" lon="12.318152775987983">
        <ele>53.490000000000002</ele>
        <time>2017-09-19T07:24:22Z</time>
      </trkpt>
      <trkpt lat="37.928895894438028" lon="12.318080356344581">
        <ele>55.409999999999997</ele>
        <time>2017-09-19T07:24:33Z</time>
      </trkpt>
      <trkpt lat="37.928910981863737" lon="12.318031070753932">
        <ele>56.369999999999997</ele>
        <time>2017-09-19T07:24:43Z</time>
      </trkpt>
      <trkpt lat="37.928894888609648" lon="12.318001231178641">
        <ele>56.859999999999999</ele>
        <time>2017-09-19T07:24:55Z</time>
      </trkpt>
      <trkpt lat="37.928830767050385" lon="12.317973906174302">
        <ele>57.340000000000003</ele>
        <time>2017-09-19T07:25:05Z</time>
      </trkpt>
      <trkpt lat="37.928756084293127" lon="12.317922776564956">
        <ele>57.82</ele>
        <time>2017-09-19T07:25:16Z</time>
      </trkpt>
      <trkpt lat="37.928714342415333" lon="12.31790928170085">
        <ele>58.299999999999997</ele>
        <time>2017-09-19T07:25:21Z</time>
      </trkpt>
      <trkpt lat="37.928647790104151" lon="12.317875334993005">
        <ele>58.780000000000001</ele>
        <time>2017-09-19T07:25:33Z</time>
      </trkpt>
      <trkpt lat="37.92853094637394" lon="12.317835101857781">
        <ele>59.740000000000002</ele>
        <time>2017-09-19T07:25:46Z</time>
      </trkpt>
      <trkpt lat="37.928437069058418" lon="12.317807022482157">
        <ele>61.659999999999997</ele>
        <time>2017-09-19T07:25:58Z</time>
      </trkpt>
      <trkpt lat="37.928347298875451" lon="12.317781541496515">
        <ele>61.18</ele>
        <time>2017-09-19T07:26:09Z</time>
      </trkpt>
      <trkpt lat="37.928239172324538" lon="12.317761508747935">
        <ele>62.140000000000001</ele>
        <time>2017-09-19T07:26:22Z</time>
      </trkpt>
      <trkpt lat="37.928132135421038" lon="12.3177495226264">
        <ele>63.100000000000001</ele>
        <time>2017-09-19T07:26:34Z</time>
      </trkpt>
      <trkpt lat="37.92811562307179" lon="12.317742900922894">
        <ele>63.100000000000001</ele>
        <time>2017-09-19T07:26:36Z</time>
      </trkpt>
      <trkpt lat="37.928029876202345" lon="12.317723706364632">
        <ele>64.069999999999993</ele>
        <time>2017-09-19T07:26:46Z</time>
      </trkpt>
      <trkpt lat="37.927950080484152" lon="12.317718593403697">
        <ele>65.030000000000001</ele>
        <time>2017-09-19T07:26:56Z</time>
      </trkpt>
      <trkpt lat="37.927841283380985" lon="12.317729238420725">
        <ele>65.989999999999995</ele>
        <time>2017-09-19T07:27:07Z</time>
      </trkpt>
      <trkpt lat="37.927832817658782" lon="12.31772999279201">
        <ele>65.989999999999995</ele>
        <time>2017-09-19T07:27:08Z</time>
      </trkpt>
      <trkpt lat="37.927720751613379" lon="12.317743487656116">
        <ele>66.950000000000003</ele>
        <time>2017-09-19T07:27:20Z</time>
      </trkpt>
      <trkpt lat="37.927595358341932" lon="12.317750779911876">
        <ele>67.909999999999997</ele>
        <time>2017-09-19T07:27:33Z</time>
      </trkpt>
      <trkpt lat="37.92747063562274" lon="12.317780116572976">
        <ele>68.870000000000005</ele>
        <time>2017-09-19T07:27:45Z</time>
      </trkpt>
      <trkpt lat="37.927382625639439" lon="12.317808028310537">
        <ele>69.349999999999994</ele>
        <time>2017-09-19T07:27:55Z</time>
      </trkpt>
      <trkpt lat="37.927250610664487" lon="12.31782965362072">
        <ele>70.310000000000002</ele>
        <time>2017-09-19T07:28:08Z</time>
      </trkpt>
      <trkpt lat="37.927167881280184" lon="12.317726723849773">
        <ele>71.269999999999996</ele>
        <time>2017-09-19T07:28:22Z</time>
      </trkpt>
      <trkpt lat="37.9271843098104" lon="12.31773586012423">
        <ele>71.269999999999996</ele>
        <time>2017-09-19T07:28:30Z</time>
      </trkpt>
      <trkpt lat="37.927166204899549" lon="12.31777248904109">
        <ele>71.269999999999996</ele>
        <time>2017-09-19T07:28:36Z</time>
      </trkpt>
      <trkpt lat="37.927132844924927" lon="12.317783972248435">
        <ele>71.760000000000005</ele>
        <time>2017-09-19T07:28:47Z</time>
      </trkpt>
      <trkpt lat="37.927137454971671" lon="12.317775590345263">
        <ele>71.760000000000005</ele>
        <time>2017-09-19T07:28:58Z</time>
      </trkpt>
      <trkpt lat="37.927155559882522" lon="12.317772656679153">
        <ele>71.760000000000005</ele>
        <time>2017-09-19T07:29:21Z</time>
      </trkpt>
      <trkpt lat="37.927117003127933" lon="12.317745164036751">
        <ele>71.760000000000005</ele>
        <time>2017-09-19T07:29:34Z</time>
      </trkpt>
      <trkpt lat="37.92712714523077" lon="12.31772068887949">
        <ele>71.269999999999996</ele>
        <time>2017-09-19T07:29:39Z</time>
      </trkpt>
      <trkpt lat="37.927117757499218" lon="12.317704344168305">
        <ele>71.760000000000005</ele>
        <time>2017-09-19T07:29:41Z</time>
      </trkpt>
      <trkpt lat="37.927180118858814" lon="12.317554727196693">
        <ele>72.719999999999999</ele>
        <time>2017-09-19T07:29:55Z</time>
      </trkpt>
      <trkpt lat="37.927187914028764" lon="12.317547854036093">
        <ele>72.719999999999999</ele>
        <time>2017-09-19T07:29:56Z</time>
      </trkpt>
      <trkpt lat="37.927310289815068" lon="12.317521451041102">
        <ele>73.680000000000007</ele>
        <time>2017-09-19T07:30:08Z</time>
      </trkpt>
      <trkpt lat="37.927413638681173" lon="12.317538131028414">
        <ele>74.159999999999997</ele>
        <time>2017-09-19T07:30:18Z</time>
      </trkpt>
      <trkpt lat="37.927570128813386" lon="12.317539723590016">
        <ele>75.120000000000005</ele>
        <time>2017-09-19T07:30:33Z</time>
      </trkpt>
      <trkpt lat="37.927685212343931" lon="12.317518768832088">
        <ele>76.079999999999998</ele>
        <time>2017-09-19T07:30:46Z</time>
      </trkpt>
      <trkpt lat="37.927788058295846" lon="12.317471327260137">
        <ele>77.040000000000006</ele>
        <time>2017-09-19T07:30:58Z</time>
      </trkpt>
      <trkpt lat="37.92780146934092" lon="12.31746319681406">
        <ele>77.519999999999996</ele>
        <time>2017-09-19T07:31:09Z</time>
      </trkpt>
      <trkpt lat="37.927801804617047" lon="12.317485911771655">
        <ele>77.519999999999996</ele>
        <time>2017-09-19T07:31:22Z</time>
      </trkpt>
      <trkpt lat="37.927807420492172" lon="12.317509800195694">
        <ele>77.519999999999996</ele>
        <time>2017-09-19T07:31:30Z</time>
      </trkpt>
      <trkpt lat="37.927803229540586" lon="12.317488677799702">
        <ele>77.519999999999996</ele>
        <time>2017-09-19T07:31:41Z</time>
      </trkpt>
      <trkpt lat="37.927811276167631" lon="12.317466801032424">
        <ele>78</ele>
        <time>2017-09-19T07:32:00Z</time>
      </trkpt>
      <trkpt lat="37.927797194570303" lon="12.317469818517566">
        <ele>77.519999999999996</ele>
        <time>2017-09-19T07:32:20Z</time>
      </trkpt>
      <trkpt lat="37.927803816273808" lon="12.317489935085177">
        <ele>77.519999999999996</ele>
        <time>2017-09-19T07:32:39Z</time>
      </trkpt>
      <trkpt lat="37.927812952548265" lon="12.31749152764678">
        <ele>77.040000000000006</ele>
        <time>2017-09-19T07:32:48Z</time>
      </trkpt>
      <trkpt lat="37.927762744948268" lon="12.317519020289183">
        <ele>76.560000000000002</ele>
        <time>2017-09-19T07:33:04Z</time>
      </trkpt>
      <trkpt lat="37.927768109366298" lon="12.317521618679166">
        <ele>77.040000000000006</ele>
        <time>2017-09-19T07:33:15Z</time>
      </trkpt>
      <trkpt lat="37.927757380530238" lon="12.317536538466811">
        <ele>76.560000000000002</ele>
        <time>2017-09-19T07:33:30Z</time>
      </trkpt>
      <trkpt lat="37.927776407450438" lon="12.317536035552621">
        <ele>76.560000000000002</ele>
        <time>2017-09-19T07:33:58Z</time>
      </trkpt>
      <trkpt lat="37.927772970870137" lon="12.317531257867813">
        <ele>76.560000000000002</ele>
        <time>2017-09-19T07:34:19Z</time>
      </trkpt>
      <trkpt lat="37.927780849859118" lon="12.317522708326578">
        <ele>76.560000000000002</ele>
        <time>2017-09-19T07:34:40Z</time>
      </trkpt>
      <trkpt lat="37.927781604230404" lon="12.317518098279834">
        <ele>76.560000000000002</ele>
        <time>2017-09-19T07:34:57Z</time>
      </trkpt>
      <trkpt lat="37.927757212892175" lon="12.317524887621403">
        <ele>77.040000000000006</ele>
        <time>2017-09-19T07:35:09Z</time>
      </trkpt>
      <trkpt lat="37.927785879001021" lon="12.317480128258467">
        <ele>77.040000000000006</ele>
        <time>2017-09-19T07:35:22Z</time>
      </trkpt>
      <trkpt lat="37.927870787680149" lon="12.317464370280504">
        <ele>77.519999999999996</ele>
        <time>2017-09-19T07:35:34Z</time>
      </trkpt>
      <trkpt lat="37.927935160696507" lon="12.317415252327919">
        <ele>78</ele>
        <time>2017-09-19T07:35:45Z</time>
      </trkpt>
      <trkpt lat="37.928025685250759" lon="12.317378539592028">
        <ele>78.480000000000004</ele>
        <time>2017-09-19T07:35:58Z</time>
      </trkpt>
      <trkpt lat="37.928154179826379" lon="12.317325565963984">
        <ele>79.450000000000003</ele>
        <time>2017-09-19T07:36:12Z</time>
      </trkpt>
      <trkpt lat="37.92825878597796" lon="12.317282231524587">
        <ele>79.930000000000007</ele>
        <time>2017-09-19T07:36:24Z</time>
      </trkpt>
      <trkpt lat="37.928317040205002" lon="12.317247446626425">
        <ele>80.409999999999997</ele>
        <time>2017-09-19T07:36:32Z</time>
      </trkpt>
      <trkpt lat="37.928451653569937" lon="12.317201681435108">
        <ele>81.370000000000005</ele>
        <time>2017-09-19T07:36:45Z</time>
      </trkpt>
      <trkpt lat="37.928549973294139" lon="12.317153066396713">
        <ele>82.329999999999998</ele>
        <time>2017-09-19T07:36:56Z</time>
      </trkpt>
      <trkpt lat="37.928659692406654" lon="12.317103780806065">
        <ele>82.810000000000002</ele>
        <time>2017-09-19T07:37:08Z</time>
      </trkpt>
      <trkpt lat="37.928769998252392" lon="12.317064888775349">
        <ele>83.769999999999996</ele>
        <time>2017-09-19T07:37:20Z</time>
      </trkpt>
      <trkpt lat="37.928859265521169" lon="12.317024739459157">
        <ele>84.730000000000004</ele>
        <time>2017-09-19T07:37:31Z</time>
      </trkpt>
      <trkpt lat="37.928953897207975" lon="12.316986182704568">
        <ele>85.689999999999998</ele>
        <time>2017-09-19T07:37:42Z</time>
      </trkpt>
      <trkpt lat="37.928988514468074" lon="12.316978303715587">
        <ele>85.689999999999998</ele>
        <time>2017-09-19T07:37:46Z</time>
      </trkpt>
      <trkpt lat="37.92905724607408" lon="12.316942848265171">
        <ele>86.180000000000007</ele>
        <time>2017-09-19T07:37:55Z</time>
      </trkpt>
      <trkpt lat="37.929153637960553" lon="12.316921893507242">
        <ele>86.659999999999997</ele>
        <time>2017-09-19T07:38:07Z</time>
      </trkpt>
      <trkpt lat="37.929183728992939" lon="12.316925916820765">
        <ele>86.659999999999997</ele>
        <time>2017-09-19T07:38:10Z</time>
      </trkpt>
      <trkpt lat="37.929267967119813" lon="12.316911499947309">
        <ele>86.659999999999997</ele>
        <time>2017-09-19T07:38:20Z</time>
      </trkpt>
      <trkpt lat="37.929373076185584" lon="12.316878475248814">
        <ele>87.620000000000005</ele>
        <time>2017-09-19T07:38:33Z</time>
      </trkpt>
      <trkpt lat="37.929486818611622" lon="12.316859699785709">
        <ele>88.579999999999998</ele>
        <time>2017-09-19T07:38:46Z</time>
      </trkpt>
      <trkpt lat="37.92951456271112" lon="12.316855089738965">
        <ele>88.579999999999998</ele>
        <time>2017-09-19T07:38:49Z</time>
      </trkpt>
      <trkpt lat="37.929574828594923" lon="12.316866908222437">
        <ele>89.060000000000002</ele>
        <time>2017-09-19T07:39:01Z</time>
      </trkpt>
      <trkpt lat="37.929657557979226" lon="12.316866321489215">
        <ele>89.540000000000006</ele>
        <time>2017-09-19T07:39:12Z</time>
      </trkpt>
      <trkpt lat="37.929762750864029" lon="12.316869422793388">
        <ele>90.019999999999996</ele>
        <time>2017-09-19T07:39:23Z</time>
      </trkpt>
      <trkpt lat="37.929844977334142" lon="12.316866992041469">
        <ele>90.5</ele>
        <time>2017-09-19T07:39:32Z</time>
      </trkpt>
      <trkpt lat="37.929975315928459" lon="12.316865231841803">
        <ele>91.459999999999994</ele>
        <time>2017-09-19T07:39:45Z</time>
      </trkpt>
      <trkpt lat="37.93011948466301" lon="12.316851317882538">
        <ele>91.939999999999998</ele>
        <time>2017-09-19T07:39:59Z</time>
      </trkpt>
      <trkpt lat="37.930277902632952" lon="12.316852826625109">
        <ele>92.420000000000002</ele>
        <time>2017-09-19T07:40:14Z</time>
      </trkpt>
      <trkpt lat="37.930392231792212" lon="12.31684603728354">
        <ele>93.870000000000005</ele>
        <time>2017-09-19T07:40:26Z</time>
      </trkpt>
      <trkpt lat="37.930485438555479" lon="12.31682064011693">
        <ele>94.349999999999994</ele>
        <time>2017-09-19T07:40:37Z</time>
      </trkpt>
      <trkpt lat="37.930558109655976" lon="12.316799936816096">
        <ele>95.310000000000002</ele>
        <time>2017-09-19T07:40:47Z</time>
      </trkpt>
      <trkpt lat="37.930604377761483" lon="12.316791638731956">
        <ele>95.790000000000006</ele>
        <time>2017-09-19T07:40:52Z</time>
      </trkpt>
      <trkpt lat="37.930721724405885" lon="12.316741514950991">
        <ele>96.269999999999996</ele>
        <time>2017-09-19T07:41:06Z</time>
      </trkpt>
      <trkpt lat="37.930818451568484" lon="12.316713435575366">
        <ele>97.230000000000004</ele>
        <time>2017-09-19T07:41:17Z</time>
      </trkpt>
      <trkpt lat="37.930942922830582" lon="12.316689128056169">
        <ele>98.189999999999998</ele>
        <time>2017-09-19T07:41:30Z</time>
      </trkpt>
      <trkpt lat="37.931062448769808" lon="12.316659791395068">
        <ele>99.150000000000006</ele>
        <time>2017-09-19T07:41:43Z</time>
      </trkpt>
      <trkpt lat="37.931160181760788" lon="12.316637998446822">
        <ele>100.11</ele>
        <time>2017-09-19T07:41:54Z</time>
      </trkpt>
      <trkpt lat="37.931253975257277" lon="12.316617546603084">
        <ele>101.08</ele>
        <time>2017-09-19T07:42:04Z</time>
      </trkpt>
      <trkpt lat="37.931380793452263" lon="12.316591814160347">
        <ele>101.56</ele>
        <time>2017-09-19T07:42:18Z</time>
      </trkpt>
      <trkpt lat="37.931413482874632" lon="12.316580163314939">
        <ele>102.04000000000001</ele>
        <time>2017-09-19T07:42:22Z</time>
      </trkpt>
      <trkpt lat="37.931442651897669" lon="12.316577900201082">
        <ele>102.04000000000001</ele>
        <time>2017-09-19T07:42:25Z</time>
      </trkpt>
      <trkpt lat="37.931553209200501" lon="12.316556861624122">
        <ele>102.52</ele>
        <time>2017-09-19T07:42:36Z</time>
      </trkpt>
      <trkpt lat="37.9316620901227" lon="12.316530542448163">
        <ele>103.48</ele>
        <time>2017-09-19T07:42:48Z</time>
      </trkpt>
      <trkpt lat="37.931766528636217" lon="12.316508162766695">
        <ele>104.44</ele>
        <time>2017-09-19T07:43:00Z</time>
      </trkpt>
      <trkpt lat="37.931878678500652" lon="12.316491901874542">
        <ele>105.40000000000001</ele>
        <time>2017-09-19T07:43:12Z</time>
      </trkpt>
      <trkpt lat="37.931885719299316" lon="12.316487124189734">
        <ele>105.40000000000001</ele>
        <time>2017-09-19T07:43:13Z</time>
      </trkpt>
      <trkpt lat="37.93198999017477" lon="12.316475389525294">
        <ele>105.88</ele>
        <time>2017-09-19T07:43:24Z</time>
      </trkpt>
      <trkpt lat="37.932092165574431" lon="12.316458625718951">
        <ele>106.84</ele>
        <time>2017-09-19T07:43:35Z</time>
      </trkpt>
      <trkpt lat="37.932144720107317" lon="12.316465331241488">
        <ele>106.84</ele>
        <time>2017-09-19T07:43:46Z</time>
      </trkpt>
      <trkpt lat="37.932153102010489" lon="12.31644588522613">
        <ele>106.84</ele>
        <time>2017-09-19T07:44:06Z</time>
      </trkpt>
      <trkpt lat="37.932273969054222" lon="12.316427361220121">
        <ele>108.29000000000001</ele>
        <time>2017-09-19T07:44:18Z</time>
      </trkpt>
      <trkpt lat="37.932398356497288" lon="12.316389055922627">
        <ele>109.25</ele>
        <time>2017-09-19T07:44:32Z</time>
      </trkpt>
      <trkpt lat="37.932553002610803" lon="12.31638134457171">
        <ele>109.25</ele>
        <time>2017-09-19T07:44:45Z</time>
      </trkpt>
      <trkpt lat="37.932683425024152" lon="12.31632417999208">
        <ele>109.25</ele>
        <time>2017-09-19T07:44:59Z</time>
      </trkpt>
      <trkpt lat="37.932708319276571" lon="12.316286796703935">
        <ele>109.25</ele>
        <time>2017-09-19T07:45:03Z</time>
      </trkpt>
      <trkpt lat="37.932742014527321" lon="12.316197948530316">
        <ele>109.25</ele>
        <time>2017-09-19T07:45:11Z</time>
      </trkpt>
      <trkpt lat="37.932746456936002" lon="12.316173976287246">
        <ele>112.61</ele>
        <time>2017-09-19T07:45:13Z</time>
      </trkpt>
      <trkpt lat="37.932733967900276" lon="12.315987311303616">
        <ele>113.56999999999999</ele>
        <time>2017-09-19T07:45:26Z</time>
      </trkpt>
      <trkpt lat="37.932716533541679" lon="12.315895361825824">
        <ele>114.53</ele>
        <time>2017-09-19T07:45:34Z</time>
      </trkpt>
      <trkpt lat="37.932709576562047" lon="12.315755886957049">
        <ele>115.5</ele>
        <time>2017-09-19T07:45:45Z</time>
      </trkpt>
      <trkpt lat="37.932687448337674" lon="12.315611885860562">
        <ele>116.94</ele>
        <time>2017-09-19T07:45:56Z</time>
      </trkpt>
      <trkpt lat="37.932633385062218" lon="12.315463945269585">
        <ele>118.38</ele>
        <time>2017-09-19T07:46:09Z</time>
      </trkpt>
      <trkpt lat="37.93257680721581" lon="12.315340312197804">
        <ele>118.86</ele>
        <time>2017-09-19T07:46:20Z</time>
      </trkpt>
      <trkpt lat="37.93253431096673" lon="12.315184660255909">
        <ele>119.81999999999999</ele>
        <time>2017-09-19T07:46:33Z</time>
      </trkpt>
      <trkpt lat="37.932514110580087" lon="12.31508013792336">
        <ele>120.3</ele>
        <time>2017-09-19T07:46:41Z</time>
      </trkpt>
      <trkpt lat="37.932596588507295" lon="12.314914930611849">
        <ele>121.26000000000001</ele>
        <time>2017-09-19T07:46:55Z</time>
      </trkpt>
      <trkpt lat="37.932609412819147" lon="12.314893389120698">
        <ele>121.26000000000001</ele>
        <time>2017-09-19T07:47:09Z</time>
      </trkpt>
      <trkpt lat="37.932564569637179" lon="12.314847372472286">
        <ele>121.73999999999999</ele>
        <time>2017-09-19T07:47:20Z</time>
      </trkpt>
      <trkpt lat="37.932591894641519" lon="12.314832452684641">
        <ele>121.73999999999999</ele>
        <time>2017-09-19T07:47:29Z</time>
      </trkpt>
      <trkpt lat="37.932618381455541" lon="12.314865309745073">
        <ele>121.73999999999999</ele>
        <time>2017-09-19T07:47:40Z</time>
      </trkpt>
      <trkpt lat="37.932620141655207" lon="12.314916355535388">
        <ele>121.73999999999999</ele>
        <time>2017-09-19T07:47:49Z</time>
      </trkpt>
      <trkpt lat="37.932600025087595" lon="12.314901435747743">
        <ele>121.73999999999999</ele>
        <time>2017-09-19T07:48:02Z</time>
      </trkpt>
      <trkpt lat="37.932597175240517" lon="12.314897160977125">
        <ele>121.73999999999999</ele>
        <time>2017-09-19T07:48:16Z</time>
      </trkpt>
      <trkpt lat="37.932593235746026" lon="12.314877463504672">
        <ele>121.73999999999999</ele>
        <time>2017-09-19T07:48:28Z</time>
      </trkpt>
      <trkpt lat="37.932572364807129" lon="12.314848462119699">
        <ele>122.22</ele>
        <time>2017-09-19T07:48:39Z</time>
      </trkpt>
      <trkpt lat="37.93254847638309" lon="12.314823651686311">
        <ele>122.70999999999999</ele>
        <time>2017-09-19T07:48:50Z</time>
      </trkpt>
      <trkpt lat="37.932519894093275" lon="12.314781406894326">
        <ele>123.67</ele>
        <time>2017-09-19T07:49:02Z</time>
      </trkpt>
      <trkpt lat="37.932486534118652" lon="12.314741173759103">
        <ele>125.11</ele>
        <time>2017-09-19T07:49:13Z</time>
      </trkpt>
      <trkpt lat="37.932442529127002" lon="12.314690966159105">
        <ele>127.03</ele>
        <time>2017-09-19T07:49:26Z</time>
      </trkpt>
      <trkpt lat="37.932403972372413" lon="12.314660958945751">
        <ele>128.47</ele>
        <time>2017-09-19T07:49:39Z</time>
      </trkpt>
      <trkpt lat="37.932312190532684" lon="12.314615361392498">
        <ele>130.40000000000001</ele>
        <time>2017-09-19T07:49:51Z</time>
      </trkpt>
      <trkpt lat="37.932292744517326" lon="12.314613182097673">
        <ele>130.40000000000001</ele>
        <time>2017-09-19T07:49:53Z</time>
      </trkpt>
      <trkpt lat="37.932195430621505" lon="12.314635058864951">
        <ele>131.36000000000001</ele>
        <time>2017-09-19T07:50:04Z</time>
      </trkpt>
      <trkpt lat="37.932130470871925" lon="12.314623659476638">
        <ele>131.36000000000001</ele>
        <time>2017-09-19T07:50:15Z</time>
      </trkpt>
      <trkpt lat="37.932115299627185" lon="12.314618295058608">
        <ele>131.84</ele>
        <time>2017-09-19T07:50:17Z</time>
      </trkpt>
      <trkpt lat="37.93203734792769" lon="12.314571104943752">
        <ele>133.28</ele>
        <time>2017-09-19T07:50:28Z</time>
      </trkpt>
      <trkpt lat="37.931998539716005" lon="12.314538080245256">
        <ele>134.24000000000001</ele>
        <time>2017-09-19T07:50:39Z</time>
      </trkpt>
      <trkpt lat="37.931940034031868" lon="12.314493572339416">
        <ele>136.16</ele>
        <time>2017-09-19T07:50:52Z</time>
      </trkpt>
      <trkpt lat="37.931891921907663" lon="12.314484687522054">
        <ele>136.63999999999999</ele>
        <time>2017-09-19T07:51:04Z</time>
      </trkpt>
      <trkpt lat="37.931868117302656" lon="12.314478484913707">
        <ele>136.63999999999999</ele>
        <time>2017-09-19T07:51:15Z</time>
      </trkpt>
      <trkpt lat="37.931859064847231" lon="12.314492063596845">
        <ele>136.63999999999999</ele>
        <time>2017-09-19T07:51:28Z</time>
      </trkpt>
      <trkpt lat="37.931877421215177" lon="12.314481418579817">
        <ele>136.16</ele>
        <time>2017-09-19T07:51:38Z</time>
      </trkpt>
      <trkpt lat="37.931814808398485" lon="12.314459625631571">
        <ele>137.13</ele>
        <time>2017-09-19T07:51:52Z</time>
      </trkpt>
      <trkpt lat="37.931777341291308" lon="12.314443029463291">
        <ele>137.13</ele>
        <time>2017-09-19T07:51:57Z</time>
      </trkpt>
      <trkpt lat="37.931763008236885" lon="12.314434479922056">
        <ele>137.61000000000001</ele>
        <time>2017-09-19T07:51:59Z</time>
      </trkpt>
      <trkpt lat="37.931688576936722" lon="12.31440338306129">
        <ele>138.09</ele>
        <time>2017-09-19T07:52:04Z</time>
      </trkpt>
      <trkpt lat="37.931621270254254" lon="12.314451830461621">
        <ele>139.05000000000001</ele>
        <time>2017-09-19T07:52:16Z</time>
      </trkpt>
      <trkpt lat="37.931600231677294" lon="12.314511677250266">
        <ele>140.97</ele>
        <time>2017-09-19T07:52:25Z</time>
      </trkpt>
      <trkpt lat="37.93160492554307" lon="12.314568087458611">
        <ele>141.93000000000001</ele>
        <time>2017-09-19T07:52:36Z</time>
      </trkpt>
      <trkpt lat="37.931578857824206" lon="12.314633717760444">
        <ele>143.84999999999999</ele>
        <time>2017-09-19T07:52:47Z</time>
      </trkpt>
      <trkpt lat="37.931559830904007" lon="12.314739413559437">
        <ele>144.34</ele>
        <time>2017-09-19T07:52:59Z</time>
      </trkpt>
      <trkpt lat="37.931551951915026" lon="12.314770678058267">
        <ele>144.81999999999999</ele>
        <time>2017-09-19T07:53:03Z</time>
      </trkpt>
      <trkpt lat="37.931534433737397" lon="12.314879894256592">
        <ele>145.30000000000001</ele>
        <time>2017-09-19T07:53:13Z</time>
      </trkpt>
      <trkpt lat="37.931497972458601" lon="12.314975280314684">
        <ele>146.25999999999999</ele>
        <time>2017-09-19T07:53:24Z</time>
      </trkpt>
      <trkpt lat="37.931454805657268" lon="12.315055495128036">
        <ele>146.74000000000001</ele>
        <time>2017-09-19T07:53:37Z</time>
      </trkpt>
      <trkpt lat="37.931401245296001" lon="12.315028253942728">
        <ele>148.18000000000001</ele>
        <time>2017-09-19T07:53:48Z</time>
      </trkpt>
      <trkpt lat="37.931383056566119" lon="12.314925156533718">
        <ele>149.62</ele>
        <time>2017-09-19T07:54:00Z</time>
      </trkpt>
      <trkpt lat="37.931350115686655" lon="12.314868243411183">
        <ele>150.09999999999999</ele>
        <time>2017-09-19T07:54:10Z</time>
      </trkpt>
      <trkpt lat="37.931327484548092" lon="12.314820047467947">
        <ele>151.53999999999999</ele>
        <time>2017-09-19T07:54:21Z</time>
      </trkpt>
      <trkpt lat="37.931279707700014" lon="12.314787525683641">
        <ele>152.99000000000001</ele>
        <time>2017-09-19T07:54:33Z</time>
      </trkpt>
      <trkpt lat="37.931234780699015" lon="12.314778305590153">
        <ele>154.91</ele>
        <time>2017-09-19T07:54:44Z</time>
      </trkpt>
      <trkpt lat="37.93122916482389" lon="12.314785933122039">
        <ele>154.91</ele>
        <time>2017-09-19T07:54:45Z</time>
      </trkpt>
      <trkpt lat="37.931131180375814" lon="12.314779730513692">
        <ele>155.87</ele>
        <time>2017-09-19T07:54:58Z</time>
      </trkpt>
      <trkpt lat="37.931056749075651" lon="12.314770258963108">
        <ele>157.31</ele>
        <time>2017-09-19T07:55:10Z</time>
      </trkpt>
      <trkpt lat="37.931034956127405" lon="12.314696498215199">
        <ele>158.75</ele>
        <time>2017-09-19T07:55:20Z</time>
      </trkpt>
      <trkpt lat="37.93101123534143" lon="12.314608655869961">
        <ele>160.19999999999999</ele>
        <time>2017-09-19T07:55:31Z</time>
      </trkpt>
      <trkpt lat="37.930985670536757" lon="12.314603207632899">
        <ele>160.68000000000001</ele>
        <time>2017-09-19T07:55:42Z</time>
      </trkpt>
      <trkpt lat="37.930947197601199" lon="12.314620390534401">
        <ele>161.16</ele>
        <time>2017-09-19T07:55:51Z</time>
      </trkpt>
      <trkpt lat="37.930933116003871" lon="12.314550988376141">
        <ele>163.08000000000001</ele>
        <time>2017-09-19T07:56:01Z</time>
      </trkpt>
      <trkpt lat="37.930908221751451" lon="12.314511174336076">
        <ele>164.03999999999999</ele>
        <time>2017-09-19T07:56:12Z</time>
      </trkpt>
      <trkpt lat="37.930866982787848" lon="12.314522657543421">
        <ele>165</ele>
        <time>2017-09-19T07:56:22Z</time>
      </trkpt>
      <trkpt lat="37.930853655561805" lon="12.31441168114543">
        <ele>166.44999999999999</ele>
        <time>2017-09-19T07:56:34Z</time>
      </trkpt>
      <trkpt lat="37.930833036080003" lon="12.314370106905699">
        <ele>167.41</ele>
        <time>2017-09-19T07:56:46Z</time>
      </trkpt>
      <trkpt lat="37.930811494588852" lon="12.314311098307371">
        <ele>169.33000000000001</ele>
        <time>2017-09-19T07:56:56Z</time>
      </trkpt>
      <trkpt lat="37.930784840136766" lon="12.314228117465973">
        <ele>169.81</ele>
        <time>2017-09-19T07:57:06Z</time>
      </trkpt>
      <trkpt lat="37.930781235918403" lon="12.314166845753789">
        <ele>172.21000000000001</ele>
        <time>2017-09-19T07:57:17Z</time>
      </trkpt>
      <trkpt lat="37.930785259231925" lon="12.314109932631254">
        <ele>173.66</ele>
        <time>2017-09-19T07:57:27Z</time>
      </trkpt>
      <trkpt lat="37.93079037219286" lon="12.313996525481343">
        <ele>174.62</ele>
        <time>2017-09-19T07:57:38Z</time>
      </trkpt>
      <trkpt lat="37.930833790451288" lon="12.313869120553136">
        <ele>175.58000000000001</ele>
        <time>2017-09-19T07:57:50Z</time>
      </trkpt>
      <trkpt lat="37.930842004716396" lon="12.313835173845291">
        <ele>175.58000000000001</ele>
        <time>2017-09-19T07:58:00Z</time>
      </trkpt>
      <trkpt lat="37.930844854563475" lon="12.313844561576843">
        <ele>175.58000000000001</ele>
        <time>2017-09-19T07:58:05Z</time>
      </trkpt>
      <trkpt lat="37.930906461551785" lon="12.313681282103062">
        <ele>176.53999999999999</ele>
        <time>2017-09-19T07:58:17Z</time>
      </trkpt>
      <trkpt lat="37.930925404652953" lon="12.313651358708739">
        <ele>176.53999999999999</ele>
        <time>2017-09-19T07:58:20Z</time>
      </trkpt>
      <trkpt lat="37.93094627559185" lon="12.313619423657656">
        <ele>176.53999999999999</ele>
        <time>2017-09-19T07:58:23Z</time>
      </trkpt>
      <trkpt lat="37.930974774062634" lon="12.31351993046701">
        <ele>177.5</ele>
        <time>2017-09-19T07:58:35Z</time>
      </trkpt>
      <trkpt lat="37.930969158187509" lon="12.31345396488905">
        <ele>178.94</ele>
        <time>2017-09-19T07:58:46Z</time>
      </trkpt>
      <trkpt lat="37.930935798212886" lon="12.313394201919436">
        <ele>180.38</ele>
        <time>2017-09-19T07:58:57Z</time>
      </trkpt>
      <trkpt lat="37.930895984172821" lon="12.313360255211592">
        <ele>181.83000000000001</ele>
        <time>2017-09-19T07:59:08Z</time>
      </trkpt>
      <trkpt lat="37.930904617533088" lon="12.313253134489059">
        <ele>183.27000000000001</ele>
        <time>2017-09-19T07:59:19Z</time>
      </trkpt>
      <trkpt lat="37.930919956415892" lon="12.313163531944156">
        <ele>185.19</ele>
        <time>2017-09-19T07:59:30Z</time>
      </trkpt>
      <trkpt lat="37.930958680808544" lon="12.313045682385564">
        <ele>186.63</ele>
        <time>2017-09-19T07:59:43Z</time>
      </trkpt>
      <trkpt lat="37.930964045226574" lon="12.313039312139153">
        <ele>186.63</ele>
        <time>2017-09-19T07:59:44Z</time>
      </trkpt>
      <trkpt lat="37.930984329432249" lon="12.313009053468704">
        <ele>187.11000000000001</ele>
        <time>2017-09-19T07:59:48Z</time>
      </trkpt>
      <trkpt lat="37.93104593642056" lon="12.312922971323133">
        <ele>188.08000000000001</ele>
        <time>2017-09-19T07:59:59Z</time>
      </trkpt>
      <trkpt lat="37.931098574772477" lon="12.312823142856359">
        <ele>189.03999999999999</ele>
        <time>2017-09-19T08:00:11Z</time>
      </trkpt>
      <trkpt lat="37.931105950847268" lon="12.31272297911346">
        <ele>190</ele>
        <time>2017-09-19T08:00:24Z</time>
      </trkpt>
      <trkpt lat="37.931103184819221" lon="12.312634130939841">
        <ele>191.44</ele>
        <time>2017-09-19T08:00:36Z</time>
      </trkpt>
      <trkpt lat="37.931129839271307" lon="12.312534553930163">
        <ele>192.88</ele>
        <time>2017-09-19T08:00:47Z</time>
      </trkpt>
      <trkpt lat="37.931138724088669" lon="12.312445705756545">
        <ele>194.31999999999999</ele>
        <time>2017-09-19T08:00:58Z</time>
      </trkpt>
      <trkpt lat="37.931137718260288" lon="12.312444699928164">
        <ele>194.80000000000001</ele>
        <time>2017-09-19T08:01:09Z</time>
      </trkpt>
      <trkpt lat="37.931145597249269" lon="12.312429780140519">
        <ele>194.80000000000001</ele>
        <time>2017-09-19T08:01:19Z</time>
      </trkpt>
      <trkpt lat="37.931136963889003" lon="12.312446627765894">
        <ele>194.80000000000001</ele>
        <time>2017-09-19T08:01:34Z</time>
      </trkpt>
      <trkpt lat="37.931148866191506" lon="12.31244495138526">
        <ele>194.80000000000001</ele>
        <time>2017-09-19T08:01:50Z</time>
      </trkpt>
      <trkpt lat="37.931154146790504" lon="12.312429444864392">
        <ele>195.28</ele>
        <time>2017-09-19T08:02:05Z</time>
      </trkpt>
      <trkpt lat="37.931144926697016" lon="12.312446627765894">
        <ele>194.80000000000001</ele>
        <time>2017-09-19T08:02:20Z</time>
      </trkpt>
      <trkpt lat="37.931131767109036" lon="12.312457859516144">
        <ele>195.28</ele>
        <time>2017-09-19T08:02:39Z</time>
      </trkpt>
      <trkpt lat="37.931133443489671" lon="12.312458613887429">
        <ele>195.28</ele>
        <time>2017-09-19T08:02:50Z</time>
      </trkpt>
      <trkpt lat="37.931084493175149" lon="12.312444448471069">
        <ele>195.28</ele>
        <time>2017-09-19T08:02:56Z</time>
      </trkpt>
      <trkpt lat="37.931023053824902" lon="12.31241418980062">
        <ele>195.28</ele>
        <time>2017-09-19T08:03:03Z</time>
      </trkpt>
      <trkpt lat="37.930990196764469" lon="12.312357276678085">
        <ele>196.25</ele>
        <time>2017-09-19T08:03:12Z</time>
      </trkpt>
      <trkpt lat="37.930988436564803" lon="12.31239759363234">
        <ele>196.25</ele>
        <time>2017-09-19T08:03:38Z</time>
      </trkpt>
      <trkpt lat="37.93104694224894" lon="12.312421146780252">
        <ele>195.77000000000001</ele>
        <time>2017-09-19T08:03:49Z</time>
      </trkpt>
      <trkpt lat="37.93110997416079" lon="12.31242349371314">
        <ele>195.77000000000001</ele>
        <time>2017-09-19T08:04:07Z</time>
      </trkpt>
      <trkpt lat="37.931101759895682" lon="12.312437491491437">
        <ele>195.77000000000001</ele>
        <time>2017-09-19T08:04:17Z</time>
      </trkpt>
      <trkpt lat="37.931110812351108" lon="12.312437826767564">
        <ele>195.28</ele>
        <time>2017-09-19T08:04:31Z</time>
      </trkpt>
      <trkpt lat="37.931118356063962" lon="12.312433551996946">
        <ele>195.77000000000001</ele>
        <time>2017-09-19T08:04:46Z</time>
      </trkpt>
      <trkpt lat="37.931120619177818" lon="12.312431037425995">
        <ele>195.77000000000001</ele>
        <time>2017-09-19T08:05:03Z</time>
      </trkpt>
      <trkpt lat="37.93112556450069" lon="12.312439419329166">
        <ele>195.28</ele>
        <time>2017-09-19T08:05:22Z</time>
      </trkpt>
      <trkpt lat="37.931133778765798" lon="12.312446627765894">
        <ele>195.28</ele>
        <time>2017-09-19T08:05:39Z</time>
      </trkpt>
      <trkpt lat="37.931137969717383" lon="12.312442688271403">
        <ele>195.77000000000001</ele>
        <time>2017-09-19T08:05:58Z</time>
      </trkpt>
      <trkpt lat="37.93112363666296" lon="12.312439670786262">
        <ele>195.77000000000001</ele>
        <time>2017-09-19T08:06:11Z</time>
      </trkpt>
      <trkpt lat="37.93113587424159" lon="12.312432043254375">
        <ele>195.28</ele>
        <time>2017-09-19T08:06:37Z</time>
      </trkpt>
      <trkpt lat="37.931135119870305" lon="12.312425840646029">
        <ele>195.28</ele>
        <time>2017-09-19T08:06:54Z</time>
      </trkpt>
      <trkpt lat="37.931122044101357" lon="12.312437240034342">
        <ele>195.77000000000001</ele>
        <time>2017-09-19T08:07:09Z</time>
      </trkpt>
      <trkpt lat="37.931046020239592" lon="12.312430702149868">
        <ele>196.25</ele>
        <time>2017-09-19T08:07:22Z</time>
      </trkpt>
      <trkpt lat="37.930986760184169" lon="12.312369430437684">
        <ele>197.21000000000001</ele>
        <time>2017-09-19T08:07:35Z</time>
      </trkpt>
      <trkpt lat="37.930954489856958" lon="12.312267841771245">
        <ele>198.65000000000001</ele>
        <time>2017-09-19T08:07:46Z</time>
      </trkpt>
      <trkpt lat="37.930944096297026" lon="12.312159882858396">
        <ele>200.09</ele>
        <time>2017-09-19T08:07:58Z</time>
      </trkpt>
      <trkpt lat="37.93096630834043" lon="12.312071872875094">
        <ele>201.05000000000001</ele>
        <time>2017-09-19T08:08:10Z</time>
      </trkpt>
      <trkpt lat="37.930922973901033" lon="12.311980174854398">
        <ele>202.00999999999999</ele>
        <time>2017-09-19T08:08:22Z</time>
      </trkpt>
      <trkpt lat="37.930930433794856" lon="12.311855368316174">
        <ele>203.94</ele>
        <time>2017-09-19T08:08:35Z</time>
      </trkpt>
      <trkpt lat="37.930915262550116" lon="12.311738105490804">
        <ele>205.86000000000001</ele>
        <time>2017-09-19T08:08:49Z</time>
      </trkpt>
      <trkpt lat="37.930931942537427" lon="12.311660321429372">
        <ele>206.81999999999999</ele>
        <time>2017-09-19T08:09:00Z</time>
      </trkpt>
      <trkpt lat="37.930966727435589" lon="12.311626290902495">
        <ele>207.30000000000001</ele>
        <time>2017-09-19T08:09:09Z</time>
      </trkpt>
      <trkpt lat="37.930944096297026" lon="12.311555631458759">
        <ele>208.74000000000001</ele>
        <time>2017-09-19T08:09:21Z</time>
      </trkpt>
      <trkpt lat="37.930908808484674" lon="12.311465945094824">
        <ele>209.69999999999999</ele>
        <time>2017-09-19T08:09:33Z</time>
      </trkpt>
      <trkpt lat="37.930861953645945" lon="12.311353124678135">
        <ele>210.66999999999999</ele>
        <time>2017-09-19T08:09:46Z</time>
      </trkpt>
      <trkpt lat="37.930825995281339" lon="12.311226557940245">
        <ele>213.06999999999999</ele>
        <time>2017-09-19T08:10:01Z</time>
      </trkpt>
      <trkpt lat="37.930792635306716" lon="12.311104433611035">
        <ele>214.50999999999999</ele>
        <time>2017-09-19T08:10:14Z</time>
      </trkpt>
      <trkpt lat="37.930771093815565" lon="12.310989601537585">
        <ele>216.91</ele>
        <time>2017-09-19T08:10:28Z</time>
      </trkpt>
      <trkpt lat="37.930741673335433" lon="12.310890695080161">
        <ele>218.36000000000001</ele>
        <time>2017-09-19T08:10:40Z</time>
      </trkpt>
      <trkpt lat="37.930714013054967" lon="12.310789441689849">
        <ele>219.31999999999999</ele>
        <time>2017-09-19T08:10:50Z</time>
      </trkpt>
      <trkpt lat="37.930708397179842" lon="12.310681231319904">
        <ele>220.75999999999999</ele>
        <time>2017-09-19T08:11:01Z</time>
      </trkpt>
      <trkpt lat="37.93069121427834" lon="12.310579642653465">
        <ele>221.72</ele>
        <time>2017-09-19T08:11:11Z</time>
      </trkpt>
      <trkpt lat="37.930691298097372" lon="12.310489872470498">
        <ele>222.68000000000001</ele>
        <time>2017-09-19T08:11:21Z</time>
      </trkpt>
      <trkpt lat="37.930666236206889" lon="12.310399767011404">
        <ele>223.16</ele>
        <time>2017-09-19T08:11:32Z</time>
      </trkpt>
      <trkpt lat="37.930608987808228" lon="12.310329023748636">
        <ele>224.61000000000001</ele>
        <time>2017-09-19T08:11:43Z</time>
      </trkpt>
      <trkpt lat="37.930526593700051" lon="12.310251574963331">
        <ele>225.09</ele>
        <time>2017-09-19T08:11:56Z</time>
      </trkpt>
      <trkpt lat="37.930515529587865" lon="12.31015719473362">
        <ele>226.05000000000001</ele>
        <time>2017-09-19T08:12:06Z</time>
      </trkpt>
      <trkpt lat="37.930505471304059" lon="12.310107070952654">
        <ele>227.00999999999999</ele>
        <time>2017-09-19T08:12:14Z</time>
      </trkpt>
      <trkpt lat="37.930399775505066" lon="12.310137078166008">
        <ele>227.49000000000001</ele>
        <time>2017-09-19T08:12:26Z</time>
      </trkpt>
      <trkpt lat="37.93033548630774" lon="12.310079745948315">
        <ele>227.00999999999999</ele>
        <time>2017-09-19T08:12:40Z</time>
      </trkpt>
      <trkpt lat="37.93032081797719" lon="12.310021072626114">
        <ele>227.49000000000001</ele>
        <time>2017-09-19T08:12:47Z</time>
      </trkpt>
      <trkpt lat="37.930315705016255" lon="12.309911521151662">
        <ele>227.97</ele>
        <time>2017-09-19T08:12:57Z</time>
      </trkpt>
      <trkpt lat="37.930299444124103" lon="12.309813033789396">
        <ele>228.44999999999999</ele>
        <time>2017-09-19T08:13:08Z</time>
      </trkpt>
      <trkpt lat="37.930259043350816" lon="12.30973650701344">
        <ele>229.41</ele>
        <time>2017-09-19T08:13:19Z</time>
      </trkpt>
      <trkpt lat="37.930224929004908" lon="12.309691160917282">
        <ele>229.88999999999999</ele>
        <time>2017-09-19T08:13:29Z</time>
      </trkpt>
      <trkpt lat="37.930181426927447" lon="12.309665344655514">
        <ele>230.37</ele>
        <time>2017-09-19T08:13:40Z</time>
      </trkpt>
      <trkpt lat="37.930139014497399" lon="12.309652017429471">
        <ele>230.84999999999999</ele>
        <time>2017-09-19T08:13:52Z</time>
      </trkpt>
      <trkpt lat="37.930144630372524" lon="12.309642545878887">
        <ele>230.37</ele>
        <time>2017-09-19T08:14:08Z</time>
      </trkpt>
      <trkpt lat="37.930073300376534" lon="12.309647323563695">
        <ele>232.78</ele>
        <time>2017-09-19T08:14:21Z</time>
      </trkpt>
      <trkpt lat="37.930007921531796" lon="12.309615388512611">
        <ele>233.25999999999999</ele>
        <time>2017-09-19T08:14:34Z</time>
      </trkpt>
      <trkpt lat="37.929931813850999" lon="12.309581525623798">
        <ele>234.69999999999999</ele>
        <time>2017-09-19T08:14:46Z</time>
      </trkpt>
      <trkpt lat="37.929864088073373" lon="12.309558056294918">
        <ele>235.66</ele>
        <time>2017-09-19T08:14:58Z</time>
      </trkpt>
      <trkpt lat="37.929809857159853" lon="12.309537688270211">
        <ele>237.09999999999999</ele>
        <time>2017-09-19T08:15:08Z</time>
      </trkpt>
      <trkpt lat="37.929797619581223" lon="12.309532072395086">
        <ele>238.53999999999999</ele>
        <time>2017-09-19T08:15:10Z</time>
      </trkpt>
      <trkpt lat="37.929763421416283" lon="12.309523271396756">
        <ele>238.53999999999999</ele>
        <time>2017-09-19T08:15:21Z</time>
      </trkpt>
      <trkpt lat="37.929719667881727" lon="12.309505753219128">
        <ele>239.02000000000001</ele>
        <time>2017-09-19T08:15:34Z</time>
      </trkpt>
      <trkpt lat="37.929667616263032" lon="12.309466945007443">
        <ele>240.94999999999999</ele>
        <time>2017-09-19T08:15:47Z</time>
      </trkpt>
      <trkpt lat="37.929627215489745" lon="12.309448756277561">
        <ele>242.38999999999999</ele>
        <time>2017-09-19T08:15:56Z</time>
      </trkpt>
      <trkpt lat="37.929580863565207" lon="12.309420425444841">
        <ele>243.83000000000001</ele>
        <time>2017-09-19T08:16:08Z</time>
      </trkpt>
      <trkpt lat="37.929519256576896" lon="12.309384718537331">
        <ele>245.75</ele>
        <time>2017-09-19T08:16:21Z</time>
      </trkpt>
      <trkpt lat="37.929455721750855" lon="12.309396117925644">
        <ele>245.75</ele>
        <time>2017-09-19T08:16:33Z</time>
      </trkpt>
      <trkpt lat="37.929397970438004" lon="12.309477422386408">
        <ele>247.68000000000001</ele>
        <time>2017-09-19T08:16:45Z</time>
      </trkpt>
      <trkpt lat="37.929372237995267" lon="12.309505837038159">
        <ele>248.63999999999999</ele>
        <time>2017-09-19T08:16:50Z</time>
      </trkpt>
      <trkpt lat="37.92929227463901" lon="12.309583369642496">
        <ele>249.59999999999999</ele>
        <time>2017-09-19T08:17:03Z</time>
      </trkpt>
      <trkpt lat="37.929234271869063" lon="12.309643467888236">
        <ele>250.56</ele>
        <time>2017-09-19T08:17:14Z</time>
      </trkpt>
      <trkpt lat="37.929162941873074" lon="12.309649670496583">
        <ele>251.52000000000001</ele>
        <time>2017-09-19T08:17:25Z</time>
      </trkpt>
      <trkpt lat="37.929148273542523" lon="12.309650760143995">
        <ele>252</ele>
        <time>2017-09-19T08:17:28Z</time>
      </trkpt>
      <trkpt lat="37.92907627299428" lon="12.309658052399755">
        <ele>253.44</ele>
        <time>2017-09-19T08:17:38Z</time>
      </trkpt>
      <trkpt lat="37.929010223597288" lon="12.309667859226465">
        <ele>253.93000000000001</ele>
        <time>2017-09-19T08:17:48Z</time>
      </trkpt>
      <trkpt lat="37.928966972976923" lon="12.309671547263861">
        <ele>255.37</ele>
        <time>2017-09-19T08:17:55Z</time>
      </trkpt>
      <trkpt lat="37.928900420665741" lon="12.30965880677104">
        <ele>256.32999999999998</ele>
        <time>2017-09-19T08:18:05Z</time>
      </trkpt>
      <trkpt lat="37.928843088448048" lon="12.30961580760777">
        <ele>256.81</ele>
        <time>2017-09-19T08:18:14Z</time>
      </trkpt>
      <trkpt lat="37.928785923868418" lon="12.309545064345002">
        <ele>257.76999999999998</ele>
        <time>2017-09-19T08:18:24Z</time>
      </trkpt>
      <trkpt lat="37.928774021565914" lon="12.309546153992414">
        <ele>257.76999999999998</ele>
        <time>2017-09-19T08:18:27Z</time>
      </trkpt>
      <trkpt lat="37.928701769560575" lon="12.30956207960844">
        <ele>258.73000000000002</ele>
        <time>2017-09-19T08:18:38Z</time>
      </trkpt>
      <trkpt lat="37.928643682971597" lon="12.309536850079894">
        <ele>260.17000000000002</ele>
        <time>2017-09-19T08:18:48Z</time>
      </trkpt>
      <trkpt lat="37.928608143702149" lon="12.309488235041499">
        <ele>261.13999999999999</ele>
        <time>2017-09-19T08:18:56Z</time>
      </trkpt>
      <trkpt lat="37.928555253893137" lon="12.309476835653186">
        <ele>262.10000000000002</ele>
        <time>2017-09-19T08:19:04Z</time>
      </trkpt>
      <trkpt lat="37.92848794721067" lon="12.309455629438162">
        <ele>263.06</ele>
        <time>2017-09-19T08:19:14Z</time>
      </trkpt>
      <trkpt lat="37.928434973582625" lon="12.309468789026141">
        <ele>264.01999999999998</ele>
        <time>2017-09-19T08:19:23Z</time>
      </trkpt>
      <trkpt lat="37.928369091823697" lon="12.309512961655855">
        <ele>266.42000000000002</ele>
        <time>2017-09-19T08:19:34Z</time>
      </trkpt>
      <trkpt lat="37.928335648030043" lon="12.309565516188741">
        <ele>266.89999999999998</ele>
        <time>2017-09-19T08:19:43Z</time>
      </trkpt>
      <trkpt lat="37.928317291662097" lon="12.309621842578053">
        <ele>266.89999999999998</ele>
        <time>2017-09-19T08:19:53Z</time>
      </trkpt>
      <trkpt lat="37.928302958607674" lon="12.309648580849171">
        <ele>267.38</ele>
        <time>2017-09-19T08:20:09Z</time>
      </trkpt>
      <trkpt lat="37.928293151780963" lon="12.309651933610439">
        <ele>267.38</ele>
        <time>2017-09-19T08:20:27Z</time>
      </trkpt>
      <trkpt lat="37.928232382982969" lon="12.309694681316614">
        <ele>268.35000000000002</ele>
        <time>2017-09-19T08:20:41Z</time>
      </trkpt>
      <trkpt lat="37.928179912269115" lon="12.30973550118506">
        <ele>269.79000000000002</ele>
        <time>2017-09-19T08:20:52Z</time>
      </trkpt>
      <trkpt lat="37.928144540637732" lon="12.309829210862517">
        <ele>270.26999999999998</ele>
        <time>2017-09-19T08:21:05Z</time>
      </trkpt>
      <trkpt lat="37.928140768781304" lon="12.309853434562683">
        <ele>270.75</ele>
        <time>2017-09-19T08:21:08Z</time>
      </trkpt>
      <trkpt lat="37.928118221461773" lon="12.309937672689557">
        <ele>271.23000000000002</ele>
        <time>2017-09-19T08:21:18Z</time>
      </trkpt>
      <trkpt lat="37.928102966398001" lon="12.310024090111256">
        <ele>272.19</ele>
        <time>2017-09-19T08:21:29Z</time>
      </trkpt>
      <trkpt lat="37.928071450442076" lon="12.310088463127613">
        <ele>272.19</ele>
        <time>2017-09-19T08:21:41Z</time>
      </trkpt>
      <trkpt lat="37.928053429350257" lon="12.31018896214664">
        <ele>273.14999999999998</ele>
        <time>2017-09-19T08:21:55Z</time>
      </trkpt>
      <trkpt lat="37.928006825968623" lon="12.310288120061159">
        <ele>274.58999999999997</ele>
        <time>2017-09-19T08:22:06Z</time>
      </trkpt>
      <trkpt lat="37.927969777956605" lon="12.310366407036781">
        <ele>275.56</ele>
        <time>2017-09-19T08:22:17Z</time>
      </trkpt>
      <trkpt lat="37.927940944209695" lon="12.310451567173004">
        <ele>276.04000000000002</ele>
        <time>2017-09-19T08:22:29Z</time>
      </trkpt>
      <trkpt lat="37.927902890369296" lon="12.310543097555637">
        <ele>277.48000000000002</ele>
        <time>2017-09-19T08:22:41Z</time>
      </trkpt>
      <trkpt lat="37.927844552323222" lon="12.310626916587353">
        <ele>278.44</ele>
        <time>2017-09-19T08:22:54Z</time>
      </trkpt>
      <trkpt lat="37.927794428542256" lon="12.310712076723576">
        <ele>279.39999999999998</ele>
        <time>2017-09-19T08:23:07Z</time>
      </trkpt>
      <trkpt lat="37.92774086818099" lon="12.31077334843576">
        <ele>280.83999999999997</ele>
        <time>2017-09-19T08:23:19Z</time>
      </trkpt>
      <trkpt lat="37.927696695551276" lon="12.310825483873487">
        <ele>281.31999999999999</ele>
        <time>2017-09-19T08:23:30Z</time>
      </trkpt>
      <trkpt lat="37.927665011957288" lon="12.310904692858458">
        <ele>282.76999999999998</ele>
        <time>2017-09-19T08:23:42Z</time>
      </trkpt>
      <trkpt lat="37.927659060806036" lon="12.310940567404032">
        <ele>283.25</ele>
        <time>2017-09-19T08:23:46Z</time>
      </trkpt>
      <trkpt lat="37.927625617012382" lon="12.311044335365295">
        <ele>283.73000000000002</ele>
        <time>2017-09-19T08:23:58Z</time>
      </trkpt>
      <trkpt lat="37.927605751901865" lon="12.311065206304193">
        <ele>284.69</ele>
        <time>2017-09-19T08:24:02Z</time>
      </trkpt>
      <trkpt lat="37.927562585100532" lon="12.31108414940536">
        <ele>286.13</ele>
        <time>2017-09-19T08:24:09Z</time>
      </trkpt>
      <trkpt lat="37.927482286468148" lon="12.311098566278815">
        <ele>287.08999999999997</ele>
        <time>2017-09-19T08:24:21Z</time>
      </trkpt>
      <trkpt lat="37.927435096353292" lon="12.311140978708863">
        <ele>287.56999999999999</ele>
        <time>2017-09-19T08:24:32Z</time>
      </trkpt>
      <trkpt lat="37.927422355860472" lon="12.311181463301182">
        <ele>287.56999999999999</ele>
        <time>2017-09-19T08:24:41Z</time>
      </trkpt>
      <trkpt lat="37.927373154088855" lon="12.31122630648315">
        <ele>289.00999999999999</ele>
        <time>2017-09-19T08:24:50Z</time>
      </trkpt>
      <trkpt lat="37.927322862669826" lon="12.311275759711862">
        <ele>290.45999999999998</ele>
        <time>2017-09-19T08:25:00Z</time>
      </trkpt>
      <trkpt lat="37.927271230146289" lon="12.311327056959271">
        <ele>292.38</ele>
        <time>2017-09-19T08:25:11Z</time>
      </trkpt>
      <trkpt lat="37.927307272329926" lon="12.311395537108183">
        <ele>293.81999999999999</ele>
        <time>2017-09-19T08:25:22Z</time>
      </trkpt>
      <trkpt lat="37.927316073328257" lon="12.311444403603673">
        <ele>295.74000000000001</ele>
        <time>2017-09-19T08:25:33Z</time>
      </trkpt>
      <trkpt lat="37.927365778014064" lon="12.311495868489146">
        <ele>297.67000000000002</ele>
        <time>2017-09-19T08:25:45Z</time>
      </trkpt>
      <trkpt lat="37.927426882088184" lon="12.311519840732217">
        <ele>299.11000000000001</ele>
        <time>2017-09-19T08:25:56Z</time>
      </trkpt>
      <trkpt lat="37.927458817139268" lon="12.311558062210679">
        <ele>301.02999999999997</ele>
        <time>2017-09-19T08:26:08Z</time>
      </trkpt>
      <trkpt lat="37.927495110780001" lon="12.311579771339893">
        <ele>301.99000000000001</ele>
        <time>2017-09-19T08:26:14Z</time>
      </trkpt>
      <trkpt lat="37.927541127428412" lon="12.311639953404665">
        <ele>303.43000000000001</ele>
        <time>2017-09-19T08:26:25Z</time>
      </trkpt>
      <trkpt lat="37.927508940920234" lon="12.31166074052453">
        <ele>305.83999999999997</ele>
        <time>2017-09-19T08:26:31Z</time>
      </trkpt>
      <trkpt lat="37.927460493519902" lon="12.311726119369268">
        <ele>307.75999999999999</ele>
        <time>2017-09-19T08:26:44Z</time>
      </trkpt>
      <trkpt lat="37.927476670593023" lon="12.311815973371267">
        <ele>309.19999999999999</ele>
        <time>2017-09-19T08:26:56Z</time>
      </trkpt>
      <trkpt lat="37.927425540983677" lon="12.311835754662752">
        <ele>310.16000000000003</ele>
        <time>2017-09-19T08:27:07Z</time>
      </trkpt>
      <trkpt lat="37.927379691973329" lon="12.31186986900866">
        <ele>311.12</ele>
        <time>2017-09-19T08:27:18Z</time>
      </trkpt>
      <trkpt lat="37.927380781620741" lon="12.311904234811664">
        <ele>314.97000000000003</ele>
        <time>2017-09-19T08:27:24Z</time>
      </trkpt>
      <trkpt lat="37.927383715286851" lon="12.311907503753901">
        <ele>314.49000000000001</ele>
        <time>2017-09-19T08:27:25Z</time>
      </trkpt>
      <trkpt lat="37.927420008927584" lon="12.311994843184948">
        <ele>314.49000000000001</ele>
        <time>2017-09-19T08:27:38Z</time>
      </trkpt>
      <trkpt lat="37.927433252334595" lon="12.312067514285445">
        <ele>316.88999999999999</ele>
        <time>2017-09-19T08:27:49Z</time>
      </trkpt>
      <trkpt lat="37.927389414981008" lon="12.312104478478432">
        <ele>315.44999999999999</ele>
        <time>2017-09-19T08:27:57Z</time>
      </trkpt>
      <trkpt lat="37.927380530163646" lon="12.312143454328179">
        <ele>315.44999999999999</ele>
        <time>2017-09-19T08:28:13Z</time>
      </trkpt>
      <trkpt lat="37.927390756085515" lon="12.312171617522836">
        <ele>314.00999999999999</ele>
        <time>2017-09-19T08:28:23Z</time>
      </trkpt>
      <trkpt lat="37.927448339760303" lon="12.31210489757359">
        <ele>314.49000000000001</ele>
        <time>2017-09-19T08:28:31Z</time>
      </trkpt>
      <trkpt lat="37.927476167678833" lon="12.312087127938867">
        <ele>314.97000000000003</ele>
        <time>2017-09-19T08:28:41Z</time>
      </trkpt>
      <trkpt lat="37.927492847666144" lon="12.312071789056063">
        <ele>314.97000000000003</ele>
        <time>2017-09-19T08:28:52Z</time>
      </trkpt>
      <trkpt lat="37.927493015304208" lon="12.31209509074688">
        <ele>314.00999999999999</ele>
        <time>2017-09-19T08:29:17Z</time>
      </trkpt>
      <trkpt lat="37.927474910393357" lon="12.31206089258194">
        <ele>314.49000000000001</ele>
        <time>2017-09-19T08:29:35Z</time>
      </trkpt>
      <trkpt lat="37.927469629794359" lon="12.312095258384943">
        <ele>314.49000000000001</ele>
        <time>2017-09-19T08:29:48Z</time>
      </trkpt>
      <trkpt lat="37.927481699734926" lon="12.312096850946546">
        <ele>314.49000000000001</ele>
        <time>2017-09-19T08:30:05Z</time>
      </trkpt>
      <trkpt lat="37.927460996434093" lon="12.312095426023006">
        <ele>314.00999999999999</ele>
        <time>2017-09-19T08:30:18Z</time>
      </trkpt>
      <trkpt lat="37.927473736926913" lon="12.312094923108816">
        <ele>314.49000000000001</ele>
        <time>2017-09-19T08:30:35Z</time>
      </trkpt>
      <trkpt lat="37.927460996434093" lon="12.312087714672089">
        <ele>314.00999999999999</ele>
        <time>2017-09-19T08:30:51Z</time>
      </trkpt>
      <trkpt lat="37.927460158243775" lon="12.312061982229352">
        <ele>315.44999999999999</ele>
        <time>2017-09-19T08:31:12Z</time>
      </trkpt>
      <trkpt lat="37.92747306637466" lon="12.312091235071421">
        <ele>315.44999999999999</ele>
        <time>2017-09-19T08:31:26Z</time>
      </trkpt>
      <trkpt lat="37.927441718056798" lon="12.312082350254059">
        <ele>314.97000000000003</ele>
        <time>2017-09-19T08:31:43Z</time>
      </trkpt>
      <trkpt lat="37.927470300346613" lon="12.31209073215723">
        <ele>314.49000000000001</ele>
        <time>2017-09-19T08:31:53Z</time>
      </trkpt>
      <trkpt lat="37.927469629794359" lon="12.312100455164909">
        <ele>314.97000000000003</ele>
        <time>2017-09-19T08:32:07Z</time>
      </trkpt>
      <trkpt lat="37.927477844059467" lon="12.312111184000969">
        <ele>314.97000000000003</ele>
        <time>2017-09-19T08:32:26Z</time>
      </trkpt>
      <trkpt lat="37.92747750878334" lon="12.312102634459734">
        <ele>314.97000000000003</ele>
        <time>2017-09-19T08:32:47Z</time>
      </trkpt>
      <trkpt lat="37.927473736926913" lon="12.312095426023006">
        <ele>314.49000000000001</ele>
        <time>2017-09-19T08:33:16Z</time>
      </trkpt>
      <trkpt lat="37.927473485469818" lon="12.312104143202305">
        <ele>314.97000000000003</ele>
        <time>2017-09-19T08:33:37Z</time>
      </trkpt>
      <trkpt lat="37.927460828796029" lon="12.312084445729852">
        <ele>314.49000000000001</ele>
        <time>2017-09-19T08:33:51Z</time>
      </trkpt>
      <trkpt lat="37.927462086081505" lon="12.312069861218333">
        <ele>314.97000000000003</ele>
        <time>2017-09-19T08:34:08Z</time>
      </trkpt>
      <trkpt lat="37.927462421357632" lon="12.312041278928518">
        <ele>314.49000000000001</ele>
        <time>2017-09-19T08:34:28Z</time>
      </trkpt>
      <trkpt lat="37.927463846281171" lon="12.312091570347548">
        <ele>314.97000000000003</ele>
        <time>2017-09-19T08:34:38Z</time>
      </trkpt>
      <trkpt lat="37.927443310618401" lon="12.312105065211654">
        <ele>314.49000000000001</ele>
        <time>2017-09-19T08:34:46Z</time>
      </trkpt>
      <trkpt lat="37.927425540983677" lon="12.312116045504808">
        <ele>314.49000000000001</ele>
        <time>2017-09-19T08:34:56Z</time>
      </trkpt>
      <trkpt lat="37.927426295354962" lon="12.312108250334859">
        <ele>314.97000000000003</ele>
        <time>2017-09-19T08:35:10Z</time>
      </trkpt>
      <trkpt lat="37.927417745813727" lon="12.312113614752889">
        <ele>314.49000000000001</ele>
        <time>2017-09-19T08:35:21Z</time>
      </trkpt>
      <trkpt lat="37.927418248727918" lon="12.312152087688446">
        <ele>314.97000000000003</ele>
        <time>2017-09-19T08:35:37Z</time>
      </trkpt>
      <trkpt lat="37.927414225414395" lon="12.312134653329849">
        <ele>314.49000000000001</ele>
        <time>2017-09-19T08:35:53Z</time>
      </trkpt>
      <trkpt lat="37.927410285919905" lon="12.312137251719832">
        <ele>314.97000000000003</ele>
        <time>2017-09-19T08:36:14Z</time>
      </trkpt>
      <trkpt lat="37.927417326718569" lon="12.312132641673088">
        <ele>314.97000000000003</ele>
        <time>2017-09-19T08:36:32Z</time>
      </trkpt>
      <trkpt lat="37.927417997270823" lon="12.312132222577929">
        <ele>314.49000000000001</ele>
        <time>2017-09-19T08:36:49Z</time>
      </trkpt>
      <trkpt lat="37.92742520570755" lon="12.312129205092788">
        <ele>314.49000000000001</ele>
        <time>2017-09-19T08:37:05Z</time>
      </trkpt>
      <trkpt lat="37.92742570862174" lon="12.312131803482771">
        <ele>314.97000000000003</ele>
        <time>2017-09-19T08:37:23Z</time>
      </trkpt>
      <trkpt lat="37.927422439679503" lon="12.312151333317161">
        <ele>314.97000000000003</ele>
        <time>2017-09-19T08:37:43Z</time>
      </trkpt>
      <trkpt lat="37.927422858774662" lon="12.312163906171918">
        <ele>315.44999999999999</ele>
        <time>2017-09-19T08:38:01Z</time>
      </trkpt>
      <trkpt lat="37.927421266213059" lon="12.312151836231351">
        <ele>315.93000000000001</ele>
        <time>2017-09-19T08:38:24Z</time>
      </trkpt>
      <trkpt lat="37.92741104029119" lon="12.312164157629013">
        <ele>315.93000000000001</ele>
        <time>2017-09-19T08:38:40Z</time>
      </trkpt>
      <trkpt lat="37.927406849339604" lon="12.31216692365706">
        <ele>315.93000000000001</ele>
        <time>2017-09-19T08:38:57Z</time>
      </trkpt>
      <trkpt lat="37.927403831854463" lon="12.312146639451385">
        <ele>316.88999999999999</ele>
        <time>2017-09-19T08:39:19Z</time>
      </trkpt>
      <trkpt lat="37.927399724721909" lon="12.312152842059731">
        <ele>316.41000000000003</ele>
        <time>2017-09-19T08:39:34Z</time>
      </trkpt>
      <trkpt lat="37.927403748035431" lon="12.312130127102137">
        <ele>316.41000000000003</ele>
        <time>2017-09-19T08:39:55Z</time>
      </trkpt>
      <trkpt lat="37.927392767742276" lon="12.312126439064741">
        <ele>315.93000000000001</ele>
        <time>2017-09-19T08:40:09Z</time>
      </trkpt>
      <trkpt lat="37.927403412759304" lon="12.312137503176928">
        <ele>315.93000000000001</ele>
        <time>2017-09-19T08:40:29Z</time>
      </trkpt>
      <trkpt lat="37.927376423031092" lon="12.312115374952555">
        <ele>315.93000000000001</ele>
        <time>2017-09-19T08:40:53Z</time>
      </trkpt>
      <trkpt lat="37.927392013370991" lon="12.312109507620335">
        <ele>316.41000000000003</ele>
        <time>2017-09-19T08:41:13Z</time>
      </trkpt>
      <trkpt lat="37.927378602325916" lon="12.31212199665606">
        <ele>315.93000000000001</ele>
        <time>2017-09-19T08:41:33Z</time>
      </trkpt>
      <trkpt lat="37.927377680316567" lon="12.312120571732521">
        <ele>309.68000000000001</ele>
        <time>2017-09-19T08:41:53Z</time>
      </trkpt>
      <trkpt lat="37.927375668659806" lon="12.31211956590414">
        <ele>318.81</ele>
        <time>2017-09-19T08:41:54Z</time>
      </trkpt>
      <trkpt lat="37.927374076098204" lon="12.312119146808982">
        <ele>316.88999999999999</ele>
        <time>2017-09-19T08:41:55Z</time>
      </trkpt>
      <trkpt lat="37.927382374182343" lon="12.312118308618665">
        <ele>316.41000000000003</ele>
        <time>2017-09-19T08:42:14Z</time>
      </trkpt>
      <trkpt lat="37.927396455779672" lon="12.312086960300803">
        <ele>316.41000000000003</ele>
        <time>2017-09-19T08:42:30Z</time>
      </trkpt>
      <trkpt lat="37.927415231242776" lon="12.312098443508148">
        <ele>317.85000000000002</ele>
        <time>2017-09-19T08:42:40Z</time>
      </trkpt>
      <trkpt lat="37.92740467004478" lon="12.312112022191286">
        <ele>317.37</ele>
        <time>2017-09-19T08:42:53Z</time>
      </trkpt>
      <trkpt lat="37.927401149645448" lon="12.312112441286445">
        <ele>317.37</ele>
        <time>2017-09-19T08:43:23Z</time>
      </trkpt>
      <trkpt lat="37.927403831854463" lon="12.312118392437696">
        <ele>317.37</ele>
        <time>2017-09-19T08:43:43Z</time>
      </trkpt>
      <trkpt lat="37.927402574568987" lon="12.312113782390952">
        <ele>317.85000000000002</ele>
        <time>2017-09-19T08:44:02Z</time>
      </trkpt>
      <trkpt lat="37.927403161302209" lon="12.312119817361236">
        <ele>318.32999999999998</ele>
        <time>2017-09-19T08:44:20Z</time>
      </trkpt>
      <trkpt lat="37.927398635074496" lon="12.312133563682437">
        <ele>317.37</ele>
        <time>2017-09-19T08:44:43Z</time>
      </trkpt>
      <trkpt lat="37.927391845732927" lon="12.312136413529515">
        <ele>317.37</ele>
        <time>2017-09-19T08:45:07Z</time>
      </trkpt>
      <trkpt lat="37.927387319505215" lon="12.312133647501469">
        <ele>316.88999999999999</ele>
        <time>2017-09-19T08:45:22Z</time>
      </trkpt>
      <trkpt lat="37.92739586904645" lon="12.312109675258398">
        <ele>316.41000000000003</ele>
        <time>2017-09-19T08:45:40Z</time>
      </trkpt>
      <trkpt lat="37.92740223929286" lon="12.31210489757359">
        <ele>315.93000000000001</ele>
        <time>2017-09-19T08:46:01Z</time>
      </trkpt>
      <trkpt lat="37.927406765520573" lon="12.312100622802973">
        <ele>315.93000000000001</ele>
        <time>2017-09-19T08:46:22Z</time>
      </trkpt>
      <trkpt lat="37.92738514021039" lon="12.312108920887113">
        <ele>315.93000000000001</ele>
        <time>2017-09-19T08:46:32Z</time>
      </trkpt>
      <trkpt lat="37.927296040579677" lon="12.312127612531185">
        <ele>315.93000000000001</ele>
        <time>2017-09-19T08:46:42Z</time>
      </trkpt>
      <trkpt lat="37.927286652848125" lon="12.312146471813321">
        <ele>315.93000000000001</ele>
        <time>2017-09-19T08:46:50Z</time>
      </trkpt>
      <trkpt lat="37.927294196560979" lon="12.312133898958564">
        <ele>315.93000000000001</ele>
        <time>2017-09-19T08:46:59Z</time>
      </trkpt>
      <trkpt lat="37.927340799942613" lon="12.312121074646711">
        <ele>315.93000000000001</ele>
        <time>2017-09-19T08:47:12Z</time>
      </trkpt>
      <trkpt lat="37.927346918731928" lon="12.312121158465743">
        <ele>316.88999999999999</ele>
        <time>2017-09-19T08:47:20Z</time>
      </trkpt>
      <trkpt lat="37.927368460223079" lon="12.312144124880433">
        <ele>317.37</ele>
        <time>2017-09-19T08:47:32Z</time>
      </trkpt>
      <trkpt lat="37.927387235686183" lon="12.312118811532855">
        <ele>315.93000000000001</ele>
        <time>2017-09-19T08:47:41Z</time>
      </trkpt>
      <trkpt lat="37.927430486306548" lon="12.312127780169249">
        <ele>315.44999999999999</ele>
        <time>2017-09-19T08:47:54Z</time>
      </trkpt>
      <trkpt lat="37.927408777177334" lon="12.312110178172588">
        <ele>315.93000000000001</ele>
        <time>2017-09-19T08:48:08Z</time>
      </trkpt>
      <trkpt lat="37.927396707236767" lon="12.312072878703475">
        <ele>315.44999999999999</ele>
        <time>2017-09-19T08:48:27Z</time>
      </trkpt>
      <trkpt lat="37.927393354475498" lon="12.312069442123175">
        <ele>315.93000000000001</ele>
        <time>2017-09-19T08:48:41Z</time>
      </trkpt>
      <trkpt lat="37.927408525720239" lon="12.312067849561572">
        <ele>315.93000000000001</ele>
        <time>2017-09-19T08:48:59Z</time>
      </trkpt>
      <trkpt lat="37.927413554862142" lon="12.312076147645712">
        <ele>316.41000000000003</ele>
        <time>2017-09-19T08:49:14Z</time>
      </trkpt>
      <trkpt lat="37.927425960078835" lon="12.312083607539535">
        <ele>316.41000000000003</ele>
        <time>2017-09-19T08:49:27Z</time>
      </trkpt>
      <trkpt lat="37.92739586904645" lon="12.312121661379933">
        <ele>316.41000000000003</ele>
        <time>2017-09-19T08:49:39Z</time>
      </trkpt>
      <trkpt lat="37.927390420809388" lon="12.312118308618665">
        <ele>316.41000000000003</ele>
        <time>2017-09-19T08:49:52Z</time>
      </trkpt>
      <trkpt lat="37.927423864603043" lon="12.31206675991416">
        <ele>317.37</ele>
        <time>2017-09-19T08:50:02Z</time>
      </trkpt>
      <trkpt lat="37.927438616752625" lon="12.312051169574261">
        <ele>320.25999999999999</ele>
        <time>2017-09-19T08:50:08Z</time>
      </trkpt>
      <trkpt lat="37.927447082474828" lon="12.312078159302473">
        <ele>319.30000000000001</ele>
        <time>2017-09-19T08:50:21Z</time>
      </trkpt>
      <trkpt lat="37.927437359467149" lon="12.312090648338199">
        <ele>319.30000000000001</ele>
        <time>2017-09-19T08:50:31Z</time>
      </trkpt>
      <trkpt lat="37.927430402487516" lon="12.312095174565911">
        <ele>319.77999999999997</ele>
        <time>2017-09-19T08:50:46Z</time>
      </trkpt>
      <trkpt lat="37.927430905401707" lon="12.312096683308482">
        <ele>318.81</ele>
        <time>2017-09-19T08:50:59Z</time>
      </trkpt>
      <trkpt lat="37.927433084696531" lon="12.312085451558232">
        <ele>318.32999999999998</ele>
        <time>2017-09-19T08:51:13Z</time>
      </trkpt>
      <trkpt lat="37.927449680864811" lon="12.312070867046714">
        <ele>319.30000000000001</ele>
        <time>2017-09-19T08:51:18Z</time>
      </trkpt>
      <trkpt lat="37.92745060287416" lon="12.312063239514828">
        <ele>317.85000000000002</ele>
        <time>2017-09-19T08:51:21Z</time>
      </trkpt>
      <trkpt lat="37.927453620359302" lon="12.312059048563242">
        <ele>317.37</ele>
        <time>2017-09-19T08:51:35Z</time>
      </trkpt>
      <trkpt lat="37.927451189607382" lon="12.312061311677098">
        <ele>319.77999999999997</ele>
        <time>2017-09-19T08:51:40Z</time>
      </trkpt>
      <trkpt lat="37.927446160465479" lon="12.312106490135193">
        <ele>319.77999999999997</ele>
        <time>2017-09-19T08:51:56Z</time>
      </trkpt>
      <trkpt lat="37.92743400670588" lon="12.312088636681437">
        <ele>319.30000000000001</ele>
        <time>2017-09-19T08:52:13Z</time>
      </trkpt>
      <trkpt lat="37.927447417750955" lon="12.312087379395962">
        <ele>319.30000000000001</ele>
        <time>2017-09-19T08:52:20Z</time>
      </trkpt>
      <trkpt lat="37.927426546812057" lon="12.312093917280436">
        <ele>318.32999999999998</ele>
        <time>2017-09-19T08:52:30Z</time>
      </trkpt>
      <trkpt lat="37.927429312840104" lon="12.312099868431687">
        <ele>318.81</ele>
        <time>2017-09-19T08:52:50Z</time>
      </trkpt>
      <trkpt lat="37.927437527105212" lon="12.31209265999496">
        <ele>317.85000000000002</ele>
        <time>2017-09-19T08:53:06Z</time>
      </trkpt>
      <trkpt lat="37.927437108010054" lon="12.312101209536195">
        <ele>317.37</ele>
        <time>2017-09-19T08:53:23Z</time>
      </trkpt>
      <trkpt lat="37.927440544590354" lon="12.312096264213324">
        <ele>317.37</ele>
        <time>2017-09-19T08:53:37Z</time>
      </trkpt>
      <trkpt lat="37.927428307011724" lon="12.312100790441036">
        <ele>318.32999999999998</ele>
        <time>2017-09-19T08:53:50Z</time>
      </trkpt>
      <trkpt lat="37.927422858774662" lon="12.312114872038364">
        <ele>318.32999999999998</ele>
        <time>2017-09-19T08:54:05Z</time>
      </trkpt>
      <trkpt lat="37.927398970350623" lon="12.312117218971252">
        <ele>317.85000000000002</ele>
        <time>2017-09-19T08:54:20Z</time>
      </trkpt>
      <trkpt lat="37.927389582619071" lon="12.312126606702805">
        <ele>317.85000000000002</ele>
        <time>2017-09-19T08:54:35Z</time>
      </trkpt>
      <trkpt lat="37.927395198494196" lon="12.31214496307075">
        <ele>316.88999999999999</ele>
        <time>2017-09-19T08:54:44Z</time>
      </trkpt>
      <trkpt lat="37.927381200715899" lon="12.31214446015656">
        <ele>316.88999999999999</ele>
        <time>2017-09-19T08:55:04Z</time>
      </trkpt>
      <trkpt lat="37.927360748872161" lon="12.312152506783605">
        <ele>316.88999999999999</ele>
        <time>2017-09-19T08:55:20Z</time>
      </trkpt>
      <trkpt lat="37.927354378625751" lon="12.312152255326509">
        <ele>317.37</ele>
        <time>2017-09-19T08:55:37Z</time>
      </trkpt>
      <trkpt lat="37.927309535443783" lon="12.312144795432687">
        <ele>317.85000000000002</ele>
        <time>2017-09-19T08:55:48Z</time>
      </trkpt>
      <trkpt lat="37.927262848243117" lon="12.312151752412319">
        <ele>317.85000000000002</ele>
        <time>2017-09-19T08:55:58Z</time>
      </trkpt>
      <trkpt lat="37.927248263731599" lon="12.31216256506741">
        <ele>317.85000000000002</ele>
        <time>2017-09-19T08:56:10Z</time>
      </trkpt>
      <trkpt lat="37.927223201841116" lon="12.312175808474422">
        <ele>317.85000000000002</ele>
        <time>2017-09-19T08:56:22Z</time>
      </trkpt>
      <trkpt lat="37.92722194455564" lon="12.312161643058062">
        <ele>318.81</ele>
        <time>2017-09-19T08:56:29Z</time>
      </trkpt>
      <trkpt lat="37.927218675613403" lon="12.312163822352886">
        <ele>318.81</ele>
        <time>2017-09-19T08:56:42Z</time>
      </trkpt>
      <trkpt lat="37.927202666178346" lon="12.312185615301132">
        <ele>319.30000000000001</ele>
        <time>2017-09-19T08:57:06Z</time>
      </trkpt>
      <trkpt lat="37.927211970090866" lon="12.312190309166908">
        <ele>319.30000000000001</ele>
        <time>2017-09-19T08:57:28Z</time>
      </trkpt>
      <trkpt lat="37.927217585965991" lon="12.312168264761567">
        <ele>319.77999999999997</ele>
        <time>2017-09-19T08:57:46Z</time>
      </trkpt>
      <trkpt lat="37.927208868786693" lon="12.312153596431017">
        <ele>319.77999999999997</ele>
        <time>2017-09-19T08:58:02Z</time>
      </trkpt>
      <trkpt lat="37.927271900698543" lon="12.312164325267076">
        <ele>318.32999999999998</ele>
        <time>2017-09-19T08:58:11Z</time>
      </trkpt>
      <trkpt lat="37.927309703081846" lon="12.312226518988609">
        <ele>318.32999999999998</ele>
        <time>2017-09-19T08:58:22Z</time>
      </trkpt>
      <trkpt lat="37.927295621484518" lon="12.312214868143201">
        <ele>317.37</ele>
        <time>2017-09-19T08:58:32Z</time>
      </trkpt>
      <trkpt lat="37.927261842414737" lon="12.312218807637691">
        <ele>316.88999999999999</ele>
        <time>2017-09-19T08:58:38Z</time>
      </trkpt>
      <trkpt lat="37.927218843251467" lon="12.312230290845037">
        <ele>315.93000000000001</ele>
        <time>2017-09-19T08:58:44Z</time>
      </trkpt>
      <trkpt lat="37.927166037261486" lon="12.312258621677756">
        <ele>314.49000000000001</ele>
        <time>2017-09-19T08:58:55Z</time>
      </trkpt>
      <trkpt lat="37.927100071683526" lon="12.31228812597692">
        <ele>313.52999999999997</ele>
        <time>2017-09-19T08:59:05Z</time>
      </trkpt>
      <trkpt lat="37.927042990922928" lon="12.312335064634681">
        <ele>312.56999999999999</ele>
        <time>2017-09-19T08:59:14Z</time>
      </trkpt>
      <trkpt lat="37.92698004283011" lon="12.312379153445363">
        <ele>311.12</ele>
        <time>2017-09-19T08:59:26Z</time>
      </trkpt>
      <trkpt lat="37.926960932090878" lon="12.312404215335846">
        <ele>309.68000000000001</ele>
        <time>2017-09-19T08:59:35Z</time>
      </trkpt>
      <trkpt lat="37.926977863535285" lon="12.312419973313808">
        <ele>309.19999999999999</ele>
        <time>2017-09-19T08:59:38Z</time>
      </trkpt>
      <trkpt lat="37.927026897668839" lon="12.312409747391939">
        <ele>307.27999999999997</ele>
        <time>2017-09-19T08:59:46Z</time>
      </trkpt>
      <trkpt lat="37.927130749449134" lon="12.312396420165896">
        <ele>305.36000000000001</ele>
        <time>2017-09-19T09:00:01Z</time>
      </trkpt>
      <trkpt lat="37.927167294546962" lon="12.312390133738518">
        <ele>304.38999999999999</ele>
        <time>2017-09-19T09:00:05Z</time>
      </trkpt>
      <trkpt lat="37.927268715575337" lon="12.312391642481089">
        <ele>302.47000000000003</ele>
        <time>2017-09-19T09:00:17Z</time>
      </trkpt>
      <trkpt lat="37.927357396110892" lon="12.312401616945863">
        <ele>300.55000000000001</ele>
        <time>2017-09-19T09:00:29Z</time>
      </trkpt>
      <trkpt lat="37.927421852946281" lon="12.312407316640019">
        <ele>299.58999999999997</ele>
        <time>2017-09-19T09:00:38Z</time>
      </trkpt>
      <trkpt lat="37.927554119378328" lon="12.312411842867732">
        <ele>297.67000000000002</ele>
        <time>2017-09-19T09:00:50Z</time>
      </trkpt>
      <trkpt lat="37.927651265636086" lon="12.312430953606963">
        <ele>295.74000000000001</ele>
        <time>2017-09-19T09:00:59Z</time>
      </trkpt>
      <trkpt lat="37.927662329748273" lon="12.312485100701451">
        <ele>294.77999999999997</ele>
        <time>2017-09-19T09:01:04Z</time>
      </trkpt>
      <trkpt lat="37.927526542916894" lon="12.312591215595603">
        <ele>291.89999999999998</ele>
        <time>2017-09-19T09:01:17Z</time>
      </trkpt>
      <trkpt lat="37.927420176565647" lon="12.31266631744802">
        <ele>290.45999999999998</ele>
        <time>2017-09-19T09:01:28Z</time>
      </trkpt>
      <trkpt lat="37.927268883213401" lon="12.312756171450019">
        <ele>287.08999999999997</ele>
        <time>2017-09-19T09:01:42Z</time>
      </trkpt>
      <trkpt lat="37.927238205447793" lon="12.312773102894425">
        <ele>287.08999999999997</ele>
        <time>2017-09-19T09:01:45Z</time>
      </trkpt>
      <trkpt lat="37.927212975919247" lon="12.312835045158863">
        <ele>285.17000000000002</ele>
        <time>2017-09-19T09:01:55Z</time>
      </trkpt>
      <trkpt lat="37.927241139113903" lon="12.312848623842001">
        <ele>284.20999999999998</ele>
        <time>2017-09-19T09:01:58Z</time>
      </trkpt>
      <trkpt lat="37.927277768030763" lon="12.312850300222635">
        <ele>283.25</ele>
        <time>2017-09-19T09:02:02Z</time>
      </trkpt>
      <trkpt lat="37.927413722500205" lon="12.312845271080732">
        <ele>279.88</ele>
        <time>2017-09-19T09:02:15Z</time>
      </trkpt>
      <trkpt lat="37.927549341693521" lon="12.31285491026938">
        <ele>277</ele>
        <time>2017-09-19T09:02:27Z</time>
      </trkpt>
      <trkpt lat="37.927691247314215" lon="12.31288131326437">
        <ele>275.06999999999999</ele>
        <time>2017-09-19T09:02:40Z</time>
      </trkpt>
      <trkpt lat="37.927818903699517" lon="12.312886342406273">
        <ele>272.67000000000002</ele>
        <time>2017-09-19T09:02:52Z</time>
      </trkpt>
      <trkpt lat="37.92797883041203" lon="12.312889359891415">
        <ele>269.31</ele>
        <time>2017-09-19T09:03:07Z</time>
      </trkpt>
      <trkpt lat="37.928108414635062" lon="12.312881229445338">
        <ele>267.38</ele>
        <time>2017-09-19T09:03:20Z</time>
      </trkpt>
      <trkpt lat="37.928169267252088" lon="12.312882905825973">
        <ele>265.94</ele>
        <time>2017-09-19T09:03:25Z</time>
      </trkpt>
      <trkpt lat="37.928223330527544" lon="12.312893383204937">
        <ele>264.5</ele>
        <time>2017-09-19T09:03:31Z</time>
      </trkpt>
      <trkpt lat="37.928226850926876" lon="12.31294727884233">
        <ele>265.94</ele>
        <time>2017-09-19T09:03:34Z</time>
      </trkpt>
      <trkpt lat="37.928210506215692" lon="12.312980219721794">
        <ele>264.98000000000002</ele>
        <time>2017-09-19T09:03:36Z</time>
      </trkpt>
      <trkpt lat="37.928108749911189" lon="12.313083820044994">
        <ele>263.06</ele>
        <time>2017-09-19T09:03:47Z</time>
      </trkpt>
      <trkpt lat="37.928098356351256" lon="12.313087256625295">
        <ele>262.57999999999998</ele>
        <time>2017-09-19T09:03:48Z</time>
      </trkpt>
      <trkpt lat="37.927963323891163" lon="12.313158502802253">
        <ele>261.13999999999999</ele>
        <time>2017-09-19T09:04:01Z</time>
      </trkpt>
      <trkpt lat="37.927819155156612" lon="12.313264701515436">
        <ele>259.20999999999998</ele>
        <time>2017-09-19T09:04:15Z</time>
      </trkpt>
      <trkpt lat="37.927684625610709" lon="12.313336534425616">
        <ele>257.29000000000002</ele>
        <time>2017-09-19T09:04:28Z</time>
      </trkpt>
      <trkpt lat="37.927554622292519" lon="12.313372325152159">
        <ele>255.37</ele>
        <time>2017-09-19T09:04:40Z</time>
      </trkpt>
      <trkpt lat="37.927423780784011" lon="12.313418928533792">
        <ele>252.47999999999999</ele>
        <time>2017-09-19T09:04:52Z</time>
      </trkpt>
      <trkpt lat="37.927275169640779" lon="12.313461089506745">
        <ele>249.59999999999999</ele>
        <time>2017-09-19T09:05:06Z</time>
      </trkpt>
      <trkpt lat="37.927142903208733" lon="12.313491767272353">
        <ele>246.72</ele>
        <time>2017-09-19T09:05:18Z</time>
      </trkpt>
      <trkpt lat="37.927012396976352" lon="12.313531497493386">
        <ele>244.31</ele>
        <time>2017-09-19T09:05:30Z</time>
      </trkpt>
      <trkpt lat="37.926910556852818" lon="12.313560079783201">
        <ele>241.91</ele>
        <time>2017-09-19T09:05:40Z</time>
      </trkpt>
      <trkpt lat="37.926902091130614" lon="12.313562678173184">
        <ele>241.91</ele>
        <time>2017-09-19T09:05:41Z</time>
      </trkpt>
      <trkpt lat="37.926753982901573" lon="12.313614143058658">
        <ele>238.53999999999999</ele>
        <time>2017-09-19T09:05:55Z</time>
      </trkpt>
      <trkpt lat="37.926744511350989" lon="12.313618753105402">
        <ele>238.53999999999999</ele>
        <time>2017-09-19T09:05:56Z</time>
      </trkpt>
      <trkpt lat="37.926622806116939" lon="12.31365479528904">
        <ele>236.62</ele>
        <time>2017-09-19T09:06:08Z</time>
      </trkpt>
      <trkpt lat="37.926492551341653" lon="12.313643898814917">
        <ele>234.22</ele>
        <time>2017-09-19T09:06:20Z</time>
      </trkpt>
      <trkpt lat="37.926414348185062" lon="12.31360106728971">
        <ele>231.81</ele>
        <time>2017-09-19T09:06:28Z</time>
      </trkpt>
      <trkpt lat="37.926264898851514" lon="12.313523953780532">
        <ele>229.41</ele>
        <time>2017-09-19T09:06:43Z</time>
      </trkpt>
      <trkpt lat="37.926163896918297" lon="12.313439631834626">
        <ele>227.00999999999999</ele>
        <time>2017-09-19T09:06:55Z</time>
      </trkpt>
      <trkpt lat="37.926137410104275" lon="12.313418006524444">
        <ele>226.05000000000001</ele>
        <time>2017-09-19T09:07:02Z</time>
      </trkpt>
      <trkpt lat="37.926203878596425" lon="12.313565947115421">
        <ele>223.16</ele>
        <time>2017-09-19T09:07:16Z</time>
      </trkpt>
      <trkpt lat="37.926263641566038" lon="12.313715228810906">
        <ele>221.24000000000001</ele>
        <time>2017-09-19T09:07:29Z</time>
      </trkpt>
      <trkpt lat="37.926338072866201" lon="12.313871635124087">
        <ele>217.88</ele>
        <time>2017-09-19T09:07:42Z</time>
      </trkpt>
      <trkpt lat="37.926405631005764" lon="12.313986048102379">
        <ele>215.94999999999999</ele>
        <time>2017-09-19T09:07:53Z</time>
      </trkpt>
      <trkpt lat="37.926488863304257" lon="12.314032986760139">
        <ele>214.03</ele>
        <time>2017-09-19T09:08:01Z</time>
      </trkpt>
      <trkpt lat="37.926613334566355" lon="12.31410046108067">
        <ele>211.63</ele>
        <time>2017-09-19T09:08:14Z</time>
      </trkpt>
      <trkpt lat="37.926723975688219" lon="12.314165839925408">
        <ele>208.74000000000001</ele>
        <time>2017-09-19T09:08:27Z</time>
      </trkpt>
      <trkpt lat="37.92682271450758" lon="12.314224932342768">
        <ele>206.34</ele>
        <time>2017-09-19T09:08:38Z</time>
      </trkpt>
      <trkpt lat="37.926972080022097" lon="12.314303806051612">
        <ele>202.97999999999999</ele>
        <time>2017-09-19T09:08:51Z</time>
      </trkpt>
      <trkpt lat="37.927093701437116" lon="12.314370861276984">
        <ele>200.56999999999999</ele>
        <time>2017-09-19T09:09:03Z</time>
      </trkpt>
      <trkpt lat="37.927223704755306" lon="12.314445208758116">
        <ele>198.16999999999999</ele>
        <time>2017-09-19T09:09:16Z</time>
      </trkpt>
      <trkpt lat="37.927356977015734" lon="12.314524166285992">
        <ele>195.28</ele>
        <time>2017-09-19T09:09:30Z</time>
      </trkpt>
      <trkpt lat="37.927534002810717" lon="12.31459247879684">
        <ele>192.88</ele>
        <time>2017-09-19T09:09:47Z</time>
      </trkpt>
      <trkpt lat="37.927676495164633" lon="12.314648386090994">
        <ele>190</ele>
        <time>2017-09-19T09:09:59Z</time>
      </trkpt>
      <trkpt lat="37.927823010832071" lon="12.31469557620585">
        <ele>187.11000000000001</ele>
        <time>2017-09-19T09:10:13Z</time>
      </trkpt>
      <trkpt lat="37.927900124341249" lon="12.314747292548418">
        <ele>185.19</ele>
        <time>2017-09-19T09:10:21Z</time>
      </trkpt>
      <trkpt lat="37.92789182625711" lon="12.314776629209518">
        <ele>184.71000000000001</ele>
        <time>2017-09-19T09:10:24Z</time>
      </trkpt>
      <trkpt lat="37.927770623937249" lon="12.3148363083601">
        <ele>181.34999999999999</ele>
        <time>2017-09-19T09:10:36Z</time>
      </trkpt>
      <trkpt lat="37.92775159701705" lon="12.314878385514021">
        <ele>179.90000000000001</ele>
        <time>2017-09-19T09:10:41Z</time>
      </trkpt>
      <trkpt lat="37.927781520411372" lon="12.314911829307675">
        <ele>178.46000000000001</ele>
        <time>2017-09-19T09:10:46Z</time>
      </trkpt>
      <trkpt lat="37.927873721346259" lon="12.314989781007171">
        <ele>174.62</ele>
        <time>2017-09-19T09:10:57Z</time>
      </trkpt>
      <trkpt lat="37.927968855947256" lon="12.315076449885964">
        <ele>171.72999999999999</ele>
        <time>2017-09-19T09:11:08Z</time>
      </trkpt>
      <trkpt lat="37.928030546754599" lon="12.315119029954076">
        <ele>169.33000000000001</ele>
        <time>2017-09-19T09:11:16Z</time>
      </trkpt>
      <trkpt lat="37.928124088793993" lon="12.315219109877944">
        <ele>165.47999999999999</ele>
        <time>2017-09-19T09:11:29Z</time>
      </trkpt>
      <trkpt lat="37.928215702995658" lon="12.315290775150061">
        <ele>162.59999999999999</ele>
        <time>2017-09-19T09:11:40Z</time>
      </trkpt>
      <trkpt lat="37.928272783756256" lon="12.315330170094967">
        <ele>160.19999999999999</ele>
        <time>2017-09-19T09:11:47Z</time>
      </trkpt>
      <trkpt lat="37.928363475948572" lon="12.315428489819169">
        <ele>156.83000000000001</ele>
        <time>2017-09-19T09:11:59Z</time>
      </trkpt>
      <trkpt lat="37.928378479555249" lon="12.315438380464911">
        <ele>156.34999999999999</ele>
        <time>2017-09-19T09:12:01Z</time>
      </trkpt>
      <trkpt lat="37.928450983017683" lon="12.315508117899299">
        <ele>153.47</ele>
        <time>2017-09-19T09:12:10Z</time>
      </trkpt>
      <trkpt lat="37.928553661331534" lon="12.315594032406807">
        <ele>150.09999999999999</ele>
        <time>2017-09-19T09:12:23Z</time>
      </trkpt>
      <trkpt lat="37.928583584725857" lon="12.315604593604803">
        <ele>149.13999999999999</ele>
        <time>2017-09-19T09:12:27Z</time>
      </trkpt>
      <trkpt lat="37.928581321612" lon="12.31563376262784">
        <ele>148.66</ele>
        <time>2017-09-19T09:12:29Z</time>
      </trkpt>
      <trkpt lat="37.928554164245725" lon="12.315697381272912">
        <ele>146.74000000000001</ele>
        <time>2017-09-19T09:12:36Z</time>
      </trkpt>
      <trkpt lat="37.928675869479775" lon="12.315739374607801">
        <ele>143.84999999999999</ele>
        <time>2017-09-19T09:12:49Z</time>
      </trkpt>
      <trkpt lat="37.928629936650395" lon="12.31578916311264">
        <ele>142.41</ele>
        <time>2017-09-19T09:12:54Z</time>
      </trkpt>
      <trkpt lat="37.928606886416674" lon="12.315849596634507">
        <ele>139.53</ele>
        <time>2017-09-19T09:13:05Z</time>
      </trkpt>
      <trkpt lat="37.92862381786108" lon="12.315853284671903">
        <ele>139.05000000000001</ele>
        <time>2017-09-19T09:13:07Z</time>
      </trkpt>
      <trkpt lat="37.928780307993293" lon="12.315916903316975">
        <ele>135.68000000000001</ele>
        <time>2017-09-19T09:13:22Z</time>
      </trkpt>
      <trkpt lat="37.928877621889114" lon="12.315967613831162">
        <ele>133.75999999999999</ele>
        <time>2017-09-19T09:13:33Z</time>
      </trkpt>
      <trkpt lat="37.928910562768579" lon="12.316005835309625">
        <ele>133.28</ele>
        <time>2017-09-19T09:13:38Z</time>
      </trkpt>
      <trkpt lat="37.928885165601969" lon="12.316036596894264">
        <ele>132.80000000000001</ele>
        <time>2017-09-19T09:13:41Z</time>
      </trkpt>
      <trkpt lat="37.928777290508151" lon="12.316108513623476">
        <ele>129.43000000000001</ele>
        <time>2017-09-19T09:13:53Z</time>
      </trkpt>
      <trkpt lat="37.928676456212997" lon="12.316203061491251">
        <ele>126.55</ele>
        <time>2017-09-19T09:14:05Z</time>
      </trkpt>
      <trkpt lat="37.928611245006323" lon="12.316266931593418">
        <ele>124.15000000000001</ele>
        <time>2017-09-19T09:14:13Z</time>
      </trkpt>
      <trkpt lat="37.928498340770602" lon="12.316360222175717">
        <ele>120.78</ele>
        <time>2017-09-19T09:14:25Z</time>
      </trkpt>
      <trkpt lat="37.928428268060088" lon="12.316442281007767">
        <ele>118.38</ele>
        <time>2017-09-19T09:14:33Z</time>
      </trkpt>
      <trkpt lat="37.928331876173615" lon="12.316540349274874">
        <ele>115.5</ele>
        <time>2017-09-19T09:14:45Z</time>
      </trkpt>
      <trkpt lat="37.92821628972888" lon="12.316639674827456">
        <ele>112.13</ele>
        <time>2017-09-19T09:14:56Z</time>
      </trkpt>
      <trkpt lat="37.928124759346247" lon="12.316746627911925">
        <ele>109.25</ele>
        <time>2017-09-19T09:15:07Z</time>
      </trkpt>
      <trkpt lat="37.928015543147922" lon="12.316847462207079">
        <ele>105.88</ele>
        <time>2017-09-19T09:15:19Z</time>
      </trkpt>
      <trkpt lat="37.927933735772967" lon="12.316945865750313">
        <ele>103.48</ele>
        <time>2017-09-19T09:15:30Z</time>
      </trkpt>
      <trkpt lat="37.927896101027727" lon="12.317041419446468">
        <ele>100.59999999999999</ele>
        <time>2017-09-19T09:15:42Z</time>
      </trkpt>
      <trkpt lat="37.927994336932898" lon="12.317097326740623">
        <ele>97.230000000000004</ele>
        <time>2017-09-19T09:15:52Z</time>
      </trkpt>
      <trkpt lat="37.928084693849087" lon="12.317149713635445">
        <ele>94.829999999999998</ele>
        <time>2017-09-19T09:16:02Z</time>
      </trkpt>
      <trkpt lat="37.928180079907179" lon="12.31720419600606">
        <ele>91.939999999999998</ele>
        <time>2017-09-19T09:16:14Z</time>
      </trkpt>
      <trkpt lat="37.928215619176626" lon="12.317226408049464">
        <ele>90.5</ele>
        <time>2017-09-19T09:16:19Z</time>
      </trkpt>
      <trkpt lat="37.928220732137561" lon="12.317355154082179">
        <ele>89.060000000000002</ele>
        <time>2017-09-19T09:16:30Z</time>
      </trkpt>
      <trkpt lat="37.928202459588647" lon="12.317352974787354">
        <ele>89.060000000000002</ele>
        <time>2017-09-19T09:16:42Z</time>
      </trkpt>
      <trkpt lat="37.928197262808681" lon="12.317360853776336">
        <ele>89.060000000000002</ele>
        <time>2017-09-19T09:16:58Z</time>
      </trkpt>
      <trkpt lat="37.928195921704173" lon="12.317354567348957">
        <ele>89.060000000000002</ele>
        <time>2017-09-19T09:17:15Z</time>
      </trkpt>
      <trkpt lat="37.928185611963272" lon="12.317356243729591">
        <ele>89.060000000000002</ele>
        <time>2017-09-19T09:17:31Z</time>
      </trkpt>
      <trkpt lat="37.928171781823039" lon="12.317348113283515">
        <ele>89.540000000000006</ele>
        <time>2017-09-19T09:17:53Z</time>
      </trkpt>
      <trkpt lat="37.928166752681136" lon="12.317325146868825">
        <ele>90.019999999999996</ele>
        <time>2017-09-19T09:18:15Z</time>
      </trkpt>
      <trkpt lat="37.928169937804341" lon="12.317327493801713">
        <ele>90.5</ele>
        <time>2017-09-19T09:18:36Z</time>
      </trkpt>
      <trkpt lat="37.928177062422037" lon="12.317328415811062">
        <ele>89.540000000000006</ele>
        <time>2017-09-19T09:18:57Z</time>
      </trkpt>
      <trkpt lat="37.9281703568995" lon="12.317348951473832">
        <ele>90.019999999999996</ele>
        <time>2017-09-19T09:19:18Z</time>
      </trkpt>
      <trkpt lat="37.928165914490819" lon="12.317349370568991">
        <ele>89.540000000000006</ele>
        <time>2017-09-19T09:19:30Z</time>
      </trkpt>
      <trkpt lat="37.928179996088147" lon="12.317332858219743">
        <ele>89.540000000000006</ele>
        <time>2017-09-19T09:19:47Z</time>
      </trkpt>
      <trkpt lat="37.928177649155259" lon="12.317342329770327">
        <ele>89.540000000000006</ele>
        <time>2017-09-19T09:20:02Z</time>
      </trkpt>
      <trkpt lat="37.928176391869783" lon="12.31733319349587">
        <ele>89.540000000000006</ele>
        <time>2017-09-19T09:20:17Z</time>
      </trkpt>
      <trkpt lat="37.928174547851086" lon="12.317305114120245">
        <ele>89.540000000000006</ele>
        <time>2017-09-19T09:20:39Z</time>
      </trkpt>
      <trkpt lat="37.928167087957263" lon="12.317289775237441">
        <ele>89.540000000000006</ele>
        <time>2017-09-19T09:20:57Z</time>
      </trkpt>
      <trkpt lat="37.928167842328548" lon="12.317319614812732">
        <ele>90.019999999999996</ele>
        <time>2017-09-19T09:21:14Z</time>
      </trkpt>
      <trkpt lat="37.928177313879132" lon="12.317345682531595">
        <ele>90.5</ele>
        <time>2017-09-19T09:21:26Z</time>
      </trkpt>
      <trkpt lat="37.928188713267446" lon="12.317363871261477">
        <ele>90.5</ele>
        <time>2017-09-19T09:21:46Z</time>
      </trkpt>
      <trkpt lat="37.928194915875793" lon="12.317370073869824">
        <ele>90.980000000000004</ele>
        <time>2017-09-19T09:22:06Z</time>
      </trkpt>
      <trkpt lat="37.928171446546912" lon="12.317360350862145">
        <ele>90.980000000000004</ele>
        <time>2017-09-19T09:22:25Z</time>
      </trkpt>
      <trkpt lat="37.928178068250418" lon="12.317367056384683">
        <ele>91.459999999999994</ele>
        <time>2017-09-19T09:22:45Z</time>
      </trkpt>
      <trkpt lat="37.928183851763606" lon="12.317375522106886">
        <ele>91.939999999999998</ele>
        <time>2017-09-19T09:22:58Z</time>
      </trkpt>
      <trkpt lat="37.928175134584308" lon="12.317352723330259">
        <ele>92.420000000000002</ele>
        <time>2017-09-19T09:23:20Z</time>
      </trkpt>
      <trkpt lat="37.928174799308181" lon="12.317347107455134">
        <ele>92.900000000000006</ele>
        <time>2017-09-19T09:23:38Z</time>
      </trkpt>
      <trkpt lat="37.928159795701504" lon="12.317358003929257">
        <ele>92.900000000000006</ele>
        <time>2017-09-19T09:24:00Z</time>
      </trkpt>
      <trkpt lat="37.92816398665309" lon="12.317367140203714">
        <ele>92.900000000000006</ele>
        <time>2017-09-19T09:24:21Z</time>
      </trkpt>
      <trkpt lat="37.928171027451754" lon="12.317362111061811">
        <ele>93.390000000000001</ele>
        <time>2017-09-19T09:24:41Z</time>
      </trkpt>
      <trkpt lat="37.928162142634392" lon="12.317344089969993">
        <ele>94.349999999999994</ele>
        <time>2017-09-19T09:25:08Z</time>
      </trkpt>
      <trkpt lat="37.928174044936895" lon="12.31733906082809">
        <ele>94.829999999999998</ele>
        <time>2017-09-19T09:25:30Z</time>
      </trkpt>
      <trkpt lat="37.928171865642071" lon="12.317343670874834">
        <ele>94.829999999999998</ele>
        <time>2017-09-19T09:25:55Z</time>
      </trkpt>
      <trkpt lat="37.928182426840067" lon="12.31736303307116">
        <ele>94.829999999999998</ele>
        <time>2017-09-19T09:26:16Z</time>
      </trkpt>
      <trkpt lat="37.928159795701504" lon="12.317327745258808">
        <ele>94.349999999999994</ele>
        <time>2017-09-19T09:26:41Z</time>
      </trkpt>
      <trkpt lat="37.928161639720201" lon="12.317346185445786">
        <ele>94.829999999999998</ele>
        <time>2017-09-19T09:27:05Z</time>
      </trkpt>
      <trkpt lat="37.92817865498364" lon="12.317354315891862">
        <ele>94.349999999999994</ele>
        <time>2017-09-19T09:27:27Z</time>
      </trkpt>
      <trkpt lat="37.928192317485809" lon="12.317353645339608">
        <ele>93.870000000000005</ele>
        <time>2017-09-19T09:27:42Z</time>
      </trkpt>
      <trkpt lat="37.928190305829048" lon="12.317343503236771">
        <ele>94.349999999999994</ele>
        <time>2017-09-19T09:28:01Z</time>
      </trkpt>
      <trkpt lat="37.928137416020036" lon="12.317367559298873">
        <ele>93.870000000000005</ele>
        <time>2017-09-19T09:28:11Z</time>
      </trkpt>
      <trkpt lat="37.928069271147251" lon="12.317393543198705">
        <ele>93.390000000000001</ele>
        <time>2017-09-19T09:28:19Z</time>
      </trkpt>
      <trkpt lat="37.927957624197006" lon="12.317434446886182">
        <ele>92.420000000000002</ele>
        <time>2017-09-19T09:28:32Z</time>
      </trkpt>
      <trkpt lat="37.927811443805695" lon="12.31747979298234">
        <ele>91.459999999999994</ele>
        <time>2017-09-19T09:28:48Z</time>
      </trkpt>
      <trkpt lat="37.927693845704198" lon="12.317513152956963">
        <ele>90.980000000000004</ele>
        <time>2017-09-19T09:28:59Z</time>
      </trkpt>
      <trkpt lat="37.927549090236425" lon="12.317550703883171">
        <ele>89.540000000000006</ele>
        <time>2017-09-19T09:29:13Z</time>
      </trkpt>
      <trkpt lat="37.927434761077166" lon="12.317547434940934">
        <ele>88.099999999999994</ele>
        <time>2017-09-19T09:29:25Z</time>
      </trkpt>
      <trkpt lat="37.927382458001375" lon="12.317544668912888">
        <ele>88.099999999999994</ele>
        <time>2017-09-19T09:29:30Z</time>
      </trkpt>
      <trkpt lat="37.927343649789691" lon="12.317533772438765">
        <ele>87.620000000000005</ele>
        <time>2017-09-19T09:29:34Z</time>
      </trkpt>
      <trkpt lat="37.927204007282853" lon="12.317594373598695">
        <ele>85.689999999999998</ele>
        <time>2017-09-19T09:29:48Z</time>
      </trkpt>
      <trkpt lat="37.927182214334607" lon="12.317638294771314">
        <ele>85.689999999999998</ele>
        <time>2017-09-19T09:29:52Z</time>
      </trkpt>
      <trkpt lat="37.92724197730422" lon="12.317815655842423">
        <ele>84.25</ele>
        <time>2017-09-19T09:30:07Z</time>
      </trkpt>
      <trkpt lat="37.9273397102952" lon="12.317822612822056">
        <ele>83.290000000000006</ele>
        <time>2017-09-19T09:30:17Z</time>
      </trkpt>
      <trkpt lat="37.927412213757634" lon="12.317827977240086">
        <ele>82.329999999999998</ele>
        <time>2017-09-19T09:30:23Z</time>
      </trkpt>
      <trkpt lat="37.927582114934921" lon="12.317806268110871">
        <ele>80.890000000000001</ele>
        <time>2017-09-19T09:30:38Z</time>
      </trkpt>
      <trkpt lat="37.927650595083833" lon="12.317781038582325">
        <ele>80.409999999999997</ele>
        <time>2017-09-19T09:30:44Z</time>
      </trkpt>
      <trkpt lat="37.927818233147264" lon="12.317759497091174">
        <ele>79.450000000000003</ele>
        <time>2017-09-19T09:31:00Z</time>
      </trkpt>
      <trkpt lat="37.927977908402681" lon="12.317775003612041">
        <ele>77.519999999999996</ele>
        <time>2017-09-19T09:31:14Z</time>
      </trkpt>
      <trkpt lat="37.928166165947914" lon="12.317790342494845">
        <ele>75.599999999999994</ele>
        <time>2017-09-19T09:31:30Z</time>
      </trkpt>
      <trkpt lat="37.928360039368272" lon="12.317830910906196">
        <ele>74.159999999999997</ele>
        <time>2017-09-19T09:31:46Z</time>
      </trkpt>
      <trkpt lat="37.928552823141217" lon="12.317885980010033">
        <ele>72.239999999999995</ele>
        <time>2017-09-19T09:32:02Z</time>
      </trkpt>
      <trkpt lat="37.928733034059405" lon="12.317945491522551">
        <ele>70.310000000000002</ele>
        <time>2017-09-19T09:32:17Z</time>
      </trkpt>
      <trkpt lat="37.928914502263069" lon="12.31802461668849">
        <ele>68.390000000000001</ele>
        <time>2017-09-19T09:32:33Z</time>
      </trkpt>
      <trkpt lat="37.929081385955215" lon="12.318106675520539">
        <ele>66.469999999999999</ele>
        <time>2017-09-19T09:32:48Z</time>
      </trkpt>
      <trkpt lat="37.929240893572569" lon="12.318156966939569">
        <ele>65.030000000000001</ele>
        <time>2017-09-19T09:33:02Z</time>
      </trkpt>
      <trkpt lat="37.929252712056041" lon="12.318162331357598">
        <ele>64.549999999999997</ele>
        <time>2017-09-19T09:33:03Z</time>
      </trkpt>
      <trkpt lat="37.929440215229988" lon="12.318246066570282">
        <ele>62.619999999999997</ele>
        <time>2017-09-19T09:33:21Z</time>
      </trkpt>
      <trkpt lat="37.929568123072386" lon="12.318303314968944">
        <ele>62.140000000000001</ele>
        <time>2017-09-19T09:33:32Z</time>
      </trkpt>
      <trkpt lat="37.929750513285398" lon="12.318399120122194">
        <ele>60.700000000000003</ele>
        <time>2017-09-19T09:33:50Z</time>
      </trkpt>
      <trkpt lat="37.929888227954507" lon="12.318461900576949">
        <ele>59.259999999999998</ele>
        <time>2017-09-19T09:34:03Z</time>
      </trkpt>
      <trkpt lat="37.929970370605588" lon="12.318501630797982">
        <ele>58.299999999999997</ele>
        <time>2017-09-19T09:34:11Z</time>
      </trkpt>
      <trkpt lat="37.930143037810922" lon="12.318543372675776">
        <ele>57.340000000000003</ele>
        <time>2017-09-19T09:34:27Z</time>
      </trkpt>
      <trkpt lat="37.930325763300061" lon="12.318489141762257">
        <ele>55.409999999999997</ele>
        <time>2017-09-19T09:34:45Z</time>
      </trkpt>
      <trkpt lat="37.930491976439953" lon="12.318481849506497">
        <ele>54.450000000000003</ele>
        <time>2017-09-19T09:34:59Z</time>
      </trkpt>
      <trkpt lat="37.93061250820756" lon="12.318626353517175">
        <ele>52.049999999999997</ele>
        <time>2017-09-19T09:35:13Z</time>
      </trkpt>
      <trkpt lat="37.930627763271332" lon="12.318794243037701">
        <ele>51.090000000000003</ele>
        <time>2017-09-19T09:35:25Z</time>
      </trkpt>
      <trkpt lat="37.930599097162485" lon="12.318880241364241">
        <ele>50.609999999999999</ele>
        <time>2017-09-19T09:35:36Z</time>
      </trkpt>
      <trkpt lat="37.930410001426935" lon="12.319044694304466">
        <ele>48.200000000000003</ele>
        <time>2017-09-19T09:35:47Z</time>
      </trkpt>
      <trkpt lat="37.930381167680025" lon="12.319066822528839">
        <ele>48.200000000000003</ele>
        <time>2017-09-19T09:35:48Z</time>
      </trkpt>
      <trkpt lat="37.930187126621604" lon="12.319168159738183">
        <ele>47.240000000000002</ele>
        <time>2017-09-19T09:35:56Z</time>
      </trkpt>
      <trkpt lat="37.930006496608257" lon="12.31925449334085">
        <ele>46.280000000000001</ele>
        <time>2017-09-19T09:36:08Z</time>
      </trkpt>
      <trkpt lat="37.929798709228635" lon="12.319359350949526">
        <ele>44.359999999999999</ele>
        <time>2017-09-19T09:36:21Z</time>
      </trkpt>
      <trkpt lat="37.929614307358861" lon="12.319464376196265">
        <ele>43.399999999999999</ele>
        <time>2017-09-19T09:36:30Z</time>
      </trkpt>
      <trkpt lat="37.929432168602943" lon="12.319607036188245">
        <ele>41.469999999999999</ele>
        <time>2017-09-19T09:36:44Z</time>
      </trkpt>
      <trkpt lat="37.92931959964335" lon="12.319779703393579">
        <ele>39.549999999999997</ele>
        <time>2017-09-19T09:36:55Z</time>
      </trkpt>
      <trkpt lat="37.92929076589644" lon="12.320044571533799">
        <ele>37.149999999999999</ele>
        <time>2017-09-19T09:37:08Z</time>
      </trkpt>
      <trkpt lat="37.92926779948175" lon="12.320322599261999">
        <ele>35.229999999999997</ele>
        <time>2017-09-19T09:37:22Z</time>
      </trkpt>
      <trkpt lat="37.929245252162218" lon="12.320621246472001">
        <ele>32.82</ele>
        <time>2017-09-19T09:37:34Z</time>
      </trkpt>
      <trkpt lat="37.929223123937845" lon="12.320929700508714">
        <ele>30.899999999999999</ele>
        <time>2017-09-19T09:37:41Z</time>
      </trkpt>
      <trkpt lat="37.92920527048409" lon="12.321337815374136">
        <ele>29.460000000000001</ele>
        <time>2017-09-19T09:37:50Z</time>
      </trkpt>
      <trkpt lat="37.929230080917478" lon="12.321790941059589">
        <ele>27.050000000000001</ele>
        <time>2017-09-19T09:37:59Z</time>
      </trkpt>
      <trkpt lat="37.929238630458713" lon="12.321966039016843">
        <ele>25.609999999999999</ele>
        <time>2017-09-19T09:38:06Z</time>
      </trkpt>
      <trkpt lat="37.92925950139761" lon="12.322018342092633">
        <ele>25.609999999999999</ele>
        <time>2017-09-19T09:38:09Z</time>
      </trkpt>
      <trkpt lat="37.929258327931166" lon="12.322035441175103">
        <ele>26.09</ele>
        <time>2017-09-19T09:38:10Z</time>
      </trkpt>
      <trkpt lat="37.929264949634671" lon="12.322366777807474">
        <ele>23.690000000000001</ele>
        <time>2017-09-19T09:38:29Z</time>
      </trkpt>
      <trkpt lat="37.929243156686425" lon="12.322614714503288">
        <ele>22.73</ele>
        <time>2017-09-19T09:38:43Z</time>
      </trkpt>
      <trkpt lat="37.929235696792603" lon="12.322812527418137">
        <ele>21.77</ele>
        <time>2017-09-19T09:38:54Z</time>
      </trkpt>
      <trkpt lat="37.929196888580918" lon="12.323079910129309">
        <ele>20.809999999999999</ele>
        <time>2017-09-19T09:39:08Z</time>
      </trkpt>
      <trkpt lat="37.929169647395611" lon="12.323410492390394">
        <ele>20.32</ele>
        <time>2017-09-19T09:39:25Z</time>
      </trkpt>
      <trkpt lat="37.929150704294443" lon="12.323590703308582">
        <ele>19.84</ele>
        <time>2017-09-19T09:39:37Z</time>
      </trkpt>
      <trkpt lat="37.929154392331839" lon="12.323770746588707">
        <ele>19.84</ele>
        <time>2017-09-19T09:39:47Z</time>
      </trkpt>
      <trkpt lat="37.92918330989778" lon="12.32380117289722">
        <ele>19.359999999999999</ele>
        <time>2017-09-19T09:39:50Z</time>
      </trkpt>
      <trkpt lat="37.929196720942855" lon="12.323811650276184">
        <ele>18.879999999999999</ele>
        <time>2017-09-19T09:39:51Z</time>
      </trkpt>
      <trkpt lat="37.929207114502788" lon="12.323823636397719">
        <ele>18.399999999999999</ele>
        <time>2017-09-19T09:39:52Z</time>
      </trkpt>
      <trkpt lat="37.929215915501118" lon="12.32383394613862">
        <ele>18.399999999999999</ele>
        <time>2017-09-19T09:39:53Z</time>
      </trkpt>
      <trkpt lat="37.929227985441685" lon="12.32383981347084">
        <ele>18.879999999999999</ele>
        <time>2017-09-19T09:39:54Z</time>
      </trkpt>
      <trkpt lat="37.929238462820649" lon="12.323848530650139">
        <ele>18.879999999999999</ele>
        <time>2017-09-19T09:39:55Z</time>
      </trkpt>
      <trkpt lat="37.929247682914138" lon="12.323856158182025">
        <ele>18.879999999999999</ele>
        <time>2017-09-19T09:39:56Z</time>
      </trkpt>
      <trkpt lat="37.929322784766555" lon="12.323828162625432">
        <ele>19.359999999999999</ele>
        <time>2017-09-19T09:40:05Z</time>
      </trkpt>
      <trkpt lat="37.929332591593266" lon="12.323813578113914">
        <ele>18.879999999999999</ele>
        <time>2017-09-19T09:40:21Z</time>
      </trkpt>
      <trkpt lat="37.929313313215971" lon="12.323785498738289">
        <ele>18.399999999999999</ele>
        <time>2017-09-19T09:40:37Z</time>
      </trkpt>
      <trkpt lat="37.929325634613633" lon="12.323716515675187">
        <ele>18.399999999999999</ele>
        <time>2017-09-19T09:40:40Z</time>
      </trkpt>
      <trkpt lat="37.929313983768225" lon="12.323665637522936">
        <ele>18.399999999999999</ele>
        <time>2017-09-19T09:40:44Z</time>
      </trkpt>
      <trkpt lat="37.9293826315552" lon="12.323687095195055">
        <ele>18.399999999999999</ele>
        <time>2017-09-19T09:40:55Z</time>
      </trkpt>
      <trkpt lat="37.929438203573227" lon="12.323793126270175">
        <ele>17.440000000000001</ele>
        <time>2017-09-19T09:41:40Z</time>
      </trkpt>
      <trkpt lat="37.929468797519803" lon="12.323791952803731">
        <ele>17.920000000000002</ele>
        <time>2017-09-19T09:42:02Z</time>
      </trkpt>
      <trkpt lat="37.929464774206281" lon="12.323793964460492">
        <ele>18.879999999999999</ele>
        <time>2017-09-19T09:42:11Z</time>
      </trkpt>
      <trkpt lat="37.929444406181574" lon="12.323684580624104">
        <ele>18.399999999999999</ele>
        <time>2017-09-19T09:42:47Z</time>
      </trkpt>
      <trkpt lat="37.929455218836665" lon="12.323625152930617">
        <ele>18.879999999999999</ele>
        <time>2017-09-19T09:43:10Z</time>
      </trkpt>
      <trkpt lat="37.929439544677734" lon="12.323626326397061">
        <ele>17.920000000000002</ele>
        <time>2017-09-19T09:43:26Z</time>
      </trkpt>
      <trkpt lat="37.929441975429654" lon="12.323772925883532">
        <ele>17.920000000000002</ele>
        <time>2017-09-19T09:43:43Z</time>
      </trkpt>
      <trkpt lat="37.929570470005274" lon="12.323864037171006">
        <ele>17.440000000000001</ele>
        <time>2017-09-19T09:44:02Z</time>
      </trkpt>
      <trkpt lat="37.929441137239337" lon="12.323726573958993">
        <ele>17.920000000000002</ele>
        <time>2017-09-19T09:44:21Z</time>
      </trkpt>
      <trkpt lat="37.929379446431994" lon="12.323671253398061">
        <ele>17.920000000000002</ele>
        <time>2017-09-19T09:44:32Z</time>
      </trkpt>
      <trkpt lat="37.929345248267055" lon="12.323657087981701">
        <ele>17.920000000000002</ele>
        <time>2017-09-19T09:44:53Z</time>
      </trkpt>
      <trkpt lat="37.929390929639339" lon="12.323792790994048">
        <ele>17.920000000000002</ele>
        <time>2017-09-19T09:45:18Z</time>
      </trkpt>
      <trkpt lat="37.92928297072649" lon="12.323660021647811">
        <ele>18.399999999999999</ele>
        <time>2017-09-19T09:45:33Z</time>
      </trkpt>
      <trkpt lat="37.929316330701113" lon="12.32368198223412">
        <ele>18.399999999999999</ele>
        <time>2017-09-19T09:45:44Z</time>
      </trkpt>
      <trkpt lat="37.929286072030663" lon="12.323683490976691">
        <ele>18.879999999999999</ele>
        <time>2017-09-19T09:45:54Z</time>
      </trkpt>
      <trkpt lat="37.929290430620313" lon="12.323711654171348">
        <ele>18.399999999999999</ele>
        <time>2017-09-19T09:46:07Z</time>
      </trkpt>
      <trkpt lat="37.929286239668727" lon="12.323700338602066">
        <ele>18.399999999999999</ele>
        <time>2017-09-19T09:46:22Z</time>
      </trkpt>
      <trkpt lat="37.92927760630846" lon="12.323660692200065">
        <ele>18.399999999999999</ele>
        <time>2017-09-19T09:46:38Z</time>
      </trkpt>
      <trkpt lat="37.929272409528494" lon="12.323702098801732">
        <ele>18.399999999999999</ele>
        <time>2017-09-19T09:46:48Z</time>
      </trkpt>
      <trkpt lat="37.929279617965221" lon="12.323601432144642">
        <ele>18.399999999999999</ele>
        <time>2017-09-19T09:47:07Z</time>
      </trkpt>
      <trkpt lat="37.929252628237009" lon="12.323622889816761">
        <ele>17.440000000000001</ele>
        <time>2017-09-19T09:47:19Z</time>
      </trkpt>
      <trkpt lat="37.929234858602285" lon="12.323596235364676">
        <ele>17.920000000000002</ele>
        <time>2017-09-19T09:47:44Z</time>
      </trkpt>
      <trkpt lat="37.929247179999948" lon="12.323629762977362">
        <ele>18.399999999999999</ele>
        <time>2017-09-19T09:47:53Z</time>
      </trkpt>
      <trkpt lat="37.929266123101115" lon="12.323636217042804">
        <ele>18.399999999999999</ele>
        <time>2017-09-19T09:48:07Z</time>
      </trkpt>
      <trkpt lat="37.929249359294772" lon="12.323630014434457">
        <ele>18.399999999999999</ele>
        <time>2017-09-19T09:48:22Z</time>
      </trkpt>
      <trkpt lat="37.929254388436675" lon="12.323645520955324">
        <ele>18.399999999999999</ele>
        <time>2017-09-19T09:48:38Z</time>
      </trkpt>
      <trkpt lat="37.929277857765555" lon="12.323655495420098">
        <ele>18.399999999999999</ele>
        <time>2017-09-19T09:48:55Z</time>
      </trkpt>
      <trkpt lat="37.929282719269395" lon="12.323686759918928">
        <ele>18.399999999999999</ele>
        <time>2017-09-19T09:49:11Z</time>
      </trkpt>
      <trkpt lat="37.929264949634671" lon="12.323700841516256">
        <ele>18.399999999999999</ele>
        <time>2017-09-19T09:49:24Z</time>
      </trkpt>
      <trkpt lat="37.929257154464722" lon="12.323665553703904">
        <ele>18.399999999999999</ele>
        <time>2017-09-19T09:49:39Z</time>
      </trkpt>
      <trkpt lat="37.929266542196274" lon="12.323696231469512">
        <ele>18.399999999999999</ele>
        <time>2017-09-19T09:49:53Z</time>
      </trkpt>
      <trkpt lat="37.929255394265056" lon="12.323689442127943">
        <ele>17.920000000000002</ele>
        <time>2017-09-19T09:50:10Z</time>
      </trkpt>
    </trkseg>
  </trk>

  <trk>
    <name>2017-09-20 14:46:01</name>
    <extensions>
      <gpxx:TrackExtension>
        <gpxx:DisplayColor>Yellow</gpxx:DisplayColor>
      </gpxx:TrackExtension>
      <gpxtrkx:TrackStatsExtension xmlns:gpxtrkx="http://www.garmin.com/xmlschemas/TrackStatsExtension/v1">
        <gpxtrkx:Distance>4087</gpxtrkx:Distance>
        <gpxtrkx:TotalElapsedTime>4480</gpxtrkx:TotalElapsedTime>
        <gpxtrkx:MovingTime>3087</gpxtrkx:MovingTime>
        <gpxtrkx:StoppedTime>1053</gpxtrkx:StoppedTime>
        <gpxtrkx:MovingSpeed>1</gpxtrkx:MovingSpeed>
        <gpxtrkx:MaxSpeed>2</gpxtrkx:MaxSpeed>
        <gpxtrkx:MaxElevation>15</gpxtrkx:MaxElevation>
        <gpxtrkx:MinElevation>-0</gpxtrkx:MinElevation>
        <gpxtrkx:Ascent>23</gpxtrkx:Ascent>
        <gpxtrkx:Descent>17</gpxtrkx:Descent>
        <gpxtrkx:AvgAscentRate>0</gpxtrkx:AvgAscentRate>
        <gpxtrkx:MaxAscentRate>0</gpxtrkx:MaxAscentRate>
        <gpxtrkx:AvgDescentRate>0</gpxtrkx:AvgDescentRate>
        <gpxtrkx:MaxDescentRate>-0</gpxtrkx:MaxDescentRate>
      </gpxtrkx:TrackStatsExtension>
    </extensions>
    <trkseg>
      <trkpt lat="38.019450958818197" lon="12.517533358186483">
        <ele>2.54</ele>
        <time>2017-09-20T11:31:24Z</time>
      </trkpt>
      <trkpt lat="38.01945012062788" lon="12.517532017081976">
        <ele>2.54</ele>
        <time>2017-09-20T11:31:25Z</time>
      </trkpt>
      <trkpt lat="38.019453389570117" lon="12.517582643777132">
        <ele>2.54</ele>
        <time>2017-09-20T11:31:48Z</time>
      </trkpt>
      <trkpt lat="38.019444001838565" lon="12.517578201368451">
        <ele>2.54</ele>
        <time>2017-09-20T11:32:06Z</time>
      </trkpt>
      <trkpt lat="38.019444504752755" lon="12.517578955739737">
        <ele>2.54</ele>
        <time>2017-09-20T11:32:23Z</time>
      </trkpt>
      <trkpt lat="38.019437044858932" lon="12.51754492521286">
        <ele>3.02</ele>
        <time>2017-09-20T11:32:42Z</time>
      </trkpt>
      <trkpt lat="38.019417431205511" lon="12.517512906342745">
        <ele>3.5</ele>
        <time>2017-09-20T11:33:09Z</time>
      </trkpt>
      <trkpt lat="38.019389268010855" lon="12.517508799210191">
        <ele>3.02</ele>
        <time>2017-09-20T11:33:29Z</time>
      </trkpt>
      <trkpt lat="38.019253900274634" lon="12.517459178343415">
        <ele>3.02</ele>
        <time>2017-09-20T11:33:42Z</time>
      </trkpt>
      <trkpt lat="38.019216768443584" lon="12.517381897196174">
        <ele>3.02</ele>
        <time>2017-09-20T11:33:48Z</time>
      </trkpt>
      <trkpt lat="38.019159771502018" lon="12.517158184200525">
        <ele>3.02</ele>
        <time>2017-09-20T11:34:04Z</time>
      </trkpt>
      <trkpt lat="38.019151305779815" lon="12.517065312713385">
        <ele>3.5</ele>
        <time>2017-09-20T11:34:11Z</time>
      </trkpt>
      <trkpt lat="38.01914032548666" lon="12.516868505626917">
        <ele>3.02</ele>
        <time>2017-09-20T11:34:25Z</time>
      </trkpt>
      <trkpt lat="38.019127417355776" lon="12.516816034913063">
        <ele>3.98</ele>
        <time>2017-09-20T11:34:29Z</time>
      </trkpt>
      <trkpt lat="38.019067486748099" lon="12.516662981361151">
        <ele>3.98</ele>
        <time>2017-09-20T11:34:43Z</time>
      </trkpt>
      <trkpt lat="38.019029516726732" lon="12.516550915315747">
        <ele>3.98</ele>
        <time>2017-09-20T11:34:54Z</time>
      </trkpt>
      <trkpt lat="38.018997833132744" lon="12.516537755727768">
        <ele>4.46</ele>
        <time>2017-09-20T11:34:57Z</time>
      </trkpt>
      <trkpt lat="38.018870679661632" lon="12.516507999971509">
        <ele>4.46</ele>
        <time>2017-09-20T11:35:12Z</time>
      </trkpt>
      <trkpt lat="38.018779987469316" lon="12.516320664435625">
        <ele>4.46</ele>
        <time>2017-09-20T11:35:27Z</time>
      </trkpt>
      <trkpt lat="38.018736569210887" lon="12.516132239252329">
        <ele>3.98</ele>
        <time>2017-09-20T11:35:44Z</time>
      </trkpt>
      <trkpt lat="38.018697258085012" lon="12.515955129638314">
        <ele>4.46</ele>
        <time>2017-09-20T11:35:58Z</time>
      </trkpt>
      <trkpt lat="38.018661634996533" lon="12.515725800767541">
        <ele>4.46</ele>
        <time>2017-09-20T11:36:13Z</time>
      </trkpt>
      <trkpt lat="38.018681667745113" lon="12.515455149114132">
        <ele>4.46</ele>
        <time>2017-09-20T11:36:28Z</time>
      </trkpt>
      <trkpt lat="38.018640261143446" lon="12.515308801084757">
        <ele>4.46</ele>
        <time>2017-09-20T11:36:42Z</time>
      </trkpt>
      <trkpt lat="38.018616372719407" lon="12.515101432800293">
        <ele>4.46</ele>
        <time>2017-09-20T11:36:56Z</time>
      </trkpt>
      <trkpt lat="38.01851193420589" lon="12.514813095331192">
        <ele>3.98</ele>
        <time>2017-09-20T11:37:09Z</time>
      </trkpt>
      <trkpt lat="38.01851243712008" lon="12.51478124409914">
        <ele>3.98</ele>
        <time>2017-09-20T11:37:11Z</time>
      </trkpt>
      <trkpt lat="38.018530374392867" lon="12.514614276587963">
        <ele>4.94</ele>
        <time>2017-09-20T11:37:22Z</time>
      </trkpt>
      <trkpt lat="38.018523501232266" lon="12.514522327110171">
        <ele>4.94</ele>
        <time>2017-09-20T11:37:29Z</time>
      </trkpt>
      <trkpt lat="38.01848016679287" lon="12.514317641034722">
        <ele>4.46</ele>
        <time>2017-09-20T11:37:44Z</time>
      </trkpt>
      <trkpt lat="38.018472455441952" lon="12.514197276905179">
        <ele>4.46</ele>
        <time>2017-09-20T11:37:50Z</time>
      </trkpt>
      <trkpt lat="38.018427528440952" lon="12.513916650786996">
        <ele>4.46</ele>
        <time>2017-09-20T11:38:05Z</time>
      </trkpt>
      <trkpt lat="38.018359467387199" lon="12.513654632493854">
        <ele>4.94</ele>
        <time>2017-09-20T11:38:22Z</time>
      </trkpt>
      <trkpt lat="38.01834580488503" lon="12.513612555339932">
        <ele>4.94</ele>
        <time>2017-09-20T11:38:25Z</time>
      </trkpt>
      <trkpt lat="38.018290651962161" lon="12.513426057994366">
        <ele>4.94</ele>
        <time>2017-09-20T11:38:38Z</time>
      </trkpt>
      <trkpt lat="38.018181268125772" lon="12.513258336111903">
        <ele>4.94</ele>
        <time>2017-09-20T11:38:54Z</time>
      </trkpt>
      <trkpt lat="38.018052773550153" lon="12.513049375265837">
        <ele>4.94</ele>
        <time>2017-09-20T11:39:11Z</time>
      </trkpt>
      <trkpt lat="38.017972391098738" lon="12.51276321709156">
        <ele>4.94</ele>
        <time>2017-09-20T11:39:33Z</time>
      </trkpt>
      <trkpt lat="38.017859486863017" lon="12.512615863233805">
        <ele>4.94</ele>
        <time>2017-09-20T11:39:49Z</time>
      </trkpt>
      <trkpt lat="38.017688831314445" lon="12.512376727536321">
        <ele>4.94</ele>
        <time>2017-09-20T11:40:06Z</time>
      </trkpt>
      <trkpt lat="38.017537957057357" lon="12.512258123606443">
        <ele>5.42</ele>
        <time>2017-09-20T11:40:24Z</time>
      </trkpt>
      <trkpt lat="38.017473164945841" lon="12.511982023715973">
        <ele>5.42</ele>
        <time>2017-09-20T11:40:39Z</time>
      </trkpt>
      <trkpt lat="38.017473584040999" lon="12.511671222746372">
        <ele>5.42</ele>
        <time>2017-09-20T11:40:57Z</time>
      </trkpt>
      <trkpt lat="38.017375431954861" lon="12.511461926624179">
        <ele>5.42</ele>
        <time>2017-09-20T11:41:13Z</time>
      </trkpt>
      <trkpt lat="38.01727183163166" lon="12.511206362396479">
        <ele>5.42</ele>
        <time>2017-09-20T11:41:34Z</time>
      </trkpt>
      <trkpt lat="38.017120789736509" lon="12.510996647179127">
        <ele>5.42</ele>
        <time>2017-09-20T11:41:50Z</time>
      </trkpt>
      <trkpt lat="38.017077120020986" lon="12.510902183130383">
        <ele>4.46</ele>
        <time>2017-09-20T11:42:06Z</time>
      </trkpt>
      <trkpt lat="38.016991289332509" lon="12.510600183159113">
        <ele>4.46</ele>
        <time>2017-09-20T11:42:24Z</time>
      </trkpt>
      <trkpt lat="38.017006041482091" lon="12.510491302236915">
        <ele>3.98</ele>
        <time>2017-09-20T11:42:45Z</time>
      </trkpt>
      <trkpt lat="38.016924234107137" lon="12.510438077151775">
        <ele>3.98</ele>
        <time>2017-09-20T11:42:52Z</time>
      </trkpt>
      <trkpt lat="38.016800517216325" lon="12.510144878178835">
        <ele>3.98</ele>
        <time>2017-09-20T11:43:08Z</time>
      </trkpt>
      <trkpt lat="38.016827255487442" lon="12.509951256215572">
        <ele>3.98</ele>
        <time>2017-09-20T11:43:25Z</time>
      </trkpt>
      <trkpt lat="38.016825662925839" lon="12.509840363636613">
        <ele>3.98</ele>
        <time>2017-09-20T11:43:41Z</time>
      </trkpt>
      <trkpt lat="38.01670940592885" lon="12.509794430807233">
        <ele>3.98</ele>
        <time>2017-09-20T11:43:51Z</time>
      </trkpt>
      <trkpt lat="38.016570014879107" lon="12.509769536554813">
        <ele>3.02</ele>
        <time>2017-09-20T11:44:06Z</time>
      </trkpt>
      <trkpt lat="38.016501115635037" lon="12.509767860174179">
        <ele>3.02</ele>
        <time>2017-09-20T11:44:17Z</time>
      </trkpt>
      <trkpt lat="38.016239264979959" lon="12.50968286767602">
        <ele>2.54</ele>
        <time>2017-09-20T11:44:36Z</time>
      </trkpt>
      <trkpt lat="38.016040362417698" lon="12.509662499651313">
        <ele>2.06</ele>
        <time>2017-09-20T11:44:53Z</time>
      </trkpt>
      <trkpt lat="38.015746073797345" lon="12.509659146890044">
        <ele>1.58</ele>
        <time>2017-09-20T11:45:10Z</time>
      </trkpt>
      <trkpt lat="38.015533676370978" lon="12.509643724188209">
        <ele>1.1</ele>
        <time>2017-09-20T11:45:27Z</time>
      </trkpt>
      <trkpt lat="38.01540526561439" lon="12.509609526023269">
        <ele>1.1</ele>
        <time>2017-09-20T11:45:42Z</time>
      </trkpt>
      <trkpt lat="38.01540233194828" lon="12.50951087102294">
        <ele>1.1</ele>
        <time>2017-09-20T11:45:55Z</time>
      </trkpt>
      <trkpt lat="38.015474751591682" lon="12.509308196604252">
        <ele>1.1</ele>
        <time>2017-09-20T11:46:08Z</time>
      </trkpt>
      <trkpt lat="38.015435775741935" lon="12.509076269343495">
        <ele>2.06</ele>
        <time>2017-09-20T11:46:21Z</time>
      </trkpt>
      <trkpt lat="38.015437535941601" lon="12.50900904648006">
        <ele>2.06</ele>
        <time>2017-09-20T11:46:26Z</time>
      </trkpt>
      <trkpt lat="38.015466369688511" lon="12.508937465026975">
        <ele>0.14</ele>
        <time>2017-09-20T11:46:32Z</time>
      </trkpt>
      <trkpt lat="38.015493527054787" lon="12.508727498352528">
        <ele>1.1</ele>
        <time>2017-09-20T11:46:47Z</time>
      </trkpt>
      <trkpt lat="38.015459161251783" lon="12.508438993245363">
        <ele>1.1</ele>
        <time>2017-09-20T11:47:06Z</time>
      </trkpt>
      <trkpt lat="38.01546486094594" lon="12.508408986032009">
        <ele>1.1</ele>
        <time>2017-09-20T11:47:08Z</time>
      </trkpt>
      <trkpt lat="38.015470979735255" lon="12.508222907781601">
        <ele>1.1</ele>
        <time>2017-09-20T11:47:20Z</time>
      </trkpt>
      <trkpt lat="38.015482714399695" lon="12.507983688265085">
        <ele>1.58</ele>
        <time>2017-09-20T11:47:37Z</time>
      </trkpt>
      <trkpt lat="38.015636438503861" lon="12.507893331348896">
        <ele>1.58</ele>
        <time>2017-09-20T11:47:49Z</time>
      </trkpt>
      <trkpt lat="38.015653369948268" lon="12.507810769602656">
        <ele>1.58</ele>
        <time>2017-09-20T11:48:03Z</time>
      </trkpt>
      <trkpt lat="38.015655465424061" lon="12.507730638608336">
        <ele>2.06</ele>
        <time>2017-09-20T11:48:16Z</time>
      </trkpt>
      <trkpt lat="38.015681281685829" lon="12.507667690515518">
        <ele>2.06</ele>
        <time>2017-09-20T11:48:32Z</time>
      </trkpt>
      <trkpt lat="38.015768621116877" lon="12.507531903684139">
        <ele>1.58</ele>
        <time>2017-09-20T11:48:47Z</time>
      </trkpt>
      <trkpt lat="38.015767699107528" lon="12.507407180964947">
        <ele>1.58</ele>
        <time>2017-09-20T11:49:02Z</time>
      </trkpt>
      <trkpt lat="38.015865096822381" lon="12.507206182926893">
        <ele>1.58</ele>
        <time>2017-09-20T11:49:17Z</time>
      </trkpt>
      <trkpt lat="38.01584841683507" lon="12.506985738873482">
        <ele>2.06</ele>
        <time>2017-09-20T11:49:33Z</time>
      </trkpt>
      <trkpt lat="38.015976743772626" lon="12.506800163537264">
        <ele>2.06</ele>
        <time>2017-09-20T11:49:52Z</time>
      </trkpt>
      <trkpt lat="38.016036674380302" lon="12.506598494946957">
        <ele>1.58</ele>
        <time>2017-09-20T11:50:09Z</time>
      </trkpt>
      <trkpt lat="38.016104651615024" lon="12.506405459716916">
        <ele>1.58</ele>
        <time>2017-09-20T11:50:25Z</time>
      </trkpt>
      <trkpt lat="38.016053941100836" lon="12.506270427256823">
        <ele>1.58</ele>
        <time>2017-09-20T11:50:39Z</time>
      </trkpt>
      <trkpt lat="38.016001973301172" lon="12.506307726725936">
        <ele>1.1</ele>
        <time>2017-09-20T11:50:54Z</time>
      </trkpt>
      <trkpt lat="38.015984622761607" lon="12.506364639848471">
        <ele>1.1</ele>
        <time>2017-09-20T11:51:01Z</time>
      </trkpt>
      <trkpt lat="38.016003901138902" lon="12.506450805813074">
        <ele>0.62</ele>
        <time>2017-09-20T11:51:06Z</time>
      </trkpt>
      <trkpt lat="38.015998117625713" lon="12.506687007844448">
        <ele>0.62</ele>
        <time>2017-09-20T11:51:21Z</time>
      </trkpt>
      <trkpt lat="38.015921339392662" lon="12.50676772557199">
        <ele>0.14</ele>
        <time>2017-09-20T11:51:31Z</time>
      </trkpt>
      <trkpt lat="38.015810362994671" lon="12.506833523511887">
        <ele>0.14</ele>
        <time>2017-09-20T11:51:43Z</time>
      </trkpt>
      <trkpt lat="38.015593439340591" lon="12.50679848715663">
        <ele>0.14</ele>
        <time>2017-09-20T11:51:57Z</time>
      </trkpt>
      <trkpt lat="38.015538789331913" lon="12.506847940385342">
        <ele>0.14</ele>
        <time>2017-09-20T11:52:08Z</time>
      </trkpt>
      <trkpt lat="38.01534709520638" lon="12.506777783855796">
        <ele>-0.34</ele>
        <time>2017-09-20T11:52:21Z</time>
      </trkpt>
      <trkpt lat="38.015209548175335" lon="12.506799660623074">
        <ele>0.14</ele>
        <time>2017-09-20T11:52:35Z</time>
      </trkpt>
      <trkpt lat="38.015127908438444" lon="12.506771245971322">
        <ele>-0.34</ele>
        <time>2017-09-20T11:52:44Z</time>
      </trkpt>
      <trkpt lat="38.014964964240789" lon="12.506720954552293">
        <ele>0.62</ele>
        <time>2017-09-20T11:52:57Z</time>
      </trkpt>
      <trkpt lat="38.014880390837789" lon="12.506707208231091">
        <ele>0.62</ele>
        <time>2017-09-20T11:53:07Z</time>
      </trkpt>
      <trkpt lat="38.014729935675859" lon="12.506677536293864">
        <ele>0.62</ele>
        <time>2017-09-20T11:53:21Z</time>
      </trkpt>
      <trkpt lat="38.01464544609189" lon="12.50672715716064">
        <ele>0.14</ele>
        <time>2017-09-20T11:53:32Z</time>
      </trkpt>
      <trkpt lat="38.014634046703577" lon="12.506727576255798">
        <ele>0.62</ele>
        <time>2017-09-20T11:53:43Z</time>
      </trkpt>
      <trkpt lat="38.014653827995062" lon="12.506699161604047">
        <ele>0.14</ele>
        <time>2017-09-20T11:53:52Z</time>
      </trkpt>
      <trkpt lat="38.014751560986042" lon="12.506720032542944">
        <ele>0.14</ele>
        <time>2017-09-20T11:54:04Z</time>
      </trkpt>
      <trkpt lat="38.014958007261157" lon="12.506742998957634">
        <ele>0.14</ele>
        <time>2017-09-20T11:54:17Z</time>
      </trkpt>
      <trkpt lat="38.015004023909569" lon="12.506743920966983">
        <ele>0.62</ele>
        <time>2017-09-20T11:54:37Z</time>
      </trkpt>
      <trkpt lat="38.015048364177346" lon="12.506738472729921">
        <ele>0.14</ele>
        <time>2017-09-20T11:54:50Z</time>
      </trkpt>
      <trkpt lat="38.015151964500546" lon="12.506788177415729">
        <ele>0.62</ele>
        <time>2017-09-20T11:55:02Z</time>
      </trkpt>
      <trkpt lat="38.015247769653797" lon="12.506767474114895">
        <ele>0.14</ele>
        <time>2017-09-20T11:55:07Z</time>
      </trkpt>
      <trkpt lat="38.015422867611051" lon="12.506762947887182">
        <ele>0.62</ele>
        <time>2017-09-20T11:55:21Z</time>
      </trkpt>
      <trkpt lat="38.015543986111879" lon="12.506794715300202">
        <ele>0.62</ele>
        <time>2017-09-20T11:55:33Z</time>
      </trkpt>
      <trkpt lat="38.015707600861788" lon="12.506811646744609">
        <ele>0.62</ele>
        <time>2017-09-20T11:55:45Z</time>
      </trkpt>
      <trkpt lat="38.01577758975327" lon="12.506882809102535">
        <ele>0.62</ele>
        <time>2017-09-20T11:55:54Z</time>
      </trkpt>
      <trkpt lat="38.015768704935908" lon="12.507004262879491">
        <ele>0.14</ele>
        <time>2017-09-20T11:56:06Z</time>
      </trkpt>
      <trkpt lat="38.015774404630065" lon="12.506993701681495">
        <ele>0.62</ele>
        <time>2017-09-20T11:56:07Z</time>
      </trkpt>
      <trkpt lat="38.015798963606358" lon="12.506928658112884">
        <ele>0.14</ele>
        <time>2017-09-20T11:56:12Z</time>
      </trkpt>
      <trkpt lat="38.015922345221043" lon="12.506893621757627">
        <ele>0.62</ele>
        <time>2017-09-20T11:56:25Z</time>
      </trkpt>
      <trkpt lat="38.016138095408678" lon="12.50686495564878">
        <ele>1.1</ele>
        <time>2017-09-20T11:56:40Z</time>
      </trkpt>
      <trkpt lat="38.016155026853085" lon="12.506868643686175">
        <ele>3.02</ele>
        <time>2017-09-20T11:56:53Z</time>
      </trkpt>
      <trkpt lat="38.016132395714521" lon="12.506850957870483">
        <ele>3.98</ele>
        <time>2017-09-20T11:56:58Z</time>
      </trkpt>
      <trkpt lat="38.016372872516513" lon="12.506918432191014">
        <ele>5.42</ele>
        <time>2017-09-20T11:57:12Z</time>
      </trkpt>
      <trkpt lat="38.016401622444391" lon="12.506960174068809">
        <ele>4.94</ele>
        <time>2017-09-20T11:57:15Z</time>
      </trkpt>
      <trkpt lat="38.016468426212668" lon="12.507122699171305">
        <ele>5.42</ele>
        <time>2017-09-20T11:57:28Z</time>
      </trkpt>
      <trkpt lat="38.016485860571265" lon="12.507134266197681">
        <ele>5.42</ele>
        <time>2017-09-20T11:57:33Z</time>
      </trkpt>
      <trkpt lat="38.016558447852731" lon="12.507339036092162">
        <ele>4.46</ele>
        <time>2017-09-20T11:57:48Z</time>
      </trkpt>
      <trkpt lat="38.016575546935201" lon="12.507410617545247">
        <ele>4.94</ele>
        <time>2017-09-20T11:57:55Z</time>
      </trkpt>
      <trkpt lat="38.016608487814665" lon="12.50751581043005">
        <ele>4.94</ele>
        <time>2017-09-20T11:58:02Z</time>
      </trkpt>
      <trkpt lat="38.016656683757901" lon="12.507717814296484">
        <ele>4.94</ele>
        <time>2017-09-20T11:58:16Z</time>
      </trkpt>
      <trkpt lat="38.016674956306815" lon="12.507934318855405">
        <ele>5.42</ele>
        <time>2017-09-20T11:58:29Z</time>
      </trkpt>
      <trkpt lat="38.016730444505811" lon="12.508125007152557">
        <ele>5.42</ele>
        <time>2017-09-20T11:58:41Z</time>
      </trkpt>
      <trkpt lat="38.016750393435359" lon="12.508239252492785">
        <ele>5.42</ele>
        <time>2017-09-20T11:58:48Z</time>
      </trkpt>
      <trkpt lat="38.016786519438028" lon="12.50846522860229">
        <ele>5.42</ele>
        <time>2017-09-20T11:59:03Z</time>
      </trkpt>
      <trkpt lat="38.016909565776587" lon="12.508620042353868">
        <ele>4.94</ele>
        <time>2017-09-20T11:59:15Z</time>
      </trkpt>
      <trkpt lat="38.016983075067401" lon="12.508819364011288">
        <ele>4.46</ele>
        <time>2017-09-20T11:59:28Z</time>
      </trkpt>
      <trkpt lat="38.016991373151541" lon="12.508847946301103">
        <ele>4.46</ele>
        <time>2017-09-20T11:59:30Z</time>
      </trkpt>
      <trkpt lat="38.017050884664059" lon="12.509059254080057">
        <ele>3.98</ele>
        <time>2017-09-20T11:59:43Z</time>
      </trkpt>
      <trkpt lat="38.01711400039494" lon="12.509234435856342">
        <ele>3.5</ele>
        <time>2017-09-20T11:59:55Z</time>
      </trkpt>
      <trkpt lat="38.017152640968561" lon="12.509404085576534">
        <ele>3.5</ele>
        <time>2017-09-20T12:00:07Z</time>
      </trkpt>
      <trkpt lat="38.017224473878741" lon="12.509551774710417">
        <ele>3.98</ele>
        <time>2017-09-20T12:00:20Z</time>
      </trkpt>
      <trkpt lat="38.01723025739193" lon="12.509579518809915">
        <ele>3.98</ele>
        <time>2017-09-20T12:00:22Z</time>
      </trkpt>
      <trkpt lat="38.017086675390601" lon="12.509808344766498">
        <ele>4.46</ele>
        <time>2017-09-20T12:00:31Z</time>
      </trkpt>
      <trkpt lat="38.017074605450034" lon="12.509815553203225">
        <ele>4.46</ele>
        <time>2017-09-20T12:00:32Z</time>
      </trkpt>
      <trkpt lat="38.01695273257792" lon="12.509803231805563">
        <ele>4.46</ele>
        <time>2017-09-20T12:00:44Z</time>
      </trkpt>
      <trkpt lat="38.01680370233953" lon="12.509779511019588">
        <ele>4.46</ele>
        <time>2017-09-20T12:00:58Z</time>
      </trkpt>
      <trkpt lat="38.016709825024009" lon="12.509789653122425">
        <ele>3.98</ele>
        <time>2017-09-20T12:01:09Z</time>
      </trkpt>
      <trkpt lat="38.016508407890797" lon="12.509742630645633">
        <ele>4.46</ele>
        <time>2017-09-20T12:01:24Z</time>
      </trkpt>
      <trkpt lat="38.016478316858411" lon="12.509736344218254">
        <ele>3.5</ele>
        <time>2017-09-20T12:01:27Z</time>
      </trkpt>
      <trkpt lat="38.016294417902827" lon="12.509777415543795">
        <ele>3.02</ele>
        <time>2017-09-20T12:01:40Z</time>
      </trkpt>
      <trkpt lat="38.016272289678454" lon="12.509781522676349">
        <ele>3.5</ele>
        <time>2017-09-20T12:01:43Z</time>
      </trkpt>
      <trkpt lat="38.016090989112854" lon="12.509665600955486">
        <ele>3.5</ele>
        <time>2017-09-20T12:01:54Z</time>
      </trkpt>
      <trkpt lat="38.015908766537905" lon="12.509640203788877">
        <ele>2.54</ele>
        <time>2017-09-20T12:02:07Z</time>
      </trkpt>
      <trkpt lat="38.015771973878145" lon="12.509616147726774">
        <ele>2.06</ele>
        <time>2017-09-20T12:02:18Z</time>
      </trkpt>
      <trkpt lat="38.015651358291507" lon="12.509581195190549">
        <ele>1.58</ele>
        <time>2017-09-20T12:02:30Z</time>
      </trkpt>
      <trkpt lat="38.015568293631077" lon="12.509567867964506">
        <ele>1.58</ele>
        <time>2017-09-20T12:02:41Z</time>
      </trkpt>
      <trkpt lat="38.015495873987675" lon="12.509561413899064">
        <ele>1.58</ele>
        <time>2017-09-20T12:02:52Z</time>
      </trkpt>
      <trkpt lat="38.015416162088513" lon="12.509712455794215">
        <ele>2.54</ele>
        <time>2017-09-20T12:03:07Z</time>
      </trkpt>
      <trkpt lat="38.015480032190681" lon="12.50982116907835">
        <ele>2.54</ele>
        <time>2017-09-20T12:03:18Z</time>
      </trkpt>
      <trkpt lat="38.015492018312216" lon="12.509805494919419">
        <ele>2.54</ele>
        <time>2017-09-20T12:03:33Z</time>
      </trkpt>
      <trkpt lat="38.015465866774321" lon="12.509787306189537">
        <ele>2.54</ele>
        <time>2017-09-20T12:03:38Z</time>
      </trkpt>
      <trkpt lat="38.015495203435421" lon="12.509887050837278">
        <ele>3.5</ele>
        <time>2017-09-20T12:09:48Z</time>
      </trkpt>
      <trkpt lat="38.015564857050776" lon="12.509915884584188">
        <ele>3.5</ele>
        <time>2017-09-20T12:09:54Z</time>
      </trkpt>
      <trkpt lat="38.015693183988333" lon="12.510028872638941">
        <ele>4.46</ele>
        <time>2017-09-20T12:10:09Z</time>
      </trkpt>
      <trkpt lat="38.015700895339251" lon="12.510247472673655">
        <ele>4.94</ele>
        <time>2017-09-20T12:10:24Z</time>
      </trkpt>
      <trkpt lat="38.015711372718215" lon="12.510288041085005">
        <ele>4.94</ele>
        <time>2017-09-20T12:10:28Z</time>
      </trkpt>
      <trkpt lat="38.015793599188328" lon="12.510508149862289">
        <ele>5.91</ele>
        <time>2017-09-20T12:10:43Z</time>
      </trkpt>
      <trkpt lat="38.01582595333457" lon="12.510573361068964">
        <ele>6.39</ele>
        <time>2017-09-20T12:10:51Z</time>
      </trkpt>
      <trkpt lat="38.015870125964284" lon="12.510743094608188">
        <ele>6.39</ele>
        <time>2017-09-20T12:11:04Z</time>
      </trkpt>
      <trkpt lat="38.015917232260108" lon="12.510880893096328">
        <ele>6.87</ele>
        <time>2017-09-20T12:11:16Z</time>
      </trkpt>
      <trkpt lat="38.015976492315531" lon="12.511091278865933">
        <ele>7.35</ele>
        <time>2017-09-20T12:11:31Z</time>
      </trkpt>
      <trkpt lat="38.015960231423378" lon="12.511324547231197">
        <ele>7.83</ele>
        <time>2017-09-20T12:11:45Z</time>
      </trkpt>
      <trkpt lat="38.015967691317201" lon="12.511364612728357">
        <ele>7.83</ele>
        <time>2017-09-20T12:11:48Z</time>
      </trkpt>
      <trkpt lat="38.016014881432056" lon="12.511639455333352">
        <ele>8.789999999999999</ele>
        <time>2017-09-20T12:12:01Z</time>
      </trkpt>
      <trkpt lat="38.016026951372623" lon="12.511727968230844">
        <ele>8.310000000000001</ele>
        <time>2017-09-20T12:12:09Z</time>
      </trkpt>
      <trkpt lat="38.016038769856095" lon="12.511778175830841">
        <ele>8.310000000000001</ele>
        <time>2017-09-20T12:12:12Z</time>
      </trkpt>
      <trkpt lat="38.016028292477131" lon="12.511791670694947">
        <ele>8.789999999999999</ele>
        <time>2017-09-20T12:12:14Z</time>
      </trkpt>
      <trkpt lat="38.016031393781304" lon="12.511799046769738">
        <ele>8.789999999999999</ele>
        <time>2017-09-20T12:12:15Z</time>
      </trkpt>
      <trkpt lat="38.016128875315189" lon="12.511922176927328">
        <ele>8.789999999999999</ele>
        <time>2017-09-20T12:12:27Z</time>
      </trkpt>
      <trkpt lat="38.0161611456424" lon="12.51197749748826">
        <ele>8.310000000000001</ele>
        <time>2017-09-20T12:12:38Z</time>
      </trkpt>
      <trkpt lat="38.01617044955492" lon="12.511982191354036">
        <ele>8.310000000000001</ele>
        <time>2017-09-20T12:12:39Z</time>
      </trkpt>
      <trkpt lat="38.016222752630711" lon="12.512010438367724">
        <ele>8.310000000000001</ele>
        <time>2017-09-20T12:12:43Z</time>
      </trkpt>
      <trkpt lat="38.01629357971251" lon="12.512046564370394">
        <ele>8.310000000000001</ele>
        <time>2017-09-20T12:12:49Z</time>
      </trkpt>
      <trkpt lat="38.016323922201991" lon="12.512064920738339">
        <ele>9.75</ele>
        <time>2017-09-20T12:13:00Z</time>
      </trkpt>
      <trkpt lat="38.016568338498473" lon="12.511928295716643">
        <ele>10.710000000000001</ele>
        <time>2017-09-20T12:13:14Z</time>
      </trkpt>
      <trkpt lat="38.016669005155563" lon="12.51177079975605">
        <ele>11.67</ele>
        <time>2017-09-20T12:13:24Z</time>
      </trkpt>
      <trkpt lat="38.016711082309484" lon="12.511747246608138">
        <ele>12.15</ele>
        <time>2017-09-20T12:13:29Z</time>
      </trkpt>
      <trkpt lat="38.016832116991282" lon="12.511724196374416">
        <ele>12.15</ele>
        <time>2017-09-20T12:13:39Z</time>
      </trkpt>
      <trkpt lat="38.016979470849037" lon="12.511661667376757">
        <ele>12.15</ele>
        <time>2017-09-20T12:13:52Z</time>
      </trkpt>
      <trkpt lat="38.017023727297783" lon="12.511650770902634">
        <ele>11.67</ele>
        <time>2017-09-20T12:13:58Z</time>
      </trkpt>
      <trkpt lat="38.017112324014306" lon="12.511634929105639">
        <ele>10.710000000000001</ele>
        <time>2017-09-20T12:14:05Z</time>
      </trkpt>
      <trkpt lat="38.017250457778573" lon="12.511582458391786">
        <ele>9.75</ele>
        <time>2017-09-20T12:14:17Z</time>
      </trkpt>
      <trkpt lat="38.017309466376901" lon="12.511543147265911">
        <ele>8.789999999999999</ele>
        <time>2017-09-20T12:14:23Z</time>
      </trkpt>
      <trkpt lat="38.017414910718799" lon="12.511535352095962">
        <ele>7.83</ele>
        <time>2017-09-20T12:14:36Z</time>
      </trkpt>
      <trkpt lat="38.017431255429983" lon="12.51156410202384">
        <ele>7.83</ele>
        <time>2017-09-20T12:14:45Z</time>
      </trkpt>
      <trkpt lat="38.017511051148176" lon="12.511688908562064">
        <ele>7.83</ele>
        <time>2017-09-20T12:14:58Z</time>
      </trkpt>
      <trkpt lat="38.017521947622299" lon="12.511702151969075">
        <ele>7.83</ele>
        <time>2017-09-20T12:15:13Z</time>
      </trkpt>
      <trkpt lat="38.017539549618959" lon="12.511675581336021">
        <ele>8.310000000000001</ele>
        <time>2017-09-20T12:15:35Z</time>
      </trkpt>
      <trkpt lat="38.017553631216288" lon="12.511692764237523">
        <ele>8.310000000000001</ele>
        <time>2017-09-20T12:15:49Z</time>
      </trkpt>
      <trkpt lat="38.017569137737155" lon="12.511740960180759">
        <ele>8.310000000000001</ele>
        <time>2017-09-20T12:16:10Z</time>
      </trkpt>
      <trkpt lat="38.017458245158195" lon="12.511618416756392">
        <ele>7.35</ele>
        <time>2017-09-20T12:16:21Z</time>
      </trkpt>
      <trkpt lat="38.017414659261703" lon="12.511543817818165">
        <ele>7.83</ele>
        <time>2017-09-20T12:16:28Z</time>
      </trkpt>
      <trkpt lat="38.017416670918465" lon="12.511566868051887">
        <ele>8.310000000000001</ele>
        <time>2017-09-20T12:16:36Z</time>
      </trkpt>
      <trkpt lat="38.01737442612648" lon="12.511503752321005">
        <ele>7.35</ele>
        <time>2017-09-20T12:16:41Z</time>
      </trkpt>
      <trkpt lat="38.017311561852694" lon="12.511359751224518">
        <ele>7.83</ele>
        <time>2017-09-20T12:16:51Z</time>
      </trkpt>
      <trkpt lat="38.017231179401278" lon="12.511200914159417">
        <ele>7.83</ele>
        <time>2017-09-20T12:17:02Z</time>
      </trkpt>
      <trkpt lat="38.017107713967562" lon="12.511091530323029">
        <ele>7.35</ele>
        <time>2017-09-20T12:17:13Z</time>
      </trkpt>
      <trkpt lat="38.017088519409299" lon="12.510920958593488">
        <ele>6.87</ele>
        <time>2017-09-20T12:17:23Z</time>
      </trkpt>
      <trkpt lat="38.017065972089767" lon="12.51079305075109">
        <ele>7.35</ele>
        <time>2017-09-20T12:17:31Z</time>
      </trkpt>
      <trkpt lat="38.016993217170238" lon="12.510638572275639">
        <ele>6.39</ele>
        <time>2017-09-20T12:17:43Z</time>
      </trkpt>
      <trkpt lat="38.016965221613646" lon="12.510565984994173">
        <ele>6.39</ele>
        <time>2017-09-20T12:17:48Z</time>
      </trkpt>
      <trkpt lat="38.016898669302464" lon="12.510499600321054">
        <ele>6.39</ele>
        <time>2017-09-20T12:17:55Z</time>
      </trkpt>
      <trkpt lat="38.016894729807973" lon="12.510440172627568">
        <ele>7.83</ele>
        <time>2017-09-20T12:17:59Z</time>
      </trkpt>
      <trkpt lat="38.016850640997291" lon="12.510262476280332">
        <ele>6.39</ele>
        <time>2017-09-20T12:18:13Z</time>
      </trkpt>
      <trkpt lat="38.016983661800623" lon="12.510280748829246">
        <ele>6.39</ele>
        <time>2017-09-20T12:18:24Z</time>
      </trkpt>
      <trkpt lat="38.016889868304133" lon="12.510186452418566">
        <ele>6.87</ele>
        <time>2017-09-20T12:18:39Z</time>
      </trkpt>
      <trkpt lat="38.016965473070741" lon="12.510257279500365">
        <ele>6.39</ele>
        <time>2017-09-20T12:19:18Z</time>
      </trkpt>
      <trkpt lat="38.016982488334179" lon="12.510355431586504">
        <ele>5.91</ele>
        <time>2017-09-20T12:19:34Z</time>
      </trkpt>
      <trkpt lat="38.016978800296783" lon="12.510337326675653">
        <ele>5.91</ele>
        <time>2017-09-20T12:19:50Z</time>
      </trkpt>
      <trkpt lat="38.016968239098787" lon="12.510331543162465">
        <ele>6.87</ele>
        <time>2017-09-20T12:20:11Z</time>
      </trkpt>
      <trkpt lat="38.016961365938187" lon="12.510307990014553">
        <ele>8.310000000000001</ele>
        <time>2017-09-20T12:20:24Z</time>
      </trkpt>
      <trkpt lat="38.016954995691776" lon="12.510329531505704">
        <ele>6.87</ele>
        <time>2017-09-20T12:20:46Z</time>
      </trkpt>
      <trkpt lat="38.016957761719823" lon="12.510383510962129">
        <ele>6.87</ele>
        <time>2017-09-20T12:21:03Z</time>
      </trkpt>
      <trkpt lat="38.016982907429338" lon="12.510462300851941">
        <ele>7.35</ele>
        <time>2017-09-20T12:21:27Z</time>
      </trkpt>
      <trkpt lat="38.016962790861726" lon="12.510295836254954">
        <ele>7.83</ele>
        <time>2017-09-20T12:21:46Z</time>
      </trkpt>
      <trkpt lat="38.016918199136853" lon="12.510304218158126">
        <ele>7.83</ele>
        <time>2017-09-20T12:22:10Z</time>
      </trkpt>
      <trkpt lat="38.016959857195616" lon="12.510235821828246">
        <ele>8.310000000000001</ele>
        <time>2017-09-20T12:22:31Z</time>
      </trkpt>
      <trkpt lat="38.016927754506469" lon="12.510253256186843">
        <ele>8.310000000000001</ele>
        <time>2017-09-20T12:22:57Z</time>
      </trkpt>
      <trkpt lat="38.016904452815652" lon="12.510263146832585">
        <ele>8.310000000000001</ele>
        <time>2017-09-20T12:23:20Z</time>
      </trkpt>
      <trkpt lat="38.016915014013648" lon="12.510292986407876">
        <ele>8.310000000000001</ele>
        <time>2017-09-20T12:23:43Z</time>
      </trkpt>
      <trkpt lat="38.016954828053713" lon="12.510272366926074">
        <ele>8.789999999999999</ele>
        <time>2017-09-20T12:24:07Z</time>
      </trkpt>
      <trkpt lat="38.016946194693446" lon="12.51026775687933">
        <ele>8.789999999999999</ele>
        <time>2017-09-20T12:24:35Z</time>
      </trkpt>
      <trkpt lat="38.016966981813312" lon="12.510279240086675">
        <ele>8.789999999999999</ele>
        <time>2017-09-20T12:25:02Z</time>
      </trkpt>
      <trkpt lat="38.016951391473413" lon="12.510303966701031">
        <ele>9.27</ele>
        <time>2017-09-20T12:25:26Z</time>
      </trkpt>
      <trkpt lat="38.016913002356887" lon="12.510319305583835">
        <ele>10.23</ele>
        <time>2017-09-20T12:25:48Z</time>
      </trkpt>
      <trkpt lat="38.01690679974854" lon="12.510286448523402">
        <ele>9.75</ele>
        <time>2017-09-20T12:26:05Z</time>
      </trkpt>
      <trkpt lat="38.016891293227673" lon="12.510263063013554">
        <ele>9.75</ele>
        <time>2017-09-20T12:26:24Z</time>
      </trkpt>
      <trkpt lat="38.016866818070412" lon="12.510285945609212">
        <ele>11.19</ele>
        <time>2017-09-20T12:26:31Z</time>
      </trkpt>
      <trkpt lat="38.016879642382264" lon="12.51029466278851">
        <ele>9.75</ele>
        <time>2017-09-20T12:26:53Z</time>
      </trkpt>
      <trkpt lat="38.016878636553884" lon="12.51027999445796">
        <ele>10.23</ele>
        <time>2017-09-20T12:27:13Z</time>
      </trkpt>
      <trkpt lat="38.016893304884434" lon="12.510284772142768">
        <ele>10.23</ele>
        <time>2017-09-20T12:27:37Z</time>
      </trkpt>
      <trkpt lat="38.016915516927838" lon="12.510289549827576">
        <ele>10.710000000000001</ele>
        <time>2017-09-20T12:28:01Z</time>
      </trkpt>
      <trkpt lat="38.016855167225003" lon="12.510310085490346">
        <ele>11.19</ele>
        <time>2017-09-20T12:28:25Z</time>
      </trkpt>
      <trkpt lat="38.016858771443367" lon="12.510298853740096">
        <ele>10.710000000000001</ele>
        <time>2017-09-20T12:28:49Z</time>
      </trkpt>
      <trkpt lat="38.016944518312812" lon="12.510263063013554">
        <ele>11.19</ele>
        <time>2017-09-20T12:29:02Z</time>
      </trkpt>
      <trkpt lat="38.016919959336519" lon="12.510279156267643">
        <ele>11.19</ele>
        <time>2017-09-20T12:29:22Z</time>
      </trkpt>
      <trkpt lat="38.016972346231341" lon="12.510277731344104">
        <ele>11.19</ele>
        <time>2017-09-20T12:29:39Z</time>
      </trkpt>
      <trkpt lat="38.016959941014647" lon="12.510275300592184">
        <ele>11.67</ele>
        <time>2017-09-20T12:29:56Z</time>
      </trkpt>
      <trkpt lat="38.016929011791945" lon="12.510306648910046">
        <ele>11.19</ele>
        <time>2017-09-20T12:30:15Z</time>
      </trkpt>
      <trkpt lat="38.016883078962564" lon="12.510312935337424">
        <ele>11.19</ele>
        <time>2017-09-20T12:30:34Z</time>
      </trkpt>
      <trkpt lat="38.0168691650033" lon="12.510322658345103">
        <ele>11.67</ele>
        <time>2017-09-20T12:30:57Z</time>
      </trkpt>
      <trkpt lat="38.016869919374585" lon="12.510319389402866">
        <ele>11.67</ele>
        <time>2017-09-20T12:31:20Z</time>
      </trkpt>
      <trkpt lat="38.016864806413651" lon="12.510295920073986">
        <ele>11.67</ele>
        <time>2017-09-20T12:31:41Z</time>
      </trkpt>
      <trkpt lat="38.016809988766909" lon="12.510264068841934">
        <ele>12.15</ele>
        <time>2017-09-20T12:31:52Z</time>
      </trkpt>
      <trkpt lat="38.016804708167911" lon="12.510307570919394">
        <ele>12.15</ele>
        <time>2017-09-20T12:32:08Z</time>
      </trkpt>
      <trkpt lat="38.016813928261399" lon="12.510308576747775">
        <ele>12.15</ele>
        <time>2017-09-20T12:32:26Z</time>
      </trkpt>
      <trkpt lat="38.016867488622665" lon="12.510292064398527">
        <ele>11.67</ele>
        <time>2017-09-20T12:32:40Z</time>
      </trkpt>
      <trkpt lat="38.016880312934518" lon="12.510271612554789">
        <ele>11.67</ele>
        <time>2017-09-20T12:32:56Z</time>
      </trkpt>
      <trkpt lat="38.01681149750948" lon="12.510250322520733">
        <ele>11.67</ele>
        <time>2017-09-20T12:33:22Z</time>
      </trkpt>
      <trkpt lat="38.016839325428009" lon="12.510230792686343">
        <ele>11.67</ele>
        <time>2017-09-20T12:33:44Z</time>
      </trkpt>
      <trkpt lat="38.016910823062062" lon="12.510257195681334">
        <ele>13.119999999999999</ele>
        <time>2017-09-20T12:34:06Z</time>
      </trkpt>
      <trkpt lat="38.016867320984602" lon="12.51025996170938">
        <ele>11.67</ele>
        <time>2017-09-20T12:34:25Z</time>
      </trkpt>
      <trkpt lat="38.016925826668739" lon="12.510267002508044">
        <ele>12.15</ele>
        <time>2017-09-20T12:34:48Z</time>
      </trkpt>
      <trkpt lat="38.016899088397622" lon="12.510267337784171">
        <ele>12.15</ele>
        <time>2017-09-20T12:35:08Z</time>
      </trkpt>
      <trkpt lat="38.016949882730842" lon="12.510275468230247">
        <ele>12.630000000000001</ele>
        <time>2017-09-20T12:35:26Z</time>
      </trkpt>
      <trkpt lat="38.016882827505469" lon="12.510268846526742">
        <ele>12.15</ele>
        <time>2017-09-20T12:35:44Z</time>
      </trkpt>
      <trkpt lat="38.016883498057723" lon="12.51026188954711">
        <ele>12.630000000000001</ele>
        <time>2017-09-20T12:36:06Z</time>
      </trkpt>
      <trkpt lat="38.016867823898792" lon="12.510257111862302">
        <ele>12.630000000000001</ele>
        <time>2017-09-20T12:36:23Z</time>
      </trkpt>
      <trkpt lat="38.016881654039025" lon="12.51027119345963">
        <ele>12.630000000000001</ele>
        <time>2017-09-20T12:36:35Z</time>
      </trkpt>
      <trkpt lat="38.017021212726831" lon="12.510440843179822">
        <ele>12.630000000000001</ele>
        <time>2017-09-20T12:36:48Z</time>
      </trkpt>
      <trkpt lat="38.017019284889102" lon="12.510456936433911">
        <ele>12.630000000000001</ele>
        <time>2017-09-20T12:36:49Z</time>
      </trkpt>
      <trkpt lat="38.017043676227331" lon="12.51064158976078">
        <ele>13.119999999999999</ele>
        <time>2017-09-20T12:37:03Z</time>
      </trkpt>
      <trkpt lat="38.017089860513806" lon="12.510795397683978">
        <ele>13.6</ele>
        <time>2017-09-20T12:37:15Z</time>
      </trkpt>
      <trkpt lat="38.017143420875072" lon="12.510957419872284">
        <ele>14.08</ele>
        <time>2017-09-20T12:37:26Z</time>
      </trkpt>
      <trkpt lat="38.017189856618643" lon="12.511073090136051">
        <ele>13.6</ele>
        <time>2017-09-20T12:37:37Z</time>
      </trkpt>
      <trkpt lat="38.017224138602614" lon="12.511123549193144">
        <ele>13.6</ele>
        <time>2017-09-20T12:37:41Z</time>
      </trkpt>
      <trkpt lat="38.017351375892758" lon="12.511362852528691">
        <ele>14.08</ele>
        <time>2017-09-20T12:37:59Z</time>
      </trkpt>
      <trkpt lat="38.017403930425644" lon="12.51148447394371">
        <ele>14.08</ele>
        <time>2017-09-20T12:38:09Z</time>
      </trkpt>
      <trkpt lat="38.017494790256023" lon="12.511700727045536">
        <ele>14.08</ele>
        <time>2017-09-20T12:38:23Z</time>
      </trkpt>
      <trkpt lat="38.017545500770211" lon="12.511874483898282">
        <ele>14.08</ele>
        <time>2017-09-20T12:38:36Z</time>
      </trkpt>
      <trkpt lat="38.017616495490074" lon="12.512054610997438">
        <ele>14.08</ele>
        <time>2017-09-20T12:38:49Z</time>
      </trkpt>
      <trkpt lat="38.017686400562525" lon="12.512172209098935">
        <ele>13.6</ele>
        <time>2017-09-20T12:38:59Z</time>
      </trkpt>
      <trkpt lat="38.017741972580552" lon="12.512240437790751">
        <ele>13.6</ele>
        <time>2017-09-20T12:39:07Z</time>
      </trkpt>
      <trkpt lat="38.017802741378546" lon="12.512425510212779">
        <ele>13.6</ele>
        <time>2017-09-20T12:39:20Z</time>
      </trkpt>
      <trkpt lat="38.017846997827291" lon="12.512526344507933">
        <ele>13.6</ele>
        <time>2017-09-20T12:39:29Z</time>
      </trkpt>
      <trkpt lat="38.017858229577541" lon="12.51256724819541">
        <ele>13.6</ele>
        <time>2017-09-20T12:39:32Z</time>
      </trkpt>
      <trkpt lat="38.017939114943147" lon="12.512765312567353">
        <ele>13.6</ele>
        <time>2017-09-20T12:39:46Z</time>
      </trkpt>
      <trkpt lat="38.018011450767517" lon="12.512897243723273">
        <ele>13.119999999999999</ele>
        <time>2017-09-20T12:39:57Z</time>
      </trkpt>
      <trkpt lat="38.018054533749819" lon="12.512950133532286">
        <ele>13.119999999999999</ele>
        <time>2017-09-20T12:40:02Z</time>
      </trkpt>
      <trkpt lat="38.018119493499398" lon="12.513111066073179">
        <ele>13.119999999999999</ele>
        <time>2017-09-20T12:40:13Z</time>
      </trkpt>
      <trkpt lat="38.018188811838627" lon="12.513336790725589">
        <ele>12.15</ele>
        <time>2017-09-20T12:40:28Z</time>
      </trkpt>
      <trkpt lat="38.018226949498057" lon="12.51340770162642">
        <ele>12.15</ele>
        <time>2017-09-20T12:40:33Z</time>
      </trkpt>
      <trkpt lat="38.018304230645299" lon="12.513571819290519">
        <ele>13.119999999999999</ele>
        <time>2017-09-20T12:40:46Z</time>
      </trkpt>
      <trkpt lat="38.018330130726099" lon="12.513638874515891">
        <ele>12.630000000000001</ele>
        <time>2017-09-20T12:40:50Z</time>
      </trkpt>
      <trkpt lat="38.018361814320087" lon="12.513766447082162">
        <ele>13.119999999999999</ele>
        <time>2017-09-20T12:40:58Z</time>
      </trkpt>
      <trkpt lat="38.018399029970169" lon="12.514038272202015">
        <ele>12.630000000000001</ele>
        <time>2017-09-20T12:41:15Z</time>
      </trkpt>
      <trkpt lat="38.018435323610902" lon="12.514286125078797">
        <ele>12.15</ele>
        <time>2017-09-20T12:41:31Z</time>
      </trkpt>
      <trkpt lat="38.01844596862793" lon="12.51445041038096">
        <ele>12.15</ele>
        <time>2017-09-20T12:41:42Z</time>
      </trkpt>
      <trkpt lat="38.018445465713739" lon="12.514569433405995">
        <ele>12.15</ele>
        <time>2017-09-20T12:41:49Z</time>
      </trkpt>
      <trkpt lat="38.018455356359482" lon="12.514724750071764">
        <ele>12.15</ele>
        <time>2017-09-20T12:41:59Z</time>
      </trkpt>
      <trkpt lat="38.018478071317077" lon="12.514928849413991">
        <ele>12.15</ele>
        <time>2017-09-20T12:42:13Z</time>
      </trkpt>
      <trkpt lat="38.018485531210899" lon="12.515036473050714">
        <ele>12.15</ele>
        <time>2017-09-20T12:42:21Z</time>
      </trkpt>
      <trkpt lat="38.018581420183182" lon="12.515187095850706">
        <ele>11.67</ele>
        <time>2017-09-20T12:42:34Z</time>
      </trkpt>
      <trkpt lat="38.018622156232595" lon="12.515352889895439">
        <ele>11.67</ele>
        <time>2017-09-20T12:42:47Z</time>
      </trkpt>
      <trkpt lat="38.018641769886017" lon="12.51553712412715">
        <ele>11.19</ele>
        <time>2017-09-20T12:43:01Z</time>
      </trkpt>
      <trkpt lat="38.018659874796867" lon="12.515614572912455">
        <ele>11.19</ele>
        <time>2017-09-20T12:43:07Z</time>
      </trkpt>
      <trkpt lat="38.018702119588852" lon="12.515714485198259">
        <ele>11.19</ele>
        <time>2017-09-20T12:43:17Z</time>
      </trkpt>
      <trkpt lat="38.018734976649284" lon="12.515835519880056">
        <ele>11.19</ele>
        <time>2017-09-20T12:43:27Z</time>
      </trkpt>
      <trkpt lat="38.018771102651954" lon="12.516023358330131">
        <ele>10.710000000000001</ele>
        <time>2017-09-20T12:43:39Z</time>
      </trkpt>
      <trkpt lat="38.018770515918732" lon="12.516056802123785">
        <ele>10.710000000000001</ele>
        <time>2017-09-20T12:43:41Z</time>
      </trkpt>
      <trkpt lat="38.018796164542437" lon="12.516233241185546">
        <ele>10.710000000000001</ele>
        <time>2017-09-20T12:43:51Z</time>
      </trkpt>
      <trkpt lat="38.018810749053955" lon="12.516372129321098">
        <ele>10.710000000000001</ele>
        <time>2017-09-20T12:44:01Z</time>
      </trkpt>
      <trkpt lat="38.018926922231913" lon="12.516462570056319">
        <ele>10.710000000000001</ele>
        <time>2017-09-20T12:44:13Z</time>
      </trkpt>
      <trkpt lat="38.019008226692677" lon="12.516514034941792">
        <ele>10.23</ele>
        <time>2017-09-20T12:44:21Z</time>
      </trkpt>
      <trkpt lat="38.019067067652941" lon="12.516768760979176">
        <ele>9.75</ele>
        <time>2017-09-20T12:44:36Z</time>
      </trkpt>
      <trkpt lat="38.019138397648931" lon="12.516989624127746">
        <ele>9.27</ele>
        <time>2017-09-20T12:44:50Z</time>
      </trkpt>
      <trkpt lat="38.01921701990068" lon="12.51723219640553">
        <ele>9.75</ele>
        <time>2017-09-20T12:45:05Z</time>
      </trkpt>
      <trkpt lat="38.019230850040913" lon="12.517412155866623">
        <ele>9.27</ele>
        <time>2017-09-20T12:45:16Z</time>
      </trkpt>
      <trkpt lat="38.019259013235569" lon="12.517473008483648">
        <ele>9.27</ele>
        <time>2017-09-20T12:45:21Z</time>
      </trkpt>
      <trkpt lat="38.019277369603515" lon="12.517494047060609">
        <ele>9.27</ele>
        <time>2017-09-20T12:45:23Z</time>
      </trkpt>
      <trkpt lat="38.019332019612193" lon="12.517525982111692">
        <ele>9.27</ele>
        <time>2017-09-20T12:45:28Z</time>
      </trkpt>
      <trkpt lat="38.019406702369452" lon="12.517523635178804">
        <ele>8.310000000000001</ele>
        <time>2017-09-20T12:45:33Z</time>
      </trkpt>
      <trkpt lat="38.01941592246294" lon="12.517560683190823">
        <ele>8.789999999999999</ele>
        <time>2017-09-20T12:45:37Z</time>
      </trkpt>
      <trkpt lat="38.019403014332056" lon="12.517563197761774">
        <ele>10.23</ele>
        <time>2017-09-20T12:45:43Z</time>
      </trkpt>
      <trkpt lat="38.019389100372791" lon="12.517587756738067">
        <ele>8.789999999999999</ele>
        <time>2017-09-20T12:45:48Z</time>
      </trkpt>
    </trkseg>
  </trk>

  <trk>
    <name>2017-09-20Erice</name>
    <extensions>
      <gpxx:TrackExtension>
        <gpxx:DisplayColor>Yellow</gpxx:DisplayColor>
      </gpxx:TrackExtension>
      <gpxtrkx:TrackStatsExtension xmlns:gpxtrkx="http://www.garmin.com/xmlschemas/TrackStatsExtension/v1">
        <gpxtrkx:Distance>3911</gpxtrkx:Distance>
        <gpxtrkx:TotalElapsedTime>6919</gpxtrkx:TotalElapsedTime>
        <gpxtrkx:MovingTime>4126</gpxtrkx:MovingTime>
        <gpxtrkx:StoppedTime>2777</gpxtrkx:StoppedTime>
        <gpxtrkx:MovingSpeed>1</gpxtrkx:MovingSpeed>
        <gpxtrkx:MaxSpeed>2</gpxtrkx:MaxSpeed>
        <gpxtrkx:MaxElevation>764</gpxtrkx:MaxElevation>
        <gpxtrkx:MinElevation>716</gpxtrkx:MinElevation>
        <gpxtrkx:Ascent>83</gpxtrkx:Ascent>
        <gpxtrkx:Descent>82</gpxtrkx:Descent>
        <gpxtrkx:AvgAscentRate>0</gpxtrkx:AvgAscentRate>
        <gpxtrkx:MaxAscentRate>0</gpxtrkx:MaxAscentRate>
        <gpxtrkx:AvgDescentRate>0</gpxtrkx:AvgDescentRate>
        <gpxtrkx:MaxDescentRate>-0</gpxtrkx:MaxDescentRate>
      </gpxtrkx:TrackStatsExtension>
    </extensions>
    <trkseg>
      <trkpt lat="38.036123234778643" lon="12.583158127963543">
        <ele>717.27999999999997</ele>
        <time>2017-09-20T13:55:01Z</time>
      </trkpt>
      <trkpt lat="38.036120971664786" lon="12.583154439926147">
        <ele>717.27999999999997</ele>
        <time>2017-09-20T13:55:02Z</time>
      </trkpt>
      <trkpt lat="38.036112086847425" lon="12.583152092993259">
        <ele>715.84000000000003</ele>
        <time>2017-09-20T13:55:07Z</time>
      </trkpt>
      <trkpt lat="38.036114769056439" lon="12.583156870678067">
        <ele>719.20000000000005</ele>
        <time>2017-09-20T13:55:10Z</time>
      </trkpt>
      <trkpt lat="38.036118037998676" lon="12.58315946906805">
        <ele>717.27999999999997</ele>
        <time>2017-09-20T13:55:11Z</time>
      </trkpt>
      <trkpt lat="38.036137148737907" lon="12.583159049972892">
        <ele>717.27999999999997</ele>
        <time>2017-09-20T13:55:27Z</time>
      </trkpt>
      <trkpt lat="38.03614653646946" lon="12.583160726353526">
        <ele>717.27999999999997</ele>
        <time>2017-09-20T13:55:41Z</time>
      </trkpt>
      <trkpt lat="38.036136142909527" lon="12.583150416612625">
        <ele>716.79999999999995</ele>
        <time>2017-09-20T13:56:00Z</time>
      </trkpt>
      <trkpt lat="38.036130862310529" lon="12.583142118528485">
        <ele>716.79999999999995</ele>
        <time>2017-09-20T13:56:24Z</time>
      </trkpt>
      <trkpt lat="38.036133293062449" lon="12.583164414390922">
        <ele>716.79999999999995</ele>
        <time>2017-09-20T13:56:47Z</time>
      </trkpt>
      <trkpt lat="38.036116696894169" lon="12.583158295601606">
        <ele>716.79999999999995</ele>
        <time>2017-09-20T13:57:10Z</time>
      </trkpt>
      <trkpt lat="38.036081409081817" lon="12.583146980032325">
        <ele>717.27999999999997</ele>
        <time>2017-09-20T13:57:29Z</time>
      </trkpt>
      <trkpt lat="38.036103453487158" lon="12.583142202347517">
        <ele>717.27999999999997</ele>
        <time>2017-09-20T13:57:49Z</time>
      </trkpt>
      <trkpt lat="38.036063052713871" lon="12.583093587309122">
        <ele>717.75999999999999</ele>
        <time>2017-09-20T13:58:10Z</time>
      </trkpt>
      <trkpt lat="38.036049222573638" lon="12.583077996969223">
        <ele>717.27999999999997</ele>
        <time>2017-09-20T13:58:29Z</time>
      </trkpt>
      <trkpt lat="38.036049474030733" lon="12.583068273961544">
        <ele>717.75999999999999</ele>
        <time>2017-09-20T13:58:51Z</time>
      </trkpt>
      <trkpt lat="38.036039248108864" lon="12.583064753562212">
        <ele>718.72000000000003</ele>
        <time>2017-09-20T13:59:13Z</time>
      </trkpt>
      <trkpt lat="38.03603857755661" lon="12.583059556782246">
        <ele>718.24000000000001</ele>
        <time>2017-09-20T13:59:37Z</time>
      </trkpt>
      <trkpt lat="38.036046037450433" lon="12.583125857636333">
        <ele>718.24000000000001</ele>
        <time>2017-09-20T13:59:49Z</time>
      </trkpt>
      <trkpt lat="38.036054670810699" lon="12.583186291158199">
        <ele>719.20000000000005</ele>
        <time>2017-09-20T14:00:00Z</time>
      </trkpt>
      <trkpt lat="38.036133628338575" lon="12.58335879072547">
        <ele>719.67999999999995</ele>
        <time>2017-09-20T14:00:13Z</time>
      </trkpt>
      <trkpt lat="38.036168664693832" lon="12.583426013588905">
        <ele>720.64999999999998</ele>
        <time>2017-09-20T14:00:25Z</time>
      </trkpt>
      <trkpt lat="38.036219794303179" lon="12.583535062149167">
        <ele>722.09000000000003</ele>
        <time>2017-09-20T14:00:41Z</time>
      </trkpt>
      <trkpt lat="38.036239156499505" lon="12.583557609468699">
        <ele>722.57000000000005</ele>
        <time>2017-09-20T14:00:55Z</time>
      </trkpt>
      <trkpt lat="38.03629606962204" lon="12.583587951958179">
        <ele>723.04999999999995</ele>
        <time>2017-09-20T14:01:10Z</time>
      </trkpt>
      <trkpt lat="38.03631903603673" lon="12.583576468750834">
        <ele>723.04999999999995</ele>
        <time>2017-09-20T14:01:13Z</time>
      </trkpt>
      <trkpt lat="38.03640553727746" lon="12.583599435165524">
        <ele>723.52999999999997</ele>
        <time>2017-09-20T14:01:27Z</time>
      </trkpt>
      <trkpt lat="38.036480722948909" lon="12.583611337468028">
        <ele>724.49000000000001</ele>
        <time>2017-09-20T14:01:40Z</time>
      </trkpt>
      <trkpt lat="38.036550711840391" lon="12.583519471809268">
        <ele>724.49000000000001</ele>
        <time>2017-09-20T14:01:51Z</time>
      </trkpt>
      <trkpt lat="38.036587424576283" lon="12.58344822563231">
        <ele>725.92999999999995</ele>
        <time>2017-09-20T14:02:00Z</time>
      </trkpt>
      <trkpt lat="38.036595722660422" lon="12.583417128771544">
        <ele>726.40999999999997</ele>
        <time>2017-09-20T14:02:08Z</time>
      </trkpt>
      <trkpt lat="38.036565631628036" lon="12.583430204540491">
        <ele>726.40999999999997</ele>
        <time>2017-09-20T14:02:19Z</time>
      </trkpt>
      <trkpt lat="38.036573510617018" lon="12.58342576213181">
        <ele>725.92999999999995</ele>
        <time>2017-09-20T14:02:29Z</time>
      </trkpt>
      <trkpt lat="38.036585664376616" lon="12.583442693576217">
        <ele>725.92999999999995</ele>
        <time>2017-09-20T14:02:41Z</time>
      </trkpt>
      <trkpt lat="38.036578791216016" lon="12.583427941426635">
        <ele>725.92999999999995</ele>
        <time>2017-09-20T14:02:49Z</time>
      </trkpt>
      <trkpt lat="38.036589436233044" lon="12.583427103236318">
        <ele>726.40999999999997</ele>
        <time>2017-09-20T14:03:02Z</time>
      </trkpt>
      <trkpt lat="38.036575773730874" lon="12.583443196490407">
        <ele>726.40999999999997</ele>
        <time>2017-09-20T14:03:16Z</time>
      </trkpt>
      <trkpt lat="38.036602679640055" lon="12.583472616970539">
        <ele>726.40999999999997</ele>
        <time>2017-09-20T14:03:24Z</time>
      </trkpt>
      <trkpt lat="38.036627406254411" lon="12.583527937531471">
        <ele>724.97000000000003</ele>
        <time>2017-09-20T14:03:28Z</time>
      </trkpt>
      <trkpt lat="38.036630842834711" lon="12.583555765450001">
        <ele>724.97000000000003</ele>
        <time>2017-09-20T14:03:30Z</time>
      </trkpt>
      <trkpt lat="38.036611145362258" lon="12.583671854808927">
        <ele>727.37</ele>
        <time>2017-09-20T14:03:41Z</time>
      </trkpt>
      <trkpt lat="38.036594716832042" lon="12.583702029660344">
        <ele>727.37</ele>
        <time>2017-09-20T14:03:45Z</time>
      </trkpt>
      <trkpt lat="38.036590022966266" lon="12.583722900599241">
        <ele>727.37</ele>
        <time>2017-09-20T14:03:47Z</time>
      </trkpt>
      <trkpt lat="38.036575438454747" lon="12.583771431818604">
        <ele>727.37</ele>
        <time>2017-09-20T14:03:57Z</time>
      </trkpt>
      <trkpt lat="38.036574432626367" lon="12.583771347999573">
        <ele>727.37</ele>
        <time>2017-09-20T14:03:58Z</time>
      </trkpt>
      <trkpt lat="38.036577701568604" lon="12.583893137052655">
        <ele>728.34000000000003</ele>
        <time>2017-09-20T14:04:09Z</time>
      </trkpt>
      <trkpt lat="38.036464629694819" lon="12.583944266662002">
        <ele>726.40999999999997</ele>
        <time>2017-09-20T14:04:23Z</time>
      </trkpt>
      <trkpt lat="38.036386091262102" lon="12.584033869206905">
        <ele>725.45000000000005</ele>
        <time>2017-09-20T14:04:38Z</time>
      </trkpt>
      <trkpt lat="38.036422720178962" lon="12.584142414852977">
        <ele>725.92999999999995</ele>
        <time>2017-09-20T14:04:53Z</time>
      </trkpt>
      <trkpt lat="38.036446692422032" lon="12.584194215014577">
        <ele>726.40999999999997</ele>
        <time>2017-09-20T14:05:06Z</time>
      </trkpt>
      <trkpt lat="38.036469742655754" lon="12.584296055138111">
        <ele>727.37</ele>
        <time>2017-09-20T14:05:19Z</time>
      </trkpt>
      <trkpt lat="38.036520117893815" lon="12.584337880834937">
        <ele>728.82000000000005</ele>
        <time>2017-09-20T14:05:31Z</time>
      </trkpt>
      <trkpt lat="38.036569319665432" lon="12.584437290206552">
        <ele>729.77999999999997</ele>
        <time>2017-09-20T14:05:48Z</time>
      </trkpt>
      <trkpt lat="38.036599410697818" lon="12.584572657942772">
        <ele>731.22000000000003</ele>
        <time>2017-09-20T14:06:03Z</time>
      </trkpt>
      <trkpt lat="38.03664936684072" lon="12.584740463644266">
        <ele>733.13999999999999</ele>
        <time>2017-09-20T14:06:23Z</time>
      </trkpt>
      <trkpt lat="38.036667555570602" lon="12.584923440590501">
        <ele>734.58000000000004</ele>
        <time>2017-09-20T14:06:36Z</time>
      </trkpt>
      <trkpt lat="38.036713069304824" lon="12.585022849962115">
        <ele>736.50999999999999</ele>
        <time>2017-09-20T14:06:49Z</time>
      </trkpt>
      <trkpt lat="38.036727150902152" lon="12.585042379796505">
        <ele>736.50999999999999</ele>
        <time>2017-09-20T14:06:51Z</time>
      </trkpt>
      <trkpt lat="38.036765037104487" lon="12.585164252668619">
        <ele>737.95000000000005</ele>
        <time>2017-09-20T14:07:04Z</time>
      </trkpt>
      <trkpt lat="38.036777190864086" lon="12.585270535200834">
        <ele>740.35000000000002</ele>
        <time>2017-09-20T14:07:18Z</time>
      </trkpt>
      <trkpt lat="38.036867463961244" lon="12.58534706197679">
        <ele>740.83000000000004</ele>
        <time>2017-09-20T14:07:31Z</time>
      </trkpt>
      <trkpt lat="38.036867044866085" lon="12.585364831611514">
        <ele>740.83000000000004</ele>
        <time>2017-09-20T14:07:45Z</time>
      </trkpt>
      <trkpt lat="38.036864195019007" lon="12.585354102775455">
        <ele>740.83000000000004</ele>
        <time>2017-09-20T14:07:53Z</time>
      </trkpt>
      <trkpt lat="38.036890430375934" lon="12.585408920422196">
        <ele>741.78999999999996</ele>
        <time>2017-09-20T14:08:03Z</time>
      </trkpt>
      <trkpt lat="38.036945080384612" lon="12.585476227104664">
        <ele>742.27999999999997</ele>
        <time>2017-09-20T14:08:15Z</time>
      </trkpt>
      <trkpt lat="38.037024540826678" lon="12.585573876276612">
        <ele>743.72000000000003</ele>
        <time>2017-09-20T14:08:29Z</time>
      </trkpt>
      <trkpt lat="38.037079526111484" lon="12.58567051962018">
        <ele>745.15999999999997</ele>
        <time>2017-09-20T14:08:43Z</time>
      </trkpt>
      <trkpt lat="38.037183796986938" lon="12.585751069709659">
        <ele>746.60000000000002</ele>
        <time>2017-09-20T14:08:58Z</time>
      </trkpt>
      <trkpt lat="38.037262167781591" lon="12.585844192653894">
        <ele>748.03999999999996</ele>
        <time>2017-09-20T14:09:10Z</time>
      </trkpt>
      <trkpt lat="38.037320170551538" lon="12.58593044243753">
        <ele>748.51999999999998</ele>
        <time>2017-09-20T14:09:21Z</time>
      </trkpt>
      <trkpt lat="38.037373311817646" lon="12.586002442985773">
        <ele>749.49000000000001</ele>
        <time>2017-09-20T14:09:31Z</time>
      </trkpt>
      <trkpt lat="38.03743215277791" lon="12.586107132956386">
        <ele>749.97000000000003</ele>
        <time>2017-09-20T14:09:42Z</time>
      </trkpt>
      <trkpt lat="38.037484120577574" lon="12.586210900917649">
        <ele>750.92999999999995</ele>
        <time>2017-09-20T14:09:56Z</time>
      </trkpt>
      <trkpt lat="38.037549331784248" lon="12.586266221478581">
        <ele>751.40999999999997</ele>
        <time>2017-09-20T14:10:09Z</time>
      </trkpt>
      <trkpt lat="38.037605658173561" lon="12.58636143989861">
        <ele>751.88999999999999</ele>
        <time>2017-09-20T14:10:22Z</time>
      </trkpt>
      <trkpt lat="38.037635749205947" lon="12.586452635005116">
        <ele>752.85000000000002</ele>
        <time>2017-09-20T14:10:36Z</time>
      </trkpt>
      <trkpt lat="38.037701547145844" lon="12.586515164002776">
        <ele>753.33000000000004</ele>
        <time>2017-09-20T14:10:50Z</time>
      </trkpt>
      <trkpt lat="38.037750832736492" lon="12.586589679121971">
        <ele>753.33000000000004</ele>
        <time>2017-09-20T14:11:02Z</time>
      </trkpt>
      <trkpt lat="38.037810428068042" lon="12.586660338565707">
        <ele>753.80999999999995</ele>
        <time>2017-09-20T14:11:15Z</time>
      </trkpt>
      <trkpt lat="38.037842782214284" lon="12.586708702147007">
        <ele>753.80999999999995</ele>
        <time>2017-09-20T14:11:27Z</time>
      </trkpt>
      <trkpt lat="38.037910424172878" lon="12.586743822321296">
        <ele>753.80999999999995</ele>
        <time>2017-09-20T14:11:39Z</time>
      </trkpt>
      <trkpt lat="38.037992063909769" lon="12.586774667724967">
        <ele>753.33000000000004</ele>
        <time>2017-09-20T14:11:53Z</time>
      </trkpt>
      <trkpt lat="38.038095328956842" lon="12.586840214207768">
        <ele>753.33000000000004</ele>
        <time>2017-09-20T14:12:09Z</time>
      </trkpt>
      <trkpt lat="38.038142183795571" lon="12.586881620809436">
        <ele>752.85000000000002</ele>
        <time>2017-09-20T14:12:20Z</time>
      </trkpt>
      <trkpt lat="38.038219213485718" lon="12.586959656327963">
        <ele>752.85000000000002</ele>
        <time>2017-09-20T14:12:31Z</time>
      </trkpt>
      <trkpt lat="38.038244443014264" lon="12.587006594985723">
        <ele>752.85000000000002</ele>
        <time>2017-09-20T14:12:38Z</time>
      </trkpt>
      <trkpt lat="38.038268499076366" lon="12.586988573893905">
        <ele>752.85000000000002</ele>
        <time>2017-09-20T14:12:51Z</time>
      </trkpt>
      <trkpt lat="38.038294482976198" lon="12.587011456489563">
        <ele>752.37</ele>
        <time>2017-09-20T14:13:02Z</time>
      </trkpt>
      <trkpt lat="38.038289453834295" lon="12.587098712101579">
        <ele>752.85000000000002</ele>
        <time>2017-09-20T14:13:11Z</time>
      </trkpt>
      <trkpt lat="38.038273360580206" lon="12.58716082200408">
        <ele>754.76999999999998</ele>
        <time>2017-09-20T14:13:21Z</time>
      </trkpt>
      <trkpt lat="38.038232205435634" lon="12.587225027382374">
        <ele>753.33000000000004</ele>
        <time>2017-09-20T14:13:31Z</time>
      </trkpt>
      <trkpt lat="38.03820320405066" lon="12.587314043194056">
        <ele>753.80999999999995</ele>
        <time>2017-09-20T14:13:44Z</time>
      </trkpt>
      <trkpt lat="38.038201946765184" lon="12.587446393445134">
        <ele>754.76999999999998</ele>
        <time>2017-09-20T14:14:00Z</time>
      </trkpt>
      <trkpt lat="38.038190295919776" lon="12.587502636015415">
        <ele>754.76999999999998</ele>
        <time>2017-09-20T14:14:17Z</time>
      </trkpt>
      <trkpt lat="38.038202282041311" lon="12.587664406746626">
        <ele>755.73000000000002</ele>
        <time>2017-09-20T14:14:34Z</time>
      </trkpt>
      <trkpt lat="38.038228433579206" lon="12.587790638208389">
        <ele>755.25</ele>
        <time>2017-09-20T14:14:49Z</time>
      </trkpt>
      <trkpt lat="38.038249304518104" lon="12.587883677333593">
        <ele>755.25</ele>
        <time>2017-09-20T14:15:06Z</time>
      </trkpt>
      <trkpt lat="38.038300853222609" lon="12.587859621271491">
        <ele>754.76999999999998</ele>
        <time>2017-09-20T14:15:20Z</time>
      </trkpt>
      <trkpt lat="38.038296662271023" lon="12.587885437533259">
        <ele>754.76999999999998</ele>
        <time>2017-09-20T14:15:34Z</time>
      </trkpt>
      <trkpt lat="38.038298841565847" lon="12.587897758930922">
        <ele>754.76999999999998</ele>
        <time>2017-09-20T14:15:47Z</time>
      </trkpt>
      <trkpt lat="38.038294399157166" lon="12.587941093370318">
        <ele>754.76999999999998</ele>
        <time>2017-09-20T14:16:07Z</time>
      </trkpt>
      <trkpt lat="38.038298087194562" lon="12.58798124268651">
        <ele>754.76999999999998</ele>
        <time>2017-09-20T14:16:23Z</time>
      </trkpt>
      <trkpt lat="38.038303703069687" lon="12.588007897138596">
        <ele>754.76999999999998</ele>
        <time>2017-09-20T14:16:39Z</time>
      </trkpt>
      <trkpt lat="38.038291214033961" lon="12.588015776127577">
        <ele>754.76999999999998</ele>
        <time>2017-09-20T14:16:57Z</time>
      </trkpt>
      <trkpt lat="38.038309151306748" lon="12.588021224364638">
        <ele>755.25</ele>
        <time>2017-09-20T14:17:19Z</time>
      </trkpt>
      <trkpt lat="38.038298087194562" lon="12.588025080040097">
        <ele>754.76999999999998</ele>
        <time>2017-09-20T14:17:39Z</time>
      </trkpt>
      <trkpt lat="38.038282748311758" lon="12.588035054504871">
        <ele>755.25</ele>
        <time>2017-09-20T14:17:55Z</time>
      </trkpt>
      <trkpt lat="38.038288364186883" lon="12.588009154424071">
        <ele>754.76999999999998</ele>
        <time>2017-09-20T14:18:11Z</time>
      </trkpt>
      <trkpt lat="38.038277886807919" lon="12.587976045906544">
        <ele>754.76999999999998</ele>
        <time>2017-09-20T14:18:28Z</time>
      </trkpt>
      <trkpt lat="38.038231702521443" lon="12.587949726730585">
        <ele>755.25</ele>
        <time>2017-09-20T14:18:40Z</time>
      </trkpt>
      <trkpt lat="38.038195660337806" lon="12.587918546050787">
        <ele>755.25</ele>
        <time>2017-09-20T14:18:54Z</time>
      </trkpt>
      <trkpt lat="38.038125587627292" lon="12.587896753102541">
        <ele>756.21000000000004</ele>
        <time>2017-09-20T14:19:06Z</time>
      </trkpt>
      <trkpt lat="38.038064483553171" lon="12.587891137227416">
        <ele>756.69000000000005</ele>
        <time>2017-09-20T14:19:16Z</time>
      </trkpt>
      <trkpt lat="38.038007151335478" lon="12.5879558455199">
        <ele>757.65999999999997</ele>
        <time>2017-09-20T14:19:26Z</time>
      </trkpt>
      <trkpt lat="38.037937665358186" lon="12.587929777801037">
        <ele>758.13999999999999</ele>
        <time>2017-09-20T14:19:37Z</time>
      </trkpt>
      <trkpt lat="38.037880836054683" lon="12.587928101420403">
        <ele>758.62</ele>
        <time>2017-09-20T14:19:46Z</time>
      </trkpt>
      <trkpt lat="38.037791149690747" lon="12.587915360927582">
        <ele>759.10000000000002</ele>
        <time>2017-09-20T14:19:59Z</time>
      </trkpt>
      <trkpt lat="38.037738343700767" lon="12.587916869670153">
        <ele>759.58000000000004</ele>
        <time>2017-09-20T14:20:09Z</time>
      </trkpt>
      <trkpt lat="38.037727950140834" lon="12.587893735617399">
        <ele>759.58000000000004</ele>
        <time>2017-09-20T14:20:14Z</time>
      </trkpt>
      <trkpt lat="38.037637760862708" lon="12.587859202176332">
        <ele>760.05999999999995</ele>
        <time>2017-09-20T14:20:25Z</time>
      </trkpt>
      <trkpt lat="38.037625439465046" lon="12.587853251025081">
        <ele>760.05999999999995</ele>
        <time>2017-09-20T14:20:31Z</time>
      </trkpt>
      <trkpt lat="38.037599455565214" lon="12.587929526343942">
        <ele>760.53999999999996</ele>
        <time>2017-09-20T14:20:41Z</time>
      </trkpt>
      <trkpt lat="38.037579338997602" lon="12.587867416441441">
        <ele>760.53999999999996</ele>
        <time>2017-09-20T14:20:55Z</time>
      </trkpt>
      <trkpt lat="38.037591576576233" lon="12.587783094495535">
        <ele>760.53999999999996</ele>
        <time>2017-09-20T14:21:09Z</time>
      </trkpt>
      <trkpt lat="38.037612531334162" lon="12.587819723412395">
        <ele>760.05999999999995</ele>
        <time>2017-09-20T14:21:18Z</time>
      </trkpt>
      <trkpt lat="38.037585206329823" lon="12.587818298488855">
        <ele>760.05999999999995</ele>
        <time>2017-09-20T14:21:29Z</time>
      </trkpt>
      <trkpt lat="38.037513457238674" lon="12.587770437821746">
        <ele>760.53999999999996</ele>
        <time>2017-09-20T14:21:39Z</time>
      </trkpt>
      <trkpt lat="38.037431566044688" lon="12.587772198021412">
        <ele>761.01999999999998</ele>
        <time>2017-09-20T14:21:50Z</time>
      </trkpt>
      <trkpt lat="38.037393428385258" lon="12.587797092273831">
        <ele>761.01999999999998</ele>
        <time>2017-09-20T14:21:55Z</time>
      </trkpt>
      <trkpt lat="38.037242218852043" lon="12.587893903255463">
        <ele>761.5</ele>
        <time>2017-09-20T14:22:11Z</time>
      </trkpt>
      <trkpt lat="38.037191675975919" lon="12.587923826649785">
        <ele>761.5</ele>
        <time>2017-09-20T14:22:25Z</time>
      </trkpt>
      <trkpt lat="38.037213301286101" lon="12.587882755324244">
        <ele>761.5</ele>
        <time>2017-09-20T14:22:44Z</time>
      </trkpt>
      <trkpt lat="38.037194106727839" lon="12.587876971811056">
        <ele>761.01999999999998</ele>
        <time>2017-09-20T14:23:04Z</time>
      </trkpt>
      <trkpt lat="38.037164518609643" lon="12.587993983179331">
        <ele>761.01999999999998</ele>
        <time>2017-09-20T14:23:15Z</time>
      </trkpt>
      <trkpt lat="38.037080783396959" lon="12.588030947372317">
        <ele>761.01999999999998</ele>
        <time>2017-09-20T14:23:28Z</time>
      </trkpt>
      <trkpt lat="38.037011800333858" lon="12.588075203821063">
        <ele>759.58000000000004</ele>
        <time>2017-09-20T14:23:39Z</time>
      </trkpt>
      <trkpt lat="38.036937620490789" lon="12.58815374225378">
        <ele>759.10000000000002</ele>
        <time>2017-09-20T14:23:50Z</time>
      </trkpt>
      <trkpt lat="38.036887999624014" lon="12.588226832449436">
        <ele>759.10000000000002</ele>
        <time>2017-09-20T14:23:58Z</time>
      </trkpt>
      <trkpt lat="38.036857740953565" lon="12.588306544348598">
        <ele>758.13999999999999</ele>
        <time>2017-09-20T14:24:09Z</time>
      </trkpt>
      <trkpt lat="38.036813316866755" lon="12.588427746668458">
        <ele>758.13999999999999</ele>
        <time>2017-09-20T14:24:21Z</time>
      </trkpt>
      <trkpt lat="38.036763528361917" lon="12.588543752208352">
        <ele>757.65999999999997</ele>
        <time>2017-09-20T14:24:32Z</time>
      </trkpt>
      <trkpt lat="38.036737125366926" lon="12.588657746091485">
        <ele>756.69000000000005</ele>
        <time>2017-09-20T14:24:44Z</time>
      </trkpt>
      <trkpt lat="38.036722792312503" lon="12.588705355301499">
        <ele>756.21000000000004</ele>
        <time>2017-09-20T14:24:55Z</time>
      </trkpt>
      <trkpt lat="38.036717176437378" lon="12.588781295344234">
        <ele>756.21000000000004</ele>
        <time>2017-09-20T14:25:03Z</time>
      </trkpt>
      <trkpt lat="38.036697981879115" lon="12.588874250650406">
        <ele>755.73000000000002</ele>
        <time>2017-09-20T14:25:12Z</time>
      </trkpt>
      <trkpt lat="38.03669823333621" lon="12.588886152952909">
        <ele>755.73000000000002</ele>
        <time>2017-09-20T14:25:13Z</time>
      </trkpt>
      <trkpt lat="38.03670653142035" lon="12.589055299758911">
        <ele>755.25</ele>
        <time>2017-09-20T14:25:25Z</time>
      </trkpt>
      <trkpt lat="38.036713991314173" lon="12.58923064917326">
        <ele>754.76999999999998</ele>
        <time>2017-09-20T14:25:37Z</time>
      </trkpt>
      <trkpt lat="38.036702759563923" lon="12.589273061603308">
        <ele>754.28999999999996</ele>
        <time>2017-09-20T14:25:40Z</time>
      </trkpt>
      <trkpt lat="38.036680463701487" lon="12.589342463761568">
        <ele>753.80999999999995</ele>
        <time>2017-09-20T14:25:45Z</time>
      </trkpt>
      <trkpt lat="38.036665208637714" lon="12.58943248540163">
        <ele>753.80999999999995</ele>
        <time>2017-09-20T14:25:57Z</time>
      </trkpt>
      <trkpt lat="38.03665766492486" lon="12.589569948613644">
        <ele>752.85000000000002</ele>
        <time>2017-09-20T14:26:10Z</time>
      </trkpt>
      <trkpt lat="38.036662610247731" lon="12.589610265567899">
        <ele>752.37</ele>
        <time>2017-09-20T14:26:21Z</time>
      </trkpt>
      <trkpt lat="38.03666110150516" lon="12.589705735445023">
        <ele>752.37</ele>
        <time>2017-09-20T14:26:34Z</time>
      </trkpt>
      <trkpt lat="38.036627825349569" lon="12.589754685759544">
        <ele>751.88999999999999</ele>
        <time>2017-09-20T14:26:44Z</time>
      </trkpt>
      <trkpt lat="38.036599662154913" lon="12.589820567518473">
        <ele>752.85000000000002</ele>
        <time>2017-09-20T14:26:54Z</time>
      </trkpt>
      <trkpt lat="38.036588514223695" lon="12.589839342981577">
        <ele>752.85000000000002</ele>
        <time>2017-09-20T14:26:56Z</time>
      </trkpt>
      <trkpt lat="38.036549957469106" lon="12.589936405420303">
        <ele>753.80999999999995</ele>
        <time>2017-09-20T14:27:06Z</time>
      </trkpt>
      <trkpt lat="38.036493044346571" lon="12.589952247217298">
        <ele>754.28999999999996</ele>
        <time>2017-09-20T14:27:12Z</time>
      </trkpt>
      <trkpt lat="38.036352647468448" lon="12.589988457038999">
        <ele>754.76999999999998</ele>
        <time>2017-09-20T14:27:26Z</time>
      </trkpt>
      <trkpt lat="38.036266062408686" lon="12.59002860635519">
        <ele>755.25</ele>
        <time>2017-09-20T14:27:36Z</time>
      </trkpt>
      <trkpt lat="38.036203784868121" lon="12.590102031826973">
        <ele>757.17999999999995</ele>
        <time>2017-09-20T14:27:47Z</time>
      </trkpt>
      <trkpt lat="38.036113930866122" lon="12.590216863900423">
        <ele>758.13999999999999</ele>
        <time>2017-09-20T14:28:00Z</time>
      </trkpt>
      <trkpt lat="38.036054167896509" lon="12.59032423608005">
        <ele>758.62</ele>
        <time>2017-09-20T14:28:12Z</time>
      </trkpt>
      <trkpt lat="38.036035560071468" lon="12.590369833633304">
        <ele>759.10000000000002</ele>
        <time>2017-09-20T14:28:16Z</time>
      </trkpt>
      <trkpt lat="38.035986023023725" lon="12.590490197762847">
        <ele>758.62</ele>
        <time>2017-09-20T14:28:26Z</time>
      </trkpt>
      <trkpt lat="38.035975126549602" lon="12.590562952682376">
        <ele>758.13999999999999</ele>
        <time>2017-09-20T14:28:34Z</time>
      </trkpt>
      <trkpt lat="38.035987364128232" lon="12.590628582984209">
        <ele>758.62</ele>
        <time>2017-09-20T14:28:43Z</time>
      </trkpt>
      <trkpt lat="38.035971438512206" lon="12.590672420337796">
        <ele>758.62</ele>
        <time>2017-09-20T14:28:48Z</time>
      </trkpt>
      <trkpt lat="38.036016533151269" lon="12.590727573260665">
        <ele>758.62</ele>
        <time>2017-09-20T14:29:00Z</time>
      </trkpt>
      <trkpt lat="38.036001026630402" lon="12.590763950720429">
        <ele>758.62</ele>
        <time>2017-09-20T14:29:14Z</time>
      </trkpt>
      <trkpt lat="38.036004211753607" lon="12.590820612385869">
        <ele>759.10000000000002</ele>
        <time>2017-09-20T14:29:22Z</time>
      </trkpt>
      <trkpt lat="38.036000188440084" lon="12.590823462232947">
        <ele>760.53999999999996</ele>
        <time>2017-09-20T14:29:31Z</time>
      </trkpt>
      <trkpt lat="38.036009408533573" lon="12.590832598507404">
        <ele>759.58000000000004</ele>
        <time>2017-09-20T14:29:46Z</time>
      </trkpt>
      <trkpt lat="38.036007899791002" lon="12.590837124735117">
        <ele>759.58000000000004</ele>
        <time>2017-09-20T14:30:01Z</time>
      </trkpt>
      <trkpt lat="38.036014772951603" lon="12.590816002339125">
        <ele>759.10000000000002</ele>
        <time>2017-09-20T14:30:15Z</time>
      </trkpt>
      <trkpt lat="38.03601804189384" lon="12.590818097814918">
        <ele>759.10000000000002</ele>
        <time>2017-09-20T14:30:25Z</time>
      </trkpt>
      <trkpt lat="38.036010582000017" lon="12.590819271281362">
        <ele>759.10000000000002</ele>
        <time>2017-09-20T14:30:42Z</time>
      </trkpt>
      <trkpt lat="38.035999685525894" lon="12.590803932398558">
        <ele>759.10000000000002</ele>
        <time>2017-09-20T14:31:01Z</time>
      </trkpt>
      <trkpt lat="38.035995410755277" lon="12.590739140287042">
        <ele>759.10000000000002</ele>
        <time>2017-09-20T14:31:12Z</time>
      </trkpt>
      <trkpt lat="38.035991722717881" lon="12.590732099488378">
        <ele>759.58000000000004</ele>
        <time>2017-09-20T14:31:14Z</time>
      </trkpt>
      <trkpt lat="38.035960625857115" lon="12.590702762827277">
        <ele>759.10000000000002</ele>
        <time>2017-09-20T14:31:24Z</time>
      </trkpt>
      <trkpt lat="38.03593791089952" lon="12.590698907151818">
        <ele>759.10000000000002</ele>
        <time>2017-09-20T14:31:41Z</time>
      </trkpt>
      <trkpt lat="38.035946879535913" lon="12.590713240206242">
        <ele>758.62</ele>
        <time>2017-09-20T14:32:00Z</time>
      </trkpt>
      <trkpt lat="38.035959368571639" lon="12.590712737292051">
        <ele>758.62</ele>
        <time>2017-09-20T14:32:14Z</time>
      </trkpt>
      <trkpt lat="38.035973450168967" lon="12.590716257691383">
        <ele>758.13999999999999</ele>
        <time>2017-09-20T14:32:36Z</time>
      </trkpt>
      <trkpt lat="38.035970851778984" lon="12.590696811676025">
        <ele>758.13999999999999</ele>
        <time>2017-09-20T14:32:59Z</time>
      </trkpt>
      <trkpt lat="38.035950735211372" lon="12.590704187750816">
        <ele>758.62</ele>
        <time>2017-09-20T14:33:23Z</time>
      </trkpt>
      <trkpt lat="38.036027429625392" lon="12.590707959607244">
        <ele>758.62</ele>
        <time>2017-09-20T14:33:43Z</time>
      </trkpt>
      <trkpt lat="38.035986945033073" lon="12.590717766433954">
        <ele>759.10000000000002</ele>
        <time>2017-09-20T14:34:13Z</time>
      </trkpt>
      <trkpt lat="38.036022568121552" lon="12.590701673179865">
        <ele>758.62</ele>
        <time>2017-09-20T14:34:36Z</time>
      </trkpt>
      <trkpt lat="38.036035811528563" lon="12.590719610452652">
        <ele>758.62</ele>
        <time>2017-09-20T14:35:00Z</time>
      </trkpt>
      <trkpt lat="38.03601804189384" lon="12.590697733685374">
        <ele>759.10000000000002</ele>
        <time>2017-09-20T14:35:21Z</time>
      </trkpt>
      <trkpt lat="38.035988956689835" lon="12.590674012899399">
        <ele>758.62</ele>
        <time>2017-09-20T14:35:28Z</time>
      </trkpt>
      <trkpt lat="38.035974036902189" lon="12.590672168880701">
        <ele>758.62</ele>
        <time>2017-09-20T14:35:45Z</time>
      </trkpt>
      <trkpt lat="38.036002535372972" lon="12.59070242755115">
        <ele>758.62</ele>
        <time>2017-09-20T14:35:56Z</time>
      </trkpt>
      <trkpt lat="38.036005385220051" lon="12.590724639594555">
        <ele>758.62</ele>
        <time>2017-09-20T14:36:13Z</time>
      </trkpt>
      <trkpt lat="38.036000272259116" lon="12.590729249641299">
        <ele>759.10000000000002</ele>
        <time>2017-09-20T14:36:27Z</time>
      </trkpt>
      <trkpt lat="38.036003541201353" lon="12.590735200792551">
        <ele>759.10000000000002</ele>
        <time>2017-09-20T14:36:43Z</time>
      </trkpt>
      <trkpt lat="38.036011001095176" lon="12.59073712863028">
        <ele>759.58000000000004</ele>
        <time>2017-09-20T14:36:53Z</time>
      </trkpt>
      <trkpt lat="38.035999601706862" lon="12.590733943507075">
        <ele>760.05999999999995</ele>
        <time>2017-09-20T14:37:10Z</time>
      </trkpt>
      <trkpt lat="38.035994907841086" lon="12.590724639594555">
        <ele>759.10000000000002</ele>
        <time>2017-09-20T14:37:27Z</time>
      </trkpt>
      <trkpt lat="38.035981329157948" lon="12.590700499713421">
        <ele>759.10000000000002</ele>
        <time>2017-09-20T14:37:45Z</time>
      </trkpt>
      <trkpt lat="38.035955848172307" lon="12.590666972100735">
        <ele>759.58000000000004</ele>
        <time>2017-09-20T14:37:54Z</time>
      </trkpt>
      <trkpt lat="38.035965738818049" lon="12.590656410902739">
        <ele>759.58000000000004</ele>
        <time>2017-09-20T14:38:03Z</time>
      </trkpt>
      <trkpt lat="38.035957776010036" lon="12.590674180537462">
        <ele>759.10000000000002</ele>
        <time>2017-09-20T14:38:16Z</time>
      </trkpt>
      <trkpt lat="38.035932211205363" lon="12.590578207746148">
        <ele>759.10000000000002</ele>
        <time>2017-09-20T14:38:28Z</time>
      </trkpt>
      <trkpt lat="38.035899521782994" lon="12.59044342674315">
        <ele>759.10000000000002</ele>
        <time>2017-09-20T14:38:40Z</time>
      </trkpt>
      <trkpt lat="38.035809667780995" lon="12.590343514457345">
        <ele>758.62</ele>
        <time>2017-09-20T14:38:54Z</time>
      </trkpt>
      <trkpt lat="38.035814361646771" lon="12.590337479487062">
        <ele>758.62</ele>
        <time>2017-09-20T14:39:07Z</time>
      </trkpt>
      <trkpt lat="38.035808829590678" lon="12.590315015986562">
        <ele>758.62</ele>
        <time>2017-09-20T14:39:25Z</time>
      </trkpt>
      <trkpt lat="38.035817546769977" lon="12.590306298807263">
        <ele>758.62</ele>
        <time>2017-09-20T14:39:45Z</time>
      </trkpt>
      <trkpt lat="38.035814026370645" lon="12.590333288535476">
        <ele>758.62</ele>
        <time>2017-09-20T14:40:00Z</time>
      </trkpt>
      <trkpt lat="38.035770440474153" lon="12.590304035693407">
        <ele>758.13999999999999</ele>
        <time>2017-09-20T14:40:12Z</time>
      </trkpt>
      <trkpt lat="38.035763902589679" lon="12.590269753709435">
        <ele>758.13999999999999</ele>
        <time>2017-09-20T14:40:22Z</time>
      </trkpt>
      <trkpt lat="38.035744372755289" lon="12.590231196954846">
        <ele>758.13999999999999</ele>
        <time>2017-09-20T14:40:34Z</time>
      </trkpt>
      <trkpt lat="38.035775972530246" lon="12.590233040973544">
        <ele>758.13999999999999</ele>
        <time>2017-09-20T14:40:45Z</time>
      </trkpt>
      <trkpt lat="38.035733308643103" lon="12.590218707919121">
        <ele>757.65999999999997</ele>
        <time>2017-09-20T14:40:56Z</time>
      </trkpt>
      <trkpt lat="38.035652507096529" lon="12.590164225548506">
        <ele>756.69000000000005</ele>
        <time>2017-09-20T14:41:08Z</time>
      </trkpt>
      <trkpt lat="38.035605736076832" lon="12.590169589966536">
        <ele>755.73000000000002</ele>
        <time>2017-09-20T14:41:21Z</time>
      </trkpt>
      <trkpt lat="38.03550791926682" lon="12.590039083734155">
        <ele>755.25</ele>
        <time>2017-09-20T14:41:32Z</time>
      </trkpt>
      <trkpt lat="38.035437678918242" lon="12.589915283024311">
        <ele>754.76999999999998</ele>
        <time>2017-09-20T14:41:45Z</time>
      </trkpt>
      <trkpt lat="38.035439187660813" lon="12.589898770675063">
        <ele>754.76999999999998</ele>
        <time>2017-09-20T14:41:54Z</time>
      </trkpt>
      <trkpt lat="38.03543658927083" lon="12.589870020747185">
        <ele>754.76999999999998</ele>
        <time>2017-09-20T14:42:04Z</time>
      </trkpt>
      <trkpt lat="38.035423932597041" lon="12.58984973654151">
        <ele>754.76999999999998</ele>
        <time>2017-09-20T14:42:15Z</time>
      </trkpt>
      <trkpt lat="38.035435080528259" lon="12.589834565296769">
        <ele>755.25</ele>
        <time>2017-09-20T14:42:34Z</time>
      </trkpt>
      <trkpt lat="38.035410856828094" lon="12.589824507012963">
        <ele>754.76999999999998</ele>
        <time>2017-09-20T14:42:48Z</time>
      </trkpt>
      <trkpt lat="38.035445725545287" lon="12.589808749035001">
        <ele>754.76999999999998</ele>
        <time>2017-09-20T14:43:05Z</time>
      </trkpt>
      <trkpt lat="38.0354536883533" lon="12.589774131774902">
        <ele>755.25</ele>
        <time>2017-09-20T14:43:16Z</time>
      </trkpt>
      <trkpt lat="38.035399289801717" lon="12.589723840355873">
        <ele>754.76999999999998</ele>
        <time>2017-09-20T14:43:27Z</time>
      </trkpt>
      <trkpt lat="38.035386130213737" lon="12.58969877846539">
        <ele>754.76999999999998</ele>
        <time>2017-09-20T14:43:37Z</time>
      </trkpt>
      <trkpt lat="38.035392751917243" lon="12.589625185355544">
        <ele>754.76999999999998</ele>
        <time>2017-09-20T14:43:51Z</time>
      </trkpt>
      <trkpt lat="38.035391243174672" lon="12.589497109875083">
        <ele>754.76999999999998</ele>
        <time>2017-09-20T14:44:03Z</time>
      </trkpt>
      <trkpt lat="38.035409180447459" lon="12.589368615299463">
        <ele>754.28999999999996</ele>
        <time>2017-09-20T14:44:17Z</time>
      </trkpt>
      <trkpt lat="38.035400966182351" lon="12.58930055424571">
        <ele>754.28999999999996</ele>
        <time>2017-09-20T14:44:25Z</time>
      </trkpt>
      <trkpt lat="38.035401972010732" lon="12.589264344424009">
        <ele>753.80999999999995</ele>
        <time>2017-09-20T14:44:35Z</time>
      </trkpt>
      <trkpt lat="38.035403983667493" lon="12.589272642508149">
        <ele>754.28999999999996</ele>
        <time>2017-09-20T14:44:48Z</time>
      </trkpt>
      <trkpt lat="38.035433320328593" lon="12.589316815137863">
        <ele>753.80999999999995</ele>
        <time>2017-09-20T14:44:57Z</time>
      </trkpt>
      <trkpt lat="38.03543709218502" lon="12.589310863986611">
        <ele>755.25</ele>
        <time>2017-09-20T14:45:07Z</time>
      </trkpt>
      <trkpt lat="38.035435751080513" lon="12.589370962232351">
        <ele>754.28999999999996</ele>
        <time>2017-09-20T14:45:16Z</time>
      </trkpt>
      <trkpt lat="38.035428123548627" lon="12.589443381875753">
        <ele>754.76999999999998</ele>
        <time>2017-09-20T14:45:25Z</time>
      </trkpt>
      <trkpt lat="38.035418819636106" lon="12.589522590860724">
        <ele>754.28999999999996</ele>
        <time>2017-09-20T14:45:34Z</time>
      </trkpt>
      <trkpt lat="38.035416388884187" lon="12.589587466791272">
        <ele>754.76999999999998</ele>
        <time>2017-09-20T14:45:42Z</time>
      </trkpt>
      <trkpt lat="38.035380598157644" lon="12.589625017717481">
        <ele>754.76999999999998</ele>
        <time>2017-09-20T14:45:52Z</time>
      </trkpt>
      <trkpt lat="38.035392249003053" lon="12.589609427377582">
        <ele>754.28999999999996</ele>
        <time>2017-09-20T14:46:05Z</time>
      </trkpt>
      <trkpt lat="38.03540482185781" lon="12.58959760889411">
        <ele>754.28999999999996</ele>
        <time>2017-09-20T14:46:25Z</time>
      </trkpt>
      <trkpt lat="38.035400044173002" lon="12.589571876451373">
        <ele>754.76999999999998</ele>
        <time>2017-09-20T14:46:43Z</time>
      </trkpt>
      <trkpt lat="38.035396188497543" lon="12.58955167606473">
        <ele>754.76999999999998</ele>
        <time>2017-09-20T14:46:57Z</time>
      </trkpt>
      <trkpt lat="38.035423513501883" lon="12.589550502598286">
        <ele>754.28999999999996</ele>
        <time>2017-09-20T14:47:15Z</time>
      </trkpt>
      <trkpt lat="38.035419574007392" lon="12.58956441655755">
        <ele>754.76999999999998</ele>
        <time>2017-09-20T14:47:32Z</time>
      </trkpt>
      <trkpt lat="38.035410940647125" lon="12.589562404900789">
        <ele>754.76999999999998</ele>
        <time>2017-09-20T14:47:50Z</time>
      </trkpt>
      <trkpt lat="38.035410270094872" lon="12.589567266404629">
        <ele>754.76999999999998</ele>
        <time>2017-09-20T14:48:04Z</time>
      </trkpt>
      <trkpt lat="38.035422759130597" lon="12.58958688005805">
        <ele>755.25</ele>
        <time>2017-09-20T14:48:24Z</time>
      </trkpt>
      <trkpt lat="38.035440864041448" lon="12.58971001021564">
        <ele>755.25</ele>
        <time>2017-09-20T14:48:34Z</time>
      </trkpt>
      <trkpt lat="38.035449162125587" lon="12.589792320504785">
        <ele>755.25</ele>
        <time>2017-09-20T14:48:46Z</time>
      </trkpt>
      <trkpt lat="38.035415299236774" lon="12.589760636910796">
        <ele>754.76999999999998</ele>
        <time>2017-09-20T14:48:54Z</time>
      </trkpt>
      <trkpt lat="38.035422759130597" lon="12.589664747938514">
        <ele>754.76999999999998</ele>
        <time>2017-09-20T14:49:04Z</time>
      </trkpt>
      <trkpt lat="38.035432565957308" lon="12.58968754671514">
        <ele>754.76999999999998</ele>
        <time>2017-09-20T14:49:21Z</time>
      </trkpt>
      <trkpt lat="38.035430554300547" lon="12.589677991345525">
        <ele>754.76999999999998</ele>
        <time>2017-09-20T14:49:31Z</time>
      </trkpt>
      <trkpt lat="38.0354571249336" lon="12.58964111097157">
        <ele>754.28999999999996</ele>
        <time>2017-09-20T14:49:41Z</time>
      </trkpt>
      <trkpt lat="38.035425944253802" lon="12.589670196175575">
        <ele>754.28999999999996</ele>
        <time>2017-09-20T14:49:55Z</time>
      </trkpt>
      <trkpt lat="38.035426028072834" lon="12.589699365198612">
        <ele>754.76999999999998</ele>
        <time>2017-09-20T14:50:09Z</time>
      </trkpt>
      <trkpt lat="38.035431979224086" lon="12.589698527008295">
        <ele>753.80999999999995</ele>
        <time>2017-09-20T14:50:11Z</time>
      </trkpt>
      <trkpt lat="38.03543902002275" lon="12.58971638046205">
        <ele>753.80999999999995</ele>
        <time>2017-09-20T14:50:35Z</time>
      </trkpt>
      <trkpt lat="38.035442288964987" lon="12.589709926396608">
        <ele>754.28999999999996</ele>
        <time>2017-09-20T14:50:57Z</time>
      </trkpt>
      <trkpt lat="38.035424603149295" lon="12.589740687981248">
        <ele>754.28999999999996</ele>
        <time>2017-09-20T14:51:13Z</time>
      </trkpt>
      <trkpt lat="38.035405576229095" lon="12.58976080454886">
        <ele>755.25</ele>
        <time>2017-09-20T14:51:43Z</time>
      </trkpt>
      <trkpt lat="38.035412365570664" lon="12.589720990508795">
        <ele>754.28999999999996</ele>
        <time>2017-09-20T14:52:10Z</time>
      </trkpt>
      <trkpt lat="38.035424267873168" lon="12.589694503694773">
        <ele>753.80999999999995</ele>
        <time>2017-09-20T14:52:32Z</time>
      </trkpt>
      <trkpt lat="38.035439355298877" lon="12.589674051851034">
        <ele>754.28999999999996</ele>
        <time>2017-09-20T14:52:51Z</time>
      </trkpt>
      <trkpt lat="38.035439271479845" lon="12.589693916961551">
        <ele>754.28999999999996</ele>
        <time>2017-09-20T14:53:12Z</time>
      </trkpt>
      <trkpt lat="38.035435499623418" lon="12.589704478159547">
        <ele>754.28999999999996</ele>
        <time>2017-09-20T14:53:32Z</time>
      </trkpt>
      <trkpt lat="38.035443965345621" lon="12.589696850627661">
        <ele>754.76999999999998</ele>
        <time>2017-09-20T14:53:48Z</time>
      </trkpt>
      <trkpt lat="38.035443881526589" lon="12.58968947455287">
        <ele>755.25</ele>
        <time>2017-09-20T14:54:09Z</time>
      </trkpt>
      <trkpt lat="38.035440444946289" lon="12.589680925011635">
        <ele>754.76999999999998</ele>
        <time>2017-09-20T14:54:32Z</time>
      </trkpt>
      <trkpt lat="38.035441702231765" lon="12.589679080992937">
        <ele>753.33000000000004</ele>
        <time>2017-09-20T14:54:42Z</time>
      </trkpt>
      <trkpt lat="38.035442624241114" lon="12.58967530913651">
        <ele>756.69000000000005</ele>
        <time>2017-09-20T14:54:48Z</time>
      </trkpt>
      <trkpt lat="38.035429380834103" lon="12.589677404612303">
        <ele>754.76999999999998</ele>
        <time>2017-09-20T14:54:59Z</time>
      </trkpt>
      <trkpt lat="38.035456202924252" lon="12.589678997173905">
        <ele>754.76999999999998</ele>
        <time>2017-09-20T14:55:14Z</time>
      </trkpt>
      <trkpt lat="38.035475313663483" lon="12.589667849242687">
        <ele>754.76999999999998</ele>
        <time>2017-09-20T14:55:38Z</time>
      </trkpt>
      <trkpt lat="38.035448659211397" lon="12.589669693261385">
        <ele>754.76999999999998</ele>
        <time>2017-09-20T14:56:03Z</time>
      </trkpt>
      <trkpt lat="38.035442708060145" lon="12.58966994471848">
        <ele>754.76999999999998</ele>
        <time>2017-09-20T14:56:27Z</time>
      </trkpt>
      <trkpt lat="38.035459136590362" lon="12.589686373248696">
        <ele>754.76999999999998</ele>
        <time>2017-09-20T14:56:53Z</time>
      </trkpt>
      <trkpt lat="38.035436002537608" lon="12.589660137891769">
        <ele>755.25</ele>
        <time>2017-09-20T14:57:14Z</time>
      </trkpt>
      <trkpt lat="38.035424267873168" lon="12.58966944180429">
        <ele>755.73000000000002</ele>
        <time>2017-09-20T14:57:45Z</time>
      </trkpt>
      <trkpt lat="38.035430973395705" lon="12.589659467339516">
        <ele>755.25</ele>
        <time>2017-09-20T14:58:14Z</time>
      </trkpt>
      <trkpt lat="38.0354243516922" lon="12.589678158983588">
        <ele>754.76999999999998</ele>
        <time>2017-09-20T14:58:37Z</time>
      </trkpt>
      <trkpt lat="38.035426279529929" lon="12.589677907526493">
        <ele>755.25</ele>
        <time>2017-09-20T14:59:05Z</time>
      </trkpt>
      <trkpt lat="38.035421585664153" lon="12.589683104306459">
        <ele>754.76999999999998</ele>
        <time>2017-09-20T14:59:31Z</time>
      </trkpt>
      <trkpt lat="38.035431643947959" lon="12.589677069336176">
        <ele>754.76999999999998</ele>
        <time>2017-09-20T14:59:43Z</time>
      </trkpt>
      <trkpt lat="38.03541655652225" lon="12.589674890041351">
        <ele>755.73000000000002</ele>
        <time>2017-09-20T14:59:59Z</time>
      </trkpt>
      <trkpt lat="38.035415718331933" lon="12.589644463732839">
        <ele>755.73000000000002</ele>
        <time>2017-09-20T15:00:22Z</time>
      </trkpt>
      <trkpt lat="38.035419071093202" lon="12.589660137891769">
        <ele>755.73000000000002</ele>
        <time>2017-09-20T15:00:50Z</time>
      </trkpt>
      <trkpt lat="38.035416388884187" lon="12.589680925011635">
        <ele>756.21000000000004</ele>
        <time>2017-09-20T15:01:19Z</time>
      </trkpt>
      <trkpt lat="38.035423010587692" lon="12.589698443189263">
        <ele>756.21000000000004</ele>
        <time>2017-09-20T15:01:26Z</time>
      </trkpt>
      <trkpt lat="38.035437176004052" lon="12.589801792055368">
        <ele>756.21000000000004</ele>
        <time>2017-09-20T15:01:36Z</time>
      </trkpt>
      <trkpt lat="38.035478498786688" lon="12.589826351031661">
        <ele>756.69000000000005</ele>
        <time>2017-09-20T15:01:46Z</time>
      </trkpt>
      <trkpt lat="38.035481683909893" lon="12.589877145364881">
        <ele>756.69000000000005</ele>
        <time>2017-09-20T15:01:56Z</time>
      </trkpt>
      <trkpt lat="38.035469697788358" lon="12.589839342981577">
        <ele>756.69000000000005</ele>
        <time>2017-09-20T15:02:04Z</time>
      </trkpt>
      <trkpt lat="38.035522839054465" lon="12.589731551706791">
        <ele>756.69000000000005</ele>
        <time>2017-09-20T15:02:15Z</time>
      </trkpt>
      <trkpt lat="38.035507164895535" lon="12.589636165648699">
        <ele>756.21000000000004</ele>
        <time>2017-09-20T15:02:27Z</time>
      </trkpt>
      <trkpt lat="38.035499956458807" lon="12.589598782360554">
        <ele>755.73000000000002</ele>
        <time>2017-09-20T15:02:30Z</time>
      </trkpt>
      <trkpt lat="38.035592325031757" lon="12.589563829824328">
        <ele>754.76999999999998</ele>
        <time>2017-09-20T15:02:40Z</time>
      </trkpt>
      <trkpt lat="38.03573121316731" lon="12.589555196464062">
        <ele>752.85000000000002</ele>
        <time>2017-09-20T15:02:54Z</time>
      </trkpt>
      <trkpt lat="38.035797765478492" lon="12.58956927806139">
        <ele>752.85000000000002</ele>
        <time>2017-09-20T15:03:03Z</time>
      </trkpt>
      <trkpt lat="38.035907819867134" lon="12.589577240869403">
        <ele>751.88999999999999</ele>
        <time>2017-09-20T15:03:14Z</time>
      </trkpt>
      <trkpt lat="38.036018377169967" lon="12.589588053524494">
        <ele>751.40999999999997</ele>
        <time>2017-09-20T15:03:26Z</time>
      </trkpt>
      <trkpt lat="38.036133963614702" lon="12.589567601680756">
        <ele>750.45000000000005</ele>
        <time>2017-09-20T15:03:38Z</time>
      </trkpt>
      <trkpt lat="38.036263966932893" lon="12.5896205753088">
        <ele>751.88999999999999</ele>
        <time>2017-09-20T15:03:51Z</time>
      </trkpt>
      <trkpt lat="38.036399502307177" lon="12.589650582522154">
        <ele>752.37</ele>
        <time>2017-09-20T15:04:03Z</time>
      </trkpt>
      <trkpt lat="38.036515843123198" lon="12.589678158983588">
        <ele>753.33000000000004</ele>
        <time>2017-09-20T15:04:15Z</time>
      </trkpt>
      <trkpt lat="38.03662396967411" lon="12.589659802615643">
        <ele>754.28999999999996</ele>
        <time>2017-09-20T15:04:26Z</time>
      </trkpt>
      <trkpt lat="38.036670573055744" lon="12.589643374085426">
        <ele>754.28999999999996</ele>
        <time>2017-09-20T15:04:37Z</time>
      </trkpt>
      <trkpt lat="38.036722624674439" lon="12.589559135958552">
        <ele>755.25</ele>
        <time>2017-09-20T15:04:49Z</time>
      </trkpt>
      <trkpt lat="38.03673142567277" lon="12.589547233656049">
        <ele>755.25</ele>
        <time>2017-09-20T15:04:51Z</time>
      </trkpt>
      <trkpt lat="38.03668649867177" lon="12.58938948623836">
        <ele>755.73000000000002</ele>
        <time>2017-09-20T15:05:01Z</time>
      </trkpt>
      <trkpt lat="38.036680379882455" lon="12.589278174564242">
        <ele>755.73000000000002</ele>
        <time>2017-09-20T15:05:11Z</time>
      </trkpt>
      <trkpt lat="38.036722037941217" lon="12.589166192337871">
        <ele>755.73000000000002</ele>
        <time>2017-09-20T15:05:23Z</time>
      </trkpt>
      <trkpt lat="38.036726815626025" lon="12.589067621156573">
        <ele>756.21000000000004</ele>
        <time>2017-09-20T15:05:33Z</time>
      </trkpt>
      <trkpt lat="38.036744333803654" lon="12.588979275897145">
        <ele>757.17999999999995</ele>
        <time>2017-09-20T15:05:42Z</time>
      </trkpt>
      <trkpt lat="38.036762522533536" lon="12.588850613683462">
        <ele>757.65999999999997</ele>
        <time>2017-09-20T15:05:53Z</time>
      </trkpt>
      <trkpt lat="38.03677836433053" lon="12.588689597323537">
        <ele>757.65999999999997</ele>
        <time>2017-09-20T15:06:06Z</time>
      </trkpt>
      <trkpt lat="38.036800995469093" lon="12.588484156876802">
        <ele>758.62</ele>
        <time>2017-09-20T15:06:20Z</time>
      </trkpt>
      <trkpt lat="38.036838043481112" lon="12.588378461077809">
        <ele>759.10000000000002</ele>
        <time>2017-09-20T15:06:30Z</time>
      </trkpt>
      <trkpt lat="38.036844078451395" lon="12.588362284004688">
        <ele>759.10000000000002</ele>
        <time>2017-09-20T15:06:44Z</time>
      </trkpt>
      <trkpt lat="38.036837205290794" lon="12.588366977870464">
        <ele>759.58000000000004</ele>
        <time>2017-09-20T15:07:05Z</time>
      </trkpt>
      <trkpt lat="38.03682379424572" lon="12.58833646774292">
        <ele>759.10000000000002</ele>
        <time>2017-09-20T15:07:26Z</time>
      </trkpt>
      <trkpt lat="38.036845754832029" lon="12.58832867257297">
        <ele>759.58000000000004</ele>
        <time>2017-09-20T15:07:45Z</time>
      </trkpt>
      <trkpt lat="38.036840055137873" lon="12.588328085839748">
        <ele>759.58000000000004</ele>
        <time>2017-09-20T15:08:07Z</time>
      </trkpt>
      <trkpt lat="38.036858579143882" lon="12.588281566277146">
        <ele>759.10000000000002</ele>
        <time>2017-09-20T15:08:19Z</time>
      </trkpt>
      <trkpt lat="38.036885904148221" lon="12.588254408910871">
        <ele>760.53999999999996</ele>
        <time>2017-09-20T15:08:28Z</time>
      </trkpt>
      <trkpt lat="38.036943655461073" lon="12.588125076144934">
        <ele>760.53999999999996</ele>
        <time>2017-09-20T15:08:41Z</time>
      </trkpt>
      <trkpt lat="38.037009788677096" lon="12.588073192164302">
        <ele>761.01999999999998</ele>
        <time>2017-09-20T15:08:54Z</time>
      </trkpt>
      <trkpt lat="38.037039041519165" lon="12.588071515783668">
        <ele>761.5</ele>
        <time>2017-09-20T15:09:07Z</time>
      </trkpt>
      <trkpt lat="38.037064271047711" lon="12.588016530498862">
        <ele>761.5</ele>
        <time>2017-09-20T15:09:18Z</time>
      </trkpt>
      <trkpt lat="38.037068797275424" lon="12.588050225749612">
        <ele>761.98000000000002</ele>
        <time>2017-09-20T15:09:34Z</time>
      </trkpt>
      <trkpt lat="38.0370734911412" lon="12.588064474985003">
        <ele>761.98000000000002</ele>
        <time>2017-09-20T15:09:35Z</time>
      </trkpt>
      <trkpt lat="38.037037951871753" lon="12.588530424982309">
        <ele>761.5</ele>
        <time>2017-09-20T15:10:05Z</time>
      </trkpt>
      <trkpt lat="38.036838714033365" lon="12.588074617087841">
        <ele>761.01999999999998</ele>
        <time>2017-09-20T15:10:22Z</time>
      </trkpt>
      <trkpt lat="38.03703342564404" lon="12.588011752814054">
        <ele>761.98000000000002</ele>
        <time>2017-09-20T15:10:31Z</time>
      </trkpt>
      <trkpt lat="38.0370441544801" lon="12.588034635409713">
        <ele>761.98000000000002</ele>
        <time>2017-09-20T15:10:46Z</time>
      </trkpt>
      <trkpt lat="38.03703392855823" lon="12.588014854118228">
        <ele>761.5</ele>
        <time>2017-09-20T15:10:58Z</time>
      </trkpt>
      <trkpt lat="38.037044825032353" lon="12.588022900745273">
        <ele>761.98000000000002</ele>
        <time>2017-09-20T15:11:08Z</time>
      </trkpt>
      <trkpt lat="38.03709989413619" lon="12.587976045906544">
        <ele>761.98000000000002</ele>
        <time>2017-09-20T15:11:15Z</time>
      </trkpt>
      <trkpt lat="38.037124117836356" lon="12.587942183017731">
        <ele>762.46000000000004</ele>
        <time>2017-09-20T15:11:21Z</time>
      </trkpt>
      <trkpt lat="38.037129985168576" lon="12.58791477419436">
        <ele>762.94000000000005</ele>
        <time>2017-09-20T15:11:31Z</time>
      </trkpt>
      <trkpt lat="38.037183880805969" lon="12.5878781452775">
        <ele>763.41999999999996</ele>
        <time>2017-09-20T15:11:40Z</time>
      </trkpt>
      <trkpt lat="38.037298126146197" lon="12.58784294128418">
        <ele>762.94000000000005</ele>
        <time>2017-09-20T15:11:52Z</time>
      </trkpt>
      <trkpt lat="38.037373479455709" lon="12.587798517197371">
        <ele>762.46000000000004</ele>
        <time>2017-09-20T15:12:03Z</time>
      </trkpt>
      <trkpt lat="38.037481270730495" lon="12.587764570489526">
        <ele>762.46000000000004</ele>
        <time>2017-09-20T15:12:15Z</time>
      </trkpt>
      <trkpt lat="38.037489652633667" lon="12.587762139737606">
        <ele>762.46000000000004</ele>
        <time>2017-09-20T15:12:16Z</time>
      </trkpt>
      <trkpt lat="38.037505662068725" lon="12.587774964049459">
        <ele>762.46000000000004</ele>
        <time>2017-09-20T15:12:18Z</time>
      </trkpt>
      <trkpt lat="38.037621919065714" lon="12.587801618501544">
        <ele>761.98000000000002</ele>
        <time>2017-09-20T15:12:32Z</time>
      </trkpt>
      <trkpt lat="38.037704564630985" lon="12.58786297403276">
        <ele>761.5</ele>
        <time>2017-09-20T15:12:48Z</time>
      </trkpt>
      <trkpt lat="38.037766925990582" lon="12.587867164984345">
        <ele>761.5</ele>
        <time>2017-09-20T15:12:58Z</time>
      </trkpt>
      <trkpt lat="38.037806069478393" lon="12.58791477419436">
        <ele>761.5</ele>
        <time>2017-09-20T15:13:11Z</time>
      </trkpt>
      <trkpt lat="38.037833226844668" lon="12.587917037308216">
        <ele>761.01999999999998</ele>
        <time>2017-09-20T15:13:21Z</time>
      </trkpt>
      <trkpt lat="38.037881255149841" lon="12.587913097813725">
        <ele>761.01999999999998</ele>
        <time>2017-09-20T15:13:30Z</time>
      </trkpt>
      <trkpt lat="38.03799893707037" lon="12.587897423654795">
        <ele>759.58000000000004</ele>
        <time>2017-09-20T15:13:45Z</time>
      </trkpt>
      <trkpt lat="38.038092730566859" lon="12.587890131399035">
        <ele>758.62</ele>
        <time>2017-09-20T15:13:56Z</time>
      </trkpt>
      <trkpt lat="38.038173280656338" lon="12.587920557707548">
        <ele>757.65999999999997</ele>
        <time>2017-09-20T15:14:10Z</time>
      </trkpt>
      <trkpt lat="38.038209322839975" lon="12.587854592129588">
        <ele>757.65999999999997</ele>
        <time>2017-09-20T15:14:28Z</time>
      </trkpt>
      <trkpt lat="38.038241593167186" lon="12.587902704253793">
        <ele>757.17999999999995</ele>
        <time>2017-09-20T15:14:43Z</time>
      </trkpt>
      <trkpt lat="38.038227930665016" lon="12.58789180777967">
        <ele>757.17999999999995</ele>
        <time>2017-09-20T15:14:55Z</time>
      </trkpt>
      <trkpt lat="38.038168922066689" lon="12.587898010388017">
        <ele>758.13999999999999</ele>
        <time>2017-09-20T15:15:05Z</time>
      </trkpt>
      <trkpt lat="38.038072697818279" lon="12.587934220209718">
        <ele>759.10000000000002</ele>
        <time>2017-09-20T15:15:19Z</time>
      </trkpt>
      <trkpt lat="38.038058783859015" lon="12.587928101420403">
        <ele>759.10000000000002</ele>
        <time>2017-09-20T15:15:21Z</time>
      </trkpt>
      <trkpt lat="38.037899611517787" lon="12.587953833863139">
        <ele>760.53999999999996</ele>
        <time>2017-09-20T15:15:35Z</time>
      </trkpt>
      <trkpt lat="38.037823420017958" lon="12.587953833863139">
        <ele>761.01999999999998</ele>
        <time>2017-09-20T15:15:43Z</time>
      </trkpt>
      <trkpt lat="38.037656368687749" lon="12.587884515523911">
        <ele>761.98000000000002</ele>
        <time>2017-09-20T15:15:57Z</time>
      </trkpt>
      <trkpt lat="38.037572801113129" lon="12.587846294045448">
        <ele>761.98000000000002</ele>
        <time>2017-09-20T15:16:06Z</time>
      </trkpt>
      <trkpt lat="38.037585625424981" lon="12.587771192193031">
        <ele>761.98000000000002</ele>
        <time>2017-09-20T15:16:15Z</time>
      </trkpt>
      <trkpt lat="38.037595432251692" lon="12.587690809741616">
        <ele>761.98000000000002</ele>
        <time>2017-09-20T15:16:25Z</time>
      </trkpt>
      <trkpt lat="38.037602808326483" lon="12.587687876075506">
        <ele>762.46000000000004</ele>
        <time>2017-09-20T15:16:40Z</time>
      </trkpt>
      <trkpt lat="38.037593755871058" lon="12.587607577443123">
        <ele>762.46000000000004</ele>
        <time>2017-09-20T15:16:47Z</time>
      </trkpt>
      <trkpt lat="38.037531897425652" lon="12.587454691529274">
        <ele>761.98000000000002</ele>
        <time>2017-09-20T15:16:59Z</time>
      </trkpt>
      <trkpt lat="38.037492334842682" lon="12.587365172803402">
        <ele>761.98000000000002</ele>
        <time>2017-09-20T15:17:08Z</time>
      </trkpt>
      <trkpt lat="38.037451850250363" lon="12.587302559986711">
        <ele>761.5</ele>
        <time>2017-09-20T15:17:13Z</time>
      </trkpt>
      <trkpt lat="38.037435924634337" lon="12.587280096486211">
        <ele>761.5</ele>
        <time>2017-09-20T15:17:15Z</time>
      </trkpt>
      <trkpt lat="38.037396864965558" lon="12.587253609672189">
        <ele>761.01999999999998</ele>
        <time>2017-09-20T15:17:19Z</time>
      </trkpt>
      <trkpt lat="38.037239704281092" lon="12.587194768711925">
        <ele>759.58000000000004</ele>
        <time>2017-09-20T15:17:32Z</time>
      </trkpt>
      <trkpt lat="38.037097882479429" lon="12.587157720699906">
        <ele>758.62</ele>
        <time>2017-09-20T15:17:44Z</time>
      </trkpt>
      <trkpt lat="38.036952456459403" lon="12.587149254977703">
        <ele>757.65999999999997</ele>
        <time>2017-09-20T15:17:57Z</time>
      </trkpt>
      <trkpt lat="38.036827482283115" lon="12.587169203907251">
        <ele>754.76999999999998</ele>
        <time>2017-09-20T15:18:11Z</time>
      </trkpt>
      <trkpt lat="38.036824967712164" lon="12.587192254140973">
        <ele>755.25</ele>
        <time>2017-09-20T15:18:15Z</time>
      </trkpt>
      <trkpt lat="38.036817591637373" lon="12.587309936061502">
        <ele>755.73000000000002</ele>
        <time>2017-09-20T15:18:26Z</time>
      </trkpt>
      <trkpt lat="38.036788171157241" lon="12.587467934936285">
        <ele>756.21000000000004</ele>
        <time>2017-09-20T15:18:37Z</time>
      </trkpt>
      <trkpt lat="38.036742992699146" lon="12.587576564401388">
        <ele>756.21000000000004</ele>
        <time>2017-09-20T15:18:46Z</time>
      </trkpt>
      <trkpt lat="38.036733185872436" lon="12.587602799758315">
        <ele>756.21000000000004</ele>
        <time>2017-09-20T15:18:48Z</time>
      </trkpt>
      <trkpt lat="38.036711141467094" lon="12.587759792804718">
        <ele>756.69000000000005</ele>
        <time>2017-09-20T15:18:57Z</time>
      </trkpt>
      <trkpt lat="38.036707453429699" lon="12.587885521352291">
        <ele>756.69000000000005</ele>
        <time>2017-09-20T15:19:08Z</time>
      </trkpt>
      <trkpt lat="38.036697478964925" lon="12.587902955710888">
        <ele>756.69000000000005</ele>
        <time>2017-09-20T15:19:10Z</time>
      </trkpt>
      <trkpt lat="38.036698987707496" lon="12.588021392002702">
        <ele>757.17999999999995</ele>
        <time>2017-09-20T15:19:18Z</time>
      </trkpt>
      <trkpt lat="38.0366918630898" lon="12.588115856051445">
        <ele>756.21000000000004</ele>
        <time>2017-09-20T15:19:24Z</time>
      </trkpt>
      <trkpt lat="38.036706196144223" lon="12.58828760124743">
        <ele>756.69000000000005</ele>
        <time>2017-09-20T15:19:35Z</time>
      </trkpt>
      <trkpt lat="38.036702843382955" lon="12.588470242917538">
        <ele>757.17999999999995</ele>
        <time>2017-09-20T15:19:47Z</time>
      </trkpt>
      <trkpt lat="38.03672849200666" lon="12.588565880432725">
        <ele>757.65999999999997</ele>
        <time>2017-09-20T15:19:55Z</time>
      </trkpt>
      <trkpt lat="38.036736203357577" lon="12.588677275925875">
        <ele>757.65999999999997</ele>
        <time>2017-09-20T15:20:05Z</time>
      </trkpt>
      <trkpt lat="38.036722876131535" lon="12.588728154078126">
        <ele>757.65999999999997</ele>
        <time>2017-09-20T15:20:09Z</time>
      </trkpt>
      <trkpt lat="38.036719188094139" lon="12.588766794651747">
        <ele>757.17999999999995</ele>
        <time>2017-09-20T15:20:15Z</time>
      </trkpt>
      <trkpt lat="38.036717092618346" lon="12.588777439668775">
        <ele>757.17999999999995</ele>
        <time>2017-09-20T15:20:23Z</time>
      </trkpt>
      <trkpt lat="38.03672069683671" lon="12.588831838220358">
        <ele>757.17999999999995</ele>
        <time>2017-09-20T15:20:32Z</time>
      </trkpt>
      <trkpt lat="38.036715164780617" lon="12.58885296061635">
        <ele>757.17999999999995</ele>
        <time>2017-09-20T15:20:34Z</time>
      </trkpt>
      <trkpt lat="38.03672706708312" lon="12.588969971984625">
        <ele>756.21000000000004</ele>
        <time>2017-09-20T15:20:43Z</time>
      </trkpt>
      <trkpt lat="38.036696305498481" lon="12.589126629754901">
        <ele>756.21000000000004</ele>
        <time>2017-09-20T15:20:54Z</time>
      </trkpt>
      <trkpt lat="38.036695802584291" lon="12.589309690520167">
        <ele>755.25</ele>
        <time>2017-09-20T15:21:06Z</time>
      </trkpt>
      <trkpt lat="38.036695634946227" lon="12.589400298893452">
        <ele>754.76999999999998</ele>
        <time>2017-09-20T15:21:11Z</time>
      </trkpt>
      <trkpt lat="38.036704016849399" lon="12.589430809020996">
        <ele>754.76999999999998</ele>
        <time>2017-09-20T15:21:13Z</time>
      </trkpt>
      <trkpt lat="38.036690857261419" lon="12.589481938630342">
        <ele>754.28999999999996</ele>
        <time>2017-09-20T15:21:17Z</time>
      </trkpt>
      <trkpt lat="38.036653725430369" lon="12.589647313579917">
        <ele>753.33000000000004</ele>
        <time>2017-09-20T15:21:29Z</time>
      </trkpt>
      <trkpt lat="38.036619108170271" lon="12.589704478159547">
        <ele>752.85000000000002</ele>
        <time>2017-09-20T15:21:40Z</time>
      </trkpt>
      <trkpt lat="38.036609133705497" lon="12.589713614434004">
        <ele>752.85000000000002</ele>
        <time>2017-09-20T15:21:53Z</time>
      </trkpt>
      <trkpt lat="38.036578707396984" lon="12.589852334931493">
        <ele>753.80999999999995</ele>
        <time>2017-09-20T15:22:05Z</time>
      </trkpt>
      <trkpt lat="38.036558255553246" lon="12.589920060709119">
        <ele>753.80999999999995</ele>
        <time>2017-09-20T15:22:10Z</time>
      </trkpt>
      <trkpt lat="38.036490613594651" lon="12.589966077357531">
        <ele>754.76999999999998</ele>
        <time>2017-09-20T15:22:16Z</time>
      </trkpt>
      <trkpt lat="38.03637376986444" lon="12.590003041550517">
        <ele>755.25</ele>
        <time>2017-09-20T15:22:25Z</time>
      </trkpt>
      <trkpt lat="38.036227421835065" lon="12.590046962723136">
        <ele>756.21000000000004</ele>
        <time>2017-09-20T15:22:40Z</time>
      </trkpt>
      <trkpt lat="38.036166150122881" lon="12.590044112876058">
        <ele>757.17999999999995</ele>
        <time>2017-09-20T15:22:47Z</time>
      </trkpt>
      <trkpt lat="38.036031872034073" lon="12.590006394311786">
        <ele>757.17999999999995</ele>
        <time>2017-09-20T15:23:00Z</time>
      </trkpt>
      <trkpt lat="38.035972444340587" lon="12.589967753738165">
        <ele>757.17999999999995</ele>
        <time>2017-09-20T15:23:05Z</time>
      </trkpt>
      <trkpt lat="38.035916453227401" lon="12.589924084022641">
        <ele>757.17999999999995</ele>
        <time>2017-09-20T15:23:10Z</time>
      </trkpt>
      <trkpt lat="38.035864485427737" lon="12.589899273589253">
        <ele>757.17999999999995</ele>
        <time>2017-09-20T15:23:14Z</time>
      </trkpt>
      <trkpt lat="38.035723250359297" lon="12.58988443762064">
        <ele>757.17999999999995</ele>
        <time>2017-09-20T15:23:27Z</time>
      </trkpt>
      <trkpt lat="38.035554522648454" lon="12.589836493134499">
        <ele>756.21000000000004</ele>
        <time>2017-09-20T15:23:40Z</time>
      </trkpt>
      <trkpt lat="38.035445641726255" lon="12.58984143845737">
        <ele>755.73000000000002</ele>
        <time>2017-09-20T15:23:51Z</time>
      </trkpt>
      <trkpt lat="38.035424267873168" lon="12.58985317312181">
        <ele>755.73000000000002</ele>
        <time>2017-09-20T15:24:02Z</time>
      </trkpt>
      <trkpt lat="38.035415215417743" lon="12.589854262769222">
        <ele>755.25</ele>
        <time>2017-09-20T15:24:28Z</time>
      </trkpt>
      <trkpt lat="38.035420579835773" lon="12.589844791218638">
        <ele>755.73000000000002</ele>
        <time>2017-09-20T15:24:41Z</time>
      </trkpt>
      <trkpt lat="38.035409348085523" lon="12.589829871430993">
        <ele>755.25</ele>
        <time>2017-09-20T15:24:56Z</time>
      </trkpt>
      <trkpt lat="38.03543851710856" lon="12.589849568903446">
        <ele>755.25</ele>
        <time>2017-09-20T15:25:06Z</time>
      </trkpt>
      <trkpt lat="38.035426782444119" lon="12.589815789833665">
        <ele>754.76999999999998</ele>
        <time>2017-09-20T15:25:17Z</time>
      </trkpt>
      <trkpt lat="38.035422675311565" lon="12.589799193665385">
        <ele>754.76999999999998</ele>
        <time>2017-09-20T15:25:31Z</time>
      </trkpt>
      <trkpt lat="38.035437930375338" lon="12.589831380173564">
        <ele>755.25</ele>
        <time>2017-09-20T15:25:41Z</time>
      </trkpt>
      <trkpt lat="38.035399876534939" lon="12.589995330199599">
        <ele>754.76999999999998</ele>
        <time>2017-09-20T15:25:56Z</time>
      </trkpt>
      <trkpt lat="38.035392081364989" lon="12.589988876134157">
        <ele>755.73000000000002</ele>
        <time>2017-09-20T15:25:59Z</time>
      </trkpt>
      <trkpt lat="38.035366181284189" lon="12.589755607768893">
        <ele>752.85000000000002</ele>
        <time>2017-09-20T15:26:15Z</time>
      </trkpt>
      <trkpt lat="38.035340197384357" lon="12.589532565325499">
        <ele>751.88999999999999</ele>
        <time>2017-09-20T15:26:31Z</time>
      </trkpt>
      <trkpt lat="38.035371294245124" lon="12.589303823187947">
        <ele>752.85000000000002</ele>
        <time>2017-09-20T15:26:46Z</time>
      </trkpt>
      <trkpt lat="38.035406917333603" lon="12.589221931993961">
        <ele>753.33000000000004</ele>
        <time>2017-09-20T15:26:57Z</time>
      </trkpt>
      <trkpt lat="38.035429045557976" lon="12.589222937822342">
        <ele>753.33000000000004</ele>
        <time>2017-09-20T15:27:07Z</time>
      </trkpt>
      <trkpt lat="38.035439439117908" lon="12.589264344424009">
        <ele>753.33000000000004</ele>
        <time>2017-09-20T15:27:20Z</time>
      </trkpt>
      <trkpt lat="38.035451006144285" lon="12.589372638612986">
        <ele>753.80999999999995</ele>
        <time>2017-09-20T15:27:30Z</time>
      </trkpt>
      <trkpt lat="38.035470871254802" lon="12.589393258094788">
        <ele>754.28999999999996</ele>
        <time>2017-09-20T15:27:41Z</time>
      </trkpt>
      <trkpt lat="38.035517558455467" lon="12.589355623349547">
        <ele>754.76999999999998</ele>
        <time>2017-09-20T15:27:50Z</time>
      </trkpt>
      <trkpt lat="38.035509763285518" lon="12.589386217296124">
        <ele>754.76999999999998</ele>
        <time>2017-09-20T15:28:03Z</time>
      </trkpt>
      <trkpt lat="38.035521414130926" lon="12.589403903111815">
        <ele>755.25</ele>
        <time>2017-09-20T15:28:16Z</time>
      </trkpt>
      <trkpt lat="38.035508673638105" lon="12.589413542300463">
        <ele>755.25</ele>
        <time>2017-09-20T15:28:19Z</time>
      </trkpt>
      <trkpt lat="38.03547665476799" lon="12.589421924203634">
        <ele>754.76999999999998</ele>
        <time>2017-09-20T15:28:28Z</time>
      </trkpt>
      <trkpt lat="38.035485371947289" lon="12.589445058256388">
        <ele>754.76999999999998</ele>
        <time>2017-09-20T15:28:35Z</time>
      </trkpt>
      <trkpt lat="38.035499872639775" lon="12.589475149288774">
        <ele>754.76999999999998</ele>
        <time>2017-09-20T15:28:39Z</time>
      </trkpt>
      <trkpt lat="38.03550741635263" lon="12.589499792084098">
        <ele>754.28999999999996</ele>
        <time>2017-09-20T15:28:41Z</time>
      </trkpt>
      <trkpt lat="38.035532813519239" lon="12.589503228664398">
        <ele>754.28999999999996</ele>
        <time>2017-09-20T15:28:44Z</time>
      </trkpt>
      <trkpt lat="38.035556701943278" lon="12.589400801807642">
        <ele>750.92999999999995</ele>
        <time>2017-09-20T15:28:54Z</time>
      </trkpt>
      <trkpt lat="38.035561395809054" lon="12.589371968060732">
        <ele>750.92999999999995</ele>
        <time>2017-09-20T15:28:57Z</time>
      </trkpt>
      <trkpt lat="38.035547565668821" lon="12.589402981102467">
        <ele>751.40999999999997</ele>
        <time>2017-09-20T15:29:08Z</time>
      </trkpt>
      <trkpt lat="38.035481935366988" lon="12.589436927810311">
        <ele>751.40999999999997</ele>
        <time>2017-09-20T15:29:26Z</time>
      </trkpt>
      <trkpt lat="38.03552015684545" lon="12.589339194819331">
        <ele>750.92999999999995</ele>
        <time>2017-09-20T15:30:28Z</time>
      </trkpt>
      <trkpt lat="38.035556031391025" lon="12.58936358615756">
        <ele>750.92999999999995</ele>
        <time>2017-09-20T15:30:29Z</time>
      </trkpt>
      <trkpt lat="38.035562485456467" lon="12.589473892003298">
        <ele>752.85000000000002</ele>
        <time>2017-09-20T15:30:38Z</time>
      </trkpt>
      <trkpt lat="38.035514708608389" lon="12.589507838711143">
        <ele>753.80999999999995</ele>
        <time>2017-09-20T15:30:43Z</time>
      </trkpt>
      <trkpt lat="38.03547858260572" lon="12.589418655261397">
        <ele>754.76999999999998</ele>
        <time>2017-09-20T15:30:53Z</time>
      </trkpt>
      <trkpt lat="38.035486126318574" lon="12.589385379105806">
        <ele>754.76999999999998</ele>
        <time>2017-09-20T15:30:56Z</time>
      </trkpt>
      <trkpt lat="38.035504147410393" lon="12.5893650110811">
        <ele>754.76999999999998</ele>
        <time>2017-09-20T15:31:05Z</time>
      </trkpt>
      <trkpt lat="38.035518564283848" lon="12.589375739917159">
        <ele>754.28999999999996</ele>
        <time>2017-09-20T15:31:16Z</time>
      </trkpt>
      <trkpt lat="38.035460142418742" lon="12.589418319985271">
        <ele>753.80999999999995</ele>
        <time>2017-09-20T15:31:26Z</time>
      </trkpt>
      <trkpt lat="38.035475229844451" lon="12.589409938082099">
        <ele>754.28999999999996</ele>
        <time>2017-09-20T15:31:52Z</time>
      </trkpt>
      <trkpt lat="38.035469278693199" lon="12.589412704110146">
        <ele>753.33000000000004</ele>
        <time>2017-09-20T15:32:28Z</time>
      </trkpt>
      <trkpt lat="38.035481767728925" lon="12.589408932253718">
        <ele>754.28999999999996</ele>
        <time>2017-09-20T15:32:57Z</time>
      </trkpt>
      <trkpt lat="38.035469865426421" lon="12.589409351348877">
        <ele>754.28999999999996</ele>
        <time>2017-09-20T15:33:22Z</time>
      </trkpt>
      <trkpt lat="38.035460812970996" lon="12.589404573664069">
        <ele>754.28999999999996</ele>
        <time>2017-09-20T15:33:47Z</time>
      </trkpt>
      <trkpt lat="38.035463662818074" lon="12.589400466531515">
        <ele>754.76999999999998</ele>
        <time>2017-09-20T15:34:01Z</time>
      </trkpt>
      <trkpt lat="38.035465758293867" lon="12.589389737695456">
        <ele>754.76999999999998</ele>
        <time>2017-09-20T15:34:30Z</time>
      </trkpt>
      <trkpt lat="38.035465506836772" lon="12.589413374662399">
        <ele>755.25</ele>
        <time>2017-09-20T15:34:52Z</time>
      </trkpt>
      <trkpt lat="38.035471374168992" lon="12.589391078799963">
        <ele>754.28999999999996</ele>
        <time>2017-09-20T15:35:11Z</time>
      </trkpt>
      <trkpt lat="38.035489814355969" lon="12.589388145133853">
        <ele>754.76999999999998</ele>
        <time>2017-09-20T15:35:34Z</time>
      </trkpt>
      <trkpt lat="38.035488054156303" lon="12.589398035779595">
        <ele>754.28999999999996</ele>
        <time>2017-09-20T15:36:00Z</time>
      </trkpt>
      <trkpt lat="38.035494089126587" lon="12.589376578107476">
        <ele>754.76999999999998</ele>
        <time>2017-09-20T15:36:25Z</time>
      </trkpt>
      <trkpt lat="38.035464752465487" lon="12.589368363842368">
        <ele>755.25</ele>
        <time>2017-09-20T15:36:46Z</time>
      </trkpt>
      <trkpt lat="38.035491742193699" lon="12.589393090456724">
        <ele>755.25</ele>
        <time>2017-09-20T15:37:14Z</time>
      </trkpt>
      <trkpt lat="38.035468608140945" lon="12.589401807636023">
        <ele>755.25</ele>
        <time>2017-09-20T15:37:33Z</time>
      </trkpt>
      <trkpt lat="38.035456705838442" lon="12.5894168112427">
        <ele>755.73000000000002</ele>
        <time>2017-09-20T15:37:49Z</time>
      </trkpt>
      <trkpt lat="38.035453520715237" lon="12.589416056871414">
        <ele>755.73000000000002</ele>
        <time>2017-09-20T15:38:22Z</time>
      </trkpt>
      <trkpt lat="38.035440193489194" lon="12.589427288621664">
        <ele>756.21000000000004</ele>
        <time>2017-09-20T15:38:51Z</time>
      </trkpt>
      <trkpt lat="38.035450167953968" lon="12.589412620291114">
        <ele>755.73000000000002</ele>
        <time>2017-09-20T15:39:16Z</time>
      </trkpt>
      <trkpt lat="38.035457376390696" lon="12.589407423511147">
        <ele>756.21000000000004</ele>
        <time>2017-09-20T15:39:46Z</time>
      </trkpt>
      <trkpt lat="38.035455113276839" lon="12.589390156790614">
        <ele>757.17999999999995</ele>
        <time>2017-09-20T15:40:21Z</time>
      </trkpt>
      <trkpt lat="38.035451676696539" lon="12.589384708553553">
        <ele>756.69000000000005</ele>
        <time>2017-09-20T15:40:57Z</time>
      </trkpt>
      <trkpt lat="38.035443127155304" lon="12.589401556178927">
        <ele>757.17999999999995</ele>
        <time>2017-09-20T15:41:28Z</time>
      </trkpt>
      <trkpt lat="38.035463830456138" lon="12.589403567835689">
        <ele>757.65999999999997</ele>
        <time>2017-09-20T15:41:40Z</time>
      </trkpt>
      <trkpt lat="38.035433487966657" lon="12.589402310550213">
        <ele>757.17999999999995</ele>
        <time>2017-09-20T15:41:47Z</time>
      </trkpt>
      <trkpt lat="38.035417478531599" lon="12.589376913383603">
        <ele>757.17999999999995</ele>
        <time>2017-09-20T15:41:50Z</time>
      </trkpt>
      <trkpt lat="38.035405911505222" lon="12.589229475706816">
        <ele>756.21000000000004</ele>
        <time>2017-09-20T15:42:02Z</time>
      </trkpt>
      <trkpt lat="38.035402977839112" lon="12.589224865660071">
        <ele>755.73000000000002</ele>
        <time>2017-09-20T15:42:10Z</time>
      </trkpt>
      <trkpt lat="38.035439355298877" lon="12.589159654453397">
        <ele>755.25</ele>
        <time>2017-09-20T15:42:19Z</time>
      </trkpt>
      <trkpt lat="38.035451760515571" lon="12.589107602834702">
        <ele>754.76999999999998</ele>
        <time>2017-09-20T15:42:22Z</time>
      </trkpt>
      <trkpt lat="38.03553088568151" lon="12.589074997231364">
        <ele>752.85000000000002</ele>
        <time>2017-09-20T15:42:32Z</time>
      </trkpt>
      <trkpt lat="38.03554161451757" lon="12.589018838480115">
        <ele>750.92999999999995</ele>
        <time>2017-09-20T15:42:38Z</time>
      </trkpt>
      <trkpt lat="38.035544045269489" lon="12.588994279503822">
        <ele>749.97000000000003</ele>
        <time>2017-09-20T15:42:40Z</time>
      </trkpt>
      <trkpt lat="38.035574555397034" lon="12.588819433003664">
        <ele>747.55999999999995</ele>
        <time>2017-09-20T15:42:53Z</time>
      </trkpt>
      <trkpt lat="38.035602131858468" lon="12.588750952854753">
        <ele>747.08000000000004</ele>
        <time>2017-09-20T15:42:58Z</time>
      </trkpt>
      <trkpt lat="38.03559341467917" lon="12.588708875700831">
        <ele>746.60000000000002</ele>
        <time>2017-09-20T15:43:06Z</time>
      </trkpt>
      <trkpt lat="38.035578327253461" lon="12.588724717497826">
        <ele>746.60000000000002</ele>
        <time>2017-09-20T15:43:11Z</time>
      </trkpt>
      <trkpt lat="38.035581428557634" lon="12.58870393037796">
        <ele>747.08000000000004</ele>
        <time>2017-09-20T15:43:13Z</time>
      </trkpt>
      <trkpt lat="38.035580003634095" lon="12.588659841567278">
        <ele>747.08000000000004</ele>
        <time>2017-09-20T15:43:24Z</time>
      </trkpt>
      <trkpt lat="38.035637503489852" lon="12.588474936783314">
        <ele>746.12</ele>
        <time>2017-09-20T15:43:39Z</time>
      </trkpt>
      <trkpt lat="38.035702127963305" lon="12.588300509378314">
        <ele>745.15999999999997</ele>
        <time>2017-09-20T15:43:51Z</time>
      </trkpt>
      <trkpt lat="38.035758286714554" lon="12.588097415864468">
        <ele>743.72000000000003</ele>
        <time>2017-09-20T15:44:05Z</time>
      </trkpt>
      <trkpt lat="38.035769267007709" lon="12.587889963760972">
        <ele>742.27999999999997</ele>
        <time>2017-09-20T15:44:18Z</time>
      </trkpt>
      <trkpt lat="38.035769183188677" lon="12.587672034278512">
        <ele>740.83000000000004</ele>
        <time>2017-09-20T15:44:31Z</time>
      </trkpt>
      <trkpt lat="38.035727776587009" lon="12.587567595764995">
        <ele>739.87</ele>
        <time>2017-09-20T15:44:40Z</time>
      </trkpt>
      <trkpt lat="38.035725597292185" lon="12.58731379173696">
        <ele>738.42999999999995</ele>
        <time>2017-09-20T15:44:55Z</time>
      </trkpt>
      <trkpt lat="38.035737918689847" lon="12.587101059034467">
        <ele>736.99000000000001</ele>
        <time>2017-09-20T15:45:08Z</time>
      </trkpt>
      <trkpt lat="38.035753592848778" lon="12.586864940822124">
        <ele>735.07000000000005</ele>
        <time>2017-09-20T15:45:23Z</time>
      </trkpt>
      <trkpt lat="38.035787539556623" lon="12.586654638871551">
        <ele>733.13999999999999</ele>
        <time>2017-09-20T15:45:36Z</time>
      </trkpt>
      <trkpt lat="38.035826431587338" lon="12.586488258093596">
        <ele>732.17999999999995</ele>
        <time>2017-09-20T15:45:49Z</time>
      </trkpt>
      <trkpt lat="38.035846883431077" lon="12.586365044116974">
        <ele>731.22000000000003</ele>
        <time>2017-09-20T15:45:58Z</time>
      </trkpt>
      <trkpt lat="38.035847637802362" lon="12.58633017539978">
        <ele>730.74000000000001</ele>
        <time>2017-09-20T15:46:00Z</time>
      </trkpt>
      <trkpt lat="38.035864066332579" lon="12.586116855964065">
        <ele>728.82000000000005</ele>
        <time>2017-09-20T15:46:12Z</time>
      </trkpt>
      <trkpt lat="38.035863479599357" lon="12.586101097986102">
        <ele>728.82000000000005</ele>
        <time>2017-09-20T15:46:23Z</time>
      </trkpt>
      <trkpt lat="38.035873789340258" lon="12.585915522649884">
        <ele>727.86000000000001</ele>
        <time>2017-09-20T15:46:34Z</time>
      </trkpt>
      <trkpt lat="38.035899940878153" lon="12.585678230971098">
        <ele>726.40999999999997</ele>
        <time>2017-09-20T15:46:48Z</time>
      </trkpt>
      <trkpt lat="38.035922069102526" lon="12.585550406947732">
        <ele>725.92999999999995</ele>
        <time>2017-09-20T15:46:56Z</time>
      </trkpt>
      <trkpt lat="38.035940593108535" lon="12.585357539355755">
        <ele>724.97000000000003</ele>
        <time>2017-09-20T15:47:10Z</time>
      </trkpt>
      <trkpt lat="38.035945035517216" lon="12.585330046713352">
        <ele>724.97000000000003</ele>
        <time>2017-09-20T15:47:12Z</time>
      </trkpt>
      <trkpt lat="38.035949477925897" lon="12.585170455276966">
        <ele>724.49000000000001</ele>
        <time>2017-09-20T15:47:23Z</time>
      </trkpt>
      <trkpt lat="38.035975210368633" lon="12.584963338449597">
        <ele>723.04999999999995</ele>
        <time>2017-09-20T15:47:37Z</time>
      </trkpt>
      <trkpt lat="38.035990130156279" lon="12.584770387038589">
        <ele>722.09000000000003</ele>
        <time>2017-09-20T15:47:49Z</time>
      </trkpt>
      <trkpt lat="38.035960290580988" lon="12.584609119221568">
        <ele>721.61000000000001</ele>
        <time>2017-09-20T15:47:59Z</time>
      </trkpt>
      <trkpt lat="38.035877728834748" lon="12.584449360147119">
        <ele>721.13</ele>
        <time>2017-09-20T15:48:11Z</time>
      </trkpt>
      <trkpt lat="38.03585534915328" lon="12.584403678774834">
        <ele>720.15999999999997</ele>
        <time>2017-09-20T15:48:20Z</time>
      </trkpt>
      <trkpt lat="38.035851744934916" lon="12.58439127355814">
        <ele>720.15999999999997</ele>
        <time>2017-09-20T15:48:21Z</time>
      </trkpt>
      <trkpt lat="38.035833556205034" lon="12.58432631380856">
        <ele>719.67999999999995</ele>
        <time>2017-09-20T15:48:25Z</time>
      </trkpt>
      <trkpt lat="38.035794077441096" lon="12.584080053493381">
        <ele>719.67999999999995</ele>
        <time>2017-09-20T15:48:41Z</time>
      </trkpt>
      <trkpt lat="38.035795083269477" lon="12.583902943879366">
        <ele>719.67999999999995</ele>
        <time>2017-09-20T15:48:52Z</time>
      </trkpt>
      <trkpt lat="38.035808494314551" lon="12.583808898925781">
        <ele>719.20000000000005</ele>
        <time>2017-09-20T15:49:00Z</time>
      </trkpt>
      <trkpt lat="38.035813355818391" lon="12.583698676899076">
        <ele>719.20000000000005</ele>
        <time>2017-09-20T15:49:07Z</time>
      </trkpt>
      <trkpt lat="38.035825341939926" lon="12.583607565611601">
        <ele>718.72000000000003</ele>
        <time>2017-09-20T15:49:13Z</time>
      </trkpt>
      <trkpt lat="38.035845961421728" lon="12.583519807085395">
        <ele>719.20000000000005</ele>
        <time>2017-09-20T15:49:23Z</time>
      </trkpt>
      <trkpt lat="38.035918213427067" lon="12.583578396588564">
        <ele>718.72000000000003</ele>
        <time>2017-09-20T15:49:30Z</time>
      </trkpt>
      <trkpt lat="38.035949310287833" lon="12.583578145131469">
        <ele>719.67999999999995</ele>
        <time>2017-09-20T15:49:33Z</time>
      </trkpt>
      <trkpt lat="38.035965738818049" lon="12.583518382161856">
        <ele>719.20000000000005</ele>
        <time>2017-09-20T15:49:37Z</time>
      </trkpt>
      <trkpt lat="38.035991219803691" lon="12.583494074642658">
        <ele>719.20000000000005</ele>
        <time>2017-09-20T15:49:40Z</time>
      </trkpt>
      <trkpt lat="38.036005971953273" lon="12.583443196490407">
        <ele>718.72000000000003</ele>
        <time>2017-09-20T15:49:43Z</time>
      </trkpt>
      <trkpt lat="38.036022568121552" lon="12.583404807373881">
        <ele>719.20000000000005</ele>
        <time>2017-09-20T15:49:46Z</time>
      </trkpt>
      <trkpt lat="38.036090545356274" lon="12.58336172439158">
        <ele>719.20000000000005</ele>
        <time>2017-09-20T15:49:57Z</time>
      </trkpt>
      <trkpt lat="38.036111835390329" lon="12.583356695249677">
        <ele>718.72000000000003</ele>
        <time>2017-09-20T15:49:59Z</time>
      </trkpt>
      <trkpt lat="38.036135137081146" lon="12.58323909714818">
        <ele>718.72000000000003</ele>
        <time>2017-09-20T15:50:10Z</time>
      </trkpt>
    </trkseg>
  </trk>

  <trk>
    <name>2017-09-21riserva dello Zingaro</name>
    <extensions>
      <gpxx:TrackExtension>
        <gpxx:DisplayColor>Yellow</gpxx:DisplayColor>
      </gpxx:TrackExtension>
      <gpxtrkx:TrackStatsExtension xmlns:gpxtrkx="http://www.garmin.com/xmlschemas/TrackStatsExtension/v1">
        <gpxtrkx:Distance>8246</gpxtrkx:Distance>
        <gpxtrkx:TotalElapsedTime>17645</gpxtrkx:TotalElapsedTime>
        <gpxtrkx:MovingTime>9484</gpxtrkx:MovingTime>
        <gpxtrkx:StoppedTime>8146</gpxtrkx:StoppedTime>
        <gpxtrkx:MovingSpeed>1</gpxtrkx:MovingSpeed>
        <gpxtrkx:MaxSpeed>2</gpxtrkx:MaxSpeed>
        <gpxtrkx:MaxElevation>119</gpxtrkx:MaxElevation>
        <gpxtrkx:MinElevation>9</gpxtrkx:MinElevation>
        <gpxtrkx:Ascent>239</gpxtrkx:Ascent>
        <gpxtrkx:Descent>266</gpxtrkx:Descent>
        <gpxtrkx:AvgAscentRate>0</gpxtrkx:AvgAscentRate>
        <gpxtrkx:MaxAscentRate>0</gpxtrkx:MaxAscentRate>
        <gpxtrkx:AvgDescentRate>0</gpxtrkx:AvgDescentRate>
        <gpxtrkx:MaxDescentRate>-0</gpxtrkx:MaxDescentRate>
      </gpxtrkx:TrackStatsExtension>
    </extensions>
    <trkseg>
      <trkpt lat="38.081882726401091" lon="12.808096641674638">
        <ele>89.060000000000002</ele>
        <time>2017-09-21T07:53:00Z</time>
      </trkpt>
      <trkpt lat="38.081881133839488" lon="12.808095049113035">
        <ele>89.060000000000002</ele>
        <time>2017-09-21T07:53:01Z</time>
      </trkpt>
      <trkpt lat="38.081885827705264" lon="12.808094713836908">
        <ele>87.140000000000001</ele>
        <time>2017-09-21T07:53:06Z</time>
      </trkpt>
      <trkpt lat="38.081894796341658" lon="12.808057246729732">
        <ele>87.620000000000005</ele>
        <time>2017-09-21T07:53:22Z</time>
      </trkpt>
      <trkpt lat="38.081925390288234" lon="12.808030257001519">
        <ele>87.140000000000001</ele>
        <time>2017-09-21T07:53:33Z</time>
      </trkpt>
      <trkpt lat="38.081963779404759" lon="12.808016175404191">
        <ele>87.140000000000001</ele>
        <time>2017-09-21T07:53:45Z</time>
      </trkpt>
      <trkpt lat="38.082019435241818" lon="12.807979043573141">
        <ele>87.140000000000001</ele>
        <time>2017-09-21T07:53:57Z</time>
      </trkpt>
      <trkpt lat="38.082075677812099" lon="12.807906623929739">
        <ele>86.180000000000007</ele>
        <time>2017-09-21T07:54:10Z</time>
      </trkpt>
      <trkpt lat="38.082136195152998" lon="12.80781090259552">
        <ele>85.209999999999994</ele>
        <time>2017-09-21T07:54:21Z</time>
      </trkpt>
      <trkpt lat="38.082152707502246" lon="12.807785589247942">
        <ele>85.209999999999994</ele>
        <time>2017-09-21T07:54:24Z</time>
      </trkpt>
      <trkpt lat="38.082219762727618" lon="12.807704703882337">
        <ele>84.25</ele>
        <time>2017-09-21T07:54:38Z</time>
      </trkpt>
      <trkpt lat="38.082225546240807" lon="12.807683497667313">
        <ele>84.25</ele>
        <time>2017-09-21T07:54:54Z</time>
      </trkpt>
      <trkpt lat="38.082254212349653" lon="12.807720629498363">
        <ele>84.25</ele>
        <time>2017-09-21T07:55:08Z</time>
      </trkpt>
      <trkpt lat="38.082291092723608" lon="12.80767310410738">
        <ele>84.25</ele>
        <time>2017-09-21T07:55:22Z</time>
      </trkpt>
      <trkpt lat="38.082323279231787" lon="12.80759640969336">
        <ele>83.290000000000006</ele>
        <time>2017-09-21T07:55:29Z</time>
      </trkpt>
      <trkpt lat="38.082356471568346" lon="12.807580651715398">
        <ele>83.290000000000006</ele>
        <time>2017-09-21T07:55:32Z</time>
      </trkpt>
      <trkpt lat="38.082497706636786" lon="12.807499011978507">
        <ele>82.329999999999998</ele>
        <time>2017-09-21T07:55:46Z</time>
      </trkpt>
      <trkpt lat="38.082599546760321" lon="12.807494401931763">
        <ele>81.370000000000005</ele>
        <time>2017-09-21T07:55:58Z</time>
      </trkpt>
      <trkpt lat="38.082605665549636" lon="12.807498257607222">
        <ele>81.849999999999994</ele>
        <time>2017-09-21T07:56:13Z</time>
      </trkpt>
      <trkpt lat="38.082613544538617" lon="12.807490881532431">
        <ele>81.370000000000005</ele>
        <time>2017-09-21T07:56:28Z</time>
      </trkpt>
      <trkpt lat="38.082684706896544" lon="12.807462802156806">
        <ele>81.370000000000005</ele>
        <time>2017-09-21T07:56:41Z</time>
      </trkpt>
      <trkpt lat="38.082712031900883" lon="12.80743757262826">
        <ele>80.890000000000001</ele>
        <time>2017-09-21T07:56:54Z</time>
      </trkpt>
      <trkpt lat="38.082848405465484" lon="12.807397842407227">
        <ele>80.890000000000001</ele>
        <time>2017-09-21T07:57:09Z</time>
      </trkpt>
      <trkpt lat="38.082893248647451" lon="12.807285273447633">
        <ele>81.370000000000005</ele>
        <time>2017-09-21T07:57:28Z</time>
      </trkpt>
      <trkpt lat="38.082731980830431" lon="12.80745810829103">
        <ele>81.370000000000005</ele>
        <time>2017-09-21T07:57:44Z</time>
      </trkpt>
      <trkpt lat="38.082716474309564" lon="12.807470848783851">
        <ele>81.370000000000005</ele>
        <time>2017-09-21T07:57:55Z</time>
      </trkpt>
      <trkpt lat="38.08270113542676" lon="12.807455509901047">
        <ele>81.370000000000005</ele>
        <time>2017-09-21T07:58:10Z</time>
      </trkpt>
      <trkpt lat="38.08270113542676" lon="12.807452660053968">
        <ele>81.370000000000005</ele>
        <time>2017-09-21T07:58:24Z</time>
      </trkpt>
      <trkpt lat="38.082696609199047" lon="12.807482415810227">
        <ele>81.370000000000005</ele>
        <time>2017-09-21T07:58:50Z</time>
      </trkpt>
      <trkpt lat="38.082690825685859" lon="12.807491216808558">
        <ele>81.370000000000005</ele>
        <time>2017-09-21T07:59:14Z</time>
      </trkpt>
      <trkpt lat="38.082686131820083" lon="12.807485936209559">
        <ele>81.849999999999994</ele>
        <time>2017-09-21T07:59:34Z</time>
      </trkpt>
      <trkpt lat="38.082696609199047" lon="12.807476464658976">
        <ele>81.370000000000005</ele>
        <time>2017-09-21T08:00:03Z</time>
      </trkpt>
      <trkpt lat="38.082696860656142" lon="12.807482415810227">
        <ele>81.849999999999994</ele>
        <time>2017-09-21T08:00:21Z</time>
      </trkpt>
      <trkpt lat="38.082691328600049" lon="12.807485852390528">
        <ele>81.849999999999994</ele>
        <time>2017-09-21T08:00:36Z</time>
      </trkpt>
      <trkpt lat="38.082685545086861" lon="12.807480236515403">
        <ele>81.849999999999994</ele>
        <time>2017-09-21T08:00:59Z</time>
      </trkpt>
      <trkpt lat="38.082668948918581" lon="12.807499682530761">
        <ele>81.849999999999994</ele>
        <time>2017-09-21T08:01:14Z</time>
      </trkpt>
      <trkpt lat="38.08267087675631" lon="12.807491552084684">
        <ele>81.849999999999994</ele>
        <time>2017-09-21T08:01:32Z</time>
      </trkpt>
      <trkpt lat="38.08268453925848" lon="12.807511584833264">
        <ele>81.849999999999994</ele>
        <time>2017-09-21T08:01:50Z</time>
      </trkpt>
      <trkpt lat="38.082688143476844" lon="12.807503202930093">
        <ele>81.849999999999994</ele>
        <time>2017-09-21T08:02:11Z</time>
      </trkpt>
      <trkpt lat="38.082727370783687" lon="12.807496329769492">
        <ele>81.849999999999994</ele>
        <time>2017-09-21T08:02:22Z</time>
      </trkpt>
      <trkpt lat="38.082817140966654" lon="12.807466574013233">
        <ele>81.849999999999994</ele>
        <time>2017-09-21T08:02:36Z</time>
      </trkpt>
      <trkpt lat="38.082889895886183" lon="12.807510998100042">
        <ele>81.370000000000005</ele>
        <time>2017-09-21T08:02:59Z</time>
      </trkpt>
      <trkpt lat="38.083285102620721" lon="12.807469926774502">
        <ele>80.409999999999997</ele>
        <time>2017-09-21T08:03:29Z</time>
      </trkpt>
      <trkpt lat="38.083468498662114" lon="12.807350819930434">
        <ele>80.409999999999997</ele>
        <time>2017-09-21T08:03:41Z</time>
      </trkpt>
      <trkpt lat="38.083475455641747" lon="12.807340258732438">
        <ele>79.930000000000007</ele>
        <time>2017-09-21T08:03:53Z</time>
      </trkpt>
      <trkpt lat="38.08351325802505" lon="12.807346042245626">
        <ele>78.480000000000004</ele>
        <time>2017-09-21T08:04:03Z</time>
      </trkpt>
      <trkpt lat="38.083566734567285" lon="12.807355178520083">
        <ele>77.040000000000006</ele>
        <time>2017-09-21T08:04:13Z</time>
      </trkpt>
      <trkpt lat="38.083602441474795" lon="12.807360710576177">
        <ele>76.560000000000002</ele>
        <time>2017-09-21T08:04:19Z</time>
      </trkpt>
      <trkpt lat="38.083703694865108" lon="12.807391723617911">
        <ele>74.159999999999997</ele>
        <time>2017-09-21T08:04:30Z</time>
      </trkpt>
      <trkpt lat="38.083744179457426" lon="12.807399099692702">
        <ele>72.719999999999999</ele>
        <time>2017-09-21T08:04:38Z</time>
      </trkpt>
      <trkpt lat="38.083816515281796" lon="12.807394489645958">
        <ele>71.760000000000005</ele>
        <time>2017-09-21T08:04:48Z</time>
      </trkpt>
      <trkpt lat="38.083866722881794" lon="12.807416198775172">
        <ele>70.310000000000002</ele>
        <time>2017-09-21T08:04:57Z</time>
      </trkpt>
      <trkpt lat="38.083932353183627" lon="12.80742877162993">
        <ele>68.870000000000005</ele>
        <time>2017-09-21T08:05:08Z</time>
      </trkpt>
      <trkpt lat="38.083980716764927" lon="12.807447547093034">
        <ele>67.430000000000007</ele>
        <time>2017-09-21T08:05:15Z</time>
      </trkpt>
      <trkpt lat="38.084121532738209" lon="12.807492977008224">
        <ele>65.030000000000001</ele>
        <time>2017-09-21T08:05:29Z</time>
      </trkpt>
      <trkpt lat="38.084193617105484" lon="12.807449223473668">
        <ele>66.469999999999999</ele>
        <time>2017-09-21T08:05:40Z</time>
      </trkpt>
      <trkpt lat="38.084280621260405" lon="12.807453917339444">
        <ele>66.950000000000003</ele>
        <time>2017-09-21T08:05:51Z</time>
      </trkpt>
      <trkpt lat="38.084340216591954" lon="12.807452408596873">
        <ele>68.390000000000001</ele>
        <time>2017-09-21T08:06:01Z</time>
      </trkpt>
      <trkpt lat="38.084381790831685" lon="12.807448720559478">
        <ele>67.909999999999997</ele>
        <time>2017-09-21T08:06:06Z</time>
      </trkpt>
      <trkpt lat="38.084500227123499" lon="12.807474788278341">
        <ele>70.310000000000002</ele>
        <time>2017-09-21T08:06:20Z</time>
      </trkpt>
      <trkpt lat="38.084523193538189" lon="12.807495994493365">
        <ele>70.310000000000002</ele>
        <time>2017-09-21T08:06:22Z</time>
      </trkpt>
      <trkpt lat="38.084558146074414" lon="12.807503035292029">
        <ele>70.790000000000006</ele>
        <time>2017-09-21T08:06:26Z</time>
      </trkpt>
      <trkpt lat="38.0846107006073" lon="12.807485600933433">
        <ele>70.310000000000002</ele>
        <time>2017-09-21T08:06:34Z</time>
      </trkpt>
      <trkpt lat="38.084677504375577" lon="12.807439249008894">
        <ele>69.349999999999994</ele>
        <time>2017-09-21T08:06:46Z</time>
      </trkpt>
      <trkpt lat="38.084669709205627" lon="12.807443272322416">
        <ele>69.349999999999994</ele>
        <time>2017-09-21T08:06:49Z</time>
      </trkpt>
      <trkpt lat="38.08470206335187" lon="12.807417791336775">
        <ele>69.349999999999994</ele>
        <time>2017-09-21T08:06:53Z</time>
      </trkpt>
      <trkpt lat="38.084747074171901" lon="12.807348892092705">
        <ele>68.390000000000001</ele>
        <time>2017-09-21T08:07:01Z</time>
      </trkpt>
      <trkpt lat="38.084756880998611" lon="12.807310922071338">
        <ele>68.390000000000001</ele>
        <time>2017-09-21T08:07:04Z</time>
      </trkpt>
      <trkpt lat="38.0847695376724" lon="12.807280495762825">
        <ele>68.390000000000001</ele>
        <time>2017-09-21T08:07:07Z</time>
      </trkpt>
      <trkpt lat="38.084792671725154" lon="12.807249398902059">
        <ele>67.909999999999997</ele>
        <time>2017-09-21T08:07:16Z</time>
      </trkpt>
      <trkpt lat="38.084858050569892" lon="12.80714294873178">
        <ele>67.909999999999997</ele>
        <time>2017-09-21T08:07:26Z</time>
      </trkpt>
      <trkpt lat="38.084883615374565" lon="12.807085616514087">
        <ele>67.909999999999997</ele>
        <time>2017-09-21T08:07:36Z</time>
      </trkpt>
      <trkpt lat="38.084904653951526" lon="12.807037169113755">
        <ele>68.390000000000001</ele>
        <time>2017-09-21T08:07:45Z</time>
      </trkpt>
      <trkpt lat="38.084943881258368" lon="12.806982435286045">
        <ele>66.950000000000003</ele>
        <time>2017-09-21T08:07:53Z</time>
      </trkpt>
      <trkpt lat="38.08498302474618" lon="12.806918900460005">
        <ele>65.989999999999995</ele>
        <time>2017-09-21T08:08:04Z</time>
      </trkpt>
      <trkpt lat="38.085019402205944" lon="12.806841367855668">
        <ele>65.989999999999995</ele>
        <time>2017-09-21T08:08:16Z</time>
      </trkpt>
      <trkpt lat="38.085036752745509" lon="12.806818233802915">
        <ele>65.989999999999995</ele>
        <time>2017-09-21T08:08:25Z</time>
      </trkpt>
      <trkpt lat="38.085039602592587" lon="12.806807840242982">
        <ele>65.989999999999995</ele>
        <time>2017-09-21T08:08:26Z</time>
      </trkpt>
      <trkpt lat="38.085077991709113" lon="12.806664425879717">
        <ele>66.469999999999999</ele>
        <time>2017-09-21T08:08:38Z</time>
      </trkpt>
      <trkpt lat="38.085132306441665" lon="12.806536769494414">
        <ele>67.430000000000007</ele>
        <time>2017-09-21T08:08:50Z</time>
      </trkpt>
      <trkpt lat="38.085130713880062" lon="12.806433755904436">
        <ele>68.870000000000005</ele>
        <time>2017-09-21T08:09:00Z</time>
      </trkpt>
      <trkpt lat="38.085123253986239" lon="12.806323282420635">
        <ele>70.790000000000006</ele>
        <time>2017-09-21T08:09:11Z</time>
      </trkpt>
      <trkpt lat="38.085128450766206" lon="12.806242983788252">
        <ele>72.239999999999995</ele>
        <time>2017-09-21T08:09:23Z</time>
      </trkpt>
      <trkpt lat="38.08516088873148" lon="12.806143993511796">
        <ele>73.200000000000003</ele>
        <time>2017-09-21T08:09:35Z</time>
      </trkpt>
      <trkpt lat="38.085264237597585" lon="12.806093115359545">
        <ele>72.719999999999999</ele>
        <time>2017-09-21T08:09:47Z</time>
      </trkpt>
      <trkpt lat="38.085268177092075" lon="12.806091355159879">
        <ele>72.719999999999999</ele>
        <time>2017-09-21T08:09:48Z</time>
      </trkpt>
      <trkpt lat="38.0852928198874" lon="12.806063694879413">
        <ele>72.719999999999999</ele>
        <time>2017-09-21T08:09:59Z</time>
      </trkpt>
      <trkpt lat="38.085274631157517" lon="12.805963363498449">
        <ele>72.719999999999999</ele>
        <time>2017-09-21T08:10:09Z</time>
      </trkpt>
      <trkpt lat="38.085278989747167" lon="12.805943749845028">
        <ele>72.719999999999999</ele>
        <time>2017-09-21T08:10:18Z</time>
      </trkpt>
      <trkpt lat="38.085279325023293" lon="12.805957747623324">
        <ele>72.719999999999999</ele>
        <time>2017-09-21T08:10:31Z</time>
      </trkpt>
      <trkpt lat="38.085278822109103" lon="12.805967386811972">
        <ele>72.719999999999999</ele>
        <time>2017-09-21T08:10:43Z</time>
      </trkpt>
      <trkpt lat="38.085276810452342" lon="12.805957496166229">
        <ele>72.719999999999999</ele>
        <time>2017-09-21T08:11:02Z</time>
      </trkpt>
      <trkpt lat="38.085281169041991" lon="12.805938888341188">
        <ele>72.719999999999999</ele>
        <time>2017-09-21T08:11:16Z</time>
      </trkpt>
      <trkpt lat="38.085276056081057" lon="12.805957747623324">
        <ele>72.719999999999999</ele>
        <time>2017-09-21T08:11:28Z</time>
      </trkpt>
      <trkpt lat="38.085282258689404" lon="12.805955987423658">
        <ele>72.719999999999999</ele>
        <time>2017-09-21T08:11:46Z</time>
      </trkpt>
      <trkpt lat="38.085274212062359" lon="12.80595020391047">
        <ele>72.719999999999999</ele>
        <time>2017-09-21T08:12:01Z</time>
      </trkpt>
      <trkpt lat="38.085256777703762" lon="12.805949784815311">
        <ele>72.239999999999995</ele>
        <time>2017-09-21T08:12:14Z</time>
      </trkpt>
      <trkpt lat="38.085266668349504" lon="12.805937211960554">
        <ele>72.239999999999995</ele>
        <time>2017-09-21T08:12:31Z</time>
      </trkpt>
      <trkpt lat="38.085263064131141" lon="12.80593603849411">
        <ele>72.239999999999995</ele>
        <time>2017-09-21T08:12:45Z</time>
      </trkpt>
      <trkpt lat="38.085243618115783" lon="12.805935870856047">
        <ele>72.719999999999999</ele>
        <time>2017-09-21T08:12:48Z</time>
      </trkpt>
      <trkpt lat="38.085249150171876" lon="12.805927572771907">
        <ele>73.200000000000003</ele>
        <time>2017-09-21T08:12:58Z</time>
      </trkpt>
      <trkpt lat="38.085242612287402" lon="12.805919693782926">
        <ele>72.719999999999999</ele>
        <time>2017-09-21T08:13:10Z</time>
      </trkpt>
      <trkpt lat="38.085260717198253" lon="12.805912317708135">
        <ele>73.200000000000003</ele>
        <time>2017-09-21T08:13:27Z</time>
      </trkpt>
      <trkpt lat="38.085260298103094" lon="12.805914832279086">
        <ele>73.200000000000003</ele>
        <time>2017-09-21T08:13:49Z</time>
      </trkpt>
      <trkpt lat="38.085278989747167" lon="12.805920112878084">
        <ele>73.200000000000003</ele>
        <time>2017-09-21T08:14:06Z</time>
      </trkpt>
      <trkpt lat="38.085278067737818" lon="12.805930003523827">
        <ele>72.719999999999999</ele>
        <time>2017-09-21T08:14:28Z</time>
      </trkpt>
      <trkpt lat="38.085271948948503" lon="12.805950958281755">
        <ele>72.719999999999999</ele>
        <time>2017-09-21T08:14:42Z</time>
      </trkpt>
      <trkpt lat="38.085297513753176" lon="12.805952550843358">
        <ele>72.719999999999999</ele>
        <time>2017-09-21T08:14:59Z</time>
      </trkpt>
      <trkpt lat="38.085296088829637" lon="12.805944588035345">
        <ele>72.239999999999995</ele>
        <time>2017-09-21T08:15:16Z</time>
      </trkpt>
      <trkpt lat="38.0853221565485" lon="12.805931093171239">
        <ele>71.760000000000005</ele>
        <time>2017-09-21T08:15:28Z</time>
      </trkpt>
      <trkpt lat="38.08534562587738" lon="12.805952802300453">
        <ele>71.760000000000005</ele>
        <time>2017-09-21T08:15:39Z</time>
      </trkpt>
      <trkpt lat="38.085359539836645" lon="12.805971242487431">
        <ele>71.269999999999996</ele>
        <time>2017-09-21T08:15:47Z</time>
      </trkpt>
      <trkpt lat="38.085409328341484" lon="12.80600979924202">
        <ele>70.790000000000006</ele>
        <time>2017-09-21T08:16:00Z</time>
      </trkpt>
      <trkpt lat="38.085467414930463" lon="12.80602840706706">
        <ele>69.349999999999994</ele>
        <time>2017-09-21T08:16:12Z</time>
      </trkpt>
      <trkpt lat="38.085571601986885" lon="12.806064197793603">
        <ele>67.430000000000007</ele>
        <time>2017-09-21T08:16:24Z</time>
      </trkpt>
      <trkpt lat="38.085648128762841" lon="12.80610803514719">
        <ele>66.469999999999999</ele>
        <time>2017-09-21T08:16:35Z</time>
      </trkpt>
      <trkpt lat="38.085679728537798" lon="12.806062018498778">
        <ele>66.469999999999999</ele>
        <time>2017-09-21T08:16:44Z</time>
      </trkpt>
      <trkpt lat="38.085717363283038" lon="12.805999321863055">
        <ele>66.469999999999999</ele>
        <time>2017-09-21T08:16:55Z</time>
      </trkpt>
      <trkpt lat="38.085724487900734" lon="12.805980797857046">
        <ele>66.950000000000003</ele>
        <time>2017-09-21T08:16:57Z</time>
      </trkpt>
      <trkpt lat="38.085735803470016" lon="12.805831851437688">
        <ele>66.950000000000003</ele>
        <time>2017-09-21T08:17:11Z</time>
      </trkpt>
      <trkpt lat="38.085744185373187" lon="12.805750044062734">
        <ele>65.989999999999995</ele>
        <time>2017-09-21T08:17:22Z</time>
      </trkpt>
      <trkpt lat="38.08575851842761" lon="12.805638061836362">
        <ele>65.030000000000001</ele>
        <time>2017-09-21T08:17:34Z</time>
      </trkpt>
      <trkpt lat="38.085766397416592" lon="12.805560193955898">
        <ele>65.030000000000001</ele>
        <time>2017-09-21T08:17:45Z</time>
      </trkpt>
      <trkpt lat="38.085772264748812" lon="12.805514680221677">
        <ele>64.549999999999997</ele>
        <time>2017-09-21T08:17:54Z</time>
      </trkpt>
      <trkpt lat="38.08579514734447" lon="12.805424993857741">
        <ele>64.069999999999993</ele>
        <time>2017-09-21T08:18:06Z</time>
      </trkpt>
      <trkpt lat="38.085803613066673" lon="12.805341174826026">
        <ele>63.579999999999998</ele>
        <time>2017-09-21T08:18:17Z</time>
      </trkpt>
      <trkpt lat="38.08582448400557" lon="12.805247465148568">
        <ele>63.100000000000001</ele>
        <time>2017-09-21T08:18:28Z</time>
      </trkpt>
      <trkpt lat="38.085844349116087" lon="12.805189713835716">
        <ele>62.140000000000001</ele>
        <time>2017-09-21T08:18:36Z</time>
      </trkpt>
      <trkpt lat="38.085877122357488" lon="12.805117545649409">
        <ele>62.140000000000001</ele>
        <time>2017-09-21T08:18:44Z</time>
      </trkpt>
      <trkpt lat="38.085939483717084" lon="12.805033307522535">
        <ele>61.659999999999997</ele>
        <time>2017-09-21T08:18:55Z</time>
      </trkpt>
      <trkpt lat="38.085975022986531" lon="12.804990727454424">
        <ele>61.659999999999997</ele>
        <time>2017-09-21T08:19:00Z</time>
      </trkpt>
      <trkpt lat="38.086036965250969" lon="12.804931048303843">
        <ele>61.18</ele>
        <time>2017-09-21T08:19:11Z</time>
      </trkpt>
      <trkpt lat="38.086099242791533" lon="12.804865669459105">
        <ele>60.700000000000003</ele>
        <time>2017-09-21T08:19:22Z</time>
      </trkpt>
      <trkpt lat="38.086142409592867" lon="12.804804900661111">
        <ele>60.219999999999999</ele>
        <time>2017-09-21T08:19:31Z</time>
      </trkpt>
      <trkpt lat="38.086208458989859" lon="12.80472376383841">
        <ele>59.259999999999998</ele>
        <time>2017-09-21T08:19:42Z</time>
      </trkpt>
      <trkpt lat="38.086258163675666" lon="12.804653272032738">
        <ele>59.259999999999998</ele>
        <time>2017-09-21T08:19:50Z</time>
      </trkpt>
      <trkpt lat="38.086268389597535" lon="12.804621420800686">
        <ele>58.780000000000001</ele>
        <time>2017-09-21T08:19:53Z</time>
      </trkpt>
      <trkpt lat="38.086372576653957" lon="12.804500553756952">
        <ele>58.780000000000001</ele>
        <time>2017-09-21T08:20:07Z</time>
      </trkpt>
      <trkpt lat="38.086470058187842" lon="12.804388152435422">
        <ele>58.780000000000001</ele>
        <time>2017-09-21T08:20:20Z</time>
      </trkpt>
      <trkpt lat="38.086534682661295" lon="12.804303495213389">
        <ele>58.780000000000001</ele>
        <time>2017-09-21T08:20:30Z</time>
      </trkpt>
      <trkpt lat="38.086601067334414" lon="12.804195117205381">
        <ele>59.259999999999998</ele>
        <time>2017-09-21T08:20:41Z</time>
      </trkpt>
      <trkpt lat="38.086686730384827" lon="12.804127391427755">
        <ele>59.259999999999998</ele>
        <time>2017-09-21T08:20:52Z</time>
      </trkpt>
      <trkpt lat="38.086732495576143" lon="12.804018259048462">
        <ele>59.259999999999998</ele>
        <time>2017-09-21T08:21:03Z</time>
      </trkpt>
      <trkpt lat="38.086746828630567" lon="12.803921196609735">
        <ele>60.219999999999999</ele>
        <time>2017-09-21T08:21:15Z</time>
      </trkpt>
      <trkpt lat="38.08677239343524" lon="12.803836455568671">
        <ele>58.780000000000001</ele>
        <time>2017-09-21T08:21:29Z</time>
      </trkpt>
      <trkpt lat="38.086765352636576" lon="12.803759844973683">
        <ele>57.340000000000003</ele>
        <time>2017-09-21T08:21:42Z</time>
      </trkpt>
      <trkpt lat="38.08677339926362" lon="12.803687173873186">
        <ele>56.369999999999997</ele>
        <time>2017-09-21T08:21:54Z</time>
      </trkpt>
      <trkpt lat="38.086858810856938" lon="12.803641660138965">
        <ele>55.409999999999997</ele>
        <time>2017-09-21T08:22:06Z</time>
      </trkpt>
      <trkpt lat="38.086901642382145" lon="12.803673259913921">
        <ele>56.369999999999997</ele>
        <time>2017-09-21T08:22:17Z</time>
      </trkpt>
      <trkpt lat="38.086972218006849" lon="12.803694885224104">
        <ele>57.82</ele>
        <time>2017-09-21T08:22:28Z</time>
      </trkpt>
      <trkpt lat="38.087027370929718" lon="12.803696813061833">
        <ele>58.780000000000001</ele>
        <time>2017-09-21T08:22:40Z</time>
      </trkpt>
      <trkpt lat="38.087091660127044" lon="12.803680803626776">
        <ele>59.740000000000002</ele>
        <time>2017-09-21T08:22:53Z</time>
      </trkpt>
      <trkpt lat="38.087157290428877" lon="12.803667141124606">
        <ele>60.700000000000003</ele>
        <time>2017-09-21T08:23:05Z</time>
      </trkpt>
      <trkpt lat="38.087202217429876" lon="12.803661441430449">
        <ele>61.18</ele>
        <time>2017-09-21T08:23:13Z</time>
      </trkpt>
      <trkpt lat="38.087267847731709" lon="12.803678791970015">
        <ele>62.619999999999997</ele>
        <time>2017-09-21T08:23:24Z</time>
      </trkpt>
      <trkpt lat="38.087307326495647" lon="12.803656915202737">
        <ele>63.579999999999998</ele>
        <time>2017-09-21T08:23:34Z</time>
      </trkpt>
      <trkpt lat="38.087337082251906" lon="12.803644593805075">
        <ele>64.069999999999993</ele>
        <time>2017-09-21T08:23:43Z</time>
      </trkpt>
      <trkpt lat="38.087378572672606" lon="12.803632775321603">
        <ele>65.030000000000001</ele>
        <time>2017-09-21T08:23:52Z</time>
      </trkpt>
      <trkpt lat="38.087421823292971" lon="12.803626656532288">
        <ele>66.469999999999999</ele>
        <time>2017-09-21T08:24:04Z</time>
      </trkpt>
      <trkpt lat="38.087474042549729" lon="12.803625566884875">
        <ele>67.430000000000007</ele>
        <time>2017-09-21T08:24:13Z</time>
      </trkpt>
      <trkpt lat="38.087528441101313" lon="12.803585166111588">
        <ele>68.870000000000005</ele>
        <time>2017-09-21T08:24:28Z</time>
      </trkpt>
      <trkpt lat="38.087567919865251" lon="12.803568569943309">
        <ele>70.310000000000002</ele>
        <time>2017-09-21T08:24:38Z</time>
      </trkpt>
      <trkpt lat="38.087617121636868" lon="12.803568234667182">
        <ele>70.790000000000006</ele>
        <time>2017-09-21T08:24:50Z</time>
      </trkpt>
      <trkpt lat="38.087674872949719" lon="12.803571838885546">
        <ele>72.239999999999995</ele>
        <time>2017-09-21T08:25:00Z</time>
      </trkpt>
      <trkpt lat="38.087704293429852" lon="12.803549543023109">
        <ele>72.719999999999999</ele>
        <time>2017-09-21T08:25:09Z</time>
      </trkpt>
      <trkpt lat="38.087714770808816" lon="12.803558763116598">
        <ele>72.719999999999999</ele>
        <time>2017-09-21T08:25:11Z</time>
      </trkpt>
      <trkpt lat="38.087747041136026" lon="12.803557086735964">
        <ele>72.719999999999999</ele>
        <time>2017-09-21T08:25:15Z</time>
      </trkpt>
      <trkpt lat="38.08781560510397" lon="12.803522553294897">
        <ele>73.200000000000003</ele>
        <time>2017-09-21T08:25:26Z</time>
      </trkpt>
      <trkpt lat="38.087828764691949" lon="12.803463041782379">
        <ele>73.680000000000007</ele>
        <time>2017-09-21T08:25:36Z</time>
      </trkpt>
      <trkpt lat="38.087856005877256" lon="12.803392801433802">
        <ele>72.719999999999999</ele>
        <time>2017-09-21T08:25:47Z</time>
      </trkpt>
      <trkpt lat="38.087914427742362" lon="12.803340246900916">
        <ele>70.310000000000002</ele>
        <time>2017-09-21T08:26:00Z</time>
      </trkpt>
      <trkpt lat="38.087983326986432" lon="12.803391627967358">
        <ele>67.430000000000007</ele>
        <time>2017-09-21T08:26:11Z</time>
      </trkpt>
      <trkpt lat="38.088021380826831" lon="12.803437309339643">
        <ele>65.989999999999995</ele>
        <time>2017-09-21T08:26:20Z</time>
      </trkpt>
      <trkpt lat="38.08812003582716" lon="12.803457425907254">
        <ele>65.989999999999995</ele>
        <time>2017-09-21T08:26:33Z</time>
      </trkpt>
      <trkpt lat="38.088162364438176" lon="12.803482403978705">
        <ele>66.469999999999999</ele>
        <time>2017-09-21T08:26:41Z</time>
      </trkpt>
      <trkpt lat="38.088236795738339" lon="12.803548621013761">
        <ele>65.989999999999995</ele>
        <time>2017-09-21T08:26:52Z</time>
      </trkpt>
      <trkpt lat="38.088277028873563" lon="12.80357988551259">
        <ele>65.989999999999995</ele>
        <time>2017-09-21T08:27:02Z</time>
      </trkpt>
      <trkpt lat="38.088303431868553" lon="12.803605953231454">
        <ele>65.989999999999995</ele>
        <time>2017-09-21T08:27:15Z</time>
      </trkpt>
      <trkpt lat="38.08830670081079" lon="12.803640738129616">
        <ele>65.989999999999995</ele>
        <time>2017-09-21T08:27:27Z</time>
      </trkpt>
      <trkpt lat="38.088322794064879" lon="12.803624644875526">
        <ele>65.989999999999995</ele>
        <time>2017-09-21T08:27:40Z</time>
      </trkpt>
      <trkpt lat="38.088352549821138" lon="12.803646102547646">
        <ele>65.989999999999995</ele>
        <time>2017-09-21T08:27:44Z</time>
      </trkpt>
      <trkpt lat="38.088370487093925" lon="12.803690191358328">
        <ele>65.510000000000005</ele>
        <time>2017-09-21T08:27:53Z</time>
      </trkpt>
      <trkpt lat="38.088440727442503" lon="12.803719360381365">
        <ele>65.030000000000001</ele>
        <time>2017-09-21T08:28:03Z</time>
      </trkpt>
      <trkpt lat="38.088503926992416" lon="12.803746853023767">
        <ele>65.030000000000001</ele>
        <time>2017-09-21T08:28:12Z</time>
      </trkpt>
      <trkpt lat="38.088561426848173" lon="12.803727658465505">
        <ele>65.510000000000005</ele>
        <time>2017-09-21T08:28:24Z</time>
      </trkpt>
      <trkpt lat="38.088636696338654" lon="12.803728077560663">
        <ele>64.549999999999997</ele>
        <time>2017-09-21T08:28:39Z</time>
      </trkpt>
      <trkpt lat="38.088695872575045" lon="12.803741991519928">
        <ele>64.549999999999997</ele>
        <time>2017-09-21T08:28:47Z</time>
      </trkpt>
      <trkpt lat="38.088818499818444" lon="12.803708296269178">
        <ele>65.030000000000001</ele>
        <time>2017-09-21T08:29:03Z</time>
      </trkpt>
      <trkpt lat="38.088905084878206" lon="12.80374308116734">
        <ele>65.510000000000005</ele>
        <time>2017-09-21T08:29:13Z</time>
      </trkpt>
      <trkpt lat="38.088984377682209" lon="12.803718438372016">
        <ele>66.469999999999999</ele>
        <time>2017-09-21T08:29:24Z</time>
      </trkpt>
      <trkpt lat="38.089008517563343" lon="12.803719192743301">
        <ele>66.469999999999999</ele>
        <time>2017-09-21T08:29:30Z</time>
      </trkpt>
      <trkpt lat="38.089040536433458" lon="12.803710224106908">
        <ele>66.950000000000003</ele>
        <time>2017-09-21T08:29:33Z</time>
      </trkpt>
      <trkpt lat="38.089159643277526" lon="12.803712822496891">
        <ele>67.430000000000007</ele>
        <time>2017-09-21T08:29:45Z</time>
      </trkpt>
      <trkpt lat="38.089211946353316" lon="12.803732771426439">
        <ele>67.909999999999997</ele>
        <time>2017-09-21T08:29:57Z</time>
      </trkpt>
      <trkpt lat="38.089319989085197" lon="12.803758084774017">
        <ele>67.909999999999997</ele>
        <time>2017-09-21T08:30:09Z</time>
      </trkpt>
      <trkpt lat="38.089426523074508" lon="12.803743667900562">
        <ele>68.870000000000005</ele>
        <time>2017-09-21T08:30:22Z</time>
      </trkpt>
      <trkpt lat="38.089474635198712" lon="12.803736291825771">
        <ele>69.349999999999994</ele>
        <time>2017-09-21T08:30:33Z</time>
      </trkpt>
      <trkpt lat="38.089577062055469" lon="12.803750289604068">
        <ele>69.829999999999998</ele>
        <time>2017-09-21T08:30:45Z</time>
      </trkpt>
      <trkpt lat="38.089656690135598" lon="12.803767807781696">
        <ele>70.310000000000002</ele>
        <time>2017-09-21T08:30:55Z</time>
      </trkpt>
      <trkpt lat="38.089747717604041" lon="12.803775267675519">
        <ele>70.790000000000006</ele>
        <time>2017-09-21T08:31:06Z</time>
      </trkpt>
      <trkpt lat="38.0898258369416" lon="12.803772501647472">
        <ele>71.269999999999996</ele>
        <time>2017-09-21T08:31:17Z</time>
      </trkpt>
      <trkpt lat="38.089891048148274" lon="12.803791696205735">
        <ele>71.269999999999996</ele>
        <time>2017-09-21T08:31:27Z</time>
      </trkpt>
      <trkpt lat="38.089963551610708" lon="12.803825056180358">
        <ele>71.760000000000005</ele>
        <time>2017-09-21T08:31:39Z</time>
      </trkpt>
      <trkpt lat="38.090016609057784" lon="12.803830923512578">
        <ele>73.200000000000003</ele>
        <time>2017-09-21T08:31:50Z</time>
      </trkpt>
      <trkpt lat="38.090046951547265" lon="12.803832348436117">
        <ele>73.680000000000007</ele>
        <time>2017-09-21T08:31:59Z</time>
      </trkpt>
      <trkpt lat="38.090157005935907" lon="12.803856488317251">
        <ele>74.640000000000001</ele>
        <time>2017-09-21T08:32:13Z</time>
      </trkpt>
      <trkpt lat="38.090268652886152" lon="12.803900241851807">
        <ele>74.640000000000001</ele>
        <time>2017-09-21T08:32:25Z</time>
      </trkpt>
      <trkpt lat="38.090344676747918" lon="12.803933015093207">
        <ele>75.120000000000005</ele>
        <time>2017-09-21T08:32:36Z</time>
      </trkpt>
      <trkpt lat="38.090440900996327" lon="12.803928824141622">
        <ele>76.079999999999998</ele>
        <time>2017-09-21T08:32:48Z</time>
      </trkpt>
      <trkpt lat="38.09050066396594" lon="12.803903175517917">
        <ele>77.040000000000006</ele>
        <time>2017-09-21T08:32:59Z</time>
      </trkpt>
      <trkpt lat="38.090551206842065" lon="12.803889848291874">
        <ele>78</ele>
        <time>2017-09-21T08:33:09Z</time>
      </trkpt>
      <trkpt lat="38.090572664514184" lon="12.803875599056482">
        <ele>78.480000000000004</ele>
        <time>2017-09-21T08:33:17Z</time>
      </trkpt>
      <trkpt lat="38.090619519352913" lon="12.803855398669839">
        <ele>79.450000000000003</ele>
        <time>2017-09-21T08:33:26Z</time>
      </trkpt>
      <trkpt lat="38.090682970359921" lon="12.803863696753979">
        <ele>79.930000000000007</ele>
        <time>2017-09-21T08:33:35Z</time>
      </trkpt>
      <trkpt lat="38.090766202658415" lon="12.803879203274846">
        <ele>80.409999999999997</ele>
        <time>2017-09-21T08:33:45Z</time>
      </trkpt>
      <trkpt lat="38.090821020305157" lon="12.803876353427768">
        <ele>80.890000000000001</ele>
        <time>2017-09-21T08:33:55Z</time>
      </trkpt>
      <trkpt lat="38.090906515717506" lon="12.803889429196715">
        <ele>81.849999999999994</ele>
        <time>2017-09-21T08:34:08Z</time>
      </trkpt>
      <trkpt lat="38.09095798060298" lon="12.803871324285865">
        <ele>82.810000000000002</ele>
        <time>2017-09-21T08:34:18Z</time>
      </trkpt>
      <trkpt lat="38.090967871248722" lon="12.80386671423912">
        <ele>82.810000000000002</ele>
        <time>2017-09-21T08:34:20Z</time>
      </trkpt>
      <trkpt lat="38.091048924252391" lon="12.803862188011408">
        <ele>83.290000000000006</ele>
        <time>2017-09-21T08:34:30Z</time>
      </trkpt>
      <trkpt lat="38.091103071346879" lon="12.803841568529606">
        <ele>84.25</ele>
        <time>2017-09-21T08:34:41Z</time>
      </trkpt>
      <trkpt lat="38.091192673891783" lon="12.803856153041124">
        <ele>85.209999999999994</ele>
        <time>2017-09-21T08:34:52Z</time>
      </trkpt>
      <trkpt lat="38.091274565085769" lon="12.803825978189707">
        <ele>86.180000000000007</ele>
        <time>2017-09-21T08:35:04Z</time>
      </trkpt>
      <trkpt lat="38.091356121003628" lon="12.803797731176019">
        <ele>87.620000000000005</ele>
        <time>2017-09-21T08:35:16Z</time>
      </trkpt>
      <trkpt lat="38.091397862881422" lon="12.803755234926939">
        <ele>88.099999999999994</ele>
        <time>2017-09-21T08:35:27Z</time>
      </trkpt>
      <trkpt lat="38.09144857339561" lon="12.803710140287876">
        <ele>89.060000000000002</ele>
        <time>2017-09-21T08:35:38Z</time>
      </trkpt>
      <trkpt lat="38.091498110443354" lon="12.803678540512919">
        <ele>90.019999999999996</ele>
        <time>2017-09-21T08:35:49Z</time>
      </trkpt>
      <trkpt lat="38.091564076021314" lon="12.803651718422771">
        <ele>91.939999999999998</ele>
        <time>2017-09-21T08:36:03Z</time>
      </trkpt>
      <trkpt lat="38.091635657474399" lon="12.803640905767679">
        <ele>92.420000000000002</ele>
        <time>2017-09-21T08:36:13Z</time>
      </trkpt>
      <trkpt lat="38.091739257797599" lon="12.803616179153323">
        <ele>92.420000000000002</ele>
        <time>2017-09-21T08:36:24Z</time>
      </trkpt>
      <trkpt lat="38.091820813715458" lon="12.803579131141305">
        <ele>92.900000000000006</ele>
        <time>2017-09-21T08:36:36Z</time>
      </trkpt>
      <trkpt lat="38.091899352148175" lon="12.803529929369688">
        <ele>93.390000000000001</ele>
        <time>2017-09-21T08:36:48Z</time>
      </trkpt>
      <trkpt lat="38.091975208371878" lon="12.803506376221776">
        <ele>93.870000000000005</ele>
        <time>2017-09-21T08:36:57Z</time>
      </trkpt>
      <trkpt lat="38.092104289680719" lon="12.803491959348321">
        <ele>93.870000000000005</ele>
        <time>2017-09-21T08:37:10Z</time>
      </trkpt>
      <trkpt lat="38.092142762616277" lon="12.803445188328624">
        <ele>95.310000000000002</ele>
        <time>2017-09-21T08:37:20Z</time>
      </trkpt>
      <trkpt lat="38.0921864323318" lon="12.803407972678542">
        <ele>95.790000000000006</ele>
        <time>2017-09-21T08:37:33Z</time>
      </trkpt>
      <trkpt lat="38.092246698215604" lon="12.803380647674203">
        <ele>96.75</ele>
        <time>2017-09-21T08:37:43Z</time>
      </trkpt>
      <trkpt lat="38.092299336567521" lon="12.80336095020175">
        <ele>97.709999999999994</ele>
        <time>2017-09-21T08:37:55Z</time>
      </trkpt>
      <trkpt lat="38.092341832816601" lon="12.803322141990066">
        <ele>97.230000000000004</ele>
        <time>2017-09-21T08:38:04Z</time>
      </trkpt>
      <trkpt lat="38.09235205873847" lon="12.803311832249165">
        <ele>97.230000000000004</ele>
        <time>2017-09-21T08:38:08Z</time>
      </trkpt>
      <trkpt lat="38.092420035973191" lon="12.80323589220643">
        <ele>96.75</ele>
        <time>2017-09-21T08:38:18Z</time>
      </trkpt>
      <trkpt lat="38.092469237744808" lon="12.803187696263194">
        <ele>96.75</ele>
        <time>2017-09-21T08:38:29Z</time>
      </trkpt>
      <trkpt lat="38.092516595497727" lon="12.803175374865532">
        <ele>96.75</ele>
        <time>2017-09-21T08:38:35Z</time>
      </trkpt>
      <trkpt lat="38.092616507783532" lon="12.803140254691243">
        <ele>96.75</ele>
        <time>2017-09-21T08:38:47Z</time>
      </trkpt>
      <trkpt lat="38.092674594372511" lon="12.803143858909607">
        <ele>96.75</ele>
        <time>2017-09-21T08:38:55Z</time>
      </trkpt>
      <trkpt lat="38.092741398140788" lon="12.803116869181395">
        <ele>97.230000000000004</ele>
        <time>2017-09-21T08:39:05Z</time>
      </trkpt>
      <trkpt lat="38.09276687912643" lon="12.803104212507606">
        <ele>97.230000000000004</ele>
        <time>2017-09-21T08:39:14Z</time>
      </trkpt>
      <trkpt lat="38.092797640711069" lon="12.803102033212781">
        <ele>97.709999999999994</ele>
        <time>2017-09-21T08:39:25Z</time>
      </trkpt>
      <trkpt lat="38.092814655974507" lon="12.803088705986738">
        <ele>97.709999999999994</ele>
        <time>2017-09-21T08:39:36Z</time>
      </trkpt>
      <trkpt lat="38.092867881059647" lon="12.80305702239275">
        <ele>98.670000000000002</ele>
        <time>2017-09-21T08:39:47Z</time>
      </trkpt>
      <trkpt lat="38.092917669564486" lon="12.803069846704602">
        <ele>100.11</ele>
        <time>2017-09-21T08:39:54Z</time>
      </trkpt>
      <trkpt lat="38.093008529394865" lon="12.80305802822113">
        <ele>100.11</ele>
        <time>2017-09-21T08:40:06Z</time>
      </trkpt>
      <trkpt lat="38.093095785006881" lon="12.803058614954352">
        <ele>101.08</ele>
        <time>2017-09-21T08:40:17Z</time>
      </trkpt>
      <trkpt lat="38.093155547976494" lon="12.803048556670547">
        <ele>101.56</ele>
        <time>2017-09-21T08:40:27Z</time>
      </trkpt>
      <trkpt lat="38.093188321217895" lon="12.803030535578728">
        <ele>102.52</ele>
        <time>2017-09-21T08:40:38Z</time>
      </trkpt>
      <trkpt lat="38.09320374391973" lon="12.802975885570049">
        <ele>103.48</ele>
        <time>2017-09-21T08:40:49Z</time>
      </trkpt>
      <trkpt lat="38.093285718932748" lon="12.802936909720302">
        <ele>104.44</ele>
        <time>2017-09-21T08:41:02Z</time>
      </trkpt>
      <trkpt lat="38.093351684510708" lon="12.802932718768716">
        <ele>104.44</ele>
        <time>2017-09-21T08:41:08Z</time>
      </trkpt>
      <trkpt lat="38.093412034213543" lon="12.8029197268188">
        <ele>104.92</ele>
        <time>2017-09-21T08:41:17Z</time>
      </trkpt>
      <trkpt lat="38.09342754073441" lon="12.802895000204444">
        <ele>105.88</ele>
        <time>2017-09-21T08:41:26Z</time>
      </trkpt>
      <trkpt lat="38.093493087217212" lon="12.802852084860206">
        <ele>107.31999999999999</ele>
        <time>2017-09-21T08:41:37Z</time>
      </trkpt>
      <trkpt lat="38.0935023073107" lon="12.802847558632493">
        <ele>107.31999999999999</ele>
        <time>2017-09-21T08:41:38Z</time>
      </trkpt>
      <trkpt lat="38.093577995896339" lon="12.802802212536335">
        <ele>108.29000000000001</ele>
        <time>2017-09-21T08:41:51Z</time>
      </trkpt>
      <trkpt lat="38.093632981181145" lon="12.802749909460545">
        <ele>108.77</ele>
        <time>2017-09-21T08:42:03Z</time>
      </trkpt>
      <trkpt lat="38.093674220144749" lon="12.802723757922649">
        <ele>110.69</ele>
        <time>2017-09-21T08:42:17Z</time>
      </trkpt>
      <trkpt lat="38.093711100518703" lon="12.802671119570732">
        <ele>112.13</ele>
        <time>2017-09-21T08:42:28Z</time>
      </trkpt>
      <trkpt lat="38.093757452443242" lon="12.802656115964055">
        <ele>113.56999999999999</ele>
        <time>2017-09-21T08:42:41Z</time>
      </trkpt>
      <trkpt lat="38.093783184885979" lon="12.802573721855879">
        <ele>115.01000000000001</ele>
        <time>2017-09-21T08:42:55Z</time>
      </trkpt>
      <trkpt lat="38.093724427744746" lon="12.802544049918652">
        <ele>115.5</ele>
        <time>2017-09-21T08:43:07Z</time>
      </trkpt>
      <trkpt lat="38.09373926371336" lon="12.802443215623498">
        <ele>115.98</ele>
        <time>2017-09-21T08:43:18Z</time>
      </trkpt>
      <trkpt lat="38.093755021691322" lon="12.802447322756052">
        <ele>115.98</ele>
        <time>2017-09-21T08:43:33Z</time>
      </trkpt>
      <trkpt lat="38.093760386109352" lon="12.802423350512981">
        <ele>116.45999999999999</ele>
        <time>2017-09-21T08:43:46Z</time>
      </trkpt>
      <trkpt lat="38.093776311725378" lon="12.802444053813815">
        <ele>116.45999999999999</ele>
        <time>2017-09-21T08:44:03Z</time>
      </trkpt>
      <trkpt lat="38.093779915943742" lon="12.802441287785769">
        <ele>116.45999999999999</ele>
        <time>2017-09-21T08:44:19Z</time>
      </trkpt>
      <trkpt lat="38.093746807426214" lon="12.802434330806136">
        <ele>116.45999999999999</ele>
        <time>2017-09-21T08:44:33Z</time>
      </trkpt>
      <trkpt lat="38.093749824911356" lon="12.802450843155384">
        <ele>116.45999999999999</ele>
        <time>2017-09-21T08:44:52Z</time>
      </trkpt>
      <trkpt lat="38.093763319775462" lon="12.802438102662563">
        <ele>116.45999999999999</ele>
        <time>2017-09-21T08:45:09Z</time>
      </trkpt>
      <trkpt lat="38.093767259269953" lon="12.802436677739024">
        <ele>116.45999999999999</ele>
        <time>2017-09-21T08:45:27Z</time>
      </trkpt>
      <trkpt lat="38.093758961185813" lon="12.802449250593781">
        <ele>115.98</ele>
        <time>2017-09-21T08:45:45Z</time>
      </trkpt>
      <trkpt lat="38.09375636279583" lon="12.802429720759392">
        <ele>116.45999999999999</ele>
        <time>2017-09-21T08:45:57Z</time>
      </trkpt>
      <trkpt lat="38.093761308118701" lon="12.802421757951379">
        <ele>116.45999999999999</ele>
        <time>2017-09-21T08:46:18Z</time>
      </trkpt>
      <trkpt lat="38.09376860037446" lon="12.80243156477809">
        <ele>116.45999999999999</ele>
        <time>2017-09-21T08:46:34Z</time>
      </trkpt>
      <trkpt lat="38.093764577060938" lon="12.802431732416153">
        <ele>115.98</ele>
        <time>2017-09-21T08:47:01Z</time>
      </trkpt>
      <trkpt lat="38.093760721385479" lon="12.80242033302784">
        <ele>115.98</ele>
        <time>2017-09-21T08:47:16Z</time>
      </trkpt>
      <trkpt lat="38.093764493241906" lon="12.802406419068575">
        <ele>115.98</ele>
        <time>2017-09-21T08:47:30Z</time>
      </trkpt>
      <trkpt lat="38.093765582889318" lon="12.80242083594203">
        <ele>115.98</ele>
        <time>2017-09-21T08:47:43Z</time>
      </trkpt>
      <trkpt lat="38.093757452443242" lon="12.802424691617489">
        <ele>115.98</ele>
        <time>2017-09-21T08:48:02Z</time>
      </trkpt>
      <trkpt lat="38.093746975064278" lon="12.802419075742364">
        <ele>116.45999999999999</ele>
        <time>2017-09-21T08:48:18Z</time>
      </trkpt>
      <trkpt lat="38.093758122995496" lon="12.802428212016821">
        <ele>116.45999999999999</ele>
        <time>2017-09-21T08:48:22Z</time>
      </trkpt>
      <trkpt lat="38.093791147693992" lon="12.802330898120999">
        <ele>116.94</ele>
        <time>2017-09-21T08:48:33Z</time>
      </trkpt>
      <trkpt lat="38.093820065259933" lon="12.802239283919334">
        <ele>116.94</ele>
        <time>2017-09-21T08:48:43Z</time>
      </trkpt>
      <trkpt lat="38.093826770782471" lon="12.802142221480608">
        <ele>115.98</ele>
        <time>2017-09-21T08:48:55Z</time>
      </trkpt>
      <trkpt lat="38.093834901228547" lon="12.802095869556069">
        <ele>116.94</ele>
        <time>2017-09-21T08:49:08Z</time>
      </trkpt>
      <trkpt lat="38.093816628679633" lon="12.802084302529693">
        <ele>117.42</ele>
        <time>2017-09-21T08:49:20Z</time>
      </trkpt>
      <trkpt lat="38.093796260654926" lon="12.802069466561079">
        <ele>117.90000000000001</ele>
        <time>2017-09-21T08:49:36Z</time>
      </trkpt>
      <trkpt lat="38.093820232897997" lon="12.802087320014834">
        <ele>116.94</ele>
        <time>2017-09-21T08:49:48Z</time>
      </trkpt>
      <trkpt lat="38.093810258433223" lon="12.802140126004815">
        <ele>115.5</ele>
        <time>2017-09-21T08:49:58Z</time>
      </trkpt>
      <trkpt lat="38.093831297010183" lon="12.802102575078607">
        <ele>114.53</ele>
        <time>2017-09-21T08:50:07Z</time>
      </trkpt>
      <trkpt lat="38.093892149627209" lon="12.80207097530365">
        <ele>112.13</ele>
        <time>2017-09-21T08:50:19Z</time>
      </trkpt>
      <trkpt lat="38.093891059979796" lon="12.802071226760745">
        <ele>112.13</ele>
        <time>2017-09-21T08:50:32Z</time>
      </trkpt>
      <trkpt lat="38.093884941190481" lon="12.802059156820178">
        <ele>112.61</ele>
        <time>2017-09-21T08:50:41Z</time>
      </trkpt>
      <trkpt lat="38.093860801309347" lon="12.80209687538445">
        <ele>113.09</ele>
        <time>2017-09-21T08:50:53Z</time>
      </trkpt>
      <trkpt lat="38.093838589265943" lon="12.802117327228189">
        <ele>114.05</ele>
        <time>2017-09-21T08:51:05Z</time>
      </trkpt>
      <trkpt lat="38.093820149078965" lon="12.802107268944383">
        <ele>114.53</ele>
        <time>2017-09-21T08:51:19Z</time>
      </trkpt>
      <trkpt lat="38.093821657821536" lon="12.802094612270594">
        <ele>114.53</ele>
        <time>2017-09-21T08:51:35Z</time>
      </trkpt>
      <trkpt lat="38.093838589265943" lon="12.802100395783782">
        <ele>114.53</ele>
        <time>2017-09-21T08:51:51Z</time>
      </trkpt>
      <trkpt lat="38.093836912885308" lon="12.802105257287621">
        <ele>114.53</ele>
        <time>2017-09-21T08:52:05Z</time>
      </trkpt>
      <trkpt lat="38.093834146857262" lon="12.802106682211161">
        <ele>114.53</ele>
        <time>2017-09-21T08:52:17Z</time>
      </trkpt>
      <trkpt lat="38.093835990875959" lon="12.802117159590125">
        <ele>114.53</ele>
        <time>2017-09-21T08:52:32Z</time>
      </trkpt>
      <trkpt lat="38.093837834894657" lon="12.802104754373431">
        <ele>114.53</ele>
        <time>2017-09-21T08:52:47Z</time>
      </trkpt>
      <trkpt lat="38.093868093565106" lon="12.802087152376771">
        <ele>113.56999999999999</ele>
        <time>2017-09-21T08:52:58Z</time>
      </trkpt>
      <trkpt lat="38.093860717490315" lon="12.802115734666586">
        <ele>113.56999999999999</ele>
        <time>2017-09-21T08:53:09Z</time>
      </trkpt>
      <trkpt lat="38.093835487961769" lon="12.802074328064919">
        <ele>115.01000000000001</ele>
        <time>2017-09-21T08:53:19Z</time>
      </trkpt>
      <trkpt lat="38.093838840723038" lon="12.801984557881951">
        <ele>115.01000000000001</ele>
        <time>2017-09-21T08:53:27Z</time>
      </trkpt>
      <trkpt lat="38.093800116330385" lon="12.801936864852905">
        <ele>118.86</ele>
        <time>2017-09-21T08:53:38Z</time>
      </trkpt>
      <trkpt lat="38.09380916878581" lon="12.801940469071269">
        <ele>118.38</ele>
        <time>2017-09-21T08:53:48Z</time>
      </trkpt>
      <trkpt lat="38.093803636729717" lon="12.801933092996478">
        <ele>118.38</ele>
        <time>2017-09-21T08:54:07Z</time>
      </trkpt>
      <trkpt lat="38.093804474920034" lon="12.801926471292973">
        <ele>117.90000000000001</ele>
        <time>2017-09-21T08:54:29Z</time>
      </trkpt>
      <trkpt lat="38.093852838501334" lon="12.801942396908998">
        <ele>116.94</ele>
        <time>2017-09-21T08:54:39Z</time>
      </trkpt>
      <trkpt lat="38.093847893178463" lon="12.801986569538713">
        <ele>114.53</ele>
        <time>2017-09-21T08:54:49Z</time>
      </trkpt>
      <trkpt lat="38.093876643106341" lon="12.80195664614439">
        <ele>114.05</ele>
        <time>2017-09-21T08:55:02Z</time>
      </trkpt>
      <trkpt lat="38.093881504610181" lon="12.801957987248898">
        <ele>114.53</ele>
        <time>2017-09-21T08:55:20Z</time>
      </trkpt>
      <trkpt lat="38.093876810744405" lon="12.801970476284623">
        <ele>114.05</ele>
        <time>2017-09-21T08:55:36Z</time>
      </trkpt>
      <trkpt lat="38.09386926703155" lon="12.801991095766425">
        <ele>114.05</ele>
        <time>2017-09-21T08:55:58Z</time>
      </trkpt>
      <trkpt lat="38.09389122761786" lon="12.80197961255908">
        <ele>114.05</ele>
        <time>2017-09-21T08:56:18Z</time>
      </trkpt>
      <trkpt lat="38.093898016959429" lon="12.801968213170767">
        <ele>114.05</ele>
        <time>2017-09-21T08:56:30Z</time>
      </trkpt>
      <trkpt lat="38.093908242881298" lon="12.801964608952403">
        <ele>114.05</ele>
        <time>2017-09-21T08:56:42Z</time>
      </trkpt>
      <trkpt lat="38.093911008909345" lon="12.801962178200483">
        <ele>114.05</ele>
        <time>2017-09-21T08:57:02Z</time>
      </trkpt>
      <trkpt lat="38.093910170719028" lon="12.80197424814105">
        <ele>114.05</ele>
        <time>2017-09-21T08:57:21Z</time>
      </trkpt>
      <trkpt lat="38.093896172940731" lon="12.80196494422853">
        <ele>114.05</ele>
        <time>2017-09-21T08:57:47Z</time>
      </trkpt>
      <trkpt lat="38.093891981989145" lon="12.801950359717011">
        <ele>114.05</ele>
        <time>2017-09-21T08:58:07Z</time>
      </trkpt>
      <trkpt lat="38.093912936747074" lon="12.801959495991468">
        <ele>114.05</ele>
        <time>2017-09-21T08:58:20Z</time>
      </trkpt>
      <trkpt lat="38.093884605914354" lon="12.801950359717011">
        <ele>114.05</ele>
        <time>2017-09-21T08:58:36Z</time>
      </trkpt>
      <trkpt lat="38.093893826007843" lon="12.801960334181786">
        <ele>114.05</ele>
        <time>2017-09-21T08:58:56Z</time>
      </trkpt>
      <trkpt lat="38.093892149627209" lon="12.801968967542052">
        <ele>114.05</ele>
        <time>2017-09-21T08:59:21Z</time>
      </trkpt>
      <trkpt lat="38.093902710825205" lon="12.801946001127362">
        <ele>114.53</ele>
        <time>2017-09-21T08:59:43Z</time>
      </trkpt>
      <trkpt lat="38.09390346519649" lon="12.801915826275945">
        <ele>114.05</ele>
        <time>2017-09-21T08:59:55Z</time>
      </trkpt>
      <trkpt lat="38.093922743573785" lon="12.801825972273946">
        <ele>113.56999999999999</ele>
        <time>2017-09-21T09:00:07Z</time>
      </trkpt>
      <trkpt lat="38.093969263136387" lon="12.80175045132637">
        <ele>112.13</ele>
        <time>2017-09-21T09:00:20Z</time>
      </trkpt>
      <trkpt lat="38.094013854861259" lon="12.801663028076291">
        <ele>111.17</ele>
        <time>2017-09-21T09:00:31Z</time>
      </trkpt>
      <trkpt lat="38.094076300039887" lon="12.801566300913692">
        <ele>110.69</ele>
        <time>2017-09-21T09:00:42Z</time>
      </trkpt>
      <trkpt lat="38.094143187627196" lon="12.801448535174131">
        <ele>109.73</ele>
        <time>2017-09-21T09:00:56Z</time>
      </trkpt>
      <trkpt lat="38.094193646684289" lon="12.801379216834903">
        <ele>109.25</ele>
        <time>2017-09-21T09:01:07Z</time>
      </trkpt>
      <trkpt lat="38.094245446845889" lon="12.801292715594172">
        <ele>108.29000000000001</ele>
        <time>2017-09-21T09:01:21Z</time>
      </trkpt>
      <trkpt lat="38.094329601153731" lon="12.801200598478317">
        <ele>106.36</ele>
        <time>2017-09-21T09:01:34Z</time>
      </trkpt>
      <trkpt lat="38.09437545016408" lon="12.801143182441592">
        <ele>104.92</ele>
        <time>2017-09-21T09:01:45Z</time>
      </trkpt>
      <trkpt lat="38.094463879242539" lon="12.801040001213551">
        <ele>103.95999999999999</ele>
        <time>2017-09-21T09:01:59Z</time>
      </trkpt>
      <trkpt lat="38.094528503715992" lon="12.800998175516725">
        <ele>103.48</ele>
        <time>2017-09-21T09:02:12Z</time>
      </trkpt>
      <trkpt lat="38.094575861468911" lon="12.800963558256626">
        <ele>103</ele>
        <time>2017-09-21T09:02:31Z</time>
      </trkpt>
      <trkpt lat="38.094596229493618" lon="12.800961546599865">
        <ele>103</ele>
        <time>2017-09-21T09:02:43Z</time>
      </trkpt>
      <trkpt lat="38.094613328576088" lon="12.800940256565809">
        <ele>103</ele>
        <time>2017-09-21T09:02:52Z</time>
      </trkpt>
      <trkpt lat="38.094658507034183" lon="12.800900861620903">
        <ele>102.52</ele>
        <time>2017-09-21T09:03:02Z</time>
      </trkpt>
      <trkpt lat="38.094703936949372" lon="12.800891054794192">
        <ele>102.04000000000001</ele>
        <time>2017-09-21T09:03:09Z</time>
      </trkpt>
      <trkpt lat="38.09480250813067" lon="12.800795333459973">
        <ele>101.08</ele>
        <time>2017-09-21T09:03:22Z</time>
      </trkpt>
      <trkpt lat="38.094895128160715" lon="12.800684859976172">
        <ele>99.629999999999995</ele>
        <time>2017-09-21T09:03:35Z</time>
      </trkpt>
      <trkpt lat="38.094967044889927" lon="12.800622330978513">
        <ele>98.670000000000002</ele>
        <time>2017-09-21T09:03:44Z</time>
      </trkpt>
      <trkpt lat="38.095054971054196" lon="12.800580253824592">
        <ele>97.230000000000004</ele>
        <time>2017-09-21T09:03:56Z</time>
      </trkpt>
      <trkpt lat="38.095174664631486" lon="12.800564998760819">
        <ele>95.310000000000002</ele>
        <time>2017-09-21T09:04:12Z</time>
      </trkpt>
      <trkpt lat="38.0952413007617" lon="12.800559550523758">
        <ele>94.349999999999994</ele>
        <time>2017-09-21T09:04:23Z</time>
      </trkpt>
      <trkpt lat="38.095296621322632" lon="12.800541445612907">
        <ele>93.390000000000001</ele>
        <time>2017-09-21T09:04:34Z</time>
      </trkpt>
      <trkpt lat="38.095319755375385" lon="12.800538931041956">
        <ele>93.390000000000001</ele>
        <time>2017-09-21T09:04:37Z</time>
      </trkpt>
      <trkpt lat="38.095437185838819" lon="12.800524430349469">
        <ele>91.939999999999998</ele>
        <time>2017-09-21T09:04:49Z</time>
      </trkpt>
      <trkpt lat="38.09555159881711" lon="12.800536751747131">
        <ele>90.980000000000004</ele>
        <time>2017-09-21T09:05:02Z</time>
      </trkpt>
      <trkpt lat="38.095655618235469" lon="12.800524262711406">
        <ele>90.5</ele>
        <time>2017-09-21T09:05:16Z</time>
      </trkpt>
      <trkpt lat="38.095731725916266" lon="12.80054253526032">
        <ele>90.019999999999996</ele>
        <time>2017-09-21T09:05:27Z</time>
      </trkpt>
      <trkpt lat="38.095830213278532" lon="12.800570195540786">
        <ele>89.060000000000002</ele>
        <time>2017-09-21T09:05:39Z</time>
      </trkpt>
      <trkpt lat="38.095915205776691" lon="12.800604728981853">
        <ele>88.579999999999998</ele>
        <time>2017-09-21T09:05:49Z</time>
      </trkpt>
      <trkpt lat="38.095993576571345" lon="12.800632808357477">
        <ele>88.579999999999998</ele>
        <time>2017-09-21T09:05:59Z</time>
      </trkpt>
      <trkpt lat="38.096114192157984" lon="12.800665078684688">
        <ele>88.579999999999998</ele>
        <time>2017-09-21T09:06:12Z</time>
      </trkpt>
      <trkpt lat="38.096201280131936" lon="12.800703467801213">
        <ele>88.579999999999998</ele>
        <time>2017-09-21T09:06:23Z</time>
      </trkpt>
      <trkpt lat="38.096278226003051" lon="12.800701707601547">
        <ele>88.579999999999998</ele>
        <time>2017-09-21T09:06:33Z</time>
      </trkpt>
      <trkpt lat="38.096339497715235" lon="12.800687961280346">
        <ele>88.099999999999994</ele>
        <time>2017-09-21T09:06:46Z</time>
      </trkpt>
      <trkpt lat="38.096421472728252" lon="12.800649991258979">
        <ele>87.140000000000001</ele>
        <time>2017-09-21T09:06:57Z</time>
      </trkpt>
      <trkpt lat="38.09649121016264" lon="12.80063197016716">
        <ele>87.620000000000005</ele>
        <time>2017-09-21T09:07:08Z</time>
      </trkpt>
      <trkpt lat="38.096577962860465" lon="12.800596514716744">
        <ele>86.659999999999997</ele>
        <time>2017-09-21T09:07:20Z</time>
      </trkpt>
      <trkpt lat="38.096683910116553" lon="12.800563825294375">
        <ele>86.180000000000007</ele>
        <time>2017-09-21T09:07:32Z</time>
      </trkpt>
      <trkpt lat="38.096735123544931" lon="12.800516467541456">
        <ele>85.209999999999994</ele>
        <time>2017-09-21T09:07:42Z</time>
      </trkpt>
      <trkpt lat="38.096833946183324" lon="12.800465673208237">
        <ele>84.730000000000004</ele>
        <time>2017-09-21T09:07:55Z</time>
      </trkpt>
      <trkpt lat="38.096949867904186" lon="12.800379926338792">
        <ele>83.769999999999996</ele>
        <time>2017-09-21T09:08:08Z</time>
      </trkpt>
      <trkpt lat="38.097058329731226" lon="12.800318906083703">
        <ele>82.810000000000002</ele>
        <time>2017-09-21T09:08:22Z</time>
      </trkpt>
      <trkpt lat="38.097116835415363" lon="12.800257047638297">
        <ele>81.849999999999994</ele>
        <time>2017-09-21T09:08:33Z</time>
      </trkpt>
      <trkpt lat="38.097174251452088" lon="12.800182700157166">
        <ele>80.890000000000001</ele>
        <time>2017-09-21T09:08:46Z</time>
      </trkpt>
      <trkpt lat="38.097203085198998" lon="12.800131151452661">
        <ele>80.409999999999997</ele>
        <time>2017-09-21T09:08:56Z</time>
      </trkpt>
      <trkpt lat="38.097233846783638" lon="12.800104329362512">
        <ele>79.450000000000003</ele>
        <time>2017-09-21T09:09:04Z</time>
      </trkpt>
      <trkpt lat="38.097269469872117" lon="12.800090834498405">
        <ele>78</ele>
        <time>2017-09-21T09:09:14Z</time>
      </trkpt>
      <trkpt lat="38.097297213971615" lon="12.800054457038641">
        <ele>77.040000000000006</ele>
        <time>2017-09-21T09:09:25Z</time>
      </trkpt>
      <trkpt lat="38.097342979162931" lon="12.800041129812598">
        <ele>76.079999999999998</ele>
        <time>2017-09-21T09:09:38Z</time>
      </trkpt>
      <trkpt lat="38.097379691898823" lon="12.80006418004632">
        <ele>74.159999999999997</ele>
        <time>2017-09-21T09:09:48Z</time>
      </trkpt>
      <trkpt lat="38.097410118207335" lon="12.800057306885719">
        <ele>73.200000000000003</ele>
        <time>2017-09-21T09:09:59Z</time>
      </trkpt>
      <trkpt lat="38.097434174269438" lon="12.800039956346154">
        <ele>72.719999999999999</ele>
        <time>2017-09-21T09:10:08Z</time>
      </trkpt>
      <trkpt lat="38.09745479375124" lon="12.800027383491397">
        <ele>72.239999999999995</ele>
        <time>2017-09-21T09:10:21Z</time>
      </trkpt>
      <trkpt lat="38.097449010238051" lon="12.799990670755506">
        <ele>72.239999999999995</ele>
        <time>2017-09-21T09:10:34Z</time>
      </trkpt>
      <trkpt lat="38.097427468746901" lon="12.799944737926126">
        <ele>70.310000000000002</ele>
        <time>2017-09-21T09:10:46Z</time>
      </trkpt>
      <trkpt lat="38.097406681627035" lon="12.799913054332137">
        <ele>69.349999999999994</ele>
        <time>2017-09-21T09:10:57Z</time>
      </trkpt>
      <trkpt lat="38.09741280041635" lon="12.799852369353175">
        <ele>67.909999999999997</ele>
        <time>2017-09-21T09:11:07Z</time>
      </trkpt>
      <trkpt lat="38.097405340522528" lon="12.79980082064867">
        <ele>66.469999999999999</ele>
        <time>2017-09-21T09:11:18Z</time>
      </trkpt>
      <trkpt lat="38.097412213683128" lon="12.799754217267036">
        <ele>65.030000000000001</ele>
        <time>2017-09-21T09:11:29Z</time>
      </trkpt>
      <trkpt lat="38.097433252260089" lon="12.799708619713783">
        <ele>63.579999999999998</ele>
        <time>2017-09-21T09:11:39Z</time>
      </trkpt>
      <trkpt lat="38.097451692447066" lon="12.799650197848678">
        <ele>61.659999999999997</ele>
        <time>2017-09-21T09:11:49Z</time>
      </trkpt>
      <trkpt lat="38.097447166219354" lon="12.799581633880734">
        <ele>60.219999999999999</ele>
        <time>2017-09-21T09:12:00Z</time>
      </trkpt>
      <trkpt lat="38.097462588921189" lon="12.799512902274728">
        <ele>59.259999999999998</ele>
        <time>2017-09-21T09:12:10Z</time>
      </trkpt>
      <trkpt lat="38.097482873126864" lon="12.799395807087421">
        <ele>58.299999999999997</ele>
        <time>2017-09-21T09:12:21Z</time>
      </trkpt>
      <trkpt lat="38.097484046593308" lon="12.799384407699108">
        <ele>58.299999999999997</ele>
        <time>2017-09-21T09:12:22Z</time>
      </trkpt>
      <trkpt lat="38.097508521750569" lon="12.7991724293679">
        <ele>57.82</ele>
        <time>2017-09-21T09:12:39Z</time>
      </trkpt>
      <trkpt lat="38.097512042149901" lon="12.799160946160555">
        <ele>57.82</ele>
        <time>2017-09-21T09:12:40Z</time>
      </trkpt>
      <trkpt lat="38.097518160939217" lon="12.799136806279421">
        <ele>56.369999999999997</ele>
        <time>2017-09-21T09:12:42Z</time>
      </trkpt>
      <trkpt lat="38.097521848976612" lon="12.799123730510473">
        <ele>56.859999999999999</ele>
        <time>2017-09-21T09:12:43Z</time>
      </trkpt>
      <trkpt lat="38.097530817613006" lon="12.799001187086105">
        <ele>55.409999999999997</ele>
        <time>2017-09-21T09:12:54Z</time>
      </trkpt>
      <trkpt lat="38.09758672490716" lon="12.798891719430685">
        <ele>53.969999999999999</ele>
        <time>2017-09-21T09:13:05Z</time>
      </trkpt>
      <trkpt lat="38.097671549767256" lon="12.798806391656399">
        <ele>52.049999999999997</ele>
        <time>2017-09-21T09:13:18Z</time>
      </trkpt>
      <trkpt lat="38.097771629691124" lon="12.798734055832028">
        <ele>50.609999999999999</ele>
        <time>2017-09-21T09:13:31Z</time>
      </trkpt>
      <trkpt lat="38.097844887524843" lon="12.798635736107826">
        <ele>49.159999999999997</ele>
        <time>2017-09-21T09:13:43Z</time>
      </trkpt>
      <trkpt lat="38.097907919436693" lon="12.798551246523857">
        <ele>48.200000000000003</ele>
        <time>2017-09-21T09:13:54Z</time>
      </trkpt>
      <trkpt lat="38.098005820065737" lon="12.798405149951577">
        <ele>47.719999999999999</ele>
        <time>2017-09-21T09:14:08Z</time>
      </trkpt>
      <trkpt lat="38.098035575821996" lon="12.798379920423031">
        <ele>47.240000000000002</ele>
        <time>2017-09-21T09:14:12Z</time>
      </trkpt>
      <trkpt lat="38.098130458965898" lon="12.798277409747243">
        <ele>45.799999999999997</ele>
        <time>2017-09-21T09:14:25Z</time>
      </trkpt>
      <trkpt lat="38.098168512806296" lon="12.798153273761272">
        <ele>45.32</ele>
        <time>2017-09-21T09:14:35Z</time>
      </trkpt>
      <trkpt lat="38.098251996561885" lon="12.798060653731227">
        <ele>44.359999999999999</ele>
        <time>2017-09-21T09:14:47Z</time>
      </trkpt>
      <trkpt lat="38.098313603550196" lon="12.797950096428394">
        <ele>43.880000000000003</ele>
        <time>2017-09-21T09:14:58Z</time>
      </trkpt>
      <trkpt lat="38.098411085084081" lon="12.797862673178315">
        <ele>42.920000000000002</ele>
        <time>2017-09-21T09:15:10Z</time>
      </trkpt>
      <trkpt lat="38.098538992926478" lon="12.797771980985999">
        <ele>41.950000000000003</ele>
        <time>2017-09-21T09:15:24Z</time>
      </trkpt>
      <trkpt lat="38.098617112264037" lon="12.797641307115555">
        <ele>41.950000000000003</ele>
        <time>2017-09-21T09:15:38Z</time>
      </trkpt>
      <trkpt lat="38.098699087277055" lon="12.797572826966643">
        <ele>41.469999999999999</ele>
        <time>2017-09-21T09:15:49Z</time>
      </trkpt>
      <trkpt lat="38.09876044280827" lon="12.79751499183476">
        <ele>40.509999999999998</ele>
        <time>2017-09-21T09:15:59Z</time>
      </trkpt>
      <trkpt lat="38.098765052855015" lon="12.797513147816062">
        <ele>40.509999999999998</ele>
        <time>2017-09-21T09:16:00Z</time>
      </trkpt>
      <trkpt lat="38.098843088373542" lon="12.797456402331591">
        <ele>39.07</ele>
        <time>2017-09-21T09:16:13Z</time>
      </trkpt>
      <trkpt lat="38.098877873271704" lon="12.797422036528587">
        <ele>39.07</ele>
        <time>2017-09-21T09:16:19Z</time>
      </trkpt>
      <trkpt lat="38.09895733371377" lon="12.797307958826423">
        <ele>39.549999999999997</ele>
        <time>2017-09-21T09:16:30Z</time>
      </trkpt>
      <trkpt lat="38.099026903510094" lon="12.797177201136947">
        <ele>40.030000000000001</ele>
        <time>2017-09-21T09:16:43Z</time>
      </trkpt>
      <trkpt lat="38.099073842167854" lon="12.797143002972007">
        <ele>40.030000000000001</ele>
        <time>2017-09-21T09:16:49Z</time>
      </trkpt>
      <trkpt lat="38.099204935133457" lon="12.797073014080524">
        <ele>39.549999999999997</ele>
        <time>2017-09-21T09:17:04Z</time>
      </trkpt>
      <trkpt lat="38.099303087219596" lon="12.79700830578804">
        <ele>39.07</ele>
        <time>2017-09-21T09:17:16Z</time>
      </trkpt>
      <trkpt lat="38.099315576255322" lon="12.797006042674184">
        <ele>39.07</ele>
        <time>2017-09-21T09:17:18Z</time>
      </trkpt>
      <trkpt lat="38.099411381408572" lon="12.796960696578026">
        <ele>39.07</ele>
        <time>2017-09-21T09:17:30Z</time>
      </trkpt>
      <trkpt lat="38.099534260109067" lon="12.796884505078197">
        <ele>39.549999999999997</ele>
        <time>2017-09-21T09:17:46Z</time>
      </trkpt>
      <trkpt lat="38.099604416638613" lon="12.796860449016094">
        <ele>40.030000000000001</ele>
        <time>2017-09-21T09:17:55Z</time>
      </trkpt>
      <trkpt lat="38.099717237055302" lon="12.796811331063509">
        <ele>40.030000000000001</ele>
        <time>2017-09-21T09:18:08Z</time>
      </trkpt>
      <trkpt lat="38.099782196804881" lon="12.79676397331059">
        <ele>40.990000000000002</ele>
        <time>2017-09-21T09:18:19Z</time>
      </trkpt>
      <trkpt lat="38.099854281172156" lon="12.796706389635801">
        <ele>41.469999999999999</ele>
        <time>2017-09-21T09:18:31Z</time>
      </trkpt>
      <trkpt lat="38.099945308640599" lon="12.796679819002748">
        <ele>41.469999999999999</ele>
        <time>2017-09-21T09:18:43Z</time>
      </trkpt>
      <trkpt lat="38.100030971691012" lon="12.796640424057841">
        <ele>41.469999999999999</ele>
        <time>2017-09-21T09:18:53Z</time>
      </trkpt>
      <trkpt lat="38.100125603377819" lon="12.796571692451835">
        <ele>41.469999999999999</ele>
        <time>2017-09-21T09:19:07Z</time>
      </trkpt>
      <trkpt lat="38.10019358061254" lon="12.796543780714273">
        <ele>41.469999999999999</ele>
        <time>2017-09-21T09:19:20Z</time>
      </trkpt>
      <trkpt lat="38.100349484011531" lon="12.79645761474967">
        <ele>41.469999999999999</ele>
        <time>2017-09-21T09:19:35Z</time>
      </trkpt>
      <trkpt lat="38.100463896989822" lon="12.796412352472544">
        <ele>40.990000000000002</ele>
        <time>2017-09-21T09:19:47Z</time>
      </trkpt>
      <trkpt lat="38.100529443472624" lon="12.796346135437489">
        <ele>41.950000000000003</ele>
        <time>2017-09-21T09:19:59Z</time>
      </trkpt>
      <trkpt lat="38.100577974691987" lon="12.796271871775389">
        <ele>42.920000000000002</ele>
        <time>2017-09-21T09:20:12Z</time>
      </trkpt>
      <trkpt lat="38.100651986896992" lon="12.796234237030149">
        <ele>43.880000000000003</ele>
        <time>2017-09-21T09:20:23Z</time>
      </trkpt>
      <trkpt lat="38.100738236680627" lon="12.796191489323974">
        <ele>44.359999999999999</ele>
        <time>2017-09-21T09:20:34Z</time>
      </trkpt>
      <trkpt lat="38.10081166215241" lon="12.796142287552357">
        <ele>45.32</ele>
        <time>2017-09-21T09:20:45Z</time>
      </trkpt>
      <trkpt lat="38.100889697670937" lon="12.796087637543678">
        <ele>46.759999999999998</ele>
        <time>2017-09-21T09:20:56Z</time>
      </trkpt>
      <trkpt lat="38.100954992696643" lon="12.796021420508623">
        <ele>47.719999999999999</ele>
        <time>2017-09-21T09:21:08Z</time>
      </trkpt>
      <trkpt lat="38.100997908040881" lon="12.795944223180413">
        <ele>48.68</ele>
        <time>2017-09-21T09:21:21Z</time>
      </trkpt>
      <trkpt lat="38.101060017943382" lon="12.795882280915976">
        <ele>50.130000000000003</ele>
        <time>2017-09-21T09:21:35Z</time>
      </trkpt>
      <trkpt lat="38.101113997399807" lon="12.795821260660887">
        <ele>51.090000000000003</ele>
        <time>2017-09-21T09:21:45Z</time>
      </trkpt>
      <trkpt lat="38.10116152279079" lon="12.795764515176415">
        <ele>51.57</ele>
        <time>2017-09-21T09:21:56Z</time>
      </trkpt>
      <trkpt lat="38.10120502486825" lon="12.795703411102295">
        <ele>52.530000000000001</ele>
        <time>2017-09-21T09:22:08Z</time>
      </trkpt>
      <trkpt lat="38.101269900798798" lon="12.795676421374083">
        <ele>53.490000000000002</ele>
        <time>2017-09-21T09:22:19Z</time>
      </trkpt>
      <trkpt lat="38.101318683475256" lon="12.795644653961062">
        <ele>53.969999999999999</ele>
        <time>2017-09-21T09:22:29Z</time>
      </trkpt>
      <trkpt lat="38.101396132260561" lon="12.795626716688275">
        <ele>54.93</ele>
        <time>2017-09-21T09:22:43Z</time>
      </trkpt>
      <trkpt lat="38.101467043161392" lon="12.79561523348093">
        <ele>56.369999999999997</ele>
        <time>2017-09-21T09:22:54Z</time>
      </trkpt>
      <trkpt lat="38.101508868858218" lon="12.795567288994789">
        <ele>56.859999999999999</ele>
        <time>2017-09-21T09:23:04Z</time>
      </trkpt>
      <trkpt lat="38.10155195184052" lon="12.795533426105976">
        <ele>57.82</ele>
        <time>2017-09-21T09:23:14Z</time>
      </trkpt>
      <trkpt lat="38.101607440039515" lon="12.795545496046543">
        <ele>58.780000000000001</ele>
        <time>2017-09-21T09:23:22Z</time>
      </trkpt>
      <trkpt lat="38.101621270179749" lon="12.7955321688205">
        <ele>58.780000000000001</ele>
        <time>2017-09-21T09:23:25Z</time>
      </trkpt>
      <trkpt lat="38.101748926565051" lon="12.79553409665823">
        <ele>60.700000000000003</ele>
        <time>2017-09-21T09:23:37Z</time>
      </trkpt>
      <trkpt lat="38.101828806102276" lon="12.795518254861236">
        <ele>60.700000000000003</ele>
        <time>2017-09-21T09:23:48Z</time>
      </trkpt>
      <trkpt lat="38.101859148591757" lon="12.79545933008194">
        <ele>61.18</ele>
        <time>2017-09-21T09:23:59Z</time>
      </trkpt>
      <trkpt lat="38.101892424747348" lon="12.795391855761409">
        <ele>62.140000000000001</ele>
        <time>2017-09-21T09:24:07Z</time>
      </trkpt>
      <trkpt lat="38.101945733651519" lon="12.795269479975104">
        <ele>63.100000000000001</ele>
        <time>2017-09-21T09:24:21Z</time>
      </trkpt>
      <trkpt lat="38.101984709501266" lon="12.795202676206827">
        <ele>64.069999999999993</ele>
        <time>2017-09-21T09:24:33Z</time>
      </trkpt>
      <trkpt lat="38.102061906829476" lon="12.795125311240554">
        <ele>65.030000000000001</ele>
        <time>2017-09-21T09:24:45Z</time>
      </trkpt>
      <trkpt lat="38.102105744183064" lon="12.795069739222527">
        <ele>65.030000000000001</ele>
        <time>2017-09-21T09:24:51Z</time>
      </trkpt>
      <trkpt lat="38.10214807279408" lon="12.795034451410174">
        <ele>65.989999999999995</ele>
        <time>2017-09-21T09:25:02Z</time>
      </trkpt>
      <trkpt lat="38.102214122191072" lon="12.795001259073615">
        <ele>65.030000000000001</ele>
        <time>2017-09-21T09:25:12Z</time>
      </trkpt>
      <trkpt lat="38.102211020886898" lon="12.79499807395041">
        <ele>64.549999999999997</ele>
        <time>2017-09-21T09:25:26Z</time>
      </trkpt>
      <trkpt lat="38.102201716974378" lon="12.795007880777121">
        <ele>65.030000000000001</ele>
        <time>2017-09-21T09:25:39Z</time>
      </trkpt>
      <trkpt lat="38.102221079170704" lon="12.794990697875619">
        <ele>65.030000000000001</ele>
        <time>2017-09-21T09:25:51Z</time>
      </trkpt>
      <trkpt lat="38.10223650187254" lon="12.79499270953238">
        <ele>64.549999999999997</ele>
        <time>2017-09-21T09:26:01Z</time>
      </trkpt>
      <trkpt lat="38.102226862683892" lon="12.79499757103622">
        <ele>65.030000000000001</ele>
        <time>2017-09-21T09:26:11Z</time>
      </trkpt>
      <trkpt lat="38.102205488830805" lon="12.795002432540059">
        <ele>65.030000000000001</ele>
        <time>2017-09-21T09:26:22Z</time>
      </trkpt>
      <trkpt lat="38.102216552942991" lon="12.794976448640227">
        <ele>65.030000000000001</ele>
        <time>2017-09-21T09:26:34Z</time>
      </trkpt>
      <trkpt lat="38.102233987301588" lon="12.794957170262933">
        <ele>65.030000000000001</ele>
        <time>2017-09-21T09:26:37Z</time>
      </trkpt>
      <trkpt lat="38.102353345602751" lon="12.79488718137145">
        <ele>64.549999999999997</ele>
        <time>2017-09-21T09:26:52Z</time>
      </trkpt>
      <trkpt lat="38.102469518780708" lon="12.794846696779132">
        <ele>64.549999999999997</ele>
        <time>2017-09-21T09:27:06Z</time>
      </trkpt>
      <trkpt lat="38.102572616189718" lon="12.794812666252255">
        <ele>65.030000000000001</ele>
        <time>2017-09-21T09:27:18Z</time>
      </trkpt>
      <trkpt lat="38.102666325867176" lon="12.794777629896998">
        <ele>65.510000000000005</ele>
        <time>2017-09-21T09:27:30Z</time>
      </trkpt>
      <trkpt lat="38.102767076343298" lon="12.794737732037902">
        <ele>66.469999999999999</ele>
        <time>2017-09-21T09:27:43Z</time>
      </trkpt>
      <trkpt lat="38.102845950052142" lon="12.794742677360773">
        <ele>66.950000000000003</ele>
        <time>2017-09-21T09:27:54Z</time>
      </trkpt>
      <trkpt lat="38.102912334725261" lon="12.794720130041242">
        <ele>67.909999999999997</ele>
        <time>2017-09-21T09:28:04Z</time>
      </trkpt>
      <trkpt lat="38.102997578680515" lon="12.794711329042912">
        <ele>68.390000000000001</ele>
        <time>2017-09-21T09:28:16Z</time>
      </trkpt>
      <trkpt lat="38.10308089479804" lon="12.794723398983479">
        <ele>69.349999999999994</ele>
        <time>2017-09-21T09:28:28Z</time>
      </trkpt>
      <trkpt lat="38.103160439059138" lon="12.794730607420206">
        <ele>70.310000000000002</ele>
        <time>2017-09-21T09:28:40Z</time>
      </trkpt>
      <trkpt lat="38.103232439607382" lon="12.794718537479639">
        <ele>71.269999999999996</ele>
        <time>2017-09-21T09:28:51Z</time>
      </trkpt>
      <trkpt lat="38.103298740461469" lon="12.79474837705493">
        <ele>71.760000000000005</ele>
        <time>2017-09-21T09:29:02Z</time>
      </trkpt>
      <trkpt lat="38.103359425440431" lon="12.794771678745747">
        <ele>73.200000000000003</ele>
        <time>2017-09-21T09:29:12Z</time>
      </trkpt>
      <trkpt lat="38.103395383805037" lon="12.794759524986148">
        <ele>73.680000000000007</ele>
        <time>2017-09-21T09:29:17Z</time>
      </trkpt>
      <trkpt lat="38.103445256128907" lon="12.794761033728719">
        <ele>73.680000000000007</ele>
        <time>2017-09-21T09:29:23Z</time>
      </trkpt>
      <trkpt lat="38.103535696864128" lon="12.794724404811859">
        <ele>73.200000000000003</ele>
        <time>2017-09-21T09:29:36Z</time>
      </trkpt>
      <trkpt lat="38.103581126779318" lon="12.794692469760776">
        <ele>72.719999999999999</ele>
        <time>2017-09-21T09:29:45Z</time>
      </trkpt>
      <trkpt lat="38.10363007709384" lon="12.794660786166787">
        <ele>71.269999999999996</ele>
        <time>2017-09-21T09:29:55Z</time>
      </trkpt>
      <trkpt lat="38.103684727102518" lon="12.794600687921047">
        <ele>69.349999999999994</ele>
        <time>2017-09-21T09:30:08Z</time>
      </trkpt>
      <trkpt lat="38.103757062926888" lon="12.794578224420547">
        <ele>67.909999999999997</ele>
        <time>2017-09-21T09:30:19Z</time>
      </trkpt>
      <trkpt lat="38.103824285790324" lon="12.794519048184156">
        <ele>66.469999999999999</ele>
        <time>2017-09-21T09:30:30Z</time>
      </trkpt>
      <trkpt lat="38.103895951062441" lon="12.79446448199451">
        <ele>65.510000000000005</ele>
        <time>2017-09-21T09:30:42Z</time>
      </trkpt>
      <trkpt lat="38.103958312422037" lon="12.794431960210204">
        <ele>65.030000000000001</ele>
        <time>2017-09-21T09:30:52Z</time>
      </trkpt>
      <trkpt lat="38.104019919410348" lon="12.794416872784495">
        <ele>63.579999999999998</ele>
        <time>2017-09-21T09:31:03Z</time>
      </trkpt>
      <trkpt lat="38.104093763977289" lon="12.794380998238921">
        <ele>62.140000000000001</ele>
        <time>2017-09-21T09:31:15Z</time>
      </trkpt>
      <trkpt lat="38.104179929941893" lon="12.794328276067972">
        <ele>61.18</ele>
        <time>2017-09-21T09:31:26Z</time>
      </trkpt>
      <trkpt lat="38.104228796437383" lon="12.794275805354118">
        <ele>60.700000000000003</ele>
        <time>2017-09-21T09:31:33Z</time>
      </trkpt>
      <trkpt lat="38.10429610311985" lon="12.79421579092741">
        <ele>60.219999999999999</ele>
        <time>2017-09-21T09:31:44Z</time>
      </trkpt>
      <trkpt lat="38.104334827512503" lon="12.794124512001872">
        <ele>58.780000000000001</ele>
        <time>2017-09-21T09:31:56Z</time>
      </trkpt>
      <trkpt lat="38.104376904666424" lon="12.794091990217566">
        <ele>57.340000000000003</ele>
        <time>2017-09-21T09:32:05Z</time>
      </trkpt>
      <trkpt lat="38.104443959891796" lon="12.794060055166483">
        <ele>55.890000000000001</ele>
        <time>2017-09-21T09:32:17Z</time>
      </trkpt>
      <trkpt lat="38.104507075622678" lon="12.79398906044662">
        <ele>54.450000000000003</ele>
        <time>2017-09-21T09:32:30Z</time>
      </trkpt>
      <trkpt lat="38.1045887991786" lon="12.793873474001884">
        <ele>54.450000000000003</ele>
        <time>2017-09-21T09:32:44Z</time>
      </trkpt>
      <trkpt lat="38.10459760017693" lon="12.793869115412235">
        <ele>54.450000000000003</ele>
        <time>2017-09-21T09:32:45Z</time>
      </trkpt>
      <trkpt lat="38.104718802496791" lon="12.793773896992207">
        <ele>52.530000000000001</ele>
        <time>2017-09-21T09:33:00Z</time>
      </trkpt>
      <trkpt lat="38.104824582114816" lon="12.7936792653054">
        <ele>51.57</ele>
        <time>2017-09-21T09:33:15Z</time>
      </trkpt>
      <trkpt lat="38.104901611804962" lon="12.793584801256657">
        <ele>51.090000000000003</ele>
        <time>2017-09-21T09:33:27Z</time>
      </trkpt>
      <trkpt lat="38.10495869256556" lon="12.793505676090717">
        <ele>50.609999999999999</ele>
        <time>2017-09-21T09:33:37Z</time>
      </trkpt>
      <trkpt lat="38.105007810518146" lon="12.793365530669689">
        <ele>50.130000000000003</ele>
        <time>2017-09-21T09:33:50Z</time>
      </trkpt>
      <trkpt lat="38.105027927085757" lon="12.793226474896073">
        <ele>49.649999999999999</ele>
        <time>2017-09-21T09:34:02Z</time>
      </trkpt>
      <trkpt lat="38.105037063360214" lon="12.793127149343491">
        <ele>49.159999999999997</ele>
        <time>2017-09-21T09:34:13Z</time>
      </trkpt>
      <trkpt lat="38.105025496333838" lon="12.793012820184231">
        <ele>48.200000000000003</ele>
        <time>2017-09-21T09:34:26Z</time>
      </trkpt>
      <trkpt lat="38.105081152170897" lon="12.79292045161128">
        <ele>48.200000000000003</ele>
        <time>2017-09-21T09:34:38Z</time>
      </trkpt>
      <trkpt lat="38.105160780251026" lon="12.792833531275392">
        <ele>47.240000000000002</ele>
        <time>2017-09-21T09:34:52Z</time>
      </trkpt>
      <trkpt lat="38.105169581249356" lon="12.792829424142838">
        <ele>47.719999999999999</ele>
        <time>2017-09-21T09:35:05Z</time>
      </trkpt>
      <trkpt lat="38.105189111083746" lon="12.792843254283071">
        <ele>47.240000000000002</ele>
        <time>2017-09-21T09:35:26Z</time>
      </trkpt>
      <trkpt lat="38.105196906253695" lon="12.792850211262703">
        <ele>47.240000000000002</ele>
        <time>2017-09-21T09:35:46Z</time>
      </trkpt>
      <trkpt lat="38.105200678110123" lon="12.792848283424973">
        <ele>47.240000000000002</ele>
        <time>2017-09-21T09:36:06Z</time>
      </trkpt>
      <trkpt lat="38.105187267065048" lon="12.792822131887078">
        <ele>47.240000000000002</ele>
        <time>2017-09-21T09:36:23Z</time>
      </trkpt>
      <trkpt lat="38.105188524350524" lon="12.792838644236326">
        <ele>47.719999999999999</ele>
        <time>2017-09-21T09:36:42Z</time>
      </trkpt>
      <trkpt lat="38.105170503258705" lon="12.792836967855692">
        <ele>47.240000000000002</ele>
        <time>2017-09-21T09:37:00Z</time>
      </trkpt>
      <trkpt lat="38.105154745280743" lon="12.79282858595252">
        <ele>47.240000000000002</ele>
        <time>2017-09-21T09:37:17Z</time>
      </trkpt>
      <trkpt lat="38.105161366984248" lon="12.792817186564207">
        <ele>47.240000000000002</ele>
        <time>2017-09-21T09:37:35Z</time>
      </trkpt>
      <trkpt lat="38.105168072506785" lon="12.792837470769882">
        <ele>47.240000000000002</ele>
        <time>2017-09-21T09:37:51Z</time>
      </trkpt>
      <trkpt lat="38.105209730565548" lon="12.792844260111451">
        <ele>47.240000000000002</ele>
        <time>2017-09-21T09:38:07Z</time>
      </trkpt>
      <trkpt lat="38.105190452188253" lon="12.792843338102102">
        <ele>47.240000000000002</ele>
        <time>2017-09-21T09:38:24Z</time>
      </trkpt>
      <trkpt lat="38.105170084163547" lon="12.792839398607612">
        <ele>47.240000000000002</ele>
        <time>2017-09-21T09:38:40Z</time>
      </trkpt>
      <trkpt lat="38.105174861848354" lon="12.7928486187011">
        <ele>47.240000000000002</ele>
        <time>2017-09-21T09:38:56Z</time>
      </trkpt>
      <trkpt lat="38.105177292600274" lon="12.792838057503104">
        <ele>47.240000000000002</ele>
        <time>2017-09-21T09:39:15Z</time>
      </trkpt>
      <trkpt lat="38.105179807171226" lon="12.792821461334825">
        <ele>47.240000000000002</ele>
        <time>2017-09-21T09:39:30Z</time>
      </trkpt>
      <trkpt lat="38.105173269286752" lon="12.792824981734157">
        <ele>47.240000000000002</ele>
        <time>2017-09-21T09:39:45Z</time>
      </trkpt>
      <trkpt lat="38.105169329792261" lon="12.792818946763873">
        <ele>47.240000000000002</ele>
        <time>2017-09-21T09:40:06Z</time>
      </trkpt>
      <trkpt lat="38.105165222659707" lon="12.792836129665375">
        <ele>47.240000000000002</ele>
        <time>2017-09-21T09:40:26Z</time>
      </trkpt>
      <trkpt lat="38.105171928182244" lon="12.792833615094423">
        <ele>47.240000000000002</ele>
        <time>2017-09-21T09:40:41Z</time>
      </trkpt>
      <trkpt lat="38.105193972587585" lon="12.792895473539829">
        <ele>47.719999999999999</ele>
        <time>2017-09-21T09:40:52Z</time>
      </trkpt>
      <trkpt lat="38.105191709473729" lon="12.792860437184572">
        <ele>47.719999999999999</ele>
        <time>2017-09-21T09:41:05Z</time>
      </trkpt>
      <trkpt lat="38.105195816606283" lon="12.792836800217628">
        <ele>47.719999999999999</ele>
        <time>2017-09-21T09:41:31Z</time>
      </trkpt>
      <trkpt lat="38.105165725573897" lon="12.792815342545509">
        <ele>47.719999999999999</ele>
        <time>2017-09-21T09:41:52Z</time>
      </trkpt>
      <trkpt lat="38.105181651189923" lon="12.792827077209949">
        <ele>47.719999999999999</ele>
        <time>2017-09-21T09:42:07Z</time>
      </trkpt>
      <trkpt lat="38.105207048356533" lon="12.792822467163205">
        <ele>47.719999999999999</ele>
        <time>2017-09-21T09:42:21Z</time>
      </trkpt>
      <trkpt lat="38.105216603726149" lon="12.792854821309447">
        <ele>47.719999999999999</ele>
        <time>2017-09-21T09:42:37Z</time>
      </trkpt>
      <trkpt lat="38.105194475501776" lon="12.792832776904106">
        <ele>47.719999999999999</ele>
        <time>2017-09-21T09:42:57Z</time>
      </trkpt>
      <trkpt lat="38.105200845748186" lon="12.79285054653883">
        <ele>48.200000000000003</ele>
        <time>2017-09-21T09:43:13Z</time>
      </trkpt>
      <trkpt lat="38.105212580412626" lon="12.792854988947511">
        <ele>47.719999999999999</ele>
        <time>2017-09-21T09:43:25Z</time>
      </trkpt>
      <trkpt lat="38.105227332562208" lon="12.79285591095686">
        <ele>47.719999999999999</ele>
        <time>2017-09-21T09:43:38Z</time>
      </trkpt>
      <trkpt lat="38.105262368917465" lon="12.792861945927143">
        <ele>47.719999999999999</ele>
        <time>2017-09-21T09:43:49Z</time>
      </trkpt>
      <trkpt lat="38.105320874601603" lon="12.792835040017962">
        <ele>48.200000000000003</ele>
        <time>2017-09-21T09:44:01Z</time>
      </trkpt>
      <trkpt lat="38.105358509346843" lon="12.792789693921804">
        <ele>48.200000000000003</ele>
        <time>2017-09-21T09:44:12Z</time>
      </trkpt>
      <trkpt lat="38.10542187653482" lon="12.792768152430654">
        <ele>47.719999999999999</ele>
        <time>2017-09-21T09:44:24Z</time>
      </trkpt>
      <trkpt lat="38.105480298399925" lon="12.792760189622641">
        <ele>47.719999999999999</ele>
        <time>2017-09-21T09:44:38Z</time>
      </trkpt>
      <trkpt lat="38.10552354902029" lon="12.792699420824647">
        <ele>48.200000000000003</ele>
        <time>2017-09-21T09:44:50Z</time>
      </trkpt>
      <trkpt lat="38.105550035834312" lon="12.792680058628321">
        <ele>48.200000000000003</ele>
        <time>2017-09-21T09:44:57Z</time>
      </trkpt>
      <trkpt lat="38.105621114373207" lon="12.792656840756536">
        <ele>48.200000000000003</ele>
        <time>2017-09-21T09:45:08Z</time>
      </trkpt>
      <trkpt lat="38.105724127963185" lon="12.792637813836336">
        <ele>48.200000000000003</ele>
        <time>2017-09-21T09:45:20Z</time>
      </trkpt>
      <trkpt lat="38.105828063562512" lon="12.79261794872582">
        <ele>47.240000000000002</ele>
        <time>2017-09-21T09:45:30Z</time>
      </trkpt>
      <trkpt lat="38.105927724391222" lon="12.792590036988258">
        <ele>47.240000000000002</ele>
        <time>2017-09-21T09:45:42Z</time>
      </trkpt>
      <trkpt lat="38.106014980003238" lon="12.792562628164887">
        <ele>47.719999999999999</ele>
        <time>2017-09-21T09:45:54Z</time>
      </trkpt>
      <trkpt lat="38.106098212301731" lon="12.792521389201283">
        <ele>47.719999999999999</ele>
        <time>2017-09-21T09:46:05Z</time>
      </trkpt>
      <trkpt lat="38.106155544519424" lon="12.792502362281084">
        <ele>47.719999999999999</ele>
        <time>2017-09-21T09:46:15Z</time>
      </trkpt>
      <trkpt lat="38.106250679120421" lon="12.792483167722821">
        <ele>47.240000000000002</ele>
        <time>2017-09-21T09:46:28Z</time>
      </trkpt>
      <trkpt lat="38.106336509808898" lon="12.792454501613975">
        <ele>47.719999999999999</ele>
        <time>2017-09-21T09:46:39Z</time>
      </trkpt>
      <trkpt lat="38.106418736279011" lon="12.792392307892442">
        <ele>48.68</ele>
        <time>2017-09-21T09:46:51Z</time>
      </trkpt>
      <trkpt lat="38.10653549619019" lon="12.792352410033345">
        <ele>47.719999999999999</ele>
        <time>2017-09-21T09:47:04Z</time>
      </trkpt>
      <trkpt lat="38.106609173119068" lon="12.792298598214984">
        <ele>48.200000000000003</ele>
        <time>2017-09-21T09:47:14Z</time>
      </trkpt>
      <trkpt lat="38.106684274971485" lon="12.792239338159561">
        <ele>47.719999999999999</ele>
        <time>2017-09-21T09:47:24Z</time>
      </trkpt>
      <trkpt lat="38.106741942465305" lon="12.792171109467745">
        <ele>48.200000000000003</ele>
        <time>2017-09-21T09:47:34Z</time>
      </trkpt>
      <trkpt lat="38.106811763718724" lon="12.792126769199967">
        <ele>48.68</ele>
        <time>2017-09-21T09:47:44Z</time>
      </trkpt>
      <trkpt lat="38.106846297159791" lon="12.792102880775928">
        <ele>48.68</ele>
        <time>2017-09-21T09:47:48Z</time>
      </trkpt>
      <trkpt lat="38.10691075399518" lon="12.792051834985614">
        <ele>48.68</ele>
        <time>2017-09-21T09:48:00Z</time>
      </trkpt>
      <trkpt lat="38.107004296034575" lon="12.792009003460407">
        <ele>49.159999999999997</ele>
        <time>2017-09-21T09:48:12Z</time>
      </trkpt>
      <trkpt lat="38.107040422037244" lon="12.791967932134867">
        <ele>49.159999999999997</ele>
        <time>2017-09-21T09:48:22Z</time>
      </trkpt>
      <trkpt lat="38.107121307402849" lon="12.791926022619009">
        <ele>49.649999999999999</ele>
        <time>2017-09-21T09:48:33Z</time>
      </trkpt>
      <trkpt lat="38.107183082029223" lon="12.791902218014002">
        <ele>50.130000000000003</ele>
        <time>2017-09-21T09:48:44Z</time>
      </trkpt>
      <trkpt lat="38.107206551358104" lon="12.791870450600982">
        <ele>50.609999999999999</ele>
        <time>2017-09-21T09:48:55Z</time>
      </trkpt>
      <trkpt lat="38.107239492237568" lon="12.791845975443721">
        <ele>51.090000000000003</ele>
        <time>2017-09-21T09:49:06Z</time>
      </trkpt>
      <trkpt lat="38.107267152518034" lon="12.791788643226027">
        <ele>52.049999999999997</ele>
        <time>2017-09-21T09:49:17Z</time>
      </trkpt>
      <trkpt lat="38.107331190258265" lon="12.791737010702491">
        <ele>53.009999999999998</ele>
        <time>2017-09-21T09:49:29Z</time>
      </trkpt>
      <trkpt lat="38.107382655143738" lon="12.791700968518853">
        <ele>53.490000000000002</ele>
        <time>2017-09-21T09:49:41Z</time>
      </trkpt>
      <trkpt lat="38.107420206069946" lon="12.791662830859423">
        <ele>54.93</ele>
        <time>2017-09-21T09:49:52Z</time>
      </trkpt>
      <trkpt lat="38.107471251860261" lon="12.791645061224699">
        <ele>54.93</ele>
        <time>2017-09-21T09:50:01Z</time>
      </trkpt>
      <trkpt lat="38.107476867735386" lon="12.791627375409007">
        <ele>55.409999999999997</ele>
        <time>2017-09-21T09:50:03Z</time>
      </trkpt>
      <trkpt lat="38.107533948495984" lon="12.791584962978959">
        <ele>56.369999999999997</ele>
        <time>2017-09-21T09:50:14Z</time>
      </trkpt>
      <trkpt lat="38.107580551877618" lon="12.791559565812349">
        <ele>57.340000000000003</ele>
        <time>2017-09-21T09:50:22Z</time>
      </trkpt>
      <trkpt lat="38.107657330110669" lon="12.791509861126542">
        <ele>57.82</ele>
        <time>2017-09-21T09:50:34Z</time>
      </trkpt>
      <trkpt lat="38.107703430578113" lon="12.791437273845077">
        <ele>58.780000000000001</ele>
        <time>2017-09-21T09:50:46Z</time>
      </trkpt>
      <trkpt lat="38.107735700905323" lon="12.791369967162609">
        <ele>60.219999999999999</ele>
        <time>2017-09-21T09:50:58Z</time>
      </trkpt>
      <trkpt lat="38.107767635956407" lon="12.791273491457105">
        <ele>61.659999999999997</ele>
        <time>2017-09-21T09:51:10Z</time>
      </trkpt>
      <trkpt lat="38.10781080275774" lon="12.791179278865457">
        <ele>62.619999999999997</ele>
        <time>2017-09-21T09:51:24Z</time>
      </trkpt>
      <trkpt lat="38.107863692566752" lon="12.791085485368967">
        <ele>63.100000000000001</ele>
        <time>2017-09-21T09:51:36Z</time>
      </trkpt>
      <trkpt lat="38.107867296785116" lon="12.791073080152273">
        <ele>63.100000000000001</ele>
        <time>2017-09-21T09:51:37Z</time>
      </trkpt>
      <trkpt lat="38.107885820791125" lon="12.791037457063794">
        <ele>63.100000000000001</ele>
        <time>2017-09-21T09:51:40Z</time>
      </trkpt>
      <trkpt lat="38.107933849096298" lon="12.790908878669143">
        <ele>64.069999999999993</ele>
        <time>2017-09-21T09:51:51Z</time>
      </trkpt>
      <trkpt lat="38.108037365600467" lon="12.790788849815726">
        <ele>64.069999999999993</ele>
        <time>2017-09-21T09:52:06Z</time>
      </trkpt>
      <trkpt lat="38.108083549886942" lon="12.790694804862142">
        <ele>65.510000000000005</ele>
        <time>2017-09-21T09:52:19Z</time>
      </trkpt>
      <trkpt lat="38.108094781637192" lon="12.790647028014064">
        <ele>65.510000000000005</ele>
        <time>2017-09-21T09:52:29Z</time>
      </trkpt>
      <trkpt lat="38.108125710859895" lon="12.790554575622082">
        <ele>66.469999999999999</ele>
        <time>2017-09-21T09:52:39Z</time>
      </trkpt>
      <trkpt lat="38.108142223209143" lon="12.79047335498035">
        <ele>67.909999999999997</ele>
        <time>2017-09-21T09:52:49Z</time>
      </trkpt>
      <trkpt lat="38.108187904581428" lon="12.790411077439785">
        <ele>68.870000000000005</ele>
        <time>2017-09-21T09:53:00Z</time>
      </trkpt>
      <trkpt lat="38.108201315626502" lon="12.790349638089538">
        <ele>69.829999999999998</ele>
        <time>2017-09-21T09:53:11Z</time>
      </trkpt>
      <trkpt lat="38.108253534883261" lon="12.790359277278185">
        <ele>69.349999999999994</ele>
        <time>2017-09-21T09:53:21Z</time>
      </trkpt>
      <trkpt lat="38.108314387500286" lon="12.790350811555982">
        <ele>67.430000000000007</ele>
        <time>2017-09-21T09:53:32Z</time>
      </trkpt>
      <trkpt lat="38.108365600928664" lon="12.790374448522925">
        <ele>66.950000000000003</ele>
        <time>2017-09-21T09:53:42Z</time>
      </trkpt>
      <trkpt lat="38.108400637283921" lon="12.790383920073509">
        <ele>65.989999999999995</ele>
        <time>2017-09-21T09:53:50Z</time>
      </trkpt>
      <trkpt lat="38.108400972560048" lon="12.790378471836448">
        <ele>65.510000000000005</ele>
        <time>2017-09-21T09:54:00Z</time>
      </trkpt>
      <trkpt lat="38.108393764123321" lon="12.790336478501558">
        <ele>65.989999999999995</ele>
        <time>2017-09-21T09:54:09Z</time>
      </trkpt>
      <trkpt lat="38.108415305614471" lon="12.790407724678516">
        <ele>65.510000000000005</ele>
        <time>2017-09-21T09:54:19Z</time>
      </trkpt>
      <trkpt lat="38.108410947024822" lon="12.79037956148386">
        <ele>65.510000000000005</ele>
        <time>2017-09-21T09:54:30Z</time>
      </trkpt>
      <trkpt lat="38.108408180996776" lon="12.790322229266167">
        <ele>65.989999999999995</ele>
        <time>2017-09-21T09:54:40Z</time>
      </trkpt>
      <trkpt lat="38.108436176553369" lon="12.79030772857368">
        <ele>65.989999999999995</ele>
        <time>2017-09-21T09:54:55Z</time>
      </trkpt>
      <trkpt lat="38.108431985601783" lon="12.790320385247469">
        <ele>65.989999999999995</ele>
        <time>2017-09-21T09:55:15Z</time>
      </trkpt>
      <trkpt lat="38.108430225402117" lon="12.790314601734281">
        <ele>65.989999999999995</ele>
        <time>2017-09-21T09:55:34Z</time>
      </trkpt>
      <trkpt lat="38.108419664204121" lon="12.790307393297553">
        <ele>65.989999999999995</ele>
        <time>2017-09-21T09:55:56Z</time>
      </trkpt>
      <trkpt lat="38.108431231230497" lon="12.790314182639122">
        <ele>65.989999999999995</ele>
        <time>2017-09-21T09:56:13Z</time>
      </trkpt>
      <trkpt lat="38.108448414131999" lon="12.790296413004398">
        <ele>65.989999999999995</ele>
        <time>2017-09-21T09:56:29Z</time>
      </trkpt>
      <trkpt lat="38.108454784378409" lon="12.79029306024313">
        <ele>65.989999999999995</ele>
        <time>2017-09-21T09:56:46Z</time>
      </trkpt>
      <trkpt lat="38.108437517657876" lon="12.790278308093548">
        <ele>65.989999999999995</ele>
        <time>2017-09-21T09:57:03Z</time>
      </trkpt>
      <trkpt lat="38.108426118269563" lon="12.790256096050143">
        <ele>65.989999999999995</ele>
        <time>2017-09-21T09:57:24Z</time>
      </trkpt>
      <trkpt lat="38.108439445495605" lon="12.790281409397721">
        <ele>65.989999999999995</ele>
        <time>2017-09-21T09:57:43Z</time>
      </trkpt>
      <trkpt lat="38.108462076634169" lon="12.790266824886203">
        <ele>65.989999999999995</ele>
        <time>2017-09-21T09:58:09Z</time>
      </trkpt>
      <trkpt lat="38.108417736366391" lon="12.790285851806402">
        <ele>65.989999999999995</ele>
        <time>2017-09-21T09:58:30Z</time>
      </trkpt>
      <trkpt lat="38.108437517657876" lon="12.790310746058822">
        <ele>65.989999999999995</ele>
        <time>2017-09-21T09:58:51Z</time>
      </trkpt>
      <trkpt lat="38.108399966731668" lon="12.79030286706984">
        <ele>66.469999999999999</ele>
        <time>2017-09-21T09:59:08Z</time>
      </trkpt>
      <trkpt lat="38.108389237895608" lon="12.79025886207819">
        <ele>66.950000000000003</ele>
        <time>2017-09-21T09:59:23Z</time>
      </trkpt>
      <trkpt lat="38.108388315886259" lon="12.790243942290545">
        <ele>66.950000000000003</ele>
        <time>2017-09-21T09:59:38Z</time>
      </trkpt>
      <trkpt lat="38.108415976166725" lon="12.790248468518257">
        <ele>66.950000000000003</ele>
        <time>2017-09-21T09:59:52Z</time>
      </trkpt>
      <trkpt lat="38.108394937589765" lon="12.790254922583699">
        <ele>66.950000000000003</ele>
        <time>2017-09-21T10:00:07Z</time>
      </trkpt>
      <trkpt lat="38.108385717496276" lon="12.790253413841128">
        <ele>66.950000000000003</ele>
        <time>2017-09-21T10:00:22Z</time>
      </trkpt>
      <trkpt lat="38.108365768566728" lon="12.790326587855816">
        <ele>66.469999999999999</ele>
        <time>2017-09-21T10:00:33Z</time>
      </trkpt>
      <trkpt lat="38.108380101621151" lon="12.790325917303562">
        <ele>66.469999999999999</ele>
        <time>2017-09-21T10:00:44Z</time>
      </trkpt>
      <trkpt lat="38.108367277309299" lon="12.790340920910239">
        <ele>66.469999999999999</ele>
        <time>2017-09-21T10:00:54Z</time>
      </trkpt>
      <trkpt lat="38.108340203762054" lon="12.790330946445465">
        <ele>66.950000000000003</ele>
        <time>2017-09-21T10:01:06Z</time>
      </trkpt>
      <trkpt lat="38.10834095813334" lon="12.79031946323812">
        <ele>66.469999999999999</ele>
        <time>2017-09-21T10:01:15Z</time>
      </trkpt>
      <trkpt lat="38.108346071094275" lon="12.790322480723262">
        <ele>66.950000000000003</ele>
        <time>2017-09-21T10:01:27Z</time>
      </trkpt>
      <trkpt lat="38.108354955911636" lon="12.790334969758987">
        <ele>65.989999999999995</ele>
        <time>2017-09-21T10:01:39Z</time>
      </trkpt>
      <trkpt lat="38.108349591493607" lon="12.790337316691875">
        <ele>66.469999999999999</ele>
        <time>2017-09-21T10:01:51Z</time>
      </trkpt>
      <trkpt lat="38.108354536816478" lon="12.790344441309571">
        <ele>65.989999999999995</ele>
        <time>2017-09-21T10:02:20Z</time>
      </trkpt>
      <trkpt lat="38.108353447169065" lon="12.790345279499888">
        <ele>66.469999999999999</ele>
        <time>2017-09-21T10:02:35Z</time>
      </trkpt>
      <trkpt lat="38.10834196396172" lon="12.790336981415749">
        <ele>65.989999999999995</ele>
        <time>2017-09-21T10:02:55Z</time>
      </trkpt>
      <trkpt lat="38.108347496017814" lon="12.790333712473512">
        <ele>65.989999999999995</ele>
        <time>2017-09-21T10:03:12Z</time>
      </trkpt>
      <trkpt lat="38.108343053609133" lon="12.790348883718252">
        <ele>66.950000000000003</ele>
        <time>2017-09-21T10:03:29Z</time>
      </trkpt>
      <trkpt lat="38.108319919556379" lon="12.790349218994379">
        <ele>66.469999999999999</ele>
        <time>2017-09-21T10:03:43Z</time>
      </trkpt>
      <trkpt lat="38.108317824080586" lon="12.79035416431725">
        <ele>66.469999999999999</ele>
        <time>2017-09-21T10:04:00Z</time>
      </trkpt>
      <trkpt lat="38.108313214033842" lon="12.790373526513577">
        <ele>66.469999999999999</ele>
        <time>2017-09-21T10:04:17Z</time>
      </trkpt>
      <trkpt lat="38.108283961191773" lon="12.790383920073509">
        <ele>66.950000000000003</ele>
        <time>2017-09-21T10:04:28Z</time>
      </trkpt>
      <trkpt lat="38.108262922614813" lon="12.790406048297882">
        <ele>67.430000000000007</ele>
        <time>2017-09-21T10:04:41Z</time>
      </trkpt>
      <trkpt lat="38.108241381123662" lon="12.790394984185696">
        <ele>67.430000000000007</ele>
        <time>2017-09-21T10:04:55Z</time>
      </trkpt>
      <trkpt lat="38.108221096917987" lon="12.790355840697885">
        <ele>68.870000000000005</ele>
        <time>2017-09-21T10:05:10Z</time>
      </trkpt>
      <trkpt lat="38.108214642852545" lon="12.790277302265167">
        <ele>69.829999999999998</ele>
        <time>2017-09-21T10:05:22Z</time>
      </trkpt>
      <trkpt lat="38.108252696692944" lon="12.790224244818091">
        <ele>70.790000000000006</ele>
        <time>2017-09-21T10:05:35Z</time>
      </trkpt>
      <trkpt lat="38.108268035575747" lon="12.790154004469514">
        <ele>72.239999999999995</ele>
        <time>2017-09-21T10:05:50Z</time>
      </trkpt>
      <trkpt lat="38.108291840180755" lon="12.790054762735963">
        <ele>73.680000000000007</ele>
        <time>2017-09-21T10:06:01Z</time>
      </trkpt>
      <trkpt lat="38.108359649777412" lon="12.789936326444149">
        <ele>73.680000000000007</ele>
        <time>2017-09-21T10:06:14Z</time>
      </trkpt>
      <trkpt lat="38.108408264815807" lon="12.789814872667193">
        <ele>74.159999999999997</ele>
        <time>2017-09-21T10:06:26Z</time>
      </trkpt>
      <trkpt lat="38.108436092734337" lon="12.789740776643157">
        <ele>74.159999999999997</ele>
        <time>2017-09-21T10:06:36Z</time>
      </trkpt>
      <trkpt lat="38.108449839055538" lon="12.789669865742326">
        <ele>74.640000000000001</ele>
        <time>2017-09-21T10:06:46Z</time>
      </trkpt>
      <trkpt lat="38.108515134081244" lon="12.789588393643498">
        <ele>75.599999999999994</ele>
        <time>2017-09-21T10:06:57Z</time>
      </trkpt>
      <trkpt lat="38.108583195134997" lon="12.789549333974719">
        <ele>76.079999999999998</ele>
        <time>2017-09-21T10:07:08Z</time>
      </trkpt>
      <trkpt lat="38.108588308095932" lon="12.789515722543001">
        <ele>77.519999999999996</ele>
        <time>2017-09-21T10:07:17Z</time>
      </trkpt>
      <trkpt lat="38.108628625050187" lon="12.789467861875892">
        <ele>78.969999999999999</ele>
        <time>2017-09-21T10:07:26Z</time>
      </trkpt>
      <trkpt lat="38.10867128893733" lon="12.789438860490918">
        <ele>79.450000000000003</ele>
        <time>2017-09-21T10:07:36Z</time>
      </trkpt>
      <trkpt lat="38.108729124069214" lon="12.789389155805111">
        <ele>80.890000000000001</ele>
        <time>2017-09-21T10:07:47Z</time>
      </trkpt>
      <trkpt lat="38.108770782127976" lon="12.789325704798102">
        <ele>81.849999999999994</ele>
        <time>2017-09-21T10:07:59Z</time>
      </trkpt>
      <trkpt lat="38.108801543712616" lon="12.789266109466553">
        <ele>82.810000000000002</ele>
        <time>2017-09-21T10:08:09Z</time>
      </trkpt>
      <trkpt lat="38.108844123780727" lon="12.789205927401781">
        <ele>83.769999999999996</ele>
        <time>2017-09-21T10:08:22Z</time>
      </trkpt>
      <trkpt lat="38.108876310288906" lon="12.789132418110967">
        <ele>85.209999999999994</ele>
        <time>2017-09-21T10:08:32Z</time>
      </trkpt>
      <trkpt lat="38.108891732990742" lon="12.789063099771738">
        <ele>86.180000000000007</ele>
        <time>2017-09-21T10:08:43Z</time>
      </trkpt>
      <trkpt lat="38.108954764902592" lon="12.78902261517942">
        <ele>87.140000000000001</ele>
        <time>2017-09-21T10:08:52Z</time>
      </trkpt>
      <trkpt lat="38.109016288071871" lon="12.788951452821493">
        <ele>87.620000000000005</ele>
        <time>2017-09-21T10:09:03Z</time>
      </trkpt>
      <trkpt lat="38.109046127647161" lon="12.788895042613149">
        <ele>87.620000000000005</ele>
        <time>2017-09-21T10:09:09Z</time>
      </trkpt>
      <trkpt lat="38.109124582260847" lon="12.788776773959398">
        <ele>88.099999999999994</ele>
        <time>2017-09-21T10:09:23Z</time>
      </trkpt>
      <trkpt lat="38.109132628887892" lon="12.788739809766412">
        <ele>88.579999999999998</ele>
        <time>2017-09-21T10:09:36Z</time>
      </trkpt>
      <trkpt lat="38.109131455421448" lon="12.788725644350052">
        <ele>88.579999999999998</ele>
        <time>2017-09-21T10:09:55Z</time>
      </trkpt>
      <trkpt lat="38.109120558947325" lon="12.788699911907315">
        <ele>88.579999999999998</ele>
        <time>2017-09-21T10:10:07Z</time>
      </trkpt>
      <trkpt lat="38.109120894223452" lon="12.788671497255564">
        <ele>88.099999999999994</ele>
        <time>2017-09-21T10:10:17Z</time>
      </trkpt>
      <trkpt lat="38.109117122367024" lon="12.788620786741376">
        <ele>89.060000000000002</ele>
        <time>2017-09-21T10:10:30Z</time>
      </trkpt>
      <trkpt lat="38.109129359945655" lon="12.788579883053899">
        <ele>89.540000000000006</ele>
        <time>2017-09-21T10:10:40Z</time>
      </trkpt>
      <trkpt lat="38.109146039932966" lon="12.788560772314668">
        <ele>89.540000000000006</ele>
        <time>2017-09-21T10:10:49Z</time>
      </trkpt>
      <trkpt lat="38.109130281955004" lon="12.788523137569427">
        <ele>89.540000000000006</ele>
        <time>2017-09-21T10:11:01Z</time>
      </trkpt>
      <trkpt lat="38.10916967689991" lon="12.788443425670266">
        <ele>89.060000000000002</ele>
        <time>2017-09-21T10:11:13Z</time>
      </trkpt>
      <trkpt lat="38.109217789024115" lon="12.788373017683625">
        <ele>87.140000000000001</ele>
        <time>2017-09-21T10:11:26Z</time>
      </trkpt>
      <trkpt lat="38.109253998845816" lon="12.788343261927366">
        <ele>86.180000000000007</ele>
        <time>2017-09-21T10:11:34Z</time>
      </trkpt>
      <trkpt lat="38.10931820422411" lon="12.788288611918688">
        <ele>85.209999999999994</ele>
        <time>2017-09-21T10:11:44Z</time>
      </trkpt>
      <trkpt lat="38.109349217265844" lon="12.788256928324699">
        <ele>84.730000000000004</ele>
        <time>2017-09-21T10:11:54Z</time>
      </trkpt>
      <trkpt lat="38.109386516734958" lon="12.788232620805502">
        <ele>84.730000000000004</ele>
        <time>2017-09-21T10:12:05Z</time>
      </trkpt>
      <trkpt lat="38.109420211985707" lon="12.788167158141732">
        <ele>83.769999999999996</ele>
        <time>2017-09-21T10:12:13Z</time>
      </trkpt>
      <trkpt lat="38.109457679092884" lon="12.788043860346079">
        <ele>83.290000000000006</ele>
        <time>2017-09-21T10:12:25Z</time>
      </trkpt>
      <trkpt lat="38.109470335766673" lon="12.78799356892705">
        <ele>82.810000000000002</ele>
        <time>2017-09-21T10:12:34Z</time>
      </trkpt>
      <trkpt lat="38.109485171735287" lon="12.787945959717035">
        <ele>82.329999999999998</ele>
        <time>2017-09-21T10:12:42Z</time>
      </trkpt>
      <trkpt lat="38.109511323273182" lon="12.787896003574133">
        <ele>80.409999999999997</ele>
        <time>2017-09-21T10:12:52Z</time>
      </trkpt>
      <trkpt lat="38.109533870592713" lon="12.787848729640245">
        <ele>79.930000000000007</ele>
        <time>2017-09-21T10:12:58Z</time>
      </trkpt>
      <trkpt lat="38.109617019072175" lon="12.787747643887997">
        <ele>79.450000000000003</ele>
        <time>2017-09-21T10:13:11Z</time>
      </trkpt>
      <trkpt lat="38.109678123146296" lon="12.787694334983826">
        <ele>80.890000000000001</ele>
        <time>2017-09-21T10:13:24Z</time>
      </trkpt>
      <trkpt lat="38.109748531132936" lon="12.787720067426562">
        <ele>79.930000000000007</ele>
        <time>2017-09-21T10:13:33Z</time>
      </trkpt>
      <trkpt lat="38.109784154221416" lon="12.78764228336513">
        <ele>78.969999999999999</ele>
        <time>2017-09-21T10:13:44Z</time>
      </trkpt>
      <trkpt lat="38.109818520024419" lon="12.787573635578156">
        <ele>78.480000000000004</ele>
        <time>2017-09-21T10:13:51Z</time>
      </trkpt>
      <trkpt lat="38.109914744272828" lon="12.787485709413886">
        <ele>78.480000000000004</ele>
        <time>2017-09-21T10:14:03Z</time>
      </trkpt>
      <trkpt lat="38.109933519735932" lon="12.787421336397529">
        <ele>78.480000000000004</ele>
        <time>2017-09-21T10:14:09Z</time>
      </trkpt>
      <trkpt lat="38.109960174188018" lon="12.787353275343776">
        <ele>78</ele>
        <time>2017-09-21T10:14:20Z</time>
      </trkpt>
      <trkpt lat="38.109952798113227" lon="12.787316394969821">
        <ele>77.519999999999996</ele>
        <time>2017-09-21T10:14:29Z</time>
      </trkpt>
      <trkpt lat="38.109970651566982" lon="12.787281442433596">
        <ele>75.599999999999994</ele>
        <time>2017-09-21T10:14:38Z</time>
      </trkpt>
      <trkpt lat="38.109990516677499" lon="12.787244142964482">
        <ele>74.640000000000001</ele>
        <time>2017-09-21T10:14:48Z</time>
      </trkpt>
      <trkpt lat="38.110022535547614" lon="12.78719125315547">
        <ele>72.719999999999999</ele>
        <time>2017-09-21T10:14:58Z</time>
      </trkpt>
      <trkpt lat="38.110041981562972" lon="12.787103746086359">
        <ele>70.790000000000006</ele>
        <time>2017-09-21T10:15:09Z</time>
      </trkpt>
      <trkpt lat="38.11006385833025" lon="12.787054544314742">
        <ele>70.790000000000006</ele>
        <time>2017-09-21T10:15:19Z</time>
      </trkpt>
      <trkpt lat="38.110027480870485" lon="12.787019507959485">
        <ele>70.790000000000006</ele>
        <time>2017-09-21T10:15:29Z</time>
      </trkpt>
      <trkpt lat="38.109965957701206" lon="12.786981789395213">
        <ele>72.239999999999995</ele>
        <time>2017-09-21T10:15:39Z</time>
      </trkpt>
      <trkpt lat="38.109760014340281" lon="12.786801159381866">
        <ele>73.200000000000003</ele>
        <time>2017-09-21T10:15:53Z</time>
      </trkpt>
      <trkpt lat="38.109657671302557" lon="12.786674508824944">
        <ele>74.640000000000001</ele>
        <time>2017-09-21T10:16:04Z</time>
      </trkpt>
      <trkpt lat="38.109672842547297" lon="12.78671876527369">
        <ele>74.159999999999997</ele>
        <time>2017-09-21T10:16:13Z</time>
      </trkpt>
      <trkpt lat="38.10962213203311" lon="12.786715496331453">
        <ele>74.640000000000001</ele>
        <time>2017-09-21T10:16:33Z</time>
      </trkpt>
      <trkpt lat="38.109673764556646" lon="12.786702420562506">
        <ele>74.159999999999997</ele>
        <time>2017-09-21T10:16:52Z</time>
      </trkpt>
      <trkpt lat="38.109784573316574" lon="12.786763608455658">
        <ele>73.680000000000007</ele>
        <time>2017-09-21T10:17:12Z</time>
      </trkpt>
      <trkpt lat="38.109724391251802" lon="12.786779617890716">
        <ele>74.640000000000001</ele>
        <time>2017-09-21T10:17:23Z</time>
      </trkpt>
      <trkpt lat="38.109704107046127" lon="12.786754388362169">
        <ele>74.640000000000001</ele>
        <time>2017-09-21T10:17:42Z</time>
      </trkpt>
      <trkpt lat="38.109616683796048" lon="12.78668456710875">
        <ele>74.640000000000001</ele>
        <time>2017-09-21T10:18:10Z</time>
      </trkpt>
      <trkpt lat="38.109630681574345" lon="12.78662639670074">
        <ele>74.640000000000001</ele>
        <time>2017-09-21T10:18:28Z</time>
      </trkpt>
      <trkpt lat="38.109679883345962" lon="12.786702001467347">
        <ele>74.640000000000001</ele>
        <time>2017-09-21T10:18:51Z</time>
      </trkpt>
      <trkpt lat="38.109697233885527" lon="12.786734439432621">
        <ele>75.120000000000005</ele>
        <time>2017-09-21T10:19:02Z</time>
      </trkpt>
      <trkpt lat="38.109693462029099" lon="12.786706276237965">
        <ele>75.120000000000005</ele>
        <time>2017-09-21T10:19:12Z</time>
      </trkpt>
      <trkpt lat="38.109612660482526" lon="12.786617428064346">
        <ele>75.120000000000005</ele>
        <time>2017-09-21T10:19:33Z</time>
      </trkpt>
      <trkpt lat="38.109596567228436" lon="12.78658339753747">
        <ele>74.640000000000001</ele>
        <time>2017-09-21T10:19:54Z</time>
      </trkpt>
      <trkpt lat="38.109618527814746" lon="12.786617260426283">
        <ele>75.120000000000005</ele>
        <time>2017-09-21T10:20:12Z</time>
      </trkpt>
      <trkpt lat="38.109605452045798" lon="12.786613572388887">
        <ele>75.120000000000005</ele>
        <time>2017-09-21T10:20:30Z</time>
      </trkpt>
      <trkpt lat="38.109678626060486" lon="12.786627486348152">
        <ele>75.120000000000005</ele>
        <time>2017-09-21T10:21:00Z</time>
      </trkpt>
      <trkpt lat="38.10970569960773" lon="12.786629246547818">
        <ele>74.640000000000001</ele>
        <time>2017-09-21T10:21:19Z</time>
      </trkpt>
      <trkpt lat="38.109717266634107" lon="12.786683393642306">
        <ele>74.640000000000001</ele>
        <time>2017-09-21T10:21:42Z</time>
      </trkpt>
      <trkpt lat="38.109641075134277" lon="12.786622624844313">
        <ele>74.640000000000001</ele>
        <time>2017-09-21T10:22:01Z</time>
      </trkpt>
      <trkpt lat="38.109556753188372" lon="12.786581637337804">
        <ele>74.640000000000001</ele>
        <time>2017-09-21T10:22:16Z</time>
      </trkpt>
      <trkpt lat="38.109606793150306" lon="12.786578368395567">
        <ele>75.120000000000005</ele>
        <time>2017-09-21T10:22:31Z</time>
      </trkpt>
      <trkpt lat="38.109621377661824" lon="12.786596557125449">
        <ele>75.120000000000005</ele>
        <time>2017-09-21T10:22:44Z</time>
      </trkpt>
      <trkpt lat="38.109675692394376" lon="12.786605190485716">
        <ele>75.120000000000005</ele>
        <time>2017-09-21T10:23:02Z</time>
      </trkpt>
      <trkpt lat="38.109690360724926" lon="12.786578871309757">
        <ele>75.599999999999994</ele>
        <time>2017-09-21T10:23:18Z</time>
      </trkpt>
      <trkpt lat="38.109859088435769" lon="12.786499997600913">
        <ele>75.599999999999994</ele>
        <time>2017-09-21T10:23:37Z</time>
      </trkpt>
      <trkpt lat="38.110018847510219" lon="12.786467894911766">
        <ele>75.599999999999994</ele>
        <time>2017-09-21T10:23:51Z</time>
      </trkpt>
      <trkpt lat="38.110011555254459" lon="12.786490777507424">
        <ele>75.599999999999994</ele>
        <time>2017-09-21T10:24:15Z</time>
      </trkpt>
      <trkpt lat="38.110086405649781" lon="12.786404108628631">
        <ele>76.079999999999998</ele>
        <time>2017-09-21T10:24:43Z</time>
      </trkpt>
      <trkpt lat="38.110214564949274" lon="12.786418776959181">
        <ele>75.599999999999994</ele>
        <time>2017-09-21T10:25:00Z</time>
      </trkpt>
      <trkpt lat="38.110331995412707" lon="12.786418441683054">
        <ele>75.599999999999994</ele>
        <time>2017-09-21T10:25:17Z</time>
      </trkpt>
      <trkpt lat="38.110437104478478" lon="12.786468649283051">
        <ele>75.599999999999994</ele>
        <time>2017-09-21T10:25:38Z</time>
      </trkpt>
      <trkpt lat="38.110389746725559" lon="12.786445012316108">
        <ele>75.599999999999994</ele>
        <time>2017-09-21T10:25:53Z</time>
      </trkpt>
      <trkpt lat="38.110383627936244" lon="12.786432523280382">
        <ele>75.120000000000005</ele>
        <time>2017-09-21T10:26:10Z</time>
      </trkpt>
      <trkpt lat="38.110150443390012" lon="12.786557916551828">
        <ele>75.120000000000005</ele>
        <time>2017-09-21T10:26:28Z</time>
      </trkpt>
      <trkpt lat="38.110127979889512" lon="12.786634443327785">
        <ele>74.640000000000001</ele>
        <time>2017-09-21T10:26:40Z</time>
      </trkpt>
      <trkpt lat="38.110153712332249" lon="12.786659672856331">
        <ele>74.159999999999997</ele>
        <time>2017-09-21T10:26:50Z</time>
      </trkpt>
      <trkpt lat="38.110326630994678" lon="12.786757405847311">
        <ele>72.719999999999999</ele>
        <time>2017-09-21T10:27:01Z</time>
      </trkpt>
      <trkpt lat="38.110607760027051" lon="12.786912219598889">
        <ele>72.719999999999999</ele>
        <time>2017-09-21T10:27:03Z</time>
      </trkpt>
      <trkpt lat="38.110540453344584" lon="12.787012383341789">
        <ele>71.760000000000005</ele>
        <time>2017-09-21T10:27:09Z</time>
      </trkpt>
      <trkpt lat="38.110375832766294" lon="12.787020094692707">
        <ele>70.310000000000002</ele>
        <time>2017-09-21T10:27:20Z</time>
      </trkpt>
      <trkpt lat="38.110382370650768" lon="12.786983130499721">
        <ele>69.829999999999998</ele>
        <time>2017-09-21T10:27:32Z</time>
      </trkpt>
      <trkpt lat="38.11041422188282" lon="12.786868968978524">
        <ele>68.870000000000005</ele>
        <time>2017-09-21T10:27:45Z</time>
      </trkpt>
      <trkpt lat="38.110419753938913" lon="12.786864023655653">
        <ele>68.390000000000001</ele>
        <time>2017-09-21T10:27:56Z</time>
      </trkpt>
      <trkpt lat="38.110430063679814" lon="12.786854719743133">
        <ele>67.909999999999997</ele>
        <time>2017-09-21T10:27:58Z</time>
      </trkpt>
      <trkpt lat="38.110493682324886" lon="12.786748521029949">
        <ele>67.430000000000007</ele>
        <time>2017-09-21T10:28:12Z</time>
      </trkpt>
      <trkpt lat="38.11057741753757" lon="12.786688590422273">
        <ele>66.469999999999999</ele>
        <time>2017-09-21T10:28:24Z</time>
      </trkpt>
      <trkpt lat="38.110686047002673" lon="12.786679286509752">
        <ele>65.989999999999995</ele>
        <time>2017-09-21T10:28:39Z</time>
      </trkpt>
      <trkpt lat="38.11072108335793" lon="12.786748269572854">
        <ele>66.469999999999999</ele>
        <time>2017-09-21T10:28:51Z</time>
      </trkpt>
      <trkpt lat="38.110721921548247" lon="12.786757405847311">
        <ele>66.469999999999999</ele>
        <time>2017-09-21T10:28:52Z</time>
      </trkpt>
      <trkpt lat="38.110700715333223" lon="12.786817755550146">
        <ele>65.989999999999995</ele>
        <time>2017-09-21T10:29:04Z</time>
      </trkpt>
      <trkpt lat="38.110676743090153" lon="12.786896713078022">
        <ele>65.510000000000005</ele>
        <time>2017-09-21T10:29:17Z</time>
      </trkpt>
      <trkpt lat="38.110705576837063" lon="12.786949351429939">
        <ele>64.549999999999997</ele>
        <time>2017-09-21T10:29:25Z</time>
      </trkpt>
      <trkpt lat="38.110725190490484" lon="12.787059238180518">
        <ele>63.100000000000001</ele>
        <time>2017-09-21T10:29:38Z</time>
      </trkpt>
      <trkpt lat="38.110733823850751" lon="12.787126544862986">
        <ele>61.659999999999997</ele>
        <time>2017-09-21T10:29:48Z</time>
      </trkpt>
      <trkpt lat="38.110696356743574" lon="12.787186978384852">
        <ele>61.18</ele>
        <time>2017-09-21T10:29:58Z</time>
      </trkpt>
      <trkpt lat="38.110659644007683" lon="12.787250429391861">
        <ele>59.740000000000002</ele>
        <time>2017-09-21T10:30:11Z</time>
      </trkpt>
      <trkpt lat="38.110684622079134" lon="12.787313545122743">
        <ele>58.780000000000001</ele>
        <time>2017-09-21T10:30:22Z</time>
      </trkpt>
      <trkpt lat="38.110710438340902" lon="12.787375403568149">
        <ele>57.340000000000003</ele>
        <time>2017-09-21T10:30:32Z</time>
      </trkpt>
      <trkpt lat="38.110700380057096" lon="12.787443045526743">
        <ele>56.369999999999997</ele>
        <time>2017-09-21T10:30:39Z</time>
      </trkpt>
      <trkpt lat="38.110696859657764" lon="12.78748587705195">
        <ele>55.890000000000001</ele>
        <time>2017-09-21T10:30:42Z</time>
      </trkpt>
      <trkpt lat="38.11068688519299" lon="12.787585873156786">
        <ele>53.969999999999999</ele>
        <time>2017-09-21T10:30:53Z</time>
      </trkpt>
      <trkpt lat="38.110692668706179" lon="12.787665165960789">
        <ele>52.530000000000001</ele>
        <time>2017-09-21T10:31:04Z</time>
      </trkpt>
      <trkpt lat="38.110672803595662" lon="12.787762312218547">
        <ele>51.090000000000003</ele>
        <time>2017-09-21T10:31:15Z</time>
      </trkpt>
      <trkpt lat="38.110648663714528" lon="12.787841353565454">
        <ele>50.130000000000003</ele>
        <time>2017-09-21T10:31:25Z</time>
      </trkpt>
      <trkpt lat="38.110601054504514" lon="12.787852836772799">
        <ele>49.159999999999997</ele>
        <time>2017-09-21T10:31:35Z</time>
      </trkpt>
      <trkpt lat="38.110562916845083" lon="12.787879658862948">
        <ele>48.200000000000003</ele>
        <time>2017-09-21T10:31:44Z</time>
      </trkpt>
      <trkpt lat="38.110543470829725" lon="12.787931794300675">
        <ele>46.280000000000001</ele>
        <time>2017-09-21T10:31:54Z</time>
      </trkpt>
      <trkpt lat="38.110530227422714" lon="12.7879892103374">
        <ele>45.32</ele>
        <time>2017-09-21T10:32:03Z</time>
      </trkpt>
      <trkpt lat="38.110492927953601" lon="12.788066994398832">
        <ele>43.399999999999999</ele>
        <time>2017-09-21T10:32:15Z</time>
      </trkpt>
      <trkpt lat="38.110461579635739" lon="12.788151148706675">
        <ele>41.469999999999999</ele>
        <time>2017-09-21T10:32:28Z</time>
      </trkpt>
      <trkpt lat="38.110441882163286" lon="12.788232453167439">
        <ele>39.549999999999997</ele>
        <time>2017-09-21T10:32:39Z</time>
      </trkpt>
      <trkpt lat="38.110427297651768" lon="12.788270674645901">
        <ele>38.590000000000003</ele>
        <time>2017-09-21T10:32:44Z</time>
      </trkpt>
      <trkpt lat="38.110398883000016" lon="12.788311745971441">
        <ele>38.109999999999999</ele>
        <time>2017-09-21T10:32:49Z</time>
      </trkpt>
      <trkpt lat="38.110393937677145" lon="12.788361366838217">
        <ele>36.670000000000002</ele>
        <time>2017-09-21T10:32:53Z</time>
      </trkpt>
      <trkpt lat="38.110393099486828" lon="12.788460524752736">
        <ele>35.710000000000001</ele>
        <time>2017-09-21T10:33:04Z</time>
      </trkpt>
      <trkpt lat="38.110405001789331" lon="12.788592455908656">
        <ele>33.780000000000001</ele>
        <time>2017-09-21T10:33:17Z</time>
      </trkpt>
      <trkpt lat="38.110381364822388" lon="12.788704689592123">
        <ele>31.379999999999999</ele>
        <time>2017-09-21T10:33:31Z</time>
      </trkpt>
      <trkpt lat="38.110362254083157" lon="12.78882765211165">
        <ele>29.460000000000001</ele>
        <time>2017-09-21T10:33:43Z</time>
      </trkpt>
      <trkpt lat="38.110377676784992" lon="12.788936868309975">
        <ele>28.02</ele>
        <time>2017-09-21T10:33:54Z</time>
      </trkpt>
      <trkpt lat="38.110391506925225" lon="12.788984142243862">
        <ele>27.530000000000001</ele>
        <time>2017-09-21T10:33:58Z</time>
      </trkpt>
      <trkpt lat="38.110389914363623" lon="12.78900895267725">
        <ele>27.050000000000001</ele>
        <time>2017-09-21T10:34:00Z</time>
      </trkpt>
      <trkpt lat="38.110404163599014" lon="12.789080198854208">
        <ele>26.57</ele>
        <time>2017-09-21T10:34:05Z</time>
      </trkpt>
      <trkpt lat="38.110391842201352" lon="12.789211543276906">
        <ele>25.129999999999999</ele>
        <time>2017-09-21T10:34:17Z</time>
      </trkpt>
      <trkpt lat="38.110376503318548" lon="12.78933584690094">
        <ele>22.73</ele>
        <time>2017-09-21T10:34:29Z</time>
      </trkpt>
      <trkpt lat="38.110357727855444" lon="12.789460150524974">
        <ele>21.289999999999999</ele>
        <time>2017-09-21T10:34:39Z</time>
      </trkpt>
      <trkpt lat="38.110354542732239" lon="12.789568193256855">
        <ele>19.84</ele>
        <time>2017-09-21T10:34:50Z</time>
      </trkpt>
      <trkpt lat="38.110428052023053" lon="12.789565427228808">
        <ele>18.879999999999999</ele>
        <time>2017-09-21T10:35:00Z</time>
      </trkpt>
      <trkpt lat="38.110570460557938" lon="12.7895503398031">
        <ele>17.440000000000001</ele>
        <time>2017-09-21T10:35:14Z</time>
      </trkpt>
      <trkpt lat="38.110647825524211" lon="12.789526451379061">
        <ele>17.440000000000001</ele>
        <time>2017-09-21T10:35:27Z</time>
      </trkpt>
      <trkpt lat="38.110648663714528" lon="12.789578000083566">
        <ele>16.960000000000001</ele>
        <time>2017-09-21T10:35:40Z</time>
      </trkpt>
      <trkpt lat="38.11067758128047" lon="12.789578167721629">
        <ele>16.48</ele>
        <time>2017-09-21T10:35:49Z</time>
      </trkpt>
      <trkpt lat="38.11071764677763" lon="12.789586968719959">
        <ele>15.52</ele>
        <time>2017-09-21T10:35:59Z</time>
      </trkpt>
      <trkpt lat="38.110700882971287" lon="12.789599290117621">
        <ele>16</ele>
        <time>2017-09-21T10:36:09Z</time>
      </trkpt>
      <trkpt lat="38.110679676756263" lon="12.789621334522963">
        <ele>16</ele>
        <time>2017-09-21T10:36:17Z</time>
      </trkpt>
      <trkpt lat="38.110646065324545" lon="12.789627872407436">
        <ele>15.52</ele>
        <time>2017-09-21T10:36:24Z</time>
      </trkpt>
      <trkpt lat="38.110634414479136" lon="12.789636757224798">
        <ele>16</ele>
        <time>2017-09-21T10:36:32Z</time>
      </trkpt>
      <trkpt lat="38.110646149143577" lon="12.789637763053179">
        <ele>16</ele>
        <time>2017-09-21T10:36:46Z</time>
      </trkpt>
      <trkpt lat="38.110647825524211" lon="12.789624184370041">
        <ele>16</ele>
        <time>2017-09-21T10:36:52Z</time>
      </trkpt>
      <trkpt lat="38.110655536875129" lon="12.789612533524632">
        <ele>15.52</ele>
        <time>2017-09-21T10:37:01Z</time>
      </trkpt>
      <trkpt lat="38.110641622915864" lon="12.789611779153347">
        <ele>15.039999999999999</ele>
        <time>2017-09-21T10:37:09Z</time>
      </trkpt>
      <trkpt lat="38.110624691471457" lon="12.789625860750675">
        <ele>15.039999999999999</ele>
        <time>2017-09-21T10:37:42Z</time>
      </trkpt>
      <trkpt lat="38.110629050061107" lon="12.7896090131253">
        <ele>15.039999999999999</ele>
        <time>2017-09-21T10:38:04Z</time>
      </trkpt>
      <trkpt lat="38.110626703128219" lon="12.789610773324966">
        <ele>14.56</ele>
        <time>2017-09-21T10:38:16Z</time>
      </trkpt>
      <trkpt lat="38.110644808039069" lon="12.789597697556019">
        <ele>15.039999999999999</ele>
        <time>2017-09-21T10:38:42Z</time>
      </trkpt>
      <trkpt lat="38.110635252669454" lon="12.789589148014784">
        <ele>15.039999999999999</ele>
        <time>2017-09-21T10:39:00Z</time>
      </trkpt>
      <trkpt lat="38.110638186335564" lon="12.789584118872881">
        <ele>15.039999999999999</ele>
        <time>2017-09-21T10:39:29Z</time>
      </trkpt>
      <trkpt lat="38.110641539096832" lon="12.789573892951012">
        <ele>15.039999999999999</ele>
        <time>2017-09-21T10:39:57Z</time>
      </trkpt>
      <trkpt lat="38.11064681969583" lon="12.789596188813448">
        <ele>15.039999999999999</ele>
        <time>2017-09-21T10:40:25Z</time>
      </trkpt>
      <trkpt lat="38.110640197992325" lon="12.789601553231478">
        <ele>15.52</ele>
        <time>2017-09-21T10:40:50Z</time>
      </trkpt>
      <trkpt lat="38.110636426135898" lon="12.789607420563698">
        <ele>15.52</ele>
        <time>2017-09-21T10:41:11Z</time>
      </trkpt>
      <trkpt lat="38.110632905736566" lon="12.789601385593414">
        <ele>15.52</ele>
        <time>2017-09-21T10:41:32Z</time>
      </trkpt>
      <trkpt lat="38.110639192163944" lon="12.789567774161696">
        <ele>15.52</ele>
        <time>2017-09-21T10:41:50Z</time>
      </trkpt>
      <trkpt lat="38.110632821917534" lon="12.789611108601093">
        <ele>15.52</ele>
        <time>2017-09-21T10:42:07Z</time>
      </trkpt>
      <trkpt lat="38.110639024525881" lon="12.789620328694582">
        <ele>15.52</ele>
        <time>2017-09-21T10:42:30Z</time>
      </trkpt>
      <trkpt lat="38.110649669542909" lon="12.789600547403097">
        <ele>15.52</ele>
        <time>2017-09-21T10:42:57Z</time>
      </trkpt>
      <trkpt lat="38.110644640401006" lon="12.789614461362362">
        <ele>15.039999999999999</ele>
        <time>2017-09-21T10:43:22Z</time>
      </trkpt>
      <trkpt lat="38.110629385337234" lon="12.78959727846086">
        <ele>15.039999999999999</ele>
        <time>2017-09-21T10:43:48Z</time>
      </trkpt>
      <trkpt lat="38.110633743926883" lon="12.789590824395418">
        <ele>16</ele>
        <time>2017-09-21T10:44:23Z</time>
      </trkpt>
      <trkpt lat="38.110636090859771" lon="12.789601217955351">
        <ele>15.039999999999999</ele>
        <time>2017-09-21T10:44:52Z</time>
      </trkpt>
      <trkpt lat="38.110632319003344" lon="12.789591830223799">
        <ele>14.56</ele>
        <time>2017-09-21T10:45:21Z</time>
      </trkpt>
      <trkpt lat="38.110629133880138" lon="12.789601134136319">
        <ele>14.56</ele>
        <time>2017-09-21T10:45:49Z</time>
      </trkpt>
      <trkpt lat="38.110629552975297" lon="12.7896090131253">
        <ele>14.56</ele>
        <time>2017-09-21T10:46:23Z</time>
      </trkpt>
      <trkpt lat="38.110625026747584" lon="12.789610186591744">
        <ele>14.56</ele>
        <time>2017-09-21T10:46:50Z</time>
      </trkpt>
      <trkpt lat="38.110638102516532" lon="12.789607085287571">
        <ele>14.56</ele>
        <time>2017-09-21T10:47:14Z</time>
      </trkpt>
      <trkpt lat="38.110630223527551" lon="12.789586214348674">
        <ele>14.56</ele>
        <time>2017-09-21T10:47:36Z</time>
      </trkpt>
      <trkpt lat="38.110625948756933" lon="12.789605576545">
        <ele>14.08</ele>
        <time>2017-09-21T10:48:04Z</time>
      </trkpt>
      <trkpt lat="38.110627457499504" lon="12.789620580151677">
        <ele>14.08</ele>
        <time>2017-09-21T10:48:29Z</time>
      </trkpt>
      <trkpt lat="38.110627708956599" lon="12.789641199633479">
        <ele>14.08</ele>
        <time>2017-09-21T10:49:02Z</time>
      </trkpt>
      <trkpt lat="38.110633408650756" lon="12.789633488282561">
        <ele>14.08</ele>
        <time>2017-09-21T10:49:29Z</time>
      </trkpt>
      <trkpt lat="38.110629804432392" lon="12.789619909599423">
        <ele>14.08</ele>
        <time>2017-09-21T10:49:55Z</time>
      </trkpt>
      <trkpt lat="38.110629636794329" lon="12.78962753713131">
        <ele>16.48</ele>
        <time>2017-09-21T10:49:59Z</time>
      </trkpt>
      <trkpt lat="38.110632905736566" lon="12.789633236825466">
        <ele>13.6</ele>
        <time>2017-09-21T10:50:01Z</time>
      </trkpt>
      <trkpt lat="38.110639778897166" lon="12.789653856307268">
        <ele>14.08</ele>
        <time>2017-09-21T10:50:30Z</time>
      </trkpt>
      <trkpt lat="38.110631061717868" lon="12.789653353393078">
        <ele>14.08</ele>
        <time>2017-09-21T10:50:55Z</time>
      </trkpt>
      <trkpt lat="38.110614214092493" lon="12.789681265130639">
        <ele>14.08</ele>
        <time>2017-09-21T10:51:21Z</time>
      </trkpt>
      <trkpt lat="38.110652938485146" lon="12.789618903771043">
        <ele>13.6</ele>
        <time>2017-09-21T10:51:48Z</time>
      </trkpt>
      <trkpt lat="38.110624440014362" lon="12.789657963439822">
        <ele>14.08</ele>
        <time>2017-09-21T10:52:21Z</time>
      </trkpt>
      <trkpt lat="38.110640700906515" lon="12.78960314579308">
        <ele>13.6</ele>
        <time>2017-09-21T10:52:55Z</time>
      </trkpt>
      <trkpt lat="38.110618237406015" lon="12.789640109986067">
        <ele>14.08</ele>
        <time>2017-09-21T10:53:31Z</time>
      </trkpt>
      <trkpt lat="38.110619159415364" lon="12.789644217118621">
        <ele>13.6</ele>
        <time>2017-09-21T10:54:02Z</time>
      </trkpt>
      <trkpt lat="38.110621841624379" lon="12.789675565436482">
        <ele>14.08</ele>
        <time>2017-09-21T10:54:30Z</time>
      </trkpt>
      <trkpt lat="38.110648663714528" lon="12.789626950398088">
        <ele>14.08</ele>
        <time>2017-09-21T10:55:04Z</time>
      </trkpt>
      <trkpt lat="38.110621925443411" lon="12.789658131077886">
        <ele>13.6</ele>
        <time>2017-09-21T10:55:32Z</time>
      </trkpt>
      <trkpt lat="38.110644221305847" lon="12.789624268189073">
        <ele>14.08</ele>
        <time>2017-09-21T10:56:08Z</time>
      </trkpt>
      <trkpt lat="38.110622009262443" lon="12.789652179926634">
        <ele>14.08</ele>
        <time>2017-09-21T10:56:44Z</time>
      </trkpt>
      <trkpt lat="38.110624691471457" lon="12.789656622335315">
        <ele>14.08</ele>
        <time>2017-09-21T10:57:20Z</time>
      </trkpt>
      <trkpt lat="38.110634917393327" lon="12.789675984531641">
        <ele>14.08</ele>
        <time>2017-09-21T10:57:55Z</time>
      </trkpt>
      <trkpt lat="38.110644891858101" lon="12.789620328694582">
        <ele>14.08</ele>
        <time>2017-09-21T10:58:29Z</time>
      </trkpt>
      <trkpt lat="38.11061161570251" lon="12.789686126634479">
        <ele>14.08</ele>
        <time>2017-09-21T10:59:02Z</time>
      </trkpt>
      <trkpt lat="38.110634163022041" lon="12.789635919034481">
        <ele>14.08</ele>
        <time>2017-09-21T10:59:31Z</time>
      </trkpt>
      <trkpt lat="38.110640533268452" lon="12.789640026167035">
        <ele>14.08</ele>
        <time>2017-09-21T11:00:00Z</time>
      </trkpt>
      <trkpt lat="38.110631061717868" lon="12.789638433605433">
        <ele>14.56</ele>
        <time>2017-09-21T11:00:34Z</time>
      </trkpt>
      <trkpt lat="38.110623518005013" lon="12.789664249867201">
        <ele>14.08</ele>
        <time>2017-09-21T11:01:08Z</time>
      </trkpt>
      <trkpt lat="38.110649334266782" lon="12.789632566273212">
        <ele>14.08</ele>
        <time>2017-09-21T11:01:39Z</time>
      </trkpt>
      <trkpt lat="38.110620500519872" lon="12.789674559608102">
        <ele>14.08</ele>
        <time>2017-09-21T11:02:11Z</time>
      </trkpt>
      <trkpt lat="38.110630307346582" lon="12.789633153006434">
        <ele>14.08</ele>
        <time>2017-09-21T11:02:42Z</time>
      </trkpt>
      <trkpt lat="38.110628463327885" lon="12.789652263745666">
        <ele>14.08</ele>
        <time>2017-09-21T11:03:16Z</time>
      </trkpt>
      <trkpt lat="38.110629301518202" lon="12.789648408070207">
        <ele>14.08</ele>
        <time>2017-09-21T11:03:49Z</time>
      </trkpt>
      <trkpt lat="38.110622512176633" lon="12.789660645648837">
        <ele>14.08</ele>
        <time>2017-09-21T11:04:25Z</time>
      </trkpt>
      <trkpt lat="38.110625529661775" lon="12.789664752781391">
        <ele>13.6</ele>
        <time>2017-09-21T11:04:53Z</time>
      </trkpt>
      <trkpt lat="38.110632821917534" lon="12.789660729467869">
        <ele>13.6</ele>
        <time>2017-09-21T11:05:25Z</time>
      </trkpt>
      <trkpt lat="38.11062041670084" lon="12.789669614285231">
        <ele>13.6</ele>
        <time>2017-09-21T11:05:58Z</time>
      </trkpt>
      <trkpt lat="38.110642293468118" lon="12.789627788588405">
        <ele>13.6</ele>
        <time>2017-09-21T11:06:30Z</time>
      </trkpt>
      <trkpt lat="38.110629385337234" lon="12.789656035602093">
        <ele>13.6</ele>
        <time>2017-09-21T11:07:02Z</time>
      </trkpt>
      <trkpt lat="38.110628798604012" lon="12.789627118036151">
        <ele>13.6</ele>
        <time>2017-09-21T11:07:28Z</time>
      </trkpt>
      <trkpt lat="38.1106311455369" lon="12.789632147178054">
        <ele>13.6</ele>
        <time>2017-09-21T11:07:59Z</time>
      </trkpt>
      <trkpt lat="38.110625026747584" lon="12.789639020338655">
        <ele>13.6</ele>
        <time>2017-09-21T11:08:26Z</time>
      </trkpt>
      <trkpt lat="38.110628882423043" lon="12.789636589586735">
        <ele>13.6</ele>
        <time>2017-09-21T11:08:55Z</time>
      </trkpt>
      <trkpt lat="38.110607424750924" lon="12.789628291502595">
        <ele>13.6</ele>
        <time>2017-09-21T11:09:19Z</time>
      </trkpt>
      <trkpt lat="38.110631564632058" lon="12.789623010903597">
        <ele>13.6</ele>
        <time>2017-09-21T11:09:44Z</time>
      </trkpt>
      <trkpt lat="38.110624859109521" lon="12.789606750011444">
        <ele>13.119999999999999</ele>
        <time>2017-09-21T11:10:13Z</time>
      </trkpt>
      <trkpt lat="38.110641036182642" lon="12.789620580151677">
        <ele>14.08</ele>
        <time>2017-09-21T11:10:39Z</time>
      </trkpt>
      <trkpt lat="38.110644388943911" lon="12.789607755839825">
        <ele>13.119999999999999</ele>
        <time>2017-09-21T11:11:11Z</time>
      </trkpt>
      <trkpt lat="38.110633073374629" lon="12.789627956226468">
        <ele>13.119999999999999</ele>
        <time>2017-09-21T11:11:39Z</time>
      </trkpt>
      <trkpt lat="38.11063215136528" lon="12.789626196026802">
        <ele>13.119999999999999</ele>
        <time>2017-09-21T11:11:57Z</time>
      </trkpt>
      <trkpt lat="38.110633576288819" lon="12.789644720032811">
        <ele>13.119999999999999</ele>
        <time>2017-09-21T11:12:15Z</time>
      </trkpt>
      <trkpt lat="38.110636677592993" lon="12.789640529081225">
        <ele>13.119999999999999</ele>
        <time>2017-09-21T11:12:43Z</time>
      </trkpt>
      <trkpt lat="38.110628966242075" lon="12.789637511596084">
        <ele>13.119999999999999</ele>
        <time>2017-09-21T11:13:11Z</time>
      </trkpt>
      <trkpt lat="38.110633995383978" lon="12.78962560929358">
        <ele>12.630000000000001</ele>
        <time>2017-09-21T11:13:34Z</time>
      </trkpt>
      <trkpt lat="38.110633827745914" lon="12.789628291502595">
        <ele>12.630000000000001</ele>
        <time>2017-09-21T11:14:04Z</time>
      </trkpt>
      <trkpt lat="38.110638605430722" lon="12.78962510637939">
        <ele>12.630000000000001</ele>
        <time>2017-09-21T11:14:27Z</time>
      </trkpt>
      <trkpt lat="38.110637096688151" lon="12.789620747789741">
        <ele>12.630000000000001</ele>
        <time>2017-09-21T11:14:39Z</time>
      </trkpt>
      <trkpt lat="38.110637767240405" lon="12.789615718647838">
        <ele>12.630000000000001</ele>
        <time>2017-09-21T11:15:04Z</time>
      </trkpt>
      <trkpt lat="38.110639275982976" lon="12.789620496332645">
        <ele>12.630000000000001</ele>
        <time>2017-09-21T11:15:26Z</time>
      </trkpt>
      <trkpt lat="38.1106380186975" lon="12.789630554616451">
        <ele>12.630000000000001</ele>
        <time>2017-09-21T11:15:40Z</time>
      </trkpt>
      <trkpt lat="38.110634833574295" lon="12.789627201855183">
        <ele>12.630000000000001</ele>
        <time>2017-09-21T11:15:59Z</time>
      </trkpt>
      <trkpt lat="38.11063701286912" lon="12.789628962054849">
        <ele>12.630000000000001</ele>
        <time>2017-09-21T11:16:21Z</time>
      </trkpt>
      <trkpt lat="38.110640617087483" lon="12.789626531302929">
        <ele>12.630000000000001</ele>
        <time>2017-09-21T11:16:45Z</time>
      </trkpt>
      <trkpt lat="38.110635671764612" lon="12.789622088894248">
        <ele>12.15</ele>
        <time>2017-09-21T11:17:12Z</time>
      </trkpt>
      <trkpt lat="38.110639695078135" lon="12.789614461362362">
        <ele>12.630000000000001</ele>
        <time>2017-09-21T11:17:35Z</time>
      </trkpt>
      <trkpt lat="38.110632486641407" lon="12.789611695334315">
        <ele>12.15</ele>
        <time>2017-09-21T11:18:04Z</time>
      </trkpt>
      <trkpt lat="38.110631229355931" lon="12.789612449705601">
        <ele>12.15</ele>
        <time>2017-09-21T11:18:19Z</time>
      </trkpt>
      <trkpt lat="38.110638856887817" lon="12.789613790810108">
        <ele>12.15</ele>
        <time>2017-09-21T11:18:43Z</time>
      </trkpt>
      <trkpt lat="38.110643634572625" lon="12.789601972326636">
        <ele>12.15</ele>
        <time>2017-09-21T11:19:15Z</time>
      </trkpt>
      <trkpt lat="38.110643550753593" lon="12.789619406685233">
        <ele>12.15</ele>
        <time>2017-09-21T11:19:38Z</time>
      </trkpt>
      <trkpt lat="38.11063751578331" lon="12.789607839658856">
        <ele>12.15</ele>
        <time>2017-09-21T11:20:14Z</time>
      </trkpt>
      <trkpt lat="38.110632235184312" lon="12.789613958448172">
        <ele>12.15</ele>
        <time>2017-09-21T11:20:36Z</time>
      </trkpt>
      <trkpt lat="38.110637599602342" lon="12.789612282067537">
        <ele>12.15</ele>
        <time>2017-09-21T11:21:00Z</time>
      </trkpt>
      <trkpt lat="38.110633827745914" lon="12.789601888507605">
        <ele>12.15</ele>
        <time>2017-09-21T11:21:20Z</time>
      </trkpt>
      <trkpt lat="38.110632235184312" lon="12.789606750011444">
        <ele>12.15</ele>
        <time>2017-09-21T11:21:42Z</time>
      </trkpt>
      <trkpt lat="38.110628044232726" lon="12.789616724476218">
        <ele>12.15</ele>
        <time>2017-09-21T11:22:05Z</time>
      </trkpt>
      <trkpt lat="38.11063994653523" lon="12.789611527696252">
        <ele>12.15</ele>
        <time>2017-09-21T11:22:28Z</time>
      </trkpt>
      <trkpt lat="38.110634414479136" lon="12.789618987590075">
        <ele>12.15</ele>
        <time>2017-09-21T11:22:55Z</time>
      </trkpt>
      <trkpt lat="38.110640617087483" lon="12.789623513817787">
        <ele>12.15</ele>
        <time>2017-09-21T11:23:15Z</time>
      </trkpt>
      <trkpt lat="38.110642461106181" lon="12.789617814123631">
        <ele>11.67</ele>
        <time>2017-09-21T11:23:31Z</time>
      </trkpt>
      <trkpt lat="38.110639862716198" lon="12.789618736132979">
        <ele>11.67</ele>
        <time>2017-09-21T11:23:54Z</time>
      </trkpt>
      <trkpt lat="38.110634163022041" lon="12.78962317854166">
        <ele>11.67</ele>
        <time>2017-09-21T11:24:09Z</time>
      </trkpt>
      <trkpt lat="38.110630726441741" lon="12.789624771103263">
        <ele>11.67</ele>
        <time>2017-09-21T11:24:34Z</time>
      </trkpt>
      <trkpt lat="38.110625864937901" lon="12.789620831608772">
        <ele>11.67</ele>
        <time>2017-09-21T11:24:54Z</time>
      </trkpt>
      <trkpt lat="38.110631480813026" lon="12.789615467190742">
        <ele>11.67</ele>
        <time>2017-09-21T11:25:16Z</time>
      </trkpt>
      <trkpt lat="38.110636174678802" lon="12.789617059752345">
        <ele>11.67</ele>
        <time>2017-09-21T11:25:36Z</time>
      </trkpt>
      <trkpt lat="38.110629469156265" lon="12.789615048095584">
        <ele>11.67</ele>
        <time>2017-09-21T11:25:52Z</time>
      </trkpt>
      <trkpt lat="38.110641203820705" lon="12.789615467190742">
        <ele>11.67</ele>
        <time>2017-09-21T11:26:16Z</time>
      </trkpt>
      <trkpt lat="38.110643131658435" lon="12.789619909599423">
        <ele>11.67</ele>
        <time>2017-09-21T11:26:47Z</time>
      </trkpt>
      <trkpt lat="38.110646232962608" lon="12.789625525474548">
        <ele>11.67</ele>
        <time>2017-09-21T11:27:12Z</time>
      </trkpt>
      <trkpt lat="38.110644808039069" lon="12.789627956226468">
        <ele>11.67</ele>
        <time>2017-09-21T11:27:31Z</time>
      </trkpt>
      <trkpt lat="38.110640197992325" lon="12.789625860750675">
        <ele>11.67</ele>
        <time>2017-09-21T11:27:57Z</time>
      </trkpt>
      <trkpt lat="38.110642712563276" lon="12.789632650092244">
        <ele>11.67</ele>
        <time>2017-09-21T11:28:21Z</time>
      </trkpt>
      <trkpt lat="38.110655955970287" lon="12.789626615121961">
        <ele>11.19</ele>
        <time>2017-09-21T11:28:37Z</time>
      </trkpt>
      <trkpt lat="38.110650256276131" lon="12.789635499939322">
        <ele>11.67</ele>
        <time>2017-09-21T11:28:57Z</time>
      </trkpt>
      <trkpt lat="38.110639778897166" lon="12.789645558223128">
        <ele>11.67</ele>
        <time>2017-09-21T11:29:20Z</time>
      </trkpt>
      <trkpt lat="38.110630055889487" lon="12.78964907862246">
        <ele>11.67</ele>
        <time>2017-09-21T11:29:38Z</time>
      </trkpt>
      <trkpt lat="38.110630726441741" lon="12.789664585143328">
        <ele>11.67</ele>
        <time>2017-09-21T11:30:02Z</time>
      </trkpt>
      <trkpt lat="38.110640700906515" lon="12.789691658690572">
        <ele>11.67</ele>
        <time>2017-09-21T11:30:25Z</time>
      </trkpt>
      <trkpt lat="38.110639611259103" lon="12.789710434153676">
        <ele>12.15</ele>
        <time>2017-09-21T11:30:53Z</time>
      </trkpt>
      <trkpt lat="38.110645310953259" lon="12.789705656468868">
        <ele>12.15</ele>
        <time>2017-09-21T11:31:11Z</time>
      </trkpt>
      <trkpt lat="38.110641371458769" lon="12.78971403837204">
        <ele>12.630000000000001</ele>
        <time>2017-09-21T11:31:35Z</time>
      </trkpt>
      <trkpt lat="38.110648496076465" lon="12.789702471345663">
        <ele>12.630000000000001</ele>
        <time>2017-09-21T11:31:58Z</time>
      </trkpt>
      <trkpt lat="38.110648496076465" lon="12.789702471345663">
        <ele>13.119999999999999</ele>
        <time>2017-09-21T11:32:27Z</time>
      </trkpt>
      <trkpt lat="38.110648160800338" lon="12.789700208231807">
        <ele>13.119999999999999</ele>
        <time>2017-09-21T11:32:46Z</time>
      </trkpt>
      <trkpt lat="38.110649418085814" lon="12.789693837985396">
        <ele>13.119999999999999</ele>
        <time>2017-09-21T11:33:06Z</time>
      </trkpt>
      <trkpt lat="38.110653106123209" lon="12.789690569043159">
        <ele>13.119999999999999</ele>
        <time>2017-09-21T11:33:24Z</time>
      </trkpt>
      <trkpt lat="38.110649334266782" lon="12.789683109149337">
        <ele>13.119999999999999</ele>
        <time>2017-09-21T11:33:41Z</time>
      </trkpt>
      <trkpt lat="38.110655955970287" lon="12.789645474404097">
        <ele>13.119999999999999</ele>
        <time>2017-09-21T11:34:04Z</time>
      </trkpt>
      <trkpt lat="38.11065562069416" lon="12.789660813286901">
        <ele>13.119999999999999</ele>
        <time>2017-09-21T11:34:31Z</time>
      </trkpt>
      <trkpt lat="38.110655955970287" lon="12.789654694497585">
        <ele>13.119999999999999</ele>
        <time>2017-09-21T11:34:58Z</time>
      </trkpt>
      <trkpt lat="38.110664840787649" lon="12.789678331464529">
        <ele>13.119999999999999</ele>
        <time>2017-09-21T11:35:24Z</time>
      </trkpt>
      <trkpt lat="38.11065511777997" lon="12.789664752781391">
        <ele>13.119999999999999</ele>
        <time>2017-09-21T11:35:46Z</time>
      </trkpt>
      <trkpt lat="38.110656794160604" lon="12.789653521031141">
        <ele>13.119999999999999</ele>
        <time>2017-09-21T11:36:11Z</time>
      </trkpt>
      <trkpt lat="38.110648831352592" lon="12.789612701162696">
        <ele>13.119999999999999</ele>
        <time>2017-09-21T11:36:34Z</time>
      </trkpt>
      <trkpt lat="38.110644808039069" lon="12.78960607945919">
        <ele>13.119999999999999</ele>
        <time>2017-09-21T11:36:57Z</time>
      </trkpt>
      <trkpt lat="38.110651345923543" lon="12.789624435827136">
        <ele>13.119999999999999</ele>
        <time>2017-09-21T11:37:20Z</time>
      </trkpt>
      <trkpt lat="38.110645310953259" lon="12.78961731120944">
        <ele>12.630000000000001</ele>
        <time>2017-09-21T11:37:37Z</time>
      </trkpt>
      <trkpt lat="38.110670121386647" lon="12.789636421948671">
        <ele>13.119999999999999</ele>
        <time>2017-09-21T11:38:00Z</time>
      </trkpt>
      <trkpt lat="38.11066878028214" lon="12.789651257917285">
        <ele>12.630000000000001</ele>
        <time>2017-09-21T11:38:23Z</time>
      </trkpt>
      <trkpt lat="38.110655369237065" lon="12.789640780538321">
        <ele>13.119999999999999</ele>
        <time>2017-09-21T11:38:45Z</time>
      </trkpt>
      <trkpt lat="38.110663667321205" lon="12.789649246260524">
        <ele>12.630000000000001</ele>
        <time>2017-09-21T11:39:15Z</time>
      </trkpt>
      <trkpt lat="38.110666684806347" lon="12.789648659527302">
        <ele>13.119999999999999</ele>
        <time>2017-09-21T11:39:39Z</time>
      </trkpt>
      <trkpt lat="38.110659727826715" lon="12.789637092500925">
        <ele>13.119999999999999</ele>
        <time>2017-09-21T11:40:08Z</time>
      </trkpt>
      <trkpt lat="38.110659644007683" lon="12.789637679234147">
        <ele>13.119999999999999</ele>
        <time>2017-09-21T11:40:37Z</time>
      </trkpt>
      <trkpt lat="38.110646735876799" lon="12.789645893499255">
        <ele>13.119999999999999</ele>
        <time>2017-09-21T11:41:04Z</time>
      </trkpt>
      <trkpt lat="38.110641036182642" lon="12.789620412513614">
        <ele>12.630000000000001</ele>
        <time>2017-09-21T11:41:29Z</time>
      </trkpt>
      <trkpt lat="38.110646149143577" lon="12.78962611220777">
        <ele>13.119999999999999</ele>
        <time>2017-09-21T11:41:48Z</time>
      </trkpt>
      <trkpt lat="38.110652770847082" lon="12.789632566273212">
        <ele>13.119999999999999</ele>
        <time>2017-09-21T11:42:11Z</time>
      </trkpt>
      <trkpt lat="38.110653189942241" lon="12.789632230997086">
        <ele>13.119999999999999</ele>
        <time>2017-09-21T11:42:29Z</time>
      </trkpt>
      <trkpt lat="38.110637934878469" lon="12.789634326472878">
        <ele>13.119999999999999</ele>
        <time>2017-09-21T11:42:53Z</time>
      </trkpt>
      <trkpt lat="38.110645646229386" lon="12.789619155228138">
        <ele>12.630000000000001</ele>
        <time>2017-09-21T11:43:16Z</time>
      </trkpt>
      <trkpt lat="38.11064044944942" lon="12.789618065580726">
        <ele>13.119999999999999</ele>
        <time>2017-09-21T11:43:30Z</time>
      </trkpt>
      <trkpt lat="38.110642544925213" lon="12.789639187976718">
        <ele>13.119999999999999</ele>
        <time>2017-09-21T11:43:44Z</time>
      </trkpt>
      <trkpt lat="38.110643466934562" lon="12.789630386978388">
        <ele>13.119999999999999</ele>
        <time>2017-09-21T11:44:09Z</time>
      </trkpt>
      <trkpt lat="38.110634246841073" lon="12.789632566273212">
        <ele>12.630000000000001</ele>
        <time>2017-09-21T11:44:43Z</time>
      </trkpt>
      <trkpt lat="38.110638773068786" lon="12.789624435827136">
        <ele>12.630000000000001</ele>
        <time>2017-09-21T11:45:13Z</time>
      </trkpt>
      <trkpt lat="38.110643047839403" lon="12.789633572101593">
        <ele>12.630000000000001</ele>
        <time>2017-09-21T11:45:41Z</time>
      </trkpt>
      <trkpt lat="38.110650591552258" lon="12.789622340351343">
        <ele>12.15</ele>
        <time>2017-09-21T11:46:10Z</time>
      </trkpt>
      <trkpt lat="38.110647238790989" lon="12.789624268189073">
        <ele>12.630000000000001</ele>
        <time>2017-09-21T11:46:27Z</time>
      </trkpt>
      <trkpt lat="38.11064874753356" lon="12.789614796638489">
        <ele>12.15</ele>
        <time>2017-09-21T11:46:52Z</time>
      </trkpt>
      <trkpt lat="38.110657380893826" lon="12.789617395028472">
        <ele>12.15</ele>
        <time>2017-09-21T11:47:24Z</time>
      </trkpt>
      <trkpt lat="38.110656291246414" lon="12.789620915427804">
        <ele>8.789999999999999</ele>
        <time>2017-09-21T11:47:32Z</time>
      </trkpt>
      <trkpt lat="38.110655704513192" lon="12.789614964276552">
        <ele>15.52</ele>
        <time>2017-09-21T11:47:33Z</time>
      </trkpt>
      <trkpt lat="38.110648579895496" lon="12.789611192420125">
        <ele>12.15</ele>
        <time>2017-09-21T11:47:35Z</time>
      </trkpt>
      <trkpt lat="38.110646065324545" lon="12.789611527696252">
        <ele>12.15</ele>
        <time>2017-09-21T11:47:36Z</time>
      </trkpt>
      <trkpt lat="38.110632486641407" lon="12.789627201855183">
        <ele>11.67</ele>
        <time>2017-09-21T11:47:49Z</time>
      </trkpt>
      <trkpt lat="38.11063994653523" lon="12.789630554616451">
        <ele>11.67</ele>
        <time>2017-09-21T11:48:08Z</time>
      </trkpt>
      <trkpt lat="38.110626367852092" lon="12.789626279845834">
        <ele>11.67</ele>
        <time>2017-09-21T11:48:27Z</time>
      </trkpt>
      <trkpt lat="38.110637348145247" lon="12.789612365886569">
        <ele>11.67</ele>
        <time>2017-09-21T11:48:42Z</time>
      </trkpt>
      <trkpt lat="38.110635168850422" lon="12.789604486897588">
        <ele>11.67</ele>
        <time>2017-09-21T11:49:19Z</time>
      </trkpt>
      <trkpt lat="38.11064631678164" lon="12.78959727846086">
        <ele>11.67</ele>
        <time>2017-09-21T11:49:46Z</time>
      </trkpt>
      <trkpt lat="38.110647657886147" lon="12.789612952619791">
        <ele>11.67</ele>
        <time>2017-09-21T11:50:01Z</time>
      </trkpt>
      <trkpt lat="38.11064975336194" lon="12.78962510637939">
        <ele>11.19</ele>
        <time>2017-09-21T11:50:22Z</time>
      </trkpt>
      <trkpt lat="38.110646903514862" lon="12.789625190198421">
        <ele>11.67</ele>
        <time>2017-09-21T11:50:42Z</time>
      </trkpt>
      <trkpt lat="38.110637264326215" lon="12.789605408906937">
        <ele>11.67</ele>
        <time>2017-09-21T11:51:01Z</time>
      </trkpt>
      <trkpt lat="38.110643215477467" lon="12.789584118872881">
        <ele>11.67</ele>
        <time>2017-09-21T11:51:25Z</time>
      </trkpt>
      <trkpt lat="38.1106380186975" lon="12.78959970921278">
        <ele>12.15</ele>
        <time>2017-09-21T11:51:41Z</time>
      </trkpt>
      <trkpt lat="38.110639611259103" lon="12.789609264582396">
        <ele>12.630000000000001</ele>
        <time>2017-09-21T11:51:48Z</time>
      </trkpt>
      <trkpt lat="38.110633827745914" lon="12.789602475240827">
        <ele>12.630000000000001</ele>
        <time>2017-09-21T11:52:00Z</time>
      </trkpt>
      <trkpt lat="38.110636761412024" lon="12.789586717262864">
        <ele>12.630000000000001</ele>
        <time>2017-09-21T11:52:15Z</time>
      </trkpt>
      <trkpt lat="38.110643466934562" lon="12.789557380601764">
        <ele>11.67</ele>
        <time>2017-09-21T11:52:43Z</time>
      </trkpt>
      <trkpt lat="38.11063265427947" lon="12.789561487734318">
        <ele>14.08</ele>
        <time>2017-09-21T11:53:05Z</time>
      </trkpt>
      <trkpt lat="38.110619494691491" lon="12.789522092789412">
        <ele>13.6</ele>
        <time>2017-09-21T11:53:13Z</time>
      </trkpt>
      <trkpt lat="38.110696189105511" lon="12.789492337033153">
        <ele>13.6</ele>
        <time>2017-09-21T11:53:25Z</time>
      </trkpt>
      <trkpt lat="38.110766848549247" lon="12.789496695622802">
        <ele>13.6</ele>
        <time>2017-09-21T11:53:35Z</time>
      </trkpt>
      <trkpt lat="38.110833149403334" lon="12.789486302062869">
        <ele>12.630000000000001</ele>
        <time>2017-09-21T11:53:47Z</time>
      </trkpt>
      <trkpt lat="38.110872628167272" lon="12.789465934038162">
        <ele>13.119999999999999</ele>
        <time>2017-09-21T11:53:57Z</time>
      </trkpt>
      <trkpt lat="38.110878579318523" lon="12.789474315941334">
        <ele>13.6</ele>
        <time>2017-09-21T11:54:07Z</time>
      </trkpt>
      <trkpt lat="38.110901964828372" lon="12.789497030898929">
        <ele>14.08</ele>
        <time>2017-09-21T11:54:20Z</time>
      </trkpt>
      <trkpt lat="38.110907329246402" lon="12.78949124738574">
        <ele>13.6</ele>
        <time>2017-09-21T11:54:40Z</time>
      </trkpt>
      <trkpt lat="38.110905569046736" lon="12.789495689794421">
        <ele>14.08</ele>
        <time>2017-09-21T11:54:52Z</time>
      </trkpt>
      <trkpt lat="38.110904227942228" lon="12.789504323154688">
        <ele>13.6</ele>
        <time>2017-09-21T11:55:10Z</time>
      </trkpt>
      <trkpt lat="38.110918560996652" lon="12.789506502449512">
        <ele>13.6</ele>
        <time>2017-09-21T11:55:27Z</time>
      </trkpt>
      <trkpt lat="38.110990393906832" lon="12.789508597925305">
        <ele>14.08</ele>
        <time>2017-09-21T11:55:39Z</time>
      </trkpt>
      <trkpt lat="38.111013192683458" lon="12.789525529369712">
        <ele>14.08</ele>
        <time>2017-09-21T11:55:56Z</time>
      </trkpt>
      <trkpt lat="38.111042696982622" lon="12.789506502449512">
        <ele>15.039999999999999</ele>
        <time>2017-09-21T11:56:08Z</time>
      </trkpt>
      <trkpt lat="38.111100951209664" lon="12.78951957821846">
        <ele>14.08</ele>
        <time>2017-09-21T11:56:18Z</time>
      </trkpt>
      <trkpt lat="38.111156523227692" lon="12.789547322317958">
        <ele>14.08</ele>
        <time>2017-09-21T11:56:26Z</time>
      </trkpt>
      <trkpt lat="38.111234726384282" lon="12.789613539353013">
        <ele>14.56</ele>
        <time>2017-09-21T11:56:37Z</time>
      </trkpt>
      <trkpt lat="38.111271187663078" lon="12.789666512981057">
        <ele>13.6</ele>
        <time>2017-09-21T11:56:47Z</time>
      </trkpt>
      <trkpt lat="38.111333297565579" lon="12.789650922641158">
        <ele>13.119999999999999</ele>
        <time>2017-09-21T11:57:00Z</time>
      </trkpt>
      <trkpt lat="38.111349726095796" lon="12.789666764438152">
        <ele>13.119999999999999</ele>
        <time>2017-09-21T11:57:03Z</time>
      </trkpt>
      <trkpt lat="38.111430946737528" lon="12.789670620113611">
        <ele>12.630000000000001</ele>
        <time>2017-09-21T11:57:12Z</time>
      </trkpt>
      <trkpt lat="38.111522393301129" lon="12.789669362828135">
        <ele>14.08</ele>
        <time>2017-09-21T11:57:23Z</time>
      </trkpt>
      <trkpt lat="38.111565476283431" lon="12.789686797186732">
        <ele>14.08</ele>
        <time>2017-09-21T11:57:33Z</time>
      </trkpt>
      <trkpt lat="38.111571427434683" lon="12.789696855470538">
        <ele>13.6</ele>
        <time>2017-09-21T11:57:46Z</time>
      </trkpt>
      <trkpt lat="38.111569583415985" lon="12.789677157998085">
        <ele>13.6</ele>
        <time>2017-09-21T11:58:05Z</time>
      </trkpt>
      <trkpt lat="38.111560279503465" lon="12.789665507152677">
        <ele>13.6</ele>
        <time>2017-09-21T11:58:15Z</time>
      </trkpt>
      <trkpt lat="38.111573774367571" lon="12.789676319807768">
        <ele>13.119999999999999</ele>
        <time>2017-09-21T11:58:31Z</time>
      </trkpt>
      <trkpt lat="38.111570086330175" lon="12.789671877399087">
        <ele>13.6</ele>
        <time>2017-09-21T11:58:46Z</time>
      </trkpt>
      <trkpt lat="38.111641416326165" lon="12.789660142734647">
        <ele>14.08</ele>
        <time>2017-09-21T11:58:57Z</time>
      </trkpt>
      <trkpt lat="38.111650301143527" lon="12.789666093885899">
        <ele>13.6</ele>
        <time>2017-09-21T11:58:58Z</time>
      </trkpt>
      <trkpt lat="38.111684834584594" lon="12.789695598185062">
        <ele>13.6</ele>
        <time>2017-09-21T11:59:02Z</time>
      </trkpt>
      <trkpt lat="38.111736383289099" lon="12.789744045585394">
        <ele>13.119999999999999</ele>
        <time>2017-09-21T11:59:12Z</time>
      </trkpt>
      <trkpt lat="38.111828332766891" lon="12.789784278720617">
        <ele>12.630000000000001</ele>
        <time>2017-09-21T11:59:24Z</time>
      </trkpt>
      <trkpt lat="38.111814251169562" lon="12.789789559319615">
        <ele>12.630000000000001</ele>
        <time>2017-09-21T11:59:38Z</time>
      </trkpt>
      <trkpt lat="38.111859932541847" lon="12.789792744442821">
        <ele>13.119999999999999</ele>
        <time>2017-09-21T11:59:48Z</time>
      </trkpt>
      <trkpt lat="38.111929502338171" lon="12.789817554876208">
        <ele>12.630000000000001</ele>
        <time>2017-09-21T11:59:58Z</time>
      </trkpt>
      <trkpt lat="38.111938051879406" lon="12.789818225428462">
        <ele>13.119999999999999</ele>
        <time>2017-09-21T11:59:59Z</time>
      </trkpt>
      <trkpt lat="38.112064283341169" lon="12.789851166307926">
        <ele>13.6</ele>
        <time>2017-09-21T12:00:12Z</time>
      </trkpt>
      <trkpt lat="38.112201830372214" lon="12.789902463555336">
        <ele>14.08</ele>
        <time>2017-09-21T12:00:26Z</time>
      </trkpt>
      <trkpt lat="38.112321523949504" lon="12.789910677820444">
        <ele>14.56</ele>
        <time>2017-09-21T12:00:39Z</time>
      </trkpt>
      <trkpt lat="38.112380281090736" lon="12.789921658113599">
        <ele>15.52</ele>
        <time>2017-09-21T12:00:46Z</time>
      </trkpt>
      <trkpt lat="38.112502153962851" lon="12.789938589558005">
        <ele>16</ele>
        <time>2017-09-21T12:00:58Z</time>
      </trkpt>
      <trkpt lat="38.112544817849994" lon="12.789910594001412">
        <ele>15.52</ele>
        <time>2017-09-21T12:01:02Z</time>
      </trkpt>
      <trkpt lat="38.112596031278372" lon="12.78989190235734">
        <ele>17.440000000000001</ele>
        <time>2017-09-21T12:01:09Z</time>
      </trkpt>
      <trkpt lat="38.112647412344813" lon="12.789789559319615">
        <ele>15.52</ele>
        <time>2017-09-21T12:01:19Z</time>
      </trkpt>
      <trkpt lat="38.112692506983876" lon="12.789789475500584">
        <ele>15.039999999999999</ele>
        <time>2017-09-21T12:01:23Z</time>
      </trkpt>
      <trkpt lat="38.112735338509083" lon="12.789827361702919">
        <ele>15.52</ele>
        <time>2017-09-21T12:01:28Z</time>
      </trkpt>
      <trkpt lat="38.112755455076694" lon="12.789835324510932">
        <ele>16</ele>
        <time>2017-09-21T12:01:30Z</time>
      </trkpt>
      <trkpt lat="38.112768027931452" lon="12.789858290925622">
        <ele>16</ele>
        <time>2017-09-21T12:01:32Z</time>
      </trkpt>
      <trkpt lat="38.11279627494514" lon="12.790002962574363">
        <ele>14.56</ele>
        <time>2017-09-21T12:01:44Z</time>
      </trkpt>
      <trkpt lat="38.11288520693779" lon="12.790032718330622">
        <ele>14.56</ele>
        <time>2017-09-21T12:01:54Z</time>
      </trkpt>
      <trkpt lat="38.113014288246632" lon="12.790079740807414">
        <ele>13.6</ele>
        <time>2017-09-21T12:02:06Z</time>
      </trkpt>
      <trkpt lat="38.113122917711735" lon="12.790065910667181">
        <ele>14.56</ele>
        <time>2017-09-21T12:02:18Z</time>
      </trkpt>
      <trkpt lat="38.113267086446285" lon="12.790137408301234">
        <ele>14.56</ele>
        <time>2017-09-21T12:02:31Z</time>
      </trkpt>
      <trkpt lat="38.113311594352126" lon="12.790169259533286">
        <ele>13.6</ele>
        <time>2017-09-21T12:02:36Z</time>
      </trkpt>
      <trkpt lat="38.113434053957462" lon="12.790252156555653">
        <ele>13.119999999999999</ele>
        <time>2017-09-21T12:02:49Z</time>
      </trkpt>
      <trkpt lat="38.113445118069649" lon="12.790250647813082">
        <ele>13.119999999999999</ele>
        <time>2017-09-21T12:02:50Z</time>
      </trkpt>
      <trkpt lat="38.113512424752116" lon="12.790221897885203">
        <ele>14.08</ele>
        <time>2017-09-21T12:02:57Z</time>
      </trkpt>
      <trkpt lat="38.113622898235917" lon="12.790192812681198">
        <ele>14.08</ele>
        <time>2017-09-21T12:03:09Z</time>
      </trkpt>
      <trkpt lat="38.113633375614882" lon="12.790196584537625">
        <ele>14.08</ele>
        <time>2017-09-21T12:03:11Z</time>
      </trkpt>
      <trkpt lat="38.113685175776482" lon="12.790229944512248">
        <ele>13.6</ele>
        <time>2017-09-21T12:03:22Z</time>
      </trkpt>
      <trkpt lat="38.113778969272971" lon="12.790215946733952">
        <ele>14.56</ele>
        <time>2017-09-21T12:03:33Z</time>
      </trkpt>
      <trkpt lat="38.113860776647925" lon="12.790172277018428">
        <ele>16.48</ele>
        <time>2017-09-21T12:03:45Z</time>
      </trkpt>
      <trkpt lat="38.113965382799506" lon="12.790157524868846">
        <ele>17.440000000000001</ele>
        <time>2017-09-21T12:03:58Z</time>
      </trkpt>
      <trkpt lat="38.114054230973125" lon="12.790121734142303">
        <ele>18.879999999999999</ele>
        <time>2017-09-21T12:04:10Z</time>
      </trkpt>
      <trkpt lat="38.114115502685308" lon="12.790119638666511">
        <ele>20.32</ele>
        <time>2017-09-21T12:04:19Z</time>
      </trkpt>
      <trkpt lat="38.114142240956426" lon="12.790161045268178">
        <ele>19.84</ele>
        <time>2017-09-21T12:04:24Z</time>
      </trkpt>
      <trkpt lat="38.114228574559093" lon="12.790193567052484">
        <ele>19.84</ele>
        <time>2017-09-21T12:04:36Z</time>
      </trkpt>
      <trkpt lat="38.114352039992809" lon="12.790234973654151">
        <ele>20.809999999999999</ele>
        <time>2017-09-21T12:04:48Z</time>
      </trkpt>
      <trkpt lat="38.114450192078948" lon="12.790221897885203">
        <ele>20.809999999999999</ele>
        <time>2017-09-21T12:05:03Z</time>
      </trkpt>
      <trkpt lat="38.114525964483619" lon="12.790262047201395">
        <ele>21.289999999999999</ele>
        <time>2017-09-21T12:05:15Z</time>
      </trkpt>
      <trkpt lat="38.114649849012494" lon="12.790296832099557">
        <ele>21.289999999999999</ele>
        <time>2017-09-21T12:05:28Z</time>
      </trkpt>
      <trkpt lat="38.114738529548049" lon="12.790316278114915">
        <ele>21.77</ele>
        <time>2017-09-21T12:05:39Z</time>
      </trkpt>
      <trkpt lat="38.114837603643537" lon="12.790341088548303">
        <ele>21.77</ele>
        <time>2017-09-21T12:05:49Z</time>
      </trkpt>
      <trkpt lat="38.114967439323664" lon="12.790310326963663">
        <ele>21.289999999999999</ele>
        <time>2017-09-21T12:06:01Z</time>
      </trkpt>
      <trkpt lat="38.11506450176239" lon="12.79031602665782">
        <ele>21.77</ele>
        <time>2017-09-21T12:06:10Z</time>
      </trkpt>
      <trkpt lat="38.115196516737342" lon="12.790263807401061">
        <ele>22.73</ele>
        <time>2017-09-21T12:06:23Z</time>
      </trkpt>
      <trkpt lat="38.115217806771398" lon="12.790255341678858">
        <ele>22.25</ele>
        <time>2017-09-21T12:06:25Z</time>
      </trkpt>
      <trkpt lat="38.115348815917969" lon="12.790303034707904">
        <ele>21.77</ele>
        <time>2017-09-21T12:06:40Z</time>
      </trkpt>
      <trkpt lat="38.115502707660198" lon="12.790254252031446">
        <ele>21.289999999999999</ele>
        <time>2017-09-21T12:06:52Z</time>
      </trkpt>
      <trkpt lat="38.115653749555349" lon="12.790257269516587">
        <ele>20.809999999999999</ele>
        <time>2017-09-21T12:07:06Z</time>
      </trkpt>
      <trkpt lat="38.115797834470868" lon="12.790209744125605">
        <ele>21.289999999999999</ele>
        <time>2017-09-21T12:07:19Z</time>
      </trkpt>
      <trkpt lat="38.115934124216437" lon="12.790214521810412">
        <ele>20.809999999999999</ele>
        <time>2017-09-21T12:07:32Z</time>
      </trkpt>
      <trkpt lat="38.116088518872857" lon="12.790185017511249">
        <ele>20.32</ele>
        <time>2017-09-21T12:07:46Z</time>
      </trkpt>
      <trkpt lat="38.116223551332951" lon="12.790109580382705">
        <ele>20.32</ele>
        <time>2017-09-21T12:07:59Z</time>
      </trkpt>
      <trkpt lat="38.116229167208076" lon="12.79008929617703">
        <ele>20.32</ele>
        <time>2017-09-21T12:08:10Z</time>
      </trkpt>
      <trkpt lat="38.116291277110577" lon="12.790033221244812">
        <ele>20.809999999999999</ele>
        <time>2017-09-21T12:08:23Z</time>
      </trkpt>
      <trkpt lat="38.116334527730942" lon="12.79001553542912">
        <ele>21.289999999999999</ele>
        <time>2017-09-21T12:08:27Z</time>
      </trkpt>
      <trkpt lat="38.116462351754308" lon="12.789912102743983">
        <ele>21.77</ele>
        <time>2017-09-21T12:08:41Z</time>
      </trkpt>
      <trkpt lat="38.116478864103556" lon="12.789899613708258">
        <ele>21.289999999999999</ele>
        <time>2017-09-21T12:08:43Z</time>
      </trkpt>
      <trkpt lat="38.116583302617073" lon="12.789804730564356">
        <ele>19.84</ele>
        <time>2017-09-21T12:08:54Z</time>
      </trkpt>
      <trkpt lat="38.116617500782013" lon="12.789795426651835">
        <ele>19.84</ele>
        <time>2017-09-21T12:08:57Z</time>
      </trkpt>
      <trkpt lat="38.116728141903877" lon="12.789700292050838">
        <ele>19.359999999999999</ele>
        <time>2017-09-21T12:09:09Z</time>
      </trkpt>
      <trkpt lat="38.11687977053225" lon="12.789629381150007">
        <ele>19.359999999999999</ele>
        <time>2017-09-21T12:09:22Z</time>
      </trkpt>
      <trkpt lat="38.117043469101191" lon="12.789538772776723">
        <ele>18.399999999999999</ele>
        <time>2017-09-21T12:09:37Z</time>
      </trkpt>
      <trkpt lat="38.117190403863788" lon="12.789451517164707">
        <ele>18.399999999999999</ele>
        <time>2017-09-21T12:09:50Z</time>
      </trkpt>
      <trkpt lat="38.117336081340909" lon="12.789375158026814">
        <ele>18.399999999999999</ele>
        <time>2017-09-21T12:10:03Z</time>
      </trkpt>
      <trkpt lat="38.117496175691485" lon="12.789287818595767">
        <ele>18.399999999999999</ele>
        <time>2017-09-21T12:10:18Z</time>
      </trkpt>
      <trkpt lat="38.117546215653419" lon="12.789244651794434">
        <ele>16.960000000000001</ele>
        <time>2017-09-21T12:10:24Z</time>
      </trkpt>
      <trkpt lat="38.117687031626701" lon="12.789171226322651">
        <ele>17.920000000000002</ele>
        <time>2017-09-21T12:10:36Z</time>
      </trkpt>
      <trkpt lat="38.117740508168936" lon="12.789135854691267">
        <ele>18.399999999999999</ele>
        <time>2017-09-21T12:10:41Z</time>
      </trkpt>
      <trkpt lat="38.117893394082785" lon="12.789039295166731">
        <ele>17.920000000000002</ele>
        <time>2017-09-21T12:10:56Z</time>
      </trkpt>
      <trkpt lat="38.118041669949889" lon="12.788971653208137">
        <ele>18.399999999999999</ele>
        <time>2017-09-21T12:11:10Z</time>
      </trkpt>
      <trkpt lat="38.118062457069755" lon="12.788917841389775">
        <ele>18.399999999999999</ele>
        <time>2017-09-21T12:11:20Z</time>
      </trkpt>
      <trkpt lat="38.118050722405314" lon="12.7888716571033">
        <ele>18.879999999999999</ele>
        <time>2017-09-21T12:11:31Z</time>
      </trkpt>
      <trkpt lat="38.118039574474096" lon="12.788858832791448">
        <ele>19.359999999999999</ele>
        <time>2017-09-21T12:11:41Z</time>
      </trkpt>
      <trkpt lat="38.118086345493793" lon="12.788861598819494">
        <ele>19.359999999999999</ele>
        <time>2017-09-21T12:11:54Z</time>
      </trkpt>
      <trkpt lat="38.118121884763241" lon="12.788825137540698">
        <ele>18.879999999999999</ele>
        <time>2017-09-21T12:12:05Z</time>
      </trkpt>
      <trkpt lat="38.118126913905144" lon="12.788811223581433">
        <ele>18.399999999999999</ele>
        <time>2017-09-21T12:12:17Z</time>
      </trkpt>
      <trkpt lat="38.118117190897465" lon="12.788840224966407">
        <ele>18.879999999999999</ele>
        <time>2017-09-21T12:12:32Z</time>
      </trkpt>
      <trkpt lat="38.118123142048717" lon="12.788841482251883">
        <ele>18.879999999999999</ele>
        <time>2017-09-21T12:12:42Z</time>
      </trkpt>
      <trkpt lat="38.118126159533858" lon="12.788827233016491">
        <ele>18.399999999999999</ele>
        <time>2017-09-21T12:13:00Z</time>
      </trkpt>
      <trkpt lat="38.118125656619668" lon="12.788816504180431">
        <ele>18.879999999999999</ele>
        <time>2017-09-21T12:13:19Z</time>
      </trkpt>
      <trkpt lat="38.118121884763241" lon="12.78881105594337">
        <ele>18.399999999999999</ele>
        <time>2017-09-21T12:13:51Z</time>
      </trkpt>
      <trkpt lat="38.118115598335862" lon="12.788821198046207">
        <ele>18.879999999999999</ele>
        <time>2017-09-21T12:14:16Z</time>
      </trkpt>
      <trkpt lat="38.118134289979935" lon="12.788814073428512">
        <ele>18.879999999999999</ele>
        <time>2017-09-21T12:14:43Z</time>
      </trkpt>
      <trkpt lat="38.118138313293457" lon="12.788839554414153">
        <ele>18.879999999999999</ele>
        <time>2017-09-21T12:15:09Z</time>
      </trkpt>
      <trkpt lat="38.118137558922172" lon="12.788837794214487">
        <ele>20.809999999999999</ele>
        <time>2017-09-21T12:15:18Z</time>
      </trkpt>
      <trkpt lat="38.118153233081102" lon="12.788848355412483">
        <ele>19.359999999999999</ele>
        <time>2017-09-21T12:15:32Z</time>
      </trkpt>
      <trkpt lat="38.118145437911153" lon="12.788846679031849">
        <ele>18.879999999999999</ele>
        <time>2017-09-21T12:15:48Z</time>
      </trkpt>
      <trkpt lat="38.118140157312155" lon="12.788839470595121">
        <ele>19.359999999999999</ele>
        <time>2017-09-21T12:16:04Z</time>
      </trkpt>
      <trkpt lat="38.118150047957897" lon="12.788846511393785">
        <ele>19.359999999999999</ele>
        <time>2017-09-21T12:16:20Z</time>
      </trkpt>
      <trkpt lat="38.118154238909483" lon="12.788854390382767">
        <ele>19.359999999999999</ele>
        <time>2017-09-21T12:16:35Z</time>
      </trkpt>
      <trkpt lat="38.118153819814324" lon="12.788849780336022">
        <ele>19.359999999999999</ele>
        <time>2017-09-21T12:16:54Z</time>
      </trkpt>
      <trkpt lat="38.118154741823673" lon="12.788844332098961">
        <ele>19.359999999999999</ele>
        <time>2017-09-21T12:17:08Z</time>
      </trkpt>
      <trkpt lat="38.118157340213656" lon="12.788851708173752">
        <ele>19.359999999999999</ele>
        <time>2017-09-21T12:17:33Z</time>
      </trkpt>
      <trkpt lat="38.118149461224675" lon="12.788864951580763">
        <ele>19.359999999999999</ele>
        <time>2017-09-21T12:17:50Z</time>
      </trkpt>
      <trkpt lat="38.118117274716496" lon="12.788880541920662">
        <ele>19.84</ele>
        <time>2017-09-21T12:17:59Z</time>
      </trkpt>
      <trkpt lat="38.118063630536199" lon="12.78891465626657">
        <ele>19.359999999999999</ele>
        <time>2017-09-21T12:18:09Z</time>
      </trkpt>
      <trkpt lat="38.118057427927852" lon="12.78890535235405">
        <ele>19.359999999999999</ele>
        <time>2017-09-21T12:18:23Z</time>
      </trkpt>
      <trkpt lat="38.118066983297467" lon="12.788921529427171">
        <ele>19.359999999999999</ele>
        <time>2017-09-21T12:18:34Z</time>
      </trkpt>
      <trkpt lat="38.118059188127518" lon="12.788904597982764">
        <ele>19.359999999999999</ele>
        <time>2017-09-21T12:18:45Z</time>
      </trkpt>
      <trkpt lat="38.118056925013661" lon="12.788892611861229">
        <ele>19.359999999999999</ele>
        <time>2017-09-21T12:18:53Z</time>
      </trkpt>
      <trkpt lat="38.118056338280439" lon="12.788876937702298">
        <ele>18.399999999999999</ele>
        <time>2017-09-21T12:19:08Z</time>
      </trkpt>
      <trkpt lat="38.118059104308486" lon="12.788879200816154">
        <ele>18.879999999999999</ele>
        <time>2017-09-21T12:19:42Z</time>
      </trkpt>
      <trkpt lat="38.118051812052727" lon="12.788881380110979">
        <ele>18.879999999999999</ele>
        <time>2017-09-21T12:19:54Z</time>
      </trkpt>
      <trkpt lat="38.11807544901967" lon="12.788890935480595">
        <ele>19.359999999999999</ele>
        <time>2017-09-21T12:20:03Z</time>
      </trkpt>
      <trkpt lat="38.118110569193959" lon="12.788954637944698">
        <ele>18.879999999999999</ele>
        <time>2017-09-21T12:20:13Z</time>
      </trkpt>
      <trkpt lat="38.118152730166912" lon="12.788940891623497">
        <ele>18.879999999999999</ele>
        <time>2017-09-21T12:20:18Z</time>
      </trkpt>
      <trkpt lat="38.118271753191948" lon="12.788861431181431">
        <ele>18.879999999999999</ele>
        <time>2017-09-21T12:20:31Z</time>
      </trkpt>
      <trkpt lat="38.118423381820321" lon="12.788831675425172">
        <ele>18.399999999999999</ele>
        <time>2017-09-21T12:20:44Z</time>
      </trkpt>
      <trkpt lat="38.118566041812301" lon="12.788746850565076">
        <ele>18.399999999999999</ele>
        <time>2017-09-21T12:20:58Z</time>
      </trkpt>
      <trkpt lat="38.118700738996267" lon="12.788664540275931">
        <ele>19.359999999999999</ele>
        <time>2017-09-21T12:21:11Z</time>
      </trkpt>
      <trkpt lat="38.118818756192923" lon="12.788560520857573">
        <ele>19.84</ele>
        <time>2017-09-21T12:21:25Z</time>
      </trkpt>
      <trkpt lat="38.118985891342163" lon="12.788474187254906">
        <ele>20.32</ele>
        <time>2017-09-21T12:21:40Z</time>
      </trkpt>
      <trkpt lat="38.119147662073374" lon="12.788447784259915">
        <ele>20.32</ele>
        <time>2017-09-21T12:21:54Z</time>
      </trkpt>
      <trkpt lat="38.119262410327792" lon="12.788360947743058">
        <ele>20.809999999999999</ele>
        <time>2017-09-21T12:22:07Z</time>
      </trkpt>
      <trkpt lat="38.119416469708085" lon="12.788315685465932">
        <ele>20.809999999999999</ele>
        <time>2017-09-21T12:22:20Z</time>
      </trkpt>
      <trkpt lat="38.119577569887042" lon="12.788191549479961">
        <ele>20.809999999999999</ele>
        <time>2017-09-21T12:22:36Z</time>
      </trkpt>
      <trkpt lat="38.119647139683366" lon="12.788123656064272">
        <ele>21.289999999999999</ele>
        <time>2017-09-21T12:22:47Z</time>
      </trkpt>
      <trkpt lat="38.119653593748808" lon="12.788125667721033">
        <ele>21.289999999999999</ele>
        <time>2017-09-21T12:22:48Z</time>
      </trkpt>
      <trkpt lat="38.119763564318419" lon="12.788132457062602">
        <ele>20.809999999999999</ele>
        <time>2017-09-21T12:23:01Z</time>
      </trkpt>
      <trkpt lat="38.119873786345124" lon="12.788130445405841">
        <ele>20.809999999999999</ele>
        <time>2017-09-21T12:23:16Z</time>
      </trkpt>
      <trkpt lat="38.119921730831265" lon="12.788098426535726">
        <ele>20.809999999999999</ele>
        <time>2017-09-21T12:23:27Z</time>
      </trkpt>
      <trkpt lat="38.119999850168824" lon="12.78801360167563">
        <ele>20.32</ele>
        <time>2017-09-21T12:23:39Z</time>
      </trkpt>
      <trkpt lat="38.119984762743115" lon="12.787999520078301">
        <ele>20.32</ele>
        <time>2017-09-21T12:23:50Z</time>
      </trkpt>
      <trkpt lat="38.119984092190862" lon="12.787999184802175">
        <ele>20.32</ele>
        <time>2017-09-21T12:24:04Z</time>
      </trkpt>
      <trkpt lat="38.120003286749125" lon="12.7879892103374">
        <ele>20.32</ele>
        <time>2017-09-21T12:24:19Z</time>
      </trkpt>
      <trkpt lat="38.120013931766152" lon="12.787986109033227">
        <ele>20.809999999999999</ele>
        <time>2017-09-21T12:24:29Z</time>
      </trkpt>
      <trkpt lat="38.119996665045619" lon="12.787897847592831">
        <ele>21.289999999999999</ele>
        <time>2017-09-21T12:24:41Z</time>
      </trkpt>
      <trkpt lat="38.120064307004213" lon="12.787931710481644">
        <ele>19.359999999999999</ele>
        <time>2017-09-21T12:24:51Z</time>
      </trkpt>
      <trkpt lat="38.120074532926083" lon="12.787895500659943">
        <ele>18.399999999999999</ele>
        <time>2017-09-21T12:25:01Z</time>
      </trkpt>
      <trkpt lat="38.120088027790189" lon="12.787928273901343">
        <ele>18.399999999999999</ele>
        <time>2017-09-21T12:25:15Z</time>
      </trkpt>
      <trkpt lat="38.120051734149456" lon="12.788017876446247">
        <ele>19.84</ele>
        <time>2017-09-21T12:25:24Z</time>
      </trkpt>
      <trkpt lat="38.120057266205549" lon="12.788010584190488">
        <ele>18.399999999999999</ele>
        <time>2017-09-21T12:25:31Z</time>
      </trkpt>
      <trkpt lat="38.120073275640607" lon="12.787974122911692">
        <ele>18.399999999999999</ele>
        <time>2017-09-21T12:25:41Z</time>
      </trkpt>
      <trkpt lat="38.120054416358471" lon="12.787931626662612">
        <ele>17.920000000000002</ele>
        <time>2017-09-21T12:25:51Z</time>
      </trkpt>
      <trkpt lat="38.120054583996534" lon="12.787882760167122">
        <ele>17.440000000000001</ele>
        <time>2017-09-21T12:26:02Z</time>
      </trkpt>
      <trkpt lat="38.120051985606551" lon="12.787846885621548">
        <ele>17.440000000000001</ele>
        <time>2017-09-21T12:26:14Z</time>
      </trkpt>
      <trkpt lat="38.120077466592193" lon="12.787875384092331">
        <ele>17.920000000000002</ele>
        <time>2017-09-21T12:26:37Z</time>
      </trkpt>
      <trkpt lat="38.120068414136767" lon="12.787929447367787">
        <ele>18.399999999999999</ele>
        <time>2017-09-21T12:26:51Z</time>
      </trkpt>
      <trkpt lat="38.120015691965818" lon="12.78792274184525">
        <ele>19.84</ele>
        <time>2017-09-21T12:27:01Z</time>
      </trkpt>
      <trkpt lat="38.11997621320188" lon="12.787930872291327">
        <ele>20.809999999999999</ele>
        <time>2017-09-21T12:27:10Z</time>
      </trkpt>
      <trkpt lat="38.11995173804462" lon="12.787883346900344">
        <ele>21.77</ele>
        <time>2017-09-21T12:27:19Z</time>
      </trkpt>
      <trkpt lat="38.119916198775172" lon="12.787842527031898">
        <ele>23.210000000000001</ele>
        <time>2017-09-21T12:27:30Z</time>
      </trkpt>
      <trkpt lat="38.119874959811568" lon="12.78779131360352">
        <ele>24.649999999999999</ele>
        <time>2017-09-21T12:27:41Z</time>
      </trkpt>
      <trkpt lat="38.119816454127431" lon="12.787736831232905">
        <ele>26.57</ele>
        <time>2017-09-21T12:27:53Z</time>
      </trkpt>
      <trkpt lat="38.119764653965831" lon="12.787670530378819">
        <ele>28.02</ele>
        <time>2017-09-21T12:28:07Z</time>
      </trkpt>
      <trkpt lat="38.119727605953813" lon="12.787588052451611">
        <ele>29.940000000000001</ele>
        <time>2017-09-21T12:28:19Z</time>
      </trkpt>
      <trkpt lat="38.119706232100725" lon="12.787536000832915">
        <ele>30.899999999999999</ele>
        <time>2017-09-21T12:28:29Z</time>
      </trkpt>
      <trkpt lat="38.119701454415917" lon="12.787449667230248">
        <ele>32.82</ele>
        <time>2017-09-21T12:28:43Z</time>
      </trkpt>
      <trkpt lat="38.119706232100725" lon="12.787406835705042">
        <ele>33.780000000000001</ele>
        <time>2017-09-21T12:28:58Z</time>
      </trkpt>
      <trkpt lat="38.119680918753147" lon="12.787397280335426">
        <ele>34.740000000000002</ele>
        <time>2017-09-21T12:29:08Z</time>
      </trkpt>
      <trkpt lat="38.119673123583198" lon="12.787413708865643">
        <ele>34.259999999999998</ele>
        <time>2017-09-21T12:29:10Z</time>
      </trkpt>
      <trkpt lat="38.119551669806242" lon="12.787567181512713">
        <ele>33.780000000000001</ele>
        <time>2017-09-21T12:29:25Z</time>
      </trkpt>
      <trkpt lat="38.119430467486382" lon="12.787602553144097">
        <ele>33.780000000000001</ele>
        <time>2017-09-21T12:29:38Z</time>
      </trkpt>
      <trkpt lat="38.119438178837299" lon="12.787593165412545">
        <ele>34.259999999999998</ele>
        <time>2017-09-21T12:29:53Z</time>
      </trkpt>
      <trkpt lat="38.119436837732792" lon="12.787592746317387">
        <ele>34.259999999999998</ele>
        <time>2017-09-21T12:29:54Z</time>
      </trkpt>
      <trkpt lat="38.119397694244981" lon="12.787594087421894">
        <ele>34.259999999999998</ele>
        <time>2017-09-21T12:29:58Z</time>
      </trkpt>
      <trkpt lat="38.119377577677369" lon="12.787608001381159">
        <ele>34.259999999999998</ele>
        <time>2017-09-21T12:30:00Z</time>
      </trkpt>
      <trkpt lat="38.119350420311093" lon="12.787612527608871">
        <ele>34.740000000000002</ele>
        <time>2017-09-21T12:30:03Z</time>
      </trkpt>
      <trkpt lat="38.119327872991562" lon="12.787643373012543">
        <ele>34.740000000000002</ele>
        <time>2017-09-21T12:30:08Z</time>
      </trkpt>
      <trkpt lat="38.119316138327122" lon="12.787673212587833">
        <ele>34.259999999999998</ele>
        <time>2017-09-21T12:30:21Z</time>
      </trkpt>
      <trkpt lat="38.119332483038306" lon="12.78766768053174">
        <ele>34.259999999999998</ele>
        <time>2017-09-21T12:30:41Z</time>
      </trkpt>
      <trkpt lat="38.119321083649993" lon="12.787665836513042">
        <ele>34.259999999999998</ele>
        <time>2017-09-21T12:31:02Z</time>
      </trkpt>
      <trkpt lat="38.119336506351829" lon="12.787626525387168">
        <ele>34.259999999999998</ele>
        <time>2017-09-21T12:31:07Z</time>
      </trkpt>
      <trkpt lat="38.119349917396903" lon="12.787603810429573">
        <ele>34.740000000000002</ele>
        <time>2017-09-21T12:31:10Z</time>
      </trkpt>
      <trkpt lat="38.119405908510089" lon="12.787586376070976">
        <ele>34.740000000000002</ele>
        <time>2017-09-21T12:31:15Z</time>
      </trkpt>
      <trkpt lat="38.119603553786874" lon="12.78751278296113">
        <ele>33.780000000000001</ele>
        <time>2017-09-21T12:31:31Z</time>
      </trkpt>
      <trkpt lat="38.119686618447304" lon="12.787381689995527">
        <ele>34.740000000000002</ele>
        <time>2017-09-21T12:31:43Z</time>
      </trkpt>
      <trkpt lat="38.119732886552811" lon="12.787250680848956">
        <ele>35.229999999999997</ele>
        <time>2017-09-21T12:31:55Z</time>
      </trkpt>
      <trkpt lat="38.119774293154478" lon="12.787136016413569">
        <ele>37.149999999999999</ele>
        <time>2017-09-21T12:32:06Z</time>
      </trkpt>
      <trkpt lat="38.119832798838615" lon="12.787052867934108">
        <ele>37.630000000000003</ele>
        <time>2017-09-21T12:32:15Z</time>
      </trkpt>
      <trkpt lat="38.11984134837985" lon="12.78704222291708">
        <ele>37.630000000000003</ele>
        <time>2017-09-21T12:32:16Z</time>
      </trkpt>
      <trkpt lat="38.119909828528762" lon="12.786981454119086">
        <ele>37.630000000000003</ele>
        <time>2017-09-21T12:32:24Z</time>
      </trkpt>
      <trkpt lat="38.119939249008894" lon="12.786957314237952">
        <ele>37.630000000000003</ele>
        <time>2017-09-21T12:32:27Z</time>
      </trkpt>
      <trkpt lat="38.120046369731426" lon="12.786857569590211">
        <ele>38.590000000000003</ele>
        <time>2017-09-21T12:32:39Z</time>
      </trkpt>
      <trkpt lat="38.120120214298368" lon="12.786788251250982">
        <ele>39.07</ele>
        <time>2017-09-21T12:32:47Z</time>
      </trkpt>
      <trkpt lat="38.120135050266981" lon="12.786768218502402">
        <ele>39.07</ele>
        <time>2017-09-21T12:32:49Z</time>
      </trkpt>
      <trkpt lat="38.120253654196858" lon="12.786660678684711">
        <ele>39.07</ele>
        <time>2017-09-21T12:33:02Z</time>
      </trkpt>
      <trkpt lat="38.120301933959126" lon="12.786553306505084">
        <ele>37.630000000000003</ele>
        <time>2017-09-21T12:33:11Z</time>
      </trkpt>
      <trkpt lat="38.120343005284667" lon="12.786392709240317">
        <ele>37.630000000000003</ele>
        <time>2017-09-21T12:33:23Z</time>
      </trkpt>
      <trkpt lat="38.120379047468305" lon="12.786323977634311">
        <ele>36.189999999999998</ele>
        <time>2017-09-21T12:33:30Z</time>
      </trkpt>
      <trkpt lat="38.120454400777817" lon="12.786341328173876">
        <ele>37.149999999999999</ele>
        <time>2017-09-21T12:33:40Z</time>
      </trkpt>
      <trkpt lat="38.120547942817211" lon="12.786399833858013">
        <ele>39.07</ele>
        <time>2017-09-21T12:33:52Z</time>
      </trkpt>
      <trkpt lat="38.120596893131733" lon="12.786453226581216">
        <ele>39.549999999999997</ele>
        <time>2017-09-21T12:33:59Z</time>
      </trkpt>
      <trkpt lat="38.120679287239909" lon="12.78653847053647">
        <ele>40.030000000000001</ele>
        <time>2017-09-21T12:34:11Z</time>
      </trkpt>
      <trkpt lat="38.12074969522655" lon="12.78655749745667">
        <ele>41.950000000000003</ele>
        <time>2017-09-21T12:34:24Z</time>
      </trkpt>
      <trkpt lat="38.120860084891319" lon="12.786608124151826">
        <ele>42.920000000000002</ele>
        <time>2017-09-21T12:34:36Z</time>
      </trkpt>
      <trkpt lat="38.120948597788811" lon="12.786601167172194">
        <ele>44.359999999999999</ele>
        <time>2017-09-21T12:34:48Z</time>
      </trkpt>
      <trkpt lat="38.121036272495985" lon="12.786606447771192">
        <ele>46.759999999999998</ele>
        <time>2017-09-21T12:34:59Z</time>
      </trkpt>
      <trkpt lat="38.12114154919982" lon="12.786646597087383">
        <ele>47.719999999999999</ele>
        <time>2017-09-21T12:35:11Z</time>
      </trkpt>
      <trkpt lat="38.121222015470266" lon="12.786671239882708">
        <ele>48.68</ele>
        <time>2017-09-21T12:35:23Z</time>
      </trkpt>
      <trkpt lat="38.121252525597811" lon="12.786715580150485">
        <ele>48.68</ele>
        <time>2017-09-21T12:35:32Z</time>
      </trkpt>
      <trkpt lat="38.121228218078613" lon="12.786759836599231">
        <ele>48.68</ele>
        <time>2017-09-21T12:35:44Z</time>
      </trkpt>
      <trkpt lat="38.121226038783789" lon="12.786760171875358">
        <ele>48.200000000000003</ele>
        <time>2017-09-21T12:35:54Z</time>
      </trkpt>
      <trkpt lat="38.121229810640216" lon="12.786763356998563">
        <ele>48.68</ele>
        <time>2017-09-21T12:36:12Z</time>
      </trkpt>
      <trkpt lat="38.121206173673272" lon="12.786750281229615">
        <ele>48.200000000000003</ele>
        <time>2017-09-21T12:36:25Z</time>
      </trkpt>
      <trkpt lat="38.121206928044558" lon="12.786745838820934">
        <ele>48.68</ele>
        <time>2017-09-21T12:36:48Z</time>
      </trkpt>
      <trkpt lat="38.121179267764091" lon="12.786727230995893">
        <ele>48.200000000000003</ele>
        <time>2017-09-21T12:37:07Z</time>
      </trkpt>
      <trkpt lat="38.121182536706328" lon="12.786724464967847">
        <ele>49.649999999999999</ele>
        <time>2017-09-21T12:37:30Z</time>
      </trkpt>
      <trkpt lat="38.121183793991804" lon="12.786722285673022">
        <ele>49.649999999999999</ele>
        <time>2017-09-21T12:37:31Z</time>
      </trkpt>
      <trkpt lat="38.121194439008832" lon="12.786716585978866">
        <ele>48.200000000000003</ele>
        <time>2017-09-21T12:37:49Z</time>
      </trkpt>
      <trkpt lat="38.121240874752402" lon="12.786725219339132">
        <ele>48.68</ele>
        <time>2017-09-21T12:38:08Z</time>
      </trkpt>
      <trkpt lat="38.121313210576773" lon="12.786752544343472">
        <ele>48.68</ele>
        <time>2017-09-21T12:38:18Z</time>
      </trkpt>
      <trkpt lat="38.121394431218505" lon="12.786800321191549">
        <ele>48.68</ele>
        <time>2017-09-21T12:38:29Z</time>
      </trkpt>
      <trkpt lat="38.121405998244882" lon="12.786811804398894">
        <ele>49.159999999999997</ele>
        <time>2017-09-21T12:38:38Z</time>
      </trkpt>
      <trkpt lat="38.121420498937368" lon="12.786803841590881">
        <ele>49.159999999999997</ele>
        <time>2017-09-21T12:38:55Z</time>
      </trkpt>
      <trkpt lat="38.121420750394464" lon="12.786806775256991">
        <ele>48.68</ele>
        <time>2017-09-21T12:39:10Z</time>
      </trkpt>
      <trkpt lat="38.121434664353728" lon="12.786831753328443">
        <ele>48.68</ele>
        <time>2017-09-21T12:39:19Z</time>
      </trkpt>
      <trkpt lat="38.121489817276597" lon="12.786880619823933">
        <ele>49.159999999999997</ele>
        <time>2017-09-21T12:39:27Z</time>
      </trkpt>
      <trkpt lat="38.121609007939696" lon="12.786946417763829">
        <ele>50.130000000000003</ele>
        <time>2017-09-21T12:39:40Z</time>
      </trkpt>
      <trkpt lat="38.121696850284934" lon="12.786985812708735">
        <ele>50.609999999999999</ele>
        <time>2017-09-21T12:39:49Z</time>
      </trkpt>
      <trkpt lat="38.121725264936686" lon="12.787009952589869">
        <ele>51.090000000000003</ele>
        <time>2017-09-21T12:39:52Z</time>
      </trkpt>
      <trkpt lat="38.121844874694943" lon="12.787080109119415">
        <ele>51.57</ele>
        <time>2017-09-21T12:40:05Z</time>
      </trkpt>
      <trkpt lat="38.121982337906957" lon="12.787167532369494">
        <ele>52.049999999999997</ele>
        <time>2017-09-21T12:40:19Z</time>
      </trkpt>
      <trkpt lat="38.122121226042509" lon="12.787237102165818">
        <ele>53.009999999999998</ele>
        <time>2017-09-21T12:40:32Z</time>
      </trkpt>
      <trkpt lat="38.122279141098261" lon="12.787300301715732">
        <ele>53.490000000000002</ele>
        <time>2017-09-21T12:40:47Z</time>
      </trkpt>
      <trkpt lat="38.122394643723965" lon="12.787348916754127">
        <ele>53.969999999999999</ele>
        <time>2017-09-21T12:40:59Z</time>
      </trkpt>
      <trkpt lat="38.122547278180718" lon="12.78741211630404">
        <ele>54.450000000000003</ele>
        <time>2017-09-21T12:41:12Z</time>
      </trkpt>
      <trkpt lat="38.12272815965116" lon="12.787465257570148">
        <ele>54.93</ele>
        <time>2017-09-21T12:41:28Z</time>
      </trkpt>
      <trkpt lat="38.122873501852155" lon="12.787518482655287">
        <ele>55.409999999999997</ele>
        <time>2017-09-21T12:41:40Z</time>
      </trkpt>
      <trkpt lat="38.123034769669175" lon="12.787554692476988">
        <ele>55.890000000000001</ele>
        <time>2017-09-21T12:41:54Z</time>
      </trkpt>
      <trkpt lat="38.123130155727267" lon="12.787567432969809">
        <ele>56.859999999999999</ele>
        <time>2017-09-21T12:42:03Z</time>
      </trkpt>
      <trkpt lat="38.123266529291868" lon="12.787609845399857">
        <ele>56.859999999999999</ele>
        <time>2017-09-21T12:42:15Z</time>
      </trkpt>
      <trkpt lat="38.123320173472166" lon="12.787619819864631">
        <ele>56.859999999999999</ele>
        <time>2017-09-21T12:42:20Z</time>
      </trkpt>
      <trkpt lat="38.123474149033427" lon="12.787625435739756">
        <ele>57.82</ele>
        <time>2017-09-21T12:42:33Z</time>
      </trkpt>
      <trkpt lat="38.123623766005039" lon="12.787650832906365">
        <ele>57.82</ele>
        <time>2017-09-21T12:42:45Z</time>
      </trkpt>
      <trkpt lat="38.123791739344597" lon="12.787749236449599">
        <ele>57.82</ele>
        <time>2017-09-21T12:42:59Z</time>
      </trkpt>
      <trkpt lat="38.123809173703194" lon="12.787768766283989">
        <ele>57.82</ele>
        <time>2017-09-21T12:43:01Z</time>
      </trkpt>
      <trkpt lat="38.123973375186324" lon="12.787826685234904">
        <ele>58.780000000000001</ele>
        <time>2017-09-21T12:43:16Z</time>
      </trkpt>
      <trkpt lat="38.124130787327886" lon="12.787882592529058">
        <ele>59.259999999999998</ele>
        <time>2017-09-21T12:43:30Z</time>
      </trkpt>
      <trkpt lat="38.124264981597662" lon="12.787927854806185">
        <ele>59.740000000000002</ele>
        <time>2017-09-21T12:43:42Z</time>
      </trkpt>
      <trkpt lat="38.124391967430711" lon="12.787948306649923">
        <ele>59.740000000000002</ele>
        <time>2017-09-21T12:43:54Z</time>
      </trkpt>
      <trkpt lat="38.124526413157582" lon="12.787939170375466">
        <ele>60.219999999999999</ele>
        <time>2017-09-21T12:44:08Z</time>
      </trkpt>
      <trkpt lat="38.124557845294476" lon="12.787959203124046">
        <ele>60.700000000000003</ele>
        <time>2017-09-21T12:44:11Z</time>
      </trkpt>
      <trkpt lat="38.124572765082121" lon="12.787986947223544">
        <ele>60.700000000000003</ele>
        <time>2017-09-21T12:44:21Z</time>
      </trkpt>
      <trkpt lat="38.124585757032037" lon="12.787950821220875">
        <ele>60.700000000000003</ele>
        <time>2017-09-21T12:44:31Z</time>
      </trkpt>
      <trkpt lat="38.12463671900332" lon="12.787937242537737">
        <ele>60.700000000000003</ele>
        <time>2017-09-21T12:44:41Z</time>
      </trkpt>
      <trkpt lat="38.124627582728863" lon="12.78794327750802">
        <ele>60.700000000000003</ele>
        <time>2017-09-21T12:44:58Z</time>
      </trkpt>
      <trkpt lat="38.124639149755239" lon="12.787925759330392">
        <ele>60.700000000000003</ele>
        <time>2017-09-21T12:45:13Z</time>
      </trkpt>
      <trkpt lat="38.12465189024806" lon="12.787918467074633">
        <ele>61.18</ele>
        <time>2017-09-21T12:45:26Z</time>
      </trkpt>
      <trkpt lat="38.124659350141883" lon="12.787899943068624">
        <ele>62.140000000000001</ele>
        <time>2017-09-21T12:45:42Z</time>
      </trkpt>
      <trkpt lat="38.124647112563252" lon="12.787907151505351">
        <ele>61.18</ele>
        <time>2017-09-21T12:45:54Z</time>
      </trkpt>
      <trkpt lat="38.124650549143553" lon="12.787909414619207">
        <ele>60.700000000000003</ele>
        <time>2017-09-21T12:46:06Z</time>
      </trkpt>
      <trkpt lat="38.124644262716174" lon="12.787929950281978">
        <ele>60.700000000000003</ele>
        <time>2017-09-21T12:46:22Z</time>
      </trkpt>
      <trkpt lat="38.124653063714504" lon="12.78792567551136">
        <ele>65.030000000000001</ele>
        <time>2017-09-21T12:46:27Z</time>
      </trkpt>
      <trkpt lat="38.124655578285456" lon="12.787929279729724">
        <ele>59.740000000000002</ele>
        <time>2017-09-21T12:46:28Z</time>
      </trkpt>
      <trkpt lat="38.124668234959245" lon="12.787948474287987">
        <ele>63.100000000000001</ele>
        <time>2017-09-21T12:46:33Z</time>
      </trkpt>
      <trkpt lat="38.124669743701816" lon="12.787952581420541">
        <ele>59.259999999999998</ele>
        <time>2017-09-21T12:46:35Z</time>
      </trkpt>
      <trkpt lat="38.124668151140213" lon="12.787951994687319">
        <ele>59.259999999999998</ele>
        <time>2017-09-21T12:46:36Z</time>
      </trkpt>
      <trkpt lat="38.124667229130864" lon="12.787935482338071">
        <ele>62.619999999999997</ele>
        <time>2017-09-21T12:46:42Z</time>
      </trkpt>
      <trkpt lat="38.124665636569262" lon="12.78793933801353">
        <ele>61.18</ele>
        <time>2017-09-21T12:46:58Z</time>
      </trkpt>
    </trkseg>
  </trk>

  <trk>
    <name>2017-09-22 Monte Cofano</name>
    <extensions>
      <gpxx:TrackExtension>
        <gpxx:DisplayColor>Yellow</gpxx:DisplayColor>
      </gpxx:TrackExtension>
      <gpxtrkx:TrackStatsExtension xmlns:gpxtrkx="http://www.garmin.com/xmlschemas/TrackStatsExtension/v1">
        <gpxtrkx:Distance>12305</gpxtrkx:Distance>
        <gpxtrkx:TotalElapsedTime>20285</gpxtrkx:TotalElapsedTime>
        <gpxtrkx:MovingTime>14141</gpxtrkx:MovingTime>
        <gpxtrkx:StoppedTime>6136</gpxtrkx:StoppedTime>
        <gpxtrkx:MovingSpeed>1</gpxtrkx:MovingSpeed>
        <gpxtrkx:MaxSpeed>2</gpxtrkx:MaxSpeed>
        <gpxtrkx:MaxElevation>667</gpxtrkx:MaxElevation>
        <gpxtrkx:MinElevation>14</gpxtrkx:MinElevation>
        <gpxtrkx:Ascent>730</gpxtrkx:Ascent>
        <gpxtrkx:Descent>732</gpxtrkx:Descent>
        <gpxtrkx:AvgAscentRate>0</gpxtrkx:AvgAscentRate>
        <gpxtrkx:MaxAscentRate>0</gpxtrkx:MaxAscentRate>
        <gpxtrkx:AvgDescentRate>0</gpxtrkx:AvgDescentRate>
        <gpxtrkx:MaxDescentRate>-0</gpxtrkx:MaxDescentRate>
      </gpxtrkx:TrackStatsExtension>
    </extensions>
    <trkseg>
      <trkpt lat="38.095235014334321" lon="12.663524737581611">
        <ele>59.740000000000002</ele>
        <time>2017-09-22T06:45:03Z</time>
      </trkpt>
      <trkpt lat="38.095228057354689" lon="12.663521803915501">
        <ele>59.740000000000002</ele>
        <time>2017-09-22T06:45:04Z</time>
      </trkpt>
      <trkpt lat="38.095224788412452" lon="12.663519876077771">
        <ele>16</ele>
        <time>2017-09-22T06:45:10Z</time>
      </trkpt>
      <trkpt lat="38.095222525298595" lon="12.663518786430359">
        <ele>16</ele>
        <time>2017-09-22T06:45:11Z</time>
      </trkpt>
      <trkpt lat="38.095208946615458" lon="12.663518702611327">
        <ele>15.52</ele>
        <time>2017-09-22T06:45:27Z</time>
      </trkpt>
      <trkpt lat="38.095202157273889" lon="12.66352272592485">
        <ele>16.48</ele>
        <time>2017-09-22T06:45:43Z</time>
      </trkpt>
      <trkpt lat="38.095204755663872" lon="12.663524989038706">
        <ele>16</ele>
        <time>2017-09-22T06:45:55Z</time>
      </trkpt>
      <trkpt lat="38.095225291326642" lon="12.663517193868756">
        <ele>16</ele>
        <time>2017-09-22T06:46:09Z</time>
      </trkpt>
      <trkpt lat="38.09525546617806" lon="12.66356036067009">
        <ele>16.48</ele>
        <time>2017-09-22T06:46:18Z</time>
      </trkpt>
      <trkpt lat="38.095257477834821" lon="12.663509733974934">
        <ele>16.48</ele>
        <time>2017-09-22T06:46:26Z</time>
      </trkpt>
      <trkpt lat="38.095323946326971" lon="12.663491209968925">
        <ele>16.48</ele>
        <time>2017-09-22T06:46:35Z</time>
      </trkpt>
      <trkpt lat="38.095345152541995" lon="12.663471009582281">
        <ele>16</ele>
        <time>2017-09-22T06:46:39Z</time>
      </trkpt>
      <trkpt lat="38.095399970188737" lon="12.663451982662082">
        <ele>16</ele>
        <time>2017-09-22T06:46:45Z</time>
      </trkpt>
      <trkpt lat="38.095529386773705" lon="12.663440583273768">
        <ele>16</ele>
        <time>2017-09-22T06:46:57Z</time>
      </trkpt>
      <trkpt lat="38.095609014853835" lon="12.663440583273768">
        <ele>16</ele>
        <time>2017-09-22T06:47:07Z</time>
      </trkpt>
      <trkpt lat="38.095682691782713" lon="12.663410995155573">
        <ele>16</ele>
        <time>2017-09-22T06:47:17Z</time>
      </trkpt>
      <trkpt lat="38.095727870240808" lon="12.663394482806325">
        <ele>16</ele>
        <time>2017-09-22T06:47:24Z</time>
      </trkpt>
      <trkpt lat="38.095861226320267" lon="12.663366068154573">
        <ele>16.48</ele>
        <time>2017-09-22T06:47:38Z</time>
      </trkpt>
      <trkpt lat="38.09598938561976" lon="12.663347627967596">
        <ele>16.48</ele>
        <time>2017-09-22T06:47:51Z</time>
      </trkpt>
      <trkpt lat="38.096030792221427" lon="12.663341509178281">
        <ele>16.48</ele>
        <time>2017-09-22T06:47:56Z</time>
      </trkpt>
      <trkpt lat="38.096154844388366" lon="12.66331653110683">
        <ele>16.960000000000001</ele>
        <time>2017-09-22T06:48:10Z</time>
      </trkpt>
      <trkpt lat="38.096290212124586" lon="12.663260288536549">
        <ele>16.960000000000001</ele>
        <time>2017-09-22T06:48:23Z</time>
      </trkpt>
      <trkpt lat="38.096404122188687" lon="12.663209578022361">
        <ele>16.960000000000001</ele>
        <time>2017-09-22T06:48:35Z</time>
      </trkpt>
      <trkpt lat="38.096527922898531" lon="12.663160543888807">
        <ele>17.440000000000001</ele>
        <time>2017-09-22T06:48:48Z</time>
      </trkpt>
      <trkpt lat="38.096688603982329" lon="12.66309323720634">
        <ele>17.440000000000001</ele>
        <time>2017-09-22T06:49:03Z</time>
      </trkpt>
      <trkpt lat="38.096765214577317" lon="12.663089632987976">
        <ele>17.920000000000002</ele>
        <time>2017-09-22T06:49:13Z</time>
      </trkpt>
      <trkpt lat="38.09683226980269" lon="12.66309273429215">
        <ele>18.399999999999999</ele>
        <time>2017-09-22T06:49:23Z</time>
      </trkpt>
      <trkpt lat="38.096910389140248" lon="12.663082256913185">
        <ele>18.879999999999999</ele>
        <time>2017-09-22T06:49:37Z</time>
      </trkpt>
      <trkpt lat="38.096887422725558" lon="12.66307613812387">
        <ele>18.879999999999999</ele>
        <time>2017-09-22T06:49:51Z</time>
      </trkpt>
      <trkpt lat="38.096889015287161" lon="12.663069851696491">
        <ele>18.879999999999999</ele>
        <time>2017-09-22T06:50:06Z</time>
      </trkpt>
      <trkpt lat="38.096916424110532" lon="12.663076724857092">
        <ele>18.879999999999999</ele>
        <time>2017-09-22T06:50:10Z</time>
      </trkpt>
      <trkpt lat="38.096990771591663" lon="12.66310840845108">
        <ele>19.359999999999999</ele>
        <time>2017-09-22T06:50:20Z</time>
      </trkpt>
      <trkpt lat="38.097026813775301" lon="12.663124585524201">
        <ele>19.84</ele>
        <time>2017-09-22T06:50:35Z</time>
      </trkpt>
      <trkpt lat="38.097026310861111" lon="12.663122825324535">
        <ele>19.359999999999999</ele>
        <time>2017-09-22T06:50:51Z</time>
      </trkpt>
      <trkpt lat="38.097030585631728" lon="12.663143025711179">
        <ele>19.84</ele>
        <time>2017-09-22T06:51:10Z</time>
      </trkpt>
      <trkpt lat="38.097041733562946" lon="12.663140343502164">
        <ele>19.359999999999999</ele>
        <time>2017-09-22T06:51:19Z</time>
      </trkpt>
      <trkpt lat="38.097031088545918" lon="12.663135398179293">
        <ele>19.84</ele>
        <time>2017-09-22T06:51:33Z</time>
      </trkpt>
      <trkpt lat="38.097022119909525" lon="12.663144366815686">
        <ele>19.84</ele>
        <time>2017-09-22T06:51:46Z</time>
      </trkpt>
      <trkpt lat="38.097038213163614" lon="12.663145288825035">
        <ele>19.84</ele>
        <time>2017-09-22T06:52:01Z</time>
      </trkpt>
      <trkpt lat="38.097025640308857" lon="12.663144618272781">
        <ele>19.84</ele>
        <time>2017-09-22T06:52:21Z</time>
      </trkpt>
      <trkpt lat="38.097031842917204" lon="12.663142522796988">
        <ele>19.359999999999999</ele>
        <time>2017-09-22T06:52:44Z</time>
      </trkpt>
      <trkpt lat="38.097035866230726" lon="12.663146210834384">
        <ele>19.359999999999999</ele>
        <time>2017-09-22T06:53:03Z</time>
      </trkpt>
      <trkpt lat="38.097050618380308" lon="12.663117544725537">
        <ele>20.32</ele>
        <time>2017-09-22T06:53:14Z</time>
      </trkpt>
      <trkpt lat="38.097125133499503" lon="12.663127267733216">
        <ele>19.359999999999999</ele>
        <time>2017-09-22T06:53:26Z</time>
      </trkpt>
      <trkpt lat="38.097143825143576" lon="12.663130536675453">
        <ele>18.879999999999999</ele>
        <time>2017-09-22T06:53:40Z</time>
      </trkpt>
      <trkpt lat="38.097195541486144" lon="12.663150234147906">
        <ele>20.32</ele>
        <time>2017-09-22T06:53:49Z</time>
      </trkpt>
      <trkpt lat="38.097224375233054" lon="12.663132548332214">
        <ele>20.32</ele>
        <time>2017-09-22T06:54:02Z</time>
      </trkpt>
      <trkpt lat="38.097290927544236" lon="12.663096422329545">
        <ele>20.809999999999999</ele>
        <time>2017-09-22T06:54:15Z</time>
      </trkpt>
      <trkpt lat="38.097336106002331" lon="12.663099691271782">
        <ele>21.289999999999999</ele>
        <time>2017-09-22T06:54:23Z</time>
      </trkpt>
      <trkpt lat="38.097406011074781" lon="12.663069264963269">
        <ele>21.289999999999999</ele>
        <time>2017-09-22T06:54:35Z</time>
      </trkpt>
      <trkpt lat="38.097473066300154" lon="12.66304537653923">
        <ele>21.77</ele>
        <time>2017-09-22T06:54:45Z</time>
      </trkpt>
      <trkpt lat="38.09752956032753" lon="12.663027439266443">
        <ele>21.77</ele>
        <time>2017-09-22T06:54:56Z</time>
      </trkpt>
      <trkpt lat="38.097601728513837" lon="12.66302433796227">
        <ele>22.25</ele>
        <time>2017-09-22T06:55:06Z</time>
      </trkpt>
      <trkpt lat="38.097677081823349" lon="12.663088208064437">
        <ele>23.210000000000001</ele>
        <time>2017-09-22T06:55:19Z</time>
      </trkpt>
      <trkpt lat="38.097701389342546" lon="12.663186024874449">
        <ele>23.690000000000001</ele>
        <time>2017-09-22T06:55:29Z</time>
      </trkpt>
      <trkpt lat="38.097694264724851" lon="12.663217205554247">
        <ele>23.690000000000001</ele>
        <time>2017-09-22T06:55:32Z</time>
      </trkpt>
      <trkpt lat="38.097715638577938" lon="12.663348969072104">
        <ele>24.170000000000002</ele>
        <time>2017-09-22T06:55:43Z</time>
      </trkpt>
      <trkpt lat="38.097717231139541" lon="12.663352740928531">
        <ele>24.170000000000002</ele>
        <time>2017-09-22T06:55:44Z</time>
      </trkpt>
      <trkpt lat="38.09773282147944" lon="12.663407642394304">
        <ele>25.129999999999999</ele>
        <time>2017-09-22T06:55:49Z</time>
      </trkpt>
      <trkpt lat="38.097753608599305" lon="12.663509482517838">
        <ele>25.609999999999999</ele>
        <time>2017-09-22T06:56:00Z</time>
      </trkpt>
      <trkpt lat="38.097734162583947" lon="12.663539154455066">
        <ele>26.09</ele>
        <time>2017-09-22T06:56:03Z</time>
      </trkpt>
      <trkpt lat="38.097682446241379" lon="12.663673097267747">
        <ele>26.09</ele>
        <time>2017-09-22T06:56:15Z</time>
      </trkpt>
      <trkpt lat="38.097654031589627" lon="12.663709223270416">
        <ele>26.09</ele>
        <time>2017-09-22T06:56:19Z</time>
      </trkpt>
      <trkpt lat="38.097561914473772" lon="12.66381642781198">
        <ele>25.609999999999999</ele>
        <time>2017-09-22T06:56:31Z</time>
      </trkpt>
      <trkpt lat="38.097525788471103" lon="12.663876693695784">
        <ele>26.09</ele>
        <time>2017-09-22T06:56:41Z</time>
      </trkpt>
      <trkpt lat="38.097528051584959" lon="12.663866551592946">
        <ele>26.09</ele>
        <time>2017-09-22T06:56:44Z</time>
      </trkpt>
      <trkpt lat="38.09752126224339" lon="12.663906868547201">
        <ele>26.57</ele>
        <time>2017-09-22T06:56:54Z</time>
      </trkpt>
      <trkpt lat="38.09757792390883" lon="12.663947772234678">
        <ele>27.050000000000001</ele>
        <time>2017-09-22T06:57:03Z</time>
      </trkpt>
      <trkpt lat="38.097651768475771" lon="12.663992280140519">
        <ele>28.02</ele>
        <time>2017-09-22T06:57:13Z</time>
      </trkpt>
      <trkpt lat="38.097741790115833" lon="12.66403921879828">
        <ele>28.5</ele>
        <time>2017-09-22T06:57:23Z</time>
      </trkpt>
      <trkpt lat="38.097843462601304" lon="12.664077775552869">
        <ele>29.940000000000001</ele>
        <time>2017-09-22T06:57:34Z</time>
      </trkpt>
      <trkpt lat="38.097919905558228" lon="12.664114153012633">
        <ele>30.899999999999999</ele>
        <time>2017-09-22T06:57:43Z</time>
      </trkpt>
      <trkpt lat="38.098023673519492" lon="12.664177687838674">
        <ele>32.340000000000003</ele>
        <time>2017-09-22T06:57:55Z</time>
      </trkpt>
      <trkpt lat="38.098103385418653" lon="12.664218759164214">
        <ele>33.780000000000001</ele>
        <time>2017-09-22T06:58:05Z</time>
      </trkpt>
      <trkpt lat="38.098187455907464" lon="12.66426008194685">
        <ele>34.740000000000002</ele>
        <time>2017-09-22T06:58:15Z</time>
      </trkpt>
      <trkpt lat="38.098278231918812" lon="12.6643006503582">
        <ele>35.710000000000001</ele>
        <time>2017-09-22T06:58:25Z</time>
      </trkpt>
      <trkpt lat="38.098382418975234" lon="12.664347421377897">
        <ele>37.149999999999999</ele>
        <time>2017-09-22T06:58:36Z</time>
      </trkpt>
      <trkpt lat="38.098411839455366" lon="12.664364269003272">
        <ele>37.149999999999999</ele>
        <time>2017-09-22T06:58:39Z</time>
      </trkpt>
      <trkpt lat="38.098520468920469" lon="12.66441548243165">
        <ele>38.109999999999999</ele>
        <time>2017-09-22T06:58:51Z</time>
      </trkpt>
      <trkpt lat="38.098576627671719" lon="12.664425708353519">
        <ele>39.07</ele>
        <time>2017-09-22T06:58:58Z</time>
      </trkpt>
      <trkpt lat="38.09865290299058" lon="12.664448088034987">
        <ele>39.549999999999997</ele>
        <time>2017-09-22T06:59:07Z</time>
      </trkpt>
      <trkpt lat="38.098745103925467" lon="12.664463426917791">
        <ele>41.950000000000003</ele>
        <time>2017-09-22T06:59:17Z</time>
      </trkpt>
      <trkpt lat="38.098764717578888" lon="12.664465187117457">
        <ele>40.509999999999998</ele>
        <time>2017-09-22T06:59:19Z</time>
      </trkpt>
      <trkpt lat="38.098872425034642" lon="12.664462085813284">
        <ele>40.990000000000002</ele>
        <time>2017-09-22T06:59:30Z</time>
      </trkpt>
      <trkpt lat="38.098943335935473" lon="12.664466695860028">
        <ele>41.469999999999999</ele>
        <time>2017-09-22T06:59:37Z</time>
      </trkpt>
      <trkpt lat="38.099069148302078" lon="12.664461582899094">
        <ele>41.950000000000003</ele>
        <time>2017-09-22T06:59:49Z</time>
      </trkpt>
      <trkpt lat="38.099169647321105" lon="12.664468288421631">
        <ele>43.399999999999999</ele>
        <time>2017-09-22T06:59:59Z</time>
      </trkpt>
      <trkpt lat="38.099266290664673" lon="12.664480106905103">
        <ele>43.880000000000003</ele>
        <time>2017-09-22T07:00:09Z</time>
      </trkpt>
      <trkpt lat="38.09936729259789" lon="12.664500558748841">
        <ele>44.840000000000003</ele>
        <time>2017-09-22T07:00:19Z</time>
      </trkpt>
      <trkpt lat="38.099425714462996" lon="12.664600303396583">
        <ele>45.32</ele>
        <time>2017-09-22T07:00:29Z</time>
      </trkpt>
      <trkpt lat="38.099475083872676" lon="12.664688983932137">
        <ele>46.280000000000001</ele>
        <time>2017-09-22T07:00:38Z</time>
      </trkpt>
      <trkpt lat="38.099465947598219" lon="12.664760984480381">
        <ele>46.759999999999998</ele>
        <time>2017-09-22T07:00:44Z</time>
      </trkpt>
      <trkpt lat="38.099406519904733" lon="12.664898028597236">
        <ele>46.759999999999998</ele>
        <time>2017-09-22T07:00:55Z</time>
      </trkpt>
      <trkpt lat="38.09930719435215" lon="12.665005149319768">
        <ele>47.240000000000002</ele>
        <time>2017-09-22T07:01:07Z</time>
      </trkpt>
      <trkpt lat="38.099283473566175" lon="12.665030211210251">
        <ele>47.240000000000002</ele>
        <time>2017-09-22T07:01:10Z</time>
      </trkpt>
      <trkpt lat="38.099242234602571" lon="12.66506290063262">
        <ele>47.240000000000002</ele>
        <time>2017-09-22T07:01:15Z</time>
      </trkpt>
      <trkpt lat="38.099215747788548" lon="12.665087291970849">
        <ele>47.719999999999999</ele>
        <time>2017-09-22T07:01:18Z</time>
      </trkpt>
      <trkpt lat="38.099173922091722" lon="12.665129620581865">
        <ele>46.759999999999998</ele>
        <time>2017-09-22T07:01:23Z</time>
      </trkpt>
      <trkpt lat="38.099076105281711" lon="12.665215618908405">
        <ele>46.280000000000001</ele>
        <time>2017-09-22T07:01:34Z</time>
      </trkpt>
      <trkpt lat="38.099009720608592" lon="12.665267670527101">
        <ele>46.759999999999998</ele>
        <time>2017-09-22T07:01:43Z</time>
      </trkpt>
      <trkpt lat="38.098990945145488" lon="12.665276890620589">
        <ele>46.759999999999998</ele>
        <time>2017-09-22T07:01:45Z</time>
      </trkpt>
      <trkpt lat="38.098893715068698" lon="12.665412761271">
        <ele>47.240000000000002</ele>
        <time>2017-09-22T07:01:59Z</time>
      </trkpt>
      <trkpt lat="38.098838981240988" lon="12.665538070723414">
        <ele>47.719999999999999</ele>
        <time>2017-09-22T07:02:10Z</time>
      </trkpt>
      <trkpt lat="38.098823223263025" lon="12.665605377405882">
        <ele>48.200000000000003</ele>
        <time>2017-09-22T07:02:16Z</time>
      </trkpt>
      <trkpt lat="38.098810650408268" lon="12.665625074878335">
        <ele>48.200000000000003</ele>
        <time>2017-09-22T07:02:18Z</time>
      </trkpt>
      <trkpt lat="38.098746612668037" lon="12.665739068761468">
        <ele>48.200000000000003</ele>
        <time>2017-09-22T07:02:30Z</time>
      </trkpt>
      <trkpt lat="38.098678970709443" lon="12.665847865864635">
        <ele>48.68</ele>
        <time>2017-09-22T07:02:42Z</time>
      </trkpt>
      <trkpt lat="38.09860797598958" lon="12.665957920253277">
        <ele>49.159999999999997</ele>
        <time>2017-09-22T07:02:53Z</time>
      </trkpt>
      <trkpt lat="38.098569419234991" lon="12.666025143116713">
        <ele>49.159999999999997</ele>
        <time>2017-09-22T07:03:00Z</time>
      </trkpt>
      <trkpt lat="38.09853857383132" lon="12.666078116744757">
        <ele>49.159999999999997</ele>
        <time>2017-09-22T07:03:13Z</time>
      </trkpt>
      <trkpt lat="38.098501358181238" lon="12.666160929948092">
        <ele>49.649999999999999</ele>
        <time>2017-09-22T07:03:23Z</time>
      </trkpt>
      <trkpt lat="38.098441427573562" lon="12.66628741286695">
        <ele>50.130000000000003</ele>
        <time>2017-09-22T07:03:35Z</time>
      </trkpt>
      <trkpt lat="38.098427513614297" lon="12.666313983500004">
        <ele>50.130000000000003</ele>
        <time>2017-09-22T07:03:38Z</time>
      </trkpt>
      <trkpt lat="38.098387280479074" lon="12.666403837502003">
        <ele>50.609999999999999</ele>
        <time>2017-09-22T07:03:49Z</time>
      </trkpt>
      <trkpt lat="38.09834604151547" lon="12.666577342897654">
        <ele>51.57</ele>
        <time>2017-09-22T07:04:02Z</time>
      </trkpt>
      <trkpt lat="38.098384011536837" lon="12.666767360642552">
        <ele>52.530000000000001</ele>
        <time>2017-09-22T07:04:17Z</time>
      </trkpt>
      <trkpt lat="38.098399350419641" lon="12.666919408366084">
        <ele>53.969999999999999</ele>
        <time>2017-09-22T07:04:29Z</time>
      </trkpt>
      <trkpt lat="38.098410330712795" lon="12.666960563510656">
        <ele>53.969999999999999</ele>
        <time>2017-09-22T07:04:32Z</time>
      </trkpt>
      <trkpt lat="38.098477469757199" lon="12.667108839377761">
        <ele>55.409999999999997</ele>
        <time>2017-09-22T07:04:44Z</time>
      </trkpt>
      <trkpt lat="38.098509991541505" lon="12.667254516854882">
        <ele>56.369999999999997</ele>
        <time>2017-09-22T07:04:55Z</time>
      </trkpt>
      <trkpt lat="38.098548213019967" lon="12.667398937046528">
        <ele>57.340000000000003</ele>
        <time>2017-09-22T07:05:07Z</time>
      </trkpt>
      <trkpt lat="38.098596073687077" lon="12.667547715827823">
        <ele>59.259999999999998</ele>
        <time>2017-09-22T07:05:19Z</time>
      </trkpt>
      <trkpt lat="38.098600432276726" lon="12.667558696120977">
        <ele>58.780000000000001</ele>
        <time>2017-09-22T07:05:20Z</time>
      </trkpt>
      <trkpt lat="38.098633959889412" lon="12.66764922067523">
        <ele>59.740000000000002</ele>
        <time>2017-09-22T07:05:30Z</time>
      </trkpt>
      <trkpt lat="38.09865977615118" lon="12.667711665853858">
        <ele>60.219999999999999</ele>
        <time>2017-09-22T07:05:42Z</time>
      </trkpt>
      <trkpt lat="38.098671343177557" lon="12.667754832655191">
        <ele>60.700000000000003</ele>
        <time>2017-09-22T07:05:49Z</time>
      </trkpt>
      <trkpt lat="38.098704535514116" lon="12.667904114350677">
        <ele>62.140000000000001</ele>
        <time>2017-09-22T07:06:03Z</time>
      </trkpt>
      <trkpt lat="38.09875750914216" lon="12.668059263378382">
        <ele>63.579999999999998</ele>
        <time>2017-09-22T07:06:18Z</time>
      </trkpt>
      <trkpt lat="38.098789025098085" lon="12.668198319151998">
        <ele>64.549999999999997</ele>
        <time>2017-09-22T07:06:30Z</time>
      </trkpt>
      <trkpt lat="38.098792880773544" lon="12.668339554220438">
        <ele>65.510000000000005</ele>
        <time>2017-09-22T07:06:44Z</time>
      </trkpt>
      <trkpt lat="38.098806291818619" lon="12.668463354930282">
        <ele>66.469999999999999</ele>
        <time>2017-09-22T07:06:57Z</time>
      </trkpt>
      <trkpt lat="38.098841831088066" lon="12.668586568906903">
        <ele>67.909999999999997</ele>
        <time>2017-09-22T07:07:10Z</time>
      </trkpt>
      <trkpt lat="38.098869072273374" lon="12.668712045997381">
        <ele>69.349999999999994</ele>
        <time>2017-09-22T07:07:22Z</time>
      </trkpt>
      <trkpt lat="38.098901007324457" lon="12.668800055980682">
        <ele>70.790000000000006</ele>
        <time>2017-09-22T07:07:34Z</time>
      </trkpt>
      <trkpt lat="38.098928751423955" lon="12.668866105377674">
        <ele>71.760000000000005</ele>
        <time>2017-09-22T07:07:45Z</time>
      </trkpt>
      <trkpt lat="38.098975270986557" lon="12.668884797021747">
        <ele>71.760000000000005</ele>
        <time>2017-09-22T07:07:57Z</time>
      </trkpt>
      <trkpt lat="38.098960099741817" lon="12.668924946337938">
        <ele>71.760000000000005</ele>
        <time>2017-09-22T07:08:09Z</time>
      </trkpt>
      <trkpt lat="38.098952639847994" lon="12.668922347947955">
        <ele>71.760000000000005</ele>
        <time>2017-09-22T07:08:23Z</time>
      </trkpt>
      <trkpt lat="38.098937217146158" lon="12.668974734842777">
        <ele>72.239999999999995</ele>
        <time>2017-09-22T07:08:36Z</time>
      </trkpt>
      <trkpt lat="38.098945347592235" lon="12.668970711529255">
        <ele>72.719999999999999</ele>
        <time>2017-09-22T07:08:48Z</time>
      </trkpt>
      <trkpt lat="38.098935959860682" lon="12.668989151716232">
        <ele>72.719999999999999</ele>
        <time>2017-09-22T07:09:00Z</time>
      </trkpt>
      <trkpt lat="38.098952639847994" lon="12.669002311304212">
        <ele>72.719999999999999</ele>
        <time>2017-09-22T07:09:16Z</time>
      </trkpt>
      <trkpt lat="38.098941827192903" lon="12.66900323331356">
        <ele>72.719999999999999</ele>
        <time>2017-09-22T07:09:33Z</time>
      </trkpt>
      <trkpt lat="38.09894559904933" lon="12.669002814218402">
        <ele>72.719999999999999</ele>
        <time>2017-09-22T07:09:52Z</time>
      </trkpt>
      <trkpt lat="38.098957920446992" lon="12.668988816440105">
        <ele>72.719999999999999</ele>
        <time>2017-09-22T07:10:11Z</time>
      </trkpt>
      <trkpt lat="38.098941575735807" lon="12.668986972421408">
        <ele>73.680000000000007</ele>
        <time>2017-09-22T07:10:27Z</time>
      </trkpt>
      <trkpt lat="38.098950376734138" lon="12.668978925794363">
        <ele>72.719999999999999</ele>
        <time>2017-09-22T07:10:43Z</time>
      </trkpt>
      <trkpt lat="38.098963284865022" lon="12.668978841975331">
        <ele>72.719999999999999</ele>
        <time>2017-09-22T07:11:03Z</time>
      </trkpt>
      <trkpt lat="38.09896663762629" lon="12.66899099573493">
        <ele>72.719999999999999</ele>
        <time>2017-09-22T07:11:22Z</time>
      </trkpt>
      <trkpt lat="38.098975187167525" lon="12.668984038755298">
        <ele>72.719999999999999</ele>
        <time>2017-09-22T07:11:45Z</time>
      </trkpt>
      <trkpt lat="38.098961776122451" lon="12.668987223878503">
        <ele>72.719999999999999</ele>
        <time>2017-09-22T07:12:11Z</time>
      </trkpt>
      <trkpt lat="38.098956495523453" lon="12.668995521962643">
        <ele>72.719999999999999</ele>
        <time>2017-09-22T07:12:35Z</time>
      </trkpt>
      <trkpt lat="38.09895196929574" lon="12.669002814218402">
        <ele>72.719999999999999</ele>
        <time>2017-09-22T07:12:56Z</time>
      </trkpt>
      <trkpt lat="38.098958758637309" lon="12.66899736598134">
        <ele>72.719999999999999</ele>
        <time>2017-09-22T07:13:09Z</time>
      </trkpt>
      <trkpt lat="38.098961189389229" lon="12.669023601338267">
        <ele>72.719999999999999</ele>
        <time>2017-09-22T07:13:27Z</time>
      </trkpt>
      <trkpt lat="38.099001841619611" lon="12.669051261618733">
        <ele>73.200000000000003</ele>
        <time>2017-09-22T07:13:38Z</time>
      </trkpt>
      <trkpt lat="38.099071327596903" lon="12.669082107022405">
        <ele>74.640000000000001</ele>
        <time>2017-09-22T07:13:50Z</time>
      </trkpt>
      <trkpt lat="38.099111476913095" lon="12.669165758416057">
        <ele>75.120000000000005</ele>
        <time>2017-09-22T07:14:01Z</time>
      </trkpt>
      <trkpt lat="38.099088426679373" lon="12.66929978504777">
        <ele>76.560000000000002</ele>
        <time>2017-09-22T07:14:14Z</time>
      </trkpt>
      <trkpt lat="38.099072752520442" lon="12.669375305995345">
        <ele>77.519999999999996</ele>
        <time>2017-09-22T07:14:25Z</time>
      </trkpt>
      <trkpt lat="38.099082224071026" lon="12.669462477788329">
        <ele>78.969999999999999</ele>
        <time>2017-09-22T07:14:36Z</time>
      </trkpt>
      <trkpt lat="38.099080799147487" lon="12.669510338455439">
        <ele>79.450000000000003</ele>
        <time>2017-09-22T07:14:47Z</time>
      </trkpt>
      <trkpt lat="38.09905800037086" lon="12.669556858018041">
        <ele>79.930000000000007</ele>
        <time>2017-09-22T07:15:02Z</time>
      </trkpt>
      <trkpt lat="38.099039308726788" lon="12.669666660949588">
        <ele>80.890000000000001</ele>
        <time>2017-09-22T07:15:14Z</time>
      </trkpt>
      <trkpt lat="38.099041152745485" lon="12.669713515788317">
        <ele>81.849999999999994</ele>
        <time>2017-09-22T07:15:21Z</time>
      </trkpt>
      <trkpt lat="38.0990438349545" lon="12.669794820249081">
        <ele>82.810000000000002</ele>
        <time>2017-09-22T07:15:32Z</time>
      </trkpt>
      <trkpt lat="38.09903553687036" lon="12.669870927929878">
        <ele>84.25</ele>
        <time>2017-09-22T07:15:42Z</time>
      </trkpt>
      <trkpt lat="38.099027154967189" lon="12.66988274641335">
        <ele>84.730000000000004</ele>
        <time>2017-09-22T07:15:44Z</time>
      </trkpt>
      <trkpt lat="38.099002428352833" lon="12.669953238219023">
        <ele>86.180000000000007</ele>
        <time>2017-09-22T07:15:54Z</time>
      </trkpt>
      <trkpt lat="38.099003518000245" lon="12.669965224340558">
        <ele>86.180000000000007</ele>
        <time>2017-09-22T07:15:56Z</time>
      </trkpt>
      <trkpt lat="38.098979126662016" lon="12.670029681175947">
        <ele>87.140000000000001</ele>
        <time>2017-09-22T07:16:03Z</time>
      </trkpt>
      <trkpt lat="38.099020700901747" lon="12.67004057765007">
        <ele>88.099999999999994</ele>
        <time>2017-09-22T07:16:11Z</time>
      </trkpt>
      <trkpt lat="38.099106028676033" lon="12.670038398355246">
        <ele>88.579999999999998</ele>
        <time>2017-09-22T07:16:21Z</time>
      </trkpt>
      <trkpt lat="38.099141903221607" lon="12.67004007473588">
        <ele>89.060000000000002</ele>
        <time>2017-09-22T07:16:26Z</time>
      </trkpt>
      <trkpt lat="38.099231170490384" lon="12.670064717531204">
        <ele>89.060000000000002</ele>
        <time>2017-09-22T07:16:36Z</time>
      </trkpt>
      <trkpt lat="38.099285066127777" lon="12.670075027272105">
        <ele>89.060000000000002</ele>
        <time>2017-09-22T07:16:41Z</time>
      </trkpt>
      <trkpt lat="38.099380871281028" lon="12.670082319527864">
        <ele>90.5</ele>
        <time>2017-09-22T07:16:52Z</time>
      </trkpt>
      <trkpt lat="38.099490841850638" lon="12.670049881562591">
        <ele>90.980000000000004</ele>
        <time>2017-09-22T07:17:04Z</time>
      </trkpt>
      <trkpt lat="38.099528644233942" lon="12.670023394748569">
        <ele>91.459999999999994</ele>
        <time>2017-09-22T07:17:09Z</time>
      </trkpt>
      <trkpt lat="38.099620593711734" lon="12.670000847429037">
        <ele>92.420000000000002</ele>
        <time>2017-09-22T07:17:20Z</time>
      </trkpt>
      <trkpt lat="38.099696952849627" lon="12.669973941519856">
        <ele>93.870000000000005</ele>
        <time>2017-09-22T07:17:29Z</time>
      </trkpt>
      <trkpt lat="38.099773311987519" lon="12.669972348958254">
        <ele>95.310000000000002</ele>
        <time>2017-09-22T07:17:39Z</time>
      </trkpt>
      <trkpt lat="38.099848749116063" lon="12.669955836609006">
        <ele>96.269999999999996</ele>
        <time>2017-09-22T07:17:49Z</time>
      </trkpt>
      <trkpt lat="38.099909266456962" lon="12.669999673962593">
        <ele>98.189999999999998</ele>
        <time>2017-09-22T07:17:59Z</time>
      </trkpt>
      <trkpt lat="38.099913960322738" lon="12.670004116371274">
        <ele>98.189999999999998</ele>
        <time>2017-09-22T07:18:00Z</time>
      </trkpt>
      <trkpt lat="38.09993751347065" lon="12.670056922361255">
        <ele>99.150000000000006</ele>
        <time>2017-09-22T07:18:07Z</time>
      </trkpt>
      <trkpt lat="38.099923431873322" lon="12.670160522684455">
        <ele>101.08</ele>
        <time>2017-09-22T07:18:18Z</time>
      </trkpt>
      <trkpt lat="38.099917564541101" lon="12.670193798840046">
        <ele>101.08</ele>
        <time>2017-09-22T07:18:21Z</time>
      </trkpt>
      <trkpt lat="38.099903902038932" lon="12.670216849073768">
        <ele>101.56</ele>
        <time>2017-09-22T07:18:23Z</time>
      </trkpt>
      <trkpt lat="38.099872721359134" lon="12.670315001159906">
        <ele>102.52</ele>
        <time>2017-09-22T07:18:33Z</time>
      </trkpt>
      <trkpt lat="38.099856963381171" lon="12.670355569571257">
        <ele>103</ele>
        <time>2017-09-22T07:18:38Z</time>
      </trkpt>
      <trkpt lat="38.099847156554461" lon="12.670460510998964">
        <ele>103.95999999999999</ele>
        <time>2017-09-22T07:18:48Z</time>
      </trkpt>
      <trkpt lat="38.099856544286013" lon="12.670518010854721">
        <ele>104.92</ele>
        <time>2017-09-22T07:18:55Z</time>
      </trkpt>
      <trkpt lat="38.099824693053961" lon="12.670612977817655">
        <ele>106.36</ele>
        <time>2017-09-22T07:19:05Z</time>
      </trkpt>
      <trkpt lat="38.099798792973161" lon="12.670712973922491">
        <ele>107.31999999999999</ele>
        <time>2017-09-22T07:19:15Z</time>
      </trkpt>
      <trkpt lat="38.099793763831258" lon="12.670732168480754">
        <ele>107.81</ele>
        <time>2017-09-22T07:19:18Z</time>
      </trkpt>
      <trkpt lat="38.099768199026585" lon="12.670832918956876">
        <ele>109.25</ele>
        <time>2017-09-22T07:19:29Z</time>
      </trkpt>
      <trkpt lat="38.099755374714732" lon="12.670851442962885">
        <ele>109.73</ele>
        <time>2017-09-22T07:19:32Z</time>
      </trkpt>
      <trkpt lat="38.099727798253298" lon="12.670922353863716">
        <ele>111.17</ele>
        <time>2017-09-22T07:19:42Z</time>
      </trkpt>
      <trkpt lat="38.099741879850626" lon="12.670972645282745">
        <ele>112.61</ele>
        <time>2017-09-22T07:19:49Z</time>
      </trkpt>
      <trkpt lat="38.099729306995869" lon="12.670991756021976">
        <ele>113.09</ele>
        <time>2017-09-22T07:19:58Z</time>
      </trkpt>
      <trkpt lat="38.099751183763146" lon="12.671025115996599">
        <ele>114.05</ele>
        <time>2017-09-22T07:20:10Z</time>
      </trkpt>
      <trkpt lat="38.099770462140441" lon="12.671006340533495">
        <ele>113.56999999999999</ele>
        <time>2017-09-22T07:20:15Z</time>
      </trkpt>
      <trkpt lat="38.099802732467651" lon="12.670998964458704">
        <ele>114.05</ele>
        <time>2017-09-22T07:20:18Z</time>
      </trkpt>
      <trkpt lat="38.099881103262305" lon="12.670962922275066">
        <ele>115.01000000000001</ele>
        <time>2017-09-22T07:20:28Z</time>
      </trkpt>
      <trkpt lat="38.099986715242267" lon="12.67087415792048">
        <ele>116.94</ele>
        <time>2017-09-22T07:20:40Z</time>
      </trkpt>
      <trkpt lat="38.100030971691012" lon="12.670840295031667">
        <ele>117.42</ele>
        <time>2017-09-22T07:20:45Z</time>
      </trkpt>
      <trkpt lat="38.100144462659955" lon="12.670750273391604">
        <ele>119.34</ele>
        <time>2017-09-22T07:20:58Z</time>
      </trkpt>
      <trkpt lat="38.100227192044258" lon="12.670675422996283">
        <ele>120.78</ele>
        <time>2017-09-22T07:21:10Z</time>
      </trkpt>
      <trkpt lat="38.100260719656944" lon="12.670675087720156">
        <ele>121.73999999999999</ele>
        <time>2017-09-22T07:21:21Z</time>
      </trkpt>
      <trkpt lat="38.100293828174472" lon="12.67072613351047">
        <ele>122.70999999999999</ele>
        <time>2017-09-22T07:21:30Z</time>
      </trkpt>
      <trkpt lat="38.100310675799847" lon="12.670841468498111">
        <ele>124.63</ele>
        <time>2017-09-22T07:21:42Z</time>
      </trkpt>
      <trkpt lat="38.100303215906024" lon="12.670948756858706">
        <ele>126.55</ele>
        <time>2017-09-22T07:21:55Z</time>
      </trkpt>
      <trkpt lat="38.10029860585928" lon="12.67105202190578">
        <ele>127.03</ele>
        <time>2017-09-22T07:22:08Z</time>
      </trkpt>
      <trkpt lat="38.100310256704688" lon="12.671166518703103">
        <ele>129.91999999999999</ele>
        <time>2017-09-22T07:22:23Z</time>
      </trkpt>
      <trkpt lat="38.100301874801517" lon="12.671281853690743">
        <ele>131.84</ele>
        <time>2017-09-22T07:22:38Z</time>
      </trkpt>
      <trkpt lat="38.100294331088662" lon="12.671394422650337">
        <ele>131.84</ele>
        <time>2017-09-22T07:22:52Z</time>
      </trkpt>
      <trkpt lat="38.100292403250933" lon="12.671411940827966">
        <ele>133.28</ele>
        <time>2017-09-22T07:22:55Z</time>
      </trkpt>
      <trkpt lat="38.100272538140416" lon="12.671526437625289">
        <ele>134.24000000000001</ele>
        <time>2017-09-22T07:23:08Z</time>
      </trkpt>
      <trkpt lat="38.100260216742754" lon="12.671613106504083">
        <ele>134.24000000000001</ele>
        <time>2017-09-22T07:23:21Z</time>
      </trkpt>
      <trkpt lat="38.100251751020551" lon="12.671650741249323">
        <ele>136.16</ele>
        <time>2017-09-22T07:23:30Z</time>
      </trkpt>
      <trkpt lat="38.100244039669633" lon="12.671715030446649">
        <ele>138.09</ele>
        <time>2017-09-22T07:23:40Z</time>
      </trkpt>
      <trkpt lat="38.100227192044258" lon="12.6718142721802">
        <ele>138.09</ele>
        <time>2017-09-22T07:23:53Z</time>
      </trkpt>
      <trkpt lat="38.100214786827564" lon="12.671869089826941">
        <ele>140.97</ele>
        <time>2017-09-22T07:24:01Z</time>
      </trkpt>
      <trkpt lat="38.100195592269301" lon="12.671964140608907">
        <ele>142.41</ele>
        <time>2017-09-22T07:24:11Z</time>
      </trkpt>
      <trkpt lat="38.100134572014213" lon="12.672058856114745">
        <ele>144.34</ele>
        <time>2017-09-22T07:24:23Z</time>
      </trkpt>
      <trkpt lat="38.100098026916385" lon="12.672134712338448">
        <ele>146.25999999999999</ele>
        <time>2017-09-22T07:24:34Z</time>
      </trkpt>
      <trkpt lat="38.100094422698021" lon="12.672169832512736">
        <ele>147.69999999999999</ele>
        <time>2017-09-22T07:24:43Z</time>
      </trkpt>
      <trkpt lat="38.100130632519722" lon="12.672216603532434">
        <ele>149.13999999999999</ele>
        <time>2017-09-22T07:24:52Z</time>
      </trkpt>
      <trkpt lat="38.10014714486897" lon="12.672291118651628">
        <ele>151.06</ele>
        <time>2017-09-22T07:25:02Z</time>
      </trkpt>
      <trkpt lat="38.100146139040589" lon="12.672383990138769">
        <ele>152.99000000000001</ele>
        <time>2017-09-22T07:25:15Z</time>
      </trkpt>
      <trkpt lat="38.100210009142756" lon="12.672434533014894">
        <ele>154.91</ele>
        <time>2017-09-22T07:25:27Z</time>
      </trkpt>
      <trkpt lat="38.100177738815546" lon="12.67249739728868">
        <ele>156.34999999999999</ele>
        <time>2017-09-22T07:25:39Z</time>
      </trkpt>
      <trkpt lat="38.100210428237915" lon="12.672568643465638">
        <ele>158.27000000000001</ele>
        <time>2017-09-22T07:25:51Z</time>
      </trkpt>
      <trkpt lat="38.100193999707699" lon="12.672565625980496">
        <ele>158.75</ele>
        <time>2017-09-22T07:25:59Z</time>
      </trkpt>
      <trkpt lat="38.100248230621219" lon="12.672594878822565">
        <ele>159.72</ele>
        <time>2017-09-22T07:26:06Z</time>
      </trkpt>
      <trkpt lat="38.100343532860279" lon="12.672649612650275">
        <ele>161.16</ele>
        <time>2017-09-22T07:26:18Z</time>
      </trkpt>
      <trkpt lat="38.10040321201086" lon="12.672673333436251">
        <ele>162.12</ele>
        <time>2017-09-22T07:26:27Z</time>
      </trkpt>
      <trkpt lat="38.100445037707686" lon="12.672758577391505">
        <ele>163.56</ele>
        <time>2017-09-22T07:26:38Z</time>
      </trkpt>
      <trkpt lat="38.100383263081312" lon="12.672800738364458">
        <ele>164.52000000000001</ele>
        <time>2017-09-22T07:26:48Z</time>
      </trkpt>
      <trkpt lat="38.100310424342752" lon="12.672852873802185">
        <ele>165.47999999999999</ele>
        <time>2017-09-22T07:27:01Z</time>
      </trkpt>
      <trkpt lat="38.100306317210197" lon="12.672913810238242">
        <ele>166.44999999999999</ele>
        <time>2017-09-22T07:27:12Z</time>
      </trkpt>
      <trkpt lat="38.100343197584152" lon="12.67290785908699">
        <ele>166.93000000000001</ele>
        <time>2017-09-22T07:27:22Z</time>
      </trkpt>
      <trkpt lat="38.100400865077972" lon="12.672941386699677">
        <ele>168.37</ele>
        <time>2017-09-22T07:27:33Z</time>
      </trkpt>
      <trkpt lat="38.100457778200507" lon="12.672989834100008">
        <ele>169.81</ele>
        <time>2017-09-22T07:27:43Z</time>
      </trkpt>
      <trkpt lat="38.100513014942408" lon="12.67299092374742">
        <ele>171.25</ele>
        <time>2017-09-22T07:27:53Z</time>
      </trkpt>
      <trkpt lat="38.100566659122705" lon="12.673019506037235">
        <ele>172.69</ele>
        <time>2017-09-22T07:28:03Z</time>
      </trkpt>
      <trkpt lat="38.100605634972453" lon="12.673069043084979">
        <ele>174.62</ele>
        <time>2017-09-22T07:28:13Z</time>
      </trkpt>
      <trkpt lat="38.100655926391482" lon="12.673143642023206">
        <ele>176.06</ele>
        <time>2017-09-22T07:28:25Z</time>
      </trkpt>
      <trkpt lat="38.100662296637893" lon="12.673142971470952">
        <ele>176.06</ele>
        <time>2017-09-22T07:28:26Z</time>
      </trkpt>
      <trkpt lat="38.100736644119024" lon="12.673144647851586">
        <ele>177.5</ele>
        <time>2017-09-22T07:28:37Z</time>
      </trkpt>
      <trkpt lat="38.100807555019855" lon="12.673188569024205">
        <ele>177.97999999999999</ele>
        <time>2017-09-22T07:28:49Z</time>
      </trkpt>
      <trkpt lat="38.100860109552741" lon="12.673256043344736">
        <ele>180.38</ele>
        <time>2017-09-22T07:29:03Z</time>
      </trkpt>
      <trkpt lat="38.100893972441554" lon="12.673277333378792">
        <ele>181.34999999999999</ele>
        <time>2017-09-22T07:29:13Z</time>
      </trkpt>
      <trkpt lat="38.100917022675276" lon="12.67333198338747">
        <ele>182.78999999999999</ele>
        <time>2017-09-22T07:29:23Z</time>
      </trkpt>
      <trkpt lat="38.100982569158077" lon="12.673376239836216">
        <ele>184.22999999999999</ele>
        <time>2017-09-22T07:29:36Z</time>
      </trkpt>
      <trkpt lat="38.101043086498976" lon="12.673424016684294">
        <ele>186.63</ele>
        <time>2017-09-22T07:29:48Z</time>
      </trkpt>
      <trkpt lat="38.10107845813036" lon="12.673468356952071">
        <ele>188.08000000000001</ele>
        <time>2017-09-22T07:30:00Z</time>
      </trkpt>
      <trkpt lat="38.101109974086285" lon="12.673528455197811">
        <ele>190.47999999999999</ele>
        <time>2017-09-22T07:30:12Z</time>
      </trkpt>
      <trkpt lat="38.101131012663245" lon="12.673599701374769">
        <ele>191.91999999999999</ele>
        <time>2017-09-22T07:30:23Z</time>
      </trkpt>
      <trkpt lat="38.101142328232527" lon="12.673648064956069">
        <ele>193.36000000000001</ele>
        <time>2017-09-22T07:30:34Z</time>
      </trkpt>
      <trkpt lat="38.101146016269922" lon="12.673705983906984">
        <ele>194.80000000000001</ele>
        <time>2017-09-22T07:30:44Z</time>
      </trkpt>
      <trkpt lat="38.101146603003144" lon="12.673772284761071">
        <ele>196.25</ele>
        <time>2017-09-22T07:30:55Z</time>
      </trkpt>
      <trkpt lat="38.101172000169754" lon="12.673814948648214">
        <ele>197.21000000000001</ele>
        <time>2017-09-22T07:31:05Z</time>
      </trkpt>
      <trkpt lat="38.101215669885278" lon="12.673871777951717">
        <ele>198.16999999999999</ele>
        <time>2017-09-22T07:31:17Z</time>
      </trkpt>
      <trkpt lat="38.10124458745122" lon="12.673932211473584">
        <ele>199.13</ele>
        <time>2017-09-22T07:31:29Z</time>
      </trkpt>
      <trkpt lat="38.101190272718668" lon="12.674032961949706">
        <ele>199.61000000000001</ele>
        <time>2017-09-22T07:31:40Z</time>
      </trkpt>
      <trkpt lat="38.101211981847882" lon="12.674115104600787">
        <ele>200.56999999999999</ele>
        <time>2017-09-22T07:31:53Z</time>
      </trkpt>
      <trkpt lat="38.101214915513992" lon="12.674210574477911">
        <ele>201.53</ele>
        <time>2017-09-22T07:32:04Z</time>
      </trkpt>
      <trkpt lat="38.101249700412154" lon="12.674304954707623">
        <ele>202.49000000000001</ele>
        <time>2017-09-22T07:32:16Z</time>
      </trkpt>
      <trkpt lat="38.101267972961068" lon="12.674373686313629">
        <ele>202.97999999999999</ele>
        <time>2017-09-22T07:32:23Z</time>
      </trkpt>
      <trkpt lat="38.10129982419312" lon="12.674487261101604">
        <ele>204.41999999999999</ele>
        <time>2017-09-22T07:32:36Z</time>
      </trkpt>
      <trkpt lat="38.101346846669912" lon="12.674537217244506">
        <ele>204.90000000000001</ele>
        <time>2017-09-22T07:32:46Z</time>
      </trkpt>
      <trkpt lat="38.101383727043867" lon="12.674601590260863">
        <ele>206.34</ele>
        <time>2017-09-22T07:32:57Z</time>
      </trkpt>
      <trkpt lat="38.101404765620828" lon="12.674709800630808">
        <ele>207.30000000000001</ele>
        <time>2017-09-22T07:33:08Z</time>
      </trkpt>
      <trkpt lat="38.101459247991443" lon="12.674783645197749">
        <ele>207.30000000000001</ele>
        <time>2017-09-22T07:33:19Z</time>
      </trkpt>
      <trkpt lat="38.101470479741693" lon="12.674793200567365">
        <ele>208.74000000000001</ele>
        <time>2017-09-22T07:33:22Z</time>
      </trkpt>
      <trkpt lat="38.1015201844275" lon="12.674825470894575">
        <ele>210.66999999999999</ele>
        <time>2017-09-22T07:33:34Z</time>
      </trkpt>
      <trkpt lat="38.101577181369066" lon="12.674871990457177">
        <ele>212.11000000000001</ele>
        <time>2017-09-22T07:33:44Z</time>
      </trkpt>
      <trkpt lat="38.101624622941017" lon="12.674935609102249">
        <ele>214.03</ele>
        <time>2017-09-22T07:33:56Z</time>
      </trkpt>
      <trkpt lat="38.101655216887593" lon="12.675043400377035">
        <ele>215.47</ele>
        <time>2017-09-22T07:34:09Z</time>
      </trkpt>
      <trkpt lat="38.101686900481582" lon="12.675140798091888">
        <ele>217.40000000000001</ele>
        <time>2017-09-22T07:34:22Z</time>
      </trkpt>
      <trkpt lat="38.101709196344018" lon="12.675232579931617">
        <ele>219.31999999999999</ele>
        <time>2017-09-22T07:34:33Z</time>
      </trkpt>
      <trkpt lat="38.101739790290594" lon="12.675290834158659">
        <ele>220.75999999999999</ele>
        <time>2017-09-22T07:34:44Z</time>
      </trkpt>
      <trkpt lat="38.101802067831159" lon="12.675360320135951">
        <ele>222.19999999999999</ele>
        <time>2017-09-22T07:34:57Z</time>
      </trkpt>
      <trkpt lat="38.10184950940311" lon="12.675429219380021">
        <ele>224.12</ele>
        <time>2017-09-22T07:35:08Z</time>
      </trkpt>
      <trkpt lat="38.101894939318299" lon="12.675505243241787">
        <ele>225.56999999999999</ele>
        <time>2017-09-22T07:35:19Z</time>
      </trkpt>
      <trkpt lat="38.101897621527314" lon="12.675618231296539">
        <ele>227.49000000000001</ele>
        <time>2017-09-22T07:35:32Z</time>
      </trkpt>
      <trkpt lat="38.101924527436495" lon="12.675703475251794">
        <ele>228.44999999999999</ele>
        <time>2017-09-22T07:35:43Z</time>
      </trkpt>
      <trkpt lat="38.101992672309279" lon="12.675776984542608">
        <ele>230.84999999999999</ele>
        <time>2017-09-22T07:35:59Z</time>
      </trkpt>
      <trkpt lat="38.102044053375721" lon="12.675815122202039">
        <ele>232.30000000000001</ele>
        <time>2017-09-22T07:36:10Z</time>
      </trkpt>
      <trkpt lat="38.102104403078556" lon="12.675855774432421">
        <ele>233.74000000000001</ele>
        <time>2017-09-22T07:36:21Z</time>
      </trkpt>
      <trkpt lat="38.102174140512943" lon="12.675913358107209">
        <ele>236.13999999999999</ele>
        <time>2017-09-22T07:36:34Z</time>
      </trkpt>
      <trkpt lat="38.102218732237816" lon="12.675971360877156">
        <ele>237.58000000000001</ele>
        <time>2017-09-22T07:36:44Z</time>
      </trkpt>
      <trkpt lat="38.102249158546329" lon="12.675992231816053">
        <ele>238.06</ele>
        <time>2017-09-22T07:36:56Z</time>
      </trkpt>
      <trkpt lat="38.102236753329635" lon="12.675995668396354">
        <ele>238.06</ele>
        <time>2017-09-22T07:37:02Z</time>
      </trkpt>
      <trkpt lat="38.102247398346663" lon="12.676011845469475">
        <ele>237.09999999999999</ele>
        <time>2017-09-22T07:37:09Z</time>
      </trkpt>
      <trkpt lat="38.10225167311728" lon="12.676014611497521">
        <ele>237.58000000000001</ele>
        <time>2017-09-22T07:37:41Z</time>
      </trkpt>
      <trkpt lat="38.102246643975377" lon="12.675997260957956">
        <ele>238.06</ele>
        <time>2017-09-22T07:37:56Z</time>
      </trkpt>
      <trkpt lat="38.102264916524291" lon="12.676006564870477">
        <ele>238.53999999999999</ele>
        <time>2017-09-22T07:38:06Z</time>
      </trkpt>
      <trkpt lat="38.102265084162354" lon="12.675996674224734">
        <ele>238.06</ele>
        <time>2017-09-22T07:38:20Z</time>
      </trkpt>
      <trkpt lat="38.102251756936312" lon="12.676005223765969">
        <ele>238.06</ele>
        <time>2017-09-22T07:38:39Z</time>
      </trkpt>
      <trkpt lat="38.102262653410435" lon="12.675992734730244">
        <ele>238.53999999999999</ele>
        <time>2017-09-22T07:39:00Z</time>
      </trkpt>
      <trkpt lat="38.102270280942321" lon="12.676005139946938">
        <ele>238.53999999999999</ele>
        <time>2017-09-22T07:39:12Z</time>
      </trkpt>
      <trkpt lat="38.102255780249834" lon="12.676005391404033">
        <ele>238.06</ele>
        <time>2017-09-22T07:39:15Z</time>
      </trkpt>
      <trkpt lat="38.102244297042489" lon="12.676037661731243">
        <ele>237.58000000000001</ele>
        <time>2017-09-22T07:39:22Z</time>
      </trkpt>
      <trkpt lat="38.102232646197081" lon="12.676042271777987">
        <ele>238.06</ele>
        <time>2017-09-22T07:40:04Z</time>
      </trkpt>
      <trkpt lat="38.102251254022121" lon="12.676041265949607">
        <ele>238.06</ele>
        <time>2017-09-22T07:40:39Z</time>
      </trkpt>
      <trkpt lat="38.102244967594743" lon="12.676022741943598">
        <ele>238.06</ele>
        <time>2017-09-22T07:41:19Z</time>
      </trkpt>
      <trkpt lat="38.10225460678339" lon="12.676021987572312">
        <ele>238.06</ele>
        <time>2017-09-22T07:42:00Z</time>
      </trkpt>
      <trkpt lat="38.102256786078215" lon="12.676029782742262">
        <ele>238.06</ele>
        <time>2017-09-22T07:42:34Z</time>
      </trkpt>
      <trkpt lat="38.102243123576045" lon="12.676005391404033">
        <ele>239.02000000000001</ele>
        <time>2017-09-22T07:43:11Z</time>
      </trkpt>
      <trkpt lat="38.102244129404426" lon="12.675999104976654">
        <ele>239.02000000000001</ele>
        <time>2017-09-22T07:43:13Z</time>
      </trkpt>
      <trkpt lat="38.10228637419641" lon="12.675920063629746">
        <ele>239.02000000000001</ele>
        <time>2017-09-22T07:43:22Z</time>
      </trkpt>
      <trkpt lat="38.102339180186391" lon="12.675844039767981">
        <ele>239.99000000000001</ele>
        <time>2017-09-22T07:43:32Z</time>
      </trkpt>
      <trkpt lat="38.102418724447489" lon="12.675778996199369">
        <ele>240.94999999999999</ele>
        <time>2017-09-22T07:43:43Z</time>
      </trkpt>
      <trkpt lat="38.102455269545317" lon="12.675740858539939">
        <ele>241.43000000000001</ele>
        <time>2017-09-22T07:43:48Z</time>
      </trkpt>
      <trkpt lat="38.102541351690888" lon="12.675656620413065">
        <ele>241.91</ele>
        <time>2017-09-22T07:43:59Z</time>
      </trkpt>
      <trkpt lat="38.102647047489882" lon="12.675709761679173">
        <ele>243.83000000000001</ele>
        <time>2017-09-22T07:44:12Z</time>
      </trkpt>
      <trkpt lat="38.102705301716924" lon="12.675781343132257">
        <ele>244.78999999999999</ele>
        <time>2017-09-22T07:44:22Z</time>
      </trkpt>
      <trkpt lat="38.102764394134283" lon="12.675876142457128">
        <ele>245.75</ele>
        <time>2017-09-22T07:44:33Z</time>
      </trkpt>
      <trkpt lat="38.102843016386032" lon="12.675940599292517">
        <ele>247.19999999999999</ele>
        <time>2017-09-22T07:44:45Z</time>
      </trkpt>
      <trkpt lat="38.102909987792373" lon="12.676005559042096">
        <ele>248.16</ele>
        <time>2017-09-22T07:44:54Z</time>
      </trkpt>
      <trkpt lat="38.102960530668497" lon="12.67606875859201">
        <ele>249.12</ele>
        <time>2017-09-22T07:45:04Z</time>
      </trkpt>
      <trkpt lat="38.103059437125921" lon="12.676181495189667">
        <ele>251.03999999999999</ele>
        <time>2017-09-22T07:45:22Z</time>
      </trkpt>
      <trkpt lat="38.103167228400707" lon="12.676289705559611">
        <ele>252.47999999999999</ele>
        <time>2017-09-22T07:45:37Z</time>
      </trkpt>
      <trkpt lat="38.103243336081505" lon="12.676366651430726">
        <ele>253.93000000000001</ele>
        <time>2017-09-22T07:45:49Z</time>
      </trkpt>
      <trkpt lat="38.103307541459799" lon="12.676444854587317">
        <ele>253.93000000000001</ele>
        <time>2017-09-22T07:45:59Z</time>
      </trkpt>
      <trkpt lat="38.103347020223737" lon="12.676510652527213">
        <ele>254.41</ele>
        <time>2017-09-22T07:46:12Z</time>
      </trkpt>
      <trkpt lat="38.103342829272151" lon="12.676508808508515">
        <ele>254.88999999999999</ele>
        <time>2017-09-22T07:46:24Z</time>
      </trkpt>
      <trkpt lat="38.103342158719897" lon="12.676512664183974">
        <ele>254.41</ele>
        <time>2017-09-22T07:46:35Z</time>
      </trkpt>
      <trkpt lat="38.103341991081834" lon="12.676517274230719">
        <ele>254.88999999999999</ele>
        <time>2017-09-22T07:46:54Z</time>
      </trkpt>
      <trkpt lat="38.103344924747944" lon="12.676505874842405">
        <ele>254.88999999999999</ele>
        <time>2017-09-22T07:47:11Z</time>
      </trkpt>
      <trkpt lat="38.103344002738595" lon="12.676506796851754">
        <ele>255.37</ele>
        <time>2017-09-22T07:47:26Z</time>
      </trkpt>
      <trkpt lat="38.103342745453119" lon="12.676539150997996">
        <ele>254.88999999999999</ele>
        <time>2017-09-22T07:47:43Z</time>
      </trkpt>
      <trkpt lat="38.103338051587343" lon="12.676503108814359">
        <ele>254.88999999999999</ele>
        <time>2017-09-22T07:47:59Z</time>
      </trkpt>
      <trkpt lat="38.103341907262802" lon="12.676503360271454">
        <ele>254.88999999999999</ele>
        <time>2017-09-22T07:48:14Z</time>
      </trkpt>
      <trkpt lat="38.103334782645106" lon="12.676495984196663">
        <ele>254.88999999999999</ele>
        <time>2017-09-22T07:48:30Z</time>
      </trkpt>
      <trkpt lat="38.103338051587343" lon="12.676503947004676">
        <ele>254.88999999999999</ele>
        <time>2017-09-22T07:48:50Z</time>
      </trkpt>
      <trkpt lat="38.103338554501534" lon="12.676504114642739">
        <ele>255.37</ele>
        <time>2017-09-22T07:49:06Z</time>
      </trkpt>
      <trkpt lat="38.103344002738595" lon="12.676520878449082">
        <ele>254.88999999999999</ele>
        <time>2017-09-22T07:49:23Z</time>
      </trkpt>
      <trkpt lat="38.103349786251783" lon="12.676526829600334">
        <ele>255.37</ele>
        <time>2017-09-22T07:49:42Z</time>
      </trkpt>
      <trkpt lat="38.103350372985005" lon="12.676506545394659">
        <ele>254.88999999999999</ele>
        <time>2017-09-22T07:49:54Z</time>
      </trkpt>
      <trkpt lat="38.10334668494761" lon="12.676507635042071">
        <ele>255.37</ele>
        <time>2017-09-22T07:50:13Z</time>
      </trkpt>
      <trkpt lat="38.103343332186341" lon="12.676516184583306">
        <ele>255.37</ele>
        <time>2017-09-22T07:50:26Z</time>
      </trkpt>
      <trkpt lat="38.103336710482836" lon="12.676522387191653">
        <ele>255.37</ele>
        <time>2017-09-22T07:50:43Z</time>
      </trkpt>
      <trkpt lat="38.103335369378328" lon="12.676509814336896">
        <ele>255.37</ele>
        <time>2017-09-22T07:50:59Z</time>
      </trkpt>
      <trkpt lat="38.1033403147012" lon="12.676521046087146">
        <ele>255.37</ele>
        <time>2017-09-22T07:51:17Z</time>
      </trkpt>
      <trkpt lat="38.10332028195262" lon="12.676493301987648">
        <ele>255.84999999999999</ele>
        <time>2017-09-22T07:51:31Z</time>
      </trkpt>
      <trkpt lat="38.103335285559297" lon="12.676503024995327">
        <ele>255.37</ele>
        <time>2017-09-22T07:51:43Z</time>
      </trkpt>
      <trkpt lat="38.103368226438761" lon="12.67644451931119">
        <ele>256.81</ele>
        <time>2017-09-22T07:51:53Z</time>
      </trkpt>
      <trkpt lat="38.103384738788009" lon="12.676378218457103">
        <ele>258.25</ele>
        <time>2017-09-22T07:52:05Z</time>
      </trkpt>
      <trkpt lat="38.103418266400695" lon="12.676307978108525">
        <ele>259.69</ele>
        <time>2017-09-22T07:52:16Z</time>
      </trkpt>
      <trkpt lat="38.103430671617389" lon="12.676221812143922">
        <ele>261.62</ele>
        <time>2017-09-22T07:52:27Z</time>
      </trkpt>
      <trkpt lat="38.103428659960628" lon="12.676137909293175">
        <ele>263.06</ele>
        <time>2017-09-22T07:52:38Z</time>
      </trkpt>
      <trkpt lat="38.103454224765301" lon="12.676070015877485">
        <ele>264.5</ele>
        <time>2017-09-22T07:52:48Z</time>
      </trkpt>
      <trkpt lat="38.103470653295517" lon="12.676000194624066">
        <ele>265.94</ele>
        <time>2017-09-22T07:52:59Z</time>
      </trkpt>
      <trkpt lat="38.103481214493513" lon="12.675911597907543">
        <ele>267.38</ele>
        <time>2017-09-22T07:53:11Z</time>
      </trkpt>
      <trkpt lat="38.103495799005032" lon="12.675848565995693">
        <ele>269.31</ele>
        <time>2017-09-22T07:53:23Z</time>
      </trkpt>
      <trkpt lat="38.103509545326233" lon="12.675772793591022">
        <ele>271.23000000000002</ele>
        <time>2017-09-22T07:53:34Z</time>
      </trkpt>
      <trkpt lat="38.103527734056115" lon="12.675688471645117">
        <ele>272.67000000000002</ele>
        <time>2017-09-22T07:53:46Z</time>
      </trkpt>
      <trkpt lat="38.103526728227735" lon="12.675611777231097">
        <ele>273.63</ele>
        <time>2017-09-22T07:53:56Z</time>
      </trkpt>
      <trkpt lat="38.103531170636415" lon="12.675510440021753">
        <ele>275.56</ele>
        <time>2017-09-22T07:54:11Z</time>
      </trkpt>
      <trkpt lat="38.103554723784328" lon="12.675410946831107">
        <ele>277.48000000000002</ele>
        <time>2017-09-22T07:54:24Z</time>
      </trkpt>
      <trkpt lat="38.103558411821723" lon="12.675312794744968">
        <ele>278.92000000000002</ele>
        <time>2017-09-22T07:54:35Z</time>
      </trkpt>
      <trkpt lat="38.103558914735913" lon="12.67522151581943">
        <ele>280.36000000000001</ele>
        <time>2017-09-22T07:54:46Z</time>
      </trkpt>
      <trkpt lat="38.103564949706197" lon="12.675128560513258">
        <ele>281.80000000000001</ele>
        <time>2017-09-22T07:54:58Z</time>
      </trkpt>
      <trkpt lat="38.103574756532907" lon="12.675030492246151">
        <ele>283.73000000000002</ele>
        <time>2017-09-22T07:55:11Z</time>
      </trkpt>
      <trkpt lat="38.10357634909451" lon="12.674953797832131">
        <ele>285.17000000000002</ele>
        <time>2017-09-22T07:55:23Z</time>
      </trkpt>
      <trkpt lat="38.10358221642673" lon="12.674832344055176">
        <ele>287.56999999999999</ele>
        <time>2017-09-22T07:55:40Z</time>
      </trkpt>
      <trkpt lat="38.103581294417381" lon="12.674755146726966">
        <ele>289.00999999999999</ele>
        <time>2017-09-22T07:55:51Z</time>
      </trkpt>
      <trkpt lat="38.103596214205027" lon="12.674656910821795">
        <ele>290.45999999999998</ele>
        <time>2017-09-22T07:56:04Z</time>
      </trkpt>
      <trkpt lat="38.103601494804025" lon="12.674568817019463">
        <ele>292.86000000000001</ele>
        <time>2017-09-22T07:56:17Z</time>
      </trkpt>
      <trkpt lat="38.103598561137915" lon="12.67448902130127">
        <ele>293.81999999999999</ele>
        <time>2017-09-22T07:56:25Z</time>
      </trkpt>
      <trkpt lat="38.103594286367297" lon="12.674377374351025">
        <ele>295.25999999999999</ele>
        <time>2017-09-22T07:56:37Z</time>
      </trkpt>
      <trkpt lat="38.103589089587331" lon="12.67427452839911">
        <ele>296.69999999999999</ele>
        <time>2017-09-22T07:56:51Z</time>
      </trkpt>
      <trkpt lat="38.103571990504861" lon="12.674177633598447">
        <ele>297.67000000000002</ele>
        <time>2017-09-22T07:57:02Z</time>
      </trkpt>
      <trkpt lat="38.103571655228734" lon="12.674052156507969">
        <ele>299.58999999999997</ele>
        <time>2017-09-22T07:57:17Z</time>
      </trkpt>
      <trkpt lat="38.103578193113208" lon="12.673998679965734">
        <ele>300.55000000000001</ele>
        <time>2017-09-22T07:57:29Z</time>
      </trkpt>
      <trkpt lat="38.103560004383326" lon="12.673938162624836">
        <ele>300.55000000000001</ele>
        <time>2017-09-22T07:57:48Z</time>
      </trkpt>
      <trkpt lat="38.103558914735913" lon="12.673763316124678">
        <ele>301.50999999999999</ele>
        <time>2017-09-22T07:58:01Z</time>
      </trkpt>
      <trkpt lat="38.103574672713876" lon="12.673620320856571">
        <ele>302.94999999999999</ele>
        <time>2017-09-22T07:58:12Z</time>
      </trkpt>
      <trkpt lat="38.103577522560954" lon="12.673587631434202">
        <ele>303.91000000000003</ele>
        <time>2017-09-22T07:58:15Z</time>
      </trkpt>
      <trkpt lat="38.103594705462456" lon="12.673467518761754">
        <ele>304.38999999999999</ele>
        <time>2017-09-22T07:58:26Z</time>
      </trkpt>
      <trkpt lat="38.103611469268799" lon="12.673380011692643">
        <ele>305.83999999999997</ele>
        <time>2017-09-22T07:58:38Z</time>
      </trkpt>
      <trkpt lat="38.10366234742105" lon="12.673378167673945">
        <ele>307.75999999999999</ele>
        <time>2017-09-22T07:58:49Z</time>
      </trkpt>
      <trkpt lat="38.103678273037076" lon="12.673441534861922">
        <ele>309.19999999999999</ele>
        <time>2017-09-22T07:58:58Z</time>
      </trkpt>
      <trkpt lat="38.103703670203686" lon="12.673532227054238">
        <ele>309.68000000000001</ele>
        <time>2017-09-22T07:59:10Z</time>
      </trkpt>
      <trkpt lat="38.103695204481483" lon="12.673546308651567">
        <ele>311.12</ele>
        <time>2017-09-22T07:59:24Z</time>
      </trkpt>
      <trkpt lat="38.103724457323551" lon="12.673634318634868">
        <ele>312.08999999999997</ele>
        <time>2017-09-22T07:59:37Z</time>
      </trkpt>
      <trkpt lat="38.103735269978642" lon="12.67369500361383">
        <ele>313.05000000000001</ele>
        <time>2017-09-22T07:59:47Z</time>
      </trkpt>
      <trkpt lat="38.10373610816896" lon="12.673704223707318">
        <ele>313.05000000000001</ele>
        <time>2017-09-22T08:00:01Z</time>
      </trkpt>
      <trkpt lat="38.103760499507189" lon="12.67378494143486">
        <ele>314.00999999999999</ele>
        <time>2017-09-22T08:00:11Z</time>
      </trkpt>
      <trkpt lat="38.103760415688157" lon="12.673787958920002">
        <ele>314.00999999999999</ele>
        <time>2017-09-22T08:00:12Z</time>
      </trkpt>
      <trkpt lat="38.103792099282146" lon="12.673856858164072">
        <ele>314.97000000000003</ele>
        <time>2017-09-22T08:00:19Z</time>
      </trkpt>
      <trkpt lat="38.103830823674798" lon="12.6739901304245">
        <ele>316.88999999999999</ele>
        <time>2017-09-22T08:00:30Z</time>
      </trkpt>
      <trkpt lat="38.103872062638402" lon="12.674078978598118">
        <ele>317.85000000000002</ele>
        <time>2017-09-22T08:00:40Z</time>
      </trkpt>
      <trkpt lat="38.103923862800002" lon="12.674166653305292">
        <ele>318.81</ele>
        <time>2017-09-22T08:00:53Z</time>
      </trkpt>
      <trkpt lat="38.10397507622838" lon="12.674263129010797">
        <ele>321.69999999999999</ele>
        <time>2017-09-22T08:01:06Z</time>
      </trkpt>
      <trkpt lat="38.103979686275125" lon="12.674270337447524">
        <ele>321.69999999999999</ele>
        <time>2017-09-22T08:01:07Z</time>
      </trkpt>
      <trkpt lat="38.104040957987309" lon="12.674354994669557">
        <ele>323.13999999999999</ele>
        <time>2017-09-22T08:01:19Z</time>
      </trkpt>
      <trkpt lat="38.104087561368942" lon="12.674410985782743">
        <ele>324.57999999999998</ele>
        <time>2017-09-22T08:01:30Z</time>
      </trkpt>
      <trkpt lat="38.104135254397988" lon="12.674471000209451">
        <ele>326.5</ele>
        <time>2017-09-22T08:01:42Z</time>
      </trkpt>
      <trkpt lat="38.104174062609673" lon="12.674531098455191">
        <ele>328.43000000000001</ele>
        <time>2017-09-22T08:01:53Z</time>
      </trkpt>
      <trkpt lat="38.104224018752575" lon="12.674616174772382">
        <ele>330.35000000000002</ele>
        <time>2017-09-22T08:02:07Z</time>
      </trkpt>
      <trkpt lat="38.10426970012486" lon="12.674674177542329">
        <ele>331.79000000000002</ele>
        <time>2017-09-22T08:02:20Z</time>
      </trkpt>
      <trkpt lat="38.104318901896477" lon="12.674695467576385">
        <ele>333.70999999999998</ele>
        <time>2017-09-22T08:02:31Z</time>
      </trkpt>
      <trkpt lat="38.104370115324855" lon="12.674748189747334">
        <ele>336.12</ele>
        <time>2017-09-22T08:02:43Z</time>
      </trkpt>
      <trkpt lat="38.104412443935871" lon="12.674830919131637">
        <ele>338.04000000000002</ele>
        <time>2017-09-22T08:02:56Z</time>
      </trkpt>
      <trkpt lat="38.10445292852819" lon="12.674873163923621">
        <ele>339.95999999999998</ele>
        <time>2017-09-22T08:03:09Z</time>
      </trkpt>
      <trkpt lat="38.104456281289458" lon="12.674855729565024">
        <ele>340.92000000000002</ele>
        <time>2017-09-22T08:03:19Z</time>
      </trkpt>
      <trkpt lat="38.104451335966587" lon="12.674812478944659">
        <ele>341.88999999999999</ele>
        <time>2017-09-22T08:03:28Z</time>
      </trkpt>
      <trkpt lat="38.104469440877438" lon="12.674733940511942">
        <ele>344.76999999999998</ele>
        <time>2017-09-22T08:03:39Z</time>
      </trkpt>
      <trkpt lat="38.104466088116169" lon="12.674654396250844">
        <ele>346.20999999999998</ele>
        <time>2017-09-22T08:03:50Z</time>
      </trkpt>
      <trkpt lat="38.104492910206318" lon="12.674627741798759">
        <ele>347.17000000000002</ele>
        <time>2017-09-22T08:04:00Z</time>
      </trkpt>
      <trkpt lat="38.10453305952251" lon="12.674694797024131">
        <ele>348.62</ele>
        <time>2017-09-22T08:04:09Z</time>
      </trkpt>
      <trkpt lat="38.10459659434855" lon="12.674781382083893">
        <ele>350.54000000000002</ele>
        <time>2017-09-22T08:04:22Z</time>
      </trkpt>
      <trkpt lat="38.104626433923841" lon="12.674889005720615">
        <ele>351.01999999999998</ele>
        <time>2017-09-22T08:04:33Z</time>
      </trkpt>
      <trkpt lat="38.10462785884738" lon="12.674899566918612">
        <ele>351.01999999999998</ele>
        <time>2017-09-22T08:04:46Z</time>
      </trkpt>
      <trkpt lat="38.104635151103139" lon="12.674909709021449">
        <ele>351.01999999999998</ele>
        <time>2017-09-22T08:05:02Z</time>
      </trkpt>
      <trkpt lat="38.104652250185609" lon="12.674903338775039">
        <ele>351.5</ele>
        <time>2017-09-22T08:05:15Z</time>
      </trkpt>
      <trkpt lat="38.104686783626676" lon="12.674967292696238">
        <ele>352.94</ele>
        <time>2017-09-22T08:05:25Z</time>
      </trkpt>
      <trkpt lat="38.104664655402303" lon="12.67497081309557">
        <ele>352.45999999999998</ele>
        <time>2017-09-22T08:05:34Z</time>
      </trkpt>
      <trkpt lat="38.104673288762569" lon="12.674958826974034">
        <ele>352.45999999999998</ele>
        <time>2017-09-22T08:05:54Z</time>
      </trkpt>
      <trkpt lat="38.104672869667411" lon="12.674950696527958">
        <ele>352.45999999999998</ele>
        <time>2017-09-22T08:06:03Z</time>
      </trkpt>
      <trkpt lat="38.104673707857728" lon="12.674960754811764">
        <ele>352.45999999999998</ele>
        <time>2017-09-22T08:06:14Z</time>
      </trkpt>
      <trkpt lat="38.104661470279098" lon="12.674965364858508">
        <ele>352.45999999999998</ele>
        <time>2017-09-22T08:06:25Z</time>
      </trkpt>
      <trkpt lat="38.104669433087111" lon="12.674987157806754">
        <ele>352.94</ele>
        <time>2017-09-22T08:06:36Z</time>
      </trkpt>
      <trkpt lat="38.104693153873086" lon="12.675029234960675">
        <ele>353.42000000000002</ele>
        <time>2017-09-22T08:06:49Z</time>
      </trkpt>
      <trkpt lat="38.104734057560563" lon="12.67504951916635">
        <ele>354.86000000000001</ele>
        <time>2017-09-22T08:06:57Z</time>
      </trkpt>
      <trkpt lat="38.104762975126505" lon="12.67504951916635">
        <ele>357.26999999999998</ele>
        <time>2017-09-22T08:07:08Z</time>
      </trkpt>
      <trkpt lat="38.104768339544535" lon="12.675000401213765">
        <ele>359.19</ele>
        <time>2017-09-22T08:07:18Z</time>
      </trkpt>
      <trkpt lat="38.104777056723833" lon="12.674946505576372">
        <ele>360.63</ele>
        <time>2017-09-22T08:07:26Z</time>
      </trkpt>
      <trkpt lat="38.104759454727173" lon="12.674904512241483">
        <ele>362.06999999999999</ele>
        <time>2017-09-22T08:07:35Z</time>
      </trkpt>
      <trkpt lat="38.104781415313482" lon="12.674907026812434">
        <ele>363.04000000000002</ele>
        <time>2017-09-22T08:07:45Z</time>
      </trkpt>
      <trkpt lat="38.1047856900841" lon="12.67494055442512">
        <ele>363.04000000000002</ele>
        <time>2017-09-22T08:08:02Z</time>
      </trkpt>
      <trkpt lat="38.104833383113146" lon="12.674938794225454">
        <ele>364.48000000000002</ele>
        <time>2017-09-22T08:08:12Z</time>
      </trkpt>
      <trkpt lat="38.104851320385933" lon="12.67497232183814">
        <ele>364.95999999999998</ele>
        <time>2017-09-22T08:08:22Z</time>
      </trkpt>
      <trkpt lat="38.104875460267067" lon="12.674991013482213">
        <ele>366.88</ele>
        <time>2017-09-22T08:08:31Z</time>
      </trkpt>
      <trkpt lat="38.104896666482091" lon="12.675012974068522">
        <ele>368.31999999999999</ele>
        <time>2017-09-22T08:08:41Z</time>
      </trkpt>
      <trkpt lat="38.104901360347867" lon="12.675069384276867">
        <ele>369.75999999999999</ele>
        <time>2017-09-22T08:08:50Z</time>
      </trkpt>
      <trkpt lat="38.104907730594277" lon="12.675124201923609">
        <ele>369.75999999999999</ele>
        <time>2017-09-22T08:08:59Z</time>
      </trkpt>
      <trkpt lat="38.104932373389602" lon="12.675136858597398">
        <ele>370.73000000000002</ele>
        <time>2017-09-22T08:09:09Z</time>
      </trkpt>
      <trkpt lat="38.104934636503458" lon="12.675166446715593">
        <ele>372.17000000000002</ele>
        <time>2017-09-22T08:09:19Z</time>
      </trkpt>
      <trkpt lat="38.104951567947865" lon="12.675167620182037">
        <ele>373.61000000000001</ele>
        <time>2017-09-22T08:09:28Z</time>
      </trkpt>
      <trkpt lat="38.104957602918148" lon="12.675148760899901">
        <ele>374.56999999999999</ele>
        <time>2017-09-22T08:09:35Z</time>
      </trkpt>
      <trkpt lat="38.104928769171238" lon="12.675139373168349">
        <ele>375.05000000000001</ele>
        <time>2017-09-22T08:09:44Z</time>
      </trkpt>
      <trkpt lat="38.104918040335178" lon="12.675138032063842">
        <ele>375.52999999999997</ele>
        <time>2017-09-22T08:09:53Z</time>
      </trkpt>
      <trkpt lat="38.104939498007298" lon="12.675113724544644">
        <ele>376.49000000000001</ele>
        <time>2017-09-22T08:10:01Z</time>
      </trkpt>
      <trkpt lat="38.104927847161889" lon="12.675092853605747">
        <ele>378.89999999999998</ele>
        <time>2017-09-22T08:10:11Z</time>
      </trkpt>
      <trkpt lat="38.104939078912139" lon="12.675070809200406">
        <ele>378.89999999999998</ele>
        <time>2017-09-22T08:10:22Z</time>
      </trkpt>
      <trkpt lat="38.104940000921488" lon="12.675033928826451">
        <ele>380.81999999999999</ele>
        <time>2017-09-22T08:10:32Z</time>
      </trkpt>
      <trkpt lat="38.104928685352206" lon="12.674979111179709">
        <ele>381.77999999999997</ele>
        <time>2017-09-22T08:10:45Z</time>
      </trkpt>
      <trkpt lat="38.104952741414309" lon="12.674960168078542">
        <ele>382.74000000000001</ele>
        <time>2017-09-22T08:10:55Z</time>
      </trkpt>
      <trkpt lat="38.104985347017646" lon="12.674997886642814">
        <ele>384.18000000000001</ele>
        <time>2017-09-22T08:11:04Z</time>
      </trkpt>
      <trkpt lat="38.104991968721151" lon="12.674987325444818">
        <ele>385.63</ele>
        <time>2017-09-22T08:11:15Z</time>
      </trkpt>
      <trkpt lat="38.10497579164803" lon="12.674973579123616">
        <ele>386.11000000000001</ele>
        <time>2017-09-22T08:11:23Z</time>
      </trkpt>
      <trkpt lat="38.104983838275075" lon="12.674976764246821">
        <ele>387.55000000000001</ele>
        <time>2017-09-22T08:11:33Z</time>
      </trkpt>
      <trkpt lat="38.104993058368564" lon="12.674953797832131">
        <ele>388.50999999999999</ele>
        <time>2017-09-22T08:11:42Z</time>
      </trkpt>
      <trkpt lat="38.105012252926826" lon="12.674910128116608">
        <ele>388.50999999999999</ele>
        <time>2017-09-22T08:12:01Z</time>
      </trkpt>
      <trkpt lat="38.105032201856375" lon="12.674928065389395">
        <ele>390.43000000000001</ele>
        <time>2017-09-22T08:12:11Z</time>
      </trkpt>
      <trkpt lat="38.105062041431665" lon="12.674935525283217">
        <ele>391.87</ele>
        <time>2017-09-22T08:12:19Z</time>
      </trkpt>
      <trkpt lat="38.105071848258376" lon="12.674940889701247">
        <ele>393.31999999999999</ele>
        <time>2017-09-22T08:12:28Z</time>
      </trkpt>
      <trkpt lat="38.105086600407958" lon="12.674907278269529">
        <ele>394.27999999999997</ele>
        <time>2017-09-22T08:12:37Z</time>
      </trkpt>
      <trkpt lat="38.105111159384251" lon="12.67492345534265">
        <ele>395.24000000000001</ele>
        <time>2017-09-22T08:12:48Z</time>
      </trkpt>
      <trkpt lat="38.105114847421646" lon="12.674930244684219">
        <ele>396.19999999999999</ele>
        <time>2017-09-22T08:13:05Z</time>
      </trkpt>
      <trkpt lat="38.105117361992598" lon="12.674980871379375">
        <ele>397.63999999999999</ele>
        <time>2017-09-22T08:13:14Z</time>
      </trkpt>
      <trkpt lat="38.105147369205952" lon="12.675024121999741">
        <ele>399.07999999999998</ele>
        <time>2017-09-22T08:13:26Z</time>
      </trkpt>
      <trkpt lat="38.105165557935834" lon="12.675070725381374">
        <ele>399.56999999999999</ele>
        <time>2017-09-22T08:13:37Z</time>
      </trkpt>
      <trkpt lat="38.10514971613884" lon="12.675128309056163">
        <ele>401.00999999999999</ele>
        <time>2017-09-22T08:13:46Z</time>
      </trkpt>
      <trkpt lat="38.105146363377571" lon="12.675166446715593">
        <ele>401.97000000000003</ele>
        <time>2017-09-22T08:13:55Z</time>
      </trkpt>
      <trkpt lat="38.105146028101444" lon="12.675161082297564">
        <ele>401.97000000000003</ele>
        <time>2017-09-22T08:14:09Z</time>
      </trkpt>
      <trkpt lat="38.105145106092095" lon="12.675172816962004">
        <ele>403.41000000000003</ele>
        <time>2017-09-22T08:14:18Z</time>
      </trkpt>
      <trkpt lat="38.105124486610293" lon="12.675172314047813">
        <ele>403.41000000000003</ele>
        <time>2017-09-22T08:14:33Z</time>
      </trkpt>
      <trkpt lat="38.105131443589926" lon="12.675167704001069">
        <ele>403.41000000000003</ele>
        <time>2017-09-22T08:14:43Z</time>
      </trkpt>
      <trkpt lat="38.105134293437004" lon="12.67520391382277">
        <ele>403.88999999999999</ele>
        <time>2017-09-22T08:14:55Z</time>
      </trkpt>
      <trkpt lat="38.105119792744517" lon="12.675219420343637">
        <ele>404.85000000000002</ele>
        <time>2017-09-22T08:15:06Z</time>
      </trkpt>
      <trkpt lat="38.105164719745517" lon="12.675225120037794">
        <ele>406.29000000000002</ele>
        <time>2017-09-22T08:15:15Z</time>
      </trkpt>
      <trkpt lat="38.105182908475399" lon="12.675273902714252">
        <ele>408.22000000000003</ele>
        <time>2017-09-22T08:15:25Z</time>
      </trkpt>
      <trkpt lat="38.105183495208621" lon="12.675305167213082">
        <ele>407.74000000000001</ele>
        <time>2017-09-22T08:15:37Z</time>
      </trkpt>
      <trkpt lat="38.105211993679404" lon="12.675317069515586">
        <ele>410.13999999999999</ele>
        <time>2017-09-22T08:15:50Z</time>
      </trkpt>
      <trkpt lat="38.105236552655697" lon="12.675322685390711">
        <ele>411.10000000000002</ele>
        <time>2017-09-22T08:15:59Z</time>
      </trkpt>
      <trkpt lat="38.105231858789921" lon="12.675314722582698">
        <ele>411.57999999999998</ele>
        <time>2017-09-22T08:16:07Z</time>
      </trkpt>
      <trkpt lat="38.105202186852694" lon="12.675316985696554">
        <ele>411.10000000000002</ele>
        <time>2017-09-22T08:16:25Z</time>
      </trkpt>
      <trkpt lat="38.10520838946104" lon="12.675291504710913">
        <ele>411.10000000000002</ele>
        <time>2017-09-22T08:16:35Z</time>
      </trkpt>
      <trkpt lat="38.105205371975899" lon="12.675272058695555">
        <ele>411.57999999999998</ele>
        <time>2017-09-22T08:16:45Z</time>
      </trkpt>
      <trkpt lat="38.105175783857703" lon="12.675263173878193">
        <ele>411.57999999999998</ele>
        <time>2017-09-22T08:17:02Z</time>
      </trkpt>
      <trkpt lat="38.105200594291091" lon="12.675282871350646">
        <ele>411.57999999999998</ele>
        <time>2017-09-22T08:17:22Z</time>
      </trkpt>
      <trkpt lat="38.105197576805949" lon="12.675282033160329">
        <ele>411.57999999999998</ele>
        <time>2017-09-22T08:17:43Z</time>
      </trkpt>
      <trkpt lat="38.105197073891759" lon="12.675274405628443">
        <ele>411.57999999999998</ele>
        <time>2017-09-22T08:17:58Z</time>
      </trkpt>
      <trkpt lat="38.105196235701442" lon="12.675260826945305">
        <ele>411.57999999999998</ele>
        <time>2017-09-22T08:18:12Z</time>
      </trkpt>
      <trkpt lat="38.105203444138169" lon="12.675278596580029">
        <ele>411.57999999999998</ele>
        <time>2017-09-22T08:18:33Z</time>
      </trkpt>
      <trkpt lat="38.105215430259705" lon="12.67526158131659">
        <ele>411.57999999999998</ele>
        <time>2017-09-22T08:18:53Z</time>
      </trkpt>
      <trkpt lat="38.105217022821307" lon="12.67525227740407">
        <ele>411.57999999999998</ele>
        <time>2017-09-22T08:19:08Z</time>
      </trkpt>
      <trkpt lat="38.105189278721809" lon="12.675253031775355">
        <ele>411.57999999999998</ele>
        <time>2017-09-22T08:19:24Z</time>
      </trkpt>
      <trkpt lat="38.105238815769553" lon="12.675224030390382">
        <ele>412.54000000000002</ele>
        <time>2017-09-22T08:19:37Z</time>
      </trkpt>
      <trkpt lat="38.105252394452691" lon="12.675239620730281">
        <ele>412.54000000000002</ele>
        <time>2017-09-22T08:19:50Z</time>
      </trkpt>
      <trkpt lat="38.105245186015964" lon="12.675225790590048">
        <ele>412.54000000000002</ele>
        <time>2017-09-22T08:20:03Z</time>
      </trkpt>
      <trkpt lat="38.105252142995596" lon="12.675242889672518">
        <ele>412.54000000000002</ele>
        <time>2017-09-22T08:20:19Z</time>
      </trkpt>
      <trkpt lat="38.105260692536831" lon="12.675244733691216">
        <ele>413.01999999999998</ele>
        <time>2017-09-22T08:20:34Z</time>
      </trkpt>
      <trkpt lat="38.105260273441672" lon="12.675246326252818">
        <ele>413.01999999999998</ele>
        <time>2017-09-22T08:20:48Z</time>
      </trkpt>
      <trkpt lat="38.10527284629643" lon="12.675227466970682">
        <ele>413.5</ele>
        <time>2017-09-22T08:20:57Z</time>
      </trkpt>
      <trkpt lat="38.105281228199601" lon="12.675231490284204">
        <ele>413.5</ele>
        <time>2017-09-22T08:21:01Z</time>
      </trkpt>
      <trkpt lat="38.105282736942172" lon="12.675213972106576">
        <ele>414.47000000000003</ele>
        <time>2017-09-22T08:21:11Z</time>
      </trkpt>
      <trkpt lat="38.105302602052689" lon="12.67518731765449">
        <ele>415.43000000000001</ele>
        <time>2017-09-22T08:21:20Z</time>
      </trkpt>
      <trkpt lat="38.105325400829315" lon="12.675163261592388">
        <ele>418.79000000000002</ele>
        <time>2017-09-22T08:21:30Z</time>
      </trkpt>
      <trkpt lat="38.105333615094423" lon="12.675141301006079">
        <ele>418.31</ele>
        <time>2017-09-22T08:21:47Z</time>
      </trkpt>
      <trkpt lat="38.105354905128479" lon="12.675117496401072">
        <ele>419.75</ele>
        <time>2017-09-22T08:21:56Z</time>
      </trkpt>
      <trkpt lat="38.105349959805608" lon="12.675132667645812">
        <ele>420.70999999999998</ele>
        <time>2017-09-22T08:22:07Z</time>
      </trkpt>
      <trkpt lat="38.105347445234656" lon="12.67511498183012">
        <ele>422.63999999999999</ele>
        <time>2017-09-22T08:22:17Z</time>
      </trkpt>
      <trkpt lat="38.105327161028981" lon="12.675075586885214">
        <ele>423.60000000000002</ele>
        <time>2017-09-22T08:22:28Z</time>
      </trkpt>
      <trkpt lat="38.105341913178563" lon="12.675072317942977">
        <ele>424.56</ele>
        <time>2017-09-22T08:22:39Z</time>
      </trkpt>
      <trkpt lat="38.105358006432652" lon="12.67509151250124">
        <ele>424.56</ele>
        <time>2017-09-22T08:22:53Z</time>
      </trkpt>
      <trkpt lat="38.105363873764873" lon="12.675113808363676">
        <ele>425.04000000000002</ele>
        <time>2017-09-22T08:23:03Z</time>
      </trkpt>
      <trkpt lat="38.105360437184572" lon="12.675089165568352">
        <ele>425.51999999999998</ele>
        <time>2017-09-22T08:23:19Z</time>
      </trkpt>
      <trkpt lat="38.105363370850682" lon="12.675093188881874">
        <ele>425.04000000000002</ele>
        <time>2017-09-22T08:23:35Z</time>
      </trkpt>
      <trkpt lat="38.105357838794589" lon="12.675090339034796">
        <ele>425.04000000000002</ele>
        <time>2017-09-22T08:23:45Z</time>
      </trkpt>
      <trkpt lat="38.10535155236721" lon="12.675092183053493">
        <ele>425.04000000000002</ele>
        <time>2017-09-22T08:24:05Z</time>
      </trkpt>
      <trkpt lat="38.10534761287272" lon="12.675092350691557">
        <ele>425.04000000000002</ele>
        <time>2017-09-22T08:24:19Z</time>
      </trkpt>
      <trkpt lat="38.105351971462369" lon="12.675084890797734">
        <ele>425.04000000000002</ele>
        <time>2017-09-22T08:24:42Z</time>
      </trkpt>
      <trkpt lat="38.105362532660365" lon="12.675077682361007">
        <ele>425.51999999999998</ele>
        <time>2017-09-22T08:25:02Z</time>
      </trkpt>
      <trkpt lat="38.105369322001934" lon="12.675084806978703">
        <ele>425.51999999999998</ele>
        <time>2017-09-22T08:25:19Z</time>
      </trkpt>
      <trkpt lat="38.105360604822636" lon="12.675090674310923">
        <ele>425.51999999999998</ele>
        <time>2017-09-22T08:25:39Z</time>
      </trkpt>
      <trkpt lat="38.105373177677393" lon="12.675076089799404">
        <ele>426.48000000000002</ele>
        <time>2017-09-22T08:25:49Z</time>
      </trkpt>
      <trkpt lat="38.10536571778357" lon="12.675058487802744">
        <ele>427.44</ele>
        <time>2017-09-22T08:26:00Z</time>
      </trkpt>
      <trkpt lat="38.105389270931482" lon="12.675046669319272">
        <ele>429.37</ele>
        <time>2017-09-22T08:26:12Z</time>
      </trkpt>
      <trkpt lat="38.105377033352852" lon="12.675053542479873">
        <ele>430.81</ele>
        <time>2017-09-22T08:26:22Z</time>
      </trkpt>
      <trkpt lat="38.105371836572886" lon="12.674996377900243">
        <ele>431.76999999999998</ele>
        <time>2017-09-22T08:26:35Z</time>
      </trkpt>
      <trkpt lat="38.105373177677393" lon="12.674993611872196">
        <ele>431.29000000000002</ele>
        <time>2017-09-22T08:26:45Z</time>
      </trkpt>
      <trkpt lat="38.105413075536489" lon="12.67503384500742">
        <ele>432.25</ele>
        <time>2017-09-22T08:26:54Z</time>
      </trkpt>
      <trkpt lat="38.105408968403935" lon="12.675024792551994">
        <ele>431.76999999999998</ele>
        <time>2017-09-22T08:26:57Z</time>
      </trkpt>
      <trkpt lat="38.105428330600262" lon="12.674995204433799">
        <ele>433.20999999999998</ele>
        <time>2017-09-22T08:27:06Z</time>
      </trkpt>
      <trkpt lat="38.105425480753183" lon="12.674974333494902">
        <ele>433.69</ele>
        <time>2017-09-22T08:27:08Z</time>
      </trkpt>
      <trkpt lat="38.105446267873049" lon="12.674920856952667">
        <ele>434.64999999999998</ele>
        <time>2017-09-22T08:27:15Z</time>
      </trkpt>
      <trkpt lat="38.105442160740495" lon="12.674884060397744">
        <ele>436.10000000000002</ele>
        <time>2017-09-22T08:27:24Z</time>
      </trkpt>
      <trkpt lat="38.105446938425303" lon="12.674903171136975">
        <ele>436.10000000000002</ele>
        <time>2017-09-22T08:27:38Z</time>
      </trkpt>
      <trkpt lat="38.105458924546838" lon="12.674935525283217">
        <ele>435.61000000000001</ele>
        <time>2017-09-22T08:27:48Z</time>
      </trkpt>
      <trkpt lat="38.105459343641996" lon="12.674933429807425">
        <ele>435.61000000000001</ele>
        <time>2017-09-22T08:27:56Z</time>
      </trkpt>
      <trkpt lat="38.105452302843332" lon="12.67491658218205">
        <ele>435.61000000000001</ele>
        <time>2017-09-22T08:28:08Z</time>
      </trkpt>
      <trkpt lat="38.10544048435986" lon="12.67492295242846">
        <ele>435.61000000000001</ele>
        <time>2017-09-22T08:28:25Z</time>
      </trkpt>
      <trkpt lat="38.105467641726136" lon="12.67494197934866">
        <ele>435.61000000000001</ele>
        <time>2017-09-22T08:28:41Z</time>
      </trkpt>
      <trkpt lat="38.105461187660694" lon="12.674918593838811">
        <ele>435.13</ele>
        <time>2017-09-22T08:28:56Z</time>
      </trkpt>
      <trkpt lat="38.105458673089743" lon="12.674911133944988">
        <ele>435.13</ele>
        <time>2017-09-22T08:29:12Z</time>
      </trkpt>
      <trkpt lat="38.105462025851011" lon="12.67490828409791">
        <ele>435.61000000000001</ele>
        <time>2017-09-22T08:29:24Z</time>
      </trkpt>
      <trkpt lat="38.105454398319125" lon="12.674902584403753">
        <ele>436.10000000000002</ele>
        <time>2017-09-22T08:29:44Z</time>
      </trkpt>
      <trkpt lat="38.105478957295418" lon="12.674908535555005">
        <ele>436.10000000000002</ele>
        <time>2017-09-22T08:29:53Z</time>
      </trkpt>
      <trkpt lat="38.105485495179892" lon="12.674925802275538">
        <ele>436.10000000000002</ele>
        <time>2017-09-22T08:30:08Z</time>
      </trkpt>
      <trkpt lat="38.105479292571545" lon="12.674911301583052">
        <ele>435.61000000000001</ele>
        <time>2017-09-22T08:30:24Z</time>
      </trkpt>
      <trkpt lat="38.105466468259692" lon="12.674904596060514">
        <ele>435.61000000000001</ele>
        <time>2017-09-22T08:30:41Z</time>
      </trkpt>
      <trkpt lat="38.105467893183231" lon="12.674913061782718">
        <ele>436.57999999999998</ele>
        <time>2017-09-22T08:30:53Z</time>
      </trkpt>
      <trkpt lat="38.105468396097422" lon="12.674905434250832">
        <ele>436.10000000000002</ele>
        <time>2017-09-22T08:31:10Z</time>
      </trkpt>
      <trkpt lat="38.105480885133147" lon="12.674919180572033">
        <ele>436.10000000000002</ele>
        <time>2017-09-22T08:31:21Z</time>
      </trkpt>
      <trkpt lat="38.105482729151845" lon="12.674894705414772">
        <ele>436.57999999999998</ele>
        <time>2017-09-22T08:31:31Z</time>
      </trkpt>
      <trkpt lat="38.10546051710844" lon="12.674868050962687">
        <ele>436.57999999999998</ele>
        <time>2017-09-22T08:31:41Z</time>
      </trkpt>
      <trkpt lat="38.105414668098092" lon="12.674825638532639">
        <ele>438.98000000000002</ele>
        <time>2017-09-22T08:31:52Z</time>
      </trkpt>
      <trkpt lat="38.105399329215288" lon="12.67480812035501">
        <ele>439.94</ele>
        <time>2017-09-22T08:32:03Z</time>
      </trkpt>
      <trkpt lat="38.105401592329144" lon="12.674822537228465">
        <ele>439.94</ele>
        <time>2017-09-22T08:32:13Z</time>
      </trkpt>
      <trkpt lat="38.105410896241665" lon="12.67479881644249">
        <ele>440.42000000000002</ele>
        <time>2017-09-22T08:32:23Z</time>
      </trkpt>
      <trkpt lat="38.105391785502434" lon="12.674736371263862">
        <ele>440.89999999999998</ele>
        <time>2017-09-22T08:32:34Z</time>
      </trkpt>
      <trkpt lat="38.105436712503433" lon="12.674680212512612">
        <ele>441.86000000000001</ele>
        <time>2017-09-22T08:32:46Z</time>
      </trkpt>
      <trkpt lat="38.105434030294418" lon="12.674616677686572">
        <ele>444.26999999999998</ele>
        <time>2017-09-22T08:32:58Z</time>
      </trkpt>
      <trkpt lat="38.105446267873049" lon="12.674568900838494">
        <ele>445.70999999999998</ele>
        <time>2017-09-22T08:33:10Z</time>
      </trkpt>
      <trkpt lat="38.105431767180562" lon="12.674530846998096">
        <ele>447.14999999999998</ele>
        <time>2017-09-22T08:33:21Z</time>
      </trkpt>
      <trkpt lat="38.105435539036989" lon="12.674502599984407">
        <ele>449.06999999999999</ele>
        <time>2017-09-22T08:33:30Z</time>
      </trkpt>
      <trkpt lat="38.105392036959529" lon="12.674471419304609">
        <ele>450.51999999999998</ele>
        <time>2017-09-22T08:33:42Z</time>
      </trkpt>
      <trkpt lat="38.105376698076725" lon="12.674445686861873">
        <ele>451.48000000000002</ele>
        <time>2017-09-22T08:33:53Z</time>
      </trkpt>
      <trkpt lat="38.105361610651016" lon="12.674412997439504">
        <ele>451.95999999999998</ele>
        <time>2017-09-22T08:34:07Z</time>
      </trkpt>
      <trkpt lat="38.105340320616961" lon="12.674372177571058">
        <ele>453.39999999999998</ele>
        <time>2017-09-22T08:34:17Z</time>
      </trkpt>
      <trkpt lat="38.105313498526812" lon="12.674332447350025">
        <ele>455.31999999999999</ele>
        <time>2017-09-22T08:34:29Z</time>
      </trkpt>
      <trkpt lat="38.105296902358532" lon="12.674255585297942">
        <ele>456.75999999999999</ele>
        <time>2017-09-22T08:34:42Z</time>
      </trkpt>
      <trkpt lat="38.105262201279402" lon="12.674211245030165">
        <ele>458.69</ele>
        <time>2017-09-22T08:34:52Z</time>
      </trkpt>
      <trkpt lat="38.105264212936163" lon="12.674117451533675">
        <ele>461.56999999999999</ele>
        <time>2017-09-22T08:35:03Z</time>
      </trkpt>
      <trkpt lat="38.105312576517463" lon="12.674030447378755">
        <ele>464.44999999999999</ele>
        <time>2017-09-22T08:35:18Z</time>
      </trkpt>
      <trkpt lat="38.105354150757194" lon="12.673990968614817">
        <ele>466.38</ele>
        <time>2017-09-22T08:35:31Z</time>
      </trkpt>
      <trkpt lat="38.105352893471718" lon="12.673957357183099">
        <ele>467.81999999999999</ele>
        <time>2017-09-22T08:35:43Z</time>
      </trkpt>
      <trkpt lat="38.10537301003933" lon="12.673926595598459">
        <ele>469.25999999999999</ele>
        <time>2017-09-22T08:35:57Z</time>
      </trkpt>
      <trkpt lat="38.105355743318796" lon="12.673861384391785">
        <ele>471.66000000000003</ele>
        <time>2017-09-22T08:36:08Z</time>
      </trkpt>
      <trkpt lat="38.10533051379025" lon="12.673800867050886">
        <ele>473.11000000000001</ele>
        <time>2017-09-22T08:36:21Z</time>
      </trkpt>
      <trkpt lat="38.105325819924474" lon="12.673780247569084">
        <ele>473.58999999999997</ele>
        <time>2017-09-22T08:36:35Z</time>
      </trkpt>
      <trkpt lat="38.105313666164875" lon="12.673760717734694">
        <ele>473.58999999999997</ele>
        <time>2017-09-22T08:36:46Z</time>
      </trkpt>
      <trkpt lat="38.105317354202271" lon="12.673736996948719">
        <ele>474.06999999999999</ele>
        <time>2017-09-22T08:36:49Z</time>
      </trkpt>
      <trkpt lat="38.105379631742835" lon="12.673719814047217">
        <ele>475.50999999999999</ele>
        <time>2017-09-22T08:36:59Z</time>
      </trkpt>
      <trkpt lat="38.105412572622299" lon="12.673681089654565">
        <ele>476.47000000000003</ele>
        <time>2017-09-22T08:37:10Z</time>
      </trkpt>
      <trkpt lat="38.105460098013282" lon="12.673672707751393">
        <ele>476.94999999999999</ele>
        <time>2017-09-22T08:37:21Z</time>
      </trkpt>
      <trkpt lat="38.105502845719457" lon="12.673637000843883">
        <ele>478.38999999999999</ele>
        <time>2017-09-22T08:37:30Z</time>
      </trkpt>
      <trkpt lat="38.105561519041657" lon="12.673593331128359">
        <ele>480.31999999999999</ele>
        <time>2017-09-22T08:37:42Z</time>
      </trkpt>
      <trkpt lat="38.105604853481054" lon="12.673582267016172">
        <ele>480.80000000000001</ele>
        <time>2017-09-22T08:37:51Z</time>
      </trkpt>
      <trkpt lat="38.105583228170872" lon="12.673530383035541">
        <ele>481.27999999999997</ele>
        <time>2017-09-22T08:38:00Z</time>
      </trkpt>
      <trkpt lat="38.105576606467366" lon="12.673524348065257">
        <ele>482.72000000000003</ele>
        <time>2017-09-22T08:38:03Z</time>
      </trkpt>
      <trkpt lat="38.105539893731475" lon="12.673505153506994">
        <ele>483.68000000000001</ele>
        <time>2017-09-22T08:38:14Z</time>
      </trkpt>
      <trkpt lat="38.105533104389906" lon="12.67348931171">
        <ele>484.16000000000003</ele>
        <time>2017-09-22T08:38:16Z</time>
      </trkpt>
      <trkpt lat="38.105479460209608" lon="12.67343994230032">
        <ele>485.60000000000002</ele>
        <time>2017-09-22T08:38:27Z</time>
      </trkpt>
      <trkpt lat="38.105454901233315" lon="12.673399457708001">
        <ele>487.52999999999997</ele>
        <time>2017-09-22T08:38:37Z</time>
      </trkpt>
      <trkpt lat="38.105499660596251" lon="12.673329468816519">
        <ele>489.44999999999999</ele>
        <time>2017-09-22T08:38:47Z</time>
      </trkpt>
      <trkpt lat="38.105502929538488" lon="12.673334162682295">
        <ele>489.93000000000001</ele>
        <time>2017-09-22T08:38:58Z</time>
      </trkpt>
      <trkpt lat="38.105531260371208" lon="12.673301640897989">
        <ele>490.88999999999999</ele>
        <time>2017-09-22T08:39:09Z</time>
      </trkpt>
      <trkpt lat="38.105535032227635" lon="12.673252942040563">
        <ele>492.81</ele>
        <time>2017-09-22T08:39:18Z</time>
      </trkpt>
      <trkpt lat="38.105523632839322" lon="12.673238022252917">
        <ele>493.29000000000002</ele>
        <time>2017-09-22T08:39:27Z</time>
      </trkpt>
      <trkpt lat="38.105528745800257" lon="12.673175828531384">
        <ele>494.74000000000001</ele>
        <time>2017-09-22T08:39:36Z</time>
      </trkpt>
      <trkpt lat="38.105566632002592" lon="12.673150431364775">
        <ele>496.18000000000001</ele>
        <time>2017-09-22T08:39:46Z</time>
      </trkpt>
      <trkpt lat="38.105564955621958" lon="12.673141630366445">
        <ele>496.18000000000001</ele>
        <time>2017-09-22T08:39:47Z</time>
      </trkpt>
      <trkpt lat="38.105544419959188" lon="12.673108940944076">
        <ele>497.62</ele>
        <time>2017-09-22T08:39:56Z</time>
      </trkpt>
      <trkpt lat="38.105547521263361" lon="12.673055715858936">
        <ele>499.54000000000002</ele>
        <time>2017-09-22T08:40:06Z</time>
      </trkpt>
      <trkpt lat="38.105561854317784" lon="12.672984385862947">
        <ele>501.94999999999999</ele>
        <time>2017-09-22T08:40:18Z</time>
      </trkpt>
      <trkpt lat="38.105567218735814" lon="12.672977764159441">
        <ele>502.43000000000001</ele>
        <time>2017-09-22T08:40:29Z</time>
      </trkpt>
      <trkpt lat="38.105581635609269" lon="12.67291808500886">
        <ele>504.35000000000002</ele>
        <time>2017-09-22T08:40:40Z</time>
      </trkpt>
      <trkpt lat="38.105583731085062" lon="12.672879192978144">
        <ele>505.79000000000002</ele>
        <time>2017-09-22T08:40:49Z</time>
      </trkpt>
      <trkpt lat="38.105600578710437" lon="12.672813478857279">
        <ele>507.70999999999998</ele>
        <time>2017-09-22T08:41:01Z</time>
      </trkpt>
      <trkpt lat="38.105594711378217" lon="12.672773245722055">
        <ele>509.16000000000003</ele>
        <time>2017-09-22T08:41:12Z</time>
      </trkpt>
      <trkpt lat="38.105603512376547" lon="12.672752123326063">
        <ele>510.12</ele>
        <time>2017-09-22T08:41:21Z</time>
      </trkpt>
      <trkpt lat="38.105606446042657" lon="12.672703508287668">
        <ele>511.56</ele>
        <time>2017-09-22T08:41:34Z</time>
      </trkpt>
      <trkpt lat="38.105618515983224" lon="12.672640392556787">
        <ele>512.51999999999998</ele>
        <time>2017-09-22T08:41:45Z</time>
      </trkpt>
      <trkpt lat="38.105609882622957" lon="12.672613319009542">
        <ele>513.96000000000004</ele>
        <time>2017-09-22T08:41:56Z</time>
      </trkpt>
      <trkpt lat="38.105576941743493" lon="12.672586496919394">
        <ele>515.39999999999998</ele>
        <time>2017-09-22T08:42:05Z</time>
      </trkpt>
      <trkpt lat="38.105556992813945" lon="12.672547101974487">
        <ele>516.85000000000002</ele>
        <time>2017-09-22T08:42:14Z</time>
      </trkpt>
      <trkpt lat="38.105562943965197" lon="12.672507707029581">
        <ele>518.76999999999998</ele>
        <time>2017-09-22T08:42:23Z</time>
      </trkpt>
      <trkpt lat="38.105553975328803" lon="12.672498738393188">
        <ele>519.25</ele>
        <time>2017-09-22T08:42:31Z</time>
      </trkpt>
      <trkpt lat="38.105538384988904" lon="12.672464372590184">
        <ele>520.69000000000005</ele>
        <time>2017-09-22T08:42:40Z</time>
      </trkpt>
      <trkpt lat="38.105577360838652" lon="12.672401340678334">
        <ele>521.16999999999996</ele>
        <time>2017-09-22T08:42:50Z</time>
      </trkpt>
      <trkpt lat="38.105585742741823" lon="12.672358928248286">
        <ele>523.09000000000003</ele>
        <time>2017-09-22T08:42:57Z</time>
      </trkpt>
      <trkpt lat="38.105582473799586" lon="12.672325316816568">
        <ele>525.01999999999998</ele>
        <time>2017-09-22T08:43:08Z</time>
      </trkpt>
      <trkpt lat="38.105544419959188" lon="12.672304278239608">
        <ele>525.98000000000002</ele>
        <time>2017-09-22T08:43:20Z</time>
      </trkpt>
      <trkpt lat="38.105509970337152" lon="12.672253400087357">
        <ele>527.89999999999998</ele>
        <time>2017-09-22T08:43:33Z</time>
      </trkpt>
      <trkpt lat="38.105529919266701" lon="12.67220126464963">
        <ele>529.34000000000003</ele>
        <time>2017-09-22T08:43:43Z</time>
      </trkpt>
      <trkpt lat="38.105522878468037" lon="12.672149213030934">
        <ele>531.26999999999998</ele>
        <time>2017-09-22T08:43:55Z</time>
      </trkpt>
      <trkpt lat="38.105522291734815" lon="12.672083247452974">
        <ele>533.66999999999996</ele>
        <time>2017-09-22T08:44:08Z</time>
      </trkpt>
      <trkpt lat="38.105510724708438" lon="12.672090288251638">
        <ele>534.14999999999998</ele>
        <time>2017-09-22T08:44:18Z</time>
      </trkpt>
      <trkpt lat="38.105511646717787" lon="12.672089533880353">
        <ele>534.14999999999998</ele>
        <time>2017-09-22T08:44:34Z</time>
      </trkpt>
      <trkpt lat="38.105518938973546" lon="12.672068160027266">
        <ele>534.14999999999998</ele>
        <time>2017-09-22T08:44:49Z</time>
      </trkpt>
      <trkpt lat="38.105511395260692" lon="12.672079894691706">
        <ele>534.14999999999998</ele>
        <time>2017-09-22T08:45:02Z</time>
      </trkpt>
      <trkpt lat="38.105507455766201" lon="12.672090120613575">
        <ele>534.14999999999998</ele>
        <time>2017-09-22T08:45:20Z</time>
      </trkpt>
      <trkpt lat="38.105515921488404" lon="12.672072686254978">
        <ele>534.14999999999998</ele>
        <time>2017-09-22T08:45:37Z</time>
      </trkpt>
      <trkpt lat="38.105514077469707" lon="12.672069165855646">
        <ele>534.14999999999998</ele>
        <time>2017-09-22T08:46:02Z</time>
      </trkpt>
      <trkpt lat="38.105502426624298" lon="12.672068746760488">
        <ele>534.14999999999998</ele>
        <time>2017-09-22T08:46:19Z</time>
      </trkpt>
      <trkpt lat="38.105474514886737" lon="12.672038236632943">
        <ele>535.11000000000001</ele>
        <time>2017-09-22T08:46:28Z</time>
      </trkpt>
      <trkpt lat="38.105485746636987" lon="12.672024238854647">
        <ele>535.59000000000003</ele>
        <time>2017-09-22T08:46:40Z</time>
      </trkpt>
      <trkpt lat="38.105478454381227" lon="12.672009486705065">
        <ele>536.54999999999995</ele>
        <time>2017-09-22T08:46:50Z</time>
      </trkpt>
      <trkpt lat="38.105479460209608" lon="12.672054665163159">
        <ele>535.59000000000003</ele>
        <time>2017-09-22T08:47:03Z</time>
      </trkpt>
      <trkpt lat="38.10548298060894" lon="12.672025244683027">
        <ele>536.07000000000005</ele>
        <time>2017-09-22T08:47:16Z</time>
      </trkpt>
      <trkpt lat="38.105495637282729" lon="12.672023316845298">
        <ele>536.07000000000005</ele>
        <time>2017-09-22T08:47:24Z</time>
      </trkpt>
      <trkpt lat="38.105507036671042" lon="12.67202683724463">
        <ele>536.54999999999995</ele>
        <time>2017-09-22T08:47:36Z</time>
      </trkpt>
      <trkpt lat="38.105505611747503" lon="12.672028765082359">
        <ele>535.11000000000001</ele>
        <time>2017-09-22T08:47:57Z</time>
      </trkpt>
      <trkpt lat="38.105504019185901" lon="12.672030525282025">
        <ele>536.07000000000005</ele>
        <time>2017-09-22T08:48:06Z</time>
      </trkpt>
      <trkpt lat="38.10550787486136" lon="12.672030190005898">
        <ele>536.07000000000005</ele>
        <time>2017-09-22T08:48:27Z</time>
      </trkpt>
      <trkpt lat="38.105487506836653" lon="12.672014432027936">
        <ele>536.54999999999995</ele>
        <time>2017-09-22T08:48:40Z</time>
      </trkpt>
      <trkpt lat="38.105483567342162" lon="12.672010408714414">
        <ele>536.54999999999995</ele>
        <time>2017-09-22T08:48:41Z</time>
      </trkpt>
      <trkpt lat="38.105477867648005" lon="12.671959698200226">
        <ele>538.48000000000002</ele>
        <time>2017-09-22T08:48:51Z</time>
      </trkpt>
      <trkpt lat="38.105509718880057" lon="12.671896666288376">
        <ele>540.39999999999998</ele>
        <time>2017-09-22T08:49:02Z</time>
      </trkpt>
      <trkpt lat="38.105508545413613" lon="12.671853750944138">
        <ele>542.32000000000005</ele>
        <time>2017-09-22T08:49:11Z</time>
      </trkpt>
      <trkpt lat="38.105434700846672" lon="12.671833634376526">
        <ele>544.24000000000001</ele>
        <time>2017-09-22T08:49:24Z</time>
      </trkpt>
      <trkpt lat="38.105432689189911" lon="12.671774122864008">
        <ele>546.16999999999996</ele>
        <time>2017-09-22T08:49:34Z</time>
      </trkpt>
      <trkpt lat="38.105427408590913" lon="12.671731878072023">
        <ele>547.13</ele>
        <time>2017-09-22T08:49:50Z</time>
      </trkpt>
      <trkpt lat="38.105428582057357" lon="12.671713689342141">
        <ele>548.09000000000003</ele>
        <time>2017-09-22T08:50:07Z</time>
      </trkpt>
      <trkpt lat="38.105414500460029" lon="12.671718299388885">
        <ele>549.04999999999995</ele>
        <time>2017-09-22T08:50:18Z</time>
      </trkpt>
      <trkpt lat="38.105415003374219" lon="12.671650238335133">
        <ele>551.45000000000005</ele>
        <time>2017-09-22T08:50:28Z</time>
      </trkpt>
      <trkpt lat="38.105409638956189" lon="12.671623835340142">
        <ele>553.86000000000001</ele>
        <time>2017-09-22T08:50:36Z</time>
      </trkpt>
      <trkpt lat="38.105396144092083" lon="12.671565245836973">
        <ele>555.29999999999995</ele>
        <time>2017-09-22T08:50:47Z</time>
      </trkpt>
      <trkpt lat="38.105357335880399" lon="12.67154848203063">
        <ele>556.74000000000001</ele>
        <time>2017-09-22T08:50:59Z</time>
      </trkpt>
      <trkpt lat="38.105349708348513" lon="12.671504393219948">
        <ele>557.70000000000005</ele>
        <time>2017-09-22T08:51:10Z</time>
      </trkpt>
      <trkpt lat="38.1053710822016" lon="12.671451922506094">
        <ele>559.62</ele>
        <time>2017-09-22T08:51:23Z</time>
      </trkpt>
      <trkpt lat="38.105361862108111" lon="12.671427363529801">
        <ele>560.59000000000003</ele>
        <time>2017-09-22T08:51:30Z</time>
      </trkpt>
      <trkpt lat="38.105371166020632" lon="12.67138478346169">
        <ele>562.50999999999999</ele>
        <time>2017-09-22T08:51:40Z</time>
      </trkpt>
      <trkpt lat="38.105388516560197" lon="12.671348908916116">
        <ele>563.95000000000005</ele>
        <time>2017-09-22T08:51:49Z</time>
      </trkpt>
      <trkpt lat="38.105399077758193" lon="12.67130414955318">
        <ele>565.87</ele>
        <time>2017-09-22T08:52:01Z</time>
      </trkpt>
      <trkpt lat="38.10538868419826" lon="12.671291660517454">
        <ele>567.32000000000005</ele>
        <time>2017-09-22T08:52:10Z</time>
      </trkpt>
      <trkpt lat="38.105372339487076" lon="12.671266347169876">
        <ele>568.75999999999999</ele>
        <time>2017-09-22T08:52:20Z</time>
      </trkpt>
      <trkpt lat="38.105337889865041" lon="12.671230807900429">
        <ele>570.67999999999995</ele>
        <time>2017-09-22T08:52:33Z</time>
      </trkpt>
      <trkpt lat="38.105336800217628" lon="12.671175487339497">
        <ele>573.08000000000004</ele>
        <time>2017-09-22T08:52:40Z</time>
      </trkpt>
      <trkpt lat="38.105340236797929" lon="12.671120250597596">
        <ele>575.49000000000001</ele>
        <time>2017-09-22T08:52:51Z</time>
      </trkpt>
      <trkpt lat="38.105312157422304" lon="12.671085130423307">
        <ele>576.92999999999995</ele>
        <time>2017-09-22T08:53:02Z</time>
      </trkpt>
      <trkpt lat="38.105297237634659" lon="12.671033665537834">
        <ele>577.88999999999999</ele>
        <time>2017-09-22T08:53:13Z</time>
      </trkpt>
      <trkpt lat="38.105338141322136" lon="12.67098605632782">
        <ele>579.80999999999995</ele>
        <time>2017-09-22T08:53:25Z</time>
      </trkpt>
      <trkpt lat="38.105355408042669" lon="12.670924533158541">
        <ele>581.73000000000002</ele>
        <time>2017-09-22T08:53:38Z</time>
      </trkpt>
      <trkpt lat="38.105359012261033" lon="12.670858567580581">
        <ele>584.13999999999999</ele>
        <time>2017-09-22T08:53:47Z</time>
      </trkpt>
      <trkpt lat="38.105378961190581" lon="12.670840797945857">
        <ele>585.58000000000004</ele>
        <time>2017-09-22T08:53:59Z</time>
      </trkpt>
      <trkpt lat="38.105406872928143" lon="12.670814394950867">
        <ele>587.5</ele>
        <time>2017-09-22T08:54:09Z</time>
      </trkpt>
      <trkpt lat="38.105433192104101" lon="12.670797212049365">
        <ele>587.5</ele>
        <time>2017-09-22T08:54:18Z</time>
      </trkpt>
      <trkpt lat="38.105412740260363" lon="12.670749351382256">
        <ele>590.38999999999999</ele>
        <time>2017-09-22T08:54:28Z</time>
      </trkpt>
      <trkpt lat="38.105422127991915" lon="12.670740131288767">
        <ele>592.30999999999995</ele>
        <time>2017-09-22T08:54:40Z</time>
      </trkpt>
      <trkpt lat="38.105427408590913" lon="12.670694030821323">
        <ele>594.23000000000002</ele>
        <time>2017-09-22T08:54:53Z</time>
      </trkpt>
      <trkpt lat="38.105412656441331" lon="12.670649439096451">
        <ele>596.63999999999999</ele>
        <time>2017-09-22T08:55:05Z</time>
      </trkpt>
      <trkpt lat="38.105422463268042" lon="12.670618509873748">
        <ele>597.60000000000002</ele>
        <time>2017-09-22T08:55:14Z</time>
      </trkpt>
      <trkpt lat="38.105402765795588" lon="12.670584814622998">
        <ele>599.03999999999996</ele>
        <time>2017-09-22T08:55:24Z</time>
      </trkpt>
      <trkpt lat="38.105398574844003" lon="12.670547850430012">
        <ele>600.48000000000002</ele>
        <time>2017-09-22T08:55:35Z</time>
      </trkpt>
      <trkpt lat="38.105393880978227" lon="12.670518094673753">
        <ele>601.91999999999996</ele>
        <time>2017-09-22T08:55:44Z</time>
      </trkpt>
      <trkpt lat="38.105369238182902" lon="12.670475682243705">
        <ele>603.85000000000002</ele>
        <time>2017-09-22T08:55:55Z</time>
      </trkpt>
      <trkpt lat="38.105357754975557" lon="12.670434694737196">
        <ele>605.76999999999998</ele>
        <time>2017-09-22T08:56:04Z</time>
      </trkpt>
      <trkpt lat="38.105391869321465" lon="12.670412231236696">
        <ele>607.21000000000004</ele>
        <time>2017-09-22T08:56:15Z</time>
      </trkpt>
      <trkpt lat="38.105402933433652" lon="12.670388678088784">
        <ele>608.64999999999998</ele>
        <time>2017-09-22T08:56:23Z</time>
      </trkpt>
      <trkpt lat="38.105457751080394" lon="12.67038406804204">
        <ele>609.13</ele>
        <time>2017-09-22T08:56:33Z</time>
      </trkpt>
      <trkpt lat="38.105483651161194" lon="12.670373506844044">
        <ele>610.57000000000005</ele>
        <time>2017-09-22T08:56:43Z</time>
      </trkpt>
      <trkpt lat="38.105518938973546" lon="12.670371076092124">
        <ele>612.98000000000002</ele>
        <time>2017-09-22T08:56:53Z</time>
      </trkpt>
      <trkpt lat="38.105538217350841" lon="12.670345930382609">
        <ele>613.94000000000005</ele>
        <time>2017-09-22T08:57:03Z</time>
      </trkpt>
      <trkpt lat="38.105528661981225" lon="12.670300751924515">
        <ele>615.86000000000001</ele>
        <time>2017-09-22T08:57:13Z</time>
      </trkpt>
      <trkpt lat="38.105545341968536" lon="12.670262111350894">
        <ele>617.29999999999995</ele>
        <time>2017-09-22T08:57:24Z</time>
      </trkpt>
      <trkpt lat="38.105518352240324" lon="12.670224560424685">
        <ele>619.23000000000002</ele>
        <time>2017-09-22T08:57:38Z</time>
      </trkpt>
      <trkpt lat="38.105512233451009" lon="12.670201677829027">
        <ele>620.66999999999996</ele>
        <time>2017-09-22T08:57:43Z</time>
      </trkpt>
      <trkpt lat="38.105531260371208" lon="12.670158594846725">
        <ele>621.63</ele>
        <time>2017-09-22T08:57:54Z</time>
      </trkpt>
      <trkpt lat="38.105510976165533" lon="12.670160019770265">
        <ele>623.07000000000005</ele>
        <time>2017-09-22T08:58:08Z</time>
      </trkpt>
      <trkpt lat="38.10553377494216" lon="12.670129677280784">
        <ele>624.02999999999997</ele>
        <time>2017-09-22T08:58:19Z</time>
      </trkpt>
      <trkpt lat="38.105591610074043" lon="12.670101514086127">
        <ele>626.44000000000005</ele>
        <time>2017-09-22T08:58:31Z</time>
      </trkpt>
      <trkpt lat="38.10558658093214" lon="12.670043846592307">
        <ele>628.84000000000003</ele>
        <time>2017-09-22T08:58:45Z</time>
      </trkpt>
      <trkpt lat="38.105581384152174" lon="12.669997662305832">
        <ele>629.32000000000005</ele>
        <time>2017-09-22T08:58:54Z</time>
      </trkpt>
      <trkpt lat="38.105562105774879" lon="12.669941922649741">
        <ele>630.75999999999999</ele>
        <time>2017-09-22T08:59:05Z</time>
      </trkpt>
      <trkpt lat="38.105619270354509" lon="12.669934630393982">
        <ele>632.67999999999995</ele>
        <time>2017-09-22T08:59:15Z</time>
      </trkpt>
      <trkpt lat="38.105627903714776" lon="12.669904120266438">
        <ele>634.61000000000001</ele>
        <time>2017-09-22T08:59:26Z</time>
      </trkpt>
      <trkpt lat="38.105648020282388" lon="12.669898504391313">
        <ele>635.57000000000005</ele>
        <time>2017-09-22T08:59:37Z</time>
      </trkpt>
      <trkpt lat="38.105657072737813" lon="12.669855421409011">
        <ele>637.49000000000001</ele>
        <time>2017-09-22T08:59:48Z</time>
      </trkpt>
      <trkpt lat="38.105684481561184" lon="12.669830108061433">
        <ele>639.40999999999997</ele>
        <time>2017-09-22T09:00:00Z</time>
      </trkpt>
      <trkpt lat="38.105716584250331" lon="12.669829605147243">
        <ele>641.82000000000005</ele>
        <time>2017-09-22T09:00:11Z</time>
      </trkpt>
      <trkpt lat="38.10571214184165" lon="12.66981141641736">
        <ele>640.38</ele>
        <time>2017-09-22T09:00:25Z</time>
      </trkpt>
      <trkpt lat="38.105719350278378" lon="12.669803788885474">
        <ele>640.38</ele>
        <time>2017-09-22T09:00:40Z</time>
      </trkpt>
      <trkpt lat="38.105710214003921" lon="12.669775374233723">
        <ele>641.34000000000003</ele>
        <time>2017-09-22T09:00:51Z</time>
      </trkpt>
      <trkpt lat="38.105698898434639" lon="12.669762717559934">
        <ele>642.77999999999997</ele>
        <time>2017-09-22T09:01:02Z</time>
      </trkpt>
      <trkpt lat="38.105721278116107" lon="12.669754419475794">
        <ele>643.74000000000001</ele>
        <time>2017-09-22T09:01:07Z</time>
      </trkpt>
      <trkpt lat="38.105692528188229" lon="12.669722316786647">
        <ele>645.17999999999995</ele>
        <time>2017-09-22T09:01:17Z</time>
      </trkpt>
      <trkpt lat="38.105720775201917" lon="12.669683508574963">
        <ele>646.62</ele>
        <time>2017-09-22T09:01:25Z</time>
      </trkpt>
      <trkpt lat="38.10576293617487" lon="12.669699853286147">
        <ele>647.59000000000003</ele>
        <time>2017-09-22T09:01:35Z</time>
      </trkpt>
      <trkpt lat="38.105756146833301" lon="12.669692812487483">
        <ele>647.59000000000003</ele>
        <time>2017-09-22T09:01:48Z</time>
      </trkpt>
      <trkpt lat="38.105748435482383" lon="12.669702200219035">
        <ele>647.59000000000003</ele>
        <time>2017-09-22T09:01:58Z</time>
      </trkpt>
      <trkpt lat="38.105760673061013" lon="12.669665906578302">
        <ele>648.07000000000005</ele>
        <time>2017-09-22T09:02:09Z</time>
      </trkpt>
      <trkpt lat="38.105760421603918" lon="12.669635061174631">
        <ele>649.50999999999999</ele>
        <time>2017-09-22T09:02:18Z</time>
      </trkpt>
      <trkpt lat="38.105751201510429" lon="12.669579656794667">
        <ele>651.42999999999995</ele>
        <time>2017-09-22T09:02:27Z</time>
      </trkpt>
      <trkpt lat="38.105731336399913" lon="12.669528946280479">
        <ele>652.87</ele>
        <time>2017-09-22T09:02:36Z</time>
      </trkpt>
      <trkpt lat="38.105735946446657" lon="12.66949525102973">
        <ele>653.83000000000004</ele>
        <time>2017-09-22T09:02:49Z</time>
      </trkpt>
      <trkpt lat="38.105717170983553" lon="12.669482845813036">
        <ele>655.75999999999999</ele>
        <time>2017-09-22T09:03:00Z</time>
      </trkpt>
      <trkpt lat="38.105698898434639" lon="12.669475805014372">
        <ele>657.20000000000005</ele>
        <time>2017-09-22T09:03:14Z</time>
      </trkpt>
      <trkpt lat="38.105682637542486" lon="12.669423334300518">
        <ele>659.12</ele>
        <time>2017-09-22T09:03:23Z</time>
      </trkpt>
      <trkpt lat="38.10566327534616" lon="12.669383604079485">
        <ele>659.60000000000002</ele>
        <time>2017-09-22T09:03:31Z</time>
      </trkpt>
      <trkpt lat="38.105648523196578" lon="12.669401038438082">
        <ele>659.60000000000002</ele>
        <time>2017-09-22T09:03:47Z</time>
      </trkpt>
      <trkpt lat="38.105682553723454" lon="12.66937555745244">
        <ele>660.08000000000004</ele>
        <time>2017-09-22T09:04:04Z</time>
      </trkpt>
      <trkpt lat="38.105697557330132" lon="12.669363487511873">
        <ele>660.55999999999995</ele>
        <time>2017-09-22T09:04:29Z</time>
      </trkpt>
      <trkpt lat="38.105675177648664" lon="12.669323338195682">
        <ele>660.55999999999995</ele>
        <time>2017-09-22T09:04:39Z</time>
      </trkpt>
      <trkpt lat="38.105702251195908" lon="12.669370444491506">
        <ele>660.55999999999995</ele>
        <time>2017-09-22T09:04:49Z</time>
      </trkpt>
      <trkpt lat="38.105696383863688" lon="12.669387040659785">
        <ele>660.55999999999995</ele>
        <time>2017-09-22T09:05:03Z</time>
      </trkpt>
      <trkpt lat="38.105686828494072" lon="12.669400116428733">
        <ele>660.08000000000004</ele>
        <time>2017-09-22T09:05:13Z</time>
      </trkpt>
      <trkpt lat="38.105682553723454" lon="12.669395506381989">
        <ele>660.08000000000004</ele>
        <time>2017-09-22T09:05:31Z</time>
      </trkpt>
      <trkpt lat="38.105680542066693" lon="12.669381005689502">
        <ele>660.55999999999995</ele>
        <time>2017-09-22T09:05:43Z</time>
      </trkpt>
      <trkpt lat="38.105676267296076" lon="12.669391818344593">
        <ele>661.03999999999996</ele>
        <time>2017-09-22T09:05:59Z</time>
      </trkpt>
      <trkpt lat="38.105675680562854" lon="12.66939458437264">
        <ele>661.03999999999996</ele>
        <time>2017-09-22T09:06:12Z</time>
      </trkpt>
      <trkpt lat="38.105679536238313" lon="12.669395003467798">
        <ele>661.03999999999996</ele>
        <time>2017-09-22T09:06:23Z</time>
      </trkpt>
      <trkpt lat="38.105705352500081" lon="12.669406486675143">
        <ele>661.03999999999996</ele>
        <time>2017-09-22T09:06:35Z</time>
      </trkpt>
      <trkpt lat="38.105710214003921" lon="12.669401625171304">
        <ele>661.03999999999996</ele>
        <time>2017-09-22T09:06:40Z</time>
      </trkpt>
      <trkpt lat="38.105705101042986" lon="12.669387627393007">
        <ele>660.55999999999995</ele>
        <time>2017-09-22T09:06:49Z</time>
      </trkpt>
      <trkpt lat="38.105690181255341" lon="12.669381173327565">
        <ele>660.55999999999995</ele>
        <time>2017-09-22T09:07:00Z</time>
      </trkpt>
      <trkpt lat="38.105702921748161" lon="12.669368349015713">
        <ele>661.03999999999996</ele>
        <time>2017-09-22T09:07:10Z</time>
      </trkpt>
      <trkpt lat="38.105690013617277" lon="12.669370695948601">
        <ele>660.55999999999995</ele>
        <time>2017-09-22T09:07:22Z</time>
      </trkpt>
      <trkpt lat="38.105680458247662" lon="12.669361811131239">
        <ele>660.55999999999995</ele>
        <time>2017-09-22T09:07:37Z</time>
      </trkpt>
      <trkpt lat="38.105697305873036" lon="12.669387543573976">
        <ele>660.08000000000004</ele>
        <time>2017-09-22T09:07:55Z</time>
      </trkpt>
      <trkpt lat="38.105703257024288" lon="12.669406486675143">
        <ele>661.03999999999996</ele>
        <time>2017-09-22T09:08:17Z</time>
      </trkpt>
      <trkpt lat="38.105703759938478" lon="12.669419730082154">
        <ele>655.27999999999997</ele>
        <time>2017-09-22T09:08:25Z</time>
      </trkpt>
      <trkpt lat="38.105704095214605" lon="12.669420149177313">
        <ele>660.08000000000004</ele>
        <time>2017-09-22T09:08:26Z</time>
      </trkpt>
      <trkpt lat="38.10571507550776" lon="12.669412270188332">
        <ele>660.08000000000004</ele>
        <time>2017-09-22T09:08:51Z</time>
      </trkpt>
      <trkpt lat="38.105722535401583" lon="12.669404894113541">
        <ele>666.80999999999995</ele>
        <time>2017-09-22T09:09:02Z</time>
      </trkpt>
      <trkpt lat="38.105719015002251" lon="12.669404558837414">
        <ele>660.55999999999995</ele>
        <time>2017-09-22T09:09:03Z</time>
      </trkpt>
      <trkpt lat="38.105700826272368" lon="12.669405480846763">
        <ele>660.55999999999995</ele>
        <time>2017-09-22T09:09:33Z</time>
      </trkpt>
      <trkpt lat="38.105694036930799" lon="12.669400367885828">
        <ele>660.55999999999995</ele>
        <time>2017-09-22T09:09:59Z</time>
      </trkpt>
      <trkpt lat="38.105695294216275" lon="12.669398272410035">
        <ele>661.03999999999996</ele>
        <time>2017-09-22T09:10:26Z</time>
      </trkpt>
      <trkpt lat="38.105714153498411" lon="12.669430542737246">
        <ele>661.03999999999996</ele>
        <time>2017-09-22T09:10:46Z</time>
      </trkpt>
      <trkpt lat="38.105707531794906" lon="12.669432554394007">
        <ele>661.03999999999996</ele>
        <time>2017-09-22T09:11:19Z</time>
      </trkpt>
      <trkpt lat="38.105704095214605" lon="12.669429872184992">
        <ele>661.03999999999996</ele>
        <time>2017-09-22T09:11:53Z</time>
      </trkpt>
      <trkpt lat="38.105703676119447" lon="12.669428698718548">
        <ele>661.03999999999996</ele>
        <time>2017-09-22T09:12:24Z</time>
      </trkpt>
      <trkpt lat="38.105705939233303" lon="12.669426519423723">
        <ele>661.03999999999996</ele>
        <time>2017-09-22T09:12:55Z</time>
      </trkpt>
      <trkpt lat="38.105704430490732" lon="12.669427525252104">
        <ele>661.51999999999998</ele>
        <time>2017-09-22T09:13:24Z</time>
      </trkpt>
      <trkpt lat="38.105706945061684" lon="12.669430794194341">
        <ele>661.51999999999998</ele>
        <time>2017-09-22T09:13:57Z</time>
      </trkpt>
      <trkpt lat="38.105706693604589" lon="12.66943221911788">
        <ele>661.51999999999998</ele>
        <time>2017-09-22T09:14:27Z</time>
      </trkpt>
      <trkpt lat="38.105706525966525" lon="12.669430123642087">
        <ele>662.00999999999999</ele>
        <time>2017-09-22T09:14:58Z</time>
      </trkpt>
      <trkpt lat="38.105705520138144" lon="12.669430710375309">
        <ele>662.00999999999999</ele>
        <time>2017-09-22T09:15:30Z</time>
      </trkpt>
      <trkpt lat="38.105708537623286" lon="12.669429620727897">
        <ele>662.00999999999999</ele>
        <time>2017-09-22T09:15:59Z</time>
      </trkpt>
      <trkpt lat="38.105704765766859" lon="12.669428195804358">
        <ele>662.00999999999999</ele>
        <time>2017-09-22T09:16:28Z</time>
      </trkpt>
      <trkpt lat="38.105706442147493" lon="12.669425345957279">
        <ele>662.00999999999999</ele>
        <time>2017-09-22T09:16:59Z</time>
      </trkpt>
      <trkpt lat="38.105708789080381" lon="12.669426100328565">
        <ele>662.00999999999999</ele>
        <time>2017-09-22T09:17:23Z</time>
      </trkpt>
      <trkpt lat="38.105704011395574" lon="12.669421909376979">
        <ele>662.00999999999999</ele>
        <time>2017-09-22T09:18:00Z</time>
      </trkpt>
      <trkpt lat="38.105704598128796" lon="12.669424759224057">
        <ele>662.00999999999999</ele>
        <time>2017-09-22T09:18:25Z</time>
      </trkpt>
      <trkpt lat="38.105702670291066" lon="12.669418975710869">
        <ele>662.49000000000001</ele>
        <time>2017-09-22T09:18:51Z</time>
      </trkpt>
      <trkpt lat="38.10570627450943" lon="12.669410509988666">
        <ele>662.49000000000001</ele>
        <time>2017-09-22T09:19:20Z</time>
      </trkpt>
      <trkpt lat="38.105692695826292" lon="12.669405899941921">
        <ele>663.45000000000005</ele>
        <time>2017-09-22T09:19:36Z</time>
      </trkpt>
      <trkpt lat="38.105691270902753" lon="12.669382682070136">
        <ele>663.45000000000005</ele>
        <time>2017-09-22T09:19:44Z</time>
      </trkpt>
      <trkpt lat="38.105694875121117" lon="12.669429620727897">
        <ele>663.45000000000005</ele>
        <time>2017-09-22T09:19:56Z</time>
      </trkpt>
      <trkpt lat="38.10568330809474" lon="12.669428279623389">
        <ele>663.45000000000005</ele>
        <time>2017-09-22T09:20:10Z</time>
      </trkpt>
      <trkpt lat="38.105677859857678" lon="12.669416628777981">
        <ele>663.92999999999995</ele>
        <time>2017-09-22T09:20:22Z</time>
      </trkpt>
      <trkpt lat="38.10566863976419" lon="12.669366588816047">
        <ele>663.92999999999995</ele>
        <time>2017-09-22T09:20:33Z</time>
      </trkpt>
      <trkpt lat="38.105669729411602" lon="12.669373210519552">
        <ele>663.92999999999995</ele>
        <time>2017-09-22T09:20:45Z</time>
      </trkpt>
      <trkpt lat="38.1056715734303" lon="12.669376982375979">
        <ele>663.92999999999995</ele>
        <time>2017-09-22T09:20:56Z</time>
      </trkpt>
      <trkpt lat="38.105664700269699" lon="12.669371198862791">
        <ele>663.92999999999995</ele>
        <time>2017-09-22T09:21:14Z</time>
      </trkpt>
      <trkpt lat="38.105678949505091" lon="12.669395506381989">
        <ele>663.92999999999995</ele>
        <time>2017-09-22T09:21:26Z</time>
      </trkpt>
      <trkpt lat="38.105680625885725" lon="12.669441774487495">
        <ele>663.92999999999995</ele>
        <time>2017-09-22T09:21:35Z</time>
      </trkpt>
      <trkpt lat="38.105684565380216" lon="12.669473960995674">
        <ele>662.00999999999999</ele>
        <time>2017-09-22T09:21:44Z</time>
      </trkpt>
      <trkpt lat="38.105633603408933" lon="12.669496424496174">
        <ele>660.55999999999995</ele>
        <time>2017-09-22T09:21:55Z</time>
      </trkpt>
      <trkpt lat="38.105643829330802" lon="12.669539675116539">
        <ele>659.12</ele>
        <time>2017-09-22T09:22:04Z</time>
      </trkpt>
      <trkpt lat="38.105629747733474" lon="12.669556522741914">
        <ele>658.63999999999999</ele>
        <time>2017-09-22T09:22:11Z</time>
      </trkpt>
      <trkpt lat="38.105654306709766" lon="12.669600611552596">
        <ele>656.24000000000001</ele>
        <time>2017-09-22T09:22:20Z</time>
      </trkpt>
      <trkpt lat="38.105666963383555" lon="12.669674288481474">
        <ele>654.30999999999995</ele>
        <time>2017-09-22T09:22:31Z</time>
      </trkpt>
      <trkpt lat="38.105713482946157" lon="12.669677808880806">
        <ele>652.38999999999999</ele>
        <time>2017-09-22T09:22:43Z</time>
      </trkpt>
      <trkpt lat="38.105718344449997" lon="12.669705720618367">
        <ele>651.42999999999995</ele>
        <time>2017-09-22T09:22:51Z</time>
      </trkpt>
      <trkpt lat="38.105715243145823" lon="12.669733548536897">
        <ele>649.99000000000001</ele>
        <time>2017-09-22T09:22:59Z</time>
      </trkpt>
      <trkpt lat="38.105723960325122" lon="12.66975274309516">
        <ele>649.02999999999997</ele>
        <time>2017-09-22T09:23:06Z</time>
      </trkpt>
      <trkpt lat="38.105709794908762" lon="12.669756850227714">
        <ele>648.07000000000005</ele>
        <time>2017-09-22T09:23:14Z</time>
      </trkpt>
      <trkpt lat="38.105718595907092" lon="12.669786522164941">
        <ele>646.62</ele>
        <time>2017-09-22T09:23:22Z</time>
      </trkpt>
      <trkpt lat="38.105684146285057" lon="12.669817535206676">
        <ele>644.70000000000005</ele>
        <time>2017-09-22T09:23:28Z</time>
      </trkpt>
      <trkpt lat="38.105658581480384" lon="12.669829688966274">
        <ele>643.74000000000001</ele>
        <time>2017-09-22T09:23:37Z</time>
      </trkpt>
      <trkpt lat="38.105642572045326" lon="12.669865982607007">
        <ele>642.77999999999997</ele>
        <time>2017-09-22T09:23:47Z</time>
      </trkpt>
      <trkpt lat="38.105640644207597" lon="12.669886518269777">
        <ele>641.34000000000003</ele>
        <time>2017-09-22T09:23:57Z</time>
      </trkpt>
      <trkpt lat="38.105621282011271" lon="12.669914094731212">
        <ele>639.88999999999999</ele>
        <time>2017-09-22T09:24:06Z</time>
      </trkpt>
      <trkpt lat="38.105630502104759" lon="12.669951058924198">
        <ele>638.45000000000005</ele>
        <time>2017-09-22T09:24:16Z</time>
      </trkpt>
      <trkpt lat="38.105621365830302" lon="12.669969582930207">
        <ele>637.49000000000001</ele>
        <time>2017-09-22T09:24:28Z</time>
      </trkpt>
      <trkpt lat="38.105605943128467" lon="12.669993136078119">
        <ele>636.52999999999997</ele>
        <time>2017-09-22T09:24:36Z</time>
      </trkpt>
      <trkpt lat="38.105604182928801" lon="12.670020796358585">
        <ele>634.13</ele>
        <time>2017-09-22T09:24:46Z</time>
      </trkpt>
      <trkpt lat="38.105594208464026" lon="12.670043762773275">
        <ele>633.64999999999998</ele>
        <time>2017-09-22T09:24:54Z</time>
      </trkpt>
      <trkpt lat="38.105587419122458" lon="12.670057509094477">
        <ele>632.67999999999995</ele>
        <time>2017-09-22T09:24:58Z</time>
      </trkpt>
      <trkpt lat="38.105545425787568" lon="12.670112242922187">
        <ele>629.79999999999995</ele>
        <time>2017-09-22T09:25:08Z</time>
      </trkpt>
      <trkpt lat="38.105542156845331" lon="12.670115511864424">
        <ele>629.32000000000005</ele>
        <time>2017-09-22T09:25:09Z</time>
      </trkpt>
      <trkpt lat="38.105533523485065" lon="12.670132527127862">
        <ele>627.88</ele>
        <time>2017-09-22T09:25:18Z</time>
      </trkpt>
      <trkpt lat="38.105527572333813" lon="12.67016370780766">
        <ele>627.39999999999998</ele>
        <time>2017-09-22T09:25:28Z</time>
      </trkpt>
      <trkpt lat="38.10550787486136" lon="12.670190194621682">
        <ele>625.96000000000004</ele>
        <time>2017-09-22T09:25:42Z</time>
      </trkpt>
      <trkpt lat="38.105542995035648" lon="12.670240653678775">
        <ele>623.54999999999995</ele>
        <time>2017-09-22T09:25:52Z</time>
      </trkpt>
      <trkpt lat="38.105520866811275" lon="12.670292286202312">
        <ele>621.63</ele>
        <time>2017-09-22T09:26:02Z</time>
      </trkpt>
      <trkpt lat="38.105490189045668" lon="12.670332686975598">
        <ele>620.19000000000005</ele>
        <time>2017-09-22T09:26:10Z</time>
      </trkpt>
      <trkpt lat="38.105475185438991" lon="12.670362358912826">
        <ele>618.75</ele>
        <time>2017-09-22T09:26:16Z</time>
      </trkpt>
      <trkpt lat="38.105448950082064" lon="12.670365795493126">
        <ele>617.29999999999995</ele>
        <time>2017-09-22T09:26:23Z</time>
      </trkpt>
      <trkpt lat="38.105435790494084" lon="12.67035867087543">
        <ele>616.82000000000005</ele>
        <time>2017-09-22T09:26:32Z</time>
      </trkpt>
      <trkpt lat="38.105427576228976" lon="12.670370656996965">
        <ele>616.34000000000003</ele>
        <time>2017-09-22T09:26:42Z</time>
      </trkpt>
      <trkpt lat="38.105386253446341" lon="12.67038163729012">
        <ele>614.41999999999996</ele>
        <time>2017-09-22T09:26:50Z</time>
      </trkpt>
      <trkpt lat="38.105387762188911" lon="12.670415919274092">
        <ele>613.46000000000004</ele>
        <time>2017-09-22T09:27:00Z</time>
      </trkpt>
      <trkpt lat="38.105363789945841" lon="12.670448860153556">
        <ele>611.53999999999996</ele>
        <time>2017-09-22T09:27:08Z</time>
      </trkpt>
      <trkpt lat="38.105360604822636" lon="12.670453889295459">
        <ele>611.05999999999995</ele>
        <time>2017-09-22T09:27:22Z</time>
      </trkpt>
      <trkpt lat="38.105388265103102" lon="12.670508036389947">
        <ele>609.61000000000001</ele>
        <time>2017-09-22T09:27:32Z</time>
      </trkpt>
      <trkpt lat="38.105420283973217" lon="12.670564111322165">
        <ele>606.73000000000002</ele>
        <time>2017-09-22T09:27:41Z</time>
      </trkpt>
      <trkpt lat="38.10543118044734" lon="12.670589843764901">
        <ele>605.76999999999998</ele>
        <time>2017-09-22T09:27:44Z</time>
      </trkpt>
      <trkpt lat="38.105429923161864" lon="12.670657401904464">
        <ele>602.88</ele>
        <time>2017-09-22T09:27:55Z</time>
      </trkpt>
      <trkpt lat="38.105436293408275" lon="12.670675590634346">
        <ele>601.91999999999996</ele>
        <time>2017-09-22T09:28:02Z</time>
      </trkpt>
      <trkpt lat="38.105430258437991" lon="12.670735353603959">
        <ele>599.51999999999998</ele>
        <time>2017-09-22T09:28:11Z</time>
      </trkpt>
      <trkpt lat="38.105423888191581" lon="12.670729989185929">
        <ele>599.51999999999998</ele>
        <time>2017-09-22T09:28:22Z</time>
      </trkpt>
      <trkpt lat="38.105413075536489" lon="12.67078036442399">
        <ele>597.12</ele>
        <time>2017-09-22T09:28:32Z</time>
      </trkpt>
      <trkpt lat="38.105435119941831" lon="12.670768294483423">
        <ele>596.63999999999999</ele>
        <time>2017-09-22T09:28:49Z</time>
      </trkpt>
      <trkpt lat="38.105413746088743" lon="12.670829566195607">
        <ele>594.23000000000002</ele>
        <time>2017-09-22T09:28:59Z</time>
      </trkpt>
      <trkpt lat="38.105378458276391" lon="12.670868625864387">
        <ele>591.35000000000002</ele>
        <time>2017-09-22T09:29:09Z</time>
      </trkpt>
      <trkpt lat="38.105361945927143" lon="12.670884132385254">
        <ele>589.90999999999997</ele>
        <time>2017-09-22T09:29:19Z</time>
      </trkpt>
      <trkpt lat="38.105369992554188" lon="12.670913636684418">
        <ele>588.95000000000005</ele>
        <time>2017-09-22T09:29:29Z</time>
      </trkpt>
      <trkpt lat="38.105362365022302" lon="12.670959653332829">
        <ele>587.98000000000002</ele>
        <time>2017-09-22T09:29:43Z</time>
      </trkpt>
      <trkpt lat="38.10533688403666" lon="12.671027546748519">
        <ele>585.10000000000002</ele>
        <time>2017-09-22T09:29:54Z</time>
      </trkpt>
      <trkpt lat="38.105333615094423" lon="12.671064510941505">
        <ele>583.17999999999995</ele>
        <time>2017-09-22T09:30:05Z</time>
      </trkpt>
      <trkpt lat="38.105332190170884" lon="12.671087896451354">
        <ele>582.70000000000005</ele>
        <time>2017-09-22T09:30:14Z</time>
      </trkpt>
      <trkpt lat="38.105349708348513" lon="12.671140115708113">
        <ele>580.76999999999998</ele>
        <time>2017-09-22T09:30:24Z</time>
      </trkpt>
      <trkpt lat="38.105363538488746" lon="12.67118688672781">
        <ele>578.85000000000002</ele>
        <time>2017-09-22T09:30:33Z</time>
      </trkpt>
      <trkpt lat="38.105365550145507" lon="12.671234160661697">
        <ele>575.97000000000003</ele>
        <time>2017-09-22T09:30:43Z</time>
      </trkpt>
      <trkpt lat="38.105406370013952" lon="12.671276740729809">
        <ele>573.55999999999995</ele>
        <time>2017-09-22T09:30:54Z</time>
      </trkpt>
      <trkpt lat="38.105409303680062" lon="12.671313118189573">
        <ele>570.67999999999995</ele>
        <time>2017-09-22T09:31:05Z</time>
      </trkpt>
      <trkpt lat="38.105381391942501" lon="12.671362068504095">
        <ele>568.75999999999999</ele>
        <time>2017-09-22T09:31:16Z</time>
      </trkpt>
      <trkpt lat="38.105375524610281" lon="12.671422082930803">
        <ele>566.35000000000002</ele>
        <time>2017-09-22T09:31:28Z</time>
      </trkpt>
      <trkpt lat="38.105382900685072" lon="12.671471703797579">
        <ele>564.42999999999995</ele>
        <time>2017-09-22T09:31:38Z</time>
      </trkpt>
      <trkpt lat="38.105369908735156" lon="12.671528533101082">
        <ele>562.02999999999997</ele>
        <time>2017-09-22T09:31:47Z</time>
      </trkpt>
      <trkpt lat="38.105406118556857" lon="12.671538591384888">
        <ele>560.59000000000003</ele>
        <time>2017-09-22T09:31:56Z</time>
      </trkpt>
      <trkpt lat="38.105441322550178" lon="12.671566503122449">
        <ele>559.62</ele>
        <time>2017-09-22T09:32:05Z</time>
      </trkpt>
      <trkpt lat="38.105430258437991" lon="12.671629535034299">
        <ele>558.65999999999997</ele>
        <time>2017-09-22T09:32:13Z</time>
      </trkpt>
      <trkpt lat="38.105427911505103" lon="12.671625595539808">
        <ele>556.74000000000001</ele>
        <time>2017-09-22T09:32:24Z</time>
      </trkpt>
      <trkpt lat="38.105440819635987" lon="12.671675216406584">
        <ele>554.82000000000005</ele>
        <time>2017-09-22T09:32:35Z</time>
      </trkpt>
      <trkpt lat="38.105449117720127" lon="12.671701870858669">
        <ele>554.34000000000003</ele>
        <time>2017-09-22T09:32:50Z</time>
      </trkpt>
      <trkpt lat="38.105462696403265" lon="12.671719305217266">
        <ele>553.38</ele>
        <time>2017-09-22T09:32:58Z</time>
      </trkpt>
      <trkpt lat="38.105464037507772" lon="12.671763058751822">
        <ele>551.45000000000005</ele>
        <time>2017-09-22T09:33:07Z</time>
      </trkpt>
      <trkpt lat="38.105467725545168" lon="12.671820307150483">
        <ele>549.52999999999997</ele>
        <time>2017-09-22T09:33:17Z</time>
      </trkpt>
      <trkpt lat="38.105505192652345" lon="12.671798095107079">
        <ele>548.57000000000005</ele>
        <time>2017-09-22T09:33:34Z</time>
      </trkpt>
      <trkpt lat="38.105513826012611" lon="12.671889457851648">
        <ele>546.64999999999998</ele>
        <time>2017-09-22T09:33:43Z</time>
      </trkpt>
      <trkpt lat="38.105541737750173" lon="12.671920470893383">
        <ele>545.20000000000005</ele>
        <time>2017-09-22T09:33:51Z</time>
      </trkpt>
      <trkpt lat="38.105536038056016" lon="12.671929188072681">
        <ele>545.20000000000005</ele>
        <time>2017-09-22T09:33:52Z</time>
      </trkpt>
      <trkpt lat="38.105493960902095" lon="12.671993896365166">
        <ele>543.27999999999997</ele>
        <time>2017-09-22T09:34:02Z</time>
      </trkpt>
      <trkpt lat="38.105530757457018" lon="12.672040164470673">
        <ele>541.36000000000001</ele>
        <time>2017-09-22T09:34:12Z</time>
      </trkpt>
      <trkpt lat="38.105532098561525" lon="12.672054162248969">
        <ele>540.88</ele>
        <time>2017-09-22T09:34:15Z</time>
      </trkpt>
      <trkpt lat="38.105560261756182" lon="12.672100597992539">
        <ele>539.44000000000005</ele>
        <time>2017-09-22T09:34:24Z</time>
      </trkpt>
      <trkpt lat="38.105562776327133" lon="12.672120044007897">
        <ele>538.48000000000002</ele>
        <time>2017-09-22T09:34:28Z</time>
      </trkpt>
      <trkpt lat="38.105548694729805" lon="12.672143429517746">
        <ele>537.99000000000001</ele>
        <time>2017-09-22T09:34:37Z</time>
      </trkpt>
      <trkpt lat="38.10555724427104" lon="12.672171173617244">
        <ele>537.02999999999997</ele>
        <time>2017-09-22T09:34:43Z</time>
      </trkpt>
      <trkpt lat="38.105555903166533" lon="12.672201516106725">
        <ele>535.59000000000003</ele>
        <time>2017-09-22T09:34:46Z</time>
      </trkpt>
      <trkpt lat="38.105547018349171" lon="12.672257088124752">
        <ele>534.14999999999998</ele>
        <time>2017-09-22T09:34:54Z</time>
      </trkpt>
      <trkpt lat="38.105596471577883" lon="12.672267900779843">
        <ele>531.75</ele>
        <time>2017-09-22T09:35:03Z</time>
      </trkpt>
      <trkpt lat="38.105613822117448" lon="12.672294052317739">
        <ele>531.26999999999998</ele>
        <time>2017-09-22T09:35:07Z</time>
      </trkpt>
      <trkpt lat="38.105592280626297" lon="12.672380637377501">
        <ele>529.34000000000003</ele>
        <time>2017-09-22T09:35:16Z</time>
      </trkpt>
      <trkpt lat="38.105564871802926" lon="12.672455068677664">
        <ele>527.89999999999998</ele>
        <time>2017-09-22T09:35:25Z</time>
      </trkpt>
      <trkpt lat="38.105601919814944" lon="12.672503180801868">
        <ele>525.5</ele>
        <time>2017-09-22T09:35:34Z</time>
      </trkpt>
      <trkpt lat="38.105587502941489" lon="12.672558585181832">
        <ele>523.58000000000004</ele>
        <time>2017-09-22T09:35:43Z</time>
      </trkpt>
      <trkpt lat="38.105590185150504" lon="12.672564703971148">
        <ele>523.09000000000003</ele>
        <time>2017-09-22T09:35:44Z</time>
      </trkpt>
      <trkpt lat="38.105627484619617" lon="12.672599572688341">
        <ele>521.64999999999998</ele>
        <time>2017-09-22T09:35:52Z</time>
      </trkpt>
      <trkpt lat="38.105641817674041" lon="12.672651540488005">
        <ele>519.73000000000002</ele>
        <time>2017-09-22T09:36:01Z</time>
      </trkpt>
      <trkpt lat="38.105622204020619" lon="12.672721026465297">
        <ele>517.80999999999995</ele>
        <time>2017-09-22T09:36:10Z</time>
      </trkpt>
      <trkpt lat="38.105627065524459" lon="12.672794787213206">
        <ele>516.37</ele>
        <time>2017-09-22T09:36:21Z</time>
      </trkpt>
      <trkpt lat="38.105599824339151" lon="12.672877851873636">
        <ele>512.51999999999998</ele>
        <time>2017-09-22T09:36:34Z</time>
      </trkpt>
      <trkpt lat="38.105604350566864" lon="12.672950690612197">
        <ele>511.07999999999998</ele>
        <time>2017-09-22T09:36:44Z</time>
      </trkpt>
      <trkpt lat="38.105584233999252" lon="12.673003831878304">
        <ele>508.67000000000002</ele>
        <time>2017-09-22T09:36:58Z</time>
      </trkpt>
      <trkpt lat="38.105574175715446" lon="12.67303979024291">
        <ele>507.23000000000002</ele>
        <time>2017-09-22T09:37:06Z</time>
      </trkpt>
      <trkpt lat="38.105585407465696" lon="12.673073820769787">
        <ele>506.75</ele>
        <time>2017-09-22T09:37:15Z</time>
      </trkpt>
      <trkpt lat="38.10558557510376" lon="12.673116317018867">
        <ele>504.82999999999998</ele>
        <time>2017-09-22T09:37:23Z</time>
      </trkpt>
      <trkpt lat="38.105606948956847" lon="12.673148419708014">
        <ele>503.38999999999999</ele>
        <time>2017-09-22T09:37:32Z</time>
      </trkpt>
      <trkpt lat="38.105585994198918" lon="12.673184964805841">
        <ele>502.43000000000001</ele>
        <time>2017-09-22T09:37:40Z</time>
      </trkpt>
      <trkpt lat="38.105545761063695" lon="12.673216396942735">
        <ele>501.45999999999998</ele>
        <time>2017-09-22T09:37:49Z</time>
      </trkpt>
      <trkpt lat="38.105574762448668" lon="12.673240536823869">
        <ele>500.01999999999998</ele>
        <time>2017-09-22T09:37:58Z</time>
      </trkpt>
      <trkpt lat="38.105599656701088" lon="12.673283284530044">
        <ele>498.57999999999998</ele>
        <time>2017-09-22T09:38:08Z</time>
      </trkpt>
      <trkpt lat="38.105581216514111" lon="12.673281608149409">
        <ele>499.06</ele>
        <time>2017-09-22T09:38:21Z</time>
      </trkpt>
      <trkpt lat="38.105539474636316" lon="12.673298874869943">
        <ele>497.62</ele>
        <time>2017-09-22T09:38:32Z</time>
      </trkpt>
      <trkpt lat="38.10552597977221" lon="12.673315135762095">
        <ele>496.18000000000001</ele>
        <time>2017-09-22T09:38:40Z</time>
      </trkpt>
      <trkpt lat="38.105542492121458" lon="12.673323936760426">
        <ele>495.22000000000003</ele>
        <time>2017-09-22T09:38:47Z</time>
      </trkpt>
      <trkpt lat="38.105566632002592" lon="12.67333198338747">
        <ele>494.25999999999999</ele>
        <time>2017-09-22T09:38:50Z</time>
      </trkpt>
      <trkpt lat="38.10559144243598" lon="12.673399541527033">
        <ele>492.81</ele>
        <time>2017-09-22T09:38:59Z</time>
      </trkpt>
      <trkpt lat="38.105625221505761" lon="12.673447653651237">
        <ele>491.85000000000002</ele>
        <time>2017-09-22T09:39:07Z</time>
      </trkpt>
      <trkpt lat="38.105653300881386" lon="12.673504902049899">
        <ele>490.41000000000003</ele>
        <time>2017-09-22T09:39:19Z</time>
      </trkpt>
      <trkpt lat="38.105639722198248" lon="12.673551170155406">
        <ele>488.49000000000001</ele>
        <time>2017-09-22T09:39:28Z</time>
      </trkpt>
      <trkpt lat="38.105628406628966" lon="12.673610430210829">
        <ele>487.05000000000001</ele>
        <time>2017-09-22T09:39:39Z</time>
      </trkpt>
      <trkpt lat="38.105609966441989" lon="12.673651752993464">
        <ele>485.60000000000002</ele>
        <time>2017-09-22T09:39:47Z</time>
      </trkpt>
      <trkpt lat="38.105618515983224" lon="12.673704056069255">
        <ele>483.68000000000001</ele>
        <time>2017-09-22T09:39:56Z</time>
      </trkpt>
      <trkpt lat="38.10563737526536" lon="12.673723250627518">
        <ele>483.19999999999999</ele>
        <time>2017-09-22T09:40:01Z</time>
      </trkpt>
      <trkpt lat="38.10566964559257" lon="12.673761723563075">
        <ele>481.27999999999997</ele>
        <time>2017-09-22T09:40:13Z</time>
      </trkpt>
      <trkpt lat="38.105634106323123" lon="12.6737898029387">
        <ele>479.35000000000002</ele>
        <time>2017-09-22T09:40:22Z</time>
      </trkpt>
      <trkpt lat="38.105653636157513" lon="12.673853170126677">
        <ele>477.91000000000003</ele>
        <time>2017-09-22T09:40:31Z</time>
      </trkpt>
      <trkpt lat="38.105649445205927" lon="12.6738899666816">
        <ele>476.94999999999999</ele>
        <time>2017-09-22T09:40:41Z</time>
      </trkpt>
      <trkpt lat="38.105626730248332" lon="12.673937324434519">
        <ele>475.50999999999999</ele>
        <time>2017-09-22T09:40:53Z</time>
      </trkpt>
      <trkpt lat="38.10563687235117" lon="12.673985101282597">
        <ele>474.06999999999999</ele>
        <time>2017-09-22T09:41:03Z</time>
      </trkpt>
      <trkpt lat="38.105625221505761" lon="12.674052240327001">
        <ele>472.13999999999999</ele>
        <time>2017-09-22T09:41:13Z</time>
      </trkpt>
      <trkpt lat="38.105631172657013" lon="12.674094317480922">
        <ele>470.69999999999999</ele>
        <time>2017-09-22T09:41:21Z</time>
      </trkpt>
      <trkpt lat="38.105612900108099" lon="12.674133460968733">
        <ele>469.25999999999999</ele>
        <time>2017-09-22T09:41:29Z</time>
      </trkpt>
      <trkpt lat="38.10559194535017" lon="12.674159863963723">
        <ele>468.30000000000001</ele>
        <time>2017-09-22T09:41:37Z</time>
      </trkpt>
      <trkpt lat="38.105575600638986" lon="12.674204707145691">
        <ele>466.38</ele>
        <time>2017-09-22T09:41:50Z</time>
      </trkpt>
      <trkpt lat="38.105588927865028" lon="12.67427260056138">
        <ele>464.93000000000001</ele>
        <time>2017-09-22T09:42:00Z</time>
      </trkpt>
      <trkpt lat="38.105601081624627" lon="12.674324568361044">
        <ele>463.00999999999999</ele>
        <time>2017-09-22T09:42:11Z</time>
      </trkpt>
      <trkpt lat="38.1056491099298" lon="12.674350216984749">
        <ele>461.56999999999999</ele>
        <time>2017-09-22T09:42:21Z</time>
      </trkpt>
      <trkpt lat="38.105663945898414" lon="12.674425318837166">
        <ele>459.64999999999998</ele>
        <time>2017-09-22T09:42:34Z</time>
      </trkpt>
      <trkpt lat="38.105694036930799" lon="12.674453482031822">
        <ele>458.69</ele>
        <time>2017-09-22T09:42:44Z</time>
      </trkpt>
      <trkpt lat="38.105669980868697" lon="12.674488015472889">
        <ele>456.75999999999999</ele>
        <time>2017-09-22T09:42:54Z</time>
      </trkpt>
      <trkpt lat="38.105622204020619" lon="12.674542414024472">
        <ele>455.31999999999999</ele>
        <time>2017-09-22T09:43:04Z</time>
      </trkpt>
      <trkpt lat="38.105571744963527" lon="12.674581222236156">
        <ele>453.88</ele>
        <time>2017-09-22T09:43:14Z</time>
      </trkpt>
      <trkpt lat="38.10553964227438" lon="12.674624305218458">
        <ele>452.44</ele>
        <time>2017-09-22T09:43:23Z</time>
      </trkpt>
      <trkpt lat="38.105517933145165" lon="12.674655150622129">
        <ele>451.48000000000002</ele>
        <time>2017-09-22T09:43:34Z</time>
      </trkpt>
      <trkpt lat="38.105511059984565" lon="12.674731509760022">
        <ele>449.06999999999999</ele>
        <time>2017-09-22T09:43:45Z</time>
      </trkpt>
      <trkpt lat="38.105526147410274" lon="12.674771156162024">
        <ele>447.63</ele>
        <time>2017-09-22T09:43:55Z</time>
      </trkpt>
      <trkpt lat="38.105519106611609" lon="12.674821531400084">
        <ele>446.19</ele>
        <time>2017-09-22T09:44:06Z</time>
      </trkpt>
      <trkpt lat="38.105517346411943" lon="12.674866206943989">
        <ele>444.26999999999998</ele>
        <time>2017-09-22T09:44:15Z</time>
      </trkpt>
      <trkpt lat="38.105497062206268" lon="12.674925550818443">
        <ele>442.81999999999999</ele>
        <time>2017-09-22T09:44:24Z</time>
      </trkpt>
      <trkpt lat="38.105482896789908" lon="12.674939129501581">
        <ele>441.86000000000001</ele>
        <time>2017-09-22T09:44:32Z</time>
      </trkpt>
      <trkpt lat="38.105450207367539" lon="12.674984307959676">
        <ele>440.89999999999998</ele>
        <time>2017-09-22T09:44:42Z</time>
      </trkpt>
      <trkpt lat="38.105392707511783" lon="12.67496645450592">
        <ele>439.45999999999998</ele>
        <time>2017-09-22T09:44:51Z</time>
      </trkpt>
      <trkpt lat="38.105415925383568" lon="12.675017416477203">
        <ele>438.01999999999998</ele>
        <time>2017-09-22T09:45:00Z</time>
      </trkpt>
      <trkpt lat="38.105417098850012" lon="12.675017165020108">
        <ele>438.01999999999998</ele>
        <time>2017-09-22T09:45:24Z</time>
      </trkpt>
      <trkpt lat="38.105401592329144" lon="12.675012219697237">
        <ele>438.01999999999998</ele>
        <time>2017-09-22T09:45:38Z</time>
      </trkpt>
      <trkpt lat="38.10535641387105" lon="12.674962850287557">
        <ele>438.98000000000002</ele>
        <time>2017-09-22T09:45:48Z</time>
      </trkpt>
      <trkpt lat="38.105325400829315" lon="12.674945835024118">
        <ele>438.98000000000002</ele>
        <time>2017-09-22T09:45:55Z</time>
      </trkpt>
      <trkpt lat="38.105315761640668" lon="12.674953462556005">
        <ele>438.98000000000002</ele>
        <time>2017-09-22T09:46:05Z</time>
      </trkpt>
      <trkpt lat="38.105313079431653" lon="12.674953043460846">
        <ele>438.98000000000002</ele>
        <time>2017-09-22T09:46:23Z</time>
      </trkpt>
      <trkpt lat="38.105368902906775" lon="12.674956312403083">
        <ele>438.5</ele>
        <time>2017-09-22T09:46:33Z</time>
      </trkpt>
      <trkpt lat="38.105398155748844" lon="12.674965532496572">
        <ele>438.5</ele>
        <time>2017-09-22T09:46:44Z</time>
      </trkpt>
      <trkpt lat="38.105406789109111" lon="12.674972405657172">
        <ele>438.01999999999998</ele>
        <time>2017-09-22T09:47:08Z</time>
      </trkpt>
      <trkpt lat="38.105407878756523" lon="12.674980871379375">
        <ele>438.01999999999998</ele>
        <time>2017-09-22T09:47:24Z</time>
      </trkpt>
      <trkpt lat="38.105403687804937" lon="12.674981039017439">
        <ele>438.01999999999998</ele>
        <time>2017-09-22T09:47:26Z</time>
      </trkpt>
      <trkpt lat="38.105401257053018" lon="12.675006352365017">
        <ele>437.06</ele>
        <time>2017-09-22T09:47:34Z</time>
      </trkpt>
      <trkpt lat="38.105394132435322" lon="12.675008196383715">
        <ele>437.06</ele>
        <time>2017-09-22T09:47:45Z</time>
      </trkpt>
      <trkpt lat="38.105398155748844" lon="12.674986822530627">
        <ele>438.01999999999998</ele>
        <time>2017-09-22T09:47:53Z</time>
      </trkpt>
      <trkpt lat="38.10541064478457" lon="12.67502311617136">
        <ele>437.06</ele>
        <time>2017-09-22T09:48:06Z</time>
      </trkpt>
      <trkpt lat="38.105406202375889" lon="12.675028145313263">
        <ele>437.06</ele>
        <time>2017-09-22T09:48:19Z</time>
      </trkpt>
      <trkpt lat="38.105421457439661" lon="12.675046250224113">
        <ele>438.01999999999998</ele>
        <time>2017-09-22T09:48:30Z</time>
      </trkpt>
      <trkpt lat="38.105420367792249" lon="12.675074329599738">
        <ele>437.54000000000002</ele>
        <time>2017-09-22T09:48:41Z</time>
      </trkpt>
      <trkpt lat="38.105422295629978" lon="12.675064438953996">
        <ele>437.54000000000002</ele>
        <time>2017-09-22T09:48:58Z</time>
      </trkpt>
      <trkpt lat="38.105404442176223" lon="12.675040634348989">
        <ele>437.54000000000002</ele>
        <time>2017-09-22T09:49:18Z</time>
      </trkpt>
      <trkpt lat="38.105430174618959" lon="12.675057062879205">
        <ele>437.54000000000002</ele>
        <time>2017-09-22T09:49:36Z</time>
      </trkpt>
      <trkpt lat="38.105418859049678" lon="12.675057398155332">
        <ele>437.54000000000002</ele>
        <time>2017-09-22T09:49:50Z</time>
      </trkpt>
      <trkpt lat="38.10537301003933" lon="12.674986571073532">
        <ele>437.54000000000002</ele>
        <time>2017-09-22T09:50:05Z</time>
      </trkpt>
      <trkpt lat="38.105383068323135" lon="12.675021188333631">
        <ele>437.06</ele>
        <time>2017-09-22T09:50:20Z</time>
      </trkpt>
      <trkpt lat="38.105398658663034" lon="12.675005681812763">
        <ele>436.57999999999998</ele>
        <time>2017-09-22T09:50:30Z</time>
      </trkpt>
      <trkpt lat="38.105382649227977" lon="12.675020098686218">
        <ele>436.57999999999998</ele>
        <time>2017-09-22T09:50:47Z</time>
      </trkpt>
      <trkpt lat="38.105390025302768" lon="12.675026133656502">
        <ele>436.57999999999998</ele>
        <time>2017-09-22T09:50:59Z</time>
      </trkpt>
      <trkpt lat="38.105394216254354" lon="12.675029067322612">
        <ele>436.57999999999998</ele>
        <time>2017-09-22T09:51:13Z</time>
      </trkpt>
      <trkpt lat="38.10539404861629" lon="12.67504071816802">
        <ele>436.57999999999998</ele>
        <time>2017-09-22T09:51:24Z</time>
      </trkpt>
      <trkpt lat="38.105406118556857" lon="12.675035689026117">
        <ele>436.10000000000002</ele>
        <time>2017-09-22T09:51:39Z</time>
      </trkpt>
      <trkpt lat="38.10540871694684" lon="12.675038706511259">
        <ele>436.10000000000002</ele>
        <time>2017-09-22T09:51:57Z</time>
      </trkpt>
      <trkpt lat="38.10541064478457" lon="12.675050189718604">
        <ele>436.10000000000002</ele>
        <time>2017-09-22T09:52:09Z</time>
      </trkpt>
      <trkpt lat="38.105416847392917" lon="12.675059242174029">
        <ele>436.10000000000002</ele>
        <time>2017-09-22T09:52:19Z</time>
      </trkpt>
      <trkpt lat="38.105420786887407" lon="12.675050273537636">
        <ele>436.10000000000002</ele>
        <time>2017-09-22T09:52:46Z</time>
      </trkpt>
      <trkpt lat="38.105426318943501" lon="12.675048597157001">
        <ele>436.10000000000002</ele>
        <time>2017-09-22T09:53:00Z</time>
      </trkpt>
      <trkpt lat="38.105418020859361" lon="12.675056643784046">
        <ele>436.10000000000002</ele>
        <time>2017-09-22T09:53:13Z</time>
      </trkpt>
      <trkpt lat="38.105416595935822" lon="12.675070641562343">
        <ele>435.61000000000001</ele>
        <time>2017-09-22T09:53:31Z</time>
      </trkpt>
      <trkpt lat="38.10540284961462" lon="12.675044909119606">
        <ele>435.61000000000001</ele>
        <time>2017-09-22T09:53:45Z</time>
      </trkpt>
      <trkpt lat="38.105385415256023" lon="12.675059074535966">
        <ele>434.17000000000002</ele>
        <time>2017-09-22T09:53:58Z</time>
      </trkpt>
      <trkpt lat="38.105377368628979" lon="12.675068881362677">
        <ele>433.69</ele>
        <time>2017-09-22T09:54:15Z</time>
      </trkpt>
      <trkpt lat="38.105377955362201" lon="12.675083465874195">
        <ele>433.20999999999998</ele>
        <time>2017-09-22T09:54:34Z</time>
      </trkpt>
      <trkpt lat="38.105375356972218" lon="12.675076005980372">
        <ele>432.73000000000002</ele>
        <time>2017-09-22T09:54:51Z</time>
      </trkpt>
      <trkpt lat="38.105357671156526" lon="12.675076676532626">
        <ele>431.76999999999998</ele>
        <time>2017-09-22T09:55:08Z</time>
      </trkpt>
      <trkpt lat="38.105361945927143" lon="12.675083549693227">
        <ele>431.76999999999998</ele>
        <time>2017-09-22T09:55:20Z</time>
      </trkpt>
      <trkpt lat="38.105348199605942" lon="12.675088411197066">
        <ele>431.29000000000002</ele>
        <time>2017-09-22T09:55:27Z</time>
      </trkpt>
      <trkpt lat="38.10534811578691" lon="12.675113556906581">
        <ele>429.85000000000002</ele>
        <time>2017-09-22T09:55:37Z</time>
      </trkpt>
      <trkpt lat="38.105363538488746" lon="12.675139205530286">
        <ele>428.39999999999998</ele>
        <time>2017-09-22T09:55:45Z</time>
      </trkpt>
      <trkpt lat="38.105357000604272" lon="12.675145575776696">
        <ele>427.44</ele>
        <time>2017-09-22T09:55:53Z</time>
      </trkpt>
      <trkpt lat="38.105366472154856" lon="12.675153706222773">
        <ele>427.92000000000002</ele>
        <time>2017-09-22T09:56:00Z</time>
      </trkpt>
      <trkpt lat="38.105336967855692" lon="12.675153622403741">
        <ele>427.44</ele>
        <time>2017-09-22T09:56:09Z</time>
      </trkpt>
      <trkpt lat="38.105341829359531" lon="12.675176085904241">
        <ele>426.48000000000002</ele>
        <time>2017-09-22T09:56:19Z</time>
      </trkpt>
      <trkpt lat="38.10533294454217" lon="12.675189832225442">
        <ele>425.51999999999998</ele>
        <time>2017-09-22T09:56:30Z</time>
      </trkpt>
      <trkpt lat="38.105339398607612" lon="12.675199722871184">
        <ele>424.56</ele>
        <time>2017-09-22T09:56:39Z</time>
      </trkpt>
      <trkpt lat="38.105344595387578" lon="12.675199890509248">
        <ele>424.07999999999998</ele>
        <time>2017-09-22T09:56:40Z</time>
      </trkpt>
      <trkpt lat="38.105363370850682" lon="12.675212379544973">
        <ele>424.07999999999998</ele>
        <time>2017-09-22T09:56:51Z</time>
      </trkpt>
      <trkpt lat="38.105390276759863" lon="12.675223695114255">
        <ele>422.63999999999999</ele>
        <time>2017-09-22T09:57:01Z</time>
      </trkpt>
      <trkpt lat="38.105396730825305" lon="12.675236938521266">
        <ele>422.16000000000003</ele>
        <time>2017-09-22T09:57:04Z</time>
      </trkpt>
      <trkpt lat="38.105333279818296" lon="12.675314890220761">
        <ele>419.75</ele>
        <time>2017-09-22T09:57:14Z</time>
      </trkpt>
      <trkpt lat="38.105331351980567" lon="12.675325535237789">
        <ele>419.75</ele>
        <time>2017-09-22T09:57:15Z</time>
      </trkpt>
      <trkpt lat="38.105284916236997" lon="12.675338024273515">
        <ele>418.31</ele>
        <time>2017-09-22T09:57:21Z</time>
      </trkpt>
      <trkpt lat="38.105261949822307" lon="12.675345065072179">
        <ele>418.31</ele>
        <time>2017-09-22T09:57:31Z</time>
      </trkpt>
      <trkpt lat="38.105204198509455" lon="12.675311453640461">
        <ele>418.79000000000002</ele>
        <time>2017-09-22T09:57:40Z</time>
      </trkpt>
      <trkpt lat="38.105185255408287" lon="12.67529284581542">
        <ele>417.82999999999998</ele>
        <time>2017-09-22T09:57:48Z</time>
      </trkpt>
      <trkpt lat="38.105149799957871" lon="12.675292510539293">
        <ele>415.91000000000003</ele>
        <time>2017-09-22T09:57:56Z</time>
      </trkpt>
      <trkpt lat="38.105148039758205" lon="12.67527524381876">
        <ele>415.91000000000003</ele>
        <time>2017-09-22T09:58:04Z</time>
      </trkpt>
      <trkpt lat="38.105156337842345" lon="12.675243895500898">
        <ele>415.43000000000001</ele>
        <time>2017-09-22T09:58:22Z</time>
      </trkpt>
      <trkpt lat="38.10515072196722" lon="12.675247248262167">
        <ele>414.94999999999999</ele>
        <time>2017-09-22T09:58:30Z</time>
      </trkpt>
      <trkpt lat="38.105124989524484" lon="12.675253031775355">
        <ele>414.47000000000003</ele>
        <time>2017-09-22T09:58:47Z</time>
      </trkpt>
      <trkpt lat="38.105138316750526" lon="12.6752386149019">
        <ele>413.98000000000002</ele>
        <time>2017-09-22T09:58:55Z</time>
      </trkpt>
      <trkpt lat="38.105133371427655" lon="12.675249930471182">
        <ele>413.5</ele>
        <time>2017-09-22T09:59:07Z</time>
      </trkpt>
      <trkpt lat="38.105144184082747" lon="12.67524054273963">
        <ele>413.5</ele>
        <time>2017-09-22T09:59:22Z</time>
      </trkpt>
      <trkpt lat="38.105115601792932" lon="12.675250936299562">
        <ele>413.01999999999998</ele>
        <time>2017-09-22T09:59:40Z</time>
      </trkpt>
      <trkpt lat="38.105145357549191" lon="12.675207015126944">
        <ele>412.54000000000002</ele>
        <time>2017-09-22T09:59:53Z</time>
      </trkpt>
      <trkpt lat="38.10515608638525" lon="12.675180695950985">
        <ele>411.57999999999998</ele>
        <time>2017-09-22T10:00:02Z</time>
      </trkpt>
      <trkpt lat="38.105139825493097" lon="12.675187150016427">
        <ele>411.57999999999998</ele>
        <time>2017-09-22T10:00:09Z</time>
      </trkpt>
      <trkpt lat="38.105139574036002" lon="12.675186730921268">
        <ele>411.10000000000002</ele>
        <time>2017-09-22T10:00:18Z</time>
      </trkpt>
      <trkpt lat="38.105138149112463" lon="12.675160830840468">
        <ele>409.66000000000003</ele>
        <time>2017-09-22T10:00:28Z</time>
      </trkpt>
      <trkpt lat="38.105161702260375" lon="12.675137277692556">
        <ele>409.66000000000003</ele>
        <time>2017-09-22T10:00:33Z</time>
      </trkpt>
      <trkpt lat="38.105142004787922" lon="12.675116322934628">
        <ele>408.69999999999999</ele>
        <time>2017-09-22T10:00:42Z</time>
      </trkpt>
      <trkpt lat="38.105139574036002" lon="12.675123028457165">
        <ele>408.22000000000003</ele>
        <time>2017-09-22T10:00:52Z</time>
      </trkpt>
      <trkpt lat="38.105146028101444" lon="12.675101989880204">
        <ele>408.22000000000003</ele>
        <time>2017-09-22T10:01:04Z</time>
      </trkpt>
      <trkpt lat="38.10516094788909" lon="12.675065528601408">
        <ele>408.22000000000003</ele>
        <time>2017-09-22T10:01:15Z</time>
      </trkpt>
      <trkpt lat="38.105161283165216" lon="12.67503242008388">
        <ele>408.22000000000003</ele>
        <time>2017-09-22T10:01:27Z</time>
      </trkpt>
      <trkpt lat="38.105156337842345" lon="12.675015823915601">
        <ele>407.74000000000001</ele>
        <time>2017-09-22T10:01:37Z</time>
      </trkpt>
      <trkpt lat="38.105142256245017" lon="12.675008783116937">
        <ele>407.25999999999999</ele>
        <time>2017-09-22T10:01:49Z</time>
      </trkpt>
      <trkpt lat="38.105133203789592" lon="12.675025379285216">
        <ele>407.25999999999999</ele>
        <time>2017-09-22T10:02:00Z</time>
      </trkpt>
      <trkpt lat="38.105126246809959" lon="12.675001658499241">
        <ele>406.76999999999998</ele>
        <time>2017-09-22T10:02:10Z</time>
      </trkpt>
      <trkpt lat="38.105119541287422" lon="12.675000987946987">
        <ele>405.81</ele>
        <time>2017-09-22T10:02:23Z</time>
      </trkpt>
      <trkpt lat="38.105116942897439" lon="12.675014398992062">
        <ele>406.29000000000002</ele>
        <time>2017-09-22T10:02:38Z</time>
      </trkpt>
      <trkpt lat="38.105130018666387" lon="12.675012471154332">
        <ele>405.32999999999998</ele>
        <time>2017-09-22T10:02:56Z</time>
      </trkpt>
      <trkpt lat="38.10511794872582" lon="12.675031498074532">
        <ele>404.85000000000002</ele>
        <time>2017-09-22T10:03:10Z</time>
      </trkpt>
      <trkpt lat="38.105117110535502" lon="12.675009788945317">
        <ele>404.37</ele>
        <time>2017-09-22T10:03:19Z</time>
      </trkpt>
      <trkpt lat="38.105119625106454" lon="12.675010124221444">
        <ele>404.37</ele>
        <time>2017-09-22T10:03:36Z</time>
      </trkpt>
      <trkpt lat="38.105128929018974" lon="12.675025295466185">
        <ele>404.37</ele>
        <time>2017-09-22T10:03:57Z</time>
      </trkpt>
      <trkpt lat="38.105132952332497" lon="12.675006603822112">
        <ele>403.88999999999999</ele>
        <time>2017-09-22T10:04:17Z</time>
      </trkpt>
      <trkpt lat="38.105136808007956" lon="12.675023535266519">
        <ele>403.41000000000003</ele>
        <time>2017-09-22T10:04:34Z</time>
      </trkpt>
      <trkpt lat="38.105121301487088" lon="12.674997048452497">
        <ele>402.93000000000001</ele>
        <time>2017-09-22T10:04:52Z</time>
      </trkpt>
      <trkpt lat="38.105128342285752" lon="12.675011465325952">
        <ele>402.93000000000001</ele>
        <time>2017-09-22T10:05:19Z</time>
      </trkpt>
      <trkpt lat="38.105117864906788" lon="12.675018003210425">
        <ele>402.93000000000001</ele>
        <time>2017-09-22T10:05:30Z</time>
      </trkpt>
      <trkpt lat="38.105108058080077" lon="12.675031162798405">
        <ele>401.97000000000003</ele>
        <time>2017-09-22T10:05:39Z</time>
      </trkpt>
      <trkpt lat="38.105102023109794" lon="12.675019931048155">
        <ele>402.44999999999999</ele>
        <time>2017-09-22T10:05:53Z</time>
      </trkpt>
      <trkpt lat="38.105101101100445" lon="12.675039879977703">
        <ele>402.44999999999999</ele>
        <time>2017-09-22T10:06:08Z</time>
      </trkpt>
      <trkpt lat="38.105094395577908" lon="12.675048261880875">
        <ele>401.97000000000003</ele>
        <time>2017-09-22T10:06:24Z</time>
      </trkpt>
      <trkpt lat="38.105091042816639" lon="12.675053961575031">
        <ele>401.97000000000003</ele>
        <time>2017-09-22T10:06:35Z</time>
      </trkpt>
      <trkpt lat="38.105090539902449" lon="12.675032000988722">
        <ele>401.97000000000003</ele>
        <time>2017-09-22T10:06:46Z</time>
      </trkpt>
      <trkpt lat="38.105082493275404" lon="12.675042478367686">
        <ele>402.44999999999999</ele>
        <time>2017-09-22T10:07:02Z</time>
      </trkpt>
      <trkpt lat="38.105078134685755" lon="12.675036946311593">
        <ele>402.44999999999999</ele>
        <time>2017-09-22T10:07:16Z</time>
      </trkpt>
      <trkpt lat="38.105104202404618" lon="12.675030240789056">
        <ele>402.44999999999999</ele>
        <time>2017-09-22T10:07:31Z</time>
      </trkpt>
      <trkpt lat="38.105106046423316" lon="12.67504071816802">
        <ele>402.44999999999999</ele>
        <time>2017-09-22T10:07:46Z</time>
      </trkpt>
      <trkpt lat="38.105069668963552" lon="12.675052536651492">
        <ele>401.49000000000001</ele>
        <time>2017-09-22T10:08:03Z</time>
      </trkpt>
      <trkpt lat="38.105061873793602" lon="12.675035437569022">
        <ele>401.49000000000001</ele>
        <time>2017-09-22T10:08:17Z</time>
      </trkpt>
      <trkpt lat="38.105060616508126" lon="12.675048345699906">
        <ele>401.49000000000001</ele>
        <time>2017-09-22T10:08:31Z</time>
      </trkpt>
      <trkpt lat="38.10505541972816" lon="12.675057481974363">
        <ele>400.52999999999997</ele>
        <time>2017-09-22T10:08:45Z</time>
      </trkpt>
      <trkpt lat="38.105070674791932" lon="12.675052201375365">
        <ele>401.00999999999999</ele>
        <time>2017-09-22T10:08:55Z</time>
      </trkpt>
      <trkpt lat="38.105051061138511" lon="12.675049770623446">
        <ele>401.00999999999999</ele>
        <time>2017-09-22T10:09:08Z</time>
      </trkpt>
      <trkpt lat="38.105042008683085" lon="12.675056308507919">
        <ele>401.00999999999999</ele>
        <time>2017-09-22T10:09:24Z</time>
      </trkpt>
      <trkpt lat="38.105033626779914" lon="12.675060667097569">
        <ele>400.52999999999997</ele>
        <time>2017-09-22T10:09:33Z</time>
      </trkpt>
      <trkpt lat="38.105052402243018" lon="12.675054799765348">
        <ele>400.52999999999997</ele>
        <time>2017-09-22T10:09:47Z</time>
      </trkpt>
      <trkpt lat="38.10505005531013" lon="12.675042478367686">
        <ele>400.05000000000001</ele>
        <time>2017-09-22T10:10:07Z</time>
      </trkpt>
      <trkpt lat="38.105046283453703" lon="12.675031330436468">
        <ele>399.07999999999998</ele>
        <time>2017-09-22T10:10:18Z</time>
      </trkpt>
      <trkpt lat="38.105065394192934" lon="12.675053039565682">
        <ele>399.07999999999998</ele>
        <time>2017-09-22T10:10:27Z</time>
      </trkpt>
      <trkpt lat="38.105036895722151" lon="12.675051866099238">
        <ele>398.60000000000002</ele>
        <time>2017-09-22T10:10:38Z</time>
      </trkpt>
      <trkpt lat="38.105037482455373" lon="12.675047842785716">
        <ele>398.12</ele>
        <time>2017-09-22T10:10:47Z</time>
      </trkpt>
      <trkpt lat="38.105033794417977" lon="12.675083801150322">
        <ele>397.16000000000003</ele>
        <time>2017-09-22T10:11:00Z</time>
      </trkpt>
      <trkpt lat="38.105021473020315" lon="12.67506661824882">
        <ele>396.19999999999999</ele>
        <time>2017-09-22T10:11:08Z</time>
      </trkpt>
      <trkpt lat="38.105025915428996" lon="12.67507391050458">
        <ele>395.72000000000003</ele>
        <time>2017-09-22T10:11:18Z</time>
      </trkpt>
      <trkpt lat="38.105004709213972" lon="12.67508371733129">
        <ele>395.72000000000003</ele>
        <time>2017-09-22T10:11:29Z</time>
      </trkpt>
      <trkpt lat="38.104987107217312" lon="12.67506904900074">
        <ele>394.75999999999999</ele>
        <time>2017-09-22T10:11:41Z</time>
      </trkpt>
      <trkpt lat="38.104982832446694" lon="12.67505144700408">
        <ele>394.75999999999999</ele>
        <time>2017-09-22T10:11:52Z</time>
      </trkpt>
      <trkpt lat="38.104976546019316" lon="12.675058068707585">
        <ele>394.27999999999997</ele>
        <time>2017-09-22T10:12:03Z</time>
      </trkpt>
      <trkpt lat="38.104960368946195" lon="12.675071060657501">
        <ele>394.27999999999997</ele>
        <time>2017-09-22T10:12:17Z</time>
      </trkpt>
      <trkpt lat="38.104938743636012" lon="12.675113221630454">
        <ele>395.72000000000003</ele>
        <time>2017-09-22T10:12:36Z</time>
      </trkpt>
      <trkpt lat="38.10493572615087" lon="12.675105845555663">
        <ele>394.27999999999997</ele>
        <time>2017-09-22T10:12:46Z</time>
      </trkpt>
      <trkpt lat="38.104930780827999" lon="12.675089752301574">
        <ele>392.83999999999997</ele>
        <time>2017-09-22T10:12:57Z</time>
      </trkpt>
      <trkpt lat="38.104970175772905" lon="12.675087992101908">
        <ele>392.36000000000001</ele>
        <time>2017-09-22T10:13:05Z</time>
      </trkpt>
      <trkpt lat="38.104972774162889" lon="12.675113724544644">
        <ele>390.91000000000003</ele>
        <time>2017-09-22T10:13:14Z</time>
      </trkpt>
      <trkpt lat="38.104987777769566" lon="12.675130153074861">
        <ele>390.43000000000001</ele>
        <time>2017-09-22T10:13:24Z</time>
      </trkpt>
      <trkpt lat="38.104993728920817" lon="12.675148509442806">
        <ele>389.47000000000003</ele>
        <time>2017-09-22T10:13:34Z</time>
      </trkpt>
      <trkpt lat="38.104999763891101" lon="12.675157058984041">
        <ele>388.50999999999999</ele>
        <time>2017-09-22T10:13:47Z</time>
      </trkpt>
      <trkpt lat="38.104994315654039" lon="12.675162926316261">
        <ele>388.50999999999999</ele>
        <time>2017-09-22T10:13:48Z</time>
      </trkpt>
      <trkpt lat="38.10495282523334" lon="12.675186898559332">
        <ele>387.06999999999999</ele>
        <time>2017-09-22T10:13:54Z</time>
      </trkpt>
      <trkpt lat="38.104953914880753" lon="12.675182623788714">
        <ele>386.11000000000001</ele>
        <time>2017-09-22T10:14:04Z</time>
      </trkpt>
      <trkpt lat="38.104934301227331" lon="12.675204249098897">
        <ele>385.14999999999998</ele>
        <time>2017-09-22T10:14:13Z</time>
      </trkpt>
      <trkpt lat="38.104911670088768" lon="12.675196286290884">
        <ele>384.66000000000003</ele>
        <time>2017-09-22T10:14:24Z</time>
      </trkpt>
      <trkpt lat="38.10489566065371" lon="12.675194526091218">
        <ele>383.22000000000003</ele>
        <time>2017-09-22T10:14:34Z</time>
      </trkpt>
      <trkpt lat="38.104876130819321" lon="12.675155969336629">
        <ele>381.77999999999997</ele>
        <time>2017-09-22T10:14:42Z</time>
      </trkpt>
      <trkpt lat="38.104867246001959" lon="12.675158064812422">
        <ele>380.81999999999999</ele>
        <time>2017-09-22T10:14:53Z</time>
      </trkpt>
      <trkpt lat="38.104862971231341" lon="12.67515555024147">
        <ele>380.81999999999999</ele>
        <time>2017-09-22T10:15:06Z</time>
      </trkpt>
      <trkpt lat="38.104856014251709" lon="12.675149263814092">
        <ele>380.81999999999999</ele>
        <time>2017-09-22T10:15:18Z</time>
      </trkpt>
      <trkpt lat="38.104861127212644" lon="12.675145240500569">
        <ele>380.81999999999999</ele>
        <time>2017-09-22T10:15:31Z</time>
      </trkpt>
      <trkpt lat="38.10483698733151" lon="12.675130404531956">
        <ele>380.33999999999997</ele>
        <time>2017-09-22T10:15:38Z</time>
      </trkpt>
      <trkpt lat="38.104818714782596" lon="12.675081202760339">
        <ele>378.89999999999998</ele>
        <time>2017-09-22T10:15:48Z</time>
      </trkpt>
      <trkpt lat="38.104819217696786" lon="12.675030240789056">
        <ele>378.42000000000002</ele>
        <time>2017-09-22T10:15:57Z</time>
      </trkpt>
      <trkpt lat="38.104790635406971" lon="12.675006687641144">
        <ele>377.44999999999999</ele>
        <time>2017-09-22T10:16:05Z</time>
      </trkpt>
      <trkpt lat="38.104748893529177" lon="12.674999982118607">
        <ele>375.52999999999997</ele>
        <time>2017-09-22T10:16:14Z</time>
      </trkpt>
      <trkpt lat="38.1047079898417" lon="12.67499235458672">
        <ele>374.56999999999999</ele>
        <time>2017-09-22T10:16:25Z</time>
      </trkpt>
      <trkpt lat="38.104737745597959" lon="12.67501967959106">
        <ele>373.13</ele>
        <time>2017-09-22T10:16:33Z</time>
      </trkpt>
      <trkpt lat="38.104745792225003" lon="12.675043735653162">
        <ele>372.64999999999998</ele>
        <time>2017-09-22T10:16:41Z</time>
      </trkpt>
      <trkpt lat="38.104729615151882" lon="12.675055721774697">
        <ele>372.17000000000002</ele>
        <time>2017-09-22T10:16:50Z</time>
      </trkpt>
      <trkpt lat="38.104732213541865" lon="12.675068965181708">
        <ele>370.73000000000002</ele>
        <time>2017-09-22T10:17:03Z</time>
      </trkpt>
      <trkpt lat="38.104727938771248" lon="12.675077179446816">
        <ele>370.24000000000001</ele>
        <time>2017-09-22T10:17:05Z</time>
      </trkpt>
      <trkpt lat="38.104711258783937" lon="12.675093691796064">
        <ele>369.27999999999997</ele>
        <time>2017-09-22T10:17:15Z</time>
      </trkpt>
      <trkpt lat="38.104705139994621" lon="12.675088662654161">
        <ele>368.31999999999999</ele>
        <time>2017-09-22T10:17:26Z</time>
      </trkpt>
      <trkpt lat="38.104683682322502" lon="12.675092853605747">
        <ele>367.36000000000001</ele>
        <time>2017-09-22T10:17:32Z</time>
      </trkpt>
      <trkpt lat="38.104657027870417" lon="12.675054045394063">
        <ele>365.44</ele>
        <time>2017-09-22T10:17:41Z</time>
      </trkpt>
      <trkpt lat="38.104636743664742" lon="12.675013728439808">
        <ele>364.48000000000002</ele>
        <time>2017-09-22T10:17:51Z</time>
      </trkpt>
      <trkpt lat="38.104630624875426" lon="12.674981374293566">
        <ele>364</ele>
        <time>2017-09-22T10:17:59Z</time>
      </trkpt>
      <trkpt lat="38.104619225487113" lon="12.674980033189058">
        <ele>363.04000000000002</ele>
        <time>2017-09-22T10:18:02Z</time>
      </trkpt>
      <trkpt lat="38.104578824713826" lon="12.674921862781048">
        <ele>361.58999999999997</ele>
        <time>2017-09-22T10:18:07Z</time>
      </trkpt>
      <trkpt lat="38.104539345949888" lon="12.674825387075543">
        <ele>361.58999999999997</ele>
        <time>2017-09-22T10:18:15Z</time>
      </trkpt>
      <trkpt lat="38.104485115036368" lon="12.674718014895916">
        <ele>360.14999999999998</ele>
        <time>2017-09-22T10:18:28Z</time>
      </trkpt>
      <trkpt lat="38.104486372321844" lon="12.674680883064866">
        <ele>360.14999999999998</ele>
        <time>2017-09-22T10:18:41Z</time>
      </trkpt>
      <trkpt lat="38.104478409513831" lon="12.674672333523631">
        <ele>359.67000000000002</ele>
        <time>2017-09-22T10:18:54Z</time>
      </trkpt>
      <trkpt lat="38.104469776153564" lon="12.674673842266202">
        <ele>359.67000000000002</ele>
        <time>2017-09-22T10:19:10Z</time>
      </trkpt>
      <trkpt lat="38.104476733133197" lon="12.674667052924633">
        <ele>358.70999999999998</ele>
        <time>2017-09-22T10:19:21Z</time>
      </trkpt>
      <trkpt lat="38.104468183591962" lon="12.674681469798088">
        <ele>357.75</ele>
        <time>2017-09-22T10:19:34Z</time>
      </trkpt>
      <trkpt lat="38.104455946013331" lon="12.674724217504263">
        <ele>356.79000000000002</ele>
        <time>2017-09-22T10:19:44Z</time>
      </trkpt>
      <trkpt lat="38.104471955448389" lon="12.674800492823124">
        <ele>354.86000000000001</ele>
        <time>2017-09-22T10:19:56Z</time>
      </trkpt>
      <trkpt lat="38.104432644322515" lon="12.674905182793736">
        <ele>351.98000000000002</ele>
        <time>2017-09-22T10:20:08Z</time>
      </trkpt>
      <trkpt lat="38.104403726756573" lon="12.674907865002751">
        <ele>350.54000000000002</ele>
        <time>2017-09-22T10:20:14Z</time>
      </trkpt>
      <trkpt lat="38.104341616854072" lon="12.674791105091572">
        <ele>347.64999999999998</ele>
        <time>2017-09-22T10:20:25Z</time>
      </trkpt>
      <trkpt lat="38.104301718994975" lon="12.674735113978386">
        <ele>346.20999999999998</ele>
        <time>2017-09-22T10:20:34Z</time>
      </trkpt>
      <trkpt lat="38.10425067320466" lon="12.674711896106601">
        <ele>344.29000000000002</ele>
        <time>2017-09-22T10:20:43Z</time>
      </trkpt>
      <trkpt lat="38.104202309623361" lon="12.674691779538989">
        <ele>341.88999999999999</ele>
        <time>2017-09-22T10:20:50Z</time>
      </trkpt>
      <trkpt lat="38.104190323501825" lon="12.674671662971377">
        <ele>341.88999999999999</ele>
        <time>2017-09-22T10:20:52Z</time>
      </trkpt>
      <trkpt lat="38.104132739827037" lon="12.67455205321312">
        <ele>339</ele>
        <time>2017-09-22T10:21:05Z</time>
      </trkpt>
      <trkpt lat="38.104060906916857" lon="12.674465551972389">
        <ele>336.12</ele>
        <time>2017-09-22T10:21:18Z</time>
      </trkpt>
      <trkpt lat="38.104030396789312" lon="12.674400089308619">
        <ele>334.68000000000001</ele>
        <time>2017-09-22T10:21:24Z</time>
      </trkpt>
      <trkpt lat="38.104009442031384" lon="12.674354994669557">
        <ele>333.23000000000002</ele>
        <time>2017-09-22T10:21:28Z</time>
      </trkpt>
      <trkpt lat="38.103933250531554" lon="12.674213508144021">
        <ele>331.31</ele>
        <time>2017-09-22T10:21:42Z</time>
      </trkpt>
      <trkpt lat="38.103877594694495" lon="12.674139831215143">
        <ele>329.38999999999999</ele>
        <time>2017-09-22T10:21:52Z</time>
      </trkpt>
      <trkpt lat="38.103837193921208" lon="12.674039080739021">
        <ele>327.94999999999999</ele>
        <time>2017-09-22T10:22:01Z</time>
      </trkpt>
      <trkpt lat="38.103789584711194" lon="12.673935228958726">
        <ele>326.5</ele>
        <time>2017-09-22T10:22:11Z</time>
      </trkpt>
      <trkpt lat="38.103754045441747" lon="12.67384554259479">
        <ele>325.06</ele>
        <time>2017-09-22T10:22:19Z</time>
      </trkpt>
      <trkpt lat="38.103725714609027" lon="12.673761136829853">
        <ele>324.10000000000002</ele>
        <time>2017-09-22T10:22:26Z</time>
      </trkpt>
      <trkpt lat="38.10371071100235" lon="12.673711180686951">
        <ele>323.13999999999999</ele>
        <time>2017-09-22T10:22:30Z</time>
      </trkpt>
      <trkpt lat="38.103696629405022" lon="12.673670947551727">
        <ele>323.13999999999999</ele>
        <time>2017-09-22T10:22:34Z</time>
      </trkpt>
      <trkpt lat="38.103651283308864" lon="12.673530215397477">
        <ele>321.69999999999999</ele>
        <time>2017-09-22T10:22:47Z</time>
      </trkpt>
      <trkpt lat="38.103634603321552" lon="12.673442792147398">
        <ele>319.30000000000001</ele>
        <time>2017-09-22T10:22:53Z</time>
      </trkpt>
      <trkpt lat="38.103628987446427" lon="12.673409767448902">
        <ele>317.85000000000002</ele>
        <time>2017-09-22T10:22:57Z</time>
      </trkpt>
      <trkpt lat="38.103589927777648" lon="12.673392249271274">
        <ele>317.85000000000002</ele>
        <time>2017-09-22T10:23:04Z</time>
      </trkpt>
      <trkpt lat="38.103580204769969" lon="12.673446228727698">
        <ele>316.41000000000003</ele>
        <time>2017-09-22T10:23:08Z</time>
      </trkpt>
      <trkpt lat="38.10358121059835" lon="12.67356600612402">
        <ele>314.49000000000001</ele>
        <time>2017-09-22T10:23:18Z</time>
      </trkpt>
      <trkpt lat="38.103583389893174" lon="12.67364664003253">
        <ele>314.00999999999999</ele>
        <time>2017-09-22T10:23:25Z</time>
      </trkpt>
      <trkpt lat="38.103576013818383" lon="12.673662230372429">
        <ele>314.00999999999999</ele>
        <time>2017-09-22T10:23:27Z</time>
      </trkpt>
      <trkpt lat="38.103576265275478" lon="12.673834478482604">
        <ele>312.08999999999997</ele>
        <time>2017-09-22T10:23:40Z</time>
      </trkpt>
      <trkpt lat="38.103590682148933" lon="12.673983676359057">
        <ele>311.12</ele>
        <time>2017-09-22T10:23:51Z</time>
      </trkpt>
      <trkpt lat="38.103579701855779" lon="12.674129772931337">
        <ele>309.19999999999999</ele>
        <time>2017-09-22T10:24:01Z</time>
      </trkpt>
      <trkpt lat="38.103607948869467" lon="12.674274696037173">
        <ele>307.27999999999997</ele>
        <time>2017-09-22T10:24:12Z</time>
      </trkpt>
      <trkpt lat="38.103608535602689" lon="12.674396988004446">
        <ele>306.31999999999999</ele>
        <time>2017-09-22T10:24:22Z</time>
      </trkpt>
      <trkpt lat="38.103628568351269" lon="12.674560938030481">
        <ele>303.91000000000003</ele>
        <time>2017-09-22T10:24:35Z</time>
      </trkpt>
      <trkpt lat="38.103617336601019" lon="12.674706866964698">
        <ele>301.50999999999999</ele>
        <time>2017-09-22T10:24:47Z</time>
      </trkpt>
      <trkpt lat="38.103612642735243" lon="12.674872577190399">
        <ele>299.11000000000001</ele>
        <time>2017-09-22T10:25:01Z</time>
      </trkpt>
      <trkpt lat="38.10361004434526" lon="12.674944074824452">
        <ele>297.18000000000001</ele>
        <time>2017-09-22T10:25:08Z</time>
      </trkpt>
      <trkpt lat="38.1035993155092" lon="12.675010291859508">
        <ele>295.25999999999999</ele>
        <time>2017-09-22T10:25:14Z</time>
      </trkpt>
      <trkpt lat="38.103589676320553" lon="12.675153538584709">
        <ele>292.86000000000001</ele>
        <time>2017-09-22T10:25:26Z</time>
      </trkpt>
      <trkpt lat="38.103569224476814" lon="12.675295444205403">
        <ele>290.45999999999998</ele>
        <time>2017-09-22T10:25:38Z</time>
      </trkpt>
      <trkpt lat="38.103572241961956" lon="12.675322266295552">
        <ele>289.97000000000003</ele>
        <time>2017-09-22T10:25:40Z</time>
      </trkpt>
      <trkpt lat="38.103570565581322" lon="12.675372809171677">
        <ele>288.52999999999997</ele>
        <time>2017-09-22T10:25:44Z</time>
      </trkpt>
      <trkpt lat="38.103556232526898" lon="12.675522593781352">
        <ele>286.61000000000001</ele>
        <time>2017-09-22T10:25:57Z</time>
      </trkpt>
      <trkpt lat="38.103544916957617" lon="12.675660643726587">
        <ele>284.20999999999998</ele>
        <time>2017-09-22T10:26:09Z</time>
      </trkpt>
      <trkpt lat="38.103542234748602" lon="12.67573750577867">
        <ele>281.80000000000001</ele>
        <time>2017-09-22T10:26:16Z</time>
      </trkpt>
      <trkpt lat="38.103520777076483" lon="12.675846051424742">
        <ele>280.36000000000001</ele>
        <time>2017-09-22T10:26:26Z</time>
      </trkpt>
      <trkpt lat="38.103487668558955" lon="12.675964571535587">
        <ele>277.48000000000002</ele>
        <time>2017-09-22T10:26:38Z</time>
      </trkpt>
      <trkpt lat="38.103478867560625" lon="12.676064064726233">
        <ele>275.06999999999999</ele>
        <time>2017-09-22T10:26:49Z</time>
      </trkpt>
      <trkpt lat="38.10346495360136" lon="12.676117205992341">
        <ele>274.11000000000001</ele>
        <time>2017-09-22T10:26:54Z</time>
      </trkpt>
      <trkpt lat="38.103452045470476" lon="12.676198007538915">
        <ele>272.19</ele>
        <time>2017-09-22T10:27:02Z</time>
      </trkpt>
      <trkpt lat="38.103436203673482" lon="12.676292890682817">
        <ele>270.75</ele>
        <time>2017-09-22T10:27:10Z</time>
      </trkpt>
      <trkpt lat="38.103433856740594" lon="12.676326669752598">
        <ele>270.26999999999998</ele>
        <time>2017-09-22T10:27:13Z</time>
      </trkpt>
      <trkpt lat="38.103381972759962" lon="12.676481483504176">
        <ele>267.38</ele>
        <time>2017-09-22T10:27:26Z</time>
      </trkpt>
      <trkpt lat="38.103379625827074" lon="12.676495146006346">
        <ele>266.89999999999998</ele>
        <time>2017-09-22T10:27:27Z</time>
      </trkpt>
      <trkpt lat="38.103376440703869" lon="12.676552562043071">
        <ele>266.42000000000002</ele>
        <time>2017-09-22T10:27:37Z</time>
      </trkpt>
      <trkpt lat="38.103373339399695" lon="12.676549041643739">
        <ele>265.94</ele>
        <time>2017-09-22T10:27:39Z</time>
      </trkpt>
      <trkpt lat="38.103385241702199" lon="12.676546778529882">
        <ele>265.45999999999998</ele>
        <time>2017-09-22T10:27:46Z</time>
      </trkpt>
      <trkpt lat="38.103383230045438" lon="12.676534624770284">
        <ele>265.94</ele>
        <time>2017-09-22T10:28:05Z</time>
      </trkpt>
      <trkpt lat="38.103399574756622" lon="12.676556082442403">
        <ele>265.94</ele>
        <time>2017-09-22T10:28:14Z</time>
      </trkpt>
      <trkpt lat="38.103439304977655" lon="12.676620790734887">
        <ele>266.42000000000002</ele>
        <time>2017-09-22T10:28:26Z</time>
      </trkpt>
      <trkpt lat="38.103435784578323" lon="12.676671585068107">
        <ele>265.94</ele>
        <time>2017-09-22T10:28:36Z</time>
      </trkpt>
      <trkpt lat="38.103464702144265" lon="12.676647026091814">
        <ele>267.86000000000001</ele>
        <time>2017-09-22T10:28:46Z</time>
      </trkpt>
      <trkpt lat="38.103588670492172" lon="12.676723804324865">
        <ele>266.42000000000002</ele>
        <time>2017-09-22T10:28:59Z</time>
      </trkpt>
      <trkpt lat="38.103684978559613" lon="12.676777197048068">
        <ele>266.89999999999998</ele>
        <time>2017-09-22T10:29:11Z</time>
      </trkpt>
      <trkpt lat="38.103777011856437" lon="12.676844503730536">
        <ele>266.42000000000002</ele>
        <time>2017-09-22T10:29:23Z</time>
      </trkpt>
      <trkpt lat="38.103858903050423" lon="12.676909128203988">
        <ele>266.89999999999998</ele>
        <time>2017-09-22T10:29:34Z</time>
      </trkpt>
      <trkpt lat="38.103958647698164" lon="12.676978698000312">
        <ele>266.42000000000002</ele>
        <time>2017-09-22T10:29:45Z</time>
      </trkpt>
      <trkpt lat="38.103994438424706" lon="12.676995629444718">
        <ele>265.94</ele>
        <time>2017-09-22T10:29:49Z</time>
      </trkpt>
      <trkpt lat="38.104084208607674" lon="12.677042735740542">
        <ele>265.45999999999998</ele>
        <time>2017-09-22T10:30:01Z</time>
      </trkpt>
      <trkpt lat="38.104148162528872" lon="12.677072323858738">
        <ele>265.45999999999998</ele>
        <time>2017-09-22T10:30:09Z</time>
      </trkpt>
      <trkpt lat="38.104161573573947" lon="12.677081460133195">
        <ele>264.98000000000002</ele>
        <time>2017-09-22T10:30:12Z</time>
      </trkpt>
      <trkpt lat="38.104235921055079" lon="12.677111299708486">
        <ele>263.54000000000002</ele>
        <time>2017-09-22T10:30:24Z</time>
      </trkpt>
      <trkpt lat="38.104242878034711" lon="12.677116915583611">
        <ele>263.54000000000002</ele>
        <time>2017-09-22T10:30:35Z</time>
      </trkpt>
      <trkpt lat="38.104236675426364" lon="12.677122363820672">
        <ele>263.54000000000002</ele>
        <time>2017-09-22T10:30:50Z</time>
      </trkpt>
      <trkpt lat="38.104230221360922" lon="12.677134433761239">
        <ele>263.54000000000002</ele>
        <time>2017-09-22T10:31:02Z</time>
      </trkpt>
      <trkpt lat="38.104244470596313" lon="12.677122196182609">
        <ele>263.54000000000002</ele>
        <time>2017-09-22T10:31:17Z</time>
      </trkpt>
      <trkpt lat="38.104230305179954" lon="12.677128901705146">
        <ele>262.57999999999998</ele>
        <time>2017-09-22T10:31:24Z</time>
      </trkpt>
      <trkpt lat="38.104227120056748" lon="12.677116077393293">
        <ele>261.62</ele>
        <time>2017-09-22T10:31:31Z</time>
      </trkpt>
      <trkpt lat="38.104231394827366" lon="12.67713837325573">
        <ele>265.45999999999998</ele>
        <time>2017-09-22T10:31:44Z</time>
      </trkpt>
      <trkpt lat="38.104230388998985" lon="12.677138792350888">
        <ele>262.10000000000002</ele>
        <time>2017-09-22T10:31:45Z</time>
      </trkpt>
      <trkpt lat="38.104245141148567" lon="12.67715840600431">
        <ele>261.62</ele>
        <time>2017-09-22T10:32:07Z</time>
      </trkpt>
      <trkpt lat="38.104253355413675" lon="12.677164440974593">
        <ele>261.62</ele>
        <time>2017-09-22T10:32:33Z</time>
      </trkpt>
      <trkpt lat="38.104249751195312" lon="12.677170559763908">
        <ele>261.62</ele>
        <time>2017-09-22T10:32:55Z</time>
      </trkpt>
      <trkpt lat="38.10425067320466" lon="12.677166368812323">
        <ele>261.62</ele>
        <time>2017-09-22T10:33:24Z</time>
      </trkpt>
      <trkpt lat="38.104256205260754" lon="12.67717307433486">
        <ele>261.62</ele>
        <time>2017-09-22T10:33:46Z</time>
      </trkpt>
      <trkpt lat="38.104251762852073" lon="12.677173493430018">
        <ele>261.62</ele>
        <time>2017-09-22T10:34:17Z</time>
      </trkpt>
      <trkpt lat="38.1042520981282" lon="12.677179109305143">
        <ele>262.57999999999998</ele>
        <time>2017-09-22T10:34:49Z</time>
      </trkpt>
      <trkpt lat="38.104264000430703" lon="12.677155137062073">
        <ele>261.62</ele>
        <time>2017-09-22T10:35:17Z</time>
      </trkpt>
      <trkpt lat="38.104257294908166" lon="12.677119430154562">
        <ele>261.62</ele>
        <time>2017-09-22T10:35:37Z</time>
      </trkpt>
      <trkpt lat="38.104246566072106" lon="12.67711540684104">
        <ele>261.62</ele>
        <time>2017-09-22T10:36:01Z</time>
      </trkpt>
      <trkpt lat="38.10424723662436" lon="12.677111802622676">
        <ele>261.62</ele>
        <time>2017-09-22T10:36:27Z</time>
      </trkpt>
      <trkpt lat="38.10425017029047" lon="12.677125381305814">
        <ele>261.13999999999999</ele>
        <time>2017-09-22T10:36:53Z</time>
      </trkpt>
      <trkpt lat="38.104253858327866" lon="12.677123956382275">
        <ele>261.13999999999999</ele>
        <time>2017-09-22T10:37:19Z</time>
      </trkpt>
      <trkpt lat="38.104258719831705" lon="12.677120687440038">
        <ele>261.13999999999999</ele>
        <time>2017-09-22T10:37:43Z</time>
      </trkpt>
      <trkpt lat="38.104253271594644" lon="12.67711884342134">
        <ele>260.64999999999998</ele>
        <time>2017-09-22T10:38:11Z</time>
      </trkpt>
      <trkpt lat="38.104248493909836" lon="12.677134517580271">
        <ele>261.13999999999999</ele>
        <time>2017-09-22T10:38:44Z</time>
      </trkpt>
      <trkpt lat="38.104242123663425" lon="12.677143402397633">
        <ele>261.13999999999999</ele>
        <time>2017-09-22T10:39:16Z</time>
      </trkpt>
      <trkpt lat="38.104232484474778" lon="12.677153293043375">
        <ele>261.13999999999999</ele>
        <time>2017-09-22T10:39:51Z</time>
      </trkpt>
      <trkpt lat="38.104238770902157" lon="12.677146336063743">
        <ele>260.64999999999998</ele>
        <time>2017-09-22T10:40:27Z</time>
      </trkpt>
      <trkpt lat="38.104245057329535" lon="12.677119765430689">
        <ele>261.13999999999999</ele>
        <time>2017-09-22T10:40:41Z</time>
      </trkpt>
      <trkpt lat="38.104244973510504" lon="12.677122447639704">
        <ele>261.62</ele>
        <time>2017-09-22T10:40:50Z</time>
      </trkpt>
      <trkpt lat="38.104251427575946" lon="12.677125968039036">
        <ele>261.62</ele>
        <time>2017-09-22T10:41:02Z</time>
      </trkpt>
      <trkpt lat="38.104248913004994" lon="12.67715597525239">
        <ele>261.62</ele>
        <time>2017-09-22T10:41:10Z</time>
      </trkpt>
      <trkpt lat="38.10431269928813" lon="12.677154885604978">
        <ele>260.64999999999998</ele>
        <time>2017-09-22T10:41:19Z</time>
      </trkpt>
      <trkpt lat="38.104402385652065" lon="12.677191598340869">
        <ele>259.20999999999998</ele>
        <time>2017-09-22T10:41:30Z</time>
      </trkpt>
      <trkpt lat="38.104410264641047" lon="12.677193526178598">
        <ele>258.73000000000002</ele>
        <time>2017-09-22T10:41:31Z</time>
      </trkpt>
      <trkpt lat="38.104518726468086" lon="12.677226299419999">
        <ele>256.81</ele>
        <time>2017-09-22T10:41:43Z</time>
      </trkpt>
      <trkpt lat="38.104623248800635" lon="12.677269047126174">
        <ele>254.88999999999999</ele>
        <time>2017-09-22T10:41:55Z</time>
      </trkpt>
      <trkpt lat="38.104717964306474" lon="12.677331743761897">
        <ele>252</ele>
        <time>2017-09-22T10:42:07Z</time>
      </trkpt>
      <trkpt lat="38.104825336486101" lon="12.677374659106135">
        <ele>248.63999999999999</ele>
        <time>2017-09-22T10:42:19Z</time>
      </trkpt>
      <trkpt lat="38.104941342025995" lon="12.677413802593946">
        <ele>245.27000000000001</ele>
        <time>2017-09-22T10:42:31Z</time>
      </trkpt>
      <trkpt lat="38.105051815509796" lon="12.677484378218651">
        <ele>242.87</ele>
        <time>2017-09-22T10:42:44Z</time>
      </trkpt>
      <trkpt lat="38.105075787752867" lon="12.677506087347865">
        <ele>242.38999999999999</ele>
        <time>2017-09-22T10:42:47Z</time>
      </trkpt>
      <trkpt lat="38.105143597349524" lon="12.677605664357543">
        <ele>239.99000000000001</ele>
        <time>2017-09-22T10:42:57Z</time>
      </trkpt>
      <trkpt lat="38.105193637311459" lon="12.677672635763884">
        <ele>238.53999999999999</ele>
        <time>2017-09-22T10:43:04Z</time>
      </trkpt>
      <trkpt lat="38.105292376130819" lon="12.677755951881409">
        <ele>237.09999999999999</ele>
        <time>2017-09-22T10:43:16Z</time>
      </trkpt>
      <trkpt lat="38.105398155748844" lon="12.677813284099102">
        <ele>235.18000000000001</ele>
        <time>2017-09-22T10:43:28Z</time>
      </trkpt>
      <trkpt lat="38.105523800477386" lon="12.67787229269743">
        <ele>232.30000000000001</ele>
        <time>2017-09-22T10:43:41Z</time>
      </trkpt>
      <trkpt lat="38.105576857924461" lon="12.677879333496094">
        <ele>231.33000000000001</ele>
        <time>2017-09-22T10:43:47Z</time>
      </trkpt>
      <trkpt lat="38.105675093829632" lon="12.677825605496764">
        <ele>229.88999999999999</ele>
        <time>2017-09-22T10:43:58Z</time>
      </trkpt>
      <trkpt lat="38.105799229815602" lon="12.677772715687752">
        <ele>228.44999999999999</ele>
        <time>2017-09-22T10:44:10Z</time>
      </trkpt>
      <trkpt lat="38.10591196641326" lon="12.677822336554527">
        <ele>226.53</ele>
        <time>2017-09-22T10:44:22Z</time>
      </trkpt>
      <trkpt lat="38.106037611141801" lon="12.677907245233655">
        <ele>223.63999999999999</ele>
        <time>2017-09-22T10:44:36Z</time>
      </trkpt>
      <trkpt lat="38.10609033331275" lon="12.678025765344501">
        <ele>222.19999999999999</ele>
        <time>2017-09-22T10:44:49Z</time>
      </trkpt>
      <trkpt lat="38.106108773499727" lon="12.678034985437989">
        <ele>221.72</ele>
        <time>2017-09-22T10:45:02Z</time>
      </trkpt>
      <trkpt lat="38.106099469587207" lon="12.678053844720125">
        <ele>221.24000000000001</ele>
        <time>2017-09-22T10:45:14Z</time>
      </trkpt>
      <trkpt lat="38.106093686074018" lon="12.678063316270709">
        <ele>221.72</ele>
        <time>2017-09-22T10:45:36Z</time>
      </trkpt>
      <trkpt lat="38.106112629175186" lon="12.678053677082062">
        <ele>221.24000000000001</ele>
        <time>2017-09-22T10:45:49Z</time>
      </trkpt>
      <trkpt lat="38.106106510385871" lon="12.678055353462696">
        <ele>221.24000000000001</ele>
        <time>2017-09-22T10:46:00Z</time>
      </trkpt>
      <trkpt lat="38.106112880632281" lon="12.678046301007271">
        <ele>220.28</ele>
        <time>2017-09-22T10:46:09Z</time>
      </trkpt>
      <trkpt lat="38.106114808470011" lon="12.678029537200928">
        <ele>220.28</ele>
        <time>2017-09-22T10:46:36Z</time>
      </trkpt>
      <trkpt lat="38.106097038835287" lon="12.678030375391245">
        <ele>220.28</ele>
        <time>2017-09-22T10:46:43Z</time>
      </trkpt>
      <trkpt lat="38.106103660538793" lon="12.678048983216286">
        <ele>220.75999999999999</ele>
        <time>2017-09-22T10:46:49Z</time>
      </trkpt>
      <trkpt lat="38.106118161231279" lon="12.678067171946168">
        <ele>220.75999999999999</ele>
        <time>2017-09-22T10:47:05Z</time>
      </trkpt>
      <trkpt lat="38.106117323040962" lon="12.678074464201927">
        <ele>221.24000000000001</ele>
        <time>2017-09-22T10:47:22Z</time>
      </trkpt>
      <trkpt lat="38.106105923652649" lon="12.678071279078722">
        <ele>220.75999999999999</ele>
        <time>2017-09-22T10:47:35Z</time>
      </trkpt>
      <trkpt lat="38.106114892289042" lon="12.678056610748172">
        <ele>220.75999999999999</ele>
        <time>2017-09-22T10:47:47Z</time>
      </trkpt>
      <trkpt lat="38.106096955016255" lon="12.678070357069373">
        <ele>221.24000000000001</ele>
        <time>2017-09-22T10:47:57Z</time>
      </trkpt>
      <trkpt lat="38.106106594204903" lon="12.678073542192578">
        <ele>221.24000000000001</ele>
        <time>2017-09-22T10:48:11Z</time>
      </trkpt>
      <trkpt lat="38.106100978329778" lon="12.678075889125466">
        <ele>220.75999999999999</ele>
        <time>2017-09-22T10:48:26Z</time>
      </trkpt>
      <trkpt lat="38.106079353019595" lon="12.678125090897083">
        <ele>220.28</ele>
        <time>2017-09-22T10:48:46Z</time>
      </trkpt>
      <trkpt lat="38.106074323877692" lon="12.678257524967194">
        <ele>219.80000000000001</ele>
        <time>2017-09-22T10:48:57Z</time>
      </trkpt>
      <trkpt lat="38.106062337756157" lon="12.678409656509757">
        <ele>219.80000000000001</ele>
        <time>2017-09-22T10:49:09Z</time>
      </trkpt>
      <trkpt lat="38.106054877862334" lon="12.678591292351484">
        <ele>219.80000000000001</ele>
        <time>2017-09-22T10:49:22Z</time>
      </trkpt>
      <trkpt lat="38.106043143197894" lon="12.678766725584865">
        <ele>219.31999999999999</ele>
        <time>2017-09-22T10:49:35Z</time>
      </trkpt>
      <trkpt lat="38.106059404090047" lon="12.678791787475348">
        <ele>219.31999999999999</ele>
        <time>2017-09-22T10:49:38Z</time>
      </trkpt>
      <trkpt lat="38.106099301949143" lon="12.678830092772841">
        <ele>218.84</ele>
        <time>2017-09-22T10:49:43Z</time>
      </trkpt>
      <trkpt lat="38.106137607246637" lon="12.67884710803628">
        <ele>217.88</ele>
        <time>2017-09-22T10:49:47Z</time>
      </trkpt>
      <trkpt lat="38.106220001354814" lon="12.678935034200549">
        <ele>215.47</ele>
        <time>2017-09-22T10:49:57Z</time>
      </trkpt>
      <trkpt lat="38.106249002739787" lon="12.67898884601891">
        <ele>214.03</ele>
        <time>2017-09-22T10:50:01Z</time>
      </trkpt>
      <trkpt lat="38.106298539787531" lon="12.679143156856298">
        <ele>212.59</ele>
        <time>2017-09-22T10:50:14Z</time>
      </trkpt>
      <trkpt lat="38.106340449303389" lon="12.679305430501699">
        <ele>211.63</ele>
        <time>2017-09-22T10:50:26Z</time>
      </trkpt>
      <trkpt lat="38.106298455968499" lon="12.679511625319719">
        <ele>209.22</ele>
        <time>2017-09-22T10:50:40Z</time>
      </trkpt>
      <trkpt lat="38.10623693279922" lon="12.67965923063457">
        <ele>206.81999999999999</ele>
        <time>2017-09-22T10:50:52Z</time>
      </trkpt>
      <trkpt lat="38.106275405734777" lon="12.67969979904592">
        <ele>204.90000000000001</ele>
        <time>2017-09-22T10:51:02Z</time>
      </trkpt>
      <trkpt lat="38.10631756670773" lon="12.679674820974469">
        <ele>203.94</ele>
        <time>2017-09-22T10:51:06Z</time>
      </trkpt>
      <trkpt lat="38.106368193402886" lon="12.679626457393169">
        <ele>205.38</ele>
        <time>2017-09-22T10:51:12Z</time>
      </trkpt>
      <trkpt lat="38.106437092646956" lon="12.679519923403859">
        <ele>203.94</ele>
        <time>2017-09-22T10:51:23Z</time>
      </trkpt>
      <trkpt lat="38.106459304690361" lon="12.67950139939785">
        <ele>202.97999999999999</ele>
        <time>2017-09-22T10:51:28Z</time>
      </trkpt>
      <trkpt lat="38.106506578624249" lon="12.679437780752778">
        <ele>201.05000000000001</ele>
        <time>2017-09-22T10:51:38Z</time>
      </trkpt>
      <trkpt lat="38.106513619422913" lon="12.679415149614215">
        <ele>200.56999999999999</ele>
        <time>2017-09-22T10:51:40Z</time>
      </trkpt>
      <trkpt lat="38.106550751253963" lon="12.679379191249609">
        <ele>199.61000000000001</ele>
        <time>2017-09-22T10:51:44Z</time>
      </trkpt>
      <trkpt lat="38.106559468433261" lon="12.679365361109376">
        <ele>199.13</ele>
        <time>2017-09-22T10:51:46Z</time>
      </trkpt>
      <trkpt lat="38.106561983004212" lon="12.679346166551113">
        <ele>199.13</ele>
        <time>2017-09-22T10:51:48Z</time>
      </trkpt>
      <trkpt lat="38.106598109006882" lon="12.679213816300035">
        <ele>196.72999999999999</ele>
        <time>2017-09-22T10:52:00Z</time>
      </trkpt>
      <trkpt lat="38.106655860319734" lon="12.6790826395154">
        <ele>194.31999999999999</ele>
        <time>2017-09-22T10:52:12Z</time>
      </trkpt>
      <trkpt lat="38.106679748743773" lon="12.678998736664653">
        <ele>191.91999999999999</ele>
        <time>2017-09-22T10:52:20Z</time>
      </trkpt>
      <trkpt lat="38.106746887788177" lon="12.678979625925422">
        <ele>190</ele>
        <time>2017-09-22T10:52:28Z</time>
      </trkpt>
      <trkpt lat="38.10682081617415" lon="12.679046429693699">
        <ele>188.08000000000001</ele>
        <time>2017-09-22T10:52:39Z</time>
      </trkpt>
      <trkpt lat="38.106896756216884" lon="12.679017931222916">
        <ele>185.66999999999999</ele>
        <time>2017-09-22T10:52:51Z</time>
      </trkpt>
      <trkpt lat="38.10689952224493" lon="12.678957497701049">
        <ele>184.22999999999999</ele>
        <time>2017-09-22T10:52:57Z</time>
      </trkpt>
      <trkpt lat="38.106940258294344" lon="12.678805449977517">
        <ele>180.87</ele>
        <time>2017-09-22T10:53:10Z</time>
      </trkpt>
      <trkpt lat="38.106979401782155" lon="12.678674273192883">
        <ele>178.94</ele>
        <time>2017-09-22T10:53:20Z</time>
      </trkpt>
      <trkpt lat="38.107004463672638" lon="12.67859305255115">
        <ele>177.5</ele>
        <time>2017-09-22T10:53:27Z</time>
      </trkpt>
      <trkpt lat="38.107036063447595" lon="12.678498839959502">
        <ele>176.06</ele>
        <time>2017-09-22T10:53:35Z</time>
      </trkpt>
      <trkpt lat="38.107089204713702" lon="12.678387779742479">
        <ele>174.13999999999999</ele>
        <time>2017-09-22T10:53:46Z</time>
      </trkpt>
      <trkpt lat="38.107106806710362" lon="12.678359868004918">
        <ele>173.66</ele>
        <time>2017-09-22T10:53:49Z</time>
      </trkpt>
      <trkpt lat="38.107196325436234" lon="12.678161300718784">
        <ele>171.25</ele>
        <time>2017-09-22T10:54:04Z</time>
      </trkpt>
      <trkpt lat="38.10726648196578" lon="12.678074883297086">
        <ele>169.81</ele>
        <time>2017-09-22T10:54:14Z</time>
      </trkpt>
      <trkpt lat="38.107340997084975" lon="12.678016629070044">
        <ele>167.41</ele>
        <time>2017-09-22T10:54:26Z</time>
      </trkpt>
      <trkpt lat="38.107419032603502" lon="12.677949154749513">
        <ele>164.52000000000001</ele>
        <time>2017-09-22T10:54:37Z</time>
      </trkpt>
      <trkpt lat="38.107513412833214" lon="12.677919985726476">
        <ele>161.16</ele>
        <time>2017-09-22T10:54:49Z</time>
      </trkpt>
      <trkpt lat="38.107567895203829" lon="12.677897354587913">
        <ele>160.19999999999999</ele>
        <time>2017-09-22T10:54:59Z</time>
      </trkpt>
      <trkpt lat="38.107564626261592" lon="12.677997937425971">
        <ele>157.78999999999999</ele>
        <time>2017-09-22T10:55:09Z</time>
      </trkpt>
      <trkpt lat="38.107527075335383" lon="12.678083097562194">
        <ele>155.38999999999999</ele>
        <time>2017-09-22T10:55:20Z</time>
      </trkpt>
      <trkpt lat="38.10751517303288" lon="12.678190972656012">
        <ele>152.50999999999999</ele>
        <time>2017-09-22T10:55:32Z</time>
      </trkpt>
      <trkpt lat="38.107516346499324" lon="12.678200528025627">
        <ele>152.50999999999999</ele>
        <time>2017-09-22T10:55:33Z</time>
      </trkpt>
      <trkpt lat="38.107537887990475" lon="12.678203294053674">
        <ele>152.03</ele>
        <time>2017-09-22T10:55:36Z</time>
      </trkpt>
      <trkpt lat="38.107632603496313" lon="12.678116960451007">
        <ele>148.66</ele>
        <time>2017-09-22T10:55:49Z</time>
      </trkpt>
      <trkpt lat="38.107729414477944" lon="12.678057197481394">
        <ele>145.78</ele>
        <time>2017-09-22T10:56:04Z</time>
      </trkpt>
      <trkpt lat="38.107806276530027" lon="12.678009252995253">
        <ele>143.37</ele>
        <time>2017-09-22T10:56:16Z</time>
      </trkpt>
      <trkpt lat="38.107881462201476" lon="12.67799106426537">
        <ele>141.93000000000001</ele>
        <time>2017-09-22T10:56:27Z</time>
      </trkpt>
      <trkpt lat="38.107889425009489" lon="12.677990812808275">
        <ele>140.49000000000001</ele>
        <time>2017-09-22T10:56:28Z</time>
      </trkpt>
      <trkpt lat="38.107946254312992" lon="12.677946723997593">
        <ele>140.49000000000001</ele>
        <time>2017-09-22T10:56:37Z</time>
      </trkpt>
      <trkpt lat="38.107969053089619" lon="12.677918560802937">
        <ele>138.09</ele>
        <time>2017-09-22T10:56:41Z</time>
      </trkpt>
      <trkpt lat="38.107985397800803" lon="12.677900372073054">
        <ele>138.09</ele>
        <time>2017-09-22T10:56:44Z</time>
      </trkpt>
      <trkpt lat="38.108014231547713" lon="12.677857372909784">
        <ele>137.13</ele>
        <time>2017-09-22T10:56:48Z</time>
      </trkpt>
      <trkpt lat="38.108139876276255" lon="12.677794676274061">
        <ele>133.28</ele>
        <time>2017-09-22T10:57:00Z</time>
      </trkpt>
      <trkpt lat="38.108218749985099" lon="12.677729884162545">
        <ele>130.88</ele>
        <time>2017-09-22T10:57:10Z</time>
      </trkpt>
      <trkpt lat="38.108304999768734" lon="12.677661320194602">
        <ele>128.94999999999999</ele>
        <time>2017-09-22T10:57:21Z</time>
      </trkpt>
      <trkpt lat="38.10838982462883" lon="12.67759820446372">
        <ele>127.03</ele>
        <time>2017-09-22T10:57:31Z</time>
      </trkpt>
      <trkpt lat="38.108480265364051" lon="12.677520755678415">
        <ele>124.15000000000001</ele>
        <time>2017-09-22T10:57:43Z</time>
      </trkpt>
      <trkpt lat="38.108581183478236" lon="12.67747943289578">
        <ele>122.22</ele>
        <time>2017-09-22T10:57:54Z</time>
      </trkpt>
      <trkpt lat="38.108709594234824" lon="12.677418580278754">
        <ele>118.86</ele>
        <time>2017-09-22T10:58:08Z</time>
      </trkpt>
      <trkpt lat="38.108825096860528" lon="12.677350519225001">
        <ele>115.98</ele>
        <time>2017-09-22T10:58:21Z</time>
      </trkpt>
      <trkpt lat="38.108894247561693" lon="12.677290756255388">
        <ele>114.05</ele>
        <time>2017-09-22T10:58:32Z</time>
      </trkpt>
      <trkpt lat="38.108949903398752" lon="12.677284134551883">
        <ele>112.13</ele>
        <time>2017-09-22T10:58:43Z</time>
      </trkpt>
      <trkpt lat="38.108883937820792" lon="12.677425788715482">
        <ele>109.25</ele>
        <time>2017-09-22T10:58:55Z</time>
      </trkpt>
      <trkpt lat="38.108926685526967" lon="12.677407348528504">
        <ele>109.25</ele>
        <time>2017-09-22T10:59:04Z</time>
      </trkpt>
      <trkpt lat="38.108948478475213" lon="12.677394859492779">
        <ele>107.31999999999999</ele>
        <time>2017-09-22T10:59:07Z</time>
      </trkpt>
      <trkpt lat="38.10901528224349" lon="12.677368121221662">
        <ele>105.40000000000001</ele>
        <time>2017-09-22T10:59:17Z</time>
      </trkpt>
      <trkpt lat="38.10902408324182" lon="12.677422184497118">
        <ele>103.48</ele>
        <time>2017-09-22T10:59:26Z</time>
      </trkpt>
      <trkpt lat="38.10900061391294" lon="12.677486808970571">
        <ele>102.04000000000001</ele>
        <time>2017-09-22T10:59:33Z</time>
      </trkpt>
      <trkpt lat="38.108996171504259" lon="12.677521174773574">
        <ele>101.08</ele>
        <time>2017-09-22T10:59:36Z</time>
      </trkpt>
      <trkpt lat="38.108963817358017" lon="12.677610777318478">
        <ele>99.629999999999995</ele>
        <time>2017-09-22T10:59:46Z</time>
      </trkpt>
      <trkpt lat="38.108968511223793" lon="12.677648412063718">
        <ele>98.189999999999998</ele>
        <time>2017-09-22T10:59:55Z</time>
      </trkpt>
      <trkpt lat="38.109038667753339" lon="12.677607927471399">
        <ele>96.269999999999996</ele>
        <time>2017-09-22T11:00:05Z</time>
      </trkpt>
      <trkpt lat="38.109132796525955" lon="12.677550092339516">
        <ele>93.870000000000005</ele>
        <time>2017-09-22T11:00:17Z</time>
      </trkpt>
      <trkpt lat="38.109141262248158" lon="12.677540117874742">
        <ele>93.390000000000001</ele>
        <time>2017-09-22T11:00:19Z</time>
      </trkpt>
      <trkpt lat="38.109219884499907" lon="12.677556630223989">
        <ele>91.459999999999994</ele>
        <time>2017-09-22T11:00:30Z</time>
      </trkpt>
      <trkpt lat="38.109197085723281" lon="12.677625361829996">
        <ele>90.019999999999996</ele>
        <time>2017-09-22T11:00:40Z</time>
      </trkpt>
      <trkpt lat="38.109182249754667" lon="12.677698200568557">
        <ele>88.579999999999998</ele>
        <time>2017-09-22T11:00:47Z</time>
      </trkpt>
      <trkpt lat="38.109167329967022" lon="12.677712617442012">
        <ele>88.579999999999998</ele>
        <time>2017-09-22T11:00:49Z</time>
      </trkpt>
      <trkpt lat="38.109152326360345" lon="12.677805656567216">
        <ele>86.659999999999997</ele>
        <time>2017-09-22T11:01:00Z</time>
      </trkpt>
      <trkpt lat="38.109135394915938" lon="12.677849410101771">
        <ele>85.689999999999998</ele>
        <time>2017-09-22T11:01:04Z</time>
      </trkpt>
      <trkpt lat="38.109113434329629" lon="12.677904311567545">
        <ele>84.730000000000004</ele>
        <time>2017-09-22T11:01:10Z</time>
      </trkpt>
      <trkpt lat="38.10914914123714" lon="12.677912525832653">
        <ele>83.290000000000006</ele>
        <time>2017-09-22T11:01:17Z</time>
      </trkpt>
      <trkpt lat="38.109179399907589" lon="12.677898947149515">
        <ele>82.810000000000002</ele>
        <time>2017-09-22T11:01:21Z</time>
      </trkpt>
      <trkpt lat="38.109249556437135" lon="12.677852092310786">
        <ele>80.409999999999997</ele>
        <time>2017-09-22T11:01:32Z</time>
      </trkpt>
      <trkpt lat="38.109332202002406" lon="12.677835077047348">
        <ele>78.480000000000004</ele>
        <time>2017-09-22T11:01:43Z</time>
      </trkpt>
      <trkpt lat="38.109387690201402" lon="12.677822085097432">
        <ele>77.040000000000006</ele>
        <time>2017-09-22T11:01:49Z</time>
      </trkpt>
      <trkpt lat="38.109463714063168" lon="12.677824599668384">
        <ele>75.599999999999994</ele>
        <time>2017-09-22T11:01:58Z</time>
      </trkpt>
      <trkpt lat="38.109516855329275" lon="12.67781806178391">
        <ele>73.200000000000003</ele>
        <time>2017-09-22T11:02:07Z</time>
      </trkpt>
      <trkpt lat="38.109601931646466" lon="12.677822085097432">
        <ele>71.760000000000005</ele>
        <time>2017-09-22T11:02:17Z</time>
      </trkpt>
      <trkpt lat="38.109628083184361" lon="12.677829544991255">
        <ele>71.269999999999996</ele>
        <time>2017-09-22T11:02:20Z</time>
      </trkpt>
      <trkpt lat="38.109700502827764" lon="12.677815547212958">
        <ele>69.829999999999998</ele>
        <time>2017-09-22T11:02:34Z</time>
      </trkpt>
      <trkpt lat="38.109715171158314" lon="12.677810518071055">
        <ele>68.390000000000001</ele>
        <time>2017-09-22T11:02:36Z</time>
      </trkpt>
      <trkpt lat="38.109793877229095" lon="12.677807835862041">
        <ele>67.430000000000007</ele>
        <time>2017-09-22T11:02:46Z</time>
      </trkpt>
      <trkpt lat="38.109821453690529" lon="12.677812781184912">
        <ele>66.469999999999999</ele>
        <time>2017-09-22T11:02:49Z</time>
      </trkpt>
      <trkpt lat="38.10989873483777" lon="12.677808506414294">
        <ele>64.549999999999997</ele>
        <time>2017-09-22T11:03:00Z</time>
      </trkpt>
      <trkpt lat="38.109924970194697" lon="12.677785539999604">
        <ele>64.069999999999993</ele>
        <time>2017-09-22T11:03:10Z</time>
      </trkpt>
      <trkpt lat="38.110036868602037" lon="12.677766596898437">
        <ele>61.659999999999997</ele>
        <time>2017-09-22T11:03:20Z</time>
      </trkpt>
      <trkpt lat="38.110049525275826" lon="12.677760729566216">
        <ele>61.659999999999997</ele>
        <time>2017-09-22T11:03:21Z</time>
      </trkpt>
      <trkpt lat="38.110168296843767" lon="12.67774379812181">
        <ele>59.740000000000002</ele>
        <time>2017-09-22T11:03:33Z</time>
      </trkpt>
      <trkpt lat="38.110227053985" lon="12.677724016830325">
        <ele>58.299999999999997</ele>
        <time>2017-09-22T11:03:42Z</time>
      </trkpt>
      <trkpt lat="38.110253624618053" lon="12.677723094820976">
        <ele>57.82</ele>
        <time>2017-09-22T11:03:53Z</time>
      </trkpt>
      <trkpt lat="38.110247673466802" lon="12.67774136736989">
        <ele>56.859999999999999</ele>
        <time>2017-09-22T11:04:04Z</time>
      </trkpt>
      <trkpt lat="38.110241387039423" lon="12.677750503644347">
        <ele>56.859999999999999</ele>
        <time>2017-09-22T11:04:30Z</time>
      </trkpt>
      <trkpt lat="38.110243398696184" lon="12.677748911082745">
        <ele>57.340000000000003</ele>
        <time>2017-09-22T11:04:43Z</time>
      </trkpt>
      <trkpt lat="38.11030869372189" lon="12.677779672667384">
        <ele>55.890000000000001</ele>
        <time>2017-09-22T11:04:52Z</time>
      </trkpt>
      <trkpt lat="38.11043911613524" lon="12.677790820598602">
        <ele>53.009999999999998</ele>
        <time>2017-09-22T11:05:05Z</time>
      </trkpt>
      <trkpt lat="38.110471973195672" lon="12.677812613546848">
        <ele>52.530000000000001</ele>
        <time>2017-09-22T11:05:08Z</time>
      </trkpt>
      <trkpt lat="38.110468368977308" lon="12.677837423980236">
        <ele>51.57</ele>
        <time>2017-09-22T11:05:10Z</time>
      </trkpt>
      <trkpt lat="38.110428806394339" lon="12.677925769239664">
        <ele>49.649999999999999</ele>
        <time>2017-09-22T11:05:18Z</time>
      </trkpt>
      <trkpt lat="38.110422855243087" lon="12.677964325994253">
        <ele>48.68</ele>
        <time>2017-09-22T11:05:21Z</time>
      </trkpt>
      <trkpt lat="38.110426040366292" lon="12.678041523322463">
        <ele>47.240000000000002</ele>
        <time>2017-09-22T11:05:27Z</time>
      </trkpt>
      <trkpt lat="38.110421095043421" lon="12.678080834448338">
        <ele>46.759999999999998</ele>
        <time>2017-09-22T11:05:30Z</time>
      </trkpt>
      <trkpt lat="38.110432578250766" lon="12.678087539970875">
        <ele>46.759999999999998</ele>
        <time>2017-09-22T11:05:32Z</time>
      </trkpt>
      <trkpt lat="38.110536597669125" lon="12.678093072026968">
        <ele>44.359999999999999</ele>
        <time>2017-09-22T11:05:43Z</time>
      </trkpt>
      <trkpt lat="38.110565850511193" lon="12.678111344575882">
        <ele>43.399999999999999</ele>
        <time>2017-09-22T11:05:46Z</time>
      </trkpt>
      <trkpt lat="38.110603066161275" lon="12.678129030391574">
        <ele>42.920000000000002</ele>
        <time>2017-09-22T11:05:50Z</time>
      </trkpt>
      <trkpt lat="38.110719490796328" lon="12.678192732855678">
        <ele>40.990000000000002</ele>
        <time>2017-09-22T11:06:02Z</time>
      </trkpt>
      <trkpt lat="38.110795514658093" lon="12.678247382864356">
        <ele>40.030000000000001</ele>
        <time>2017-09-22T11:06:11Z</time>
      </trkpt>
      <trkpt lat="38.110852176323533" lon="12.678411500528455">
        <ele>37.149999999999999</ele>
        <time>2017-09-22T11:06:24Z</time>
      </trkpt>
      <trkpt lat="38.110908335074782" lon="12.678491128608584">
        <ele>35.710000000000001</ele>
        <time>2017-09-22T11:06:33Z</time>
      </trkpt>
      <trkpt lat="38.111023670062423" lon="12.678509065881371">
        <ele>35.710000000000001</ele>
        <time>2017-09-22T11:06:45Z</time>
      </trkpt>
      <trkpt lat="38.111105812713504" lon="12.678536726161838">
        <ele>34.740000000000002</ele>
        <time>2017-09-22T11:06:53Z</time>
      </trkpt>
      <trkpt lat="38.111175550147891" lon="12.678596656769514">
        <ele>33.780000000000001</ele>
        <time>2017-09-22T11:07:01Z</time>
      </trkpt>
      <trkpt lat="38.111207820475101" lon="12.678599590435624">
        <ele>33.780000000000001</ele>
        <time>2017-09-22T11:07:04Z</time>
      </trkpt>
      <trkpt lat="38.111267331987619" lon="12.678608056157827">
        <ele>33.780000000000001</ele>
        <time>2017-09-22T11:07:11Z</time>
      </trkpt>
      <trkpt lat="38.111285101622343" lon="12.678599590435624">
        <ele>34.259999999999998</ele>
        <time>2017-09-22T11:07:13Z</time>
      </trkpt>
      <trkpt lat="38.111404962837696" lon="12.678649043664336">
        <ele>33.299999999999997</ele>
        <time>2017-09-22T11:07:25Z</time>
      </trkpt>
      <trkpt lat="38.111480316147208" lon="12.678661197423935">
        <ele>33.780000000000001</ele>
        <time>2017-09-22T11:07:35Z</time>
      </trkpt>
      <trkpt lat="38.111485261470079" lon="12.678668489679694">
        <ele>33.780000000000001</ele>
        <time>2017-09-22T11:07:46Z</time>
      </trkpt>
      <trkpt lat="38.111495990306139" lon="12.678682906553149">
        <ele>33.299999999999997</ele>
        <time>2017-09-22T11:08:00Z</time>
      </trkpt>
      <trkpt lat="38.111480316147208" lon="12.678651558235288">
        <ele>32.82</ele>
        <time>2017-09-22T11:08:14Z</time>
      </trkpt>
      <trkpt lat="38.111474448814988" lon="12.678655916824937">
        <ele>33.299999999999997</ele>
        <time>2017-09-22T11:08:28Z</time>
      </trkpt>
      <trkpt lat="38.111472520977259" lon="12.678638817742467">
        <ele>33.299999999999997</ele>
        <time>2017-09-22T11:08:48Z</time>
      </trkpt>
      <trkpt lat="38.111475622281432" lon="12.678673099726439">
        <ele>33.299999999999997</ele>
        <time>2017-09-22T11:09:00Z</time>
      </trkpt>
      <trkpt lat="38.111479729413986" lon="12.67868684604764">
        <ele>33.780000000000001</ele>
        <time>2017-09-22T11:09:13Z</time>
      </trkpt>
      <trkpt lat="38.111479645594954" lon="12.678667483851314">
        <ele>33.299999999999997</ele>
        <time>2017-09-22T11:09:30Z</time>
      </trkpt>
      <trkpt lat="38.111485429108143" lon="12.678662957623601">
        <ele>33.299999999999997</ele>
        <time>2017-09-22T11:09:51Z</time>
      </trkpt>
      <trkpt lat="38.111515352502465" lon="12.678657006472349">
        <ele>32.82</ele>
        <time>2017-09-22T11:10:06Z</time>
      </trkpt>
      <trkpt lat="38.111512251198292" lon="12.67866094596684">
        <ele>32.82</ele>
        <time>2017-09-22T11:10:08Z</time>
      </trkpt>
      <trkpt lat="38.111509149894118" lon="12.678645104169846">
        <ele>33.299999999999997</ele>
        <time>2017-09-22T11:10:17Z</time>
      </trkpt>
      <trkpt lat="38.111508479341865" lon="12.678653988987207">
        <ele>33.299999999999997</ele>
        <time>2017-09-22T11:10:39Z</time>
      </trkpt>
      <trkpt lat="38.111505294218659" lon="12.678657593205571">
        <ele>33.299999999999997</ele>
        <time>2017-09-22T11:10:54Z</time>
      </trkpt>
      <trkpt lat="38.111489284783602" lon="12.678678967058659">
        <ele>33.299999999999997</ele>
        <time>2017-09-22T11:11:05Z</time>
      </trkpt>
      <trkpt lat="38.111484423279762" lon="12.678703777492046">
        <ele>32.82</ele>
        <time>2017-09-22T11:11:20Z</time>
      </trkpt>
      <trkpt lat="38.111481405794621" lon="12.678651977330446">
        <ele>32.82</ele>
        <time>2017-09-22T11:11:32Z</time>
      </trkpt>
      <trkpt lat="38.111500767990947" lon="12.678663544356823">
        <ele>32.82</ele>
        <time>2017-09-22T11:11:47Z</time>
      </trkpt>
      <trkpt lat="38.111489620059729" lon="12.678646864369512">
        <ele>32.82</ele>
        <time>2017-09-22T11:12:00Z</time>
      </trkpt>
      <trkpt lat="38.111500767990947" lon="12.678641751408577">
        <ele>32.82</ele>
        <time>2017-09-22T11:12:18Z</time>
      </trkpt>
      <trkpt lat="38.111508144065738" lon="12.678651725873351">
        <ele>32.82</ele>
        <time>2017-09-22T11:12:35Z</time>
      </trkpt>
      <trkpt lat="38.111488614231348" lon="12.678653653711081">
        <ele>32.82</ele>
        <time>2017-09-22T11:12:55Z</time>
      </trkpt>
      <trkpt lat="38.111482495442033" lon="12.678674189373851">
        <ele>32.82</ele>
        <time>2017-09-22T11:13:10Z</time>
      </trkpt>
      <trkpt lat="38.111485680565238" lon="12.678667986765504">
        <ele>32.82</ele>
        <time>2017-09-22T11:13:23Z</time>
      </trkpt>
      <trkpt lat="38.111481908708811" lon="12.678634123876691">
        <ele>32.82</ele>
        <time>2017-09-22T11:13:35Z</time>
      </trkpt>
      <trkpt lat="38.111466569826007" lon="12.678633453324437">
        <ele>31.859999999999999</ele>
        <time>2017-09-22T11:13:43Z</time>
      </trkpt>
      <trkpt lat="38.111454667523503" lon="12.678651390597224">
        <ele>31.859999999999999</ele>
        <time>2017-09-22T11:14:14Z</time>
      </trkpt>
      <trkpt lat="38.111487524583936" lon="12.67865558154881">
        <ele>32.340000000000003</ele>
        <time>2017-09-22T11:14:28Z</time>
      </trkpt>
      <trkpt lat="38.111492302268744" lon="12.678673267364502">
        <ele>32.340000000000003</ele>
        <time>2017-09-22T11:14:59Z</time>
      </trkpt>
      <trkpt lat="38.111489368602633" lon="12.678674692288041">
        <ele>32.340000000000003</ele>
        <time>2017-09-22T11:15:27Z</time>
      </trkpt>
      <trkpt lat="38.111494984477758" lon="12.678668992593884">
        <ele>32.340000000000003</ele>
        <time>2017-09-22T11:15:58Z</time>
      </trkpt>
      <trkpt lat="38.111487859860063" lon="12.678663544356823">
        <ele>32.340000000000003</ele>
        <time>2017-09-22T11:16:21Z</time>
      </trkpt>
      <trkpt lat="38.111484088003635" lon="12.678627418354154">
        <ele>32.340000000000003</ele>
        <time>2017-09-22T11:16:38Z</time>
      </trkpt>
      <trkpt lat="38.111488614231348" lon="12.678634626790881">
        <ele>32.82</ele>
        <time>2017-09-22T11:17:02Z</time>
      </trkpt>
      <trkpt lat="38.111487273126841" lon="12.678650887683034">
        <ele>32.340000000000003</ele>
        <time>2017-09-22T11:17:05Z</time>
      </trkpt>
      <trkpt lat="38.111487189307809" lon="12.678673854097724">
        <ele>32.340000000000003</ele>
        <time>2017-09-22T11:17:11Z</time>
      </trkpt>
      <trkpt lat="38.111494816839695" lon="12.678753063082695">
        <ele>30.899999999999999</ele>
        <time>2017-09-22T11:17:18Z</time>
      </trkpt>
      <trkpt lat="38.111489787697792" lon="12.678807210177183">
        <ele>30.420000000000002</ele>
        <time>2017-09-22T11:17:22Z</time>
      </trkpt>
      <trkpt lat="38.111475873738527" lon="12.678870493546128">
        <ele>29.460000000000001</ele>
        <time>2017-09-22T11:17:27Z</time>
      </trkpt>
      <trkpt lat="38.111500097438693" lon="12.679038718342781">
        <ele>27.530000000000001</ele>
        <time>2017-09-22T11:17:40Z</time>
      </trkpt>
      <trkpt lat="38.111533625051379" lon="12.679179031401873">
        <ele>25.609999999999999</ele>
        <time>2017-09-22T11:17:51Z</time>
      </trkpt>
      <trkpt lat="38.111605457961559" lon="12.679348094388843">
        <ele>23.690000000000001</ele>
        <time>2017-09-22T11:18:05Z</time>
      </trkpt>
      <trkpt lat="38.111666310578585" lon="12.679489748552442">
        <ele>22.25</ele>
        <time>2017-09-22T11:18:16Z</time>
      </trkpt>
      <trkpt lat="38.111729426309466" lon="12.679683957248926">
        <ele>20.809999999999999</ele>
        <time>2017-09-22T11:18:30Z</time>
      </trkpt>
      <trkpt lat="38.111744681373239" lon="12.679695356637239">
        <ele>21.289999999999999</ele>
        <time>2017-09-22T11:18:32Z</time>
      </trkpt>
      <trkpt lat="38.111845515668392" lon="12.679733913391829">
        <ele>20.809999999999999</ele>
        <time>2017-09-22T11:18:43Z</time>
      </trkpt>
      <trkpt lat="38.111847611144185" lon="12.679749168455601">
        <ele>20.809999999999999</ele>
        <time>2017-09-22T11:18:47Z</time>
      </trkpt>
      <trkpt lat="38.111970238387585" lon="12.679703738540411">
        <ele>21.289999999999999</ele>
        <time>2017-09-22T11:18:59Z</time>
      </trkpt>
      <trkpt lat="38.112117173150182" lon="12.679716311395168">
        <ele>21.289999999999999</ele>
        <time>2017-09-22T11:19:11Z</time>
      </trkpt>
      <trkpt lat="38.112292690202594" lon="12.679752437397838">
        <ele>21.289999999999999</ele>
        <time>2017-09-22T11:19:27Z</time>
      </trkpt>
      <trkpt lat="38.112448425963521" lon="12.679745396599174">
        <ele>21.77</ele>
        <time>2017-09-22T11:19:41Z</time>
      </trkpt>
      <trkpt lat="38.112621428444982" lon="12.679754281416535">
        <ele>22.25</ele>
        <time>2017-09-22T11:19:56Z</time>
      </trkpt>
      <trkpt lat="38.112728884443641" lon="12.67974522896111">
        <ele>23.210000000000001</ele>
        <time>2017-09-22T11:20:09Z</time>
      </trkpt>
      <trkpt lat="38.112802309915423" lon="12.679728213697672">
        <ele>24.170000000000002</ele>
        <time>2017-09-22T11:20:20Z</time>
      </trkpt>
      <trkpt lat="38.11285687610507" lon="12.679634839296341">
        <ele>26.09</ele>
        <time>2017-09-22T11:20:31Z</time>
      </trkpt>
      <trkpt lat="38.112933067604899" lon="12.679534843191504">
        <ele>27.050000000000001</ele>
        <time>2017-09-22T11:20:42Z</time>
      </trkpt>
      <trkpt lat="38.113006576895714" lon="12.679440630599856">
        <ele>27.530000000000001</ele>
        <time>2017-09-22T11:20:53Z</time>
      </trkpt>
      <trkpt lat="38.113072542473674" lon="12.679359158501029">
        <ele>28.5</ele>
        <time>2017-09-22T11:21:04Z</time>
      </trkpt>
      <trkpt lat="38.113073548302054" lon="12.679306687787175">
        <ele>31.379999999999999</ele>
        <time>2017-09-22T11:21:15Z</time>
      </trkpt>
      <trkpt lat="38.113080002367496" lon="12.679248182103038">
        <ele>30.420000000000002</ele>
        <time>2017-09-22T11:21:29Z</time>
      </trkpt>
      <trkpt lat="38.11307430267334" lon="12.679175930097699">
        <ele>29.460000000000001</ele>
        <time>2017-09-22T11:21:38Z</time>
      </trkpt>
      <trkpt lat="38.113099783658981" lon="12.679080544039607">
        <ele>28.5</ele>
        <time>2017-09-22T11:21:48Z</time>
      </trkpt>
      <trkpt lat="38.113170694559813" lon="12.679006531834602">
        <ele>27.530000000000001</ele>
        <time>2017-09-22T11:21:58Z</time>
      </trkpt>
      <trkpt lat="38.113252753391862" lon="12.678882395848632">
        <ele>27.530000000000001</ele>
        <time>2017-09-22T11:22:10Z</time>
      </trkpt>
      <trkpt lat="38.11327513307333" lon="12.678793547675014">
        <ele>28.5</ele>
        <time>2017-09-22T11:22:21Z</time>
      </trkpt>
      <trkpt lat="38.113302709534764" lon="12.678711488842964">
        <ele>28.98</ele>
        <time>2017-09-22T11:22:32Z</time>
      </trkpt>
      <trkpt lat="38.113301703706384" lon="12.678695730865002">
        <ele>29.460000000000001</ele>
        <time>2017-09-22T11:22:34Z</time>
      </trkpt>
      <trkpt lat="38.113322407007217" lon="12.678552651777864">
        <ele>29.940000000000001</ele>
        <time>2017-09-22T11:22:46Z</time>
      </trkpt>
      <trkpt lat="38.113296926021576" lon="12.678412422537804">
        <ele>28.98</ele>
        <time>2017-09-22T11:22:57Z</time>
      </trkpt>
      <trkpt lat="38.113302458077669" lon="12.67836632207036">
        <ele>28.98</ele>
        <time>2017-09-22T11:23:00Z</time>
      </trkpt>
      <trkpt lat="38.113322407007217" lon="12.678295327350497">
        <ele>28.5</ele>
        <time>2017-09-22T11:23:04Z</time>
      </trkpt>
      <trkpt lat="38.113340428099036" lon="12.678192984312773">
        <ele>28.02</ele>
        <time>2017-09-22T11:23:12Z</time>
      </trkpt>
      <trkpt lat="38.113365573808551" lon="12.678114026784897">
        <ele>27.530000000000001</ele>
        <time>2017-09-22T11:23:19Z</time>
      </trkpt>
      <trkpt lat="38.113398430868983" lon="12.678041271865368">
        <ele>27.530000000000001</ele>
        <time>2017-09-22T11:23:26Z</time>
      </trkpt>
      <trkpt lat="38.113421062007546" lon="12.678025513887405">
        <ele>25.609999999999999</ele>
        <time>2017-09-22T11:23:28Z</time>
      </trkpt>
      <trkpt lat="38.113449309021235" lon="12.677976144477725">
        <ele>25.609999999999999</ele>
        <time>2017-09-22T11:23:37Z</time>
      </trkpt>
      <trkpt lat="38.113446040078998" lon="12.677835831418633">
        <ele>27.050000000000001</ele>
        <time>2017-09-22T11:23:49Z</time>
      </trkpt>
      <trkpt lat="38.113497504964471" lon="12.67769493162632">
        <ele>28.02</ele>
        <time>2017-09-22T11:24:03Z</time>
      </trkpt>
      <trkpt lat="38.113551819697022" lon="12.677543135359883">
        <ele>27.530000000000001</ele>
        <time>2017-09-22T11:24:15Z</time>
      </trkpt>
      <trkpt lat="38.113586520776153" lon="12.677461411803961">
        <ele>27.530000000000001</ele>
        <time>2017-09-22T11:24:23Z</time>
      </trkpt>
      <trkpt lat="38.113587945699692" lon="12.677348591387272">
        <ele>28.98</ele>
        <time>2017-09-22T11:24:33Z</time>
      </trkpt>
      <trkpt lat="38.113590376451612" lon="12.677323948591948">
        <ele>29.460000000000001</ele>
        <time>2017-09-22T11:24:35Z</time>
      </trkpt>
      <trkpt lat="38.113580150529742" lon="12.677277429029346">
        <ele>29.460000000000001</ele>
        <time>2017-09-22T11:24:39Z</time>
      </trkpt>
      <trkpt lat="38.113588197156787" lon="12.677176762372255">
        <ele>28.98</ele>
        <time>2017-09-22T11:24:47Z</time>
      </trkpt>
      <trkpt lat="38.113577887415886" lon="12.677153795957565">
        <ele>28.98</ele>
        <time>2017-09-22T11:24:49Z</time>
      </trkpt>
      <trkpt lat="38.113547042012215" lon="12.677040807902813">
        <ele>29.460000000000001</ele>
        <time>2017-09-22T11:25:00Z</time>
      </trkpt>
      <trkpt lat="38.113477304577827" lon="12.676899237558246">
        <ele>29.460000000000001</ele>
        <time>2017-09-22T11:25:14Z</time>
      </trkpt>
      <trkpt lat="38.113409914076328" lon="12.676839642226696">
        <ele>29.460000000000001</ele>
        <time>2017-09-22T11:25:26Z</time>
      </trkpt>
      <trkpt lat="38.113396167755127" lon="12.676799912005663">
        <ele>29.460000000000001</ele>
        <time>2017-09-22T11:25:30Z</time>
      </trkpt>
      <trkpt lat="38.113317796960473" lon="12.676626909524202">
        <ele>28.5</ele>
        <time>2017-09-22T11:25:42Z</time>
      </trkpt>
      <trkpt lat="38.113296926021576" lon="12.676524315029383">
        <ele>28.98</ele>
        <time>2017-09-22T11:25:51Z</time>
      </trkpt>
      <trkpt lat="38.11329030431807" lon="12.676374446600676">
        <ele>28.98</ele>
        <time>2017-09-22T11:26:03Z</time>
      </trkpt>
      <trkpt lat="38.11327513307333" lon="12.676246790215373">
        <ele>29.460000000000001</ele>
        <time>2017-09-22T11:26:14Z</time>
      </trkpt>
      <trkpt lat="38.113284269347787" lon="12.676108404994011">
        <ele>29.460000000000001</ele>
        <time>2017-09-22T11:26:24Z</time>
      </trkpt>
      <trkpt lat="38.113290052860975" lon="12.675945376977324">
        <ele>30.899999999999999</ele>
        <time>2017-09-22T11:26:37Z</time>
      </trkpt>
      <trkpt lat="38.113296842202544" lon="12.675844961777329">
        <ele>30.420000000000002</ele>
        <time>2017-09-22T11:26:47Z</time>
      </trkpt>
      <trkpt lat="38.113300027325749" lon="12.675834819674492">
        <ele>30.420000000000002</ele>
        <time>2017-09-22T11:26:48Z</time>
      </trkpt>
      <trkpt lat="38.113343277946115" lon="12.675725519657135">
        <ele>28.98</ele>
        <time>2017-09-22T11:26:56Z</time>
      </trkpt>
      <trkpt lat="38.113375632092357" lon="12.67561580054462">
        <ele>28.98</ele>
        <time>2017-09-22T11:27:04Z</time>
      </trkpt>
      <trkpt lat="38.113420810550451" lon="12.675409186631441">
        <ele>29.460000000000001</ele>
        <time>2017-09-22T11:27:19Z</time>
      </trkpt>
      <trkpt lat="38.113419804722071" lon="12.675366522744298">
        <ele>28.98</ele>
        <time>2017-09-22T11:27:22Z</time>
      </trkpt>
      <trkpt lat="38.113421481102705" lon="12.675323439761996">
        <ele>29.460000000000001</ele>
        <time>2017-09-22T11:27:26Z</time>
      </trkpt>
      <trkpt lat="38.113450398668647" lon="12.675165357068181">
        <ele>28.5</ele>
        <time>2017-09-22T11:27:38Z</time>
      </trkpt>
      <trkpt lat="38.113455008715391" lon="12.675135936588049">
        <ele>28.02</ele>
        <time>2017-09-22T11:27:40Z</time>
      </trkpt>
      <trkpt lat="38.113477639853954" lon="12.675010208040476">
        <ele>26.57</ele>
        <time>2017-09-22T11:27:51Z</time>
      </trkpt>
      <trkpt lat="38.113483591005206" lon="12.674925634637475">
        <ele>25.129999999999999</ele>
        <time>2017-09-22T11:27:58Z</time>
      </trkpt>
      <trkpt lat="38.113525584340096" lon="12.674742741510272">
        <ele>24.170000000000002</ele>
        <time>2017-09-22T11:28:11Z</time>
      </trkpt>
      <trkpt lat="38.113529188558459" lon="12.674731174483895">
        <ele>24.170000000000002</ele>
        <time>2017-09-22T11:28:12Z</time>
      </trkpt>
      <trkpt lat="38.113532792776823" lon="12.674707369878888">
        <ele>24.170000000000002</ele>
        <time>2017-09-22T11:28:14Z</time>
      </trkpt>
      <trkpt lat="38.113555172458291" lon="12.674592370167375">
        <ele>24.170000000000002</ele>
        <time>2017-09-22T11:28:23Z</time>
      </trkpt>
      <trkpt lat="38.113559111952782" lon="12.674564542248845">
        <ele>24.649999999999999</ele>
        <time>2017-09-22T11:28:25Z</time>
      </trkpt>
      <trkpt lat="38.113577468320727" lon="12.674459936097264">
        <ele>24.649999999999999</ele>
        <time>2017-09-22T11:28:32Z</time>
      </trkpt>
      <trkpt lat="38.113639410585165" lon="12.674331525340676">
        <ele>25.129999999999999</ele>
        <time>2017-09-22T11:28:44Z</time>
      </trkpt>
      <trkpt lat="38.113655839115381" lon="12.6742974948138">
        <ele>25.129999999999999</ele>
        <time>2017-09-22T11:28:47Z</time>
      </trkpt>
      <trkpt lat="38.113687690347433" lon="12.674162713810802">
        <ele>25.129999999999999</ele>
        <time>2017-09-22T11:28:57Z</time>
      </trkpt>
      <trkpt lat="38.11372758820653" lon="12.674100352451205">
        <ele>24.649999999999999</ele>
        <time>2017-09-22T11:29:02Z</time>
      </trkpt>
      <trkpt lat="38.113755332306027" lon="12.674046289175749">
        <ele>24.170000000000002</ele>
        <time>2017-09-22T11:29:06Z</time>
      </trkpt>
      <trkpt lat="38.113776370882988" lon="12.673904467374086">
        <ele>23.210000000000001</ele>
        <time>2017-09-22T11:29:20Z</time>
      </trkpt>
      <trkpt lat="38.113793218508363" lon="12.673692153766751">
        <ele>22.73</ele>
        <time>2017-09-22T11:29:34Z</time>
      </trkpt>
      <trkpt lat="38.113801432773471" lon="12.673671534284949">
        <ele>22.73</ele>
        <time>2017-09-22T11:29:36Z</time>
      </trkpt>
      <trkpt lat="38.113831775262952" lon="12.673513200134039">
        <ele>20.809999999999999</ele>
        <time>2017-09-22T11:29:48Z</time>
      </trkpt>
      <trkpt lat="38.11385809443891" lon="12.673425944522023">
        <ele>20.809999999999999</ele>
        <time>2017-09-22T11:29:56Z</time>
      </trkpt>
      <trkpt lat="38.113869745284319" lon="12.673292504623532">
        <ele>20.809999999999999</ele>
        <time>2017-09-22T11:30:07Z</time>
      </trkpt>
      <trkpt lat="38.113868068903685" lon="12.673204243183136">
        <ele>20.809999999999999</ele>
        <time>2017-09-22T11:30:13Z</time>
      </trkpt>
      <trkpt lat="38.113909726962447" lon="12.673137607052922">
        <ele>20.32</ele>
        <time>2017-09-22T11:30:18Z</time>
      </trkpt>
      <trkpt lat="38.113915594294667" lon="12.672963766381145">
        <ele>20.32</ele>
        <time>2017-09-22T11:30:30Z</time>
      </trkpt>
      <trkpt lat="38.113922802731395" lon="12.672722786664963">
        <ele>20.809999999999999</ele>
        <time>2017-09-22T11:30:46Z</time>
      </trkpt>
      <trkpt lat="38.113918276503682" lon="12.67255112528801">
        <ele>20.809999999999999</ele>
        <time>2017-09-22T11:30:57Z</time>
      </trkpt>
      <trkpt lat="38.113907380029559" lon="12.672365885227919">
        <ele>20.809999999999999</ele>
        <time>2017-09-22T11:31:11Z</time>
      </trkpt>
      <trkpt lat="38.113885670900345" lon="12.672298243269324">
        <ele>21.289999999999999</ele>
        <time>2017-09-22T11:31:16Z</time>
      </trkpt>
      <trkpt lat="38.113766564056277" lon="12.672180142253637">
        <ele>21.77</ele>
        <time>2017-09-22T11:31:31Z</time>
      </trkpt>
      <trkpt lat="38.113758517429233" lon="12.672183495014906">
        <ele>21.77</ele>
        <time>2017-09-22T11:31:41Z</time>
      </trkpt>
      <trkpt lat="38.113734712824225" lon="12.672134377062321">
        <ele>21.77</ele>
        <time>2017-09-22T11:31:45Z</time>
      </trkpt>
      <trkpt lat="38.113700933754444" lon="12.672088863328099">
        <ele>22.25</ele>
        <time>2017-09-22T11:31:50Z</time>
      </trkpt>
      <trkpt lat="38.113680565729737" lon="12.672068160027266">
        <ele>22.25</ele>
        <time>2017-09-22T11:31:53Z</time>
      </trkpt>
      <trkpt lat="38.113639997318387" lon="12.671939162537456">
        <ele>23.690000000000001</ele>
        <time>2017-09-22T11:32:04Z</time>
      </trkpt>
      <trkpt lat="38.113620551303029" lon="12.671886440366507">
        <ele>23.690000000000001</ele>
        <time>2017-09-22T11:32:08Z</time>
      </trkpt>
      <trkpt lat="38.113556932657957" lon="12.671705894172192">
        <ele>24.170000000000002</ele>
        <time>2017-09-22T11:32:23Z</time>
      </trkpt>
      <trkpt lat="38.113493984565139" lon="12.671607490628958">
        <ele>24.649999999999999</ele>
        <time>2017-09-22T11:32:34Z</time>
      </trkpt>
      <trkpt lat="38.11346816830337" lon="12.671581087633967">
        <ele>24.649999999999999</ele>
        <time>2017-09-22T11:32:37Z</time>
      </trkpt>
      <trkpt lat="38.113367836922407" lon="12.671477068215609">
        <ele>25.129999999999999</ele>
        <time>2017-09-22T11:32:49Z</time>
      </trkpt>
      <trkpt lat="38.113292651250958" lon="12.671340191736817">
        <ele>24.649999999999999</ele>
        <time>2017-09-22T11:33:00Z</time>
      </trkpt>
      <trkpt lat="38.113237330690026" lon="12.671131230890751">
        <ele>24.170000000000002</ele>
        <time>2017-09-22T11:33:13Z</time>
      </trkpt>
      <trkpt lat="38.113178322091699" lon="12.670923443511128">
        <ele>24.170000000000002</ele>
        <time>2017-09-22T11:33:26Z</time>
      </trkpt>
      <trkpt lat="38.113160552456975" lon="12.670873990282416">
        <ele>24.170000000000002</ele>
        <time>2017-09-22T11:33:30Z</time>
      </trkpt>
      <trkpt lat="38.113085450604558" lon="12.670790506526828">
        <ele>25.609999999999999</ele>
        <time>2017-09-22T11:33:40Z</time>
      </trkpt>
      <trkpt lat="38.113061310723424" lon="12.6707505248487">
        <ele>26.09</ele>
        <time>2017-09-22T11:33:43Z</time>
      </trkpt>
      <trkpt lat="38.113088300451636" lon="12.670572157949209">
        <ele>25.609999999999999</ele>
        <time>2017-09-22T11:33:53Z</time>
      </trkpt>
      <trkpt lat="38.113051755353808" lon="12.670351713895798">
        <ele>25.129999999999999</ele>
        <time>2017-09-22T11:34:07Z</time>
      </trkpt>
      <trkpt lat="38.113005151972175" lon="12.670256830751896">
        <ele>26.09</ele>
        <time>2017-09-22T11:34:15Z</time>
      </trkpt>
      <trkpt lat="38.11298344284296" lon="12.670150129124522">
        <ele>27.050000000000001</ele>
        <time>2017-09-22T11:34:24Z</time>
      </trkpt>
      <trkpt lat="38.113005571067333" lon="12.670003613457084">
        <ele>28.02</ele>
        <time>2017-09-22T11:34:35Z</time>
      </trkpt>
      <trkpt lat="38.113003643229604" lon="12.669837148860097">
        <ele>28.5</ele>
        <time>2017-09-22T11:34:46Z</time>
      </trkpt>
      <trkpt lat="38.113004146143794" lon="12.669660039246082">
        <ele>29.940000000000001</ele>
        <time>2017-09-22T11:34:59Z</time>
      </trkpt>
      <trkpt lat="38.112997692078352" lon="12.669630199670792">
        <ele>30.420000000000002</ele>
        <time>2017-09-22T11:35:01Z</time>
      </trkpt>
      <trkpt lat="38.112967517226934" lon="12.669454766437411">
        <ele>31.859999999999999</ele>
        <time>2017-09-22T11:35:15Z</time>
      </trkpt>
      <trkpt lat="38.112965254113078" lon="12.669402128085494">
        <ele>32.340000000000003</ele>
        <time>2017-09-22T11:35:19Z</time>
      </trkpt>
      <trkpt lat="38.112957207486033" lon="12.669262737035751">
        <ele>33.299999999999997</ele>
        <time>2017-09-22T11:35:30Z</time>
      </trkpt>
      <trkpt lat="38.112932899966836" lon="12.66915762796998">
        <ele>34.259999999999998</ele>
        <time>2017-09-22T11:35:39Z</time>
      </trkpt>
      <trkpt lat="38.112931391224265" lon="12.669134577736259">
        <ele>34.259999999999998</ele>
        <time>2017-09-22T11:35:41Z</time>
      </trkpt>
      <trkpt lat="38.112934827804565" lon="12.669100295752287">
        <ele>34.740000000000002</ele>
        <time>2017-09-22T11:35:44Z</time>
      </trkpt>
      <trkpt lat="38.112917896360159" lon="12.669035168364644">
        <ele>34.740000000000002</ele>
        <time>2017-09-22T11:35:49Z</time>
      </trkpt>
      <trkpt lat="38.112907502800226" lon="12.668999377638102">
        <ele>35.710000000000001</ele>
        <time>2017-09-22T11:35:57Z</time>
      </trkpt>
      <trkpt lat="38.112908760085702" lon="12.669013375416398">
        <ele>35.710000000000001</ele>
        <time>2017-09-22T11:36:13Z</time>
      </trkpt>
      <trkpt lat="38.112918818369508" lon="12.669005580246449">
        <ele>35.710000000000001</ele>
        <time>2017-09-22T11:36:27Z</time>
      </trkpt>
      <trkpt lat="38.112907838076353" lon="12.668904745951295">
        <ele>36.189999999999998</ele>
        <time>2017-09-22T11:36:38Z</time>
      </trkpt>
      <trkpt lat="38.112886212766171" lon="12.668788153678179">
        <ele>36.670000000000002</ele>
        <time>2017-09-22T11:36:47Z</time>
      </trkpt>
      <trkpt lat="38.112879423424602" lon="12.668726546689868">
        <ele>37.149999999999999</ele>
        <time>2017-09-22T11:36:51Z</time>
      </trkpt>
      <trkpt lat="38.112864838913083" lon="12.668569134548306">
        <ele>38.109999999999999</ele>
        <time>2017-09-22T11:37:04Z</time>
      </trkpt>
      <trkpt lat="38.112860647961497" lon="12.668500822037458">
        <ele>38.109999999999999</ele>
        <time>2017-09-22T11:37:09Z</time>
      </trkpt>
      <trkpt lat="38.112838184460998" lon="12.668276103213429">
        <ele>38.590000000000003</ele>
        <time>2017-09-22T11:37:24Z</time>
      </trkpt>
      <trkpt lat="38.112833574414253" lon="12.668249364942312">
        <ele>39.07</ele>
        <time>2017-09-22T11:37:26Z</time>
      </trkpt>
      <trkpt lat="38.112827036529779" lon="12.668186752125621">
        <ele>39.07</ele>
        <time>2017-09-22T11:37:31Z</time>
      </trkpt>
      <trkpt lat="38.112834999337792" lon="12.668103687465191">
        <ele>39.07</ele>
        <time>2017-09-22T11:37:37Z</time>
      </trkpt>
      <trkpt lat="38.112827874720097" lon="12.668058173730969">
        <ele>39.07</ele>
        <time>2017-09-22T11:37:40Z</time>
      </trkpt>
      <trkpt lat="38.112843800336123" lon="12.667847787961364">
        <ele>38.109999999999999</ele>
        <time>2017-09-22T11:37:53Z</time>
      </trkpt>
      <trkpt lat="38.112818067893386" lon="12.667692303657532">
        <ele>38.109999999999999</ele>
        <time>2017-09-22T11:38:06Z</time>
      </trkpt>
      <trkpt lat="38.112826533615589" lon="12.667679311707616">
        <ele>37.630000000000003</ele>
        <time>2017-09-22T11:38:17Z</time>
      </trkpt>
      <trkpt lat="38.112814296036959" lon="12.66755978576839">
        <ele>38.109999999999999</ele>
        <time>2017-09-22T11:38:27Z</time>
      </trkpt>
      <trkpt lat="38.112800214439631" lon="12.66736188903451">
        <ele>38.109999999999999</ele>
        <time>2017-09-22T11:38:40Z</time>
      </trkpt>
      <trkpt lat="38.112802980467677" lon="12.667337665334344">
        <ele>37.630000000000003</ele>
        <time>2017-09-22T11:38:42Z</time>
      </trkpt>
      <trkpt lat="38.112753862515092" lon="12.667171284556389">
        <ele>37.630000000000003</ele>
        <time>2017-09-22T11:38:54Z</time>
      </trkpt>
      <trkpt lat="38.112740116193891" lon="12.667157286778092">
        <ele>37.630000000000003</ele>
        <time>2017-09-22T11:38:57Z</time>
      </trkpt>
      <trkpt lat="38.112640287727118" lon="12.66701060347259">
        <ele>38.109999999999999</ele>
        <time>2017-09-22T11:39:10Z</time>
      </trkpt>
      <trkpt lat="38.11256074346602" lon="12.666835002601147">
        <ele>39.07</ele>
        <time>2017-09-22T11:39:23Z</time>
      </trkpt>
      <trkpt lat="38.112513637170196" lon="12.666755542159081">
        <ele>39.07</ele>
        <time>2017-09-22T11:39:31Z</time>
      </trkpt>
      <trkpt lat="38.11245035380125" lon="12.666591089218855">
        <ele>38.590000000000003</ele>
        <time>2017-09-22T11:39:43Z</time>
      </trkpt>
      <trkpt lat="38.112436272203922" lon="12.666545826941729">
        <ele>38.590000000000003</ele>
        <time>2017-09-22T11:39:56Z</time>
      </trkpt>
      <trkpt lat="38.112390842288733" lon="12.66635094769299">
        <ele>38.590000000000003</ele>
        <time>2017-09-22T11:40:09Z</time>
      </trkpt>
      <trkpt lat="38.112376006320119" lon="12.666304092854261">
        <ele>40.030000000000001</ele>
        <time>2017-09-22T11:40:13Z</time>
      </trkpt>
      <trkpt lat="38.112358907237649" lon="12.66618330962956">
        <ele>40.030000000000001</ele>
        <time>2017-09-22T11:40:23Z</time>
      </trkpt>
      <trkpt lat="38.11234968714416" lon="12.6660724170506">
        <ele>40.990000000000002</ele>
        <time>2017-09-22T11:40:33Z</time>
      </trkpt>
      <trkpt lat="38.112363601103425" lon="12.665956243872643">
        <ele>40.030000000000001</ele>
        <time>2017-09-22T11:40:46Z</time>
      </trkpt>
      <trkpt lat="38.112410120666027" lon="12.665867730975151">
        <ele>38.590000000000003</ele>
        <time>2017-09-22T11:40:57Z</time>
      </trkpt>
      <trkpt lat="38.112470889464021" lon="12.665756503120065">
        <ele>36.670000000000002</ele>
        <time>2017-09-22T11:41:09Z</time>
      </trkpt>
      <trkpt lat="38.112466782331467" lon="12.665755497291684">
        <ele>36.670000000000002</ele>
        <time>2017-09-22T11:41:18Z</time>
      </trkpt>
      <trkpt lat="38.112468039616942" lon="12.665752815082669">
        <ele>36.670000000000002</ele>
        <time>2017-09-22T11:41:29Z</time>
      </trkpt>
      <trkpt lat="38.112500309944153" lon="12.665738482028246">
        <ele>36.189999999999998</ele>
        <time>2017-09-22T11:41:42Z</time>
      </trkpt>
      <trkpt lat="38.11248647980392" lon="12.665734458714724">
        <ele>36.189999999999998</ele>
        <time>2017-09-22T11:42:01Z</time>
      </trkpt>
      <trkpt lat="38.11252361163497" lon="12.665682239457965">
        <ele>36.189999999999998</ele>
        <time>2017-09-22T11:42:19Z</time>
      </trkpt>
      <trkpt lat="38.112562000751495" lon="12.665568329393864">
        <ele>36.189999999999998</ele>
        <time>2017-09-22T11:42:31Z</time>
      </trkpt>
      <trkpt lat="38.112575076520443" lon="12.665490880608559">
        <ele>36.189999999999998</ele>
        <time>2017-09-22T11:42:47Z</time>
      </trkpt>
      <trkpt lat="38.112592259421945" lon="12.665362218394876">
        <ele>36.670000000000002</ele>
        <time>2017-09-22T11:43:01Z</time>
      </trkpt>
      <trkpt lat="38.112567365169525" lon="12.665254846215248">
        <ele>37.630000000000003</ele>
        <time>2017-09-22T11:43:14Z</time>
      </trkpt>
      <trkpt lat="38.112543728202581" lon="12.665236238390207">
        <ele>38.109999999999999</ele>
        <time>2017-09-22T11:43:22Z</time>
      </trkpt>
      <trkpt lat="38.112459322437644" lon="12.665238082408905">
        <ele>41.469999999999999</ele>
        <time>2017-09-22T11:43:36Z</time>
      </trkpt>
      <trkpt lat="38.112411377951503" lon="12.665170524269342">
        <ele>43.399999999999999</ele>
        <time>2017-09-22T11:43:45Z</time>
      </trkpt>
      <trkpt lat="38.112367372959852" lon="12.665087878704071">
        <ele>45.32</ele>
        <time>2017-09-22T11:43:58Z</time>
      </trkpt>
      <trkpt lat="38.112318841740489" lon="12.665015207603574">
        <ele>45.799999999999997</ele>
        <time>2017-09-22T11:44:11Z</time>
      </trkpt>
      <trkpt lat="38.112292941659689" lon="12.664966257289052">
        <ele>48.200000000000003</ele>
        <time>2017-09-22T11:44:21Z</time>
      </trkpt>
      <trkpt lat="38.112274501472712" lon="12.664900040253997">
        <ele>49.649999999999999</ele>
        <time>2017-09-22T11:44:31Z</time>
      </trkpt>
      <trkpt lat="38.112210966646671" lon="12.664854023605585">
        <ele>50.609999999999999</ele>
        <time>2017-09-22T11:44:47Z</time>
      </trkpt>
      <trkpt lat="38.112195376306772" lon="12.664836505427957">
        <ele>51.090000000000003</ele>
        <time>2017-09-22T11:45:02Z</time>
      </trkpt>
      <trkpt lat="38.112233430147171" lon="12.664726031944156">
        <ele>52.049999999999997</ele>
        <time>2017-09-22T11:45:11Z</time>
      </trkpt>
      <trkpt lat="38.112230412662029" lon="12.664731396362185">
        <ele>51.57</ele>
        <time>2017-09-22T11:45:20Z</time>
      </trkpt>
      <trkpt lat="38.112232340499759" lon="12.664651768282056">
        <ele>52.530000000000001</ele>
        <time>2017-09-22T11:45:27Z</time>
      </trkpt>
      <trkpt lat="38.112225048243999" lon="12.664594771340489">
        <ele>53.009999999999998</ele>
        <time>2017-09-22T11:45:32Z</time>
      </trkpt>
      <trkpt lat="38.112214151769876" lon="12.664486728608608">
        <ele>54.93</ele>
        <time>2017-09-22T11:45:42Z</time>
      </trkpt>
      <trkpt lat="38.112221946939826" lon="12.664415314793587">
        <ele>54.93</ele>
        <time>2017-09-22T11:45:49Z</time>
      </trkpt>
      <trkpt lat="38.112210547551513" lon="12.66428405418992">
        <ele>56.369999999999997</ele>
        <time>2017-09-22T11:46:00Z</time>
      </trkpt>
      <trkpt lat="38.112202417105436" lon="12.664274917915463">
        <ele>56.369999999999997</ele>
        <time>2017-09-22T11:46:01Z</time>
      </trkpt>
      <trkpt lat="38.112193029373884" lon="12.664254968985915">
        <ele>56.369999999999997</ele>
        <time>2017-09-22T11:46:03Z</time>
      </trkpt>
      <trkpt lat="38.112159250304103" lon="12.664137035608292">
        <ele>57.340000000000003</ele>
        <time>2017-09-22T11:46:13Z</time>
      </trkpt>
      <trkpt lat="38.112083310261369" lon="12.663996554911137">
        <ele>58.299999999999997</ele>
        <time>2017-09-22T11:46:26Z</time>
      </trkpt>
      <trkpt lat="38.111987169831991" lon="12.66382128931582">
        <ele>59.740000000000002</ele>
        <time>2017-09-22T11:46:40Z</time>
      </trkpt>
      <trkpt lat="38.111941320821643" lon="12.663683323189616">
        <ele>60.700000000000003</ele>
        <time>2017-09-22T11:46:53Z</time>
      </trkpt>
      <trkpt lat="38.111895220354199" lon="12.663584668189287">
        <ele>60.700000000000003</ele>
        <time>2017-09-22T11:47:03Z</time>
      </trkpt>
      <trkpt lat="38.111818190664053" lon="12.663486013188958">
        <ele>63.100000000000001</ele>
        <time>2017-09-22T11:47:15Z</time>
      </trkpt>
      <trkpt lat="38.111761193722486" lon="12.663383251056075">
        <ele>64.069999999999993</ele>
        <time>2017-09-22T11:47:29Z</time>
      </trkpt>
      <trkpt lat="38.111713416874409" lon="12.66326230019331">
        <ele>65.510000000000005</ele>
        <time>2017-09-22T11:47:42Z</time>
      </trkpt>
      <trkpt lat="38.111669160425663" lon="12.663132715970278">
        <ele>66.469999999999999</ele>
        <time>2017-09-22T11:47:55Z</time>
      </trkpt>
      <trkpt lat="38.111620377749205" lon="12.663042275235057">
        <ele>67.909999999999997</ele>
        <time>2017-09-22T11:48:06Z</time>
      </trkpt>
      <trkpt lat="38.111594812944531" lon="12.66297010704875">
        <ele>68.870000000000005</ele>
        <time>2017-09-22T11:48:13Z</time>
      </trkpt>
      <trkpt lat="38.111543012782931" lon="12.662837756797671">
        <ele>70.310000000000002</ele>
        <time>2017-09-22T11:48:27Z</time>
      </trkpt>
      <trkpt lat="38.111495990306139" lon="12.662725020200014">
        <ele>69.829999999999998</ele>
        <time>2017-09-22T11:48:39Z</time>
      </trkpt>
      <trkpt lat="38.111483585089445" lon="12.662711776793003">
        <ele>71.269999999999996</ele>
        <time>2017-09-22T11:48:41Z</time>
      </trkpt>
      <trkpt lat="38.111470509320498" lon="12.662682607769966">
        <ele>71.760000000000005</ele>
        <time>2017-09-22T11:48:45Z</time>
      </trkpt>
      <trkpt lat="38.111405968666077" lon="12.66258311457932">
        <ele>73.200000000000003</ele>
        <time>2017-09-22T11:48:57Z</time>
      </trkpt>
      <trkpt lat="38.111380571499467" lon="12.662557465955615">
        <ele>73.680000000000007</ele>
        <time>2017-09-22T11:49:10Z</time>
      </trkpt>
      <trkpt lat="38.111286526545882" lon="12.662558304145932">
        <ele>74.640000000000001</ele>
        <time>2017-09-22T11:49:21Z</time>
      </trkpt>
      <trkpt lat="38.111232882365584" lon="12.662496529519558">
        <ele>75.599999999999994</ele>
        <time>2017-09-22T11:49:29Z</time>
      </trkpt>
      <trkpt lat="38.111207988113165" lon="12.662387313321233">
        <ele>75.120000000000005</ele>
        <time>2017-09-22T11:49:37Z</time>
      </trkpt>
      <trkpt lat="38.111199857667089" lon="12.662322269752622">
        <ele>74.640000000000001</ele>
        <time>2017-09-22T11:49:41Z</time>
      </trkpt>
      <trkpt lat="38.111212346702814" lon="12.66208078712225">
        <ele>72.719999999999999</ele>
        <time>2017-09-22T11:49:57Z</time>
      </trkpt>
      <trkpt lat="38.111125845462084" lon="12.661906946450472">
        <ele>71.760000000000005</ele>
        <time>2017-09-22T11:50:11Z</time>
      </trkpt>
      <trkpt lat="38.111034985631704" lon="12.661780882626772">
        <ele>70.310000000000002</ele>
        <time>2017-09-22T11:50:21Z</time>
      </trkpt>
      <trkpt lat="38.110981844365597" lon="12.661711983382702">
        <ele>69.829999999999998</ele>
        <time>2017-09-22T11:50:27Z</time>
      </trkpt>
      <trkpt lat="38.1108901463449" lon="12.661557756364346">
        <ele>67.909999999999997</ele>
        <time>2017-09-22T11:50:41Z</time>
      </trkpt>
      <trkpt lat="38.110858630388975" lon="12.661397578194737">
        <ele>67.430000000000007</ele>
        <time>2017-09-22T11:50:52Z</time>
      </trkpt>
      <trkpt lat="38.110827952623367" lon="12.661242345348001">
        <ele>65.989999999999995</ele>
        <time>2017-09-22T11:51:04Z</time>
      </trkpt>
      <trkpt lat="38.110792748630047" lon="12.661068923771381">
        <ele>65.030000000000001</ele>
        <time>2017-09-22T11:51:17Z</time>
      </trkpt>
      <trkpt lat="38.110757963731885" lon="12.660921737551689">
        <ele>63.579999999999998</ele>
        <time>2017-09-22T11:51:28Z</time>
      </trkpt>
      <trkpt lat="38.11074698343873" lon="12.660887120291591">
        <ele>64.069999999999993</ele>
        <time>2017-09-22T11:51:31Z</time>
      </trkpt>
      <trkpt lat="38.110696775838733" lon="12.66072291880846">
        <ele>62.619999999999997</ele>
        <time>2017-09-22T11:51:44Z</time>
      </trkpt>
      <trkpt lat="38.110643215477467" lon="12.660534325987101">
        <ele>61.659999999999997</ele>
        <time>2017-09-22T11:51:58Z</time>
      </trkpt>
      <trkpt lat="38.110584542155266" lon="12.660423684865236">
        <ele>60.219999999999999</ele>
        <time>2017-09-22T11:52:10Z</time>
      </trkpt>
      <trkpt lat="38.110555540770292" lon="12.660377835854888">
        <ele>59.259999999999998</ele>
        <time>2017-09-22T11:52:20Z</time>
      </trkpt>
      <trkpt lat="38.110555624589324" lon="12.660382026806474">
        <ele>59.259999999999998</ele>
        <time>2017-09-22T11:52:22Z</time>
      </trkpt>
      <trkpt lat="38.110466860234737" lon="12.660266440361738">
        <ele>57.340000000000003</ele>
        <time>2017-09-22T11:52:34Z</time>
      </trkpt>
      <trkpt lat="38.110341802239418" lon="12.660087486729026">
        <ele>54.450000000000003</ele>
        <time>2017-09-22T11:52:49Z</time>
      </trkpt>
      <trkpt lat="38.110234262421727" lon="12.659962261095643">
        <ele>52.049999999999997</ele>
        <time>2017-09-22T11:53:03Z</time>
      </trkpt>
      <trkpt lat="38.110161758959293" lon="12.659799233078957">
        <ele>50.609999999999999</ele>
        <time>2017-09-22T11:53:15Z</time>
      </trkpt>
      <trkpt lat="38.110122699290514" lon="12.659654812887311">
        <ele>49.649999999999999</ele>
        <time>2017-09-22T11:53:26Z</time>
      </trkpt>
      <trkpt lat="38.110038293525577" lon="12.659547524526715">
        <ele>48.200000000000003</ele>
        <time>2017-09-22T11:53:38Z</time>
      </trkpt>
      <trkpt lat="38.109959419816732" lon="12.659395057708025">
        <ele>47.240000000000002</ele>
        <time>2017-09-22T11:53:50Z</time>
      </trkpt>
      <trkpt lat="38.109848024323583" lon="12.659274190664291">
        <ele>45.799999999999997</ele>
        <time>2017-09-22T11:54:03Z</time>
      </trkpt>
      <trkpt lat="38.109709220007062" lon="12.659111078828573">
        <ele>44.840000000000003</ele>
        <time>2017-09-22T11:54:19Z</time>
      </trkpt>
      <trkpt lat="38.109569577500224" lon="12.65896481461823">
        <ele>44.840000000000003</ele>
        <time>2017-09-22T11:54:35Z</time>
      </trkpt>
      <trkpt lat="38.109519369900227" lon="12.658895747736096">
        <ele>44.840000000000003</ele>
        <time>2017-09-22T11:54:46Z</time>
      </trkpt>
      <trkpt lat="38.109504031017423" lon="12.658915193751454">
        <ele>44.840000000000003</ele>
        <time>2017-09-22T11:54:59Z</time>
      </trkpt>
      <trkpt lat="38.109369669109583" lon="12.65876691788435">
        <ele>44.359999999999999</ele>
        <time>2017-09-22T11:55:14Z</time>
      </trkpt>
      <trkpt lat="38.109209407120943" lon="12.658671112731099">
        <ele>43.880000000000003</ele>
        <time>2017-09-22T11:55:29Z</time>
      </trkpt>
      <trkpt lat="38.109096586704254" lon="12.658643620088696">
        <ele>42.920000000000002</ele>
        <time>2017-09-22T11:55:39Z</time>
      </trkpt>
      <trkpt lat="38.108962727710605" lon="12.658614618703723">
        <ele>41.950000000000003</ele>
        <time>2017-09-22T11:55:51Z</time>
      </trkpt>
      <trkpt lat="38.108769441023469" lon="12.658502552658319">
        <ele>41.950000000000003</ele>
        <time>2017-09-22T11:56:08Z</time>
      </trkpt>
      <trkpt lat="38.108626110479236" lon="12.65838922932744">
        <ele>41.469999999999999</ele>
        <time>2017-09-22T11:56:22Z</time>
      </trkpt>
      <trkpt lat="38.108483618125319" lon="12.658275822177529">
        <ele>40.509999999999998</ele>
        <time>2017-09-22T11:56:36Z</time>
      </trkpt>
      <trkpt lat="38.108280273154378" lon="12.65818303450942">
        <ele>40.509999999999998</ele>
        <time>2017-09-22T11:56:53Z</time>
      </trkpt>
      <trkpt lat="38.108133422210813" lon="12.658126037567854">
        <ele>39.549999999999997</ele>
        <time>2017-09-22T11:57:05Z</time>
      </trkpt>
      <trkpt lat="38.107961844652891" lon="12.658090582117438">
        <ele>39.549999999999997</ele>
        <time>2017-09-22T11:57:20Z</time>
      </trkpt>
      <trkpt lat="38.107821866869926" lon="12.658072058111429">
        <ele>39.549999999999997</ele>
        <time>2017-09-22T11:57:32Z</time>
      </trkpt>
      <trkpt lat="38.107655737549067" lon="12.658038949593902">
        <ele>37.149999999999999</ele>
        <time>2017-09-22T11:57:46Z</time>
      </trkpt>
      <trkpt lat="38.107487512752414" lon="12.65807549469173">
        <ele>37.149999999999999</ele>
        <time>2017-09-22T11:58:00Z</time>
      </trkpt>
      <trkpt lat="38.107395311817527" lon="12.658109357580543">
        <ele>37.630000000000003</ele>
        <time>2017-09-22T11:58:09Z</time>
      </trkpt>
      <trkpt lat="38.107311157509685" lon="12.658079266548157">
        <ele>37.149999999999999</ele>
        <time>2017-09-22T11:58:16Z</time>
      </trkpt>
      <trkpt lat="38.107135389000177" lon="12.658037943765521">
        <ele>36.670000000000002</ele>
        <time>2017-09-22T11:58:31Z</time>
      </trkpt>
      <trkpt lat="38.106971438974142" lon="12.658023778349161">
        <ele>37.630000000000003</ele>
        <time>2017-09-22T11:58:44Z</time>
      </trkpt>
      <trkpt lat="38.106813859194517" lon="12.65804230235517">
        <ele>37.630000000000003</ele>
        <time>2017-09-22T11:58:58Z</time>
      </trkpt>
      <trkpt lat="38.106757029891014" lon="12.658068789169192">
        <ele>37.630000000000003</ele>
        <time>2017-09-22T11:59:09Z</time>
      </trkpt>
      <trkpt lat="38.106651417911053" lon="12.658098125830293">
        <ele>37.630000000000003</ele>
        <time>2017-09-22T11:59:18Z</time>
      </trkpt>
      <trkpt lat="38.10645972378552" lon="12.658170629292727">
        <ele>38.590000000000003</ele>
        <time>2017-09-22T11:59:34Z</time>
      </trkpt>
      <trkpt lat="38.106291582807899" lon="12.65825042501092">
        <ele>38.590000000000003</ele>
        <time>2017-09-22T11:59:50Z</time>
      </trkpt>
      <trkpt lat="38.106147078797221" lon="12.658341201022267">
        <ele>38.590000000000003</ele>
        <time>2017-09-22T12:00:04Z</time>
      </trkpt>
      <trkpt lat="38.105983966961503" lon="12.658443627879024">
        <ele>38.590000000000003</ele>
        <time>2017-09-22T12:00:20Z</time>
      </trkpt>
      <trkpt lat="38.105843486264348" lon="12.658519987016916">
        <ele>38.590000000000003</ele>
        <time>2017-09-22T12:00:32Z</time>
      </trkpt>
      <trkpt lat="38.105686325579882" lon="12.658585533499718">
        <ele>37.149999999999999</ele>
        <time>2017-09-22T12:00:47Z</time>
      </trkpt>
      <trkpt lat="38.10560611076653" lon="12.658641524612904">
        <ele>36.670000000000002</ele>
        <time>2017-09-22T12:00:54Z</time>
      </trkpt>
      <trkpt lat="38.105435790494084" lon="12.658752584829926">
        <ele>36.189999999999998</ele>
        <time>2017-09-22T12:01:10Z</time>
      </trkpt>
      <trkpt lat="38.105269493535161" lon="12.658840427175164">
        <ele>35.710000000000001</ele>
        <time>2017-09-22T12:01:25Z</time>
      </trkpt>
      <trkpt lat="38.105121133849025" lon="12.658907817676663">
        <ele>35.710000000000001</ele>
        <time>2017-09-22T12:01:37Z</time>
      </trkpt>
      <trkpt lat="38.104933043941855" lon="12.658994905650616">
        <ele>35.710000000000001</ele>
        <time>2017-09-22T12:01:53Z</time>
      </trkpt>
      <trkpt lat="38.104784348979592" lon="12.659032540395856">
        <ele>35.710000000000001</ele>
        <time>2017-09-22T12:02:06Z</time>
      </trkpt>
      <trkpt lat="38.104638252407312" lon="12.65909037552774">
        <ele>35.229999999999997</ele>
        <time>2017-09-22T12:02:20Z</time>
      </trkpt>
      <trkpt lat="38.104480588808656" lon="12.659158268943429">
        <ele>34.740000000000002</ele>
        <time>2017-09-22T12:02:33Z</time>
      </trkpt>
      <trkpt lat="38.104282943531871" lon="12.659198753535748">
        <ele>33.780000000000001</ele>
        <time>2017-09-22T12:02:47Z</time>
      </trkpt>
      <trkpt lat="38.104154532775283" lon="12.659264048561454">
        <ele>33.299999999999997</ele>
        <time>2017-09-22T12:02:59Z</time>
      </trkpt>
      <trkpt lat="38.104026960209012" lon="12.659318614751101">
        <ele>33.299999999999997</ele>
        <time>2017-09-22T12:03:10Z</time>
      </trkpt>
      <trkpt lat="38.103847503662109" lon="12.659382149577141">
        <ele>32.340000000000003</ele>
        <time>2017-09-22T12:03:24Z</time>
      </trkpt>
      <trkpt lat="38.103686152026057" lon="12.659436380490661">
        <ele>32.340000000000003</ele>
        <time>2017-09-22T12:03:38Z</time>
      </trkpt>
      <trkpt lat="38.103521028533578" lon="12.659463789314032">
        <ele>32.340000000000003</ele>
        <time>2017-09-22T12:03:51Z</time>
      </trkpt>
      <trkpt lat="38.103385074064136" lon="12.659483654424548">
        <ele>31.379999999999999</ele>
        <time>2017-09-22T12:04:01Z</time>
      </trkpt>
      <trkpt lat="38.103209473192692" lon="12.659554900601506">
        <ele>29.940000000000001</ele>
        <time>2017-09-22T12:04:17Z</time>
      </trkpt>
      <trkpt lat="38.103053569793701" lon="12.659512907266617">
        <ele>28.98</ele>
        <time>2017-09-22T12:04:30Z</time>
      </trkpt>
      <trkpt lat="38.102881908416748" lon="12.659501256421208">
        <ele>28.02</ele>
        <time>2017-09-22T12:04:43Z</time>
      </trkpt>
      <trkpt lat="38.102757604792714" lon="12.65949203632772">
        <ele>27.530000000000001</ele>
        <time>2017-09-22T12:04:54Z</time>
      </trkpt>
      <trkpt lat="38.102577058598399" lon="12.65945733524859">
        <ele>26.57</ele>
        <time>2017-09-22T12:05:08Z</time>
      </trkpt>
      <trkpt lat="38.102432554587722" lon="12.659487007185817">
        <ele>26.57</ele>
        <time>2017-09-22T12:05:20Z</time>
      </trkpt>
      <trkpt lat="38.102211020886898" lon="12.659521624445915">
        <ele>26.57</ele>
        <time>2017-09-22T12:05:38Z</time>
      </trkpt>
      <trkpt lat="38.102052938193083" lon="12.659542076289654">
        <ele>26.09</ele>
        <time>2017-09-22T12:05:50Z</time>
      </trkpt>
      <trkpt lat="38.101868368685246" lon="12.659526150673628">
        <ele>26.09</ele>
        <time>2017-09-22T12:06:04Z</time>
      </trkpt>
      <trkpt lat="38.101705424487591" lon="12.65946957282722">
        <ele>25.609999999999999</ele>
        <time>2017-09-22T12:06:17Z</time>
      </trkpt>
      <trkpt lat="38.101511131972075" lon="12.659499077126384">
        <ele>25.609999999999999</ele>
        <time>2017-09-22T12:06:33Z</time>
      </trkpt>
      <trkpt lat="38.101481208577752" lon="12.659510308876634">
        <ele>26.09</ele>
        <time>2017-09-22T12:06:39Z</time>
      </trkpt>
      <trkpt lat="38.101340811699629" lon="12.659562863409519">
        <ele>26.09</ele>
        <time>2017-09-22T12:06:53Z</time>
      </trkpt>
      <trkpt lat="38.101179208606482" lon="12.659623380750418">
        <ele>26.09</ele>
        <time>2017-09-22T12:07:06Z</time>
      </trkpt>
      <trkpt lat="38.10104962438345" lon="12.659697728231549">
        <ele>26.57</ele>
        <time>2017-09-22T12:07:18Z</time>
      </trkpt>
      <trkpt lat="38.100865222513676" lon="12.659699404612184">
        <ele>26.57</ele>
        <time>2017-09-22T12:07:32Z</time>
      </trkpt>
      <trkpt lat="38.100711833685637" lon="12.65980820171535">
        <ele>27.050000000000001</ele>
        <time>2017-09-22T12:07:46Z</time>
      </trkpt>
      <trkpt lat="38.100539334118366" lon="12.659783810377121">
        <ele>27.530000000000001</ele>
        <time>2017-09-22T12:07:59Z</time>
      </trkpt>
      <trkpt lat="38.100371360778809" lon="12.659851955249906">
        <ele>27.530000000000001</ele>
        <time>2017-09-22T12:08:13Z</time>
      </trkpt>
      <trkpt lat="38.100233981385827" lon="12.659972989931703">
        <ele>28.02</ele>
        <time>2017-09-22T12:08:27Z</time>
      </trkpt>
      <trkpt lat="38.10011344961822" lon="12.660160660743713">
        <ele>28.98</ele>
        <time>2017-09-22T12:08:44Z</time>
      </trkpt>
      <trkpt lat="38.100023008882999" lon="12.660306924954057">
        <ele>28.98</ele>
        <time>2017-09-22T12:08:56Z</time>
      </trkpt>
      <trkpt lat="38.09991161338985" lon="12.660514460876584">
        <ele>29.460000000000001</ele>
        <time>2017-09-22T12:09:12Z</time>
      </trkpt>
      <trkpt lat="38.099790411069989" lon="12.660735491663218">
        <ele>30.899999999999999</ele>
        <time>2017-09-22T12:09:30Z</time>
      </trkpt>
      <trkpt lat="38.099666442722082" lon="12.660943949595094">
        <ele>30.899999999999999</ele>
        <time>2017-09-22T12:09:47Z</time>
      </trkpt>
      <trkpt lat="38.099458320066333" lon="12.661128686740994">
        <ele>30.899999999999999</ele>
        <time>2017-09-22T12:10:06Z</time>
      </trkpt>
      <trkpt lat="38.099354049190879" lon="12.661297498270869">
        <ele>31.379999999999999</ele>
        <time>2017-09-22T12:10:21Z</time>
      </trkpt>
      <trkpt lat="38.099334938451648" lon="12.661312501877546">
        <ele>31.379999999999999</ele>
        <time>2017-09-22T12:10:23Z</time>
      </trkpt>
      <trkpt lat="38.0991923622787" lon="12.661361871287227">
        <ele>30.899999999999999</ele>
        <time>2017-09-22T12:10:36Z</time>
      </trkpt>
      <trkpt lat="38.099154978990555" lon="12.661404199898243">
        <ele>30.899999999999999</ele>
        <time>2017-09-22T12:10:40Z</time>
      </trkpt>
      <trkpt lat="38.099030004814267" lon="12.661514170467854">
        <ele>30.899999999999999</ele>
        <time>2017-09-22T12:10:52Z</time>
      </trkpt>
      <trkpt lat="38.09893193654716" lon="12.661615507677197">
        <ele>30.420000000000002</ele>
        <time>2017-09-22T12:11:05Z</time>
      </trkpt>
      <trkpt lat="38.098907042294741" lon="12.661641072481871">
        <ele>30.420000000000002</ele>
        <time>2017-09-22T12:11:08Z</time>
      </trkpt>
      <trkpt lat="38.098885416984558" lon="12.661678120493889">
        <ele>30.420000000000002</ele>
        <time>2017-09-22T12:11:12Z</time>
      </trkpt>
      <trkpt lat="38.098785420879722" lon="12.661793036386371">
        <ele>29.460000000000001</ele>
        <time>2017-09-22T12:11:23Z</time>
      </trkpt>
      <trkpt lat="38.098728256300092" lon="12.661860762163997">
        <ele>29.460000000000001</ele>
        <time>2017-09-22T12:11:30Z</time>
      </trkpt>
      <trkpt lat="38.09865047223866" lon="12.66194986179471">
        <ele>29.460000000000001</ele>
        <time>2017-09-22T12:11:42Z</time>
      </trkpt>
      <trkpt lat="38.098551481962204" lon="12.662065951153636">
        <ele>28.02</ele>
        <time>2017-09-22T12:11:55Z</time>
      </trkpt>
      <trkpt lat="38.09842960909009" lon="12.662200145423412">
        <ele>28.02</ele>
        <time>2017-09-22T12:12:09Z</time>
      </trkpt>
      <trkpt lat="38.098316621035337" lon="12.662308774888515">
        <ele>27.050000000000001</ele>
        <time>2017-09-22T12:12:19Z</time>
      </trkpt>
      <trkpt lat="38.09822048060596" lon="12.662452943623066">
        <ele>27.530000000000001</ele>
        <time>2017-09-22T12:12:31Z</time>
      </trkpt>
      <trkpt lat="38.098184103146195" lon="12.662512790411711">
        <ele>27.050000000000001</ele>
        <time>2017-09-22T12:12:37Z</time>
      </trkpt>
      <trkpt lat="38.098075306043029" lon="12.662629885599017">
        <ele>27.050000000000001</ele>
        <time>2017-09-22T12:12:49Z</time>
      </trkpt>
      <trkpt lat="38.098053177818656" lon="12.66266668215394">
        <ele>27.050000000000001</ele>
        <time>2017-09-22T12:12:52Z</time>
      </trkpt>
      <trkpt lat="38.097962820902467" lon="12.662811353802681">
        <ele>26.57</ele>
        <time>2017-09-22T12:13:05Z</time>
      </trkpt>
      <trkpt lat="38.097853185608983" lon="12.662930209189653">
        <ele>26.09</ele>
        <time>2017-09-22T12:13:18Z</time>
      </trkpt>
      <trkpt lat="38.097777245566249" lon="12.663038251921535">
        <ele>26.09</ele>
        <time>2017-09-22T12:13:28Z</time>
      </trkpt>
      <trkpt lat="38.097654031589627" lon="12.663062307983637">
        <ele>25.129999999999999</ele>
        <time>2017-09-22T12:13:38Z</time>
      </trkpt>
      <trkpt lat="38.097477927803993" lon="12.663073372095823">
        <ele>23.690000000000001</ele>
        <time>2017-09-22T12:13:52Z</time>
      </trkpt>
      <trkpt lat="38.097355971112847" lon="12.663122238591313">
        <ele>23.210000000000001</ele>
        <time>2017-09-22T12:14:03Z</time>
      </trkpt>
      <trkpt lat="38.097301488742232" lon="12.663131710141897">
        <ele>23.210000000000001</ele>
        <time>2017-09-22T12:14:08Z</time>
      </trkpt>
      <trkpt lat="38.097275756299496" lon="12.663146797567606">
        <ele>22.73</ele>
        <time>2017-09-22T12:14:11Z</time>
      </trkpt>
      <trkpt lat="38.097203085198998" lon="12.66312793828547">
        <ele>22.25</ele>
        <time>2017-09-22T12:14:17Z</time>
      </trkpt>
      <trkpt lat="38.097113147377968" lon="12.663137912750244">
        <ele>21.289999999999999</ele>
        <time>2017-09-22T12:14:27Z</time>
      </trkpt>
      <trkpt lat="38.097104094922543" lon="12.663074126467109">
        <ele>20.809999999999999</ele>
        <time>2017-09-22T12:14:32Z</time>
      </trkpt>
      <trkpt lat="38.096949197351933" lon="12.663012938573956">
        <ele>19.84</ele>
        <time>2017-09-22T12:14:45Z</time>
      </trkpt>
      <trkpt lat="38.096822379156947" lon="12.662972705438733">
        <ele>18.879999999999999</ele>
        <time>2017-09-22T12:14:56Z</time>
      </trkpt>
      <trkpt lat="38.096791282296181" lon="12.662989720702171">
        <ele>18.879999999999999</ele>
        <time>2017-09-22T12:15:01Z</time>
      </trkpt>
      <trkpt lat="38.096698662266135" lon="12.663058033213019">
        <ele>18.879999999999999</ele>
        <time>2017-09-22T12:15:10Z</time>
      </trkpt>
      <trkpt lat="38.096519457176328" lon="12.66315869987011">
        <ele>18.399999999999999</ele>
        <time>2017-09-22T12:15:26Z</time>
      </trkpt>
      <trkpt lat="38.096293564885855" lon="12.663241429254413">
        <ele>17.920000000000002</ele>
        <time>2017-09-22T12:15:45Z</time>
      </trkpt>
      <trkpt lat="38.096188036724925" lon="12.663253247737885">
        <ele>17.440000000000001</ele>
        <time>2017-09-22T12:15:54Z</time>
      </trkpt>
      <trkpt lat="38.096128441393375" lon="12.663149982690811">
        <ele>16.960000000000001</ele>
        <time>2017-09-22T12:16:05Z</time>
      </trkpt>
      <trkpt lat="38.096118047833443" lon="12.663131710141897">
        <ele>16.960000000000001</ele>
        <time>2017-09-22T12:16:14Z</time>
      </trkpt>
      <trkpt lat="38.096119556576014" lon="12.663136320188642">
        <ele>16.48</ele>
        <time>2017-09-22T12:16:22Z</time>
      </trkpt>
      <trkpt lat="38.096108576282859" lon="12.663134727627039">
        <ele>16.48</ele>
        <time>2017-09-22T12:16:54Z</time>
      </trkpt>
      <trkpt lat="38.096115784719586" lon="12.663130620494485">
        <ele>16</ele>
        <time>2017-09-22T12:17:18Z</time>
      </trkpt>
      <trkpt lat="38.096112767234445" lon="12.663137577474117">
        <ele>16.48</ele>
        <time>2017-09-22T12:17:48Z</time>
      </trkpt>
      <trkpt lat="38.096107905730605" lon="12.663128525018692">
        <ele>16</ele>
        <time>2017-09-22T12:18:12Z</time>
      </trkpt>
      <trkpt lat="38.096121568232775" lon="12.663132129237056">
        <ele>16.960000000000001</ele>
        <time>2017-09-22T12:18:34Z</time>
      </trkpt>
      <trkpt lat="38.096156520769" lon="12.663167417049408">
        <ele>16</ele>
        <time>2017-09-22T12:18:43Z</time>
      </trkpt>
      <trkpt lat="38.096131291240454" lon="12.663212092593312">
        <ele>16.960000000000001</ele>
        <time>2017-09-22T12:18:54Z</time>
      </trkpt>
      <trkpt lat="38.096105139702559" lon="12.663228269666433">
        <ele>16.960000000000001</ele>
        <time>2017-09-22T12:19:00Z</time>
      </trkpt>
      <trkpt lat="38.095988379791379" lon="12.663251906633377">
        <ele>16.48</ele>
        <time>2017-09-22T12:19:11Z</time>
      </trkpt>
      <trkpt lat="38.095839014276862" lon="12.663256181403995">
        <ele>16</ele>
        <time>2017-09-22T12:19:25Z</time>
      </trkpt>
      <trkpt lat="38.095688056200743" lon="12.66328333877027">
        <ele>15.52</ele>
        <time>2017-09-22T12:19:38Z</time>
      </trkpt>
      <trkpt lat="38.095532488077879" lon="12.663308149203658">
        <ele>15.52</ele>
        <time>2017-09-22T12:19:51Z</time>
      </trkpt>
      <trkpt lat="38.095389241352677" lon="12.663326840847731">
        <ele>15.52</ele>
        <time>2017-09-22T12:20:04Z</time>
      </trkpt>
      <trkpt lat="38.095242558047175" lon="12.663344778120518">
        <ele>15.52</ele>
        <time>2017-09-22T12:20:17Z</time>
      </trkpt>
      <trkpt lat="38.095098724588752" lon="12.663362547755241">
        <ele>15.52</ele>
        <time>2017-09-22T12:20:30Z</time>
      </trkpt>
      <trkpt lat="38.094907281920314" lon="12.663344694301486">
        <ele>15.52</ele>
        <time>2017-09-22T12:20:45Z</time>
      </trkpt>
      <trkpt lat="38.094865037128329" lon="12.663362044841051">
        <ele>16.48</ele>
        <time>2017-09-22T12:20:50Z</time>
      </trkpt>
      <trkpt lat="38.094854056835175" lon="12.663362799212337">
        <ele>16.48</ele>
        <time>2017-09-22T12:20:51Z</time>
      </trkpt>
      <trkpt lat="38.094750205054879" lon="12.663357937708497">
        <ele>16</ele>
        <time>2017-09-22T12:21:01Z</time>
      </trkpt>
      <trkpt lat="38.094658004119992" lon="12.663336480036378">
        <ele>15.52</ele>
        <time>2017-09-22T12:21:10Z</time>
      </trkpt>
      <trkpt lat="38.094543423503637" lon="12.66331066377461">
        <ele>15.52</ele>
        <time>2017-09-22T12:21:23Z</time>
      </trkpt>
      <trkpt lat="38.094417359679937" lon="12.66323396936059">
        <ele>15.52</ele>
        <time>2017-09-22T12:21:36Z</time>
      </trkpt>
      <trkpt lat="38.094407049939036" lon="12.663226760923862">
        <ele>15.52</ele>
        <time>2017-09-22T12:21:37Z</time>
      </trkpt>
      <trkpt lat="38.094304455444217" lon="12.663145624101162">
        <ele>15.039999999999999</ele>
        <time>2017-09-22T12:21:48Z</time>
      </trkpt>
      <trkpt lat="38.094193479046226" lon="12.663039090111852">
        <ele>14.08</ele>
        <time>2017-09-22T12:22:02Z</time>
      </trkpt>
      <trkpt lat="38.094095829874277" lon="12.662969185039401">
        <ele>14.08</ele>
        <time>2017-09-22T12:22:14Z</time>
      </trkpt>
      <trkpt lat="38.094026260077953" lon="12.662964826449752">
        <ele>14.08</ele>
        <time>2017-09-22T12:22:24Z</time>
      </trkpt>
      <trkpt lat="38.093960797414184" lon="12.662962228059769">
        <ele>14.56</ele>
        <time>2017-09-22T12:22:34Z</time>
      </trkpt>
      <trkpt lat="38.093954091891646" lon="12.662961557507515">
        <ele>14.56</ele>
        <time>2017-09-22T12:22:45Z</time>
      </trkpt>
      <trkpt lat="38.093963731080294" lon="12.662922330200672">
        <ele>14.56</ele>
        <time>2017-09-22T12:22:54Z</time>
      </trkpt>
    </trkseg>
  </trk>

</gpx>